<?xml version="1.0" encoding="ISO-8859-1"?>
<gpx xmlns="http://www.topografix.com/GPX/1/1" 
version="1.1" creator="Sports Tracker" 
xmlns:xsi="http://www.w3.org/2001/XMLSchema-instance" 
xsi:schemaLocation="http://www.topografix.com/GPX/1/1 
http://www.topografix.com/GPX/1/1/gpx.xsd 
http://www.garmin.com/xmlschemas/GpxExtensions/v3 
http://www.garmin.com/xmlschemas/GpxExtensionsv3.xsd 
http://www.garmin.com/xmlschemas/TrackPointExtension/v1 
http://www.garmin.com/xmlschemas/TrackPointExtensionv1.xsd" 
xmlns:gpxtpx="http://www.garmin.com/xmlschemas/TrackPointExtension/v1" 
xmlns:gpxx="http://www.garmin.com/xmlschemas/GpxExtensions/v3">
<metadata>
<name><![CDATA[18.09.2012 15:18]]></name>
<desc><![CDATA[Motorrad]]></desc>
<author><name><![CDATA[Martin Waidhofer]]></name></author>
<link href="www.sports-tracker.com">
<text>Sports Tracker</text>
</link>
<time>2012-09-18T15:19:53.78</time>
</metadata>
<trk>
<name><![CDATA[18.09.2012 15:18]]></name>
<trkseg>
<trkpt lat="47.446583" lon="15.881357">
<ele>615.0</ele>
<desc>Speed 0.4 km/h Distance 0.00 km</desc>
<time>2012-09-18T15:19:54.49</time>
<name>1</name>
<sym>Crossing</sym>
</trkpt>
<trkpt lat="47.446587" lon="15.881358">
<ele>615.0</ele>
<desc>Speed 0.4 km/h Distance 0.00 km</desc>
<time>2012-09-18T15:19:55.49</time>
<name>2</name>
<sym>Dot</sym>
</trkpt>
<trkpt lat="47.446588" lon="15.881360">
<ele>615.0</ele>
<desc>Speed 0.5 km/h Distance 0.00 km</desc>
<time>2012-09-18T15:19:56.49</time>
<name>3</name>
<sym>Dot</sym>
</trkpt>
<trkpt lat="47.446590" lon="15.881362">
<ele>615.0</ele>
<desc>Speed 0.4 km/h Distance 0.00 km</desc>
<time>2012-09-18T15:19:57.54</time>
<name>4</name>
<sym>Dot</sym>
</trkpt>
<trkpt lat="47.446592" lon="15.881362">
<ele>615.0</ele>
<desc>Speed 0.4 km/h Distance 0.00 km</desc>
<time>2012-09-18T15:19:58.48</time>
<name>5</name>
<sym>Dot</sym>
</trkpt>
<trkpt lat="47.446593" lon="15.881363">
<ele>615.0</ele>
<desc>Speed 0.5 km/h Distance 0.00 km</desc>
<time>2012-09-18T15:19:59.47</time>
<name>6</name>
<sym>Dot</sym>
</trkpt>
<trkpt lat="47.446590" lon="15.881353">
<ele>615.0</ele>
<desc>Speed 2.9 km/h Distance 0.00 km</desc>
<time>2012-09-18T15:20:00.47</time>
<name>7</name>
<sym>Dot</sym>
</trkpt>
<trkpt lat="47.446603" lon="15.881278">
<ele>612.0</ele>
<desc>Speed 11.0 km/h Distance 0.01 km</desc>
<time>2012-09-18T15:20:02.46</time>
<name>8</name>
<sym>Dot</sym>
</trkpt>
<trkpt lat="47.446618" lon="15.881245">
<ele>612.0</ele>
<desc>Speed 10.6 km/h Distance 0.01 km</desc>
<time>2012-09-18T15:20:03.44</time>
<name>9</name>
<sym>Dot</sym>
</trkpt>
<trkpt lat="47.446635" lon="15.881223">
<ele>611.5</ele>
<desc>Speed 10.7 km/h Distance 0.01 km</desc>
<time>2012-09-18T15:20:04.45</time>
<name>10</name>
<sym>Dot</sym>
</trkpt>
<trkpt lat="47.446660" lon="15.881213">
<ele>611.0</ele>
<desc>Speed 11.7 km/h Distance 0.02 km</desc>
<time>2012-09-18T15:20:05.44</time>
<name>11</name>
<sym>Dot</sym>
</trkpt>
<trkpt lat="47.446678" lon="15.881228">
<ele>612.5</ele>
<desc>Speed 8.7 km/h Distance 0.02 km</desc>
<time>2012-09-18T15:20:06.43</time>
<name>12</name>
<sym>Dot</sym>
</trkpt>
<trkpt lat="47.446695" lon="15.881255">
<ele>614.0</ele>
<desc>Speed 9.5 km/h Distance 0.02 km</desc>
<time>2012-09-18T15:20:07.53</time>
<name>13</name>
<sym>Dot</sym>
</trkpt>
<trkpt lat="47.446705" lon="15.881288">
<ele>614.0</ele>
<desc>Speed 10.0 km/h Distance 0.02 km</desc>
<time>2012-09-18T15:20:08.42</time>
<name>14</name>
<sym>Dot</sym>
</trkpt>
<trkpt lat="47.446717" lon="15.881322">
<ele>614.0</ele>
<desc>Speed 10.0 km/h Distance 0.03 km</desc>
<time>2012-09-18T15:20:09.42</time>
<name>15</name>
<sym>Dot</sym>
</trkpt>
<trkpt lat="47.446735" lon="15.881348">
<ele>614.0</ele>
<desc>Speed 10.0 km/h Distance 0.03 km</desc>
<time>2012-09-18T15:20:10.42</time>
<name>16</name>
<sym>Dot</sym>
</trkpt>
<trkpt lat="47.446743" lon="15.881362">
<ele>614.0</ele>
<desc>Speed 5.5 km/h Distance 0.03 km</desc>
<time>2012-09-18T15:20:11.40</time>
<name>17</name>
<sym>Dot</sym>
</trkpt>
<trkpt lat="47.446743" lon="15.881370">
<ele>614.5</ele>
<desc>Speed 1.5 km/h Distance 0.03 km</desc>
<time>2012-09-18T15:20:12.40</time>
<name>18</name>
<sym>Dot</sym>
</trkpt>
<trkpt lat="47.446738" lon="15.881373">
<ele>615.0</ele>
<desc>Speed 1.9 km/h Distance 0.03 km</desc>
<time>2012-09-18T15:20:13.40</time>
<name>19</name>
<sym>Dot</sym>
</trkpt>
<trkpt lat="47.446735" lon="15.881375">
<ele>615.0</ele>
<desc>Speed 1.3 km/h Distance 0.03 km</desc>
<time>2012-09-18T15:20:14.40</time>
<name>20</name>
<sym>Dot</sym>
</trkpt>
<trkpt lat="47.446733" lon="15.881380">
<ele>615.5</ele>
<desc>Speed 1.2 km/h Distance 0.03 km</desc>
<time>2012-09-18T15:20:15.39</time>
<name>21</name>
<sym>Dot</sym>
</trkpt>
<trkpt lat="47.446732" lon="15.881383">
<ele>615.5</ele>
<desc>Speed 1.3 km/h Distance 0.03 km</desc>
<time>2012-09-18T15:20:16.45</time>
<name>22</name>
<sym>Dot</sym>
</trkpt>
<trkpt lat="47.446728" lon="15.881387">
<ele>615.5</ele>
<desc>Speed 1.3 km/h Distance 0.03 km</desc>
<time>2012-09-18T15:20:17.38</time>
<name>23</name>
<sym>Dot</sym>
</trkpt>
<trkpt lat="47.446727" lon="15.881388">
<ele>616.0</ele>
<desc>Speed 1.2 km/h Distance 0.03 km</desc>
<time>2012-09-18T15:20:18.38</time>
<name>24</name>
<sym>Dot</sym>
</trkpt>
<trkpt lat="47.446723" lon="15.881392">
<ele>616.5</ele>
<desc>Speed 1.4 km/h Distance 0.03 km</desc>
<time>2012-09-18T15:20:19.37</time>
<name>25</name>
<sym>Dot</sym>
</trkpt>
<trkpt lat="47.446720" lon="15.881393">
<ele>617.0</ele>
<desc>Speed 1.5 km/h Distance 0.04 km</desc>
<time>2012-09-18T15:20:20.37</time>
<name>26</name>
<sym>Dot</sym>
</trkpt>
<trkpt lat="47.446717" lon="15.881397">
<ele>617.0</ele>
<desc>Speed 1.4 km/h Distance 0.04 km</desc>
<time>2012-09-18T15:20:21.37</time>
<name>27</name>
<sym>Dot</sym>
</trkpt>
<trkpt lat="47.446712" lon="15.881400">
<ele>617.5</ele>
<desc>Speed 1.5 km/h Distance 0.04 km</desc>
<time>2012-09-18T15:20:22.37</time>
<name>28</name>
<sym>Dot</sym>
</trkpt>
<trkpt lat="47.446708" lon="15.881403">
<ele>618.0</ele>
<desc>Speed 1.6 km/h Distance 0.04 km</desc>
<time>2012-09-18T15:20:23.36</time>
<name>29</name>
<sym>Dot</sym>
</trkpt>
<trkpt lat="47.446705" lon="15.881407">
<ele>618.5</ele>
<desc>Speed 1.8 km/h Distance 0.04 km</desc>
<time>2012-09-18T15:20:24.36</time>
<name>30</name>
<sym>Dot</sym>
</trkpt>
<trkpt lat="47.446700" lon="15.881410">
<ele>619.0</ele>
<desc>Speed 1.7 km/h Distance 0.04 km</desc>
<time>2012-09-18T15:20:25.35</time>
<name>31</name>
<sym>Dot</sym>
</trkpt>
<trkpt lat="47.446695" lon="15.881413">
<ele>619.5</ele>
<desc>Speed 1.8 km/h Distance 0.04 km</desc>
<time>2012-09-18T15:20:26.42</time>
<name>32</name>
<sym>Dot</sym>
</trkpt>
<trkpt lat="47.446695" lon="15.881420">
<ele>620.0</ele>
<desc>Speed 1.7 km/h Distance 0.04 km</desc>
<time>2012-09-18T15:20:27.34</time>
<name>33</name>
<sym>Dot</sym>
</trkpt>
<trkpt lat="47.446710" lon="15.881425">
<ele>619.5</ele>
<desc>Speed 6.7 km/h Distance 0.04 km</desc>
<time>2012-09-18T15:20:28.34</time>
<name>34</name>
<sym>Dot</sym>
</trkpt>
<trkpt lat="47.446737" lon="15.881425">
<ele>620.5</ele>
<desc>Speed 10.5 km/h Distance 0.04 km</desc>
<time>2012-09-18T15:20:29.34</time>
<name>35</name>
<sym>Dot</sym>
</trkpt>
<trkpt lat="47.447122" lon="15.880873">
<ele>623.0</ele>
<desc>Speed 47.2 km/h Distance 0.10 km</desc>
<time>2012-09-18T15:20:35.48</time>
<name>36</name>
<sym>Dot</sym>
</trkpt>
<trkpt lat="47.447202" lon="15.880738">
<ele>623.0</ele>
<desc>Speed 48.9 km/h Distance 0.12 km</desc>
<time>2012-09-18T15:20:36.50</time>
<name>37</name>
<sym>Dot</sym>
</trkpt>
<trkpt lat="47.447510" lon="15.880160">
<ele>624.0</ele>
<desc>Speed 69.9 km/h Distance 0.17 km</desc>
<time>2012-09-18T15:20:39.48</time>
<name>38</name>
<sym>Dot</sym>
</trkpt>
<trkpt lat="47.447603" lon="15.879942">
<ele>624.0</ele>
<desc>Speed 70.3 km/h Distance 0.19 km</desc>
<time>2012-09-18T15:20:40.48</time>
<name>39</name>
<sym>Dot</sym>
</trkpt>
<trkpt lat="47.447698" lon="15.879712">
<ele>624.0</ele>
<desc>Speed 73.0 km/h Distance 0.21 km</desc>
<time>2012-09-18T15:20:41.48</time>
<name>40</name>
<sym>Dot</sym>
</trkpt>
<trkpt lat="47.447788" lon="15.879477">
<ele>624.5</ele>
<desc>Speed 73.4 km/h Distance 0.23 km</desc>
<time>2012-09-18T15:20:42.47</time>
<name>41</name>
<sym>Dot</sym>
</trkpt>
<trkpt lat="47.447873" lon="15.879225">
<ele>625.5</ele>
<desc>Speed 76.6 km/h Distance 0.25 km</desc>
<time>2012-09-18T15:20:43.47</time>
<name>42</name>
<sym>Dot</sym>
</trkpt>
<trkpt lat="47.447958" lon="15.878953">
<ele>625.5</ele>
<desc>Speed 81.0 km/h Distance 0.28 km</desc>
<time>2012-09-18T15:20:44.47</time>
<name>43</name>
<sym>Dot</sym>
</trkpt>
<trkpt lat="47.448040" lon="15.878682">
<ele>625.5</ele>
<desc>Speed 81.0 km/h Distance 0.30 km</desc>
<time>2012-09-18T15:20:45.46</time>
<name>44</name>
<sym>Dot</sym>
</trkpt>
<trkpt lat="47.448122" lon="15.878403">
<ele>625.5</ele>
<desc>Speed 82.1 km/h Distance 0.32 km</desc>
<time>2012-09-18T15:20:46.46</time>
<name>45</name>
<sym>Dot</sym>
</trkpt>
<trkpt lat="47.448207" lon="15.878122">
<ele>626.5</ele>
<desc>Speed 83.6 km/h Distance 0.34 km</desc>
<time>2012-09-18T15:20:47.53</time>
<name>46</name>
<sym>Dot</sym>
</trkpt>
<trkpt lat="47.448408" lon="15.877497">
<ele>625.0</ele>
<desc>Speed 95.5 km/h Distance 0.40 km</desc>
<time>2012-09-18T15:20:49.45</time>
<name>47</name>
<sym>Dot</sym>
</trkpt>
<trkpt lat="47.448508" lon="15.877178">
<ele>625.5</ele>
<desc>Speed 95.3 km/h Distance 0.42 km</desc>
<time>2012-09-18T15:20:50.44</time>
<name>48</name>
<sym>Dot</sym>
</trkpt>
<trkpt lat="47.448610" lon="15.876858">
<ele>626.5</ele>
<desc>Speed 95.8 km/h Distance 0.45 km</desc>
<time>2012-09-18T15:20:51.44</time>
<name>49</name>
<sym>Dot</sym>
</trkpt>
<trkpt lat="47.448710" lon="15.876538">
<ele>627.0</ele>
<desc>Speed 95.9 km/h Distance 0.48 km</desc>
<time>2012-09-18T15:20:52.44</time>
<name>50</name>
<sym>Dot</sym>
</trkpt>
<trkpt lat="47.448812" lon="15.876220">
<ele>627.5</ele>
<desc>Speed 95.5 km/h Distance 0.50 km</desc>
<time>2012-09-18T15:20:53.44</time>
<name>51</name>
<sym>Dot</sym>
</trkpt>
<trkpt lat="47.448912" lon="15.875905">
<ele>627.5</ele>
<desc>Speed 94.6 km/h Distance 0.53 km</desc>
<time>2012-09-18T15:20:54.43</time>
<name>52</name>
<sym>Dot</sym>
</trkpt>
<trkpt lat="47.449012" lon="15.875595">
<ele>627.5</ele>
<desc>Speed 93.3 km/h Distance 0.55 km</desc>
<time>2012-09-18T15:20:55.43</time>
<name>53</name>
<sym>Dot</sym>
</trkpt>
<trkpt lat="47.449112" lon="15.875288">
<ele>626.0</ele>
<desc>Speed 92.6 km/h Distance 0.58 km</desc>
<time>2012-09-18T15:20:56.42</time>
<name>54</name>
<sym>Dot</sym>
</trkpt>
<trkpt lat="47.449210" lon="15.874975">
<ele>626.0</ele>
<desc>Speed 93.7 km/h Distance 0.61 km</desc>
<time>2012-09-18T15:20:57.48</time>
<name>55</name>
<sym>Dot</sym>
</trkpt>
<trkpt lat="47.449305" lon="15.874673">
<ele>625.5</ele>
<desc>Speed 90.7 km/h Distance 0.63 km</desc>
<time>2012-09-18T15:20:58.39</time>
<name>56</name>
<sym>Dot</sym>
</trkpt>
<trkpt lat="47.449400" lon="15.874365">
<ele>627.0</ele>
<desc>Speed 91.9 km/h Distance 0.66 km</desc>
<time>2012-09-18T15:20:59.39</time>
<name>57</name>
<sym>Dot</sym>
</trkpt>
<trkpt lat="47.449497" lon="15.874055">
<ele>627.0</ele>
<desc>Speed 93.4 km/h Distance 0.68 km</desc>
<time>2012-09-18T15:21:00.38</time>
<name>58</name>
<sym>Dot</sym>
</trkpt>
<trkpt lat="47.449713" lon="15.873375">
<ele>627.0</ele>
<desc>Speed 102 km/h Distance 0.74 km</desc>
<time>2012-09-18T15:21:02.37</time>
<name>59</name>
<sym>Dot</sym>
</trkpt>
<trkpt lat="47.449820" lon="15.873032">
<ele>628.0</ele>
<desc>Speed 102 km/h Distance 0.77 km</desc>
<time>2012-09-18T15:21:03.37</time>
<name>60</name>
<sym>Dot</sym>
</trkpt>
<trkpt lat="47.449927" lon="15.872695">
<ele>629.0</ele>
<desc>Speed 101 km/h Distance 0.80 km</desc>
<time>2012-09-18T15:21:04.35</time>
<name>61</name>
<sym>Dot</sym>
</trkpt>
<trkpt lat="47.450028" lon="15.872355">
<ele>629.5</ele>
<desc>Speed 101 km/h Distance 0.82 km</desc>
<time>2012-09-18T15:21:05.34</time>
<name>62</name>
<sym>Dot</sym>
</trkpt>
<trkpt lat="47.450123" lon="15.872010">
<ele>630.0</ele>
<desc>Speed 101 km/h Distance 0.85 km</desc>
<time>2012-09-18T15:21:06.33</time>
<name>63</name>
<sym>Dot</sym>
</trkpt>
<trkpt lat="47.450213" lon="15.871660">
<ele>630.5</ele>
<desc>Speed 102 km/h Distance 0.88 km</desc>
<time>2012-09-18T15:21:07.34</time>
<name>64</name>
<sym>Dot</sym>
</trkpt>
<trkpt lat="47.450297" lon="15.871305">
<ele>631.5</ele>
<desc>Speed 102 km/h Distance 0.91 km</desc>
<time>2012-09-18T15:21:08.32</time>
<name>65</name>
<sym>Dot</sym>
</trkpt>
<trkpt lat="47.450373" lon="15.870950">
<ele>632.0</ele>
<desc>Speed 101 km/h Distance 0.94 km</desc>
<time>2012-09-18T15:21:09.31</time>
<name>66</name>
<sym>Dot</sym>
</trkpt>
<trkpt lat="47.450445" lon="15.870600">
<ele>632.5</ele>
<desc>Speed 99.5 km/h Distance 0.96 km</desc>
<time>2012-09-18T15:21:10.35</time>
<name>67</name>
<sym>Dot</sym>
</trkpt>
<trkpt lat="47.450507" lon="15.870262">
<ele>632.5</ele>
<desc>Speed 95.4 km/h Distance 0.99 km</desc>
<time>2012-09-18T15:21:11.30</time>
<name>68</name>
<sym>Dot</sym>
</trkpt>
<trkpt lat="47.450553" lon="15.869938">
<ele>632.5</ele>
<desc>Speed 89.9 km/h Distance 1.01 km</desc>
<time>2012-09-18T15:21:12.29</time>
<name>69</name>
<sym>Dot</sym>
</trkpt>
<trkpt lat="47.450597" lon="15.869610">
<ele>634.0</ele>
<desc>Speed 90.9 km/h Distance 1.04 km</desc>
<time>2012-09-18T15:21:13.29</time>
<name>70</name>
<sym>Dot</sym>
</trkpt>
<trkpt lat="47.450640" lon="15.869283">
<ele>633.5</ele>
<desc>Speed 90.4 km/h Distance 1.06 km</desc>
<time>2012-09-18T15:21:14.28</time>
<name>71</name>
<sym>Dot</sym>
</trkpt>
<trkpt lat="47.450673" lon="15.868960">
<ele>633.0</ele>
<desc>Speed 89.0 km/h Distance 1.09 km</desc>
<time>2012-09-18T15:21:15.28</time>
<name>72</name>
<sym>Dot</sym>
</trkpt>
<trkpt lat="47.450702" lon="15.868625">
<ele>633.0</ele>
<desc>Speed 91.4 km/h Distance 1.12 km</desc>
<time>2012-09-18T15:21:16.28</time>
<name>73</name>
<sym>Dot</sym>
</trkpt>
<trkpt lat="47.450723" lon="15.868282">
<ele>632.5</ele>
<desc>Speed 94.0 km/h Distance 1.14 km</desc>
<time>2012-09-18T15:21:17.27</time>
<name>74</name>
<sym>Dot</sym>
</trkpt>
<trkpt lat="47.450737" lon="15.867933">
<ele>633.0</ele>
<desc>Speed 94.8 km/h Distance 1.17 km</desc>
<time>2012-09-18T15:21:18.26</time>
<name>75</name>
<sym>Dot</sym>
</trkpt>
<trkpt lat="47.450743" lon="15.867587">
<ele>632.5</ele>
<desc>Speed 94.0 km/h Distance 1.19 km</desc>
<time>2012-09-18T15:21:19.26</time>
<name>76</name>
<sym>Dot</sym>
</trkpt>
<trkpt lat="47.450743" lon="15.867243">
<ele>631.0</ele>
<desc>Speed 93.8 km/h Distance 1.22 km</desc>
<time>2012-09-18T15:21:20.25</time>
<name>77</name>
<sym>Dot</sym>
</trkpt>
<trkpt lat="47.450732" lon="15.866905">
<ele>631.0</ele>
<desc>Speed 92.1 km/h Distance 1.24 km</desc>
<time>2012-09-18T15:21:21.31</time>
<name>78</name>
<sym>Dot</sym>
</trkpt>
<trkpt lat="47.450705" lon="15.866567">
<ele>630.5</ele>
<desc>Speed 92.6 km/h Distance 1.27 km</desc>
<time>2012-09-18T15:21:22.24</time>
<name>79</name>
<sym>Dot</sym>
</trkpt>
<trkpt lat="47.450673" lon="15.866225">
<ele>630.5</ele>
<desc>Speed 94.2 km/h Distance 1.30 km</desc>
<time>2012-09-18T15:21:23.23</time>
<name>80</name>
<sym>Dot</sym>
</trkpt>
<trkpt lat="47.450615" lon="15.865898">
<ele>632.0</ele>
<desc>Speed 91.3 km/h Distance 1.32 km</desc>
<time>2012-09-18T15:21:24.22</time>
<name>81</name>
<sym>Dot</sym>
</trkpt>
<trkpt lat="47.450557" lon="15.865562">
<ele>631.5</ele>
<desc>Speed 94.9 km/h Distance 1.35 km</desc>
<time>2012-09-18T15:21:25.22</time>
<name>82</name>
<sym>Dot</sym>
</trkpt>
<trkpt lat="47.450488" lon="15.865225">
<ele>631.0</ele>
<desc>Speed 95.9 km/h Distance 1.37 km</desc>
<time>2012-09-18T15:21:26.22</time>
<name>83</name>
<sym>Dot</sym>
</trkpt>
<trkpt lat="47.450410" lon="15.864887">
<ele>630.5</ele>
<desc>Speed 97.6 km/h Distance 1.40 km</desc>
<time>2012-09-18T15:21:27.22</time>
<name>84</name>
<sym>Dot</sym>
</trkpt>
<trkpt lat="47.450320" lon="15.864540">
<ele>629.5</ele>
<desc>Speed 101 km/h Distance 1.43 km</desc>
<time>2012-09-18T15:21:28.22</time>
<name>85</name>
<sym>Dot</sym>
</trkpt>
<trkpt lat="47.450220" lon="15.864203">
<ele>630.5</ele>
<desc>Speed 100 km/h Distance 1.46 km</desc>
<time>2012-09-18T15:21:29.22</time>
<name>86</name>
<sym>Dot</sym>
</trkpt>
<trkpt lat="47.450130" lon="15.863877">
<ele>630.5</ele>
<desc>Speed 95.9 km/h Distance 1.48 km</desc>
<time>2012-09-18T15:21:30.22</time>
<name>87</name>
<sym>Dot</sym>
</trkpt>
<trkpt lat="47.450043" lon="15.863557">
<ele>630.5</ele>
<desc>Speed 93.7 km/h Distance 1.51 km</desc>
<time>2012-09-18T15:21:31.22</time>
<name>88</name>
<sym>Dot</sym>
</trkpt>
<trkpt lat="47.449977" lon="15.863233">
<ele>630.5</ele>
<desc>Speed 91.9 km/h Distance 1.53 km</desc>
<time>2012-09-18T15:21:32.21</time>
<name>89</name>
<sym>Dot</sym>
</trkpt>
<trkpt lat="47.449937" lon="15.862898">
<ele>630.5</ele>
<desc>Speed 92.9 km/h Distance 1.56 km</desc>
<time>2012-09-18T15:21:33.20</time>
<name>90</name>
<sym>Dot</sym>
</trkpt>
<trkpt lat="47.449907" lon="15.862540">
<ele>630.5</ele>
<desc>Speed 98.6 km/h Distance 1.59 km</desc>
<time>2012-09-18T15:21:34.19</time>
<name>91</name>
<sym>Dot</sym>
</trkpt>
<trkpt lat="47.449898" lon="15.862167">
<ele>630.0</ele>
<desc>Speed 102 km/h Distance 1.62 km</desc>
<time>2012-09-18T15:21:35.19</time>
<name>92</name>
<sym>Dot</sym>
</trkpt>
<trkpt lat="47.449877" lon="15.861773">
<ele>630.0</ele>
<desc>Speed 107 km/h Distance 1.65 km</desc>
<time>2012-09-18T15:21:36.19</time>
<name>93</name>
<sym>Dot</sym>
</trkpt>
<trkpt lat="47.449817" lon="15.860760">
<ele>632.0</ele>
<desc>Speed 86.5 km/h Distance 1.72 km</desc>
<time>2012-09-18T15:21:39.47</time>
<name>94</name>
<sym>Dot</sym>
</trkpt>
<trkpt lat="47.449795" lon="15.860452">
<ele>632.0</ele>
<desc>Speed 85.0 km/h Distance 1.75 km</desc>
<time>2012-09-18T15:21:40.47</time>
<name>95</name>
<sym>Dot</sym>
</trkpt>
<trkpt lat="47.449740" lon="15.859900">
<ele>632.0</ele>
<desc>Speed 74.5 km/h Distance 1.79 km</desc>
<time>2012-09-18T15:21:42.46</time>
<name>96</name>
<sym>Dot</sym>
</trkpt>
<trkpt lat="47.449517" lon="15.858940">
<ele>631.5</ele>
<desc>Speed 37.6 km/h Distance 1.86 km</desc>
<time>2012-09-18T15:21:48.45</time>
<name>97</name>
<sym>Dot</sym>
</trkpt>
<trkpt lat="47.449475" lon="15.858803">
<ele>631.5</ele>
<desc>Speed 41.2 km/h Distance 1.88 km</desc>
<time>2012-09-18T15:21:49.45</time>
<name>98</name>
<sym>Dot</sym>
</trkpt>
<trkpt lat="47.449427" lon="15.858652">
<ele>632.0</ele>
<desc>Speed 45.2 km/h Distance 1.89 km</desc>
<time>2012-09-18T15:21:50.44</time>
<name>99</name>
<sym>Dot</sym>
</trkpt>
<trkpt lat="47.449378" lon="15.858492">
<ele>632.0</ele>
<desc>Speed 47.9 km/h Distance 1.90 km</desc>
<time>2012-09-18T15:21:51.45</time>
<name>100</name>
<sym>Dot</sym>
</trkpt>
<trkpt lat="47.449323" lon="15.858317">
<ele>632.0</ele>
<desc>Speed 52.3 km/h Distance 1.92 km</desc>
<time>2012-09-18T15:21:52.44</time>
<name>101</name>
<sym>Dot</sym>
</trkpt>
<trkpt lat="47.449268" lon="15.858140">
<ele>632.0</ele>
<desc>Speed 52.7 km/h Distance 1.93 km</desc>
<time>2012-09-18T15:21:53.44</time>
<name>102</name>
<sym>Dot</sym>
</trkpt>
<trkpt lat="47.449218" lon="15.857968">
<ele>632.0</ele>
<desc>Speed 50.9 km/h Distance 1.94 km</desc>
<time>2012-09-18T15:21:54.44</time>
<name>103</name>
<sym>Dot</sym>
</trkpt>
<trkpt lat="47.449167" lon="15.857795">
<ele>632.0</ele>
<desc>Speed 51.4 km/h Distance 1.96 km</desc>
<time>2012-09-18T15:21:55.44</time>
<name>104</name>
<sym>Dot</sym>
</trkpt>
<trkpt lat="47.449118" lon="15.857613">
<ele>632.5</ele>
<desc>Speed 53.1 km/h Distance 1.97 km</desc>
<time>2012-09-18T15:21:56.43</time>
<name>105</name>
<sym>Dot</sym>
</trkpt>
<trkpt lat="47.449088" lon="15.857418">
<ele>633.0</ele>
<desc>Speed 54.3 km/h Distance 1.99 km</desc>
<time>2012-09-18T15:21:57.42</time>
<name>106</name>
<sym>Dot</sym>
</trkpt>
<trkpt lat="47.449055" lon="15.857215">
<ele>633.0</ele>
<desc>Speed 57.0 km/h Distance 2.00 km</desc>
<time>2012-09-18T15:21:58.41</time>
<name>107</name>
<sym>Dot</sym>
</trkpt>
<trkpt lat="47.449027" lon="15.857010">
<ele>634.5</ele>
<desc>Speed 57.2 km/h Distance 2.02 km</desc>
<time>2012-09-18T15:21:59.42</time>
<name>108</name>
<sym>Dot</sym>
</trkpt>
<trkpt lat="47.448988" lon="15.856542">
<ele>637.0</ele>
<desc>Speed 63.7 km/h Distance 2.06 km</desc>
<time>2012-09-18T15:22:01.41</time>
<name>109</name>
<sym>Dot</sym>
</trkpt>
<trkpt lat="47.448970" lon="15.856017">
<ele>638.0</ele>
<desc>Speed 69.7 km/h Distance 2.09 km</desc>
<time>2012-09-18T15:22:03.40</time>
<name>110</name>
<sym>Dot</sym>
</trkpt>
<trkpt lat="47.448967" lon="15.855770">
<ele>638.5</ele>
<desc>Speed 66.5 km/h Distance 2.11 km</desc>
<time>2012-09-18T15:22:04.39</time>
<name>111</name>
<sym>Dot</sym>
</trkpt>
<trkpt lat="47.448963" lon="15.855523">
<ele>639.0</ele>
<desc>Speed 66.5 km/h Distance 2.13 km</desc>
<time>2012-09-18T15:22:05.39</time>
<name>112</name>
<sym>Dot</sym>
</trkpt>
<trkpt lat="47.448953" lon="15.855277">
<ele>639.0</ele>
<desc>Speed 67.4 km/h Distance 2.15 km</desc>
<time>2012-09-18T15:22:06.38</time>
<name>113</name>
<sym>Dot</sym>
</trkpt>
<trkpt lat="47.448932" lon="15.855048">
<ele>639.0</ele>
<desc>Speed 62.3 km/h Distance 2.17 km</desc>
<time>2012-09-18T15:22:07.39</time>
<name>114</name>
<sym>Dot</sym>
</trkpt>
<trkpt lat="47.448882" lon="15.854828">
<ele>639.0</ele>
<desc>Speed 62.8 km/h Distance 2.19 km</desc>
<time>2012-09-18T15:22:08.37</time>
<name>115</name>
<sym>Dot</sym>
</trkpt>
<trkpt lat="47.448818" lon="15.854610">
<ele>639.5</ele>
<desc>Speed 64.2 km/h Distance 2.20 km</desc>
<time>2012-09-18T15:22:09.37</time>
<name>116</name>
<sym>Dot</sym>
</trkpt>
<trkpt lat="47.448722" lon="15.854403">
<ele>639.5</ele>
<desc>Speed 67.5 km/h Distance 2.22 km</desc>
<time>2012-09-18T15:22:10.37</time>
<name>117</name>
<sym>Dot</sym>
</trkpt>
<trkpt lat="47.448625" lon="15.854205">
<ele>639.5</ele>
<desc>Speed 66.5 km/h Distance 2.24 km</desc>
<time>2012-09-18T15:22:11.37</time>
<name>118</name>
<sym>Dot</sym>
</trkpt>
<trkpt lat="47.448513" lon="15.854017">
<ele>640.0</ele>
<desc>Speed 67.3 km/h Distance 2.26 km</desc>
<time>2012-09-18T15:22:12.35</time>
<name>119</name>
<sym>Dot</sym>
</trkpt>
<trkpt lat="47.448393" lon="15.853840">
<ele>640.0</ele>
<desc>Speed 68.0 km/h Distance 2.28 km</desc>
<time>2012-09-18T15:22:13.35</time>
<name>120</name>
<sym>Dot</sym>
</trkpt>
<trkpt lat="47.448263" lon="15.853667">
<ele>640.0</ele>
<desc>Speed 69.9 km/h Distance 2.30 km</desc>
<time>2012-09-18T15:22:14.34</time>
<name>121</name>
<sym>Dot</sym>
</trkpt>
<trkpt lat="47.448135" lon="15.853488">
<ele>640.0</ele>
<desc>Speed 70.6 km/h Distance 2.32 km</desc>
<time>2012-09-18T15:22:15.34</time>
<name>122</name>
<sym>Dot</sym>
</trkpt>
<trkpt lat="47.448015" lon="15.853297">
<ele>640.5</ele>
<desc>Speed 70.9 km/h Distance 2.34 km</desc>
<time>2012-09-18T15:22:16.34</time>
<name>123</name>
<sym>Dot</sym>
</trkpt>
<trkpt lat="47.447917" lon="15.853065">
<ele>640.5</ele>
<desc>Speed 74.3 km/h Distance 2.36 km</desc>
<time>2012-09-18T15:22:17.34</time>
<name>124</name>
<sym>Dot</sym>
</trkpt>
<trkpt lat="47.447812" lon="15.852833">
<ele>640.5</ele>
<desc>Speed 75.5 km/h Distance 2.38 km</desc>
<time>2012-09-18T15:22:18.32</time>
<name>125</name>
<sym>Dot</sym>
</trkpt>
<trkpt lat="47.447718" lon="15.852595">
<ele>641.0</ele>
<desc>Speed 75.2 km/h Distance 2.40 km</desc>
<time>2012-09-18T15:22:19.32</time>
<name>126</name>
<sym>Dot</sym>
</trkpt>
<trkpt lat="47.447627" lon="15.852362">
<ele>642.0</ele>
<desc>Speed 73.4 km/h Distance 2.42 km</desc>
<time>2012-09-18T15:22:20.31</time>
<name>127</name>
<sym>Dot</sym>
</trkpt>
<trkpt lat="47.447543" lon="15.852122">
<ele>642.0</ele>
<desc>Speed 73.6 km/h Distance 2.44 km</desc>
<time>2012-09-18T15:22:21.32</time>
<name>128</name>
<sym>Dot</sym>
</trkpt>
<trkpt lat="47.447462" lon="15.851887">
<ele>642.5</ele>
<desc>Speed 72.4 km/h Distance 2.46 km</desc>
<time>2012-09-18T15:22:22.31</time>
<name>129</name>
<sym>Dot</sym>
</trkpt>
<trkpt lat="47.447380" lon="15.851655">
<ele>643.5</ele>
<desc>Speed 71.5 km/h Distance 2.48 km</desc>
<time>2012-09-18T15:22:23.31</time>
<name>130</name>
<sym>Dot</sym>
</trkpt>
<trkpt lat="47.447302" lon="15.851427">
<ele>644.0</ele>
<desc>Speed 70.2 km/h Distance 2.50 km</desc>
<time>2012-09-18T15:22:24.30</time>
<name>131</name>
<sym>Dot</sym>
</trkpt>
<trkpt lat="47.447225" lon="15.851200">
<ele>644.5</ele>
<desc>Speed 69.2 km/h Distance 2.52 km</desc>
<time>2012-09-18T15:22:25.30</time>
<name>132</name>
<sym>Dot</sym>
</trkpt>
<trkpt lat="47.447150" lon="15.850977">
<ele>645.0</ele>
<desc>Speed 67.9 km/h Distance 2.54 km</desc>
<time>2012-09-18T15:22:26.28</time>
<name>133</name>
<sym>Dot</sym>
</trkpt>
<trkpt lat="47.447072" lon="15.850768">
<ele>646.5</ele>
<desc>Speed 65.9 km/h Distance 2.55 km</desc>
<time>2012-09-18T15:22:27.30</time>
<name>134</name>
<sym>Dot</sym>
</trkpt>
<trkpt lat="47.447005" lon="15.850562">
<ele>647.0</ele>
<desc>Speed 62.6 km/h Distance 2.57 km</desc>
<time>2012-09-18T15:22:28.28</time>
<name>135</name>
<sym>Dot</sym>
</trkpt>
<trkpt lat="47.446948" lon="15.850363">
<ele>647.5</ele>
<desc>Speed 59.2 km/h Distance 2.59 km</desc>
<time>2012-09-18T15:22:29.28</time>
<name>136</name>
<sym>Dot</sym>
</trkpt>
<trkpt lat="47.446903" lon="15.850167">
<ele>648.0</ele>
<desc>Speed 56.7 km/h Distance 2.60 km</desc>
<time>2012-09-18T15:22:30.27</time>
<name>137</name>
<sym>Dot</sym>
</trkpt>
<trkpt lat="47.446870" lon="15.849960">
<ele>648.0</ele>
<desc>Speed 57.8 km/h Distance 2.62 km</desc>
<time>2012-09-18T15:22:31.27</time>
<name>138</name>
<sym>Dot</sym>
</trkpt>
<trkpt lat="47.446848" lon="15.849752">
<ele>648.0</ele>
<desc>Speed 58.0 km/h Distance 2.64 km</desc>
<time>2012-09-18T15:22:32.27</time>
<name>139</name>
<sym>Dot</sym>
</trkpt>
<trkpt lat="47.446842" lon="15.849543">
<ele>648.0</ele>
<desc>Speed 57.0 km/h Distance 2.65 km</desc>
<time>2012-09-18T15:22:33.26</time>
<name>140</name>
<sym>Dot</sym>
</trkpt>
<trkpt lat="47.446845" lon="15.849328">
<ele>648.5</ele>
<desc>Speed 58.7 km/h Distance 2.67 km</desc>
<time>2012-09-18T15:22:34.26</time>
<name>141</name>
<sym>Dot</sym>
</trkpt>
<trkpt lat="47.446860" lon="15.849115">
<ele>649.5</ele>
<desc>Speed 60.2 km/h Distance 2.68 km</desc>
<time>2012-09-18T15:22:35.26</time>
<name>142</name>
<sym>Dot</sym>
</trkpt>
<trkpt lat="47.446892" lon="15.848900">
<ele>649.5</ele>
<desc>Speed 59.9 km/h Distance 2.70 km</desc>
<time>2012-09-18T15:22:36.25</time>
<name>143</name>
<sym>Dot</sym>
</trkpt>
<trkpt lat="47.446937" lon="15.848693">
<ele>650.5</ele>
<desc>Speed 60.2 km/h Distance 2.72 km</desc>
<time>2012-09-18T15:22:37.27</time>
<name>144</name>
<sym>Dot</sym>
</trkpt>
<trkpt lat="47.447002" lon="15.848467">
<ele>652.5</ele>
<desc>Speed 67.3 km/h Distance 2.73 km</desc>
<time>2012-09-18T15:22:38.26</time>
<name>145</name>
<sym>Dot</sym>
</trkpt>
<trkpt lat="47.447093" lon="15.848268">
<ele>654.5</ele>
<desc>Speed 65.7 km/h Distance 2.75 km</desc>
<time>2012-09-18T15:22:39.25</time>
<name>146</name>
<sym>Dot</sym>
</trkpt>
<trkpt lat="47.447187" lon="15.848060">
<ele>656.0</ele>
<desc>Speed 68.4 km/h Distance 2.77 km</desc>
<time>2012-09-18T15:22:40.24</time>
<name>147</name>
<sym>Dot</sym>
</trkpt>
<trkpt lat="47.447323" lon="15.847880">
<ele>654.5</ele>
<desc>Speed 73.6 km/h Distance 2.79 km</desc>
<time>2012-09-18T15:22:41.24</time>
<name>148</name>
<sym>Dot</sym>
</trkpt>
<trkpt lat="47.447458" lon="15.847697">
<ele>655.0</ele>
<desc>Speed 73.9 km/h Distance 2.81 km</desc>
<time>2012-09-18T15:22:42.22</time>
<name>149</name>
<sym>Dot</sym>
</trkpt>
<trkpt lat="47.447595" lon="15.847525">
<ele>656.0</ele>
<desc>Speed 72.1 km/h Distance 2.83 km</desc>
<time>2012-09-18T15:22:43.22</time>
<name>150</name>
<sym>Dot</sym>
</trkpt>
<trkpt lat="47.447725" lon="15.847358">
<ele>656.0</ele>
<desc>Speed 69.3 km/h Distance 2.85 km</desc>
<time>2012-09-18T15:22:44.21</time>
<name>151</name>
<sym>Dot</sym>
</trkpt>
<trkpt lat="47.447852" lon="15.847197">
<ele>656.5</ele>
<desc>Speed 67.3 km/h Distance 2.87 km</desc>
<time>2012-09-18T15:22:45.22</time>
<name>152</name>
<sym>Dot</sym>
</trkpt>
<trkpt lat="47.447973" lon="15.847030">
<ele>656.5</ele>
<desc>Speed 66.2 km/h Distance 2.89 km</desc>
<time>2012-09-18T15:22:46.20</time>
<name>153</name>
<sym>Dot</sym>
</trkpt>
<trkpt lat="47.448083" lon="15.846853">
<ele>657.0</ele>
<desc>Speed 65.4 km/h Distance 2.91 km</desc>
<time>2012-09-18T15:22:47.20</time>
<name>154</name>
<sym>Dot</sym>
</trkpt>
<trkpt lat="47.448188" lon="15.846668">
<ele>657.5</ele>
<desc>Speed 65.4 km/h Distance 2.93 km</desc>
<time>2012-09-18T15:22:48.20</time>
<name>155</name>
<sym>Dot</sym>
</trkpt>
<trkpt lat="47.448282" lon="15.846468">
<ele>658.5</ele>
<desc>Speed 65.8 km/h Distance 2.94 km</desc>
<time>2012-09-18T15:22:49.19</time>
<name>156</name>
<sym>Dot</sym>
</trkpt>
<trkpt lat="47.448365" lon="15.846252">
<ele>658.5</ele>
<desc>Speed 67.6 km/h Distance 2.96 km</desc>
<time>2012-09-18T15:22:50.18</time>
<name>157</name>
<sym>Dot</sym>
</trkpt>
<trkpt lat="47.448455" lon="15.846020">
<ele>658.0</ele>
<desc>Speed 72.4 km/h Distance 2.98 km</desc>
<time>2012-09-18T15:22:51.18</time>
<name>158</name>
<sym>Dot</sym>
</trkpt>
<trkpt lat="47.448550" lon="15.845775">
<ele>657.5</ele>
<desc>Speed 76.4 km/h Distance 3.00 km</desc>
<time>2012-09-18T15:22:52.18</time>
<name>159</name>
<sym>Dot</sym>
</trkpt>
<trkpt lat="47.448643" lon="15.845535">
<ele>657.5</ele>
<desc>Speed 74.9 km/h Distance 3.02 km</desc>
<time>2012-09-18T15:22:53.17</time>
<name>160</name>
<sym>Dot</sym>
</trkpt>
<trkpt lat="47.448748" lon="15.845287">
<ele>658.0</ele>
<desc>Speed 79.1 km/h Distance 3.05 km</desc>
<time>2012-09-18T15:22:54.16</time>
<name>161</name>
<sym>Dot</sym>
</trkpt>
<trkpt lat="47.448855" lon="15.845055">
<ele>658.0</ele>
<desc>Speed 76.3 km/h Distance 3.07 km</desc>
<time>2012-09-18T15:22:55.15</time>
<name>162</name>
<sym>Dot</sym>
</trkpt>
<trkpt lat="47.448960" lon="15.844838">
<ele>658.0</ele>
<desc>Speed 71.9 km/h Distance 3.09 km</desc>
<time>2012-09-18T15:22:56.15</time>
<name>163</name>
<sym>Dot</sym>
</trkpt>
<trkpt lat="47.449060" lon="15.844635">
<ele>658.0</ele>
<desc>Speed 68.5 km/h Distance 3.11 km</desc>
<time>2012-09-18T15:22:57.15</time>
<name>164</name>
<sym>Dot</sym>
</trkpt>
<trkpt lat="47.449162" lon="15.844435">
<ele>658.0</ele>
<desc>Speed 67.7 km/h Distance 3.13 km</desc>
<time>2012-09-18T15:22:58.16</time>
<name>165</name>
<sym>Dot</sym>
</trkpt>
<trkpt lat="47.449260" lon="15.844243">
<ele>658.0</ele>
<desc>Speed 65.3 km/h Distance 3.14 km</desc>
<time>2012-09-18T15:22:59.15</time>
<name>166</name>
<sym>Dot</sym>
</trkpt>
<trkpt lat="47.449348" lon="15.844052">
<ele>658.0</ele>
<desc>Speed 62.5 km/h Distance 3.16 km</desc>
<time>2012-09-18T15:23:00.15</time>
<name>167</name>
<sym>Dot</sym>
</trkpt>
<trkpt lat="47.449428" lon="15.843868">
<ele>658.0</ele>
<desc>Speed 59.6 km/h Distance 3.18 km</desc>
<time>2012-09-18T15:23:01.14</time>
<name>168</name>
<sym>Dot</sym>
</trkpt>
<trkpt lat="47.449502" lon="15.843687">
<ele>658.0</ele>
<desc>Speed 57.2 km/h Distance 3.19 km</desc>
<time>2012-09-18T15:23:02.14</time>
<name>169</name>
<sym>Dot</sym>
</trkpt>
<trkpt lat="47.449558" lon="15.843507">
<ele>658.0</ele>
<desc>Speed 54.0 km/h Distance 3.21 km</desc>
<time>2012-09-18T15:23:03.13</time>
<name>170</name>
<sym>Dot</sym>
</trkpt>
<trkpt lat="47.449600" lon="15.843333">
<ele>658.0</ele>
<desc>Speed 49.8 km/h Distance 3.22 km</desc>
<time>2012-09-18T15:23:04.13</time>
<name>171</name>
<sym>Dot</sym>
</trkpt>
<trkpt lat="47.449630" lon="15.843167">
<ele>658.0</ele>
<desc>Speed 47.1 km/h Distance 3.24 km</desc>
<time>2012-09-18T15:23:05.13</time>
<name>172</name>
<sym>Dot</sym>
</trkpt>
<trkpt lat="47.449650" lon="15.843002">
<ele>658.0</ele>
<desc>Speed 45.8 km/h Distance 3.25 km</desc>
<time>2012-09-18T15:23:06.13</time>
<name>173</name>
<sym>Dot</sym>
</trkpt>
<trkpt lat="47.449663" lon="15.842840">
<ele>658.0</ele>
<desc>Speed 44.4 km/h Distance 3.26 km</desc>
<time>2012-09-18T15:23:07.13</time>
<name>174</name>
<sym>Dot</sym>
</trkpt>
<trkpt lat="47.449670" lon="15.842678">
<ele>658.5</ele>
<desc>Speed 44.5 km/h Distance 3.27 km</desc>
<time>2012-09-18T15:23:08.12</time>
<name>175</name>
<sym>Dot</sym>
</trkpt>
<trkpt lat="47.449670" lon="15.842513">
<ele>658.5</ele>
<desc>Speed 45.5 km/h Distance 3.28 km</desc>
<time>2012-09-18T15:23:09.11</time>
<name>176</name>
<sym>Dot</sym>
</trkpt>
<trkpt lat="47.449665" lon="15.842347">
<ele>658.0</ele>
<desc>Speed 45.2 km/h Distance 3.30 km</desc>
<time>2012-09-18T15:23:10.11</time>
<name>177</name>
<sym>Dot</sym>
</trkpt>
<trkpt lat="47.449655" lon="15.842185">
<ele>658.0</ele>
<desc>Speed 44.2 km/h Distance 3.31 km</desc>
<time>2012-09-18T15:23:11.09</time>
<name>178</name>
<sym>Dot</sym>
</trkpt>
<trkpt lat="47.449637" lon="15.842033">
<ele>657.5</ele>
<desc>Speed 42.0 km/h Distance 3.32 km</desc>
<time>2012-09-18T15:23:12.09</time>
<name>179</name>
<sym>Dot</sym>
</trkpt>
<trkpt lat="47.449607" lon="15.841890">
<ele>658.0</ele>
<desc>Speed 40.8 km/h Distance 3.33 km</desc>
<time>2012-09-18T15:23:13.08</time>
<name>180</name>
<sym>Dot</sym>
</trkpt>
<trkpt lat="47.449572" lon="15.841752">
<ele>658.0</ele>
<desc>Speed 40.2 km/h Distance 3.34 km</desc>
<time>2012-09-18T15:23:14.08</time>
<name>181</name>
<sym>Dot</sym>
</trkpt>
<trkpt lat="47.449530" lon="15.841617">
<ele>658.0</ele>
<desc>Speed 40.7 km/h Distance 3.35 km</desc>
<time>2012-09-18T15:23:15.09</time>
<name>182</name>
<sym>Dot</sym>
</trkpt>
<trkpt lat="47.449487" lon="15.841482">
<ele>658.5</ele>
<desc>Speed 40.9 km/h Distance 3.37 km</desc>
<time>2012-09-18T15:23:16.07</time>
<name>183</name>
<sym>Dot</sym>
</trkpt>
<trkpt lat="47.449443" lon="15.841348">
<ele>659.0</ele>
<desc>Speed 41.5 km/h Distance 3.38 km</desc>
<time>2012-09-18T15:23:17.07</time>
<name>184</name>
<sym>Dot</sym>
</trkpt>
<trkpt lat="47.449397" lon="15.841210">
<ele>659.5</ele>
<desc>Speed 41.9 km/h Distance 3.39 km</desc>
<time>2012-09-18T15:23:18.07</time>
<name>185</name>
<sym>Dot</sym>
</trkpt>
<trkpt lat="47.449352" lon="15.841072">
<ele>659.5</ele>
<desc>Speed 41.9 km/h Distance 3.40 km</desc>
<time>2012-09-18T15:23:19.06</time>
<name>186</name>
<sym>Dot</sym>
</trkpt>
<trkpt lat="47.449312" lon="15.840930">
<ele>660.0</ele>
<desc>Speed 42.0 km/h Distance 3.41 km</desc>
<time>2012-09-18T15:23:20.06</time>
<name>187</name>
<sym>Dot</sym>
</trkpt>
<trkpt lat="47.449273" lon="15.840790">
<ele>661.0</ele>
<desc>Speed 41.7 km/h Distance 3.42 km</desc>
<time>2012-09-18T15:23:21.06</time>
<name>188</name>
<sym>Dot</sym>
</trkpt>
<trkpt lat="47.449238" lon="15.840658">
<ele>661.5</ele>
<desc>Speed 39.3 km/h Distance 3.43 km</desc>
<time>2012-09-18T15:23:22.05</time>
<name>189</name>
<sym>Dot</sym>
</trkpt>
<trkpt lat="47.449213" lon="15.840528">
<ele>661.5</ele>
<desc>Speed 38.2 km/h Distance 3.44 km</desc>
<time>2012-09-18T15:23:23.05</time>
<name>190</name>
<sym>Dot</sym>
</trkpt>
<trkpt lat="47.449207" lon="15.840380">
<ele>662.0</ele>
<desc>Speed 40.7 km/h Distance 3.46 km</desc>
<time>2012-09-18T15:23:24.05</time>
<name>191</name>
<sym>Dot</sym>
</trkpt>
<trkpt lat="47.449198" lon="15.840230">
<ele>663.0</ele>
<desc>Speed 40.9 km/h Distance 3.47 km</desc>
<time>2012-09-18T15:23:25.03</time>
<name>192</name>
<sym>Dot</sym>
</trkpt>
<trkpt lat="47.449197" lon="15.840080">
<ele>663.5</ele>
<desc>Speed 40.6 km/h Distance 3.48 km</desc>
<time>2012-09-18T15:23:26.04</time>
<name>193</name>
<sym>Dot</sym>
</trkpt>
<trkpt lat="47.449200" lon="15.839933">
<ele>663.5</ele>
<desc>Speed 40.1 km/h Distance 3.49 km</desc>
<time>2012-09-18T15:23:27.03</time>
<name>194</name>
<sym>Dot</sym>
</trkpt>
<trkpt lat="47.449207" lon="15.839793">
<ele>664.0</ele>
<desc>Speed 38.6 km/h Distance 3.50 km</desc>
<time>2012-09-18T15:23:28.03</time>
<name>195</name>
<sym>Dot</sym>
</trkpt>
<trkpt lat="47.449213" lon="15.839658">
<ele>664.5</ele>
<desc>Speed 37.2 km/h Distance 3.51 km</desc>
<time>2012-09-18T15:23:29.02</time>
<name>196</name>
<sym>Dot</sym>
</trkpt>
<trkpt lat="47.449220" lon="15.839523">
<ele>665.0</ele>
<desc>Speed 37.0 km/h Distance 3.52 km</desc>
<time>2012-09-18T15:23:30.02</time>
<name>197</name>
<sym>Dot</sym>
</trkpt>
<trkpt lat="47.449222" lon="15.839385">
<ele>665.0</ele>
<desc>Speed 37.7 km/h Distance 3.53 km</desc>
<time>2012-09-18T15:23:31.01</time>
<name>198</name>
<sym>Dot</sym>
</trkpt>
<trkpt lat="47.449218" lon="15.839243">
<ele>665.0</ele>
<desc>Speed 38.6 km/h Distance 3.54 km</desc>
<time>2012-09-18T15:23:32.01</time>
<name>199</name>
<sym>Dot</sym>
</trkpt>
<trkpt lat="47.449212" lon="15.839098">
<ele>665.5</ele>
<desc>Speed 39.8 km/h Distance 3.55 km</desc>
<time>2012-09-18T15:23:33.00</time>
<name>200</name>
<sym>Dot</sym>
</trkpt>
<trkpt lat="47.449207" lon="15.838955">
<ele>665.5</ele>
<desc>Speed 38.8 km/h Distance 3.56 km</desc>
<time>2012-09-18T15:23:34.00</time>
<name>201</name>
<sym>Dot</sym>
</trkpt>
<trkpt lat="47.449195" lon="15.838818">
<ele>665.5</ele>
<desc>Speed 37.7 km/h Distance 3.57 km</desc>
<time>2012-09-18T15:23:34.99</time>
<name>202</name>
<sym>Dot</sym>
</trkpt>
<trkpt lat="47.449178" lon="15.838682">
<ele>665.5</ele>
<desc>Speed 37.8 km/h Distance 3.58 km</desc>
<time>2012-09-18T15:23:35.98</time>
<name>203</name>
<sym>Dot</sym>
</trkpt>
<trkpt lat="47.449158" lon="15.838543">
<ele>665.5</ele>
<desc>Speed 38.6 km/h Distance 3.59 km</desc>
<time>2012-09-18T15:23:36.98</time>
<name>204</name>
<sym>Dot</sym>
</trkpt>
<trkpt lat="47.449133" lon="15.838408">
<ele>665.5</ele>
<desc>Speed 38.3 km/h Distance 3.60 km</desc>
<time>2012-09-18T15:23:37.97</time>
<name>205</name>
<sym>Dot</sym>
</trkpt>
<trkpt lat="47.449110" lon="15.838273">
<ele>665.5</ele>
<desc>Speed 37.8 km/h Distance 3.61 km</desc>
<time>2012-09-18T15:23:38.97</time>
<name>206</name>
<sym>Dot</sym>
</trkpt>
<trkpt lat="47.449085" lon="15.838138">
<ele>665.5</ele>
<desc>Speed 37.9 km/h Distance 3.63 km</desc>
<time>2012-09-18T15:23:39.98</time>
<name>207</name>
<sym>Dot</sym>
</trkpt>
<trkpt lat="47.449060" lon="15.838003">
<ele>665.5</ele>
<desc>Speed 38.3 km/h Distance 3.64 km</desc>
<time>2012-09-18T15:23:40.97</time>
<name>208</name>
<sym>Dot</sym>
</trkpt>
<trkpt lat="47.449038" lon="15.837860">
<ele>665.0</ele>
<desc>Speed 39.8 km/h Distance 3.65 km</desc>
<time>2012-09-18T15:23:41.96</time>
<name>209</name>
<sym>Dot</sym>
</trkpt>
<trkpt lat="47.449015" lon="15.837720">
<ele>665.5</ele>
<desc>Speed 39.8 km/h Distance 3.66 km</desc>
<time>2012-09-18T15:23:42.96</time>
<name>210</name>
<sym>Dot</sym>
</trkpt>
<trkpt lat="47.448992" lon="15.837588">
<ele>665.5</ele>
<desc>Speed 37.3 km/h Distance 3.67 km</desc>
<time>2012-09-18T15:23:43.95</time>
<name>211</name>
<sym>Dot</sym>
</trkpt>
<trkpt lat="47.448970" lon="15.837460">
<ele>665.5</ele>
<desc>Speed 36.4 km/h Distance 3.68 km</desc>
<time>2012-09-18T15:23:44.95</time>
<name>212</name>
<sym>Dot</sym>
</trkpt>
<trkpt lat="47.448945" lon="15.837333">
<ele>665.5</ele>
<desc>Speed 36.1 km/h Distance 3.69 km</desc>
<time>2012-09-18T15:23:45.95</time>
<name>213</name>
<sym>Dot</sym>
</trkpt>
<trkpt lat="47.448922" lon="15.837207">
<ele>665.5</ele>
<desc>Speed 36.5 km/h Distance 3.70 km</desc>
<time>2012-09-18T15:23:46.94</time>
<name>214</name>
<sym>Dot</sym>
</trkpt>
<trkpt lat="47.448900" lon="15.837072">
<ele>666.0</ele>
<desc>Speed 38.2 km/h Distance 3.71 km</desc>
<time>2012-09-18T15:23:47.94</time>
<name>215</name>
<sym>Dot</sym>
</trkpt>
<trkpt lat="47.448880" lon="15.836925">
<ele>666.0</ele>
<desc>Speed 40.8 km/h Distance 3.72 km</desc>
<time>2012-09-18T15:23:48.93</time>
<name>216</name>
<sym>Dot</sym>
</trkpt>
<trkpt lat="47.448860" lon="15.836763">
<ele>666.5</ele>
<desc>Speed 45.0 km/h Distance 3.73 km</desc>
<time>2012-09-18T15:23:49.92</time>
<name>217</name>
<sym>Dot</sym>
</trkpt>
<trkpt lat="47.448840" lon="15.836605">
<ele>666.5</ele>
<desc>Speed 44.5 km/h Distance 3.74 km</desc>
<time>2012-09-18T15:23:50.92</time>
<name>218</name>
<sym>Dot</sym>
</trkpt>
<trkpt lat="47.448823" lon="15.836455">
<ele>667.0</ele>
<desc>Speed 41.9 km/h Distance 3.76 km</desc>
<time>2012-09-18T15:23:51.91</time>
<name>219</name>
<sym>Dot</sym>
</trkpt>
<trkpt lat="47.448807" lon="15.836312">
<ele>667.5</ele>
<desc>Speed 39.5 km/h Distance 3.77 km</desc>
<time>2012-09-18T15:23:52.91</time>
<name>220</name>
<sym>Dot</sym>
</trkpt>
<trkpt lat="47.448792" lon="15.836175">
<ele>668.0</ele>
<desc>Speed 38.0 km/h Distance 3.78 km</desc>
<time>2012-09-18T15:23:53.91</time>
<name>221</name>
<sym>Dot</sym>
</trkpt>
<trkpt lat="47.448780" lon="15.836047">
<ele>668.5</ele>
<desc>Speed 35.6 km/h Distance 3.79 km</desc>
<time>2012-09-18T15:23:54.90</time>
<name>222</name>
<sym>Dot</sym>
</trkpt>
<trkpt lat="47.448768" lon="15.835928">
<ele>668.5</ele>
<desc>Speed 32.9 km/h Distance 3.80 km</desc>
<time>2012-09-18T15:23:55.90</time>
<name>223</name>
<sym>Dot</sym>
</trkpt>
<trkpt lat="47.448757" lon="15.835815">
<ele>669.0</ele>
<desc>Speed 31.0 km/h Distance 3.80 km</desc>
<time>2012-09-18T15:23:56.90</time>
<name>224</name>
<sym>Dot</sym>
</trkpt>
<trkpt lat="47.448745" lon="15.835703">
<ele>669.5</ele>
<desc>Speed 31.1 km/h Distance 3.81 km</desc>
<time>2012-09-18T15:23:57.89</time>
<name>225</name>
<sym>Dot</sym>
</trkpt>
<trkpt lat="47.448727" lon="15.835578">
<ele>670.5</ele>
<desc>Speed 35.0 km/h Distance 3.82 km</desc>
<time>2012-09-18T15:23:58.89</time>
<name>226</name>
<sym>Dot</sym>
</trkpt>
<trkpt lat="47.448703" lon="15.835435">
<ele>670.5</ele>
<desc>Speed 39.7 km/h Distance 3.83 km</desc>
<time>2012-09-18T15:23:59.89</time>
<name>227</name>
<sym>Dot</sym>
</trkpt>
<trkpt lat="47.448677" lon="15.835283">
<ele>670.5</ele>
<desc>Speed 42.5 km/h Distance 3.85 km</desc>
<time>2012-09-18T15:24:00.88</time>
<name>228</name>
<sym>Dot</sym>
</trkpt>
<trkpt lat="47.448642" lon="15.835125">
<ele>670.5</ele>
<desc>Speed 45.3 km/h Distance 3.86 km</desc>
<time>2012-09-18T15:24:01.87</time>
<name>229</name>
<sym>Dot</sym>
</trkpt>
<trkpt lat="47.448597" lon="15.834963">
<ele>670.5</ele>
<desc>Speed 47.2 km/h Distance 3.87 km</desc>
<time>2012-09-18T15:24:02.87</time>
<name>230</name>
<sym>Dot</sym>
</trkpt>
<trkpt lat="47.448548" lon="15.834803">
<ele>671.0</ele>
<desc>Speed 48.0 km/h Distance 3.88 km</desc>
<time>2012-09-18T15:24:03.87</time>
<name>231</name>
<sym>Dot</sym>
</trkpt>
<trkpt lat="47.448495" lon="15.834643">
<ele>671.0</ele>
<desc>Speed 48.5 km/h Distance 3.90 km</desc>
<time>2012-09-18T15:24:04.86</time>
<name>232</name>
<sym>Dot</sym>
</trkpt>
<trkpt lat="47.448437" lon="15.834477">
<ele>671.5</ele>
<desc>Speed 51.2 km/h Distance 3.91 km</desc>
<time>2012-09-18T15:24:05.86</time>
<name>233</name>
<sym>Dot</sym>
</trkpt>
<trkpt lat="47.448372" lon="15.834295">
<ele>672.0</ele>
<desc>Speed 55.9 km/h Distance 3.93 km</desc>
<time>2012-09-18T15:24:06.87</time>
<name>234</name>
<sym>Dot</sym>
</trkpt>
<trkpt lat="47.448307" lon="15.834097">
<ele>672.0</ele>
<desc>Speed 60.2 km/h Distance 3.94 km</desc>
<time>2012-09-18T15:24:07.85</time>
<name>235</name>
<sym>Dot</sym>
</trkpt>
<trkpt lat="47.448235" lon="15.833895">
<ele>672.0</ele>
<desc>Speed 61.7 km/h Distance 3.96 km</desc>
<time>2012-09-18T15:24:08.84</time>
<name>236</name>
<sym>Dot</sym>
</trkpt>
<trkpt lat="47.448165" lon="15.833700">
<ele>672.5</ele>
<desc>Speed 60.1 km/h Distance 3.98 km</desc>
<time>2012-09-18T15:24:09.85</time>
<name>237</name>
<sym>Dot</sym>
</trkpt>
<trkpt lat="47.448100" lon="15.833515">
<ele>672.0</ele>
<desc>Speed 57.2 km/h Distance 3.99 km</desc>
<time>2012-09-18T15:24:10.83</time>
<name>238</name>
<sym>Dot</sym>
</trkpt>
<trkpt lat="47.448037" lon="15.833340">
<ele>672.0</ele>
<desc>Speed 54.2 km/h Distance 4.01 km</desc>
<time>2012-09-18T15:24:11.83</time>
<name>239</name>
<sym>Dot</sym>
</trkpt>
<trkpt lat="47.447975" lon="15.833173">
<ele>672.0</ele>
<desc>Speed 51.7 km/h Distance 4.02 km</desc>
<time>2012-09-18T15:24:12.83</time>
<name>240</name>
<sym>Dot</sym>
</trkpt>
<trkpt lat="47.447915" lon="15.833017">
<ele>672.0</ele>
<desc>Speed 49.1 km/h Distance 4.04 km</desc>
<time>2012-09-18T15:24:13.82</time>
<name>241</name>
<sym>Dot</sym>
</trkpt>
<trkpt lat="47.447857" lon="15.832872">
<ele>671.5</ele>
<desc>Speed 46.0 km/h Distance 4.05 km</desc>
<time>2012-09-18T15:24:14.81</time>
<name>242</name>
<sym>Dot</sym>
</trkpt>
<trkpt lat="47.447785" lon="15.832763">
<ele>673.0</ele>
<desc>Speed 41.3 km/h Distance 4.06 km</desc>
<time>2012-09-18T15:24:15.81</time>
<name>243</name>
<sym>Dot</sym>
</trkpt>
<trkpt lat="47.447720" lon="15.832665">
<ele>671.5</ele>
<desc>Speed 37.5 km/h Distance 4.07 km</desc>
<time>2012-09-18T15:24:16.80</time>
<name>244</name>
<sym>Dot</sym>
</trkpt>
<trkpt lat="47.447650" lon="15.832580">
<ele>671.5</ele>
<desc>Speed 37.0 km/h Distance 4.08 km</desc>
<time>2012-09-18T15:24:17.79</time>
<name>245</name>
<sym>Dot</sym>
</trkpt>
<trkpt lat="47.447570" lon="15.832505">
<ele>671.5</ele>
<desc>Speed 38.1 km/h Distance 4.09 km</desc>
<time>2012-09-18T15:24:18.79</time>
<name>246</name>
<sym>Dot</sym>
</trkpt>
<trkpt lat="47.447487" lon="15.832438">
<ele>671.5</ele>
<desc>Speed 38.7 km/h Distance 4.10 km</desc>
<time>2012-09-18T15:24:19.80</time>
<name>247</name>
<sym>Dot</sym>
</trkpt>
<trkpt lat="47.447407" lon="15.832375">
<ele>672.0</ele>
<desc>Speed 37.0 km/h Distance 4.11 km</desc>
<time>2012-09-18T15:24:20.79</time>
<name>248</name>
<sym>Dot</sym>
</trkpt>
<trkpt lat="47.447328" lon="15.832317">
<ele>672.0</ele>
<desc>Speed 35.9 km/h Distance 4.12 km</desc>
<time>2012-09-18T15:24:21.79</time>
<name>249</name>
<sym>Dot</sym>
</trkpt>
<trkpt lat="47.447250" lon="15.832262">
<ele>672.0</ele>
<desc>Speed 35.0 km/h Distance 4.13 km</desc>
<time>2012-09-18T15:24:22.79</time>
<name>250</name>
<sym>Dot</sym>
</trkpt>
<trkpt lat="47.447172" lon="15.832208">
<ele>672.0</ele>
<desc>Speed 34.2 km/h Distance 4.14 km</desc>
<time>2012-09-18T15:24:23.78</time>
<name>251</name>
<sym>Dot</sym>
</trkpt>
<trkpt lat="47.447097" lon="15.832155">
<ele>672.0</ele>
<desc>Speed 34.1 km/h Distance 4.15 km</desc>
<time>2012-09-18T15:24:24.78</time>
<name>252</name>
<sym>Dot</sym>
</trkpt>
<trkpt lat="47.447020" lon="15.832102">
<ele>672.0</ele>
<desc>Speed 34.1 km/h Distance 4.16 km</desc>
<time>2012-09-18T15:24:25.78</time>
<name>253</name>
<sym>Dot</sym>
</trkpt>
<trkpt lat="47.446943" lon="15.832045">
<ele>672.0</ele>
<desc>Speed 34.7 km/h Distance 4.17 km</desc>
<time>2012-09-18T15:24:26.78</time>
<name>254</name>
<sym>Dot</sym>
</trkpt>
<trkpt lat="47.446865" lon="15.831992">
<ele>671.5</ele>
<desc>Speed 34.8 km/h Distance 4.18 km</desc>
<time>2012-09-18T15:24:27.80</time>
<name>255</name>
<sym>Dot</sym>
</trkpt>
<trkpt lat="47.446788" lon="15.831943">
<ele>671.5</ele>
<desc>Speed 33.2 km/h Distance 4.19 km</desc>
<time>2012-09-18T15:24:28.77</time>
<name>256</name>
<sym>Dot</sym>
</trkpt>
<trkpt lat="47.446710" lon="15.831885">
<ele>671.5</ele>
<desc>Speed 35.6 km/h Distance 4.20 km</desc>
<time>2012-09-18T15:24:29.76</time>
<name>257</name>
<sym>Dot</sym>
</trkpt>
<trkpt lat="47.446632" lon="15.831825">
<ele>672.0</ele>
<desc>Speed 35.4 km/h Distance 4.21 km</desc>
<time>2012-09-18T15:24:30.75</time>
<name>258</name>
<sym>Dot</sym>
</trkpt>
<trkpt lat="47.446552" lon="15.831760">
<ele>672.0</ele>
<desc>Speed 36.9 km/h Distance 4.22 km</desc>
<time>2012-09-18T15:24:31.74</time>
<name>259</name>
<sym>Dot</sym>
</trkpt>
<trkpt lat="47.446470" lon="15.831687">
<ele>672.0</ele>
<desc>Speed 38.0 km/h Distance 4.23 km</desc>
<time>2012-09-18T15:24:32.74</time>
<name>260</name>
<sym>Dot</sym>
</trkpt>
<trkpt lat="47.446390" lon="15.831615">
<ele>672.0</ele>
<desc>Speed 37.8 km/h Distance 4.24 km</desc>
<time>2012-09-18T15:24:33.74</time>
<name>261</name>
<sym>Dot</sym>
</trkpt>
<trkpt lat="47.446307" lon="15.831535">
<ele>672.0</ele>
<desc>Speed 40.5 km/h Distance 4.25 km</desc>
<time>2012-09-18T15:24:34.73</time>
<name>262</name>
<sym>Dot</sym>
</trkpt>
<trkpt lat="47.446220" lon="15.831445">
<ele>672.5</ele>
<desc>Speed 42.7 km/h Distance 4.26 km</desc>
<time>2012-09-18T15:24:35.72</time>
<name>263</name>
<sym>Dot</sym>
</trkpt>
<trkpt lat="47.446125" lon="15.831353">
<ele>672.5</ele>
<desc>Speed 45.3 km/h Distance 4.27 km</desc>
<time>2012-09-18T15:24:36.73</time>
<name>264</name>
<sym>Dot</sym>
</trkpt>
<trkpt lat="47.446028" lon="15.831257">
<ele>673.0</ele>
<desc>Speed 47.4 km/h Distance 4.29 km</desc>
<time>2012-09-18T15:24:37.72</time>
<name>265</name>
<sym>Dot</sym>
</trkpt>
<trkpt lat="47.445928" lon="15.831155">
<ele>674.0</ele>
<desc>Speed 48.9 km/h Distance 4.30 km</desc>
<time>2012-09-18T15:24:38.71</time>
<name>266</name>
<sym>Dot</sym>
</trkpt>
<trkpt lat="47.445822" lon="15.831042">
<ele>674.0</ele>
<desc>Speed 52.9 km/h Distance 4.32 km</desc>
<time>2012-09-18T15:24:39.71</time>
<name>267</name>
<sym>Dot</sym>
</trkpt>
<trkpt lat="47.445710" lon="15.830908">
<ele>675.0</ele>
<desc>Speed 57.9 km/h Distance 4.33 km</desc>
<time>2012-09-18T15:24:40.73</time>
<name>268</name>
<sym>Dot</sym>
</trkpt>
<trkpt lat="47.445585" lon="15.830770">
<ele>675.5</ele>
<desc>Speed 63.3 km/h Distance 4.35 km</desc>
<time>2012-09-18T15:24:41.70</time>
<name>269</name>
<sym>Dot</sym>
</trkpt>
<trkpt lat="47.445465" lon="15.830630">
<ele>675.5</ele>
<desc>Speed 61.3 km/h Distance 4.37 km</desc>
<time>2012-09-18T15:24:42.69</time>
<name>270</name>
<sym>Dot</sym>
</trkpt>
<trkpt lat="47.445343" lon="15.830482">
<ele>678.0</ele>
<desc>Speed 63.7 km/h Distance 4.38 km</desc>
<time>2012-09-18T15:24:43.69</time>
<name>271</name>
<sym>Dot</sym>
</trkpt>
<trkpt lat="47.445222" lon="15.830340">
<ele>679.5</ele>
<desc>Speed 62.1 km/h Distance 4.40 km</desc>
<time>2012-09-18T15:24:44.68</time>
<name>272</name>
<sym>Dot</sym>
</trkpt>
<trkpt lat="47.445110" lon="15.830210">
<ele>681.5</ele>
<desc>Speed 56.9 km/h Distance 4.42 km</desc>
<time>2012-09-18T15:24:45.68</time>
<name>273</name>
<sym>Dot</sym>
</trkpt>
<trkpt lat="47.445012" lon="15.830090">
<ele>681.5</ele>
<desc>Speed 51.2 km/h Distance 4.43 km</desc>
<time>2012-09-18T15:24:46.68</time>
<name>274</name>
<sym>Dot</sym>
</trkpt>
<trkpt lat="47.444930" lon="15.829953">
<ele>681.5</ele>
<desc>Speed 49.6 km/h Distance 4.44 km</desc>
<time>2012-09-18T15:24:47.68</time>
<name>275</name>
<sym>Dot</sym>
</trkpt>
<trkpt lat="47.444847" lon="15.829813">
<ele>681.5</ele>
<desc>Speed 50.3 km/h Distance 4.46 km</desc>
<time>2012-09-18T15:24:48.67</time>
<name>276</name>
<sym>Dot</sym>
</trkpt>
<trkpt lat="47.444770" lon="15.829663">
<ele>681.5</ele>
<desc>Speed 51.2 km/h Distance 4.47 km</desc>
<time>2012-09-18T15:24:49.67</time>
<name>277</name>
<sym>Dot</sym>
</trkpt>
<trkpt lat="47.444690" lon="15.829507">
<ele>682.0</ele>
<desc>Speed 53.0 km/h Distance 4.49 km</desc>
<time>2012-09-18T15:24:50.66</time>
<name>278</name>
<sym>Dot</sym>
</trkpt>
<trkpt lat="47.444607" lon="15.829335">
<ele>682.0</ele>
<desc>Speed 56.8 km/h Distance 4.50 km</desc>
<time>2012-09-18T15:24:51.66</time>
<name>279</name>
<sym>Dot</sym>
</trkpt>
<trkpt lat="47.444523" lon="15.829140">
<ele>682.0</ele>
<desc>Speed 62.8 km/h Distance 4.52 km</desc>
<time>2012-09-18T15:24:52.65</time>
<name>280</name>
<sym>Dot</sym>
</trkpt>
<trkpt lat="47.444432" lon="15.828927">
<ele>682.0</ele>
<desc>Speed 68.1 km/h Distance 4.54 km</desc>
<time>2012-09-18T15:24:53.70</time>
<name>281</name>
<sym>Dot</sym>
</trkpt>
<trkpt lat="47.444332" lon="15.828708">
<ele>682.0</ele>
<desc>Speed 71.7 km/h Distance 4.56 km</desc>
<time>2012-09-18T15:24:54.65</time>
<name>282</name>
<sym>Dot</sym>
</trkpt>
<trkpt lat="47.444227" lon="15.828488">
<ele>682.0</ele>
<desc>Speed 72.7 km/h Distance 4.58 km</desc>
<time>2012-09-18T15:24:55.64</time>
<name>283</name>
<sym>Dot</sym>
</trkpt>
<trkpt lat="47.444123" lon="15.828278">
<ele>682.0</ele>
<desc>Speed 70.3 km/h Distance 4.60 km</desc>
<time>2012-09-18T15:24:56.63</time>
<name>284</name>
<sym>Dot</sym>
</trkpt>
<trkpt lat="47.444015" lon="15.828070">
<ele>682.0</ele>
<desc>Speed 70.8 km/h Distance 4.62 km</desc>
<time>2012-09-18T15:24:57.63</time>
<name>285</name>
<sym>Dot</sym>
</trkpt>
<trkpt lat="47.443903" lon="15.827888">
<ele>682.0</ele>
<desc>Speed 66.4 km/h Distance 4.64 km</desc>
<time>2012-09-18T15:24:58.63</time>
<name>286</name>
<sym>Dot</sym>
</trkpt>
<trkpt lat="47.443785" lon="15.827720">
<ele>682.5</ele>
<desc>Speed 65.6 km/h Distance 4.66 km</desc>
<time>2012-09-18T15:24:59.62</time>
<name>287</name>
<sym>Dot</sym>
</trkpt>
<trkpt lat="47.443660" lon="15.827553">
<ele>683.5</ele>
<desc>Speed 67.1 km/h Distance 4.67 km</desc>
<time>2012-09-18T15:25:00.61</time>
<name>288</name>
<sym>Dot</sym>
</trkpt>
<trkpt lat="47.443507" lon="15.827422">
<ele>684.0</ele>
<desc>Speed 70.6 km/h Distance 4.69 km</desc>
<time>2012-09-18T15:25:01.61</time>
<name>289</name>
<sym>Dot</sym>
</trkpt>
<trkpt lat="47.443353" lon="15.827280">
<ele>684.0</ele>
<desc>Speed 71.9 km/h Distance 4.71 km</desc>
<time>2012-09-18T15:25:02.61</time>
<name>290</name>
<sym>Dot</sym>
</trkpt>
<trkpt lat="47.443210" lon="15.827147">
<ele>684.0</ele>
<desc>Speed 68.2 km/h Distance 4.73 km</desc>
<time>2012-09-18T15:25:03.60</time>
<name>291</name>
<sym>Dot</sym>
</trkpt>
<trkpt lat="47.443085" lon="15.827008">
<ele>686.0</ele>
<desc>Speed 62.6 km/h Distance 4.75 km</desc>
<time>2012-09-18T15:25:04.61</time>
<name>292</name>
<sym>Dot</sym>
</trkpt>
<trkpt lat="47.442973" lon="15.826875">
<ele>686.0</ele>
<desc>Speed 57.6 km/h Distance 4.77 km</desc>
<time>2012-09-18T15:25:05.61</time>
<name>293</name>
<sym>Dot</sym>
</trkpt>
<trkpt lat="47.442880" lon="15.826748">
<ele>686.0</ele>
<desc>Speed 51.4 km/h Distance 4.78 km</desc>
<time>2012-09-18T15:25:06.61</time>
<name>294</name>
<sym>Dot</sym>
</trkpt>
<trkpt lat="47.442775" lon="15.826658">
<ele>686.0</ele>
<desc>Speed 49.0 km/h Distance 4.79 km</desc>
<time>2012-09-18T15:25:07.61</time>
<name>295</name>
<sym>Dot</sym>
</trkpt>
<trkpt lat="47.442675" lon="15.826567">
<ele>685.5</ele>
<desc>Speed 47.2 km/h Distance 4.81 km</desc>
<time>2012-09-18T15:25:08.61</time>
<name>296</name>
<sym>Dot</sym>
</trkpt>
<trkpt lat="47.442565" lon="15.826502">
<ele>686.5</ele>
<desc>Speed 47.9 km/h Distance 4.82 km</desc>
<time>2012-09-18T15:25:09.61</time>
<name>297</name>
<sym>Dot</sym>
</trkpt>
<trkpt lat="47.442303" lon="15.826477">
<ele>690.0</ele>
<desc>Speed 53.3 km/h Distance 4.85 km</desc>
<time>2012-09-18T15:25:11.59</time>
<name>298</name>
<sym>Dot</sym>
</trkpt>
<trkpt lat="47.442180" lon="15.826483">
<ele>690.5</ele>
<desc>Speed 50.2 km/h Distance 4.86 km</desc>
<time>2012-09-18T15:25:12.59</time>
<name>299</name>
<sym>Dot</sym>
</trkpt>
<trkpt lat="47.442057" lon="15.826473">
<ele>690.5</ele>
<desc>Speed 49.7 km/h Distance 4.88 km</desc>
<time>2012-09-18T15:25:13.59</time>
<name>300</name>
<sym>Dot</sym>
</trkpt>
<trkpt lat="47.441940" lon="15.826422">
<ele>690.5</ele>
<desc>Speed 49.4 km/h Distance 4.89 km</desc>
<time>2012-09-18T15:25:14.58</time>
<name>301</name>
<sym>Dot</sym>
</trkpt>
<trkpt lat="47.441812" lon="15.826342">
<ele>690.5</ele>
<desc>Speed 55.9 km/h Distance 4.91 km</desc>
<time>2012-09-18T15:25:15.59</time>
<name>302</name>
<sym>Dot</sym>
</trkpt>
<trkpt lat="47.441518" lon="15.826125">
<ele>691.5</ele>
<desc>Speed 67.6 km/h Distance 4.94 km</desc>
<time>2012-09-18T15:25:17.58</time>
<name>303</name>
<sym>Dot</sym>
</trkpt>
<trkpt lat="47.441360" lon="15.826007">
<ele>691.5</ele>
<desc>Speed 71.6 km/h Distance 4.96 km</desc>
<time>2012-09-18T15:25:18.58</time>
<name>304</name>
<sym>Dot</sym>
</trkpt>
<trkpt lat="47.441197" lon="15.825893">
<ele>691.0</ele>
<desc>Speed 73.0 km/h Distance 4.98 km</desc>
<time>2012-09-18T15:25:19.57</time>
<name>305</name>
<sym>Dot</sym>
</trkpt>
<trkpt lat="47.441037" lon="15.825790">
<ele>690.0</ele>
<desc>Speed 70.3 km/h Distance 5.00 km</desc>
<time>2012-09-18T15:25:20.57</time>
<name>306</name>
<sym>Dot</sym>
</trkpt>
<trkpt lat="47.440885" lon="15.825695">
<ele>690.0</ele>
<desc>Speed 67.0 km/h Distance 5.02 km</desc>
<time>2012-09-18T15:25:21.56</time>
<name>307</name>
<sym>Dot</sym>
</trkpt>
<trkpt lat="47.440738" lon="15.825605">
<ele>689.5</ele>
<desc>Speed 64.4 km/h Distance 5.04 km</desc>
<time>2012-09-18T15:25:22.55</time>
<name>308</name>
<sym>Dot</sym>
</trkpt>
<trkpt lat="47.440597" lon="15.825500">
<ele>690.0</ele>
<desc>Speed 63.7 km/h Distance 5.06 km</desc>
<time>2012-09-18T15:25:23.55</time>
<name>309</name>
<sym>Dot</sym>
</trkpt>
<trkpt lat="47.440462" lon="15.825367">
<ele>689.0</ele>
<desc>Speed 65.5 km/h Distance 5.07 km</desc>
<time>2012-09-18T15:25:24.54</time>
<name>310</name>
<sym>Dot</sym>
</trkpt>
<trkpt lat="47.440325" lon="15.825197">
<ele>689.0</ele>
<desc>Speed 72.5 km/h Distance 5.09 km</desc>
<time>2012-09-18T15:25:25.53</time>
<name>311</name>
<sym>Dot</sym>
</trkpt>
<trkpt lat="47.439670" lon="15.824215">
<ele>690.5</ele>
<desc>Speed 99.5 km/h Distance 5.20 km</desc>
<time>2012-09-18T15:25:30.44</time>
<name>312</name>
<sym>Dot</sym>
</trkpt>
<trkpt lat="47.439498" lon="15.823967">
<ele>690.5</ele>
<desc>Speed 96.4 km/h Distance 5.22 km</desc>
<time>2012-09-18T15:25:31.44</time>
<name>313</name>
<sym>Dot</sym>
</trkpt>
<trkpt lat="47.439338" lon="15.823735">
<ele>692.5</ele>
<desc>Speed 89.7 km/h Distance 5.25 km</desc>
<time>2012-09-18T15:25:32.44</time>
<name>314</name>
<sym>Dot</sym>
</trkpt>
<trkpt lat="47.439175" lon="15.823538">
<ele>693.0</ele>
<desc>Speed 84.8 km/h Distance 5.27 km</desc>
<time>2012-09-18T15:25:33.44</time>
<name>315</name>
<sym>Dot</sym>
</trkpt>
<trkpt lat="47.439018" lon="15.823358">
<ele>693.5</ele>
<desc>Speed 79.9 km/h Distance 5.29 km</desc>
<time>2012-09-18T15:25:34.43</time>
<name>316</name>
<sym>Dot</sym>
</trkpt>
<trkpt lat="47.438848" lon="15.823215">
<ele>693.5</ele>
<desc>Speed 78.8 km/h Distance 5.32 km</desc>
<time>2012-09-18T15:25:35.43</time>
<name>317</name>
<sym>Dot</sym>
</trkpt>
<trkpt lat="47.438683" lon="15.823080">
<ele>693.5</ele>
<desc>Speed 75.4 km/h Distance 5.34 km</desc>
<time>2012-09-18T15:25:36.43</time>
<name>318</name>
<sym>Dot</sym>
</trkpt>
<trkpt lat="47.438528" lon="15.822955">
<ele>694.0</ele>
<desc>Speed 71.2 km/h Distance 5.36 km</desc>
<time>2012-09-18T15:25:37.42</time>
<name>319</name>
<sym>Dot</sym>
</trkpt>
<trkpt lat="47.438370" lon="15.822827">
<ele>694.0</ele>
<desc>Speed 72.6 km/h Distance 5.38 km</desc>
<time>2012-09-18T15:25:38.42</time>
<name>320</name>
<sym>Dot</sym>
</trkpt>
<trkpt lat="47.438225" lon="15.822657">
<ele>694.0</ele>
<desc>Speed 74.5 km/h Distance 5.40 km</desc>
<time>2012-09-18T15:25:39.41</time>
<name>321</name>
<sym>Dot</sym>
</trkpt>
<trkpt lat="47.438093" lon="15.822445">
<ele>694.0</ele>
<desc>Speed 78.4 km/h Distance 5.42 km</desc>
<time>2012-09-18T15:25:40.41</time>
<name>322</name>
<sym>Dot</sym>
</trkpt>
<trkpt lat="47.437968" lon="15.822208">
<ele>694.0</ele>
<desc>Speed 81.9 km/h Distance 5.44 km</desc>
<time>2012-09-18T15:25:41.40</time>
<name>323</name>
<sym>Dot</sym>
</trkpt>
<trkpt lat="47.437833" lon="15.822005">
<ele>694.0</ele>
<desc>Speed 77.3 km/h Distance 5.46 km</desc>
<time>2012-09-18T15:25:42.40</time>
<name>324</name>
<sym>Dot</sym>
</trkpt>
<trkpt lat="47.437723" lon="15.821805">
<ele>694.0</ele>
<desc>Speed 70.5 km/h Distance 5.48 km</desc>
<time>2012-09-18T15:25:43.39</time>
<name>325</name>
<sym>Dot</sym>
</trkpt>
<trkpt lat="47.437627" lon="15.821617">
<ele>694.5</ele>
<desc>Speed 64.4 km/h Distance 5.50 km</desc>
<time>2012-09-18T15:25:44.39</time>
<name>326</name>
<sym>Dot</sym>
</trkpt>
<trkpt lat="47.437508" lon="15.821477">
<ele>694.5</ele>
<desc>Speed 61.0 km/h Distance 5.52 km</desc>
<time>2012-09-18T15:25:45.38</time>
<name>327</name>
<sym>Dot</sym>
</trkpt>
<trkpt lat="47.437375" lon="15.821373">
<ele>694.5</ele>
<desc>Speed 60.5 km/h Distance 5.53 km</desc>
<time>2012-09-18T15:25:46.38</time>
<name>328</name>
<sym>Dot</sym>
</trkpt>
<trkpt lat="47.437218" lon="15.821308">
<ele>694.5</ele>
<desc>Speed 65.4 km/h Distance 5.55 km</desc>
<time>2012-09-18T15:25:47.38</time>
<name>329</name>
<sym>Dot</sym>
</trkpt>
<trkpt lat="47.437042" lon="15.821273">
<ele>695.0</ele>
<desc>Speed 71.1 km/h Distance 5.57 km</desc>
<time>2012-09-18T15:25:48.38</time>
<name>330</name>
<sym>Dot</sym>
</trkpt>
<trkpt lat="47.436875" lon="15.821253">
<ele>695.0</ele>
<desc>Speed 67.4 km/h Distance 5.59 km</desc>
<time>2012-09-18T15:25:49.37</time>
<name>331</name>
<sym>Dot</sym>
</trkpt>
<trkpt lat="47.436498" lon="15.821198">
<ele>698.0</ele>
<desc>Speed 79.1 km/h Distance 5.63 km</desc>
<time>2012-09-18T15:25:51.36</time>
<name>332</name>
<sym>Dot</sym>
</trkpt>
<trkpt lat="47.436308" lon="15.821208">
<ele>699.0</ele>
<desc>Speed 80.8 km/h Distance 5.65 km</desc>
<time>2012-09-18T15:25:52.36</time>
<name>333</name>
<sym>Dot</sym>
</trkpt>
<trkpt lat="47.436113" lon="15.821240">
<ele>702.0</ele>
<desc>Speed 84.4 km/h Distance 5.68 km</desc>
<time>2012-09-18T15:25:53.35</time>
<name>334</name>
<sym>Dot</sym>
</trkpt>
<trkpt lat="47.435905" lon="15.821295">
<ele>704.0</ele>
<desc>Speed 90.1 km/h Distance 5.70 km</desc>
<time>2012-09-18T15:25:54.35</time>
<name>335</name>
<sym>Dot</sym>
</trkpt>
<trkpt lat="47.435703" lon="15.821367">
<ele>706.0</ele>
<desc>Speed 88.6 km/h Distance 5.72 km</desc>
<time>2012-09-18T15:25:55.34</time>
<name>336</name>
<sym>Dot</sym>
</trkpt>
<trkpt lat="47.435493" lon="15.821457">
<ele>705.5</ele>
<desc>Speed 87.5 km/h Distance 5.75 km</desc>
<time>2012-09-18T15:25:56.34</time>
<name>337</name>
<sym>Dot</sym>
</trkpt>
<trkpt lat="47.435287" lon="15.821522">
<ele>707.5</ele>
<desc>Speed 89.9 km/h Distance 5.77 km</desc>
<time>2012-09-18T15:25:57.33</time>
<name>338</name>
<sym>Dot</sym>
</trkpt>
<trkpt lat="47.435057" lon="15.821580">
<ele>708.0</ele>
<desc>Speed 94.5 km/h Distance 5.80 km</desc>
<time>2012-09-18T15:25:58.33</time>
<name>339</name>
<sym>Dot</sym>
</trkpt>
<trkpt lat="47.434822" lon="15.821620">
<ele>708.0</ele>
<desc>Speed 95.6 km/h Distance 5.82 km</desc>
<time>2012-09-18T15:25:59.32</time>
<name>340</name>
<sym>Dot</sym>
</trkpt>
<trkpt lat="47.434595" lon="15.821647">
<ele>709.0</ele>
<desc>Speed 90.8 km/h Distance 5.85 km</desc>
<time>2012-09-18T15:26:00.32</time>
<name>341</name>
<sym>Dot</sym>
</trkpt>
<trkpt lat="47.434385" lon="15.821662">
<ele>707.5</ele>
<desc>Speed 84.4 km/h Distance 5.87 km</desc>
<time>2012-09-18T15:26:01.31</time>
<name>342</name>
<sym>Dot</sym>
</trkpt>
<trkpt lat="47.434177" lon="15.821647">
<ele>707.5</ele>
<desc>Speed 84.2 km/h Distance 5.89 km</desc>
<time>2012-09-18T15:26:02.31</time>
<name>343</name>
<sym>Dot</sym>
</trkpt>
<trkpt lat="47.433967" lon="15.821610">
<ele>708.0</ele>
<desc>Speed 84.6 km/h Distance 5.92 km</desc>
<time>2012-09-18T15:26:03.30</time>
<name>344</name>
<sym>Dot</sym>
</trkpt>
<trkpt lat="47.433765" lon="15.821562">
<ele>710.0</ele>
<desc>Speed 82.0 km/h Distance 5.94 km</desc>
<time>2012-09-18T15:26:04.29</time>
<name>345</name>
<sym>Dot</sym>
</trkpt>
<trkpt lat="47.433573" lon="15.821535">
<ele>710.5</ele>
<desc>Speed 77.6 km/h Distance 5.96 km</desc>
<time>2012-09-18T15:26:05.29</time>
<name>346</name>
<sym>Dot</sym>
</trkpt>
<trkpt lat="47.433378" lon="15.821548">
<ele>711.0</ele>
<desc>Speed 78.3 km/h Distance 5.98 km</desc>
<time>2012-09-18T15:26:06.29</time>
<name>347</name>
<sym>Dot</sym>
</trkpt>
<trkpt lat="47.433177" lon="15.821572">
<ele>711.5</ele>
<desc>Speed 81.4 km/h Distance 6.01 km</desc>
<time>2012-09-18T15:26:07.30</time>
<name>348</name>
<sym>Dot</sym>
</trkpt>
<trkpt lat="47.432980" lon="15.821617">
<ele>713.5</ele>
<desc>Speed 79.6 km/h Distance 6.03 km</desc>
<time>2012-09-18T15:26:08.28</time>
<name>349</name>
<sym>Dot</sym>
</trkpt>
<trkpt lat="47.432505" lon="15.821652">
<ele>712.0</ele>
<desc>Speed 62.2 km/h Distance 6.08 km</desc>
<time>2012-09-18T15:26:11.44</time>
<name>350</name>
<sym>Dot</sym>
</trkpt>
<trkpt lat="47.432350" lon="15.821608">
<ele>712.5</ele>
<desc>Speed 63.9 km/h Distance 6.10 km</desc>
<time>2012-09-18T15:26:12.44</time>
<name>351</name>
<sym>Dot</sym>
</trkpt>
<trkpt lat="47.432200" lon="15.821543">
<ele>712.5</ele>
<desc>Speed 62.8 km/h Distance 6.12 km</desc>
<time>2012-09-18T15:26:13.43</time>
<name>352</name>
<sym>Dot</sym>
</trkpt>
<trkpt lat="47.432062" lon="15.821455">
<ele>712.5</ele>
<desc>Speed 61.1 km/h Distance 6.13 km</desc>
<time>2012-09-18T15:26:14.43</time>
<name>353</name>
<sym>Dot</sym>
</trkpt>
<trkpt lat="47.431927" lon="15.821362">
<ele>714.0</ele>
<desc>Speed 60.4 km/h Distance 6.15 km</desc>
<time>2012-09-18T15:26:15.42</time>
<name>354</name>
<sym>Dot</sym>
</trkpt>
<trkpt lat="47.431792" lon="15.821273">
<ele>714.5</ele>
<desc>Speed 59.9 km/h Distance 6.17 km</desc>
<time>2012-09-18T15:26:16.42</time>
<name>355</name>
<sym>Dot</sym>
</trkpt>
<trkpt lat="47.431552" lon="15.821112">
<ele>715.5</ele>
<desc>Speed 57.0 km/h Distance 6.20 km</desc>
<time>2012-09-18T15:26:18.40</time>
<name>356</name>
<sym>Dot</sym>
</trkpt>
<trkpt lat="47.431423" lon="15.821057">
<ele>713.5</ele>
<desc>Speed 53.3 km/h Distance 6.21 km</desc>
<time>2012-09-18T15:26:19.40</time>
<name>357</name>
<sym>Dot</sym>
</trkpt>
<trkpt lat="47.431210" lon="15.821000">
<ele>715.5</ele>
<desc>Speed 45.1 km/h Distance 6.24 km</desc>
<time>2012-09-18T15:26:21.39</time>
<name>358</name>
<sym>Dot</sym>
</trkpt>
<trkpt lat="47.431102" lon="15.821000">
<ele>714.5</ele>
<desc>Speed 45.5 km/h Distance 6.25 km</desc>
<time>2012-09-18T15:26:22.39</time>
<name>359</name>
<sym>Dot</sym>
</trkpt>
<trkpt lat="47.430890" lon="15.821042">
<ele>719.0</ele>
<desc>Speed 31.0 km/h Distance 6.27 km</desc>
<time>2012-09-18T15:26:25.44</time>
<name>360</name>
<sym>Dot</sym>
</trkpt>
<trkpt lat="47.430772" lon="15.821068">
<ele>722.0</ele>
<desc>Speed 10.6 km/h Distance 6.28 km</desc>
<time>2012-09-18T15:26:28.43</time>
<name>361</name>
<sym>Dot</sym>
</trkpt>
<trkpt lat="47.430767" lon="15.821072">
<ele>723.0</ele>
<desc>Speed 0.1 km/h Distance 6.28 km</desc>
<time>2012-09-18T15:26:30.44</time>
<name>362</name>
<sym>Dot</sym>
</trkpt>
<trkpt lat="47.430768" lon="15.821072">
<ele>723.0</ele>
<desc>Speed 0.2 km/h Distance 6.28 km</desc>
<time>2012-09-18T15:26:31.44</time>
<name>363</name>
<sym>Dot</sym>
</trkpt>
<trkpt lat="47.430770" lon="15.821072">
<ele>723.0</ele>
<desc>Speed 0.4 km/h Distance 6.29 km</desc>
<time>2012-09-18T15:26:32.43</time>
<name>364</name>
<sym>Dot</sym>
</trkpt>
<trkpt lat="47.430772" lon="15.821072">
<ele>723.0</ele>
<desc>Speed 0.4 km/h Distance 6.29 km</desc>
<time>2012-09-18T15:26:33.43</time>
<name>365</name>
<sym>Dot</sym>
</trkpt>
<trkpt lat="47.430777" lon="15.821065">
<ele>724.0</ele>
<desc>Speed 0.3 km/h Distance 6.29 km</desc>
<time>2012-09-18T15:26:34.42</time>
<name>366</name>
<sym>Dot</sym>
</trkpt>
<trkpt lat="47.430782" lon="15.821060">
<ele>725.5</ele>
<desc>Speed 0.3 km/h Distance 6.29 km</desc>
<time>2012-09-18T15:26:35.41</time>
<name>367</name>
<sym>Dot</sym>
</trkpt>
<trkpt lat="47.430783" lon="15.821058">
<ele>726.0</ele>
<desc>Speed 0.2 km/h Distance 6.29 km</desc>
<time>2012-09-18T15:26:36.41</time>
<name>368</name>
<sym>Dot</sym>
</trkpt>
<trkpt lat="47.430785" lon="15.821057">
<ele>726.5</ele>
<desc>Speed 0.5 km/h Distance 6.29 km</desc>
<time>2012-09-18T15:26:37.41</time>
<name>369</name>
<sym>Dot</sym>
</trkpt>
<trkpt lat="47.430785" lon="15.821057">
<ele>727.0</ele>
<desc>Speed 0.4 km/h Distance 6.29 km</desc>
<time>2012-09-18T15:26:38.40</time>
<name>370</name>
<sym>Dot</sym>
</trkpt>
<trkpt lat="47.430787" lon="15.821057">
<ele>727.0</ele>
<desc>Speed 0.2 km/h Distance 6.29 km</desc>
<time>2012-09-18T15:26:39.42</time>
<name>371</name>
<sym>Dot</sym>
</trkpt>
<trkpt lat="47.430787" lon="15.821057">
<ele>727.5</ele>
<desc>Speed 0.5 km/h Distance 6.29 km</desc>
<time>2012-09-18T15:26:40.39</time>
<name>372</name>
<sym>Dot</sym>
</trkpt>
<trkpt lat="47.430787" lon="15.821057">
<ele>727.5</ele>
<desc>Speed 0.5 km/h Distance 6.29 km</desc>
<time>2012-09-18T15:26:41.39</time>
<name>373</name>
<sym>Dot</sym>
</trkpt>
<trkpt lat="47.430787" lon="15.821057">
<ele>727.5</ele>
<desc>Speed 0.4 km/h Distance 6.29 km</desc>
<time>2012-09-18T15:26:42.37</time>
<name>374</name>
<sym>Dot</sym>
</trkpt>
<trkpt lat="47.430787" lon="15.821057">
<ele>727.5</ele>
<desc>Speed 0.5 km/h Distance 6.29 km</desc>
<time>2012-09-18T15:26:43.38</time>
<name>375</name>
<sym>Dot</sym>
</trkpt>
<trkpt lat="47.430787" lon="15.821057">
<ele>727.5</ele>
<desc>Speed 0.4 km/h Distance 6.29 km</desc>
<time>2012-09-18T15:26:44.39</time>
<name>376</name>
<sym>Dot</sym>
</trkpt>
<trkpt lat="47.430788" lon="15.821057">
<ele>727.5</ele>
<desc>Speed 0.2 km/h Distance 6.29 km</desc>
<time>2012-09-18T15:26:45.37</time>
<name>377</name>
<sym>Dot</sym>
</trkpt>
<trkpt lat="47.430788" lon="15.821058">
<ele>727.5</ele>
<desc>Speed 0.4 km/h Distance 6.29 km</desc>
<time>2012-09-18T15:26:46.36</time>
<name>378</name>
<sym>Dot</sym>
</trkpt>
<trkpt lat="47.430788" lon="15.821058">
<ele>727.5</ele>
<desc>Speed 0.5 km/h Distance 6.29 km</desc>
<time>2012-09-18T15:26:47.36</time>
<name>379</name>
<sym>Dot</sym>
</trkpt>
<trkpt lat="47.430788" lon="15.821058">
<ele>727.5</ele>
<desc>Speed 0.4 km/h Distance 6.29 km</desc>
<time>2012-09-18T15:26:48.36</time>
<name>380</name>
<sym>Dot</sym>
</trkpt>
<trkpt lat="47.430788" lon="15.821058">
<ele>727.5</ele>
<desc>Speed 0.1 km/h Distance 6.29 km</desc>
<time>2012-09-18T15:26:49.38</time>
<name>381</name>
<sym>Dot</sym>
</trkpt>
<trkpt lat="47.430788" lon="15.821058">
<ele>727.5</ele>
<desc>Speed 0.3 km/h Distance 6.29 km</desc>
<time>2012-09-18T15:26:50.35</time>
<name>382</name>
<sym>Dot</sym>
</trkpt>
<trkpt lat="47.430792" lon="15.821058">
<ele>728.0</ele>
<desc>Speed 0.3 km/h Distance 6.29 km</desc>
<time>2012-09-18T15:26:51.35</time>
<name>383</name>
<sym>Dot</sym>
</trkpt>
<trkpt lat="47.430793" lon="15.821057">
<ele>729.0</ele>
<desc>Speed 0.4 km/h Distance 6.29 km</desc>
<time>2012-09-18T15:26:52.34</time>
<name>384</name>
<sym>Dot</sym>
</trkpt>
<trkpt lat="47.430793" lon="15.821057">
<ele>729.0</ele>
<desc>Speed 0.3 km/h Distance 6.29 km</desc>
<time>2012-09-18T15:26:53.33</time>
<name>385</name>
<sym>Dot</sym>
</trkpt>
<trkpt lat="47.430795" lon="15.821057">
<ele>729.0</ele>
<desc>Speed 0.4 km/h Distance 6.29 km</desc>
<time>2012-09-18T15:26:54.33</time>
<name>386</name>
<sym>Dot</sym>
</trkpt>
<trkpt lat="47.430795" lon="15.821055">
<ele>729.5</ele>
<desc>Speed 0.3 km/h Distance 6.29 km</desc>
<time>2012-09-18T15:26:55.33</time>
<name>387</name>
<sym>Dot</sym>
</trkpt>
<trkpt lat="47.430797" lon="15.821055">
<ele>730.0</ele>
<desc>Speed 0.3 km/h Distance 6.29 km</desc>
<time>2012-09-18T15:26:56.33</time>
<name>388</name>
<sym>Dot</sym>
</trkpt>
<trkpt lat="47.430798" lon="15.821053">
<ele>730.5</ele>
<desc>Speed 0.3 km/h Distance 6.29 km</desc>
<time>2012-09-18T15:26:57.33</time>
<name>389</name>
<sym>Dot</sym>
</trkpt>
<trkpt lat="47.430798" lon="15.821053">
<ele>730.5</ele>
<desc>Speed 0.4 km/h Distance 6.29 km</desc>
<time>2012-09-18T15:26:58.33</time>
<name>390</name>
<sym>Dot</sym>
</trkpt>
<trkpt lat="47.430798" lon="15.821053">
<ele>730.5</ele>
<desc>Speed 0.3 km/h Distance 6.29 km</desc>
<time>2012-09-18T15:26:59.32</time>
<name>391</name>
<sym>Dot</sym>
</trkpt>
<trkpt lat="47.430798" lon="15.821053">
<ele>730.5</ele>
<desc>Speed 0.3 km/h Distance 6.29 km</desc>
<time>2012-09-18T15:27:00.34</time>
<name>392</name>
<sym>Dot</sym>
</trkpt>
<trkpt lat="47.430798" lon="15.821053">
<ele>730.5</ele>
<desc>Speed 0.4 km/h Distance 6.29 km</desc>
<time>2012-09-18T15:27:01.31</time>
<name>393</name>
<sym>Dot</sym>
</trkpt>
<trkpt lat="47.430798" lon="15.821053">
<ele>730.5</ele>
<desc>Speed 0.3 km/h Distance 6.29 km</desc>
<time>2012-09-18T15:27:02.33</time>
<name>394</name>
<sym>Dot</sym>
</trkpt>
<trkpt lat="47.430798" lon="15.821053">
<ele>730.5</ele>
<desc>Speed 0.4 km/h Distance 6.29 km</desc>
<time>2012-09-18T15:27:03.30</time>
<name>395</name>
<sym>Dot</sym>
</trkpt>
<trkpt lat="47.430800" lon="15.821053">
<ele>730.5</ele>
<desc>Speed 0.4 km/h Distance 6.29 km</desc>
<time>2012-09-18T15:27:04.32</time>
<name>396</name>
<sym>Dot</sym>
</trkpt>
<trkpt lat="47.430800" lon="15.821053">
<ele>730.5</ele>
<desc>Speed 0.3 km/h Distance 6.29 km</desc>
<time>2012-09-18T15:27:05.29</time>
<name>397</name>
<sym>Dot</sym>
</trkpt>
<trkpt lat="47.430800" lon="15.821053">
<ele>730.5</ele>
<desc>Speed 0.3 km/h Distance 6.29 km</desc>
<time>2012-09-18T15:27:06.29</time>
<name>398</name>
<sym>Dot</sym>
</trkpt>
<trkpt lat="47.430800" lon="15.821053">
<ele>730.5</ele>
<desc>Speed 0.4 km/h Distance 6.29 km</desc>
<time>2012-09-18T15:27:07.30</time>
<name>399</name>
<sym>Dot</sym>
</trkpt>
<trkpt lat="47.430800" lon="15.821053">
<ele>730.5</ele>
<desc>Speed 0.4 km/h Distance 6.29 km</desc>
<time>2012-09-18T15:27:08.28</time>
<name>400</name>
<sym>Dot</sym>
</trkpt>
<trkpt lat="47.430800" lon="15.821052">
<ele>730.5</ele>
<desc>Speed 0.2 km/h Distance 6.29 km</desc>
<time>2012-09-18T15:27:09.28</time>
<name>401</name>
<sym>Dot</sym>
</trkpt>
<trkpt lat="47.430800" lon="15.821052">
<ele>730.5</ele>
<desc>Speed 0.2 km/h Distance 6.29 km</desc>
<time>2012-09-18T15:27:10.28</time>
<name>402</name>
<sym>Dot</sym>
</trkpt>
<trkpt lat="47.430800" lon="15.821052">
<ele>730.5</ele>
<desc>Speed 0.3 km/h Distance 6.29 km</desc>
<time>2012-09-18T15:27:11.28</time>
<name>403</name>
<sym>Dot</sym>
</trkpt>
<trkpt lat="47.430800" lon="15.821052">
<ele>730.5</ele>
<desc>Speed 0.4 km/h Distance 6.29 km</desc>
<time>2012-09-18T15:27:12.28</time>
<name>404</name>
<sym>Dot</sym>
</trkpt>
<trkpt lat="47.430800" lon="15.821052">
<ele>730.5</ele>
<desc>Speed 0.3 km/h Distance 6.29 km</desc>
<time>2012-09-18T15:27:13.28</time>
<name>405</name>
<sym>Dot</sym>
</trkpt>
<trkpt lat="47.430800" lon="15.821050">
<ele>730.5</ele>
<desc>Speed 0.4 km/h Distance 6.29 km</desc>
<time>2012-09-18T15:27:14.30</time>
<name>406</name>
<sym>Dot</sym>
</trkpt>
<trkpt lat="47.430800" lon="15.821050">
<ele>730.5</ele>
<desc>Speed 0.3 km/h Distance 6.29 km</desc>
<time>2012-09-18T15:27:15.27</time>
<name>407</name>
<sym>Dot</sym>
</trkpt>
<trkpt lat="47.430802" lon="15.821050">
<ele>730.5</ele>
<desc>Speed 0.4 km/h Distance 6.29 km</desc>
<time>2012-09-18T15:27:16.26</time>
<name>408</name>
<sym>Dot</sym>
</trkpt>
<trkpt lat="47.430802" lon="15.821048">
<ele>731.0</ele>
<desc>Speed 0.4 km/h Distance 6.29 km</desc>
<time>2012-09-18T15:27:17.26</time>
<name>409</name>
<sym>Dot</sym>
</trkpt>
<trkpt lat="47.430802" lon="15.821048">
<ele>731.0</ele>
<desc>Speed 0.3 km/h Distance 6.29 km</desc>
<time>2012-09-18T15:27:18.25</time>
<name>410</name>
<sym>Dot</sym>
</trkpt>
<trkpt lat="47.430802" lon="15.821048">
<ele>731.0</ele>
<desc>Speed 0.4 km/h Distance 6.29 km</desc>
<time>2012-09-18T15:27:19.24</time>
<name>411</name>
<sym>Dot</sym>
</trkpt>
<trkpt lat="47.430802" lon="15.821048">
<ele>731.0</ele>
<desc>Speed 0.2 km/h Distance 6.29 km</desc>
<time>2012-09-18T15:27:20.24</time>
<name>412</name>
<sym>Dot</sym>
</trkpt>
<trkpt lat="47.430802" lon="15.821048">
<ele>731.0</ele>
<desc>Speed 0.4 km/h Distance 6.29 km</desc>
<time>2012-09-18T15:27:21.23</time>
<name>413</name>
<sym>Dot</sym>
</trkpt>
<trkpt lat="47.430802" lon="15.821047">
<ele>731.0</ele>
<desc>Speed 0.5 km/h Distance 6.29 km</desc>
<time>2012-09-18T15:27:22.23</time>
<name>414</name>
<sym>Dot</sym>
</trkpt>
<trkpt lat="47.430802" lon="15.821047">
<ele>731.0</ele>
<desc>Speed 0.2 km/h Distance 6.29 km</desc>
<time>2012-09-18T15:27:23.22</time>
<name>415</name>
<sym>Dot</sym>
</trkpt>
<trkpt lat="47.430802" lon="15.821047">
<ele>731.0</ele>
<desc>Speed 0.3 km/h Distance 6.29 km</desc>
<time>2012-09-18T15:27:24.21</time>
<name>416</name>
<sym>Dot</sym>
</trkpt>
<trkpt lat="47.430802" lon="15.821047">
<ele>731.0</ele>
<desc>Speed 0.1 km/h Distance 6.29 km</desc>
<time>2012-09-18T15:27:25.22</time>
<name>417</name>
<sym>Dot</sym>
</trkpt>
<trkpt lat="47.430802" lon="15.821047">
<ele>731.0</ele>
<desc>Speed 0.3 km/h Distance 6.29 km</desc>
<time>2012-09-18T15:27:26.21</time>
<name>418</name>
<sym>Dot</sym>
</trkpt>
<trkpt lat="47.430802" lon="15.821047">
<ele>731.0</ele>
<desc>Speed 0.2 km/h Distance 6.29 km</desc>
<time>2012-09-18T15:27:27.20</time>
<name>419</name>
<sym>Dot</sym>
</trkpt>
<trkpt lat="47.430802" lon="15.821047">
<ele>731.0</ele>
<desc>Speed 0.3 km/h Distance 6.29 km</desc>
<time>2012-09-18T15:27:28.20</time>
<name>420</name>
<sym>Dot</sym>
</trkpt>
<trkpt lat="47.430803" lon="15.821047">
<ele>731.0</ele>
<desc>Speed 0.3 km/h Distance 6.29 km</desc>
<time>2012-09-18T15:27:29.20</time>
<name>421</name>
<sym>Dot</sym>
</trkpt>
<trkpt lat="47.430803" lon="15.821047">
<ele>731.0</ele>
<desc>Speed 0.2 km/h Distance 6.29 km</desc>
<time>2012-09-18T15:27:30.19</time>
<name>422</name>
<sym>Dot</sym>
</trkpt>
<trkpt lat="47.430803" lon="15.821047">
<ele>731.0</ele>
<desc>Speed 0.4 km/h Distance 6.29 km</desc>
<time>2012-09-18T15:27:31.18</time>
<name>423</name>
<sym>Dot</sym>
</trkpt>
<trkpt lat="47.430803" lon="15.821047">
<ele>731.0</ele>
<desc>Speed 0.4 km/h Distance 6.29 km</desc>
<time>2012-09-18T15:27:32.18</time>
<name>424</name>
<sym>Dot</sym>
</trkpt>
<trkpt lat="47.430803" lon="15.821047">
<ele>731.0</ele>
<desc>Speed 0.3 km/h Distance 6.29 km</desc>
<time>2012-09-18T15:27:33.18</time>
<name>425</name>
<sym>Dot</sym>
</trkpt>
<trkpt lat="47.430803" lon="15.821047">
<ele>731.0</ele>
<desc>Speed 0.3 km/h Distance 6.29 km</desc>
<time>2012-09-18T15:27:34.17</time>
<name>426</name>
<sym>Dot</sym>
</trkpt>
<trkpt lat="47.430803" lon="15.821047">
<ele>731.0</ele>
<desc>Speed 0.3 km/h Distance 6.29 km</desc>
<time>2012-09-18T15:27:35.17</time>
<name>427</name>
<sym>Dot</sym>
</trkpt>
<trkpt lat="47.430803" lon="15.821047">
<ele>731.0</ele>
<desc>Speed 0.4 km/h Distance 6.29 km</desc>
<time>2012-09-18T15:27:36.17</time>
<name>428</name>
<sym>Dot</sym>
</trkpt>
<trkpt lat="47.430803" lon="15.821047">
<ele>731.0</ele>
<desc>Speed 0.1 km/h Distance 6.29 km</desc>
<time>2012-09-18T15:27:37.16</time>
<name>429</name>
<sym>Dot</sym>
</trkpt>
<trkpt lat="47.430803" lon="15.821045">
<ele>731.5</ele>
<desc>Speed 0.2 km/h Distance 6.29 km</desc>
<time>2012-09-18T15:27:38.16</time>
<name>430</name>
<sym>Dot</sym>
</trkpt>
<trkpt lat="47.430803" lon="15.821045">
<ele>731.5</ele>
<desc>Speed 0.3 km/h Distance 6.29 km</desc>
<time>2012-09-18T15:27:39.16</time>
<name>431</name>
<sym>Dot</sym>
</trkpt>
<trkpt lat="47.430803" lon="15.821045">
<ele>731.5</ele>
<desc>Speed 0.2 km/h Distance 6.29 km</desc>
<time>2012-09-18T15:27:40.15</time>
<name>432</name>
<sym>Dot</sym>
</trkpt>
<trkpt lat="47.430803" lon="15.821045">
<ele>731.5</ele>
<desc>Speed 0.3 km/h Distance 6.29 km</desc>
<time>2012-09-18T15:27:41.14</time>
<name>433</name>
<sym>Dot</sym>
</trkpt>
<trkpt lat="47.430803" lon="15.821045">
<ele>731.5</ele>
<desc>Speed 0.2 km/h Distance 6.29 km</desc>
<time>2012-09-18T15:27:42.14</time>
<name>434</name>
<sym>Dot</sym>
</trkpt>
<trkpt lat="47.430803" lon="15.821045">
<ele>731.5</ele>
<desc>Speed 0.4 km/h Distance 6.29 km</desc>
<time>2012-09-18T15:27:43.13</time>
<name>435</name>
<sym>Dot</sym>
</trkpt>
<trkpt lat="47.430803" lon="15.821045">
<ele>731.5</ele>
<desc>Speed 0.4 km/h Distance 6.29 km</desc>
<time>2012-09-18T15:27:44.13</time>
<name>436</name>
<sym>Dot</sym>
</trkpt>
<trkpt lat="47.430803" lon="15.821045">
<ele>731.5</ele>
<desc>Speed 0.2 km/h Distance 6.29 km</desc>
<time>2012-09-18T15:27:45.13</time>
<name>437</name>
<sym>Dot</sym>
</trkpt>
<trkpt lat="47.430803" lon="15.821045">
<ele>731.5</ele>
<desc>Speed 0.4 km/h Distance 6.29 km</desc>
<time>2012-09-18T15:27:46.12</time>
<name>438</name>
<sym>Dot</sym>
</trkpt>
<trkpt lat="47.430803" lon="15.821045">
<ele>732.0</ele>
<desc>Speed 0.3 km/h Distance 6.29 km</desc>
<time>2012-09-18T15:27:47.12</time>
<name>439</name>
<sym>Dot</sym>
</trkpt>
<trkpt lat="47.430803" lon="15.821047">
<ele>732.0</ele>
<desc>Speed 0.3 km/h Distance 6.29 km</desc>
<time>2012-09-18T15:27:48.12</time>
<name>440</name>
<sym>Dot</sym>
</trkpt>
<trkpt lat="47.430805" lon="15.821045">
<ele>732.0</ele>
<desc>Speed 0.2 km/h Distance 6.29 km</desc>
<time>2012-09-18T15:27:49.12</time>
<name>441</name>
<sym>Dot</sym>
</trkpt>
<trkpt lat="47.430805" lon="15.821045">
<ele>732.0</ele>
<desc>Speed 0.4 km/h Distance 6.29 km</desc>
<time>2012-09-18T15:27:50.12</time>
<name>442</name>
<sym>Dot</sym>
</trkpt>
<trkpt lat="47.430805" lon="15.821045">
<ele>732.0</ele>
<desc>Speed 0.3 km/h Distance 6.29 km</desc>
<time>2012-09-18T15:27:51.12</time>
<name>443</name>
<sym>Dot</sym>
</trkpt>
<trkpt lat="47.430805" lon="15.821045">
<ele>732.0</ele>
<desc>Speed 0.4 km/h Distance 6.29 km</desc>
<time>2012-09-18T15:27:52.12</time>
<name>444</name>
<sym>Dot</sym>
</trkpt>
<trkpt lat="47.430805" lon="15.821045">
<ele>732.0</ele>
<desc>Speed 0.3 km/h Distance 6.29 km</desc>
<time>2012-09-18T15:27:53.11</time>
<name>445</name>
<sym>Dot</sym>
</trkpt>
<trkpt lat="47.430803" lon="15.821045">
<ele>732.0</ele>
<desc>Speed 0.4 km/h Distance 6.29 km</desc>
<time>2012-09-18T15:27:54.11</time>
<name>446</name>
<sym>Dot</sym>
</trkpt>
<trkpt lat="47.430803" lon="15.821045">
<ele>732.0</ele>
<desc>Speed 0.1 km/h Distance 6.29 km</desc>
<time>2012-09-18T15:27:55.11</time>
<name>447</name>
<sym>Dot</sym>
</trkpt>
<trkpt lat="47.430803" lon="15.821045">
<ele>732.5</ele>
<desc>Speed 0.4 km/h Distance 6.29 km</desc>
<time>2012-09-18T15:27:56.10</time>
<name>448</name>
<sym>Dot</sym>
</trkpt>
<trkpt lat="47.430803" lon="15.821045">
<ele>732.5</ele>
<desc>Speed 0.2 km/h Distance 6.29 km</desc>
<time>2012-09-18T15:27:57.10</time>
<name>449</name>
<sym>Dot</sym>
</trkpt>
<trkpt lat="47.430803" lon="15.821045">
<ele>732.5</ele>
<desc>Speed 0.3 km/h Distance 6.29 km</desc>
<time>2012-09-18T15:27:58.09</time>
<name>450</name>
<sym>Dot</sym>
</trkpt>
<trkpt lat="47.430803" lon="15.821045">
<ele>732.5</ele>
<desc>Speed 0.2 km/h Distance 6.29 km</desc>
<time>2012-09-18T15:27:59.09</time>
<name>451</name>
<sym>Dot</sym>
</trkpt>
<trkpt lat="47.430803" lon="15.821045">
<ele>732.5</ele>
<desc>Speed 0.3 km/h Distance 6.29 km</desc>
<time>2012-09-18T15:28:00.09</time>
<name>452</name>
<sym>Dot</sym>
</trkpt>
<trkpt lat="47.430803" lon="15.821045">
<ele>732.5</ele>
<desc>Speed 0.3 km/h Distance 6.29 km</desc>
<time>2012-09-18T15:28:01.09</time>
<name>453</name>
<sym>Dot</sym>
</trkpt>
<trkpt lat="47.430803" lon="15.821045">
<ele>732.5</ele>
<desc>Speed 0.2 km/h Distance 6.29 km</desc>
<time>2012-09-18T15:28:02.11</time>
<name>454</name>
<sym>Dot</sym>
</trkpt>
<trkpt lat="47.430803" lon="15.821045">
<ele>732.5</ele>
<desc>Speed 0.1 km/h Distance 6.29 km</desc>
<time>2012-09-18T15:28:03.08</time>
<name>455</name>
<sym>Dot</sym>
</trkpt>
<trkpt lat="47.430803" lon="15.821045">
<ele>732.5</ele>
<desc>Speed 0.3 km/h Distance 6.29 km</desc>
<time>2012-09-18T15:28:04.10</time>
<name>456</name>
<sym>Dot</sym>
</trkpt>
<trkpt lat="47.430803" lon="15.821045">
<ele>733.0</ele>
<desc>Speed 0.3 km/h Distance 6.29 km</desc>
<time>2012-09-18T15:28:05.07</time>
<name>457</name>
<sym>Dot</sym>
</trkpt>
<trkpt lat="47.430803" lon="15.821045">
<ele>733.0</ele>
<desc>Speed 0.4 km/h Distance 6.29 km</desc>
<time>2012-09-18T15:28:06.09</time>
<name>458</name>
<sym>Dot</sym>
</trkpt>
<trkpt lat="47.430803" lon="15.821045">
<ele>733.0</ele>
<desc>Speed 0.1 km/h Distance 6.29 km</desc>
<time>2012-09-18T15:28:07.06</time>
<name>459</name>
<sym>Dot</sym>
</trkpt>
<trkpt lat="47.430803" lon="15.821045">
<ele>733.0</ele>
<desc>Speed 0.3 km/h Distance 6.29 km</desc>
<time>2012-09-18T15:28:08.08</time>
<name>460</name>
<sym>Dot</sym>
</trkpt>
<trkpt lat="47.430803" lon="15.821045">
<ele>733.0</ele>
<desc>Speed 0.2 km/h Distance 6.29 km</desc>
<time>2012-09-18T15:28:09.05</time>
<name>461</name>
<sym>Dot</sym>
</trkpt>
<trkpt lat="47.430803" lon="15.821045">
<ele>733.0</ele>
<desc>Speed 0.4 km/h Distance 6.29 km</desc>
<time>2012-09-18T15:28:10.07</time>
<name>462</name>
<sym>Dot</sym>
</trkpt>
<trkpt lat="47.430803" lon="15.821045">
<ele>733.0</ele>
<desc>Speed 0.3 km/h Distance 6.29 km</desc>
<time>2012-09-18T15:28:11.03</time>
<name>463</name>
<sym>Dot</sym>
</trkpt>
<trkpt lat="47.430803" lon="15.821045">
<ele>733.0</ele>
<desc>Speed 0.4 km/h Distance 6.29 km</desc>
<time>2012-09-18T15:28:12.03</time>
<name>464</name>
<sym>Dot</sym>
</trkpt>
<trkpt lat="47.430802" lon="15.821043">
<ele>733.0</ele>
<desc>Speed 0.4 km/h Distance 6.29 km</desc>
<time>2012-09-18T15:28:13.03</time>
<name>465</name>
<sym>Dot</sym>
</trkpt>
<trkpt lat="47.430802" lon="15.821043">
<ele>733.0</ele>
<desc>Speed 0.4 km/h Distance 6.29 km</desc>
<time>2012-09-18T15:28:14.02</time>
<name>466</name>
<sym>Dot</sym>
</trkpt>
<trkpt lat="47.430803" lon="15.821043">
<ele>733.5</ele>
<desc>Speed 0.2 km/h Distance 6.29 km</desc>
<time>2012-09-18T15:28:15.05</time>
<name>467</name>
<sym>Dot</sym>
</trkpt>
<trkpt lat="47.430803" lon="15.821043">
<ele>733.5</ele>
<desc>Speed 0.1 km/h Distance 6.29 km</desc>
<time>2012-09-18T15:28:16.02</time>
<name>468</name>
<sym>Dot</sym>
</trkpt>
<trkpt lat="47.430803" lon="15.821043">
<ele>733.5</ele>
<desc>Speed 0.6 km/h Distance 6.29 km</desc>
<time>2012-09-18T15:28:17.02</time>
<name>469</name>
<sym>Dot</sym>
</trkpt>
<trkpt lat="47.430803" lon="15.821043">
<ele>733.5</ele>
<desc>Speed 0.3 km/h Distance 6.29 km</desc>
<time>2012-09-18T15:28:18.01</time>
<name>470</name>
<sym>Dot</sym>
</trkpt>
<trkpt lat="47.430803" lon="15.821043">
<ele>733.5</ele>
<desc>Speed 0.4 km/h Distance 6.29 km</desc>
<time>2012-09-18T15:28:19.00</time>
<name>471</name>
<sym>Dot</sym>
</trkpt>
<trkpt lat="47.430803" lon="15.821043">
<ele>733.5</ele>
<desc>Speed 0.4 km/h Distance 6.29 km</desc>
<time>2012-09-18T15:28:20.00</time>
<name>472</name>
<sym>Dot</sym>
</trkpt>
<trkpt lat="47.430803" lon="15.821043">
<ele>733.5</ele>
<desc>Speed 0.4 km/h Distance 6.29 km</desc>
<time>2012-09-18T15:28:20.99</time>
<name>473</name>
<sym>Dot</sym>
</trkpt>
<trkpt lat="47.430803" lon="15.821042">
<ele>733.5</ele>
<desc>Speed 0.3 km/h Distance 6.29 km</desc>
<time>2012-09-18T15:28:21.98</time>
<name>474</name>
<sym>Dot</sym>
</trkpt>
<trkpt lat="47.430803" lon="15.821042">
<ele>733.5</ele>
<desc>Speed 0.3 km/h Distance 6.29 km</desc>
<time>2012-09-18T15:28:22.98</time>
<name>475</name>
<sym>Dot</sym>
</trkpt>
<trkpt lat="47.430803" lon="15.821042">
<ele>733.5</ele>
<desc>Speed 0.1 km/h Distance 6.29 km</desc>
<time>2012-09-18T15:28:23.98</time>
<name>476</name>
<sym>Dot</sym>
</trkpt>
<trkpt lat="47.430803" lon="15.821042">
<ele>733.5</ele>
<desc>Speed 0.4 km/h Distance 6.29 km</desc>
<time>2012-09-18T15:28:24.97</time>
<name>477</name>
<sym>Dot</sym>
</trkpt>
<trkpt lat="47.430803" lon="15.821042">
<ele>733.5</ele>
<desc>Speed 0.2 km/h Distance 6.29 km</desc>
<time>2012-09-18T15:28:25.97</time>
<name>478</name>
<sym>Dot</sym>
</trkpt>
<trkpt lat="47.430802" lon="15.821042">
<ele>733.5</ele>
<desc>Speed 0.4 km/h Distance 6.29 km</desc>
<time>2012-09-18T15:28:26.96</time>
<name>479</name>
<sym>Dot</sym>
</trkpt>
<trkpt lat="47.430802" lon="15.821042">
<ele>733.5</ele>
<desc>Speed 0.1 km/h Distance 6.29 km</desc>
<time>2012-09-18T15:28:27.96</time>
<name>480</name>
<sym>Dot</sym>
</trkpt>
<trkpt lat="47.430803" lon="15.821040">
<ele>734.0</ele>
<desc>Speed 0.1 km/h Distance 6.29 km</desc>
<time>2012-09-18T15:28:28.96</time>
<name>481</name>
<sym>Dot</sym>
</trkpt>
<trkpt lat="47.430803" lon="15.821040">
<ele>734.0</ele>
<desc>Speed 0.2 km/h Distance 6.29 km</desc>
<time>2012-09-18T15:28:29.95</time>
<name>482</name>
<sym>Dot</sym>
</trkpt>
<trkpt lat="47.430803" lon="15.821040">
<ele>734.0</ele>
<desc>Speed 0.5 km/h Distance 6.29 km</desc>
<time>2012-09-18T15:28:30.95</time>
<name>483</name>
<sym>Dot</sym>
</trkpt>
<trkpt lat="47.430803" lon="15.821040">
<ele>734.0</ele>
<desc>Speed 0.1 km/h Distance 6.29 km</desc>
<time>2012-09-18T15:28:31.94</time>
<name>484</name>
<sym>Dot</sym>
</trkpt>
<trkpt lat="47.430802" lon="15.821040">
<ele>734.0</ele>
<desc>Speed 0.4 km/h Distance 6.29 km</desc>
<time>2012-09-18T15:28:32.94</time>
<name>485</name>
<sym>Dot</sym>
</trkpt>
<trkpt lat="47.430802" lon="15.821040">
<ele>734.5</ele>
<desc>Speed 0.4 km/h Distance 6.29 km</desc>
<time>2012-09-18T15:28:33.93</time>
<name>486</name>
<sym>Dot</sym>
</trkpt>
<trkpt lat="47.430802" lon="15.821040">
<ele>734.5</ele>
<desc>Speed 0.4 km/h Distance 6.29 km</desc>
<time>2012-09-18T15:28:34.92</time>
<name>487</name>
<sym>Dot</sym>
</trkpt>
<trkpt lat="47.430802" lon="15.821040">
<ele>734.5</ele>
<desc>Speed 0.4 km/h Distance 6.29 km</desc>
<time>2012-09-18T15:28:35.92</time>
<name>488</name>
<sym>Dot</sym>
</trkpt>
<trkpt lat="47.430802" lon="15.821040">
<ele>734.5</ele>
<desc>Speed 0.5 km/h Distance 6.29 km</desc>
<time>2012-09-18T15:28:36.91</time>
<name>489</name>
<sym>Dot</sym>
</trkpt>
<trkpt lat="47.430802" lon="15.821038">
<ele>734.5</ele>
<desc>Speed 0.4 km/h Distance 6.29 km</desc>
<time>2012-09-18T15:28:37.91</time>
<name>490</name>
<sym>Dot</sym>
</trkpt>
<trkpt lat="47.430802" lon="15.821038">
<ele>734.5</ele>
<desc>Speed 0.2 km/h Distance 6.29 km</desc>
<time>2012-09-18T15:28:38.90</time>
<name>491</name>
<sym>Dot</sym>
</trkpt>
<trkpt lat="47.430802" lon="15.821038">
<ele>734.5</ele>
<desc>Speed 0.6 km/h Distance 6.29 km</desc>
<time>2012-09-18T15:28:39.92</time>
<name>492</name>
<sym>Dot</sym>
</trkpt>
<trkpt lat="47.430802" lon="15.821038">
<ele>734.5</ele>
<desc>Speed 0.2 km/h Distance 6.29 km</desc>
<time>2012-09-18T15:28:40.89</time>
<name>493</name>
<sym>Dot</sym>
</trkpt>
<trkpt lat="47.430802" lon="15.821038">
<ele>734.5</ele>
<desc>Speed 0.4 km/h Distance 6.29 km</desc>
<time>2012-09-18T15:28:41.89</time>
<name>494</name>
<sym>Dot</sym>
</trkpt>
<trkpt lat="47.430802" lon="15.821038">
<ele>734.5</ele>
<desc>Speed 0.4 km/h Distance 6.29 km</desc>
<time>2012-09-18T15:28:42.88</time>
<name>495</name>
<sym>Dot</sym>
</trkpt>
<trkpt lat="47.430803" lon="15.821038">
<ele>735.0</ele>
<desc>Speed 0.3 km/h Distance 6.29 km</desc>
<time>2012-09-18T15:28:43.88</time>
<name>496</name>
<sym>Dot</sym>
</trkpt>
<trkpt lat="47.430803" lon="15.821038">
<ele>735.0</ele>
<desc>Speed 0.5 km/h Distance 6.29 km</desc>
<time>2012-09-18T15:28:44.87</time>
<name>497</name>
<sym>Dot</sym>
</trkpt>
<trkpt lat="47.430803" lon="15.821038">
<ele>735.0</ele>
<desc>Speed 0.2 km/h Distance 6.29 km</desc>
<time>2012-09-18T15:28:45.87</time>
<name>498</name>
<sym>Dot</sym>
</trkpt>
<trkpt lat="47.430803" lon="15.821037">
<ele>735.5</ele>
<desc>Speed 0.3 km/h Distance 6.29 km</desc>
<time>2012-09-18T15:28:46.87</time>
<name>499</name>
<sym>Dot</sym>
</trkpt>
<trkpt lat="47.430805" lon="15.821037">
<ele>735.5</ele>
<desc>Speed 0.5 km/h Distance 6.29 km</desc>
<time>2012-09-18T15:28:47.87</time>
<name>500</name>
<sym>Dot</sym>
</trkpt>
<trkpt lat="47.430805" lon="15.821038">
<ele>735.5</ele>
<desc>Speed 0.3 km/h Distance 6.29 km</desc>
<time>2012-09-18T15:28:48.86</time>
<name>501</name>
<sym>Dot</sym>
</trkpt>
<trkpt lat="47.430805" lon="15.821037">
<ele>735.5</ele>
<desc>Speed 0.1 km/h Distance 6.29 km</desc>
<time>2012-09-18T15:28:49.86</time>
<name>502</name>
<sym>Dot</sym>
</trkpt>
<trkpt lat="47.430805" lon="15.821037">
<ele>735.5</ele>
<desc>Speed 0.4 km/h Distance 6.29 km</desc>
<time>2012-09-18T15:28:50.85</time>
<name>503</name>
<sym>Dot</sym>
</trkpt>
<trkpt lat="47.430805" lon="15.821038">
<ele>735.5</ele>
<desc>Speed 0.2 km/h Distance 6.29 km</desc>
<time>2012-09-18T15:28:51.85</time>
<name>504</name>
<sym>Dot</sym>
</trkpt>
<trkpt lat="47.430805" lon="15.821037">
<ele>735.5</ele>
<desc>Speed 0.3 km/h Distance 6.29 km</desc>
<time>2012-09-18T15:28:52.84</time>
<name>505</name>
<sym>Dot</sym>
</trkpt>
<trkpt lat="47.430798" lon="15.821038">
<ele>735.5</ele>
<desc>Speed 2.5 km/h Distance 6.29 km</desc>
<time>2012-09-18T15:28:53.83</time>
<name>506</name>
<sym>Dot</sym>
</trkpt>
<trkpt lat="47.430662" lon="15.821092">
<ele>735.5</ele>
<desc>Speed 22.3 km/h Distance 6.31 km</desc>
<time>2012-09-18T15:28:57.43</time>
<name>507</name>
<sym>Dot</sym>
</trkpt>
<trkpt lat="47.430507" lon="15.821095">
<ele>736.5</ele>
<desc>Speed 32.0 km/h Distance 6.33 km</desc>
<time>2012-09-18T15:28:59.42</time>
<name>508</name>
<sym>Dot</sym>
</trkpt>
<trkpt lat="47.430423" lon="15.821093">
<ele>737.0</ele>
<desc>Speed 33.1 km/h Distance 6.34 km</desc>
<time>2012-09-18T15:29:00.43</time>
<name>509</name>
<sym>Dot</sym>
</trkpt>
<trkpt lat="47.430342" lon="15.821085">
<ele>738.0</ele>
<desc>Speed 31.7 km/h Distance 6.35 km</desc>
<time>2012-09-18T15:29:01.42</time>
<name>510</name>
<sym>Dot</sym>
</trkpt>
<trkpt lat="47.430262" lon="15.821070">
<ele>738.5</ele>
<desc>Speed 32.3 km/h Distance 6.35 km</desc>
<time>2012-09-18T15:29:02.41</time>
<name>511</name>
<sym>Dot</sym>
</trkpt>
<trkpt lat="47.430183" lon="15.821045">
<ele>739.0</ele>
<desc>Speed 31.7 km/h Distance 6.36 km</desc>
<time>2012-09-18T15:29:03.42</time>
<name>512</name>
<sym>Dot</sym>
</trkpt>
<trkpt lat="47.430107" lon="15.821020">
<ele>739.5</ele>
<desc>Speed 30.9 km/h Distance 6.37 km</desc>
<time>2012-09-18T15:29:04.40</time>
<name>513</name>
<sym>Dot</sym>
</trkpt>
<trkpt lat="47.430032" lon="15.820990">
<ele>740.5</ele>
<desc>Speed 30.4 km/h Distance 6.38 km</desc>
<time>2012-09-18T15:29:05.39</time>
<name>514</name>
<sym>Dot</sym>
</trkpt>
<trkpt lat="47.429958" lon="15.820965">
<ele>742.0</ele>
<desc>Speed 29.8 km/h Distance 6.39 km</desc>
<time>2012-09-18T15:29:06.39</time>
<name>515</name>
<sym>Dot</sym>
</trkpt>
<trkpt lat="47.429880" lon="15.820947">
<ele>743.0</ele>
<desc>Speed 31.4 km/h Distance 6.40 km</desc>
<time>2012-09-18T15:29:07.39</time>
<name>516</name>
<sym>Dot</sym>
</trkpt>
<trkpt lat="47.429803" lon="15.820937">
<ele>743.5</ele>
<desc>Speed 31.1 km/h Distance 6.41 km</desc>
<time>2012-09-18T15:29:08.38</time>
<name>517</name>
<sym>Dot</sym>
</trkpt>
<trkpt lat="47.429723" lon="15.820932">
<ele>743.5</ele>
<desc>Speed 31.3 km/h Distance 6.42 km</desc>
<time>2012-09-18T15:29:09.37</time>
<name>518</name>
<sym>Dot</sym>
</trkpt>
<trkpt lat="47.429647" lon="15.820928">
<ele>745.5</ele>
<desc>Speed 31.9 km/h Distance 6.42 km</desc>
<time>2012-09-18T15:29:10.37</time>
<name>519</name>
<sym>Dot</sym>
</trkpt>
<trkpt lat="47.429568" lon="15.820927">
<ele>748.5</ele>
<desc>Speed 32.5 km/h Distance 6.43 km</desc>
<time>2012-09-18T15:29:11.37</time>
<name>520</name>
<sym>Dot</sym>
</trkpt>
<trkpt lat="47.429488" lon="15.820937">
<ele>749.5</ele>
<desc>Speed 32.3 km/h Distance 6.44 km</desc>
<time>2012-09-18T15:29:12.35</time>
<name>521</name>
<sym>Dot</sym>
</trkpt>
<trkpt lat="47.429403" lon="15.820955">
<ele>750.5</ele>
<desc>Speed 33.7 km/h Distance 6.45 km</desc>
<time>2012-09-18T15:29:13.36</time>
<name>522</name>
<sym>Dot</sym>
</trkpt>
<trkpt lat="47.429320" lon="15.820988">
<ele>750.5</ele>
<desc>Speed 34.7 km/h Distance 6.46 km</desc>
<time>2012-09-18T15:29:14.35</time>
<name>523</name>
<sym>Dot</sym>
</trkpt>
<trkpt lat="47.429238" lon="15.821065">
<ele>750.5</ele>
<desc>Speed 38.5 km/h Distance 6.47 km</desc>
<time>2012-09-18T15:29:15.36</time>
<name>524</name>
<sym>Dot</sym>
</trkpt>
<trkpt lat="47.428888" lon="15.821380">
<ele>748.0</ele>
<desc>Speed 54.9 km/h Distance 6.52 km</desc>
<time>2012-09-18T15:29:18.43</time>
<name>525</name>
<sym>Dot</sym>
</trkpt>
<trkpt lat="47.428777" lon="15.821462">
<ele>748.0</ele>
<desc>Speed 50.3 km/h Distance 6.53 km</desc>
<time>2012-09-18T15:29:19.43</time>
<name>526</name>
<sym>Dot</sym>
</trkpt>
<trkpt lat="47.428665" lon="15.821508">
<ele>748.0</ele>
<desc>Speed 46.3 km/h Distance 6.54 km</desc>
<time>2012-09-18T15:29:20.43</time>
<name>527</name>
<sym>Dot</sym>
</trkpt>
<trkpt lat="47.428390" lon="15.821533">
<ele>746.0</ele>
<desc>Speed 58.6 km/h Distance 6.57 km</desc>
<time>2012-09-18T15:29:22.42</time>
<name>528</name>
<sym>Dot</sym>
</trkpt>
<trkpt lat="47.428142" lon="15.821407">
<ele>746.0</ele>
<desc>Speed 59.0 km/h Distance 6.60 km</desc>
<time>2012-09-18T15:29:24.41</time>
<name>529</name>
<sym>Dot</sym>
</trkpt>
<trkpt lat="47.427923" lon="15.821127">
<ele>746.0</ele>
<desc>Speed 65.2 km/h Distance 6.64 km</desc>
<time>2012-09-18T15:29:26.40</time>
<name>530</name>
<sym>Dot</sym>
</trkpt>
<trkpt lat="47.427828" lon="15.820937">
<ele>747.0</ele>
<desc>Speed 64.3 km/h Distance 6.65 km</desc>
<time>2012-09-18T15:29:27.40</time>
<name>531</name>
<sym>Dot</sym>
</trkpt>
<trkpt lat="47.427738" lon="15.820718">
<ele>747.0</ele>
<desc>Speed 69.7 km/h Distance 6.67 km</desc>
<time>2012-09-18T15:29:28.40</time>
<name>532</name>
<sym>Dot</sym>
</trkpt>
<trkpt lat="47.427657" lon="15.820497">
<ele>747.0</ele>
<desc>Speed 68.9 km/h Distance 6.69 km</desc>
<time>2012-09-18T15:29:29.39</time>
<name>533</name>
<sym>Dot</sym>
</trkpt>
<trkpt lat="47.427587" lon="15.820285">
<ele>749.0</ele>
<desc>Speed 64.5 km/h Distance 6.71 km</desc>
<time>2012-09-18T15:29:30.39</time>
<name>534</name>
<sym>Dot</sym>
</trkpt>
<trkpt lat="47.427415" lon="15.819962">
<ele>750.0</ele>
<desc>Speed 55.4 km/h Distance 6.74 km</desc>
<time>2012-09-18T15:29:32.39</time>
<name>535</name>
<sym>Dot</sym>
</trkpt>
<trkpt lat="47.427300" lon="15.819830">
<ele>750.0</ele>
<desc>Speed 58.7 km/h Distance 6.76 km</desc>
<time>2012-09-18T15:29:33.38</time>
<name>536</name>
<sym>Dot</sym>
</trkpt>
<trkpt lat="47.427158" lon="15.819723">
<ele>750.5</ele>
<desc>Speed 64.3 km/h Distance 6.77 km</desc>
<time>2012-09-18T15:29:34.37</time>
<name>537</name>
<sym>Dot</sym>
</trkpt>
<trkpt lat="47.426808" lon="15.819533">
<ele>749.5</ele>
<desc>Speed 68.5 km/h Distance 6.82 km</desc>
<time>2012-09-18T15:29:36.37</time>
<name>538</name>
<sym>Dot</sym>
</trkpt>
<trkpt lat="47.426432" lon="15.819345">
<ele>748.5</ele>
<desc>Speed 80.0 km/h Distance 6.86 km</desc>
<time>2012-09-18T15:29:38.36</time>
<name>539</name>
<sym>Dot</sym>
</trkpt>
<trkpt lat="47.426243" lon="15.819278">
<ele>748.5</ele>
<desc>Speed 77.8 km/h Distance 6.88 km</desc>
<time>2012-09-18T15:29:39.36</time>
<name>540</name>
<sym>Dot</sym>
</trkpt>
<trkpt lat="47.426035" lon="15.819225">
<ele>749.5</ele>
<desc>Speed 84.8 km/h Distance 6.91 km</desc>
<time>2012-09-18T15:29:40.37</time>
<name>541</name>
<sym>Dot</sym>
</trkpt>
<trkpt lat="47.425818" lon="15.819188">
<ele>748.5</ele>
<desc>Speed 87.4 km/h Distance 6.93 km</desc>
<time>2012-09-18T15:29:41.35</time>
<name>542</name>
<sym>Dot</sym>
</trkpt>
<trkpt lat="47.425592" lon="15.819160">
<ele>749.5</ele>
<desc>Speed 91.7 km/h Distance 6.95 km</desc>
<time>2012-09-18T15:29:42.35</time>
<name>543</name>
<sym>Dot</sym>
</trkpt>
<trkpt lat="47.425075" lon="15.819033">
<ele>750.5</ele>
<desc>Speed 76.7 km/h Distance 7.01 km</desc>
<time>2012-09-18T15:29:45.42</time>
<name>544</name>
<sym>Dot</sym>
</trkpt>
<trkpt lat="47.424777" lon="15.818798">
<ele>750.5</ele>
<desc>Speed 68.0 km/h Distance 7.05 km</desc>
<time>2012-09-18T15:29:47.42</time>
<name>545</name>
<sym>Dot</sym>
</trkpt>
<trkpt lat="47.424653" lon="15.818618">
<ele>750.0</ele>
<desc>Speed 69.8 km/h Distance 7.07 km</desc>
<time>2012-09-18T15:29:48.43</time>
<name>546</name>
<sym>Dot</sym>
</trkpt>
<trkpt lat="47.424545" lon="15.818422">
<ele>750.0</ele>
<desc>Speed 69.3 km/h Distance 7.09 km</desc>
<time>2012-09-18T15:29:49.43</time>
<name>547</name>
<sym>Dot</sym>
</trkpt>
<trkpt lat="47.424438" lon="15.818255">
<ele>750.0</ele>
<desc>Speed 63.1 km/h Distance 7.11 km</desc>
<time>2012-09-18T15:29:50.42</time>
<name>548</name>
<sym>Dot</sym>
</trkpt>
<trkpt lat="47.424230" lon="15.818022">
<ele>749.5</ele>
<desc>Speed 52.4 km/h Distance 7.14 km</desc>
<time>2012-09-18T15:29:52.42</time>
<name>549</name>
<sym>Dot</sym>
</trkpt>
<trkpt lat="47.424115" lon="15.817960">
<ele>750.5</ele>
<desc>Speed 53.2 km/h Distance 7.15 km</desc>
<time>2012-09-18T15:29:53.41</time>
<name>550</name>
<sym>Dot</sym>
</trkpt>
<trkpt lat="47.423420" lon="15.817918">
<ele>752.0</ele>
<desc>Speed 75.7 km/h Distance 7.23 km</desc>
<time>2012-09-18T15:29:57.43</time>
<name>551</name>
<sym>Dot</sym>
</trkpt>
<trkpt lat="47.423108" lon="15.817883">
<ele>753.5</ele>
<desc>Speed 61.5 km/h Distance 7.26 km</desc>
<time>2012-09-18T15:29:59.42</time>
<name>552</name>
<sym>Dot</sym>
</trkpt>
<trkpt lat="47.422743" lon="15.817588">
<ele>751.0</ele>
<desc>Speed 40.4 km/h Distance 7.31 km</desc>
<time>2012-09-18T15:30:03.42</time>
<name>553</name>
<sym>Dot</sym>
</trkpt>
<trkpt lat="47.422680" lon="15.817462">
<ele>750.5</ele>
<desc>Speed 43.8 km/h Distance 7.32 km</desc>
<time>2012-09-18T15:30:04.43</time>
<name>554</name>
<sym>Dot</sym>
</trkpt>
<trkpt lat="47.422578" lon="15.817103">
<ele>751.0</ele>
<desc>Speed 54.8 km/h Distance 7.35 km</desc>
<time>2012-09-18T15:30:06.43</time>
<name>555</name>
<sym>Dot</sym>
</trkpt>
<trkpt lat="47.422550" lon="15.816883">
<ele>750.5</ele>
<desc>Speed 60.2 km/h Distance 7.37 km</desc>
<time>2012-09-18T15:30:07.42</time>
<name>556</name>
<sym>Dot</sym>
</trkpt>
<trkpt lat="47.422540" lon="15.816652">
<ele>749.5</ele>
<desc>Speed 63.4 km/h Distance 7.38 km</desc>
<time>2012-09-18T15:30:08.41</time>
<name>557</name>
<sym>Dot</sym>
</trkpt>
<trkpt lat="47.422550" lon="15.816410">
<ele>748.5</ele>
<desc>Speed 65.5 km/h Distance 7.40 km</desc>
<time>2012-09-18T15:30:09.41</time>
<name>558</name>
<sym>Dot</sym>
</trkpt>
<trkpt lat="47.422582" lon="15.816152">
<ele>749.5</ele>
<desc>Speed 71.2 km/h Distance 7.42 km</desc>
<time>2012-09-18T15:30:10.40</time>
<name>559</name>
<sym>Dot</sym>
</trkpt>
<trkpt lat="47.422628" lon="15.815890">
<ele>749.5</ele>
<desc>Speed 73.3 km/h Distance 7.44 km</desc>
<time>2012-09-18T15:30:11.40</time>
<name>560</name>
<sym>Dot</sym>
</trkpt>
<trkpt lat="47.422675" lon="15.815643">
<ele>750.5</ele>
<desc>Speed 68.3 km/h Distance 7.46 km</desc>
<time>2012-09-18T15:30:12.40</time>
<name>561</name>
<sym>Dot</sym>
</trkpt>
<trkpt lat="47.422718" lon="15.815408">
<ele>751.5</ele>
<desc>Speed 65.6 km/h Distance 7.48 km</desc>
<time>2012-09-18T15:30:13.39</time>
<name>562</name>
<sym>Dot</sym>
</trkpt>
<trkpt lat="47.422747" lon="15.815162">
<ele>752.0</ele>
<desc>Speed 67.8 km/h Distance 7.50 km</desc>
<time>2012-09-18T15:30:14.39</time>
<name>563</name>
<sym>Dot</sym>
</trkpt>
<trkpt lat="47.422760" lon="15.814908">
<ele>752.0</ele>
<desc>Speed 69.2 km/h Distance 7.52 km</desc>
<time>2012-09-18T15:30:15.38</time>
<name>564</name>
<sym>Dot</sym>
</trkpt>
<trkpt lat="47.422745" lon="15.814647">
<ele>753.0</ele>
<desc>Speed 72.0 km/h Distance 7.54 km</desc>
<time>2012-09-18T15:30:16.37</time>
<name>565</name>
<sym>Dot</sym>
</trkpt>
<trkpt lat="47.422695" lon="15.814380">
<ele>752.5</ele>
<desc>Speed 75.4 km/h Distance 7.56 km</desc>
<time>2012-09-18T15:30:17.37</time>
<name>566</name>
<sym>Dot</sym>
</trkpt>
<trkpt lat="47.422620" lon="15.814102">
<ele>753.0</ele>
<desc>Speed 81.8 km/h Distance 7.58 km</desc>
<time>2012-09-18T15:30:18.37</time>
<name>567</name>
<sym>Dot</sym>
</trkpt>
<trkpt lat="47.422533" lon="15.813820">
<ele>754.0</ele>
<desc>Speed 84.3 km/h Distance 7.60 km</desc>
<time>2012-09-18T15:30:19.36</time>
<name>568</name>
<sym>Dot</sym>
</trkpt>
<trkpt lat="47.422433" lon="15.813562">
<ele>753.5</ele>
<desc>Speed 81.2 km/h Distance 7.63 km</desc>
<time>2012-09-18T15:30:20.36</time>
<name>569</name>
<sym>Dot</sym>
</trkpt>
<trkpt lat="47.422325" lon="15.813298">
<ele>753.5</ele>
<desc>Speed 84.4 km/h Distance 7.65 km</desc>
<time>2012-09-18T15:30:21.35</time>
<name>570</name>
<sym>Dot</sym>
</trkpt>
<trkpt lat="47.422203" lon="15.813065">
<ele>753.5</ele>
<desc>Speed 80.8 km/h Distance 7.67 km</desc>
<time>2012-09-18T15:30:22.35</time>
<name>571</name>
<sym>Dot</sym>
</trkpt>
<trkpt lat="47.422015" lon="15.812618">
<ele>753.5</ele>
<desc>Speed 70.1 km/h Distance 7.71 km</desc>
<time>2012-09-18T15:30:24.36</time>
<name>572</name>
<sym>Dot</sym>
</trkpt>
<trkpt lat="47.421825" lon="15.812248">
<ele>754.5</ele>
<desc>Speed 71.6 km/h Distance 7.75 km</desc>
<time>2012-09-18T15:30:26.36</time>
<name>573</name>
<sym>Dot</sym>
</trkpt>
<trkpt lat="47.421687" lon="15.812092">
<ele>754.5</ele>
<desc>Speed 69.8 km/h Distance 7.77 km</desc>
<time>2012-09-18T15:30:27.35</time>
<name>574</name>
<sym>Dot</sym>
</trkpt>
<trkpt lat="47.421520" lon="15.811987">
<ele>754.5</ele>
<desc>Speed 72.5 km/h Distance 7.79 km</desc>
<time>2012-09-18T15:30:28.35</time>
<name>575</name>
<sym>Dot</sym>
</trkpt>
<trkpt lat="47.421345" lon="15.811920">
<ele>754.5</ele>
<desc>Speed 73.0 km/h Distance 7.81 km</desc>
<time>2012-09-18T15:30:29.35</time>
<name>576</name>
<sym>Dot</sym>
</trkpt>
<trkpt lat="47.421170" lon="15.811903">
<ele>754.5</ele>
<desc>Speed 70.6 km/h Distance 7.83 km</desc>
<time>2012-09-18T15:30:30.34</time>
<name>577</name>
<sym>Dot</sym>
</trkpt>
<trkpt lat="47.420995" lon="15.811918">
<ele>754.5</ele>
<desc>Speed 70.3 km/h Distance 7.84 km</desc>
<time>2012-09-18T15:30:31.35</time>
<name>578</name>
<sym>Dot</sym>
</trkpt>
<trkpt lat="47.420582" lon="15.812023">
<ele>757.5</ele>
<desc>Speed 51.8 km/h Distance 7.89 km</desc>
<time>2012-09-18T15:30:34.44</time>
<name>579</name>
<sym>Dot</sym>
</trkpt>
<trkpt lat="47.420317" lon="15.811873">
<ele>761.0</ele>
<desc>Speed 36.8 km/h Distance 7.92 km</desc>
<time>2012-09-18T15:30:37.44</time>
<name>580</name>
<sym>Dot</sym>
</trkpt>
<trkpt lat="47.420275" lon="15.811748">
<ele>761.0</ele>
<desc>Speed 37.1 km/h Distance 7.93 km</desc>
<time>2012-09-18T15:30:38.43</time>
<name>581</name>
<sym>Dot</sym>
</trkpt>
<trkpt lat="47.420270" lon="15.811592">
<ele>761.0</ele>
<desc>Speed 40.4 km/h Distance 7.95 km</desc>
<time>2012-09-18T15:30:39.43</time>
<name>582</name>
<sym>Dot</sym>
</trkpt>
<trkpt lat="47.420322" lon="15.811460">
<ele>761.0</ele>
<desc>Speed 41.5 km/h Distance 7.96 km</desc>
<time>2012-09-18T15:30:40.43</time>
<name>583</name>
<sym>Dot</sym>
</trkpt>
<trkpt lat="47.420487" lon="15.811260">
<ele>766.5</ele>
<desc>Speed 44.4 km/h Distance 7.98 km</desc>
<time>2012-09-18T15:30:42.42</time>
<name>584</name>
<sym>Dot</sym>
</trkpt>
<trkpt lat="47.420713" lon="15.811245">
<ele>766.5</ele>
<desc>Speed 56.1 km/h Distance 8.01 km</desc>
<time>2012-09-18T15:30:44.42</time>
<name>585</name>
<sym>Dot</sym>
</trkpt>
<trkpt lat="47.420870" lon="15.811268">
<ele>767.0</ele>
<desc>Speed 62.9 km/h Distance 8.02 km</desc>
<time>2012-09-18T15:30:45.42</time>
<name>586</name>
<sym>Dot</sym>
</trkpt>
<trkpt lat="47.421040" lon="15.811253">
<ele>768.5</ele>
<desc>Speed 68.9 km/h Distance 8.04 km</desc>
<time>2012-09-18T15:30:46.41</time>
<name>587</name>
<sym>Dot</sym>
</trkpt>
<trkpt lat="47.421217" lon="15.811195">
<ele>769.0</ele>
<desc>Speed 73.3 km/h Distance 8.06 km</desc>
<time>2012-09-18T15:30:47.41</time>
<name>588</name>
<sym>Dot</sym>
</trkpt>
<trkpt lat="47.421398" lon="15.811093">
<ele>769.0</ele>
<desc>Speed 77.5 km/h Distance 8.08 km</desc>
<time>2012-09-18T15:30:48.41</time>
<name>589</name>
<sym>Dot</sym>
</trkpt>
<trkpt lat="47.421552" lon="15.810947">
<ele>769.5</ele>
<desc>Speed 73.2 km/h Distance 8.10 km</desc>
<time>2012-09-18T15:30:49.41</time>
<name>590</name>
<sym>Dot</sym>
</trkpt>
<trkpt lat="47.421695" lon="15.810762">
<ele>769.5</ele>
<desc>Speed 76.5 km/h Distance 8.13 km</desc>
<time>2012-09-18T15:30:50.40</time>
<name>591</name>
<sym>Dot</sym>
</trkpt>
<trkpt lat="47.421845" lon="15.810555">
<ele>769.5</ele>
<desc>Speed 82.4 km/h Distance 8.15 km</desc>
<time>2012-09-18T15:30:51.40</time>
<name>592</name>
<sym>Dot</sym>
</trkpt>
<trkpt lat="47.422170" lon="15.810055">
<ele>771.5</ele>
<desc>Speed 93.8 km/h Distance 8.20 km</desc>
<time>2012-09-18T15:30:53.40</time>
<name>593</name>
<sym>Dot</sym>
</trkpt>
<trkpt lat="47.422335" lon="15.809808">
<ele>773.5</ele>
<desc>Speed 94.3 km/h Distance 8.23 km</desc>
<time>2012-09-18T15:30:54.40</time>
<name>594</name>
<sym>Dot</sym>
</trkpt>
<trkpt lat="47.422508" lon="15.809568">
<ele>773.5</ele>
<desc>Speed 95.4 km/h Distance 8.25 km</desc>
<time>2012-09-18T15:30:55.40</time>
<name>595</name>
<sym>Dot</sym>
</trkpt>
<trkpt lat="47.422690" lon="15.809325">
<ele>774.0</ele>
<desc>Speed 98.3 km/h Distance 8.28 km</desc>
<time>2012-09-18T15:30:56.39</time>
<name>596</name>
<sym>Dot</sym>
</trkpt>
<trkpt lat="47.422887" lon="15.809088">
<ele>774.0</ele>
<desc>Speed 102 km/h Distance 8.31 km</desc>
<time>2012-09-18T15:30:57.38</time>
<name>597</name>
<sym>Dot</sym>
</trkpt>
<trkpt lat="47.423092" lon="15.808867">
<ele>774.5</ele>
<desc>Speed 102 km/h Distance 8.34 km</desc>
<time>2012-09-18T15:30:58.38</time>
<name>598</name>
<sym>Dot</sym>
</trkpt>
<trkpt lat="47.423292" lon="15.808640">
<ele>774.5</ele>
<desc>Speed 102 km/h Distance 8.37 km</desc>
<time>2012-09-18T15:30:59.37</time>
<name>599</name>
<sym>Dot</sym>
</trkpt>
<trkpt lat="47.423482" lon="15.808418">
<ele>775.0</ele>
<desc>Speed 97.8 km/h Distance 8.39 km</desc>
<time>2012-09-18T15:31:00.36</time>
<name>600</name>
<sym>Dot</sym>
</trkpt>
<trkpt lat="47.424062" lon="15.807630">
<ele>782.5</ele>
<desc>Speed 72.1 km/h Distance 8.48 km</desc>
<time>2012-09-18T15:31:04.43</time>
<name>601</name>
<sym>Dot</sym>
</trkpt>
<trkpt lat="47.424173" lon="15.807427">
<ele>784.5</ele>
<desc>Speed 71.3 km/h Distance 8.50 km</desc>
<time>2012-09-18T15:31:05.42</time>
<name>602</name>
<sym>Dot</sym>
</trkpt>
<trkpt lat="47.424273" lon="15.807222">
<ele>787.0</ele>
<desc>Speed 70.3 km/h Distance 8.52 km</desc>
<time>2012-09-18T15:31:06.41</time>
<name>603</name>
<sym>Dot</sym>
</trkpt>
<trkpt lat="47.424367" lon="15.807007">
<ele>789.0</ele>
<desc>Speed 69.5 km/h Distance 8.54 km</desc>
<time>2012-09-18T15:31:07.45</time>
<name>604</name>
<sym>Dot</sym>
</trkpt>
<trkpt lat="47.424452" lon="15.806783">
<ele>790.5</ele>
<desc>Speed 69.1 km/h Distance 8.56 km</desc>
<time>2012-09-18T15:31:08.40</time>
<name>605</name>
<sym>Dot</sym>
</trkpt>
<trkpt lat="47.424527" lon="15.806555">
<ele>792.5</ele>
<desc>Speed 69.3 km/h Distance 8.58 km</desc>
<time>2012-09-18T15:31:09.39</time>
<name>606</name>
<sym>Dot</sym>
</trkpt>
<trkpt lat="47.424595" lon="15.806318">
<ele>795.5</ele>
<desc>Speed 72.8 km/h Distance 8.60 km</desc>
<time>2012-09-18T15:31:10.39</time>
<name>607</name>
<sym>Dot</sym>
</trkpt>
<trkpt lat="47.424717" lon="15.805743">
<ele>797.5</ele>
<desc>Speed 84.7 km/h Distance 8.64 km</desc>
<time>2012-09-18T15:31:12.39</time>
<name>608</name>
<sym>Dot</sym>
</trkpt>
<trkpt lat="47.424752" lon="15.805418">
<ele>800.5</ele>
<desc>Speed 90.4 km/h Distance 8.67 km</desc>
<time>2012-09-18T15:31:13.38</time>
<name>609</name>
<sym>Dot</sym>
</trkpt>
<trkpt lat="47.424783" lon="15.805072">
<ele>802.5</ele>
<desc>Speed 94.7 km/h Distance 8.69 km</desc>
<time>2012-09-18T15:31:14.38</time>
<name>610</name>
<sym>Dot</sym>
</trkpt>
<trkpt lat="47.424813" lon="15.804737">
<ele>805.0</ele>
<desc>Speed 93.1 km/h Distance 8.72 km</desc>
<time>2012-09-18T15:31:15.37</time>
<name>611</name>
<sym>Dot</sym>
</trkpt>
<trkpt lat="47.424847" lon="15.804392">
<ele>807.0</ele>
<desc>Speed 94.7 km/h Distance 8.74 km</desc>
<time>2012-09-18T15:31:16.37</time>
<name>612</name>
<sym>Dot</sym>
</trkpt>
<trkpt lat="47.424885" lon="15.804048">
<ele>810.5</ele>
<desc>Speed 95.4 km/h Distance 8.77 km</desc>
<time>2012-09-18T15:31:17.37</time>
<name>613</name>
<sym>Dot</sym>
</trkpt>
<trkpt lat="47.424937" lon="15.803718">
<ele>813.5</ele>
<desc>Speed 94.0 km/h Distance 8.80 km</desc>
<time>2012-09-18T15:31:18.37</time>
<name>614</name>
<sym>Dot</sym>
</trkpt>
<trkpt lat="47.425003" lon="15.803392">
<ele>816.0</ele>
<desc>Speed 94.1 km/h Distance 8.82 km</desc>
<time>2012-09-18T15:31:19.37</time>
<name>615</name>
<sym>Dot</sym>
</trkpt>
<trkpt lat="47.425087" lon="15.803060">
<ele>817.0</ele>
<desc>Speed 95.8 km/h Distance 8.85 km</desc>
<time>2012-09-18T15:31:20.36</time>
<name>616</name>
<sym>Dot</sym>
</trkpt>
<trkpt lat="47.425185" lon="15.802733">
<ele>818.5</ele>
<desc>Speed 97.5 km/h Distance 8.87 km</desc>
<time>2012-09-18T15:31:21.36</time>
<name>617</name>
<sym>Dot</sym>
</trkpt>
<trkpt lat="47.425297" lon="15.802412">
<ele>820.0</ele>
<desc>Speed 98.0 km/h Distance 8.90 km</desc>
<time>2012-09-18T15:31:22.35</time>
<name>618</name>
<sym>Dot</sym>
</trkpt>
<trkpt lat="47.425422" lon="15.802100">
<ele>821.0</ele>
<desc>Speed 98.7 km/h Distance 8.93 km</desc>
<time>2012-09-18T15:31:23.35</time>
<name>619</name>
<sym>Dot</sym>
</trkpt>
<trkpt lat="47.425563" lon="15.801795">
<ele>822.0</ele>
<desc>Speed 100 km/h Distance 8.96 km</desc>
<time>2012-09-18T15:31:24.34</time>
<name>620</name>
<sym>Dot</sym>
</trkpt>
<trkpt lat="47.425713" lon="15.801500">
<ele>823.5</ele>
<desc>Speed 100 km/h Distance 8.98 km</desc>
<time>2012-09-18T15:31:25.34</time>
<name>621</name>
<sym>Dot</sym>
</trkpt>
<trkpt lat="47.425862" lon="15.801202">
<ele>824.0</ele>
<desc>Speed 101 km/h Distance 9.01 km</desc>
<time>2012-09-18T15:31:26.33</time>
<name>622</name>
<sym>Dot</sym>
</trkpt>
<trkpt lat="47.426007" lon="15.800903">
<ele>824.5</ele>
<desc>Speed 99.9 km/h Distance 9.04 km</desc>
<time>2012-09-18T15:31:27.33</time>
<name>623</name>
<sym>Dot</sym>
</trkpt>
<trkpt lat="47.426142" lon="15.800595">
<ele>824.5</ele>
<desc>Speed 100 km/h Distance 9.07 km</desc>
<time>2012-09-18T15:31:28.32</time>
<name>624</name>
<sym>Dot</sym>
</trkpt>
<trkpt lat="47.426265" lon="15.800273">
<ele>825.5</ele>
<desc>Speed 101 km/h Distance 9.10 km</desc>
<time>2012-09-18T15:31:29.32</time>
<name>625</name>
<sym>Dot</sym>
</trkpt>
<trkpt lat="47.426373" lon="15.799943">
<ele>825.5</ele>
<desc>Speed 100 km/h Distance 9.12 km</desc>
<time>2012-09-18T15:31:30.31</time>
<name>626</name>
<sym>Dot</sym>
</trkpt>
<trkpt lat="47.426468" lon="15.799603">
<ele>825.5</ele>
<desc>Speed 99.9 km/h Distance 9.15 km</desc>
<time>2012-09-18T15:31:31.31</time>
<name>627</name>
<sym>Dot</sym>
</trkpt>
<trkpt lat="47.426540" lon="15.799258">
<ele>826.5</ele>
<desc>Speed 99.8 km/h Distance 9.18 km</desc>
<time>2012-09-18T15:31:32.30</time>
<name>628</name>
<sym>Dot</sym>
</trkpt>
<trkpt lat="47.426602" lon="15.798895">
<ele>827.5</ele>
<desc>Speed 102 km/h Distance 9.21 km</desc>
<time>2012-09-18T15:31:33.30</time>
<name>629</name>
<sym>Dot</sym>
</trkpt>
<trkpt lat="47.426647" lon="15.798520">
<ele>827.0</ele>
<desc>Speed 103 km/h Distance 9.24 km</desc>
<time>2012-09-18T15:31:34.29</time>
<name>630</name>
<sym>Dot</sym>
</trkpt>
<trkpt lat="47.426680" lon="15.798138">
<ele>826.5</ele>
<desc>Speed 104 km/h Distance 9.26 km</desc>
<time>2012-09-18T15:31:35.29</time>
<name>631</name>
<sym>Dot</sym>
</trkpt>
<trkpt lat="47.426698" lon="15.797765">
<ele>827.0</ele>
<desc>Speed 102 km/h Distance 9.29 km</desc>
<time>2012-09-18T15:31:36.28</time>
<name>632</name>
<sym>Dot</sym>
</trkpt>
<trkpt lat="47.426717" lon="15.797065">
<ele>829.5</ele>
<desc>Speed 94.6 km/h Distance 9.35 km</desc>
<time>2012-09-18T15:31:38.28</time>
<name>633</name>
<sym>Dot</sym>
</trkpt>
<trkpt lat="47.426732" lon="15.796730">
<ele>830.0</ele>
<desc>Speed 91.3 km/h Distance 9.37 km</desc>
<time>2012-09-18T15:31:39.28</time>
<name>634</name>
<sym>Dot</sym>
</trkpt>
<trkpt lat="47.426743" lon="15.796408">
<ele>830.0</ele>
<desc>Speed 87.5 km/h Distance 9.39 km</desc>
<time>2012-09-18T15:31:40.27</time>
<name>635</name>
<sym>Dot</sym>
</trkpt>
<trkpt lat="47.426758" lon="15.796097">
<ele>830.0</ele>
<desc>Speed 84.7 km/h Distance 9.42 km</desc>
<time>2012-09-18T15:31:41.27</time>
<name>636</name>
<sym>Dot</sym>
</trkpt>
<trkpt lat="47.426778" lon="15.795782">
<ele>830.5</ele>
<desc>Speed 85.9 km/h Distance 9.44 km</desc>
<time>2012-09-18T15:31:42.26</time>
<name>637</name>
<sym>Dot</sym>
</trkpt>
<trkpt lat="47.426805" lon="15.795458">
<ele>830.5</ele>
<desc>Speed 88.2 km/h Distance 9.47 km</desc>
<time>2012-09-18T15:31:43.26</time>
<name>638</name>
<sym>Dot</sym>
</trkpt>
<trkpt lat="47.426845" lon="15.795125">
<ele>830.5</ele>
<desc>Speed 92.3 km/h Distance 9.49 km</desc>
<time>2012-09-18T15:31:44.26</time>
<name>639</name>
<sym>Dot</sym>
</trkpt>
<trkpt lat="47.426970" lon="15.794412">
<ele>831.5</ele>
<desc>Speed 101 km/h Distance 9.55 km</desc>
<time>2012-09-18T15:31:46.25</time>
<name>640</name>
<sym>Dot</sym>
</trkpt>
<trkpt lat="47.427045" lon="15.794052">
<ele>832.0</ele>
<desc>Speed 103 km/h Distance 9.58 km</desc>
<time>2012-09-18T15:31:47.25</time>
<name>641</name>
<sym>Dot</sym>
</trkpt>
<trkpt lat="47.427132" lon="15.793698">
<ele>832.0</ele>
<desc>Speed 103 km/h Distance 9.60 km</desc>
<time>2012-09-18T15:31:48.24</time>
<name>642</name>
<sym>Dot</sym>
</trkpt>
<trkpt lat="47.427230" lon="15.793342">
<ele>832.5</ele>
<desc>Speed 105 km/h Distance 9.63 km</desc>
<time>2012-09-18T15:31:49.24</time>
<name>643</name>
<sym>Dot</sym>
</trkpt>
<trkpt lat="47.427347" lon="15.792982">
<ele>833.0</ele>
<desc>Speed 109 km/h Distance 9.66 km</desc>
<time>2012-09-18T15:31:50.23</time>
<name>644</name>
<sym>Dot</sym>
</trkpt>
<trkpt lat="47.427478" lon="15.792627">
<ele>833.5</ele>
<desc>Speed 110 km/h Distance 9.69 km</desc>
<time>2012-09-18T15:31:51.23</time>
<name>645</name>
<sym>Dot</sym>
</trkpt>
<trkpt lat="47.427627" lon="15.792282">
<ele>834.0</ele>
<desc>Speed 111 km/h Distance 9.72 km</desc>
<time>2012-09-18T15:31:52.22</time>
<name>646</name>
<sym>Dot</sym>
</trkpt>
<trkpt lat="47.427788" lon="15.791950">
<ele>835.0</ele>
<desc>Speed 112 km/h Distance 9.76 km</desc>
<time>2012-09-18T15:31:53.22</time>
<name>647</name>
<sym>Dot</sym>
</trkpt>
<trkpt lat="47.427958" lon="15.791623">
<ele>836.0</ele>
<desc>Speed 112 km/h Distance 9.79 km</desc>
<time>2012-09-18T15:31:54.22</time>
<name>648</name>
<sym>Dot</sym>
</trkpt>
<trkpt lat="47.428130" lon="15.791307">
<ele>837.0</ele>
<desc>Speed 110 km/h Distance 9.82 km</desc>
<time>2012-09-18T15:31:55.21</time>
<name>649</name>
<sym>Dot</sym>
</trkpt>
<trkpt lat="47.428293" lon="15.791003">
<ele>838.5</ele>
<desc>Speed 105 km/h Distance 9.85 km</desc>
<time>2012-09-18T15:31:56.21</time>
<name>650</name>
<sym>Dot</sym>
</trkpt>
<trkpt lat="47.428452" lon="15.790697">
<ele>840.0</ele>
<desc>Speed 105 km/h Distance 9.88 km</desc>
<time>2012-09-18T15:31:57.21</time>
<name>651</name>
<sym>Dot</sym>
</trkpt>
<trkpt lat="47.428595" lon="15.790378">
<ele>841.5</ele>
<desc>Speed 104 km/h Distance 9.90 km</desc>
<time>2012-09-18T15:31:58.20</time>
<name>652</name>
<sym>Dot</sym>
</trkpt>
<trkpt lat="47.428718" lon="15.790063">
<ele>842.5</ele>
<desc>Speed 99.1 km/h Distance 9.93 km</desc>
<time>2012-09-18T15:31:59.20</time>
<name>653</name>
<sym>Dot</sym>
</trkpt>
<trkpt lat="47.428818" lon="15.789738">
<ele>842.5</ele>
<desc>Speed 96.7 km/h Distance 9.96 km</desc>
<time>2012-09-18T15:32:00.20</time>
<name>654</name>
<sym>Dot</sym>
</trkpt>
<trkpt lat="47.428892" lon="15.789392">
<ele>844.0</ele>
<desc>Speed 98.5 km/h Distance 9.99 km</desc>
<time>2012-09-18T15:32:01.20</time>
<name>655</name>
<sym>Dot</sym>
</trkpt>
<trkpt lat="47.428942" lon="15.789027">
<ele>846.0</ele>
<desc>Speed 101 km/h Distance 10.01 km</desc>
<time>2012-09-18T15:32:02.20</time>
<name>656</name>
<sym>Dot</sym>
</trkpt>
<trkpt lat="47.428968" lon="15.788652">
<ele>847.5</ele>
<desc>Speed 103 km/h Distance 10.04 km</desc>
<time>2012-09-18T15:32:03.19</time>
<name>657</name>
<sym>Dot</sym>
</trkpt>
<trkpt lat="47.428970" lon="15.788270">
<ele>849.0</ele>
<desc>Speed 104 km/h Distance 10.07 km</desc>
<time>2012-09-18T15:32:04.18</time>
<name>658</name>
<sym>Dot</sym>
</trkpt>
<trkpt lat="47.428948" lon="15.787882">
<ele>850.0</ele>
<desc>Speed 106 km/h Distance 10.10 km</desc>
<time>2012-09-18T15:32:05.18</time>
<name>659</name>
<sym>Dot</sym>
</trkpt>
<trkpt lat="47.428908" lon="15.787487">
<ele>851.5</ele>
<desc>Speed 109 km/h Distance 10.13 km</desc>
<time>2012-09-18T15:32:06.18</time>
<name>660</name>
<sym>Dot</sym>
</trkpt>
<trkpt lat="47.428860" lon="15.787087">
<ele>852.5</ele>
<desc>Speed 110 km/h Distance 10.16 km</desc>
<time>2012-09-18T15:32:07.18</time>
<name>661</name>
<sym>Dot</sym>
</trkpt>
<trkpt lat="47.428805" lon="15.786687">
<ele>853.5</ele>
<desc>Speed 111 km/h Distance 10.19 km</desc>
<time>2012-09-18T15:32:08.17</time>
<name>662</name>
<sym>Dot</sym>
</trkpt>
<trkpt lat="47.428748" lon="15.786293">
<ele>855.0</ele>
<desc>Speed 109 km/h Distance 10.22 km</desc>
<time>2012-09-18T15:32:09.16</time>
<name>663</name>
<sym>Dot</sym>
</trkpt>
<trkpt lat="47.428693" lon="15.785902">
<ele>856.5</ele>
<desc>Speed 109 km/h Distance 10.25 km</desc>
<time>2012-09-18T15:32:10.15</time>
<name>664</name>
<sym>Dot</sym>
</trkpt>
<trkpt lat="47.428638" lon="15.785512">
<ele>858.0</ele>
<desc>Speed 108 km/h Distance 10.28 km</desc>
<time>2012-09-18T15:32:11.15</time>
<name>665</name>
<sym>Dot</sym>
</trkpt>
<trkpt lat="47.428588" lon="15.785123">
<ele>859.0</ele>
<desc>Speed 107 km/h Distance 10.31 km</desc>
<time>2012-09-18T15:32:12.14</time>
<name>666</name>
<sym>Dot</sym>
</trkpt>
<trkpt lat="47.428540" lon="15.784740">
<ele>860.5</ele>
<desc>Speed 106 km/h Distance 10.34 km</desc>
<time>2012-09-18T15:32:13.12</time>
<name>667</name>
<sym>Dot</sym>
</trkpt>
<trkpt lat="47.428498" lon="15.784357">
<ele>861.5</ele>
<desc>Speed 105 km/h Distance 10.37 km</desc>
<time>2012-09-18T15:32:14.11</time>
<name>668</name>
<sym>Dot</sym>
</trkpt>
<trkpt lat="47.428463" lon="15.783977">
<ele>863.0</ele>
<desc>Speed 104 km/h Distance 10.40 km</desc>
<time>2012-09-18T15:32:15.12</time>
<name>669</name>
<sym>Dot</sym>
</trkpt>
<trkpt lat="47.428440" lon="15.783598">
<ele>864.0</ele>
<desc>Speed 103 km/h Distance 10.43 km</desc>
<time>2012-09-18T15:32:16.11</time>
<name>670</name>
<sym>Dot</sym>
</trkpt>
<trkpt lat="47.428445" lon="15.783213">
<ele>864.0</ele>
<desc>Speed 105 km/h Distance 10.46 km</desc>
<time>2012-09-18T15:32:17.11</time>
<name>671</name>
<sym>Dot</sym>
</trkpt>
<trkpt lat="47.428447" lon="15.782833">
<ele>865.0</ele>
<desc>Speed 103 km/h Distance 10.49 km</desc>
<time>2012-09-18T15:32:18.09</time>
<name>672</name>
<sym>Dot</sym>
</trkpt>
<trkpt lat="47.428463" lon="15.782453">
<ele>866.0</ele>
<desc>Speed 103 km/h Distance 10.51 km</desc>
<time>2012-09-18T15:32:19.09</time>
<name>673</name>
<sym>Dot</sym>
</trkpt>
<trkpt lat="47.428488" lon="15.782075">
<ele>867.0</ele>
<desc>Speed 103 km/h Distance 10.54 km</desc>
<time>2012-09-18T15:32:20.08</time>
<name>674</name>
<sym>Dot</sym>
</trkpt>
<trkpt lat="47.428525" lon="15.781697">
<ele>868.5</ele>
<desc>Speed 104 km/h Distance 10.57 km</desc>
<time>2012-09-18T15:32:21.07</time>
<name>675</name>
<sym>Dot</sym>
</trkpt>
<trkpt lat="47.428572" lon="15.781322">
<ele>869.5</ele>
<desc>Speed 104 km/h Distance 10.60 km</desc>
<time>2012-09-18T15:32:22.07</time>
<name>676</name>
<sym>Dot</sym>
</trkpt>
<trkpt lat="47.428630" lon="15.780948">
<ele>870.5</ele>
<desc>Speed 104 km/h Distance 10.63 km</desc>
<time>2012-09-18T15:32:23.07</time>
<name>677</name>
<sym>Dot</sym>
</trkpt>
<trkpt lat="47.428702" lon="15.780578">
<ele>871.5</ele>
<desc>Speed 105 km/h Distance 10.66 km</desc>
<time>2012-09-18T15:32:24.07</time>
<name>678</name>
<sym>Dot</sym>
</trkpt>
<trkpt lat="47.428783" lon="15.780213">
<ele>872.5</ele>
<desc>Speed 105 km/h Distance 10.69 km</desc>
<time>2012-09-18T15:32:25.07</time>
<name>679</name>
<sym>Dot</sym>
</trkpt>
<trkpt lat="47.428872" lon="15.779853">
<ele>873.5</ele>
<desc>Speed 105 km/h Distance 10.72 km</desc>
<time>2012-09-18T15:32:26.06</time>
<name>680</name>
<sym>Dot</sym>
</trkpt>
<trkpt lat="47.428972" lon="15.779495">
<ele>874.5</ele>
<desc>Speed 105 km/h Distance 10.75 km</desc>
<time>2012-09-18T15:32:27.06</time>
<name>681</name>
<sym>Dot</sym>
</trkpt>
<trkpt lat="47.429082" lon="15.779142">
<ele>875.5</ele>
<desc>Speed 106 km/h Distance 10.77 km</desc>
<time>2012-09-18T15:32:28.05</time>
<name>682</name>
<sym>Dot</sym>
</trkpt>
<trkpt lat="47.429203" lon="15.778793">
<ele>876.5</ele>
<desc>Speed 106 km/h Distance 10.80 km</desc>
<time>2012-09-18T15:32:29.05</time>
<name>683</name>
<sym>Dot</sym>
</trkpt>
<trkpt lat="47.429332" lon="15.778450">
<ele>877.5</ele>
<desc>Speed 107 km/h Distance 10.83 km</desc>
<time>2012-09-18T15:32:30.05</time>
<name>684</name>
<sym>Dot</sym>
</trkpt>
<trkpt lat="47.429467" lon="15.778108">
<ele>879.0</ele>
<desc>Speed 107 km/h Distance 10.86 km</desc>
<time>2012-09-18T15:32:31.05</time>
<name>685</name>
<sym>Dot</sym>
</trkpt>
<trkpt lat="47.429602" lon="15.777767">
<ele>880.5</ele>
<desc>Speed 108 km/h Distance 10.89 km</desc>
<time>2012-09-18T15:32:32.04</time>
<name>686</name>
<sym>Dot</sym>
</trkpt>
<trkpt lat="47.429742" lon="15.777430">
<ele>882.0</ele>
<desc>Speed 107 km/h Distance 10.92 km</desc>
<time>2012-09-18T15:32:33.04</time>
<name>687</name>
<sym>Dot</sym>
</trkpt>
<trkpt lat="47.429883" lon="15.777097">
<ele>883.0</ele>
<desc>Speed 107 km/h Distance 10.95 km</desc>
<time>2012-09-18T15:32:34.03</time>
<name>688</name>
<sym>Dot</sym>
</trkpt>
<trkpt lat="47.430030" lon="15.776770">
<ele>883.5</ele>
<desc>Speed 107 km/h Distance 10.98 km</desc>
<time>2012-09-18T15:32:35.03</time>
<name>689</name>
<sym>Dot</sym>
</trkpt>
<trkpt lat="47.430175" lon="15.776443">
<ele>885.0</ele>
<desc>Speed 106 km/h Distance 11.01 km</desc>
<time>2012-09-18T15:32:36.01</time>
<name>690</name>
<sym>Dot</sym>
</trkpt>
<trkpt lat="47.430323" lon="15.776123">
<ele>887.0</ele>
<desc>Speed 106 km/h Distance 11.04 km</desc>
<time>2012-09-18T15:32:37.02</time>
<name>691</name>
<sym>Dot</sym>
</trkpt>
<trkpt lat="47.430475" lon="15.775810">
<ele>889.0</ele>
<desc>Speed 105 km/h Distance 11.07 km</desc>
<time>2012-09-18T15:32:38.01</time>
<name>692</name>
<sym>Dot</sym>
</trkpt>
<trkpt lat="47.430628" lon="15.775500">
<ele>890.5</ele>
<desc>Speed 104 km/h Distance 11.10 km</desc>
<time>2012-09-18T15:32:39.00</time>
<name>693</name>
<sym>Dot</sym>
</trkpt>
<trkpt lat="47.430783" lon="15.775197">
<ele>890.5</ele>
<desc>Speed 103 km/h Distance 11.13 km</desc>
<time>2012-09-18T15:32:40.00</time>
<name>694</name>
<sym>Dot</sym>
</trkpt>
<trkpt lat="47.430935" lon="15.774895">
<ele>890.5</ele>
<desc>Speed 102 km/h Distance 11.16 km</desc>
<time>2012-09-18T15:32:40.99</time>
<name>695</name>
<sym>Dot</sym>
</trkpt>
<trkpt lat="47.431087" lon="15.774600">
<ele>890.5</ele>
<desc>Speed 101 km/h Distance 11.18 km</desc>
<time>2012-09-18T15:32:42.00</time>
<name>696</name>
<sym>Dot</sym>
</trkpt>
<trkpt lat="47.431242" lon="15.774310">
<ele>890.5</ele>
<desc>Speed 99.7 km/h Distance 11.21 km</desc>
<time>2012-09-18T15:32:43.00</time>
<name>697</name>
<sym>Dot</sym>
</trkpt>
<trkpt lat="47.431398" lon="15.774028">
<ele>891.0</ele>
<desc>Speed 99.1 km/h Distance 11.24 km</desc>
<time>2012-09-18T15:32:43.99</time>
<name>698</name>
<sym>Dot</sym>
</trkpt>
<trkpt lat="47.431555" lon="15.773750">
<ele>891.0</ele>
<desc>Speed 98.5 km/h Distance 11.27 km</desc>
<time>2012-09-18T15:32:44.99</time>
<name>699</name>
<sym>Dot</sym>
</trkpt>
<trkpt lat="47.431713" lon="15.773475">
<ele>890.5</ele>
<desc>Speed 97.7 km/h Distance 11.29 km</desc>
<time>2012-09-18T15:32:45.99</time>
<name>700</name>
<sym>Dot</sym>
</trkpt>
<trkpt lat="47.431875" lon="15.773207">
<ele>890.5</ele>
<desc>Speed 97.1 km/h Distance 11.32 km</desc>
<time>2012-09-18T15:32:46.98</time>
<name>701</name>
<sym>Dot</sym>
</trkpt>
<trkpt lat="47.432038" lon="15.772943">
<ele>892.5</ele>
<desc>Speed 97.0 km/h Distance 11.35 km</desc>
<time>2012-09-18T15:32:47.98</time>
<name>702</name>
<sym>Dot</sym>
</trkpt>
<trkpt lat="47.432203" lon="15.772685">
<ele>892.5</ele>
<desc>Speed 96.3 km/h Distance 11.37 km</desc>
<time>2012-09-18T15:32:48.97</time>
<name>703</name>
<sym>Dot</sym>
</trkpt>
<trkpt lat="47.432370" lon="15.772438">
<ele>892.5</ele>
<desc>Speed 94.3 km/h Distance 11.40 km</desc>
<time>2012-09-18T15:32:49.97</time>
<name>704</name>
<sym>Dot</sym>
</trkpt>
<trkpt lat="47.432537" lon="15.772188">
<ele>892.5</ele>
<desc>Speed 95.2 km/h Distance 11.43 km</desc>
<time>2012-09-18T15:32:50.97</time>
<name>705</name>
<sym>Dot</sym>
</trkpt>
<trkpt lat="47.432703" lon="15.771952">
<ele>893.5</ele>
<desc>Speed 93.6 km/h Distance 11.45 km</desc>
<time>2012-09-18T15:32:51.96</time>
<name>706</name>
<sym>Dot</sym>
</trkpt>
<trkpt lat="47.432865" lon="15.771705">
<ele>894.5</ele>
<desc>Speed 93.5 km/h Distance 11.48 km</desc>
<time>2012-09-18T15:32:52.95</time>
<name>707</name>
<sym>Dot</sym>
</trkpt>
<trkpt lat="47.433003" lon="15.771435">
<ele>895.0</ele>
<desc>Speed 92.3 km/h Distance 11.50 km</desc>
<time>2012-09-18T15:32:53.95</time>
<name>708</name>
<sym>Dot</sym>
</trkpt>
<trkpt lat="47.433122" lon="15.771142">
<ele>895.5</ele>
<desc>Speed 92.8 km/h Distance 11.53 km</desc>
<time>2012-09-18T15:32:54.95</time>
<name>709</name>
<sym>Dot</sym>
</trkpt>
<trkpt lat="47.433215" lon="15.770828">
<ele>895.5</ele>
<desc>Speed 93.1 km/h Distance 11.56 km</desc>
<time>2012-09-18T15:32:55.93</time>
<name>710</name>
<sym>Dot</sym>
</trkpt>
<trkpt lat="47.433303" lon="15.770515">
<ele>896.5</ele>
<desc>Speed 93.0 km/h Distance 11.58 km</desc>
<time>2012-09-18T15:32:56.94</time>
<name>711</name>
<sym>Dot</sym>
</trkpt>
<trkpt lat="47.433388" lon="15.770208">
<ele>896.5</ele>
<desc>Speed 89.7 km/h Distance 11.61 km</desc>
<time>2012-09-18T15:32:57.93</time>
<name>712</name>
<sym>Dot</sym>
</trkpt>
<trkpt lat="47.433493" lon="15.769930">
<ele>897.0</ele>
<desc>Speed 86.9 km/h Distance 11.63 km</desc>
<time>2012-09-18T15:32:58.93</time>
<name>713</name>
<sym>Dot</sym>
</trkpt>
<trkpt lat="47.433617" lon="15.769658">
<ele>897.0</ele>
<desc>Speed 88.9 km/h Distance 11.65 km</desc>
<time>2012-09-18T15:32:59.92</time>
<name>714</name>
<sym>Dot</sym>
</trkpt>
<trkpt lat="47.433735" lon="15.769393">
<ele>897.5</ele>
<desc>Speed 85.8 km/h Distance 11.68 km</desc>
<time>2012-09-18T15:33:00.91</time>
<name>715</name>
<sym>Dot</sym>
</trkpt>
<trkpt lat="47.433850" lon="15.769128">
<ele>898.0</ele>
<desc>Speed 86.8 km/h Distance 11.70 km</desc>
<time>2012-09-18T15:33:01.91</time>
<name>716</name>
<sym>Dot</sym>
</trkpt>
<trkpt lat="47.433940" lon="15.768848">
<ele>899.0</ele>
<desc>Speed 85.0 km/h Distance 11.73 km</desc>
<time>2012-09-18T15:33:02.90</time>
<name>717</name>
<sym>Dot</sym>
</trkpt>
<trkpt lat="47.433998" lon="15.768555">
<ele>900.5</ele>
<desc>Speed 83.6 km/h Distance 11.75 km</desc>
<time>2012-09-18T15:33:03.90</time>
<name>718</name>
<sym>Dot</sym>
</trkpt>
<trkpt lat="47.434023" lon="15.768247">
<ele>902.0</ele>
<desc>Speed 85.9 km/h Distance 11.77 km</desc>
<time>2012-09-18T15:33:04.90</time>
<name>719</name>
<sym>Dot</sym>
</trkpt>
<trkpt lat="47.434032" lon="15.767912">
<ele>903.0</ele>
<desc>Speed 90.6 km/h Distance 11.80 km</desc>
<time>2012-09-18T15:33:05.89</time>
<name>720</name>
<sym>Dot</sym>
</trkpt>
<trkpt lat="47.434037" lon="15.767577">
<ele>903.5</ele>
<desc>Speed 90.3 km/h Distance 11.82 km</desc>
<time>2012-09-18T15:33:06.88</time>
<name>721</name>
<sym>Dot</sym>
</trkpt>
<trkpt lat="47.434102" lon="15.766510">
<ele>914.0</ele>
<desc>Speed 69.1 km/h Distance 11.90 km</desc>
<time>2012-09-18T15:33:11.41</time>
<name>722</name>
<sym>Dot</sym>
</trkpt>
<trkpt lat="47.434162" lon="15.766263">
<ele>916.5</ele>
<desc>Speed 71.3 km/h Distance 11.92 km</desc>
<time>2012-09-18T15:33:12.41</time>
<name>723</name>
<sym>Dot</sym>
</trkpt>
<trkpt lat="47.434253" lon="15.766030">
<ele>917.5</ele>
<desc>Speed 73.3 km/h Distance 11.94 km</desc>
<time>2012-09-18T15:33:13.41</time>
<name>724</name>
<sym>Dot</sym>
</trkpt>
<trkpt lat="47.434338" lon="15.765785">
<ele>918.0</ele>
<desc>Speed 74.1 km/h Distance 11.96 km</desc>
<time>2012-09-18T15:33:14.41</time>
<name>725</name>
<sym>Dot</sym>
</trkpt>
<trkpt lat="47.434420" lon="15.765550">
<ele>919.0</ele>
<desc>Speed 73.3 km/h Distance 11.98 km</desc>
<time>2012-09-18T15:33:15.41</time>
<name>726</name>
<sym>Dot</sym>
</trkpt>
<trkpt lat="47.434485" lon="15.765307">
<ele>920.0</ele>
<desc>Speed 72.2 km/h Distance 12.00 km</desc>
<time>2012-09-18T15:33:16.40</time>
<name>727</name>
<sym>Dot</sym>
</trkpt>
<trkpt lat="47.434558" lon="15.765067">
<ele>921.0</ele>
<desc>Speed 72.4 km/h Distance 12.02 km</desc>
<time>2012-09-18T15:33:17.38</time>
<name>728</name>
<sym>Dot</sym>
</trkpt>
<trkpt lat="47.434625" lon="15.764818">
<ele>924.5</ele>
<desc>Speed 73.1 km/h Distance 12.04 km</desc>
<time>2012-09-18T15:33:18.39</time>
<name>729</name>
<sym>Dot</sym>
</trkpt>
<trkpt lat="47.434688" lon="15.764558">
<ele>926.0</ele>
<desc>Speed 76.3 km/h Distance 12.06 km</desc>
<time>2012-09-18T15:33:19.37</time>
<name>730</name>
<sym>Dot</sym>
</trkpt>
<trkpt lat="47.434755" lon="15.764290">
<ele>927.0</ele>
<desc>Speed 78.9 km/h Distance 12.09 km</desc>
<time>2012-09-18T15:33:20.37</time>
<name>731</name>
<sym>Dot</sym>
</trkpt>
<trkpt lat="47.434815" lon="15.764033">
<ele>927.0</ele>
<desc>Speed 73.0 km/h Distance 12.11 km</desc>
<time>2012-09-18T15:33:21.37</time>
<name>732</name>
<sym>Dot</sym>
</trkpt>
<trkpt lat="47.434868" lon="15.763780">
<ele>927.5</ele>
<desc>Speed 72.3 km/h Distance 12.13 km</desc>
<time>2012-09-18T15:33:22.37</time>
<name>733</name>
<sym>Dot</sym>
</trkpt>
<trkpt lat="47.434962" lon="15.763190">
<ele>929.5</ele>
<desc>Speed 83.0 km/h Distance 12.17 km</desc>
<time>2012-09-18T15:33:24.35</time>
<name>734</name>
<sym>Dot</sym>
</trkpt>
<trkpt lat="47.435020" lon="15.762902">
<ele>929.5</ele>
<desc>Speed 81.6 km/h Distance 12.19 km</desc>
<time>2012-09-18T15:33:25.34</time>
<name>735</name>
<sym>Dot</sym>
</trkpt>
<trkpt lat="47.435075" lon="15.762623">
<ele>932.0</ele>
<desc>Speed 78.0 km/h Distance 12.22 km</desc>
<time>2012-09-18T15:33:26.34</time>
<name>736</name>
<sym>Dot</sym>
</trkpt>
<trkpt lat="47.435162" lon="15.761685">
<ele>946.0</ele>
<desc>Speed 29.6 km/h Distance 12.29 km</desc>
<time>2012-09-18T15:33:32.40</time>
<name>737</name>
<sym>Dot</sym>
</trkpt>
<trkpt lat="47.435160" lon="15.761575">
<ele>948.5</ele>
<desc>Speed 30.7 km/h Distance 12.30 km</desc>
<time>2012-09-18T15:33:33.41</time>
<name>738</name>
<sym>Dot</sym>
</trkpt>
<trkpt lat="47.435158" lon="15.761452">
<ele>951.5</ele>
<desc>Speed 33.7 km/h Distance 12.31 km</desc>
<time>2012-09-18T15:33:34.40</time>
<name>739</name>
<sym>Dot</sym>
</trkpt>
<trkpt lat="47.435253" lon="15.760328">
<ele>959.5</ele>
<desc>Speed 73.2 km/h Distance 12.39 km</desc>
<time>2012-09-18T15:33:39.42</time>
<name>740</name>
<sym>Dot</sym>
</trkpt>
<trkpt lat="47.435313" lon="15.760050">
<ele>961.0</ele>
<desc>Speed 79.7 km/h Distance 12.41 km</desc>
<time>2012-09-18T15:33:40.41</time>
<name>741</name>
<sym>Dot</sym>
</trkpt>
<trkpt lat="47.435403" lon="15.759767">
<ele>962.0</ele>
<desc>Speed 84.6 km/h Distance 12.44 km</desc>
<time>2012-09-18T15:33:41.41</time>
<name>742</name>
<sym>Dot</sym>
</trkpt>
<trkpt lat="47.435512" lon="15.759477">
<ele>964.0</ele>
<desc>Speed 89.5 km/h Distance 12.46 km</desc>
<time>2012-09-18T15:33:42.40</time>
<name>743</name>
<sym>Dot</sym>
</trkpt>
<trkpt lat="47.435653" lon="15.759222">
<ele>966.5</ele>
<desc>Speed 88.6 km/h Distance 12.49 km</desc>
<time>2012-09-18T15:33:43.40</time>
<name>744</name>
<sym>Dot</sym>
</trkpt>
<trkpt lat="47.435800" lon="15.758948">
<ele>968.5</ele>
<desc>Speed 93.0 km/h Distance 12.51 km</desc>
<time>2012-09-18T15:33:44.40</time>
<name>745</name>
<sym>Dot</sym>
</trkpt>
<trkpt lat="47.435957" lon="15.758682">
<ele>970.0</ele>
<desc>Speed 95.3 km/h Distance 12.54 km</desc>
<time>2012-09-18T15:33:45.40</time>
<name>746</name>
<sym>Dot</sym>
</trkpt>
<trkpt lat="47.436103" lon="15.758415">
<ele>972.5</ele>
<desc>Speed 92.6 km/h Distance 12.56 km</desc>
<time>2012-09-18T15:33:46.39</time>
<name>747</name>
<sym>Dot</sym>
</trkpt>
<trkpt lat="47.436228" lon="15.758147">
<ele>976.5</ele>
<desc>Speed 88.1 km/h Distance 12.59 km</desc>
<time>2012-09-18T15:33:47.39</time>
<name>748</name>
<sym>Dot</sym>
</trkpt>
<trkpt lat="47.436430" lon="15.757668">
<ele>982.5</ele>
<desc>Speed 75.7 km/h Distance 12.63 km</desc>
<time>2012-09-18T15:33:49.37</time>
<name>749</name>
<sym>Dot</sym>
</trkpt>
<trkpt lat="47.436570" lon="15.757243">
<ele>989.0</ele>
<desc>Speed 64.6 km/h Distance 12.67 km</desc>
<time>2012-09-18T15:33:51.37</time>
<name>750</name>
<sym>Dot</sym>
</trkpt>
<trkpt lat="47.436652" lon="15.757027">
<ele>991.0</ele>
<desc>Speed 66.5 km/h Distance 12.69 km</desc>
<time>2012-09-18T15:33:52.37</time>
<name>751</name>
<sym>Dot</sym>
</trkpt>
<trkpt lat="47.436770" lon="15.756838">
<ele>991.0</ele>
<desc>Speed 68.2 km/h Distance 12.71 km</desc>
<time>2012-09-18T15:33:53.36</time>
<name>752</name>
<sym>Dot</sym>
</trkpt>
<trkpt lat="47.436907" lon="15.756678">
<ele>992.5</ele>
<desc>Speed 68.1 km/h Distance 12.72 km</desc>
<time>2012-09-18T15:33:54.36</time>
<name>753</name>
<sym>Dot</sym>
</trkpt>
<trkpt lat="47.437025" lon="15.756505">
<ele>993.0</ele>
<desc>Speed 65.7 km/h Distance 12.74 km</desc>
<time>2012-09-18T15:33:55.36</time>
<name>754</name>
<sym>Dot</sym>
</trkpt>
<trkpt lat="47.437157" lon="15.756345">
<ele>993.5</ele>
<desc>Speed 67.8 km/h Distance 12.76 km</desc>
<time>2012-09-18T15:33:56.36</time>
<name>755</name>
<sym>Dot</sym>
</trkpt>
<trkpt lat="47.437310" lon="15.756225">
<ele>994.0</ele>
<desc>Speed 70.0 km/h Distance 12.78 km</desc>
<time>2012-09-18T15:33:57.34</time>
<name>756</name>
<sym>Dot</sym>
</trkpt>
<trkpt lat="47.437460" lon="15.756110">
<ele>995.0</ele>
<desc>Speed 68.0 km/h Distance 12.80 km</desc>
<time>2012-09-18T15:33:58.35</time>
<name>757</name>
<sym>Dot</sym>
</trkpt>
<trkpt lat="47.437843" lon="15.755978">
<ele>997.0</ele>
<desc>Speed 76.4 km/h Distance 12.84 km</desc>
<time>2012-09-18T15:34:00.35</time>
<name>758</name>
<sym>Dot</sym>
</trkpt>
<trkpt lat="47.438032" lon="15.755910">
<ele>998.0</ele>
<desc>Speed 77.9 km/h Distance 12.87 km</desc>
<time>2012-09-18T15:34:01.34</time>
<name>759</name>
<sym>Dot</sym>
</trkpt>
<trkpt lat="47.438232" lon="15.755858">
<ele>1000.5</ele>
<desc>Speed 80.2 km/h Distance 12.89 km</desc>
<time>2012-09-18T15:34:02.33</time>
<name>760</name>
<sym>Dot</sym>
</trkpt>
<trkpt lat="47.438438" lon="15.755823">
<ele>1004.5</ele>
<desc>Speed 81.8 km/h Distance 12.91 km</desc>
<time>2012-09-18T15:34:03.33</time>
<name>761</name>
<sym>Dot</sym>
</trkpt>
<trkpt lat="47.438883" lon="15.755815">
<ele>1009.0</ele>
<desc>Speed 85.3 km/h Distance 12.96 km</desc>
<time>2012-09-18T15:34:05.32</time>
<name>762</name>
<sym>Dot</sym>
</trkpt>
<trkpt lat="47.439087" lon="15.755797">
<ele>1011.0</ele>
<desc>Speed 83.3 km/h Distance 12.98 km</desc>
<time>2012-09-18T15:34:06.32</time>
<name>763</name>
<sym>Dot</sym>
</trkpt>
<trkpt lat="47.439303" lon="15.755760">
<ele>1011.5</ele>
<desc>Speed 86.0 km/h Distance 13.01 km</desc>
<time>2012-09-18T15:34:07.32</time>
<name>764</name>
<sym>Dot</sym>
</trkpt>
<trkpt lat="47.439662" lon="15.755592">
<ele>1018.5</ele>
<desc>Speed 76.0 km/h Distance 13.05 km</desc>
<time>2012-09-18T15:34:09.31</time>
<name>765</name>
<sym>Dot</sym>
</trkpt>
<trkpt lat="47.439828" lon="15.755490">
<ele>1023.5</ele>
<desc>Speed 74.8 km/h Distance 13.07 km</desc>
<time>2012-09-18T15:34:10.29</time>
<name>766</name>
<sym>Dot</sym>
</trkpt>
<trkpt lat="47.439988" lon="15.755360">
<ele>1026.0</ele>
<desc>Speed 75.7 km/h Distance 13.09 km</desc>
<time>2012-09-18T15:34:11.29</time>
<name>767</name>
<sym>Dot</sym>
</trkpt>
<trkpt lat="47.440353" lon="15.754995">
<ele>1028.0</ele>
<desc>Speed 89.9 km/h Distance 13.14 km</desc>
<time>2012-09-18T15:34:13.28</time>
<name>768</name>
<sym>Dot</sym>
</trkpt>
<trkpt lat="47.440552" lon="15.754805">
<ele>1029.5</ele>
<desc>Speed 95.5 km/h Distance 13.17 km</desc>
<time>2012-09-18T15:34:14.27</time>
<name>769</name>
<sym>Dot</sym>
</trkpt>
<trkpt lat="47.440758" lon="15.754623">
<ele>1031.5</ele>
<desc>Speed 97.0 km/h Distance 13.19 km</desc>
<time>2012-09-18T15:34:15.27</time>
<name>770</name>
<sym>Dot</sym>
</trkpt>
<trkpt lat="47.440968" lon="15.754435">
<ele>1034.0</ele>
<desc>Speed 99.1 km/h Distance 13.22 km</desc>
<time>2012-09-18T15:34:16.26</time>
<name>771</name>
<sym>Dot</sym>
</trkpt>
<trkpt lat="47.441183" lon="15.754232">
<ele>1034.5</ele>
<desc>Speed 103 km/h Distance 13.25 km</desc>
<time>2012-09-18T15:34:17.27</time>
<name>772</name>
<sym>Dot</sym>
</trkpt>
<trkpt lat="47.441400" lon="15.754003">
<ele>1037.0</ele>
<desc>Speed 107 km/h Distance 13.28 km</desc>
<time>2012-09-18T15:34:18.26</time>
<name>773</name>
<sym>Dot</sym>
</trkpt>
<trkpt lat="47.441618" lon="15.753768">
<ele>1039.5</ele>
<desc>Speed 108 km/h Distance 13.31 km</desc>
<time>2012-09-18T15:34:19.25</time>
<name>774</name>
<sym>Dot</sym>
</trkpt>
<trkpt lat="47.441832" lon="15.753525">
<ele>1042.0</ele>
<desc>Speed 108 km/h Distance 13.34 km</desc>
<time>2012-09-18T15:34:20.25</time>
<name>775</name>
<sym>Dot</sym>
</trkpt>
<trkpt lat="47.442042" lon="15.753278">
<ele>1041.5</ele>
<desc>Speed 107 km/h Distance 13.37 km</desc>
<time>2012-09-18T15:34:21.24</time>
<name>776</name>
<sym>Dot</sym>
</trkpt>
<trkpt lat="47.442243" lon="15.753045">
<ele>1041.5</ele>
<desc>Speed 102 km/h Distance 13.40 km</desc>
<time>2012-09-18T15:34:22.24</time>
<name>777</name>
<sym>Dot</sym>
</trkpt>
<trkpt lat="47.442742" lon="15.752413">
<ele>1046.0</ele>
<desc>Speed 83.1 km/h Distance 13.47 km</desc>
<time>2012-09-18T15:34:25.41</time>
<name>778</name>
<sym>Dot</sym>
</trkpt>
<trkpt lat="47.442907" lon="15.752235">
<ele>1047.0</ele>
<desc>Speed 81.2 km/h Distance 13.49 km</desc>
<time>2012-09-18T15:34:26.41</time>
<name>779</name>
<sym>Dot</sym>
</trkpt>
<trkpt lat="47.443082" lon="15.752070">
<ele>1048.0</ele>
<desc>Speed 83.3 km/h Distance 13.51 km</desc>
<time>2012-09-18T15:34:27.40</time>
<name>780</name>
<sym>Dot</sym>
</trkpt>
<trkpt lat="47.443492" lon="15.751835">
<ele>1050.0</ele>
<desc>Speed 85.0 km/h Distance 13.56 km</desc>
<time>2012-09-18T15:34:29.40</time>
<name>781</name>
<sym>Dot</sym>
</trkpt>
<trkpt lat="47.443712" lon="15.751755">
<ele>1051.5</ele>
<desc>Speed 89.5 km/h Distance 13.59 km</desc>
<time>2012-09-18T15:34:30.41</time>
<name>782</name>
<sym>Dot</sym>
</trkpt>
<trkpt lat="47.443947" lon="15.751705">
<ele>1053.0</ele>
<desc>Speed 93.4 km/h Distance 13.62 km</desc>
<time>2012-09-18T15:34:31.40</time>
<name>783</name>
<sym>Dot</sym>
</trkpt>
<trkpt lat="47.444178" lon="15.751663">
<ele>1053.5</ele>
<desc>Speed 93.5 km/h Distance 13.64 km</desc>
<time>2012-09-18T15:34:32.39</time>
<name>784</name>
<sym>Dot</sym>
</trkpt>
<trkpt lat="47.444412" lon="15.751593">
<ele>1054.5</ele>
<desc>Speed 95.9 km/h Distance 13.67 km</desc>
<time>2012-09-18T15:34:33.37</time>
<name>785</name>
<sym>Dot</sym>
</trkpt>
<trkpt lat="47.444658" lon="15.751538">
<ele>1054.0</ele>
<desc>Speed 100 km/h Distance 13.70 km</desc>
<time>2012-09-18T15:34:34.37</time>
<name>786</name>
<sym>Dot</sym>
</trkpt>
<trkpt lat="47.444910" lon="15.751472">
<ele>1053.0</ele>
<desc>Speed 102 km/h Distance 13.72 km</desc>
<time>2012-09-18T15:34:35.36</time>
<name>787</name>
<sym>Dot</sym>
</trkpt>
<trkpt lat="47.445162" lon="15.751402">
<ele>1052.0</ele>
<desc>Speed 103 km/h Distance 13.75 km</desc>
<time>2012-09-18T15:34:36.36</time>
<name>788</name>
<sym>Dot</sym>
</trkpt>
<trkpt lat="47.445410" lon="15.751333">
<ele>1051.5</ele>
<desc>Speed 101 km/h Distance 13.78 km</desc>
<time>2012-09-18T15:34:37.36</time>
<name>789</name>
<sym>Dot</sym>
</trkpt>
<trkpt lat="47.445655" lon="15.751270">
<ele>1051.0</ele>
<desc>Speed 99.9 km/h Distance 13.81 km</desc>
<time>2012-09-18T15:34:38.35</time>
<name>790</name>
<sym>Dot</sym>
</trkpt>
<trkpt lat="47.445895" lon="15.751215">
<ele>1050.5</ele>
<desc>Speed 97.9 km/h Distance 13.84 km</desc>
<time>2012-09-18T15:34:39.35</time>
<name>791</name>
<sym>Dot</sym>
</trkpt>
<trkpt lat="47.446132" lon="15.751170">
<ele>1050.5</ele>
<desc>Speed 96.2 km/h Distance 13.86 km</desc>
<time>2012-09-18T15:34:40.35</time>
<name>792</name>
<sym>Dot</sym>
</trkpt>
<trkpt lat="47.446368" lon="15.751138">
<ele>1052.0</ele>
<desc>Speed 94.8 km/h Distance 13.89 km</desc>
<time>2012-09-18T15:34:41.33</time>
<name>793</name>
<sym>Dot</sym>
</trkpt>
<trkpt lat="47.446608" lon="15.751118">
<ele>1054.5</ele>
<desc>Speed 95.6 km/h Distance 13.92 km</desc>
<time>2012-09-18T15:34:42.34</time>
<name>794</name>
<sym>Dot</sym>
</trkpt>
<trkpt lat="47.446853" lon="15.751112">
<ele>1056.0</ele>
<desc>Speed 97.6 km/h Distance 13.94 km</desc>
<time>2012-09-18T15:34:43.33</time>
<name>795</name>
<sym>Dot</sym>
</trkpt>
<trkpt lat="47.447103" lon="15.751115">
<ele>1056.5</ele>
<desc>Speed 101 km/h Distance 13.97 km</desc>
<time>2012-09-18T15:34:44.34</time>
<name>796</name>
<sym>Dot</sym>
</trkpt>
<trkpt lat="47.447357" lon="15.751120">
<ele>1056.5</ele>
<desc>Speed 102 km/h Distance 14.00 km</desc>
<time>2012-09-18T15:34:45.33</time>
<name>797</name>
<sym>Dot</sym>
</trkpt>
<trkpt lat="47.447622" lon="15.751133">
<ele>1057.0</ele>
<desc>Speed 106 km/h Distance 14.03 km</desc>
<time>2012-09-18T15:34:46.32</time>
<name>798</name>
<sym>Dot</sym>
</trkpt>
<trkpt lat="47.447883" lon="15.751143">
<ele>1058.5</ele>
<desc>Speed 106 km/h Distance 14.06 km</desc>
<time>2012-09-18T15:34:47.31</time>
<name>799</name>
<sym>Dot</sym>
</trkpt>
<trkpt lat="47.448145" lon="15.751152">
<ele>1059.0</ele>
<desc>Speed 105 km/h Distance 14.09 km</desc>
<time>2012-09-18T15:34:48.30</time>
<name>800</name>
<sym>Dot</sym>
</trkpt>
<trkpt lat="47.448405" lon="15.751158">
<ele>1059.0</ele>
<desc>Speed 104 km/h Distance 14.12 km</desc>
<time>2012-09-18T15:34:49.30</time>
<name>801</name>
<sym>Dot</sym>
</trkpt>
<trkpt lat="47.448660" lon="15.751163">
<ele>1059.0</ele>
<desc>Speed 103 km/h Distance 14.14 km</desc>
<time>2012-09-18T15:34:50.30</time>
<name>802</name>
<sym>Dot</sym>
</trkpt>
<trkpt lat="47.448915" lon="15.751177">
<ele>1059.0</ele>
<desc>Speed 103 km/h Distance 14.17 km</desc>
<time>2012-09-18T15:34:51.29</time>
<name>803</name>
<sym>Dot</sym>
</trkpt>
<trkpt lat="47.449172" lon="15.751188">
<ele>1059.0</ele>
<desc>Speed 103 km/h Distance 14.20 km</desc>
<time>2012-09-18T15:34:52.29</time>
<name>804</name>
<sym>Dot</sym>
</trkpt>
<trkpt lat="47.449438" lon="15.751232">
<ele>1059.0</ele>
<desc>Speed 109 km/h Distance 14.23 km</desc>
<time>2012-09-18T15:34:53.29</time>
<name>805</name>
<sym>Dot</sym>
</trkpt>
<trkpt lat="47.449695" lon="15.751237">
<ele>1059.0</ele>
<desc>Speed 104 km/h Distance 14.26 km</desc>
<time>2012-09-18T15:34:54.29</time>
<name>806</name>
<sym>Dot</sym>
</trkpt>
<trkpt lat="47.449960" lon="15.751237">
<ele>1057.0</ele>
<desc>Speed 106 km/h Distance 14.29 km</desc>
<time>2012-09-18T15:34:55.28</time>
<name>807</name>
<sym>Dot</sym>
</trkpt>
<trkpt lat="47.450227" lon="15.751225">
<ele>1057.0</ele>
<desc>Speed 108 km/h Distance 14.32 km</desc>
<time>2012-09-18T15:34:56.28</time>
<name>808</name>
<sym>Dot</sym>
</trkpt>
<trkpt lat="47.450493" lon="15.751202">
<ele>1057.5</ele>
<desc>Speed 108 km/h Distance 14.35 km</desc>
<time>2012-09-18T15:34:57.27</time>
<name>809</name>
<sym>Dot</sym>
</trkpt>
<trkpt lat="47.450767" lon="15.751163">
<ele>1058.5</ele>
<desc>Speed 110 km/h Distance 14.38 km</desc>
<time>2012-09-18T15:34:58.27</time>
<name>810</name>
<sym>Dot</sym>
</trkpt>
<trkpt lat="47.451257" lon="15.751040">
<ele>1059.0</ele>
<desc>Speed 104 km/h Distance 14.43 km</desc>
<time>2012-09-18T15:35:00.26</time>
<name>811</name>
<sym>Dot</sym>
</trkpt>
<trkpt lat="47.451513" lon="15.750972">
<ele>1059.5</ele>
<desc>Speed 105 km/h Distance 14.46 km</desc>
<time>2012-09-18T15:35:01.25</time>
<name>812</name>
<sym>Dot</sym>
</trkpt>
<trkpt lat="47.451770" lon="15.750888">
<ele>1060.0</ele>
<desc>Speed 105 km/h Distance 14.49 km</desc>
<time>2012-09-18T15:35:02.25</time>
<name>813</name>
<sym>Dot</sym>
</trkpt>
<trkpt lat="47.452028" lon="15.750797">
<ele>1060.0</ele>
<desc>Speed 107 km/h Distance 14.52 km</desc>
<time>2012-09-18T15:35:03.25</time>
<name>814</name>
<sym>Dot</sym>
</trkpt>
<trkpt lat="47.452285" lon="15.750692">
<ele>1059.5</ele>
<desc>Speed 107 km/h Distance 14.55 km</desc>
<time>2012-09-18T15:35:04.24</time>
<name>815</name>
<sym>Dot</sym>
</trkpt>
<trkpt lat="47.452538" lon="15.750588">
<ele>1058.5</ele>
<desc>Speed 105 km/h Distance 14.58 km</desc>
<time>2012-09-18T15:35:05.24</time>
<name>816</name>
<sym>Dot</sym>
</trkpt>
<trkpt lat="47.452778" lon="15.750485">
<ele>1058.5</ele>
<desc>Speed 100 km/h Distance 14.61 km</desc>
<time>2012-09-18T15:35:06.24</time>
<name>817</name>
<sym>Dot</sym>
</trkpt>
<trkpt lat="47.453012" lon="15.750383">
<ele>1058.0</ele>
<desc>Speed 97.0 km/h Distance 14.64 km</desc>
<time>2012-09-18T15:35:07.23</time>
<name>818</name>
<sym>Dot</sym>
</trkpt>
<trkpt lat="47.453235" lon="15.750270">
<ele>1057.5</ele>
<desc>Speed 95.2 km/h Distance 14.66 km</desc>
<time>2012-09-18T15:35:08.22</time>
<name>819</name>
<sym>Dot</sym>
</trkpt>
<trkpt lat="47.453463" lon="15.750130">
<ele>1058.0</ele>
<desc>Speed 99.7 km/h Distance 14.69 km</desc>
<time>2012-09-18T15:35:09.21</time>
<name>820</name>
<sym>Dot</sym>
</trkpt>
<trkpt lat="47.453688" lon="15.749973">
<ele>1056.5</ele>
<desc>Speed 101 km/h Distance 14.72 km</desc>
<time>2012-09-18T15:35:10.21</time>
<name>821</name>
<sym>Dot</sym>
</trkpt>
<trkpt lat="47.453918" lon="15.749788">
<ele>1056.0</ele>
<desc>Speed 105 km/h Distance 14.75 km</desc>
<time>2012-09-18T15:35:11.21</time>
<name>822</name>
<sym>Dot</sym>
</trkpt>
<trkpt lat="47.454133" lon="15.749595">
<ele>1056.0</ele>
<desc>Speed 101 km/h Distance 14.77 km</desc>
<time>2012-09-18T15:35:12.20</time>
<name>823</name>
<sym>Dot</sym>
</trkpt>
<trkpt lat="47.454342" lon="15.749397">
<ele>1054.5</ele>
<desc>Speed 99.6 km/h Distance 14.80 km</desc>
<time>2012-09-18T15:35:13.18</time>
<name>824</name>
<sym>Dot</sym>
</trkpt>
<trkpt lat="47.454545" lon="15.749202">
<ele>1053.0</ele>
<desc>Speed 97.4 km/h Distance 14.83 km</desc>
<time>2012-09-18T15:35:14.17</time>
<name>825</name>
<sym>Dot</sym>
</trkpt>
<trkpt lat="47.454755" lon="15.749018">
<ele>1051.0</ele>
<desc>Speed 98.1 km/h Distance 14.86 km</desc>
<time>2012-09-18T15:35:15.30</time>
<name>826</name>
<sym>Dot</sym>
</trkpt>
<trkpt lat="47.454975" lon="15.748852">
<ele>1049.5</ele>
<desc>Speed 98.9 km/h Distance 14.88 km</desc>
<time>2012-09-18T15:35:16.16</time>
<name>827</name>
<sym>Dot</sym>
</trkpt>
<trkpt lat="47.455200" lon="15.748700">
<ele>1047.5</ele>
<desc>Speed 99.5 km/h Distance 14.91 km</desc>
<time>2012-09-18T15:35:17.16</time>
<name>828</name>
<sym>Dot</sym>
</trkpt>
<trkpt lat="47.455433" lon="15.748565">
<ele>1045.5</ele>
<desc>Speed 100 km/h Distance 14.94 km</desc>
<time>2012-09-18T15:35:18.16</time>
<name>829</name>
<sym>Dot</sym>
</trkpt>
<trkpt lat="47.455675" lon="15.748445">
<ele>1044.0</ele>
<desc>Speed 102 km/h Distance 14.97 km</desc>
<time>2012-09-18T15:35:19.15</time>
<name>830</name>
<sym>Dot</sym>
</trkpt>
<trkpt lat="47.455927" lon="15.748358">
<ele>1042.0</ele>
<desc>Speed 103 km/h Distance 15.00 km</desc>
<time>2012-09-18T15:35:20.15</time>
<name>831</name>
<sym>Dot</sym>
</trkpt>
<trkpt lat="47.456178" lon="15.748302">
<ele>1041.5</ele>
<desc>Speed 101 km/h Distance 15.02 km</desc>
<time>2012-09-18T15:35:21.15</time>
<name>832</name>
<sym>Dot</sym>
</trkpt>
<trkpt lat="47.456430" lon="15.748250">
<ele>1039.5</ele>
<desc>Speed 101 km/h Distance 15.05 km</desc>
<time>2012-09-18T15:35:22.13</time>
<name>833</name>
<sym>Dot</sym>
</trkpt>
<trkpt lat="47.456675" lon="15.748210">
<ele>1038.0</ele>
<desc>Speed 98.7 km/h Distance 15.08 km</desc>
<time>2012-09-18T15:35:23.13</time>
<name>834</name>
<sym>Dot</sym>
</trkpt>
<trkpt lat="47.456913" lon="15.748177">
<ele>1036.0</ele>
<desc>Speed 95.8 km/h Distance 15.11 km</desc>
<time>2012-09-18T15:35:24.12</time>
<name>835</name>
<sym>Dot</sym>
</trkpt>
<trkpt lat="47.457147" lon="15.748143">
<ele>1034.0</ele>
<desc>Speed 93.5 km/h Distance 15.13 km</desc>
<time>2012-09-18T15:35:25.11</time>
<name>836</name>
<sym>Dot</sym>
</trkpt>
<trkpt lat="47.457370" lon="15.748117">
<ele>1034.0</ele>
<desc>Speed 89.2 km/h Distance 15.16 km</desc>
<time>2012-09-18T15:35:26.11</time>
<name>837</name>
<sym>Dot</sym>
</trkpt>
<trkpt lat="47.457592" lon="15.748088">
<ele>1032.5</ele>
<desc>Speed 88.6 km/h Distance 15.18 km</desc>
<time>2012-09-18T15:35:27.10</time>
<name>838</name>
<sym>Dot</sym>
</trkpt>
<trkpt lat="47.457805" lon="15.748058">
<ele>1031.0</ele>
<desc>Speed 85.7 km/h Distance 15.21 km</desc>
<time>2012-09-18T15:35:28.09</time>
<name>839</name>
<sym>Dot</sym>
</trkpt>
<trkpt lat="47.458012" lon="15.748032">
<ele>1030.0</ele>
<desc>Speed 83.3 km/h Distance 15.23 km</desc>
<time>2012-09-18T15:35:29.10</time>
<name>840</name>
<sym>Dot</sym>
</trkpt>
<trkpt lat="47.458212" lon="15.748002">
<ele>1029.0</ele>
<desc>Speed 80.6 km/h Distance 15.25 km</desc>
<time>2012-09-18T15:35:30.09</time>
<name>841</name>
<sym>Dot</sym>
</trkpt>
<trkpt lat="47.458407" lon="15.747973">
<ele>1028.0</ele>
<desc>Speed 77.9 km/h Distance 15.27 km</desc>
<time>2012-09-18T15:35:31.09</time>
<name>842</name>
<sym>Dot</sym>
</trkpt>
<trkpt lat="47.458588" lon="15.747928">
<ele>1027.5</ele>
<desc>Speed 74.2 km/h Distance 15.29 km</desc>
<time>2012-09-18T15:35:32.08</time>
<name>843</name>
<sym>Dot</sym>
</trkpt>
<trkpt lat="47.458760" lon="15.747855">
<ele>1027.5</ele>
<desc>Speed 71.2 km/h Distance 15.31 km</desc>
<time>2012-09-18T15:35:33.07</time>
<name>844</name>
<sym>Dot</sym>
</trkpt>
<trkpt lat="47.458932" lon="15.747748">
<ele>1026.0</ele>
<desc>Speed 74.8 km/h Distance 15.33 km</desc>
<time>2012-09-18T15:35:34.07</time>
<name>845</name>
<sym>Dot</sym>
</trkpt>
<trkpt lat="47.459067" lon="15.747583">
<ele>1024.5</ele>
<desc>Speed 69.7 km/h Distance 15.35 km</desc>
<time>2012-09-18T15:35:35.07</time>
<name>846</name>
<sym>Dot</sym>
</trkpt>
<trkpt lat="47.459327" lon="15.747190">
<ele>1026.0</ele>
<desc>Speed 73.4 km/h Distance 15.40 km</desc>
<time>2012-09-18T15:35:37.06</time>
<name>847</name>
<sym>Dot</sym>
</trkpt>
<trkpt lat="47.459432" lon="15.746968">
<ele>1025.5</ele>
<desc>Speed 73.6 km/h Distance 15.42 km</desc>
<time>2012-09-18T15:35:38.06</time>
<name>848</name>
<sym>Dot</sym>
</trkpt>
<trkpt lat="47.459522" lon="15.746735">
<ele>1025.0</ele>
<desc>Speed 72.5 km/h Distance 15.44 km</desc>
<time>2012-09-18T15:35:39.06</time>
<name>849</name>
<sym>Dot</sym>
</trkpt>
<trkpt lat="47.459568" lon="15.746460">
<ele>1025.5</ele>
<desc>Speed 77.1 km/h Distance 15.46 km</desc>
<time>2012-09-18T15:35:40.06</time>
<name>850</name>
<sym>Dot</sym>
</trkpt>
<trkpt lat="47.459603" lon="15.746168">
<ele>1026.0</ele>
<desc>Speed 80.0 km/h Distance 15.48 km</desc>
<time>2012-09-18T15:35:41.06</time>
<name>851</name>
<sym>Dot</sym>
</trkpt>
<trkpt lat="47.459638" lon="15.745857">
<ele>1026.5</ele>
<desc>Speed 85.5 km/h Distance 15.50 km</desc>
<time>2012-09-18T15:35:42.06</time>
<name>852</name>
<sym>Dot</sym>
</trkpt>
<trkpt lat="47.459672" lon="15.745550">
<ele>1026.5</ele>
<desc>Speed 84.5 km/h Distance 15.53 km</desc>
<time>2012-09-18T15:35:43.06</time>
<name>853</name>
<sym>Dot</sym>
</trkpt>
<trkpt lat="47.459713" lon="15.745260">
<ele>1027.0</ele>
<desc>Speed 80.8 km/h Distance 15.55 km</desc>
<time>2012-09-18T15:35:44.05</time>
<name>854</name>
<sym>Dot</sym>
</trkpt>
<trkpt lat="47.459768" lon="15.744977">
<ele>1027.0</ele>
<desc>Speed 80.3 km/h Distance 15.57 km</desc>
<time>2012-09-18T15:35:45.04</time>
<name>855</name>
<sym>Dot</sym>
</trkpt>
<trkpt lat="47.459853" lon="15.744710">
<ele>1027.0</ele>
<desc>Speed 79.6 km/h Distance 15.59 km</desc>
<time>2012-09-18T15:35:46.04</time>
<name>856</name>
<sym>Dot</sym>
</trkpt>
<trkpt lat="47.459968" lon="15.744472">
<ele>1025.0</ele>
<desc>Speed 79.6 km/h Distance 15.62 km</desc>
<time>2012-09-18T15:35:47.03</time>
<name>857</name>
<sym>Dot</sym>
</trkpt>
<trkpt lat="47.460092" lon="15.744242">
<ele>1024.5</ele>
<desc>Speed 79.5 km/h Distance 15.64 km</desc>
<time>2012-09-18T15:35:48.02</time>
<name>858</name>
<sym>Dot</sym>
</trkpt>
<trkpt lat="47.460233" lon="15.744013">
<ele>1025.0</ele>
<desc>Speed 83.8 km/h Distance 15.66 km</desc>
<time>2012-09-18T15:35:49.02</time>
<name>859</name>
<sym>Dot</sym>
</trkpt>
<trkpt lat="47.460378" lon="15.743768">
<ele>1025.0</ele>
<desc>Speed 88.1 km/h Distance 15.69 km</desc>
<time>2012-09-18T15:35:50.02</time>
<name>860</name>
<sym>Dot</sym>
</trkpt>
<trkpt lat="47.460517" lon="15.743518">
<ele>1025.0</ele>
<desc>Speed 87.7 km/h Distance 15.71 km</desc>
<time>2012-09-18T15:35:51.02</time>
<name>861</name>
<sym>Dot</sym>
</trkpt>
<trkpt lat="47.460645" lon="15.743245">
<ele>1024.0</ele>
<desc>Speed 89.8 km/h Distance 15.74 km</desc>
<time>2012-09-18T15:35:52.01</time>
<name>862</name>
<sym>Dot</sym>
</trkpt>
<trkpt lat="47.460748" lon="15.742928">
<ele>1023.5</ele>
<desc>Speed 95.7 km/h Distance 15.76 km</desc>
<time>2012-09-18T15:35:53.00</time>
<name>863</name>
<sym>Dot</sym>
</trkpt>
<trkpt lat="47.460855" lon="15.742597">
<ele>1023.0</ele>
<desc>Speed 99.9 km/h Distance 15.79 km</desc>
<time>2012-09-18T15:35:53.99</time>
<name>864</name>
<sym>Dot</sym>
</trkpt>
<trkpt lat="47.460960" lon="15.742277">
<ele>1023.5</ele>
<desc>Speed 96.4 km/h Distance 15.82 km</desc>
<time>2012-09-18T15:35:54.99</time>
<name>865</name>
<sym>Dot</sym>
</trkpt>
<trkpt lat="47.461055" lon="15.741972">
<ele>1024.0</ele>
<desc>Speed 91.0 km/h Distance 15.84 km</desc>
<time>2012-09-18T15:35:55.99</time>
<name>866</name>
<sym>Dot</sym>
</trkpt>
<trkpt lat="47.461142" lon="15.741682">
<ele>1024.5</ele>
<desc>Speed 86.2 km/h Distance 15.87 km</desc>
<time>2012-09-18T15:35:56.99</time>
<name>867</name>
<sym>Dot</sym>
</trkpt>
<trkpt lat="47.461225" lon="15.741408">
<ele>1025.0</ele>
<desc>Speed 81.5 km/h Distance 15.89 km</desc>
<time>2012-09-18T15:35:57.98</time>
<name>868</name>
<sym>Dot</sym>
</trkpt>
<trkpt lat="47.461300" lon="15.741142">
<ele>1025.5</ele>
<desc>Speed 78.4 km/h Distance 15.91 km</desc>
<time>2012-09-18T15:35:58.96</time>
<name>869</name>
<sym>Dot</sym>
</trkpt>
<trkpt lat="47.461370" lon="15.740870">
<ele>1026.5</ele>
<desc>Speed 78.8 km/h Distance 15.93 km</desc>
<time>2012-09-18T15:35:59.95</time>
<name>870</name>
<sym>Dot</sym>
</trkpt>
<trkpt lat="47.461437" lon="15.740598">
<ele>1027.5</ele>
<desc>Speed 78.8 km/h Distance 15.95 km</desc>
<time>2012-09-18T15:36:00.95</time>
<name>871</name>
<sym>Dot</sym>
</trkpt>
<trkpt lat="47.461505" lon="15.740327">
<ele>1028.5</ele>
<desc>Speed 78.6 km/h Distance 15.97 km</desc>
<time>2012-09-18T15:36:01.96</time>
<name>872</name>
<sym>Dot</sym>
</trkpt>
<trkpt lat="47.461577" lon="15.740063">
<ele>1029.5</ele>
<desc>Speed 76.7 km/h Distance 16.00 km</desc>
<time>2012-09-18T15:36:02.94</time>
<name>873</name>
<sym>Dot</sym>
</trkpt>
<trkpt lat="47.461648" lon="15.739820">
<ele>1030.0</ele>
<desc>Speed 72.4 km/h Distance 16.02 km</desc>
<time>2012-09-18T15:36:03.93</time>
<name>874</name>
<sym>Dot</sym>
</trkpt>
<trkpt lat="47.461718" lon="15.739590">
<ele>1031.0</ele>
<desc>Speed 68.7 km/h Distance 16.04 km</desc>
<time>2012-09-18T15:36:04.93</time>
<name>875</name>
<sym>Dot</sym>
</trkpt>
<trkpt lat="47.461787" lon="15.739365">
<ele>1031.5</ele>
<desc>Speed 66.7 km/h Distance 16.05 km</desc>
<time>2012-09-18T15:36:05.92</time>
<name>876</name>
<sym>Dot</sym>
</trkpt>
<trkpt lat="47.461855" lon="15.739143">
<ele>1032.5</ele>
<desc>Speed 66.2 km/h Distance 16.07 km</desc>
<time>2012-09-18T15:36:06.92</time>
<name>877</name>
<sym>Dot</sym>
</trkpt>
<trkpt lat="47.461925" lon="15.738928">
<ele>1033.0</ele>
<desc>Speed 64.8 km/h Distance 16.09 km</desc>
<time>2012-09-18T15:36:07.91</time>
<name>878</name>
<sym>Dot</sym>
</trkpt>
<trkpt lat="47.461998" lon="15.738720">
<ele>1034.0</ele>
<desc>Speed 63.5 km/h Distance 16.11 km</desc>
<time>2012-09-18T15:36:08.90</time>
<name>879</name>
<sym>Dot</sym>
</trkpt>
<trkpt lat="47.462082" lon="15.738527">
<ele>1034.5</ele>
<desc>Speed 62.4 km/h Distance 16.13 km</desc>
<time>2012-09-18T15:36:09.90</time>
<name>880</name>
<sym>Dot</sym>
</trkpt>
<trkpt lat="47.462177" lon="15.738355">
<ele>1035.5</ele>
<desc>Speed 60.4 km/h Distance 16.14 km</desc>
<time>2012-09-18T15:36:10.91</time>
<name>881</name>
<sym>Dot</sym>
</trkpt>
<trkpt lat="47.462280" lon="15.738200">
<ele>1036.0</ele>
<desc>Speed 58.8 km/h Distance 16.16 km</desc>
<time>2012-09-18T15:36:11.90</time>
<name>882</name>
<sym>Dot</sym>
</trkpt>
<trkpt lat="47.462390" lon="15.738062">
<ele>1036.5</ele>
<desc>Speed 57.5 km/h Distance 16.17 km</desc>
<time>2012-09-18T15:36:12.91</time>
<name>883</name>
<sym>Dot</sym>
</trkpt>
<trkpt lat="47.462503" lon="15.737948">
<ele>1037.0</ele>
<desc>Speed 55.1 km/h Distance 16.19 km</desc>
<time>2012-09-18T15:36:13.90</time>
<name>884</name>
<sym>Dot</sym>
</trkpt>
<trkpt lat="47.462628" lon="15.737857">
<ele>1037.0</ele>
<desc>Speed 55.5 km/h Distance 16.20 km</desc>
<time>2012-09-18T15:36:14.90</time>
<name>885</name>
<sym>Dot</sym>
</trkpt>
<trkpt lat="47.462763" lon="15.737785">
<ele>1036.5</ele>
<desc>Speed 56.6 km/h Distance 16.22 km</desc>
<time>2012-09-18T15:36:15.89</time>
<name>886</name>
<sym>Dot</sym>
</trkpt>
<trkpt lat="47.462885" lon="15.737733">
<ele>1036.5</ele>
<desc>Speed 50.4 km/h Distance 16.23 km</desc>
<time>2012-09-18T15:36:16.90</time>
<name>887</name>
<sym>Dot</sym>
</trkpt>
<trkpt lat="47.463023" lon="15.737718">
<ele>1037.0</ele>
<desc>Speed 55.3 km/h Distance 16.25 km</desc>
<time>2012-09-18T15:36:17.89</time>
<name>888</name>
<sym>Dot</sym>
</trkpt>
<trkpt lat="47.463160" lon="15.737730">
<ele>1037.5</ele>
<desc>Speed 54.6 km/h Distance 16.27 km</desc>
<time>2012-09-18T15:36:18.88</time>
<name>889</name>
<sym>Dot</sym>
</trkpt>
<trkpt lat="47.463293" lon="15.737758">
<ele>1038.0</ele>
<desc>Speed 54.1 km/h Distance 16.28 km</desc>
<time>2012-09-18T15:36:19.88</time>
<name>890</name>
<sym>Dot</sym>
</trkpt>
<trkpt lat="47.463422" lon="15.737770">
<ele>1039.0</ele>
<desc>Speed 51.0 km/h Distance 16.29 km</desc>
<time>2012-09-18T15:36:20.87</time>
<name>891</name>
<sym>Dot</sym>
</trkpt>
<trkpt lat="47.463535" lon="15.737747">
<ele>1039.0</ele>
<desc>Speed 46.0 km/h Distance 16.31 km</desc>
<time>2012-09-18T15:36:21.86</time>
<name>892</name>
<sym>Dot</sym>
</trkpt>
<trkpt lat="47.463647" lon="15.737683">
<ele>1039.0</ele>
<desc>Speed 47.9 km/h Distance 16.32 km</desc>
<time>2012-09-18T15:36:22.85</time>
<name>893</name>
<sym>Dot</sym>
</trkpt>
<trkpt lat="47.463757" lon="15.737577">
<ele>1039.0</ele>
<desc>Speed 52.5 km/h Distance 16.34 km</desc>
<time>2012-09-18T15:36:23.86</time>
<name>894</name>
<sym>Dot</sym>
</trkpt>
<trkpt lat="47.463883" lon="15.737493">
<ele>1040.5</ele>
<desc>Speed 55.3 km/h Distance 16.35 km</desc>
<time>2012-09-18T15:36:24.85</time>
<name>895</name>
<sym>Dot</sym>
</trkpt>
<trkpt lat="47.463980" lon="15.737367">
<ele>1040.5</ele>
<desc>Speed 51.7 km/h Distance 16.37 km</desc>
<time>2012-09-18T15:36:25.86</time>
<name>896</name>
<sym>Dot</sym>
</trkpt>
<trkpt lat="47.464083" lon="15.737280">
<ele>1041.0</ele>
<desc>Speed 47.6 km/h Distance 16.38 km</desc>
<time>2012-09-18T15:36:26.83</time>
<name>897</name>
<sym>Dot</sym>
</trkpt>
<trkpt lat="47.464287" lon="15.737195">
<ele>1042.5</ele>
<desc>Speed 46.1 km/h Distance 16.40 km</desc>
<time>2012-09-18T15:36:28.83</time>
<name>898</name>
<sym>Dot</sym>
</trkpt>
<trkpt lat="47.464388" lon="15.737175">
<ele>1041.5</ele>
<desc>Speed 40.1 km/h Distance 16.41 km</desc>
<time>2012-09-18T15:36:29.82</time>
<name>899</name>
<sym>Dot</sym>
</trkpt>
<trkpt lat="47.464732" lon="15.737427">
<ele>1041.5</ele>
<desc>Speed 49.9 km/h Distance 16.46 km</desc>
<time>2012-09-18T15:36:33.40</time>
<name>900</name>
<sym>Dot</sym>
</trkpt>
<trkpt lat="47.464843" lon="15.737502">
<ele>1042.5</ele>
<desc>Speed 47.0 km/h Distance 16.47 km</desc>
<time>2012-09-18T15:36:34.40</time>
<name>901</name>
<sym>Dot</sym>
</trkpt>
<trkpt lat="47.464957" lon="15.737577">
<ele>1043.5</ele>
<desc>Speed 49.0 km/h Distance 16.48 km</desc>
<time>2012-09-18T15:36:35.39</time>
<name>902</name>
<sym>Dot</sym>
</trkpt>
<trkpt lat="47.465063" lon="15.737670">
<ele>1043.5</ele>
<desc>Speed 49.1 km/h Distance 16.50 km</desc>
<time>2012-09-18T15:36:36.38</time>
<name>903</name>
<sym>Dot</sym>
</trkpt>
<trkpt lat="47.465168" lon="15.737750">
<ele>1042.5</ele>
<desc>Speed 46.7 km/h Distance 16.51 km</desc>
<time>2012-09-18T15:36:37.38</time>
<name>904</name>
<sym>Dot</sym>
</trkpt>
<trkpt lat="47.465260" lon="15.737853">
<ele>1043.0</ele>
<desc>Speed 45.7 km/h Distance 16.52 km</desc>
<time>2012-09-18T15:36:38.37</time>
<name>905</name>
<sym>Dot</sym>
</trkpt>
<trkpt lat="47.465355" lon="15.737970">
<ele>1044.5</ele>
<desc>Speed 48.3 km/h Distance 16.54 km</desc>
<time>2012-09-18T15:36:39.37</time>
<name>906</name>
<sym>Dot</sym>
</trkpt>
<trkpt lat="47.465440" lon="15.738102">
<ele>1045.5</ele>
<desc>Speed 46.7 km/h Distance 16.55 km</desc>
<time>2012-09-18T15:36:40.37</time>
<name>907</name>
<sym>Dot</sym>
</trkpt>
<trkpt lat="47.465518" lon="15.738228">
<ele>1047.0</ele>
<desc>Speed 44.9 km/h Distance 16.56 km</desc>
<time>2012-09-18T15:36:41.36</time>
<name>908</name>
<sym>Dot</sym>
</trkpt>
<trkpt lat="47.465600" lon="15.738345">
<ele>1047.0</ele>
<desc>Speed 43.3 km/h Distance 16.58 km</desc>
<time>2012-09-18T15:36:42.35</time>
<name>909</name>
<sym>Dot</sym>
</trkpt>
<trkpt lat="47.465682" lon="15.738430">
<ele>1047.0</ele>
<desc>Speed 38.4 km/h Distance 16.59 km</desc>
<time>2012-09-18T15:36:43.34</time>
<name>910</name>
<sym>Dot</sym>
</trkpt>
<trkpt lat="47.465760" lon="15.738482">
<ele>1047.5</ele>
<desc>Speed 34.8 km/h Distance 16.60 km</desc>
<time>2012-09-18T15:36:44.34</time>
<name>911</name>
<sym>Dot</sym>
</trkpt>
<trkpt lat="47.465970" lon="15.738517">
<ele>1048.0</ele>
<desc>Speed 41.9 km/h Distance 16.62 km</desc>
<time>2012-09-18T15:36:46.33</time>
<name>912</name>
<sym>Dot</sym>
</trkpt>
<trkpt lat="47.466073" lon="15.738453">
<ele>1048.5</ele>
<desc>Speed 44.3 km/h Distance 16.63 km</desc>
<time>2012-09-18T15:36:47.33</time>
<name>913</name>
<sym>Dot</sym>
</trkpt>
<trkpt lat="47.466182" lon="15.738398">
<ele>1049.5</ele>
<desc>Speed 44.6 km/h Distance 16.65 km</desc>
<time>2012-09-18T15:36:48.32</time>
<name>914</name>
<sym>Dot</sym>
</trkpt>
<trkpt lat="47.466295" lon="15.738337">
<ele>1049.5</ele>
<desc>Speed 47.8 km/h Distance 16.66 km</desc>
<time>2012-09-18T15:36:49.32</time>
<name>915</name>
<sym>Dot</sym>
</trkpt>
<trkpt lat="47.466420" lon="15.738265">
<ele>1050.5</ele>
<desc>Speed 52.3 km/h Distance 16.67 km</desc>
<time>2012-09-18T15:36:50.32</time>
<name>916</name>
<sym>Dot</sym>
</trkpt>
<trkpt lat="47.466550" lon="15.738208">
<ele>1051.0</ele>
<desc>Speed 53.5 km/h Distance 16.69 km</desc>
<time>2012-09-18T15:36:51.31</time>
<name>917</name>
<sym>Dot</sym>
</trkpt>
<trkpt lat="47.466685" lon="15.738168">
<ele>1051.0</ele>
<desc>Speed 55.0 km/h Distance 16.70 km</desc>
<time>2012-09-18T15:36:52.30</time>
<name>918</name>
<sym>Dot</sym>
</trkpt>
<trkpt lat="47.466838" lon="15.738137">
<ele>1053.0</ele>
<desc>Speed 57.5 km/h Distance 16.72 km</desc>
<time>2012-09-18T15:36:53.30</time>
<name>919</name>
<sym>Dot</sym>
</trkpt>
<trkpt lat="47.466983" lon="15.738102">
<ele>1054.5</ele>
<desc>Speed 55.5 km/h Distance 16.74 km</desc>
<time>2012-09-18T15:36:54.29</time>
<name>920</name>
<sym>Dot</sym>
</trkpt>
<trkpt lat="47.467117" lon="15.738050">
<ele>1055.5</ele>
<desc>Speed 53.2 km/h Distance 16.75 km</desc>
<time>2012-09-18T15:36:55.28</time>
<name>921</name>
<sym>Dot</sym>
</trkpt>
<trkpt lat="47.467240" lon="15.737972">
<ele>1056.0</ele>
<desc>Speed 52.5 km/h Distance 16.77 km</desc>
<time>2012-09-18T15:36:56.29</time>
<name>922</name>
<sym>Dot</sym>
</trkpt>
<trkpt lat="47.467357" lon="15.737880">
<ele>1057.0</ele>
<desc>Speed 51.0 km/h Distance 16.78 km</desc>
<time>2012-09-18T15:36:57.28</time>
<name>923</name>
<sym>Dot</sym>
</trkpt>
<trkpt lat="47.467470" lon="15.737800">
<ele>1057.5</ele>
<desc>Speed 48.6 km/h Distance 16.80 km</desc>
<time>2012-09-18T15:36:58.28</time>
<name>924</name>
<sym>Dot</sym>
</trkpt>
<trkpt lat="47.467590" lon="15.737732">
<ele>1057.5</ele>
<desc>Speed 51.2 km/h Distance 16.81 km</desc>
<time>2012-09-18T15:36:59.28</time>
<name>925</name>
<sym>Dot</sym>
</trkpt>
<trkpt lat="47.467723" lon="15.737677">
<ele>1058.0</ele>
<desc>Speed 54.7 km/h Distance 16.83 km</desc>
<time>2012-09-18T15:37:00.27</time>
<name>926</name>
<sym>Dot</sym>
</trkpt>
<trkpt lat="47.467860" lon="15.737630">
<ele>1058.5</ele>
<desc>Speed 54.9 km/h Distance 16.84 km</desc>
<time>2012-09-18T15:37:01.27</time>
<name>927</name>
<sym>Dot</sym>
</trkpt>
<trkpt lat="47.467995" lon="15.737582">
<ele>1058.5</ele>
<desc>Speed 54.2 km/h Distance 16.86 km</desc>
<time>2012-09-18T15:37:02.27</time>
<name>928</name>
<sym>Dot</sym>
</trkpt>
<trkpt lat="47.468125" lon="15.737528">
<ele>1059.0</ele>
<desc>Speed 52.5 km/h Distance 16.87 km</desc>
<time>2012-09-18T15:37:03.26</time>
<name>929</name>
<sym>Dot</sym>
</trkpt>
<trkpt lat="47.468248" lon="15.737482">
<ele>1059.0</ele>
<desc>Speed 49.9 km/h Distance 16.89 km</desc>
<time>2012-09-18T15:37:04.26</time>
<name>930</name>
<sym>Dot</sym>
</trkpt>
<trkpt lat="47.468365" lon="15.737438">
<ele>1059.0</ele>
<desc>Speed 47.0 km/h Distance 16.90 km</desc>
<time>2012-09-18T15:37:05.24</time>
<name>931</name>
<sym>Dot</sym>
</trkpt>
<trkpt lat="47.468475" lon="15.737407">
<ele>1059.5</ele>
<desc>Speed 44.0 km/h Distance 16.91 km</desc>
<time>2012-09-18T15:37:06.24</time>
<name>932</name>
<sym>Dot</sym>
</trkpt>
<trkpt lat="47.468575" lon="15.737373">
<ele>1060.0</ele>
<desc>Speed 40.1 km/h Distance 16.92 km</desc>
<time>2012-09-18T15:37:07.25</time>
<name>933</name>
<sym>Dot</sym>
</trkpt>
<trkpt lat="47.468665" lon="15.737320">
<ele>1060.0</ele>
<desc>Speed 38.8 km/h Distance 16.94 km</desc>
<time>2012-09-18T15:37:08.23</time>
<name>934</name>
<sym>Dot</sym>
</trkpt>
<trkpt lat="47.468747" lon="15.737235">
<ele>1060.0</ele>
<desc>Speed 39.5 km/h Distance 16.95 km</desc>
<time>2012-09-18T15:37:09.23</time>
<name>935</name>
<sym>Dot</sym>
</trkpt>
<trkpt lat="47.468793" lon="15.737117">
<ele>1061.0</ele>
<desc>Speed 37.5 km/h Distance 16.96 km</desc>
<time>2012-09-18T15:37:10.23</time>
<name>936</name>
<sym>Dot</sym>
</trkpt>
<trkpt lat="47.468817" lon="15.736980">
<ele>1061.0</ele>
<desc>Speed 38.6 km/h Distance 16.97 km</desc>
<time>2012-09-18T15:37:11.23</time>
<name>937</name>
<sym>Dot</sym>
</trkpt>
<trkpt lat="47.468808" lon="15.736842">
<ele>1061.0</ele>
<desc>Speed 39.0 km/h Distance 16.98 km</desc>
<time>2012-09-18T15:37:12.22</time>
<name>938</name>
<sym>Dot</sym>
</trkpt>
<trkpt lat="47.468767" lon="15.736692">
<ele>1061.0</ele>
<desc>Speed 44.9 km/h Distance 16.99 km</desc>
<time>2012-09-18T15:37:13.22</time>
<name>939</name>
<sym>Dot</sym>
</trkpt>
<trkpt lat="47.468707" lon="15.736550">
<ele>1061.0</ele>
<desc>Speed 46.3 km/h Distance 17.00 km</desc>
<time>2012-09-18T15:37:14.21</time>
<name>940</name>
<sym>Dot</sym>
</trkpt>
<trkpt lat="47.468643" lon="15.736425">
<ele>1062.0</ele>
<desc>Speed 42.9 km/h Distance 17.01 km</desc>
<time>2012-09-18T15:37:15.21</time>
<name>941</name>
<sym>Dot</sym>
</trkpt>
<trkpt lat="47.468582" lon="15.736318">
<ele>1062.5</ele>
<desc>Speed 38.3 km/h Distance 17.02 km</desc>
<time>2012-09-18T15:37:16.20</time>
<name>942</name>
<sym>Dot</sym>
</trkpt>
<trkpt lat="47.468527" lon="15.736227">
<ele>1063.0</ele>
<desc>Speed 34.0 km/h Distance 17.03 km</desc>
<time>2012-09-18T15:37:17.20</time>
<name>943</name>
<sym>Dot</sym>
</trkpt>
<trkpt lat="47.468478" lon="15.736142">
<ele>1063.0</ele>
<desc>Speed 30.5 km/h Distance 17.04 km</desc>
<time>2012-09-18T15:37:18.18</time>
<name>944</name>
<sym>Dot</sym>
</trkpt>
<trkpt lat="47.468442" lon="15.736053">
<ele>1063.5</ele>
<desc>Speed 28.7 km/h Distance 17.05 km</desc>
<time>2012-09-18T15:37:19.19</time>
<name>945</name>
<sym>Dot</sym>
</trkpt>
<trkpt lat="47.468425" lon="15.735938">
<ele>1065.5</ele>
<desc>Speed 32.2 km/h Distance 17.06 km</desc>
<time>2012-09-18T15:37:20.18</time>
<name>946</name>
<sym>Dot</sym>
</trkpt>
<trkpt lat="47.468433" lon="15.735807">
<ele>1065.0</ele>
<desc>Speed 36.2 km/h Distance 17.07 km</desc>
<time>2012-09-18T15:37:21.17</time>
<name>947</name>
<sym>Dot</sym>
</trkpt>
<trkpt lat="47.468460" lon="15.735677">
<ele>1065.5</ele>
<desc>Speed 37.1 km/h Distance 17.08 km</desc>
<time>2012-09-18T15:37:22.17</time>
<name>948</name>
<sym>Dot</sym>
</trkpt>
<trkpt lat="47.468505" lon="15.735533">
<ele>1065.5</ele>
<desc>Speed 43.5 km/h Distance 17.09 km</desc>
<time>2012-09-18T15:37:23.17</time>
<name>949</name>
<sym>Dot</sym>
</trkpt>
<trkpt lat="47.468560" lon="15.735393">
<ele>1065.5</ele>
<desc>Speed 44.0 km/h Distance 17.10 km</desc>
<time>2012-09-18T15:37:24.17</time>
<name>950</name>
<sym>Dot</sym>
</trkpt>
<trkpt lat="47.468795" lon="15.734810">
<ele>1064.0</ele>
<desc>Speed 63.5 km/h Distance 17.15 km</desc>
<time>2012-09-18T15:37:27.40</time>
<name>951</name>
<sym>Dot</sym>
</trkpt>
<trkpt lat="47.468863" lon="15.734612">
<ele>1063.5</ele>
<desc>Speed 61.0 km/h Distance 17.17 km</desc>
<time>2012-09-18T15:37:28.40</time>
<name>952</name>
<sym>Dot</sym>
</trkpt>
<trkpt lat="47.468915" lon="15.734410">
<ele>1062.0</ele>
<desc>Speed 58.7 km/h Distance 17.19 km</desc>
<time>2012-09-18T15:37:29.38</time>
<name>953</name>
<sym>Dot</sym>
</trkpt>
<trkpt lat="47.468947" lon="15.734207">
<ele>1061.0</ele>
<desc>Speed 57.7 km/h Distance 17.20 km</desc>
<time>2012-09-18T15:37:30.37</time>
<name>954</name>
<sym>Dot</sym>
</trkpt>
<trkpt lat="47.468965" lon="15.734007">
<ele>1060.0</ele>
<desc>Speed 55.5 km/h Distance 17.22 km</desc>
<time>2012-09-18T15:37:31.36</time>
<name>955</name>
<sym>Dot</sym>
</trkpt>
<trkpt lat="47.468967" lon="15.733810">
<ele>1059.0</ele>
<desc>Speed 53.9 km/h Distance 17.23 km</desc>
<time>2012-09-18T15:37:32.36</time>
<name>956</name>
<sym>Dot</sym>
</trkpt>
<trkpt lat="47.468940" lon="15.733628">
<ele>1057.5</ele>
<desc>Speed 50.6 km/h Distance 17.25 km</desc>
<time>2012-09-18T15:37:33.35</time>
<name>957</name>
<sym>Dot</sym>
</trkpt>
<trkpt lat="47.468880" lon="15.733472">
<ele>1059.0</ele>
<desc>Speed 49.2 km/h Distance 17.26 km</desc>
<time>2012-09-18T15:37:34.35</time>
<name>958</name>
<sym>Dot</sym>
</trkpt>
<trkpt lat="47.468797" lon="15.733325">
<ele>1059.0</ele>
<desc>Speed 53.6 km/h Distance 17.28 km</desc>
<time>2012-09-18T15:37:35.34</time>
<name>959</name>
<sym>Dot</sym>
</trkpt>
<trkpt lat="47.468678" lon="15.733195">
<ele>1060.5</ele>
<desc>Speed 59.1 km/h Distance 17.29 km</desc>
<time>2012-09-18T15:37:36.34</time>
<name>960</name>
<sym>Dot</sym>
</trkpt>
<trkpt lat="47.468563" lon="15.733070">
<ele>1060.0</ele>
<desc>Speed 57.9 km/h Distance 17.31 km</desc>
<time>2012-09-18T15:37:37.33</time>
<name>961</name>
<sym>Dot</sym>
</trkpt>
<trkpt lat="47.468438" lon="15.732955">
<ele>1060.0</ele>
<desc>Speed 59.1 km/h Distance 17.32 km</desc>
<time>2012-09-18T15:37:38.32</time>
<name>962</name>
<sym>Dot</sym>
</trkpt>
<trkpt lat="47.468308" lon="15.732862">
<ele>1060.0</ele>
<desc>Speed 58.0 km/h Distance 17.34 km</desc>
<time>2012-09-18T15:37:39.32</time>
<name>963</name>
<sym>Dot</sym>
</trkpt>
<trkpt lat="47.468167" lon="15.732798">
<ele>1059.0</ele>
<desc>Speed 59.2 km/h Distance 17.36 km</desc>
<time>2012-09-18T15:37:40.32</time>
<name>964</name>
<sym>Dot</sym>
</trkpt>
<trkpt lat="47.468033" lon="15.732743">
<ele>1059.0</ele>
<desc>Speed 55.9 km/h Distance 17.37 km</desc>
<time>2012-09-18T15:37:41.31</time>
<name>965</name>
<sym>Dot</sym>
</trkpt>
<trkpt lat="47.467907" lon="15.732697">
<ele>1058.5</ele>
<desc>Speed 52.8 km/h Distance 17.39 km</desc>
<time>2012-09-18T15:37:42.31</time>
<name>966</name>
<sym>Dot</sym>
</trkpt>
<trkpt lat="47.467787" lon="15.732652">
<ele>1058.0</ele>
<desc>Speed 49.8 km/h Distance 17.40 km</desc>
<time>2012-09-18T15:37:43.30</time>
<name>967</name>
<sym>Dot</sym>
</trkpt>
<trkpt lat="47.467552" lon="15.732527">
<ele>1058.5</ele>
<desc>Speed 12.4 km/h Distance 17.43 km</desc>
<time>2012-09-18T15:37:48.40</time>
<name>968</name>
<sym>Dot</sym>
</trkpt>
<trkpt lat="47.467525" lon="15.732503">
<ele>1058.0</ele>
<desc>Speed 13.6 km/h Distance 17.43 km</desc>
<time>2012-09-18T15:37:49.39</time>
<name>969</name>
<sym>Dot</sym>
</trkpt>
<trkpt lat="47.467493" lon="15.732468">
<ele>1058.0</ele>
<desc>Speed 17.0 km/h Distance 17.44 km</desc>
<time>2012-09-18T15:37:50.39</time>
<name>970</name>
<sym>Dot</sym>
</trkpt>
<trkpt lat="47.467463" lon="15.732432">
<ele>1058.0</ele>
<desc>Speed 15.6 km/h Distance 17.44 km</desc>
<time>2012-09-18T15:37:51.38</time>
<name>971</name>
<sym>Dot</sym>
</trkpt>
<trkpt lat="47.467435" lon="15.732383">
<ele>1058.5</ele>
<desc>Speed 18.0 km/h Distance 17.44 km</desc>
<time>2012-09-18T15:37:52.38</time>
<name>972</name>
<sym>Dot</sym>
</trkpt>
<trkpt lat="47.467410" lon="15.732315">
<ele>1058.0</ele>
<desc>Speed 20.8 km/h Distance 17.45 km</desc>
<time>2012-09-18T15:37:53.37</time>
<name>973</name>
<sym>Dot</sym>
</trkpt>
<trkpt lat="47.467390" lon="15.732235">
<ele>1058.0</ele>
<desc>Speed 23.5 km/h Distance 17.46 km</desc>
<time>2012-09-18T15:37:54.37</time>
<name>974</name>
<sym>Dot</sym>
</trkpt>
<trkpt lat="47.467382" lon="15.732145">
<ele>1057.5</ele>
<desc>Speed 24.8 km/h Distance 17.46 km</desc>
<time>2012-09-18T15:37:55.37</time>
<name>975</name>
<sym>Dot</sym>
</trkpt>
<trkpt lat="47.467382" lon="15.732035">
<ele>1057.5</ele>
<desc>Speed 29.8 km/h Distance 17.47 km</desc>
<time>2012-09-18T15:37:56.36</time>
<name>976</name>
<sym>Dot</sym>
</trkpt>
<trkpt lat="47.467393" lon="15.731910">
<ele>1057.5</ele>
<desc>Speed 34.4 km/h Distance 17.48 km</desc>
<time>2012-09-18T15:37:57.36</time>
<name>977</name>
<sym>Dot</sym>
</trkpt>
<trkpt lat="47.467412" lon="15.731782">
<ele>1057.0</ele>
<desc>Speed 35.6 km/h Distance 17.49 km</desc>
<time>2012-09-18T15:37:58.35</time>
<name>978</name>
<sym>Dot</sym>
</trkpt>
<trkpt lat="47.467433" lon="15.731657">
<ele>1057.0</ele>
<desc>Speed 35.3 km/h Distance 17.50 km</desc>
<time>2012-09-18T15:37:59.35</time>
<name>979</name>
<sym>Dot</sym>
</trkpt>
<trkpt lat="47.467458" lon="15.731527">
<ele>1056.5</ele>
<desc>Speed 36.6 km/h Distance 17.51 km</desc>
<time>2012-09-18T15:38:00.34</time>
<name>980</name>
<sym>Dot</sym>
</trkpt>
<trkpt lat="47.467487" lon="15.731397">
<ele>1056.0</ele>
<desc>Speed 37.4 km/h Distance 17.52 km</desc>
<time>2012-09-18T15:38:01.33</time>
<name>981</name>
<sym>Dot</sym>
</trkpt>
<trkpt lat="47.467573" lon="15.731068">
<ele>1053.5</ele>
<desc>Speed 46.9 km/h Distance 17.55 km</desc>
<time>2012-09-18T15:38:03.33</time>
<name>982</name>
<sym>Dot</sym>
</trkpt>
<trkpt lat="47.467618" lon="15.730913">
<ele>1053.0</ele>
<desc>Speed 45.9 km/h Distance 17.56 km</desc>
<time>2012-09-18T15:38:04.33</time>
<name>983</name>
<sym>Dot</sym>
</trkpt>
<trkpt lat="47.467665" lon="15.730760">
<ele>1052.5</ele>
<desc>Speed 45.5 km/h Distance 17.57 km</desc>
<time>2012-09-18T15:38:05.32</time>
<name>984</name>
<sym>Dot</sym>
</trkpt>
<trkpt lat="47.467720" lon="15.730615">
<ele>1052.0</ele>
<desc>Speed 45.4 km/h Distance 17.59 km</desc>
<time>2012-09-18T15:38:06.32</time>
<name>985</name>
<sym>Dot</sym>
</trkpt>
<trkpt lat="47.467872" lon="15.730282">
<ele>1050.0</ele>
<desc>Speed 54.1 km/h Distance 17.62 km</desc>
<time>2012-09-18T15:38:08.31</time>
<name>986</name>
<sym>Dot</sym>
</trkpt>
<trkpt lat="47.467973" lon="15.730118">
<ele>1049.5</ele>
<desc>Speed 60.4 km/h Distance 17.63 km</desc>
<time>2012-09-18T15:38:09.31</time>
<name>987</name>
<sym>Dot</sym>
</trkpt>
<trkpt lat="47.468082" lon="15.729957">
<ele>1048.5</ele>
<desc>Speed 61.4 km/h Distance 17.65 km</desc>
<time>2012-09-18T15:38:10.31</time>
<name>988</name>
<sym>Dot</sym>
</trkpt>
<trkpt lat="47.468190" lon="15.729800">
<ele>1047.5</ele>
<desc>Speed 61.1 km/h Distance 17.67 km</desc>
<time>2012-09-18T15:38:11.30</time>
<name>989</name>
<sym>Dot</sym>
</trkpt>
<trkpt lat="47.468298" lon="15.729642">
<ele>1046.5</ele>
<desc>Speed 60.8 km/h Distance 17.68 km</desc>
<time>2012-09-18T15:38:12.31</time>
<name>990</name>
<sym>Dot</sym>
</trkpt>
<trkpt lat="47.468405" lon="15.729483">
<ele>1045.5</ele>
<desc>Speed 60.6 km/h Distance 17.70 km</desc>
<time>2012-09-18T15:38:13.29</time>
<name>991</name>
<sym>Dot</sym>
</trkpt>
<trkpt lat="47.468512" lon="15.729328">
<ele>1044.5</ele>
<desc>Speed 60.0 km/h Distance 17.72 km</desc>
<time>2012-09-18T15:38:14.29</time>
<name>992</name>
<sym>Dot</sym>
</trkpt>
<trkpt lat="47.468618" lon="15.729170">
<ele>1043.5</ele>
<desc>Speed 60.6 km/h Distance 17.73 km</desc>
<time>2012-09-18T15:38:15.28</time>
<name>993</name>
<sym>Dot</sym>
</trkpt>
<trkpt lat="47.468733" lon="15.729005">
<ele>1042.5</ele>
<desc>Speed 64.6 km/h Distance 17.75 km</desc>
<time>2012-09-18T15:38:16.28</time>
<name>994</name>
<sym>Dot</sym>
</trkpt>
<trkpt lat="47.468860" lon="15.728838">
<ele>1041.5</ele>
<desc>Speed 67.6 km/h Distance 17.77 km</desc>
<time>2012-09-18T15:38:17.28</time>
<name>995</name>
<sym>Dot</sym>
</trkpt>
<trkpt lat="47.469007" lon="15.728677">
<ele>1042.0</ele>
<desc>Speed 73.3 km/h Distance 17.79 km</desc>
<time>2012-09-18T15:38:18.26</time>
<name>996</name>
<sym>Dot</sym>
</trkpt>
<trkpt lat="47.469170" lon="15.728528">
<ele>1043.0</ele>
<desc>Speed 76.6 km/h Distance 17.81 km</desc>
<time>2012-09-18T15:38:19.25</time>
<name>997</name>
<sym>Dot</sym>
</trkpt>
<trkpt lat="47.469330" lon="15.728390">
<ele>1041.5</ele>
<desc>Speed 74.3 km/h Distance 17.83 km</desc>
<time>2012-09-18T15:38:20.31</time>
<name>998</name>
<sym>Dot</sym>
</trkpt>
<trkpt lat="47.469480" lon="15.728262">
<ele>1040.0</ele>
<desc>Speed 69.4 km/h Distance 17.85 km</desc>
<time>2012-09-18T15:38:21.24</time>
<name>999</name>
<sym>Dot</sym>
</trkpt>
<trkpt lat="47.469622" lon="15.728133">
<ele>1039.0</ele>
<desc>Speed 66.7 km/h Distance 17.87 km</desc>
<time>2012-09-18T15:38:22.24</time>
<name>1000</name>
<sym>Dot</sym>
</trkpt>
<trkpt lat="47.469750" lon="15.727985">
<ele>1038.0</ele>
<desc>Speed 65.5 km/h Distance 17.89 km</desc>
<time>2012-09-18T15:38:23.23</time>
<name>1001</name>
<sym>Dot</sym>
</trkpt>
<trkpt lat="47.469857" lon="15.727797">
<ele>1039.0</ele>
<desc>Speed 66.6 km/h Distance 17.91 km</desc>
<time>2012-09-18T15:38:24.23</time>
<name>1002</name>
<sym>Dot</sym>
</trkpt>
<trkpt lat="47.469962" lon="15.727577">
<ele>1039.0</ele>
<desc>Speed 73.0 km/h Distance 17.93 km</desc>
<time>2012-09-18T15:38:25.22</time>
<name>1003</name>
<sym>Dot</sym>
</trkpt>
<trkpt lat="47.470257" lon="15.726703">
<ele>1039.0</ele>
<desc>Speed 91.6 km/h Distance 18.00 km</desc>
<time>2012-09-18T15:38:28.39</time>
<name>1004</name>
<sym>Dot</sym>
</trkpt>
<trkpt lat="47.470375" lon="15.726437">
<ele>1038.0</ele>
<desc>Speed 86.8 km/h Distance 18.03 km</desc>
<time>2012-09-18T15:38:29.40</time>
<name>1005</name>
<sym>Dot</sym>
</trkpt>
<trkpt lat="47.470678" lon="15.725815">
<ele>1037.0</ele>
<desc>Speed 65.8 km/h Distance 18.08 km</desc>
<time>2012-09-18T15:38:32.39</time>
<name>1006</name>
<sym>Dot</sym>
</trkpt>
<trkpt lat="47.470743" lon="15.725417">
<ele>1035.0</ele>
<desc>Speed 54.3 km/h Distance 18.11 km</desc>
<time>2012-09-18T15:38:34.38</time>
<name>1007</name>
<sym>Dot</sym>
</trkpt>
<trkpt lat="47.470712" lon="15.725208">
<ele>1034.5</ele>
<desc>Speed 59.8 km/h Distance 18.13 km</desc>
<time>2012-09-18T15:38:35.38</time>
<name>1008</name>
<sym>Dot</sym>
</trkpt>
<trkpt lat="47.470660" lon="15.724998">
<ele>1035.5</ele>
<desc>Speed 61.5 km/h Distance 18.15 km</desc>
<time>2012-09-18T15:38:36.37</time>
<name>1009</name>
<sym>Dot</sym>
</trkpt>
<trkpt lat="47.470580" lon="15.724820">
<ele>1035.0</ele>
<desc>Speed 58.5 km/h Distance 18.16 km</desc>
<time>2012-09-18T15:38:37.37</time>
<name>1010</name>
<sym>Dot</sym>
</trkpt>
<trkpt lat="47.470153" lon="15.724323">
<ele>1033.0</ele>
<desc>Speed 77.4 km/h Distance 18.22 km</desc>
<time>2012-09-18T15:38:40.40</time>
<name>1011</name>
<sym>Dot</sym>
</trkpt>
<trkpt lat="47.470012" lon="15.724168">
<ele>1032.0</ele>
<desc>Speed 71.5 km/h Distance 18.24 km</desc>
<time>2012-09-18T15:38:41.39</time>
<name>1012</name>
<sym>Dot</sym>
</trkpt>
<trkpt lat="47.469633" lon="15.723637">
<ele>1028.5</ele>
<desc>Speed 45.9 km/h Distance 18.30 km</desc>
<time>2012-09-18T15:38:45.40</time>
<name>1013</name>
<sym>Dot</sym>
</trkpt>
<trkpt lat="47.469585" lon="15.723477">
<ele>1029.0</ele>
<desc>Speed 48.8 km/h Distance 18.31 km</desc>
<time>2012-09-18T15:38:46.39</time>
<name>1014</name>
<sym>Dot</sym>
</trkpt>
<trkpt lat="47.469565" lon="15.723293">
<ele>1030.0</ele>
<desc>Speed 51.2 km/h Distance 18.33 km</desc>
<time>2012-09-18T15:38:47.38</time>
<name>1015</name>
<sym>Dot</sym>
</trkpt>
<trkpt lat="47.469582" lon="15.723103">
<ele>1029.5</ele>
<desc>Speed 52.1 km/h Distance 18.34 km</desc>
<time>2012-09-18T15:38:48.38</time>
<name>1016</name>
<sym>Dot</sym>
</trkpt>
<trkpt lat="47.469972" lon="15.721842">
<ele>1027.0</ele>
<desc>Speed 82.5 km/h Distance 18.45 km</desc>
<time>2012-09-18T15:38:53.39</time>
<name>1017</name>
<sym>Dot</sym>
</trkpt>
<trkpt lat="47.470095" lon="15.721593">
<ele>1025.5</ele>
<desc>Speed 83.5 km/h Distance 18.47 km</desc>
<time>2012-09-18T15:38:54.39</time>
<name>1018</name>
<sym>Dot</sym>
</trkpt>
<trkpt lat="47.470235" lon="15.721348">
<ele>1024.0</ele>
<desc>Speed 87.2 km/h Distance 18.49 km</desc>
<time>2012-09-18T15:38:55.39</time>
<name>1019</name>
<sym>Dot</sym>
</trkpt>
<trkpt lat="47.470393" lon="15.721112">
<ele>1022.0</ele>
<desc>Speed 89.0 km/h Distance 18.52 km</desc>
<time>2012-09-18T15:38:56.37</time>
<name>1020</name>
<sym>Dot</sym>
</trkpt>
<trkpt lat="47.470560" lon="15.720878">
<ele>1021.0</ele>
<desc>Speed 92.1 km/h Distance 18.55 km</desc>
<time>2012-09-18T15:38:57.37</time>
<name>1021</name>
<sym>Dot</sym>
</trkpt>
<trkpt lat="47.470727" lon="15.720657">
<ele>1019.5</ele>
<desc>Speed 89.9 km/h Distance 18.57 km</desc>
<time>2012-09-18T15:38:58.37</time>
<name>1022</name>
<sym>Dot</sym>
</trkpt>
<trkpt lat="47.470890" lon="15.720445">
<ele>1018.5</ele>
<desc>Speed 86.9 km/h Distance 18.59 km</desc>
<time>2012-09-18T15:38:59.36</time>
<name>1023</name>
<sym>Dot</sym>
</trkpt>
<trkpt lat="47.471040" lon="15.720240">
<ele>1017.0</ele>
<desc>Speed 81.7 km/h Distance 18.62 km</desc>
<time>2012-09-18T15:39:00.36</time>
<name>1024</name>
<sym>Dot</sym>
</trkpt>
<trkpt lat="47.471582" lon="15.719558">
<ele>1010.5</ele>
<desc>Speed 50.9 km/h Distance 18.70 km</desc>
<time>2012-09-18T15:39:05.38</time>
<name>1025</name>
<sym>Dot</sym>
</trkpt>
<trkpt lat="47.471697" lon="15.719477">
<ele>1008.5</ele>
<desc>Speed 49.8 km/h Distance 18.71 km</desc>
<time>2012-09-18T15:39:06.38</time>
<name>1026</name>
<sym>Dot</sym>
</trkpt>
<trkpt lat="47.471820" lon="15.719443">
<ele>1008.0</ele>
<desc>Speed 49.6 km/h Distance 18.72 km</desc>
<time>2012-09-18T15:39:07.38</time>
<name>1027</name>
<sym>Dot</sym>
</trkpt>
<trkpt lat="47.472755" lon="15.719638">
<ele>1006.0</ele>
<desc>Speed 85.1 km/h Distance 18.83 km</desc>
<time>2012-09-18T15:39:12.38</time>
<name>1028</name>
<sym>Dot</sym>
</trkpt>
<trkpt lat="47.472962" lon="15.719693">
<ele>1006.0</ele>
<desc>Speed 83.9 km/h Distance 18.85 km</desc>
<time>2012-09-18T15:39:13.38</time>
<name>1029</name>
<sym>Dot</sym>
</trkpt>
<trkpt lat="47.473160" lon="15.719743">
<ele>1006.0</ele>
<desc>Speed 80.1 km/h Distance 18.88 km</desc>
<time>2012-09-18T15:39:14.38</time>
<name>1030</name>
<sym>Dot</sym>
</trkpt>
<trkpt lat="47.473925" lon="15.720040">
<ele>1003.5</ele>
<desc>Speed 40.9 km/h Distance 18.96 km</desc>
<time>2012-09-18T15:39:20.39</time>
<name>1031</name>
<sym>Dot</sym>
</trkpt>
<trkpt lat="47.473985" lon="15.720172">
<ele>1001.5</ele>
<desc>Speed 42.8 km/h Distance 18.98 km</desc>
<time>2012-09-18T15:39:21.39</time>
<name>1032</name>
<sym>Dot</sym>
</trkpt>
<trkpt lat="47.474025" lon="15.720323">
<ele>1001.0</ele>
<desc>Speed 43.6 km/h Distance 18.99 km</desc>
<time>2012-09-18T15:39:22.37</time>
<name>1033</name>
<sym>Dot</sym>
</trkpt>
<trkpt lat="47.474052" lon="15.720473">
<ele>999.5</ele>
<desc>Speed 42.3 km/h Distance 19.00 km</desc>
<time>2012-09-18T15:39:23.37</time>
<name>1034</name>
<sym>Dot</sym>
</trkpt>
<trkpt lat="47.474078" lon="15.720610">
<ele>999.0</ele>
<desc>Speed 38.7 km/h Distance 19.01 km</desc>
<time>2012-09-18T15:39:24.37</time>
<name>1035</name>
<sym>Dot</sym>
</trkpt>
<trkpt lat="47.474122" lon="15.720722">
<ele>1000.0</ele>
<desc>Speed 34.3 km/h Distance 19.02 km</desc>
<time>2012-09-18T15:39:25.36</time>
<name>1036</name>
<sym>Dot</sym>
</trkpt>
<trkpt lat="47.474182" lon="15.720802">
<ele>1000.0</ele>
<desc>Speed 32.0 km/h Distance 19.03 km</desc>
<time>2012-09-18T15:39:26.36</time>
<name>1037</name>
<sym>Dot</sym>
</trkpt>
<trkpt lat="47.474253" lon="15.720857">
<ele>998.5</ele>
<desc>Speed 32.0 km/h Distance 19.04 km</desc>
<time>2012-09-18T15:39:27.35</time>
<name>1038</name>
<sym>Dot</sym>
</trkpt>
<trkpt lat="47.474318" lon="15.720893">
<ele>998.5</ele>
<desc>Speed 32.0 km/h Distance 19.05 km</desc>
<time>2012-09-18T15:39:28.35</time>
<name>1039</name>
<sym>Dot</sym>
</trkpt>
<trkpt lat="47.474392" lon="15.720867">
<ele>998.5</ele>
<desc>Speed 29.3 km/h Distance 19.05 km</desc>
<time>2012-09-18T15:39:29.34</time>
<name>1040</name>
<sym>Dot</sym>
</trkpt>
<trkpt lat="47.475028" lon="15.720305">
<ele>994.0</ele>
<desc>Speed 58.0 km/h Distance 19.14 km</desc>
<time>2012-09-18T15:39:34.39</time>
<name>1041</name>
<sym>Dot</sym>
</trkpt>
<trkpt lat="47.475167" lon="15.720217">
<ele>995.0</ele>
<desc>Speed 58.9 km/h Distance 19.15 km</desc>
<time>2012-09-18T15:39:35.38</time>
<name>1042</name>
<sym>Dot</sym>
</trkpt>
<trkpt lat="47.475703" lon="15.720000">
<ele>992.0</ele>
<desc>Speed 70.3 km/h Distance 19.21 km</desc>
<time>2012-09-18T15:39:38.40</time>
<name>1043</name>
<sym>Dot</sym>
</trkpt>
<trkpt lat="47.476292" lon="15.719840">
<ele>988.0</ele>
<desc>Speed 45.0 km/h Distance 19.28 km</desc>
<time>2012-09-18T15:39:43.39</time>
<name>1044</name>
<sym>Dot</sym>
</trkpt>
<trkpt lat="47.476727" lon="15.720105">
<ele>987.5</ele>
<desc>Speed 64.0 km/h Distance 19.33 km</desc>
<time>2012-09-18T15:39:46.40</time>
<name>1045</name>
<sym>Dot</sym>
</trkpt>
<trkpt lat="47.476882" lon="15.720187">
<ele>986.0</ele>
<desc>Speed 65.0 km/h Distance 19.35 km</desc>
<time>2012-09-18T15:39:47.38</time>
<name>1046</name>
<sym>Dot</sym>
</trkpt>
<trkpt lat="47.477160" lon="15.720323">
<ele>979.0</ele>
<desc>Speed 61.0 km/h Distance 19.38 km</desc>
<time>2012-09-18T15:39:49.37</time>
<name>1047</name>
<sym>Dot</sym>
</trkpt>
<trkpt lat="47.477447" lon="15.720573">
<ele>976.0</ele>
<desc>Speed 41.8 km/h Distance 19.42 km</desc>
<time>2012-09-18T15:39:52.39</time>
<name>1048</name>
<sym>Dot</sym>
</trkpt>
<trkpt lat="47.477503" lon="15.720707">
<ele>974.5</ele>
<desc>Speed 38.3 km/h Distance 19.43 km</desc>
<time>2012-09-18T15:39:53.39</time>
<name>1049</name>
<sym>Dot</sym>
</trkpt>
<trkpt lat="47.477550" lon="15.720845">
<ele>975.0</ele>
<desc>Speed 37.5 km/h Distance 19.45 km</desc>
<time>2012-09-18T15:39:54.37</time>
<name>1050</name>
<sym>Dot</sym>
</trkpt>
<trkpt lat="47.477662" lon="15.721410">
<ele>974.0</ele>
<desc>Speed 51.9 km/h Distance 19.49 km</desc>
<time>2012-09-18T15:39:57.37</time>
<name>1051</name>
<sym>Dot</sym>
</trkpt>
<trkpt lat="47.477683" lon="15.721578">
<ele>973.0</ele>
<desc>Speed 45.0 km/h Distance 19.50 km</desc>
<time>2012-09-18T15:39:58.37</time>
<name>1052</name>
<sym>Dot</sym>
</trkpt>
<trkpt lat="47.477735" lon="15.721802">
<ele>972.0</ele>
<desc>Speed 33.0 km/h Distance 19.52 km</desc>
<time>2012-09-18T15:40:00.39</time>
<name>1053</name>
<sym>Dot</sym>
</trkpt>
<trkpt lat="47.477803" lon="15.721892">
<ele>971.5</ele>
<desc>Speed 32.8 km/h Distance 19.53 km</desc>
<time>2012-09-18T15:40:01.38</time>
<name>1054</name>
<sym>Dot</sym>
</trkpt>
<trkpt lat="47.477872" lon="15.721923">
<ele>971.5</ele>
<desc>Speed 27.7 km/h Distance 19.54 km</desc>
<time>2012-09-18T15:40:02.37</time>
<name>1055</name>
<sym>Dot</sym>
</trkpt>
<trkpt lat="47.478522" lon="15.721632">
<ele>970.0</ele>
<desc>Speed 64.2 km/h Distance 19.61 km</desc>
<time>2012-09-18T15:40:07.40</time>
<name>1056</name>
<sym>Dot</sym>
</trkpt>
<trkpt lat="47.478665" lon="15.721543">
<ele>969.5</ele>
<desc>Speed 62.0 km/h Distance 19.63 km</desc>
<time>2012-09-18T15:40:08.39</time>
<name>1057</name>
<sym>Dot</sym>
</trkpt>
<trkpt lat="47.479205" lon="15.721553">
<ele>966.0</ele>
<desc>Speed 59.8 km/h Distance 19.69 km</desc>
<time>2012-09-18T15:40:13.39</time>
<name>1058</name>
<sym>Dot</sym>
</trkpt>
<trkpt lat="47.479340" lon="15.721675">
<ele>963.0</ele>
<desc>Speed 60.0 km/h Distance 19.71 km</desc>
<time>2012-09-18T15:40:14.39</time>
<name>1059</name>
<sym>Dot</sym>
</trkpt>
<trkpt lat="47.479642" lon="15.721927">
<ele>961.5</ele>
<desc>Speed 68.1 km/h Distance 19.75 km</desc>
<time>2012-09-18T15:40:16.38</time>
<name>1060</name>
<sym>Dot</sym>
</trkpt>
<trkpt lat="47.479942" lon="15.722190">
<ele>959.0</ele>
<desc>Speed 63.0 km/h Distance 19.79 km</desc>
<time>2012-09-18T15:40:18.37</time>
<name>1061</name>
<sym>Dot</sym>
</trkpt>
<trkpt lat="47.480220" lon="15.722297">
<ele>959.5</ele>
<desc>Speed 59.1 km/h Distance 19.82 km</desc>
<time>2012-09-18T15:40:20.37</time>
<name>1062</name>
<sym>Dot</sym>
</trkpt>
<trkpt lat="47.480378" lon="15.722325">
<ele>959.5</ele>
<desc>Speed 64.2 km/h Distance 19.84 km</desc>
<time>2012-09-18T15:40:21.36</time>
<name>1063</name>
<sym>Dot</sym>
</trkpt>
<trkpt lat="47.480528" lon="15.722348">
<ele>958.0</ele>
<desc>Speed 61.3 km/h Distance 19.85 km</desc>
<time>2012-09-18T15:40:22.36</time>
<name>1064</name>
<sym>Dot</sym>
</trkpt>
<trkpt lat="47.480687" lon="15.722385">
<ele>954.5</ele>
<desc>Speed 64.5 km/h Distance 19.87 km</desc>
<time>2012-09-18T15:40:23.35</time>
<name>1065</name>
<sym>Dot</sym>
</trkpt>
<trkpt lat="47.480832" lon="15.722435">
<ele>953.0</ele>
<desc>Speed 58.6 km/h Distance 19.89 km</desc>
<time>2012-09-18T15:40:24.34</time>
<name>1066</name>
<sym>Dot</sym>
</trkpt>
<trkpt lat="47.480967" lon="15.722490">
<ele>952.5</ele>
<desc>Speed 55.4 km/h Distance 19.90 km</desc>
<time>2012-09-18T15:40:25.34</time>
<name>1067</name>
<sym>Dot</sym>
</trkpt>
<trkpt lat="47.481092" lon="15.722552">
<ele>950.0</ele>
<desc>Speed 52.5 km/h Distance 19.92 km</desc>
<time>2012-09-18T15:40:26.33</time>
<name>1068</name>
<sym>Dot</sym>
</trkpt>
<trkpt lat="47.481325" lon="15.722682">
<ele>948.0</ele>
<desc>Speed 33.6 km/h Distance 19.95 km</desc>
<time>2012-09-18T15:40:29.39</time>
<name>1069</name>
<sym>Dot</sym>
</trkpt>
<trkpt lat="47.481442" lon="15.722682">
<ele>945.0</ele>
<desc>Speed 25.2 km/h Distance 19.96 km</desc>
<time>2012-09-18T15:40:31.39</time>
<name>1070</name>
<sym>Dot</sym>
</trkpt>
<trkpt lat="47.481483" lon="15.722623">
<ele>946.5</ele>
<desc>Speed 22.6 km/h Distance 19.96 km</desc>
<time>2012-09-18T15:40:32.39</time>
<name>1071</name>
<sym>Dot</sym>
</trkpt>
<trkpt lat="47.481495" lon="15.722557">
<ele>945.5</ele>
<desc>Speed 18.2 km/h Distance 19.97 km</desc>
<time>2012-09-18T15:40:33.38</time>
<name>1072</name>
<sym>Dot</sym>
</trkpt>
<trkpt lat="47.481472" lon="15.722480">
<ele>945.0</ele>
<desc>Speed 23.1 km/h Distance 19.98 km</desc>
<time>2012-09-18T15:40:34.38</time>
<name>1073</name>
<sym>Dot</sym>
</trkpt>
<trkpt lat="47.481423" lon="15.722418">
<ele>944.0</ele>
<desc>Speed 26.3 km/h Distance 19.98 km</desc>
<time>2012-09-18T15:40:35.37</time>
<name>1074</name>
<sym>Dot</sym>
</trkpt>
<trkpt lat="47.480722" lon="15.721875">
<ele>933.5</ele>
<desc>Speed 66.7 km/h Distance 20.07 km</desc>
<time>2012-09-18T15:40:41.39</time>
<name>1075</name>
<sym>Dot</sym>
</trkpt>
<trkpt lat="47.480587" lon="15.721752">
<ele>932.5</ele>
<desc>Speed 64.7 km/h Distance 20.09 km</desc>
<time>2012-09-18T15:40:42.39</time>
<name>1076</name>
<sym>Dot</sym>
</trkpt>
<trkpt lat="47.480365" lon="15.721515">
<ele>932.0</ele>
<desc>Speed 54.5 km/h Distance 20.12 km</desc>
<time>2012-09-18T15:40:44.39</time>
<name>1077</name>
<sym>Dot</sym>
</trkpt>
<trkpt lat="47.480280" lon="15.721358">
<ele>930.0</ele>
<desc>Speed 56.9 km/h Distance 20.13 km</desc>
<time>2012-09-18T15:40:45.39</time>
<name>1078</name>
<sym>Dot</sym>
</trkpt>
<trkpt lat="47.480193" lon="15.721167">
<ele>932.0</ele>
<desc>Speed 63.4 km/h Distance 20.15 km</desc>
<time>2012-09-18T15:40:46.38</time>
<name>1079</name>
<sym>Dot</sym>
</trkpt>
<trkpt lat="47.480120" lon="15.720942">
<ele>930.5</ele>
<desc>Speed 68.8 km/h Distance 20.17 km</desc>
<time>2012-09-18T15:40:47.38</time>
<name>1080</name>
<sym>Dot</sym>
</trkpt>
<trkpt lat="47.480027" lon="15.720737">
<ele>930.5</ele>
<desc>Speed 68.6 km/h Distance 20.19 km</desc>
<time>2012-09-18T15:40:48.37</time>
<name>1081</name>
<sym>Dot</sym>
</trkpt>
<trkpt lat="47.479935" lon="15.720553">
<ele>927.5</ele>
<desc>Speed 64.5 km/h Distance 20.21 km</desc>
<time>2012-09-18T15:40:49.36</time>
<name>1082</name>
<sym>Dot</sym>
</trkpt>
<trkpt lat="47.479835" lon="15.720388">
<ele>925.5</ele>
<desc>Speed 59.3 km/h Distance 20.22 km</desc>
<time>2012-09-18T15:40:50.36</time>
<name>1083</name>
<sym>Dot</sym>
</trkpt>
<trkpt lat="47.479638" lon="15.720157">
<ele>923.0</ele>
<desc>Speed 51.4 km/h Distance 20.25 km</desc>
<time>2012-09-18T15:40:52.36</time>
<name>1084</name>
<sym>Dot</sym>
</trkpt>
<trkpt lat="47.479522" lon="15.720080">
<ele>920.0</ele>
<desc>Speed 51.5 km/h Distance 20.27 km</desc>
<time>2012-09-18T15:40:53.36</time>
<name>1085</name>
<sym>Dot</sym>
</trkpt>
<trkpt lat="47.479392" lon="15.720048">
<ele>918.5</ele>
<desc>Speed 53.1 km/h Distance 20.28 km</desc>
<time>2012-09-18T15:40:54.35</time>
<name>1086</name>
<sym>Dot</sym>
</trkpt>
<trkpt lat="47.479192" lon="15.719952">
<ele>914.0</ele>
<desc>Speed 40.8 km/h Distance 20.30 km</desc>
<time>2012-09-18T15:40:56.35</time>
<name>1087</name>
<sym>Dot</sym>
</trkpt>
<trkpt lat="47.479050" lon="15.719782">
<ele>913.0</ele>
<desc>Speed 43.6 km/h Distance 20.32 km</desc>
<time>2012-09-18T15:40:58.35</time>
<name>1088</name>
<sym>Dot</sym>
</trkpt>
<trkpt lat="47.478993" lon="15.719622">
<ele>912.5</ele>
<desc>Speed 49.8 km/h Distance 20.34 km</desc>
<time>2012-09-18T15:40:59.34</time>
<name>1089</name>
<sym>Dot</sym>
</trkpt>
<trkpt lat="47.478575" lon="15.718765">
<ele>909.5</ele>
<desc>Speed 78.2 km/h Distance 20.42 km</desc>
<time>2012-09-18T15:41:03.39</time>
<name>1090</name>
<sym>Dot</sym>
</trkpt>
<trkpt lat="47.478445" lon="15.718557">
<ele>907.0</ele>
<desc>Speed 76.9 km/h Distance 20.44 km</desc>
<time>2012-09-18T15:41:04.39</time>
<name>1091</name>
<sym>Dot</sym>
</trkpt>
<trkpt lat="47.478317" lon="15.718348">
<ele>907.0</ele>
<desc>Speed 76.3 km/h Distance 20.46 km</desc>
<time>2012-09-18T15:41:05.39</time>
<name>1092</name>
<sym>Dot</sym>
</trkpt>
<trkpt lat="47.478193" lon="15.718143">
<ele>906.5</ele>
<desc>Speed 74.5 km/h Distance 20.48 km</desc>
<time>2012-09-18T15:41:06.38</time>
<name>1093</name>
<sym>Dot</sym>
</trkpt>
<trkpt lat="47.478075" lon="15.717947">
<ele>905.5</ele>
<desc>Speed 70.6 km/h Distance 20.50 km</desc>
<time>2012-09-18T15:41:07.39</time>
<name>1094</name>
<sym>Dot</sym>
</trkpt>
<trkpt lat="47.477765" lon="15.717540">
<ele>898.0</ele>
<desc>Speed 50.5 km/h Distance 20.55 km</desc>
<time>2012-09-18T15:41:10.39</time>
<name>1095</name>
<sym>Dot</sym>
</trkpt>
<trkpt lat="47.477590" lon="15.717192">
<ele>885.5</ele>
<desc>Speed 16.3 km/h Distance 20.58 km</desc>
<time>2012-09-18T15:41:15.37</time>
<name>1096</name>
<sym>Dot</sym>
</trkpt>
<trkpt lat="47.477630" lon="15.717153">
<ele>882.5</ele>
<desc>Speed 18.5 km/h Distance 20.58 km</desc>
<time>2012-09-18T15:41:16.38</time>
<name>1097</name>
<sym>Dot</sym>
</trkpt>
<trkpt lat="47.477755" lon="15.717233">
<ele>881.0</ele>
<desc>Speed 15.8 km/h Distance 20.60 km</desc>
<time>2012-09-18T15:41:18.36</time>
<name>1098</name>
<sym>Dot</sym>
</trkpt>
<trkpt lat="47.478328" lon="15.717688">
<ele>876.0</ele>
<desc>Speed 56.1 km/h Distance 20.67 km</desc>
<time>2012-09-18T15:41:23.38</time>
<name>1099</name>
<sym>Dot</sym>
</trkpt>
<trkpt lat="47.478455" lon="15.717765">
<ele>874.5</ele>
<desc>Speed 54.5 km/h Distance 20.69 km</desc>
<time>2012-09-18T15:41:24.38</time>
<name>1100</name>
<sym>Dot</sym>
</trkpt>
<trkpt lat="47.478578" lon="15.717840">
<ele>873.0</ele>
<desc>Speed 53.3 km/h Distance 20.70 km</desc>
<time>2012-09-18T15:41:25.36</time>
<name>1101</name>
<sym>Dot</sym>
</trkpt>
<trkpt lat="47.478812" lon="15.717970">
<ele>869.5</ele>
<desc>Speed 55.7 km/h Distance 20.73 km</desc>
<time>2012-09-18T15:41:27.36</time>
<name>1102</name>
<sym>Dot</sym>
</trkpt>
<trkpt lat="47.478933" lon="15.718053">
<ele>868.5</ele>
<desc>Speed 53.4 km/h Distance 20.74 km</desc>
<time>2012-09-18T15:41:28.36</time>
<name>1103</name>
<sym>Dot</sym>
</trkpt>
<trkpt lat="47.479058" lon="15.718123">
<ele>867.5</ele>
<desc>Speed 53.6 km/h Distance 20.76 km</desc>
<time>2012-09-18T15:41:29.35</time>
<name>1104</name>
<sym>Dot</sym>
</trkpt>
<trkpt lat="47.479170" lon="15.718185">
<ele>868.5</ele>
<desc>Speed 47.2 km/h Distance 20.77 km</desc>
<time>2012-09-18T15:41:30.35</time>
<name>1105</name>
<sym>Dot</sym>
</trkpt>
<trkpt lat="47.479400" lon="15.718297">
<ele>863.5</ele>
<desc>Speed 31.4 km/h Distance 20.80 km</desc>
<time>2012-09-18T15:41:33.38</time>
<name>1106</name>
<sym>Dot</sym>
</trkpt>
<trkpt lat="47.479477" lon="15.718302">
<ele>860.0</ele>
<desc>Speed 31.3 km/h Distance 20.81 km</desc>
<time>2012-09-18T15:41:34.38</time>
<name>1107</name>
<sym>Dot</sym>
</trkpt>
<trkpt lat="47.479553" lon="15.718288">
<ele>858.0</ele>
<desc>Speed 31.1 km/h Distance 20.82 km</desc>
<time>2012-09-18T15:41:35.37</time>
<name>1108</name>
<sym>Dot</sym>
</trkpt>
<trkpt lat="47.479625" lon="15.718255">
<ele>856.0</ele>
<desc>Speed 29.6 km/h Distance 20.82 km</desc>
<time>2012-09-18T15:41:36.37</time>
<name>1109</name>
<sym>Dot</sym>
</trkpt>
<trkpt lat="47.479687" lon="15.718202">
<ele>855.0</ele>
<desc>Speed 28.8 km/h Distance 20.83 km</desc>
<time>2012-09-18T15:41:37.39</time>
<name>1110</name>
<sym>Dot</sym>
</trkpt>
<trkpt lat="47.479737" lon="15.718135">
<ele>852.5</ele>
<desc>Speed 28.8 km/h Distance 20.84 km</desc>
<time>2012-09-18T15:41:38.36</time>
<name>1111</name>
<sym>Dot</sym>
</trkpt>
<trkpt lat="47.479785" lon="15.718052">
<ele>850.0</ele>
<desc>Speed 30.0 km/h Distance 20.85 km</desc>
<time>2012-09-18T15:41:39.37</time>
<name>1112</name>
<sym>Dot</sym>
</trkpt>
<trkpt lat="47.479823" lon="15.717967">
<ele>847.0</ele>
<desc>Speed 30.5 km/h Distance 20.86 km</desc>
<time>2012-09-18T15:41:40.36</time>
<name>1113</name>
<sym>Dot</sym>
</trkpt>
<trkpt lat="47.479857" lon="15.717882">
<ele>843.5</ele>
<desc>Speed 28.2 km/h Distance 20.86 km</desc>
<time>2012-09-18T15:41:41.36</time>
<name>1114</name>
<sym>Dot</sym>
</trkpt>
<trkpt lat="47.479882" lon="15.717808">
<ele>839.5</ele>
<desc>Speed 23.7 km/h Distance 20.87 km</desc>
<time>2012-09-18T15:41:42.36</time>
<name>1115</name>
<sym>Dot</sym>
</trkpt>
<trkpt lat="47.479853" lon="15.717702">
<ele>823.0</ele>
<desc>Speed 3.0 km/h Distance 20.88 km</desc>
<time>2012-09-18T15:41:45.38</time>
<name>1116</name>
<sym>Dot</sym>
</trkpt>
<trkpt lat="47.479842" lon="15.717692">
<ele>819.0</ele>
<desc>Speed 0.5 km/h Distance 20.88 km</desc>
<time>2012-09-18T15:41:46.37</time>
<name>1117</name>
<sym>Dot</sym>
</trkpt>
<trkpt lat="47.479828" lon="15.717683">
<ele>815.5</ele>
<desc>Speed 0.4 km/h Distance 20.88 km</desc>
<time>2012-09-18T15:41:47.39</time>
<name>1118</name>
<sym>Dot</sym>
</trkpt>
<trkpt lat="47.479822" lon="15.717665">
<ele>814.0</ele>
<desc>Speed 3.3 km/h Distance 20.88 km</desc>
<time>2012-09-18T15:41:48.37</time>
<name>1119</name>
<sym>Dot</sym>
</trkpt>
<trkpt lat="47.479450" lon="15.717178">
<ele>809.5</ele>
<desc>Speed 48.3 km/h Distance 20.94 km</desc>
<time>2012-09-18T15:41:54.39</time>
<name>1120</name>
<sym>Dot</sym>
</trkpt>
<trkpt lat="47.479207" lon="15.716922">
<ele>807.0</ele>
<desc>Speed 59.8 km/h Distance 20.97 km</desc>
<time>2012-09-18T15:41:56.38</time>
<name>1121</name>
<sym>Dot</sym>
</trkpt>
<trkpt lat="47.479093" lon="15.716788">
<ele>805.5</ele>
<desc>Speed 58.0 km/h Distance 20.99 km</desc>
<time>2012-09-18T15:41:57.38</time>
<name>1122</name>
<sym>Dot</sym>
</trkpt>
<trkpt lat="47.478982" lon="15.716653">
<ele>805.5</ele>
<desc>Speed 58.1 km/h Distance 21.00 km</desc>
<time>2012-09-18T15:41:58.37</time>
<name>1123</name>
<sym>Dot</sym>
</trkpt>
<trkpt lat="47.478875" lon="15.716513">
<ele>804.0</ele>
<desc>Speed 56.6 km/h Distance 21.02 km</desc>
<time>2012-09-18T15:41:59.37</time>
<name>1124</name>
<sym>Dot</sym>
</trkpt>
<trkpt lat="47.478778" lon="15.716382">
<ele>803.5</ele>
<desc>Speed 54.1 km/h Distance 21.03 km</desc>
<time>2012-09-18T15:42:00.37</time>
<name>1125</name>
<sym>Dot</sym>
</trkpt>
<trkpt lat="47.478682" lon="15.716250">
<ele>803.0</ele>
<desc>Speed 53.7 km/h Distance 21.05 km</desc>
<time>2012-09-18T15:42:01.35</time>
<name>1126</name>
<sym>Dot</sym>
</trkpt>
<trkpt lat="47.478582" lon="15.716113">
<ele>802.5</ele>
<desc>Speed 55.6 km/h Distance 21.06 km</desc>
<time>2012-09-18T15:42:02.35</time>
<name>1127</name>
<sym>Dot</sym>
</trkpt>
<trkpt lat="47.478482" lon="15.715965">
<ele>801.5</ele>
<desc>Speed 57.2 km/h Distance 21.08 km</desc>
<time>2012-09-18T15:42:03.33</time>
<name>1128</name>
<sym>Dot</sym>
</trkpt>
<trkpt lat="47.478385" lon="15.715807">
<ele>801.0</ele>
<desc>Speed 58.5 km/h Distance 21.10 km</desc>
<time>2012-09-18T15:42:04.34</time>
<name>1129</name>
<sym>Dot</sym>
</trkpt>
<trkpt lat="47.478292" lon="15.715640">
<ele>800.0</ele>
<desc>Speed 59.8 km/h Distance 21.11 km</desc>
<time>2012-09-18T15:42:05.34</time>
<name>1130</name>
<sym>Dot</sym>
</trkpt>
<trkpt lat="47.478200" lon="15.715460">
<ele>799.0</ele>
<desc>Speed 61.6 km/h Distance 21.13 km</desc>
<time>2012-09-18T15:42:06.34</time>
<name>1131</name>
<sym>Dot</sym>
</trkpt>
<trkpt lat="47.478107" lon="15.715275">
<ele>798.5</ele>
<desc>Speed 63.5 km/h Distance 21.15 km</desc>
<time>2012-09-18T15:42:07.33</time>
<name>1132</name>
<sym>Dot</sym>
</trkpt>
<trkpt lat="47.478010" lon="15.715092">
<ele>797.5</ele>
<desc>Speed 63.8 km/h Distance 21.16 km</desc>
<time>2012-09-18T15:42:08.32</time>
<name>1133</name>
<sym>Dot</sym>
</trkpt>
<trkpt lat="47.477907" lon="15.714898">
<ele>797.5</ele>
<desc>Speed 67.4 km/h Distance 21.18 km</desc>
<time>2012-09-18T15:42:09.31</time>
<name>1134</name>
<sym>Dot</sym>
</trkpt>
<trkpt lat="47.477507" lon="15.714170">
<ele>795.5</ele>
<desc>Speed 89.0 km/h Distance 21.25 km</desc>
<time>2012-09-18T15:42:12.38</time>
<name>1135</name>
<sym>Dot</sym>
</trkpt>
<trkpt lat="47.477360" lon="15.713905">
<ele>796.0</ele>
<desc>Speed 93.7 km/h Distance 21.28 km</desc>
<time>2012-09-18T15:42:13.38</time>
<name>1136</name>
<sym>Dot</sym>
</trkpt>
<trkpt lat="47.477202" lon="15.713622">
<ele>796.5</ele>
<desc>Speed 100 km/h Distance 21.31 km</desc>
<time>2012-09-18T15:42:14.38</time>
<name>1137</name>
<sym>Dot</sym>
</trkpt>
<trkpt lat="47.476868" lon="15.713030">
<ele>795.5</ele>
<desc>Speed 104 km/h Distance 21.36 km</desc>
<time>2012-09-18T15:42:16.36</time>
<name>1138</name>
<sym>Dot</sym>
</trkpt>
<trkpt lat="47.476702" lon="15.712735">
<ele>794.0</ele>
<desc>Speed 104 km/h Distance 21.39 km</desc>
<time>2012-09-18T15:42:17.36</time>
<name>1139</name>
<sym>Dot</sym>
</trkpt>
<trkpt lat="47.476537" lon="15.712440">
<ele>793.5</ele>
<desc>Speed 104 km/h Distance 21.42 km</desc>
<time>2012-09-18T15:42:18.35</time>
<name>1140</name>
<sym>Dot</sym>
</trkpt>
<trkpt lat="47.476373" lon="15.712153">
<ele>793.0</ele>
<desc>Speed 102 km/h Distance 21.45 km</desc>
<time>2012-09-18T15:42:19.34</time>
<name>1141</name>
<sym>Dot</sym>
</trkpt>
<trkpt lat="47.476210" lon="15.711878">
<ele>793.0</ele>
<desc>Speed 99.5 km/h Distance 21.48 km</desc>
<time>2012-09-18T15:42:20.35</time>
<name>1142</name>
<sym>Dot</sym>
</trkpt>
<trkpt lat="47.476057" lon="15.711608">
<ele>791.5</ele>
<desc>Speed 96.3 km/h Distance 21.50 km</desc>
<time>2012-09-18T15:42:21.34</time>
<name>1143</name>
<sym>Dot</sym>
</trkpt>
<trkpt lat="47.475895" lon="15.711355">
<ele>790.5</ele>
<desc>Speed 94.9 km/h Distance 21.53 km</desc>
<time>2012-09-18T15:42:22.33</time>
<name>1144</name>
<sym>Dot</sym>
</trkpt>
<trkpt lat="47.475708" lon="15.711123">
<ele>789.0</ele>
<desc>Speed 97.7 km/h Distance 21.56 km</desc>
<time>2012-09-18T15:42:23.32</time>
<name>1145</name>
<sym>Dot</sym>
</trkpt>
<trkpt lat="47.475503" lon="15.710912">
<ele>789.0</ele>
<desc>Speed 101 km/h Distance 21.59 km</desc>
<time>2012-09-18T15:42:24.32</time>
<name>1146</name>
<sym>Dot</sym>
</trkpt>
<trkpt lat="47.475293" lon="15.710715">
<ele>788.0</ele>
<desc>Speed 99.5 km/h Distance 21.61 km</desc>
<time>2012-09-18T15:42:25.31</time>
<name>1147</name>
<sym>Dot</sym>
</trkpt>
<trkpt lat="47.475063" lon="15.710563">
<ele>787.5</ele>
<desc>Speed 102 km/h Distance 21.64 km</desc>
<time>2012-09-18T15:42:26.31</time>
<name>1148</name>
<sym>Dot</sym>
</trkpt>
<trkpt lat="47.474848" lon="15.710420">
<ele>786.0</ele>
<desc>Speed 95.3 km/h Distance 21.67 km</desc>
<time>2012-09-18T15:42:27.30</time>
<name>1149</name>
<sym>Dot</sym>
</trkpt>
<trkpt lat="47.474635" lon="15.710300">
<ele>784.5</ele>
<desc>Speed 92.0 km/h Distance 21.69 km</desc>
<time>2012-09-18T15:42:28.31</time>
<name>1150</name>
<sym>Dot</sym>
</trkpt>
<trkpt lat="47.474422" lon="15.710203">
<ele>784.0</ele>
<desc>Speed 90.2 km/h Distance 21.72 km</desc>
<time>2012-09-18T15:42:29.30</time>
<name>1151</name>
<sym>Dot</sym>
</trkpt>
<trkpt lat="47.474208" lon="15.710130">
<ele>784.0</ele>
<desc>Speed 87.8 km/h Distance 21.74 km</desc>
<time>2012-09-18T15:42:30.30</time>
<name>1152</name>
<sym>Dot</sym>
</trkpt>
<trkpt lat="47.474005" lon="15.710078">
<ele>783.0</ele>
<desc>Speed 84.3 km/h Distance 21.77 km</desc>
<time>2012-09-18T15:42:31.29</time>
<name>1153</name>
<sym>Dot</sym>
</trkpt>
<trkpt lat="47.473807" lon="15.710047">
<ele>782.5</ele>
<desc>Speed 80.3 km/h Distance 21.79 km</desc>
<time>2012-09-18T15:42:32.29</time>
<name>1154</name>
<sym>Dot</sym>
</trkpt>
<trkpt lat="47.473622" lon="15.710040">
<ele>781.5</ele>
<desc>Speed 74.6 km/h Distance 21.81 km</desc>
<time>2012-09-18T15:42:33.28</time>
<name>1155</name>
<sym>Dot</sym>
</trkpt>
<trkpt lat="47.473438" lon="15.710043">
<ele>780.0</ele>
<desc>Speed 75.6 km/h Distance 21.83 km</desc>
<time>2012-09-18T15:42:34.29</time>
<name>1156</name>
<sym>Dot</sym>
</trkpt>
<trkpt lat="47.473257" lon="15.710050">
<ele>778.5</ele>
<desc>Speed 75.2 km/h Distance 21.85 km</desc>
<time>2012-09-18T15:42:35.28</time>
<name>1157</name>
<sym>Dot</sym>
</trkpt>
<trkpt lat="47.473080" lon="15.710057">
<ele>778.0</ele>
<desc>Speed 71.5 km/h Distance 21.87 km</desc>
<time>2012-09-18T15:42:36.27</time>
<name>1158</name>
<sym>Dot</sym>
</trkpt>
<trkpt lat="47.472913" lon="15.710062">
<ele>777.5</ele>
<desc>Speed 67.9 km/h Distance 21.89 km</desc>
<time>2012-09-18T15:42:37.27</time>
<name>1159</name>
<sym>Dot</sym>
</trkpt>
<trkpt lat="47.472748" lon="15.710060">
<ele>776.5</ele>
<desc>Speed 66.6 km/h Distance 21.91 km</desc>
<time>2012-09-18T15:42:38.27</time>
<name>1160</name>
<sym>Dot</sym>
</trkpt>
<trkpt lat="47.472590" lon="15.710047">
<ele>776.0</ele>
<desc>Speed 65.0 km/h Distance 21.92 km</desc>
<time>2012-09-18T15:42:39.26</time>
<name>1161</name>
<sym>Dot</sym>
</trkpt>
<trkpt lat="47.472443" lon="15.710023">
<ele>775.0</ele>
<desc>Speed 60.9 km/h Distance 21.94 km</desc>
<time>2012-09-18T15:42:40.26</time>
<name>1162</name>
<sym>Dot</sym>
</trkpt>
<trkpt lat="47.472033" lon="15.709770">
<ele>771.0</ele>
<desc>Speed 22.4 km/h Distance 21.99 km</desc>
<time>2012-09-18T15:42:46.37</time>
<name>1163</name>
<sym>Dot</sym>
</trkpt>
<trkpt lat="47.472032" lon="15.709682">
<ele>771.0</ele>
<desc>Speed 23.9 km/h Distance 22.00 km</desc>
<time>2012-09-18T15:42:47.37</time>
<name>1164</name>
<sym>Dot</sym>
</trkpt>
<trkpt lat="47.472315" lon="15.708560">
<ele>769.5</ele>
<desc>Speed 71.3 km/h Distance 22.09 km</desc>
<time>2012-09-18T15:42:53.37</time>
<name>1165</name>
<sym>Dot</sym>
</trkpt>
<trkpt lat="47.472353" lon="15.708298">
<ele>770.5</ele>
<desc>Speed 73.0 km/h Distance 22.11 km</desc>
<time>2012-09-18T15:42:54.37</time>
<name>1166</name>
<sym>Dot</sym>
</trkpt>
<trkpt lat="47.472463" lon="15.707713">
<ele>769.5</ele>
<desc>Speed 83.2 km/h Distance 22.15 km</desc>
<time>2012-09-18T15:42:56.37</time>
<name>1167</name>
<sym>Dot</sym>
</trkpt>
<trkpt lat="47.472538" lon="15.707405">
<ele>770.0</ele>
<desc>Speed 89.5 km/h Distance 22.18 km</desc>
<time>2012-09-18T15:42:57.36</time>
<name>1168</name>
<sym>Dot</sym>
</trkpt>
<trkpt lat="47.472602" lon="15.707070">
<ele>771.0</ele>
<desc>Speed 94.4 km/h Distance 22.20 km</desc>
<time>2012-09-18T15:42:58.36</time>
<name>1169</name>
<sym>Dot</sym>
</trkpt>
<trkpt lat="47.472658" lon="15.706718">
<ele>772.0</ele>
<desc>Speed 98.4 km/h Distance 22.23 km</desc>
<time>2012-09-18T15:42:59.35</time>
<name>1170</name>
<sym>Dot</sym>
</trkpt>
<trkpt lat="47.472712" lon="15.706378">
<ele>773.0</ele>
<desc>Speed 94.9 km/h Distance 22.26 km</desc>
<time>2012-09-18T15:43:00.35</time>
<name>1171</name>
<sym>Dot</sym>
</trkpt>
<trkpt lat="47.472802" lon="15.705760">
<ele>774.5</ele>
<desc>Speed 86.2 km/h Distance 22.30 km</desc>
<time>2012-09-18T15:43:02.35</time>
<name>1172</name>
<sym>Dot</sym>
</trkpt>
<trkpt lat="47.472865" lon="15.705460">
<ele>775.5</ele>
<desc>Speed 85.6 km/h Distance 22.33 km</desc>
<time>2012-09-18T15:43:03.35</time>
<name>1173</name>
<sym>Dot</sym>
</trkpt>
<trkpt lat="47.472938" lon="15.705180">
<ele>777.0</ele>
<desc>Speed 81.5 km/h Distance 22.35 km</desc>
<time>2012-09-18T15:43:04.34</time>
<name>1174</name>
<sym>Dot</sym>
</trkpt>
<trkpt lat="47.473030" lon="15.704932">
<ele>779.0</ele>
<desc>Speed 77.4 km/h Distance 22.37 km</desc>
<time>2012-09-18T15:43:05.33</time>
<name>1175</name>
<sym>Dot</sym>
</trkpt>
<trkpt lat="47.473130" lon="15.704690">
<ele>779.0</ele>
<desc>Speed 77.1 km/h Distance 22.39 km</desc>
<time>2012-09-18T15:43:06.33</time>
<name>1176</name>
<sym>Dot</sym>
</trkpt>
<trkpt lat="47.473248" lon="15.704460">
<ele>779.0</ele>
<desc>Speed 78.5 km/h Distance 22.41 km</desc>
<time>2012-09-18T15:43:07.34</time>
<name>1177</name>
<sym>Dot</sym>
</trkpt>
<trkpt lat="47.473552" lon="15.704042">
<ele>779.0</ele>
<desc>Speed 80.6 km/h Distance 22.46 km</desc>
<time>2012-09-18T15:43:09.31</time>
<name>1178</name>
<sym>Dot</sym>
</trkpt>
<trkpt lat="47.473648" lon="15.703773">
<ele>779.0</ele>
<desc>Speed 83.4 km/h Distance 22.48 km</desc>
<time>2012-09-18T15:43:10.31</time>
<name>1179</name>
<sym>Dot</sym>
</trkpt>
<trkpt lat="47.473727" lon="15.703502">
<ele>779.0</ele>
<desc>Speed 80.8 km/h Distance 22.51 km</desc>
<time>2012-09-18T15:43:11.30</time>
<name>1180</name>
<sym>Dot</sym>
</trkpt>
<trkpt lat="47.474072" lon="15.703268">
<ele>780.0</ele>
<desc>Speed 83.1 km/h Distance 22.55 km</desc>
<time>2012-09-18T15:43:13.29</time>
<name>1181</name>
<sym>Dot</sym>
</trkpt>
<trkpt lat="47.474242" lon="15.703088">
<ele>780.0</ele>
<desc>Speed 84.0 km/h Distance 22.57 km</desc>
<time>2012-09-18T15:43:14.30</time>
<name>1182</name>
<sym>Dot</sym>
</trkpt>
<trkpt lat="47.474648" lon="15.702797">
<ele>782.0</ele>
<desc>Speed 89.0 km/h Distance 22.62 km</desc>
<time>2012-09-18T15:43:16.29</time>
<name>1183</name>
<sym>Dot</sym>
</trkpt>
<trkpt lat="47.474842" lon="15.702618">
<ele>783.0</ele>
<desc>Speed 91.7 km/h Distance 22.65 km</desc>
<time>2012-09-18T15:43:17.28</time>
<name>1184</name>
<sym>Dot</sym>
</trkpt>
<trkpt lat="47.475030" lon="15.702450">
<ele>784.0</ele>
<desc>Speed 88.2 km/h Distance 22.67 km</desc>
<time>2012-09-18T15:43:18.27</time>
<name>1185</name>
<sym>Dot</sym>
</trkpt>
<trkpt lat="47.475397" lon="15.702188">
<ele>785.5</ele>
<desc>Speed 83.4 km/h Distance 22.72 km</desc>
<time>2012-09-18T15:43:20.27</time>
<name>1186</name>
<sym>Dot</sym>
</trkpt>
<trkpt lat="47.475592" lon="15.702030">
<ele>786.0</ele>
<desc>Speed 89.4 km/h Distance 22.74 km</desc>
<time>2012-09-18T15:43:21.27</time>
<name>1187</name>
<sym>Dot</sym>
</trkpt>
<trkpt lat="47.475983" lon="15.701768">
<ele>786.0</ele>
<desc>Speed 97.0 km/h Distance 22.79 km</desc>
<time>2012-09-18T15:43:23.26</time>
<name>1188</name>
<sym>Dot</sym>
</trkpt>
<trkpt lat="47.476212" lon="15.701628">
<ele>785.5</ele>
<desc>Speed 97.9 km/h Distance 22.82 km</desc>
<time>2012-09-18T15:43:24.25</time>
<name>1189</name>
<sym>Dot</sym>
</trkpt>
<trkpt lat="47.477105" lon="15.701145">
<ele>787.5</ele>
<desc>Speed 69.2 km/h Distance 22.92 km</desc>
<time>2012-09-18T15:43:29.36</time>
<name>1190</name>
<sym>Dot</sym>
</trkpt>
<trkpt lat="47.477292" lon="15.701160">
<ele>786.5</ele>
<desc>Speed 72.7 km/h Distance 22.94 km</desc>
<time>2012-09-18T15:43:30.37</time>
<name>1191</name>
<sym>Dot</sym>
</trkpt>
<trkpt lat="47.477483" lon="15.701182">
<ele>787.5</ele>
<desc>Speed 75.7 km/h Distance 22.96 km</desc>
<time>2012-09-18T15:43:31.35</time>
<name>1192</name>
<sym>Dot</sym>
</trkpt>
<trkpt lat="47.477668" lon="15.701187">
<ele>787.5</ele>
<desc>Speed 74.4 km/h Distance 22.99 km</desc>
<time>2012-09-18T15:43:32.36</time>
<name>1193</name>
<sym>Dot</sym>
</trkpt>
<trkpt lat="47.477843" lon="15.701130">
<ele>787.0</ele>
<desc>Speed 71.5 km/h Distance 23.01 km</desc>
<time>2012-09-18T15:43:33.36</time>
<name>1194</name>
<sym>Dot</sym>
</trkpt>
<trkpt lat="47.478020" lon="15.701038">
<ele>787.0</ele>
<desc>Speed 74.6 km/h Distance 23.03 km</desc>
<time>2012-09-18T15:43:34.36</time>
<name>1195</name>
<sym>Dot</sym>
</trkpt>
<trkpt lat="47.478637" lon="15.700713">
<ele>789.5</ele>
<desc>Speed 89.1 km/h Distance 23.10 km</desc>
<time>2012-09-18T15:43:37.37</time>
<name>1196</name>
<sym>Dot</sym>
</trkpt>
<trkpt lat="47.478872" lon="15.700648">
<ele>791.0</ele>
<desc>Speed 92.1 km/h Distance 23.13 km</desc>
<time>2012-09-18T15:43:38.36</time>
<name>1197</name>
<sym>Dot</sym>
</trkpt>
<trkpt lat="47.479095" lon="15.700572">
<ele>793.0</ele>
<desc>Speed 91.5 km/h Distance 23.15 km</desc>
<time>2012-09-18T15:43:39.35</time>
<name>1198</name>
<sym>Dot</sym>
</trkpt>
<trkpt lat="47.479333" lon="15.700527">
<ele>794.5</ele>
<desc>Speed 92.8 km/h Distance 23.18 km</desc>
<time>2012-09-18T15:43:40.35</time>
<name>1199</name>
<sym>Dot</sym>
</trkpt>
<trkpt lat="47.479570" lon="15.700452">
<ele>796.5</ele>
<desc>Speed 95.1 km/h Distance 23.20 km</desc>
<time>2012-09-18T15:43:41.34</time>
<name>1200</name>
<sym>Dot</sym>
</trkpt>
<trkpt lat="47.479807" lon="15.700317">
<ele>796.5</ele>
<desc>Speed 101 km/h Distance 23.23 km</desc>
<time>2012-09-18T15:43:42.34</time>
<name>1201</name>
<sym>Dot</sym>
</trkpt>
<trkpt lat="47.480042" lon="15.700155">
<ele>796.5</ele>
<desc>Speed 104 km/h Distance 23.26 km</desc>
<time>2012-09-18T15:43:43.33</time>
<name>1202</name>
<sym>Dot</sym>
</trkpt>
<trkpt lat="47.480272" lon="15.699985">
<ele>797.5</ele>
<desc>Speed 103 km/h Distance 23.29 km</desc>
<time>2012-09-18T15:43:44.32</time>
<name>1203</name>
<sym>Dot</sym>
</trkpt>
<trkpt lat="47.480493" lon="15.699808">
<ele>798.5</ele>
<desc>Speed 101 km/h Distance 23.32 km</desc>
<time>2012-09-18T15:43:45.31</time>
<name>1204</name>
<sym>Dot</sym>
</trkpt>
<trkpt lat="47.480705" lon="15.699623">
<ele>799.5</ele>
<desc>Speed 98.8 km/h Distance 23.35 km</desc>
<time>2012-09-18T15:43:46.31</time>
<name>1205</name>
<sym>Dot</sym>
</trkpt>
<trkpt lat="47.480908" lon="15.699420">
<ele>800.0</ele>
<desc>Speed 99.1 km/h Distance 23.37 km</desc>
<time>2012-09-18T15:43:47.30</time>
<name>1206</name>
<sym>Dot</sym>
</trkpt>
<trkpt lat="47.481110" lon="15.699198">
<ele>800.5</ele>
<desc>Speed 101 km/h Distance 23.40 km</desc>
<time>2012-09-18T15:43:48.30</time>
<name>1207</name>
<sym>Dot</sym>
</trkpt>
<trkpt lat="47.481310" lon="15.698963">
<ele>801.0</ele>
<desc>Speed 102 km/h Distance 23.43 km</desc>
<time>2012-09-18T15:43:49.30</time>
<name>1208</name>
<sym>Dot</sym>
</trkpt>
<trkpt lat="47.481503" lon="15.698720">
<ele>801.0</ele>
<desc>Speed 102 km/h Distance 23.46 km</desc>
<time>2012-09-18T15:43:50.28</time>
<name>1209</name>
<sym>Dot</sym>
</trkpt>
<trkpt lat="47.481687" lon="15.698482">
<ele>801.5</ele>
<desc>Speed 98.4 km/h Distance 23.48 km</desc>
<time>2012-09-18T15:43:51.28</time>
<name>1210</name>
<sym>Dot</sym>
</trkpt>
<trkpt lat="47.481853" lon="15.698243">
<ele>801.5</ele>
<desc>Speed 94.0 km/h Distance 23.51 km</desc>
<time>2012-09-18T15:43:52.27</time>
<name>1211</name>
<sym>Dot</sym>
</trkpt>
<trkpt lat="47.482005" lon="15.698005">
<ele>801.5</ele>
<desc>Speed 89.4 km/h Distance 23.54 km</desc>
<time>2012-09-18T15:43:53.27</time>
<name>1212</name>
<sym>Dot</sym>
</trkpt>
<trkpt lat="47.482447" lon="15.697490">
<ele>801.5</ele>
<desc>Speed 78.8 km/h Distance 23.60 km</desc>
<time>2012-09-18T15:43:56.36</time>
<name>1213</name>
<sym>Dot</sym>
</trkpt>
<trkpt lat="47.482622" lon="15.697368">
<ele>801.5</ele>
<desc>Speed 76.7 km/h Distance 23.62 km</desc>
<time>2012-09-18T15:43:57.36</time>
<name>1214</name>
<sym>Dot</sym>
</trkpt>
<trkpt lat="47.482802" lon="15.697285">
<ele>803.0</ele>
<desc>Speed 75.5 km/h Distance 23.64 km</desc>
<time>2012-09-18T15:43:58.35</time>
<name>1215</name>
<sym>Dot</sym>
</trkpt>
<trkpt lat="47.483223" lon="15.697202">
<ele>801.5</ele>
<desc>Speed 85.3 km/h Distance 23.69 km</desc>
<time>2012-09-18T15:44:00.36</time>
<name>1216</name>
<sym>Dot</sym>
</trkpt>
<trkpt lat="47.483438" lon="15.697147">
<ele>802.0</ele>
<desc>Speed 86.8 km/h Distance 23.71 km</desc>
<time>2012-09-18T15:44:01.36</time>
<name>1217</name>
<sym>Dot</sym>
</trkpt>
<trkpt lat="47.483897" lon="15.696932">
<ele>801.5</ele>
<desc>Speed 98.4 km/h Distance 23.77 km</desc>
<time>2012-09-18T15:44:03.34</time>
<name>1218</name>
<sym>Dot</sym>
</trkpt>
<trkpt lat="47.484120" lon="15.696773">
<ele>802.0</ele>
<desc>Speed 99.3 km/h Distance 23.79 km</desc>
<time>2012-09-18T15:44:04.34</time>
<name>1219</name>
<sym>Dot</sym>
</trkpt>
<trkpt lat="47.484352" lon="15.696592">
<ele>801.5</ele>
<desc>Speed 105 km/h Distance 23.82 km</desc>
<time>2012-09-18T15:44:05.34</time>
<name>1220</name>
<sym>Dot</sym>
</trkpt>
<trkpt lat="47.484583" lon="15.696413">
<ele>802.5</ele>
<desc>Speed 104 km/h Distance 23.85 km</desc>
<time>2012-09-18T15:44:06.34</time>
<name>1221</name>
<sym>Dot</sym>
</trkpt>
<trkpt lat="47.484800" lon="15.696240">
<ele>800.5</ele>
<desc>Speed 98.9 km/h Distance 23.88 km</desc>
<time>2012-09-18T15:44:07.33</time>
<name>1222</name>
<sym>Dot</sym>
</trkpt>
<trkpt lat="47.485008" lon="15.696072">
<ele>802.0</ele>
<desc>Speed 95.0 km/h Distance 23.91 km</desc>
<time>2012-09-18T15:44:08.33</time>
<name>1223</name>
<sym>Dot</sym>
</trkpt>
<trkpt lat="47.485197" lon="15.695902">
<ele>802.0</ele>
<desc>Speed 88.7 km/h Distance 23.93 km</desc>
<time>2012-09-18T15:44:09.32</time>
<name>1224</name>
<sym>Dot</sym>
</trkpt>
<trkpt lat="47.485367" lon="15.695730">
<ele>801.5</ele>
<desc>Speed 82.9 km/h Distance 23.95 km</desc>
<time>2012-09-18T15:44:10.31</time>
<name>1225</name>
<sym>Dot</sym>
</trkpt>
<trkpt lat="47.485788" lon="15.695303">
<ele>803.5</ele>
<desc>Speed 63.4 km/h Distance 24.01 km</desc>
<time>2012-09-18T15:44:13.36</time>
<name>1226</name>
<sym>Dot</sym>
</trkpt>
<trkpt lat="47.485923" lon="15.695197">
<ele>804.5</ele>
<desc>Speed 61.1 km/h Distance 24.03 km</desc>
<time>2012-09-18T15:44:14.36</time>
<name>1227</name>
<sym>Dot</sym>
</trkpt>
<trkpt lat="47.486062" lon="15.695103">
<ele>805.5</ele>
<desc>Speed 60.5 km/h Distance 24.04 km</desc>
<time>2012-09-18T15:44:15.35</time>
<name>1228</name>
<sym>Dot</sym>
</trkpt>
<trkpt lat="47.486203" lon="15.695027">
<ele>806.0</ele>
<desc>Speed 60.0 km/h Distance 24.06 km</desc>
<time>2012-09-18T15:44:16.36</time>
<name>1229</name>
<sym>Dot</sym>
</trkpt>
<trkpt lat="47.486345" lon="15.694962">
<ele>807.0</ele>
<desc>Speed 59.4 km/h Distance 24.08 km</desc>
<time>2012-09-18T15:44:17.35</time>
<name>1230</name>
<sym>Dot</sym>
</trkpt>
<trkpt lat="47.486488" lon="15.694898">
<ele>808.0</ele>
<desc>Speed 59.8 km/h Distance 24.09 km</desc>
<time>2012-09-18T15:44:18.36</time>
<name>1231</name>
<sym>Dot</sym>
</trkpt>
<trkpt lat="47.486632" lon="15.694835">
<ele>809.5</ele>
<desc>Speed 60.5 km/h Distance 24.11 km</desc>
<time>2012-09-18T15:44:19.35</time>
<name>1232</name>
<sym>Dot</sym>
</trkpt>
<trkpt lat="47.486780" lon="15.694768">
<ele>810.5</ele>
<desc>Speed 61.1 km/h Distance 24.13 km</desc>
<time>2012-09-18T15:44:20.34</time>
<name>1233</name>
<sym>Dot</sym>
</trkpt>
<trkpt lat="47.486928" lon="15.694703">
<ele>811.5</ele>
<desc>Speed 61.6 km/h Distance 24.14 km</desc>
<time>2012-09-18T15:44:21.33</time>
<name>1234</name>
<sym>Dot</sym>
</trkpt>
<trkpt lat="47.487077" lon="15.694637">
<ele>812.5</ele>
<desc>Speed 61.7 km/h Distance 24.16 km</desc>
<time>2012-09-18T15:44:22.34</time>
<name>1235</name>
<sym>Dot</sym>
</trkpt>
<trkpt lat="47.487223" lon="15.694568">
<ele>813.5</ele>
<desc>Speed 61.5 km/h Distance 24.18 km</desc>
<time>2012-09-18T15:44:23.32</time>
<name>1236</name>
<sym>Dot</sym>
</trkpt>
<trkpt lat="47.487367" lon="15.694502">
<ele>814.5</ele>
<desc>Speed 59.8 km/h Distance 24.20 km</desc>
<time>2012-09-18T15:44:24.32</time>
<name>1237</name>
<sym>Dot</sym>
</trkpt>
<trkpt lat="47.487503" lon="15.694438">
<ele>816.0</ele>
<desc>Speed 57.7 km/h Distance 24.21 km</desc>
<time>2012-09-18T15:44:25.31</time>
<name>1238</name>
<sym>Dot</sym>
</trkpt>
<trkpt lat="47.487638" lon="15.694373">
<ele>817.0</ele>
<desc>Speed 56.3 km/h Distance 24.23 km</desc>
<time>2012-09-18T15:44:26.31</time>
<name>1239</name>
<sym>Dot</sym>
</trkpt>
<trkpt lat="47.487767" lon="15.694308">
<ele>818.0</ele>
<desc>Speed 54.6 km/h Distance 24.24 km</desc>
<time>2012-09-18T15:44:27.29</time>
<name>1240</name>
<sym>Dot</sym>
</trkpt>
<trkpt lat="47.487890" lon="15.694235">
<ele>819.0</ele>
<desc>Speed 53.2 km/h Distance 24.26 km</desc>
<time>2012-09-18T15:44:28.29</time>
<name>1241</name>
<sym>Dot</sym>
</trkpt>
<trkpt lat="47.488007" lon="15.694160">
<ele>819.5</ele>
<desc>Speed 51.8 km/h Distance 24.27 km</desc>
<time>2012-09-18T15:44:29.29</time>
<name>1242</name>
<sym>Dot</sym>
</trkpt>
<trkpt lat="47.488120" lon="15.694080">
<ele>820.5</ele>
<desc>Speed 50.8 km/h Distance 24.29 km</desc>
<time>2012-09-18T15:44:30.28</time>
<name>1243</name>
<sym>Dot</sym>
</trkpt>
<trkpt lat="47.488230" lon="15.693993">
<ele>821.5</ele>
<desc>Speed 49.9 km/h Distance 24.30 km</desc>
<time>2012-09-18T15:44:31.27</time>
<name>1244</name>
<sym>Dot</sym>
</trkpt>
<trkpt lat="47.488333" lon="15.693902">
<ele>822.0</ele>
<desc>Speed 48.8 km/h Distance 24.31 km</desc>
<time>2012-09-18T15:44:32.27</time>
<name>1245</name>
<sym>Dot</sym>
</trkpt>
<trkpt lat="47.488430" lon="15.693808">
<ele>822.0</ele>
<desc>Speed 46.7 km/h Distance 24.33 km</desc>
<time>2012-09-18T15:44:33.26</time>
<name>1246</name>
<sym>Dot</sym>
</trkpt>
<trkpt lat="47.488522" lon="15.693715">
<ele>822.0</ele>
<desc>Speed 45.0 km/h Distance 24.34 km</desc>
<time>2012-09-18T15:44:34.25</time>
<name>1247</name>
<sym>Dot</sym>
</trkpt>
<trkpt lat="47.488615" lon="15.693620">
<ele>822.0</ele>
<desc>Speed 45.4 km/h Distance 24.35 km</desc>
<time>2012-09-18T15:44:35.25</time>
<name>1248</name>
<sym>Dot</sym>
</trkpt>
<trkpt lat="47.488703" lon="15.693525">
<ele>823.0</ele>
<desc>Speed 45.3 km/h Distance 24.36 km</desc>
<time>2012-09-18T15:44:36.25</time>
<name>1249</name>
<sym>Dot</sym>
</trkpt>
<trkpt lat="47.488792" lon="15.693428">
<ele>823.0</ele>
<desc>Speed 44.3 km/h Distance 24.37 km</desc>
<time>2012-09-18T15:44:37.24</time>
<name>1250</name>
<sym>Dot</sym>
</trkpt>
<trkpt lat="47.488875" lon="15.693333">
<ele>823.5</ele>
<desc>Speed 43.7 km/h Distance 24.39 km</desc>
<time>2012-09-18T15:44:38.24</time>
<name>1251</name>
<sym>Dot</sym>
</trkpt>
<trkpt lat="47.488958" lon="15.693235">
<ele>824.0</ele>
<desc>Speed 42.9 km/h Distance 24.40 km</desc>
<time>2012-09-18T15:44:39.23</time>
<name>1252</name>
<sym>Dot</sym>
</trkpt>
<trkpt lat="47.489037" lon="15.693133">
<ele>823.5</ele>
<desc>Speed 42.2 km/h Distance 24.41 km</desc>
<time>2012-09-18T15:44:40.22</time>
<name>1253</name>
<sym>Dot</sym>
</trkpt>
<trkpt lat="47.489112" lon="15.693025">
<ele>823.5</ele>
<desc>Speed 41.7 km/h Distance 24.42 km</desc>
<time>2012-09-18T15:44:41.22</time>
<name>1254</name>
<sym>Dot</sym>
</trkpt>
<trkpt lat="47.489175" lon="15.692908">
<ele>823.0</ele>
<desc>Speed 40.8 km/h Distance 24.43 km</desc>
<time>2012-09-18T15:44:42.22</time>
<name>1255</name>
<sym>Dot</sym>
</trkpt>
<trkpt lat="47.489230" lon="15.692787">
<ele>824.5</ele>
<desc>Speed 40.2 km/h Distance 24.44 km</desc>
<time>2012-09-18T15:44:43.21</time>
<name>1256</name>
<sym>Dot</sym>
</trkpt>
<trkpt lat="47.489277" lon="15.692663">
<ele>825.0</ele>
<desc>Speed 38.5 km/h Distance 24.45 km</desc>
<time>2012-09-18T15:44:44.21</time>
<name>1257</name>
<sym>Dot</sym>
</trkpt>
<trkpt lat="47.489317" lon="15.692538">
<ele>825.0</ele>
<desc>Speed 37.8 km/h Distance 24.47 km</desc>
<time>2012-09-18T15:44:45.21</time>
<name>1258</name>
<sym>Dot</sym>
</trkpt>
<trkpt lat="47.489350" lon="15.692412">
<ele>824.5</ele>
<desc>Speed 37.1 km/h Distance 24.48 km</desc>
<time>2012-09-18T15:44:46.20</time>
<name>1259</name>
<sym>Dot</sym>
</trkpt>
<trkpt lat="47.489382" lon="15.692285">
<ele>825.0</ele>
<desc>Speed 36.8 km/h Distance 24.49 km</desc>
<time>2012-09-18T15:44:47.20</time>
<name>1260</name>
<sym>Dot</sym>
</trkpt>
<trkpt lat="47.489415" lon="15.692158">
<ele>826.0</ele>
<desc>Speed 36.9 km/h Distance 24.50 km</desc>
<time>2012-09-18T15:44:48.19</time>
<name>1261</name>
<sym>Dot</sym>
</trkpt>
<trkpt lat="47.489440" lon="15.692030">
<ele>826.5</ele>
<desc>Speed 36.5 km/h Distance 24.51 km</desc>
<time>2012-09-18T15:44:49.19</time>
<name>1262</name>
<sym>Dot</sym>
</trkpt>
<trkpt lat="47.489457" lon="15.691895">
<ele>828.5</ele>
<desc>Speed 37.5 km/h Distance 24.52 km</desc>
<time>2012-09-18T15:44:50.18</time>
<name>1263</name>
<sym>Dot</sym>
</trkpt>
<trkpt lat="47.489455" lon="15.691760">
<ele>829.0</ele>
<desc>Speed 37.1 km/h Distance 24.53 km</desc>
<time>2012-09-18T15:44:51.19</time>
<name>1264</name>
<sym>Dot</sym>
</trkpt>
<trkpt lat="47.489437" lon="15.691625">
<ele>830.0</ele>
<desc>Speed 37.7 km/h Distance 24.54 km</desc>
<time>2012-09-18T15:44:52.18</time>
<name>1265</name>
<sym>Dot</sym>
</trkpt>
<trkpt lat="47.489402" lon="15.691488">
<ele>831.0</ele>
<desc>Speed 40.2 km/h Distance 24.55 km</desc>
<time>2012-09-18T15:44:53.18</time>
<name>1266</name>
<sym>Dot</sym>
</trkpt>
<trkpt lat="47.489365" lon="15.691353">
<ele>832.0</ele>
<desc>Speed 39.7 km/h Distance 24.56 km</desc>
<time>2012-09-18T15:44:54.18</time>
<name>1267</name>
<sym>Dot</sym>
</trkpt>
<trkpt lat="47.489337" lon="15.691235">
<ele>832.0</ele>
<desc>Speed 34.8 km/h Distance 24.57 km</desc>
<time>2012-09-18T15:44:55.19</time>
<name>1268</name>
<sym>Dot</sym>
</trkpt>
<trkpt lat="47.489317" lon="15.691127">
<ele>831.5</ele>
<desc>Speed 31.0 km/h Distance 24.58 km</desc>
<time>2012-09-18T15:44:56.17</time>
<name>1269</name>
<sym>Dot</sym>
</trkpt>
<trkpt lat="47.489315" lon="15.691030">
<ele>832.0</ele>
<desc>Speed 26.6 km/h Distance 24.58 km</desc>
<time>2012-09-18T15:44:57.17</time>
<name>1270</name>
<sym>Dot</sym>
</trkpt>
<trkpt lat="47.489332" lon="15.690943">
<ele>832.5</ele>
<desc>Speed 24.9 km/h Distance 24.59 km</desc>
<time>2012-09-18T15:44:58.17</time>
<name>1271</name>
<sym>Dot</sym>
</trkpt>
<trkpt lat="47.489383" lon="15.690897">
<ele>833.5</ele>
<desc>Speed 24.2 km/h Distance 24.60 km</desc>
<time>2012-09-18T15:44:59.16</time>
<name>1272</name>
<sym>Dot</sym>
</trkpt>
<trkpt lat="47.489440" lon="15.690868">
<ele>832.5</ele>
<desc>Speed 23.4 km/h Distance 24.60 km</desc>
<time>2012-09-18T15:45:00.16</time>
<name>1273</name>
<sym>Dot</sym>
</trkpt>
<trkpt lat="47.489510" lon="15.690883">
<ele>831.0</ele>
<desc>Speed 28.1 km/h Distance 24.61 km</desc>
<time>2012-09-18T15:45:01.15</time>
<name>1274</name>
<sym>Dot</sym>
</trkpt>
<trkpt lat="47.489562" lon="15.690925">
<ele>830.5</ele>
<desc>Speed 23.9 km/h Distance 24.62 km</desc>
<time>2012-09-18T15:45:02.14</time>
<name>1275</name>
<sym>Dot</sym>
</trkpt>
<trkpt lat="47.489603" lon="15.691015">
<ele>830.5</ele>
<desc>Speed 29.1 km/h Distance 24.63 km</desc>
<time>2012-09-18T15:45:03.14</time>
<name>1276</name>
<sym>Dot</sym>
</trkpt>
<trkpt lat="47.489645" lon="15.691122">
<ele>831.0</ele>
<desc>Speed 33.2 km/h Distance 24.64 km</desc>
<time>2012-09-18T15:45:04.14</time>
<name>1277</name>
<sym>Dot</sym>
</trkpt>
<trkpt lat="47.489758" lon="15.691377">
<ele>831.5</ele>
<desc>Speed 42.2 km/h Distance 24.66 km</desc>
<time>2012-09-18T15:45:06.13</time>
<name>1278</name>
<sym>Dot</sym>
</trkpt>
<trkpt lat="47.489835" lon="15.691473">
<ele>833.0</ele>
<desc>Speed 40.1 km/h Distance 24.67 km</desc>
<time>2012-09-18T15:45:07.15</time>
<name>1279</name>
<sym>Dot</sym>
</trkpt>
<trkpt lat="47.489940" lon="15.691537">
<ele>833.5</ele>
<desc>Speed 45.6 km/h Distance 24.68 km</desc>
<time>2012-09-18T15:45:08.11</time>
<name>1280</name>
<sym>Dot</sym>
</trkpt>
<trkpt lat="47.490057" lon="15.691558">
<ele>833.5</ele>
<desc>Speed 47.2 km/h Distance 24.70 km</desc>
<time>2012-09-18T15:45:09.11</time>
<name>1281</name>
<sym>Dot</sym>
</trkpt>
<trkpt lat="47.490187" lon="15.691522">
<ele>832.5</ele>
<desc>Speed 52.6 km/h Distance 24.71 km</desc>
<time>2012-09-18T15:45:10.10</time>
<name>1282</name>
<sym>Dot</sym>
</trkpt>
<trkpt lat="47.490312" lon="15.691427">
<ele>830.5</ele>
<desc>Speed 56.3 km/h Distance 24.73 km</desc>
<time>2012-09-18T15:45:11.11</time>
<name>1283</name>
<sym>Dot</sym>
</trkpt>
<trkpt lat="47.490522" lon="15.691120">
<ele>830.5</ele>
<desc>Speed 57.3 km/h Distance 24.76 km</desc>
<time>2012-09-18T15:45:13.10</time>
<name>1284</name>
<sym>Dot</sym>
</trkpt>
<trkpt lat="47.490782" lon="15.690438">
<ele>830.5</ele>
<desc>Speed 75.7 km/h Distance 24.82 km</desc>
<time>2012-09-18T15:45:16.37</time>
<name>1285</name>
<sym>Dot</sym>
</trkpt>
<trkpt lat="47.490870" lon="15.690188">
<ele>831.0</ele>
<desc>Speed 76.9 km/h Distance 24.84 km</desc>
<time>2012-09-18T15:45:17.36</time>
<name>1286</name>
<sym>Dot</sym>
</trkpt>
<trkpt lat="47.490960" lon="15.689927">
<ele>832.5</ele>
<desc>Speed 80.0 km/h Distance 24.86 km</desc>
<time>2012-09-18T15:45:18.36</time>
<name>1287</name>
<sym>Dot</sym>
</trkpt>
<trkpt lat="47.491050" lon="15.689655">
<ele>834.5</ele>
<desc>Speed 83.0 km/h Distance 24.88 km</desc>
<time>2012-09-18T15:45:19.35</time>
<name>1288</name>
<sym>Dot</sym>
</trkpt>
<trkpt lat="47.491150" lon="15.689378">
<ele>835.0</ele>
<desc>Speed 85.6 km/h Distance 24.91 km</desc>
<time>2012-09-18T15:45:20.34</time>
<name>1289</name>
<sym>Dot</sym>
</trkpt>
<trkpt lat="47.491235" lon="15.689103">
<ele>836.0</ele>
<desc>Speed 82.1 km/h Distance 24.93 km</desc>
<time>2012-09-18T15:45:21.34</time>
<name>1290</name>
<sym>Dot</sym>
</trkpt>
<trkpt lat="47.491348" lon="15.688832">
<ele>836.0</ele>
<desc>Speed 86.9 km/h Distance 24.95 km</desc>
<time>2012-09-18T15:45:22.33</time>
<name>1291</name>
<sym>Dot</sym>
</trkpt>
<trkpt lat="47.491462" lon="15.688558">
<ele>836.5</ele>
<desc>Speed 87.5 km/h Distance 24.98 km</desc>
<time>2012-09-18T15:45:23.33</time>
<name>1292</name>
<sym>Dot</sym>
</trkpt>
<trkpt lat="47.491572" lon="15.688300">
<ele>837.5</ele>
<desc>Speed 84.6 km/h Distance 25.00 km</desc>
<time>2012-09-18T15:45:24.32</time>
<name>1293</name>
<sym>Dot</sym>
</trkpt>
<trkpt lat="47.491678" lon="15.688058">
<ele>839.0</ele>
<desc>Speed 80.5 km/h Distance 25.02 km</desc>
<time>2012-09-18T15:45:25.32</time>
<name>1294</name>
<sym>Dot</sym>
</trkpt>
<trkpt lat="47.491785" lon="15.687830">
<ele>840.5</ele>
<desc>Speed 75.4 km/h Distance 25.04 km</desc>
<time>2012-09-18T15:45:26.31</time>
<name>1295</name>
<sym>Dot</sym>
</trkpt>
<trkpt lat="47.491902" lon="15.687622">
<ele>841.5</ele>
<desc>Speed 74.8 km/h Distance 25.06 km</desc>
<time>2012-09-18T15:45:27.31</time>
<name>1296</name>
<sym>Dot</sym>
</trkpt>
<trkpt lat="47.492035" lon="15.687430">
<ele>844.5</ele>
<desc>Speed 74.8 km/h Distance 25.08 km</desc>
<time>2012-09-18T15:45:28.30</time>
<name>1297</name>
<sym>Dot</sym>
</trkpt>
<trkpt lat="47.492213" lon="15.687290">
<ele>847.0</ele>
<desc>Speed 81.7 km/h Distance 25.11 km</desc>
<time>2012-09-18T15:45:29.30</time>
<name>1298</name>
<sym>Dot</sym>
</trkpt>
<trkpt lat="47.492378" lon="15.687147">
<ele>848.5</ele>
<desc>Speed 77.0 km/h Distance 25.13 km</desc>
<time>2012-09-18T15:45:30.30</time>
<name>1299</name>
<sym>Dot</sym>
</trkpt>
<trkpt lat="47.492665" lon="15.686867">
<ele>855.5</ele>
<desc>Speed 69.3 km/h Distance 25.17 km</desc>
<time>2012-09-18T15:45:32.28</time>
<name>1300</name>
<sym>Dot</sym>
</trkpt>
<trkpt lat="47.492782" lon="15.686648">
<ele>856.0</ele>
<desc>Speed 75.4 km/h Distance 25.19 km</desc>
<time>2012-09-18T15:45:33.28</time>
<name>1301</name>
<sym>Dot</sym>
</trkpt>
<trkpt lat="47.492868" lon="15.686400">
<ele>858.0</ele>
<desc>Speed 76.5 km/h Distance 25.21 km</desc>
<time>2012-09-18T15:45:34.28</time>
<name>1302</name>
<sym>Dot</sym>
</trkpt>
<trkpt lat="47.492928" lon="15.686130">
<ele>859.0</ele>
<desc>Speed 77.9 km/h Distance 25.23 km</desc>
<time>2012-09-18T15:45:35.28</time>
<name>1303</name>
<sym>Dot</sym>
</trkpt>
<trkpt lat="47.493078" lon="15.685670">
<ele>862.0</ele>
<desc>Speed 72.2 km/h Distance 25.27 km</desc>
<time>2012-09-18T15:45:37.27</time>
<name>1304</name>
<sym>Dot</sym>
</trkpt>
<trkpt lat="47.493557" lon="15.685017">
<ele>862.0</ele>
<desc>Speed 88.6 km/h Distance 25.34 km</desc>
<time>2012-09-18T15:45:40.37</time>
<name>1305</name>
<sym>Dot</sym>
</trkpt>
<trkpt lat="47.493732" lon="15.684790">
<ele>862.0</ele>
<desc>Speed 93.1 km/h Distance 25.37 km</desc>
<time>2012-09-18T15:45:41.36</time>
<name>1306</name>
<sym>Dot</sym>
</trkpt>
<trkpt lat="47.493913" lon="15.684557">
<ele>864.0</ele>
<desc>Speed 96.5 km/h Distance 25.39 km</desc>
<time>2012-09-18T15:45:42.36</time>
<name>1307</name>
<sym>Dot</sym>
</trkpt>
<trkpt lat="47.494088" lon="15.684325">
<ele>864.5</ele>
<desc>Speed 94.1 km/h Distance 25.42 km</desc>
<time>2012-09-18T15:45:43.36</time>
<name>1308</name>
<sym>Dot</sym>
</trkpt>
<trkpt lat="47.494237" lon="15.684082">
<ele>864.5</ele>
<desc>Speed 88.9 km/h Distance 25.44 km</desc>
<time>2012-09-18T15:45:44.35</time>
<name>1309</name>
<sym>Dot</sym>
</trkpt>
<trkpt lat="47.494383" lon="15.683830">
<ele>866.0</ele>
<desc>Speed 90.2 km/h Distance 25.47 km</desc>
<time>2012-09-18T15:45:45.35</time>
<name>1310</name>
<sym>Dot</sym>
</trkpt>
<trkpt lat="47.494508" lon="15.683557">
<ele>866.5</ele>
<desc>Speed 89.3 km/h Distance 25.49 km</desc>
<time>2012-09-18T15:45:46.35</time>
<name>1311</name>
<sym>Dot</sym>
</trkpt>
<trkpt lat="47.494630" lon="15.683305">
<ele>867.0</ele>
<desc>Speed 84.2 km/h Distance 25.52 km</desc>
<time>2012-09-18T15:45:47.35</time>
<name>1312</name>
<sym>Dot</sym>
</trkpt>
<trkpt lat="47.494867" lon="15.682898">
<ele>869.5</ele>
<desc>Speed 72.8 km/h Distance 25.56 km</desc>
<time>2012-09-18T15:45:49.34</time>
<name>1313</name>
<sym>Dot</sym>
</trkpt>
<trkpt lat="47.495018" lon="15.682725">
<ele>870.5</ele>
<desc>Speed 76.2 km/h Distance 25.58 km</desc>
<time>2012-09-18T15:45:50.33</time>
<name>1314</name>
<sym>Dot</sym>
</trkpt>
<trkpt lat="47.495187" lon="15.682585">
<ele>872.0</ele>
<desc>Speed 77.1 km/h Distance 25.60 km</desc>
<time>2012-09-18T15:45:51.33</time>
<name>1315</name>
<sym>Dot</sym>
</trkpt>
<trkpt lat="47.495365" lon="15.682468">
<ele>876.0</ele>
<desc>Speed 76.8 km/h Distance 25.62 km</desc>
<time>2012-09-18T15:45:52.32</time>
<name>1316</name>
<sym>Dot</sym>
</trkpt>
<trkpt lat="47.495535" lon="15.682345">
<ele>878.0</ele>
<desc>Speed 74.8 km/h Distance 25.64 km</desc>
<time>2012-09-18T15:45:53.32</time>
<name>1317</name>
<sym>Dot</sym>
</trkpt>
<trkpt lat="47.495678" lon="15.682200">
<ele>880.0</ele>
<desc>Speed 70.3 km/h Distance 25.66 km</desc>
<time>2012-09-18T15:45:54.31</time>
<name>1318</name>
<sym>Dot</sym>
</trkpt>
<trkpt lat="47.495865" lon="15.681840">
<ele>884.5</ele>
<desc>Speed 63.7 km/h Distance 25.70 km</desc>
<time>2012-09-18T15:45:56.31</time>
<name>1319</name>
<sym>Dot</sym>
</trkpt>
<trkpt lat="47.495925" lon="15.681630">
<ele>888.5</ele>
<desc>Speed 63.4 km/h Distance 25.71 km</desc>
<time>2012-09-18T15:45:57.31</time>
<name>1320</name>
<sym>Dot</sym>
</trkpt>
<trkpt lat="47.495948" lon="15.681387">
<ele>890.0</ele>
<desc>Speed 67.6 km/h Distance 25.73 km</desc>
<time>2012-09-18T15:45:58.30</time>
<name>1321</name>
<sym>Dot</sym>
</trkpt>
<trkpt lat="47.495953" lon="15.681133">
<ele>891.5</ele>
<desc>Speed 69.7 km/h Distance 25.75 km</desc>
<time>2012-09-18T15:45:59.30</time>
<name>1322</name>
<sym>Dot</sym>
</trkpt>
<trkpt lat="47.495943" lon="15.680887">
<ele>891.5</ele>
<desc>Speed 67.4 km/h Distance 25.77 km</desc>
<time>2012-09-18T15:46:00.29</time>
<name>1323</name>
<sym>Dot</sym>
</trkpt>
<trkpt lat="47.495893" lon="15.680638">
<ele>893.5</ele>
<desc>Speed 71.4 km/h Distance 25.79 km</desc>
<time>2012-09-18T15:46:01.28</time>
<name>1324</name>
<sym>Dot</sym>
</trkpt>
<trkpt lat="47.495817" lon="15.680425">
<ele>896.0</ele>
<desc>Speed 67.1 km/h Distance 25.81 km</desc>
<time>2012-09-18T15:46:02.27</time>
<name>1325</name>
<sym>Dot</sym>
</trkpt>
<trkpt lat="47.495718" lon="15.680225">
<ele>897.5</ele>
<desc>Speed 67.8 km/h Distance 25.83 km</desc>
<time>2012-09-18T15:46:03.27</time>
<name>1326</name>
<sym>Dot</sym>
</trkpt>
<trkpt lat="47.495453" lon="15.679833">
<ele>900.0</ele>
<desc>Speed 75.1 km/h Distance 25.87 km</desc>
<time>2012-09-18T15:46:05.27</time>
<name>1327</name>
<sym>Dot</sym>
</trkpt>
<trkpt lat="47.495337" lon="15.679635">
<ele>900.5</ele>
<desc>Speed 71.9 km/h Distance 25.89 km</desc>
<time>2012-09-18T15:46:06.26</time>
<name>1328</name>
<sym>Dot</sym>
</trkpt>
<trkpt lat="47.495240" lon="15.679425">
<ele>900.5</ele>
<desc>Speed 69.7 km/h Distance 25.91 km</desc>
<time>2012-09-18T15:46:07.28</time>
<name>1329</name>
<sym>Dot</sym>
</trkpt>
<trkpt lat="47.495163" lon="15.679195">
<ele>901.0</ele>
<desc>Speed 70.4 km/h Distance 25.93 km</desc>
<time>2012-09-18T15:46:08.26</time>
<name>1330</name>
<sym>Dot</sym>
</trkpt>
<trkpt lat="47.495113" lon="15.678925">
<ele>901.0</ele>
<desc>Speed 76.4 km/h Distance 25.95 km</desc>
<time>2012-09-18T15:46:09.25</time>
<name>1331</name>
<sym>Dot</sym>
</trkpt>
<trkpt lat="47.495078" lon="15.678627">
<ele>902.0</ele>
<desc>Speed 82.3 km/h Distance 25.97 km</desc>
<time>2012-09-18T15:46:10.25</time>
<name>1332</name>
<sym>Dot</sym>
</trkpt>
<trkpt lat="47.495058" lon="15.678315">
<ele>902.0</ele>
<desc>Speed 85.6 km/h Distance 25.99 km</desc>
<time>2012-09-18T15:46:11.25</time>
<name>1333</name>
<sym>Dot</sym>
</trkpt>
<trkpt lat="47.495033" lon="15.678020">
<ele>902.5</ele>
<desc>Speed 80.6 km/h Distance 26.02 km</desc>
<time>2012-09-18T15:46:12.24</time>
<name>1334</name>
<sym>Dot</sym>
</trkpt>
<trkpt lat="47.495020" lon="15.677510">
<ele>901.5</ele>
<desc>Speed 69.9 km/h Distance 26.05 km</desc>
<time>2012-09-18T15:46:14.24</time>
<name>1335</name>
<sym>Dot</sym>
</trkpt>
<trkpt lat="47.495042" lon="15.677267">
<ele>903.5</ele>
<desc>Speed 66.9 km/h Distance 26.07 km</desc>
<time>2012-09-18T15:46:15.23</time>
<name>1336</name>
<sym>Dot</sym>
</trkpt>
<trkpt lat="47.495090" lon="15.677025">
<ele>906.5</ele>
<desc>Speed 69.4 km/h Distance 26.09 km</desc>
<time>2012-09-18T15:46:16.23</time>
<name>1337</name>
<sym>Dot</sym>
</trkpt>
<trkpt lat="47.495585" lon="15.675945">
<ele>921.0</ele>
<desc>Speed 94.1 km/h Distance 26.19 km</desc>
<time>2012-09-18T15:46:20.37</time>
<name>1338</name>
<sym>Dot</sym>
</trkpt>
<trkpt lat="47.495737" lon="15.675658">
<ele>923.0</ele>
<desc>Speed 98.0 km/h Distance 26.22 km</desc>
<time>2012-09-18T15:46:21.36</time>
<name>1339</name>
<sym>Dot</sym>
</trkpt>
<trkpt lat="47.495877" lon="15.675368">
<ele>926.5</ele>
<desc>Speed 97.3 km/h Distance 26.24 km</desc>
<time>2012-09-18T15:46:22.36</time>
<name>1340</name>
<sym>Dot</sym>
</trkpt>
<trkpt lat="47.496003" lon="15.675082">
<ele>929.5</ele>
<desc>Speed 92.0 km/h Distance 26.27 km</desc>
<time>2012-09-18T15:46:23.35</time>
<name>1341</name>
<sym>Dot</sym>
</trkpt>
<trkpt lat="47.496140" lon="15.674503">
<ele>936.5</ele>
<desc>Speed 86.2 km/h Distance 26.32 km</desc>
<time>2012-09-18T15:46:25.34</time>
<name>1342</name>
<sym>Dot</sym>
</trkpt>
<trkpt lat="47.496153" lon="15.673943">
<ele>938.5</ele>
<desc>Speed 76.2 km/h Distance 26.36 km</desc>
<time>2012-09-18T15:46:27.33</time>
<name>1343</name>
<sym>Dot</sym>
</trkpt>
<trkpt lat="47.496128" lon="15.673658">
<ele>940.0</ele>
<desc>Speed 78.4 km/h Distance 26.38 km</desc>
<time>2012-09-18T15:46:28.32</time>
<name>1344</name>
<sym>Dot</sym>
</trkpt>
<trkpt lat="47.496032" lon="15.673043">
<ele>945.5</ele>
<desc>Speed 84.9 km/h Distance 26.43 km</desc>
<time>2012-09-18T15:46:30.31</time>
<name>1345</name>
<sym>Dot</sym>
</trkpt>
<trkpt lat="47.496032" lon="15.672733">
<ele>946.0</ele>
<desc>Speed 83.8 km/h Distance 26.45 km</desc>
<time>2012-09-18T15:46:31.31</time>
<name>1346</name>
<sym>Dot</sym>
</trkpt>
<trkpt lat="47.496052" lon="15.672050">
<ele>947.5</ele>
<desc>Speed 94.4 km/h Distance 26.50 km</desc>
<time>2012-09-18T15:46:33.31</time>
<name>1347</name>
<sym>Dot</sym>
</trkpt>
<trkpt lat="47.496087" lon="15.671300">
<ele>948.0</ele>
<desc>Speed 103 km/h Distance 26.56 km</desc>
<time>2012-09-18T15:46:35.31</time>
<name>1348</name>
<sym>Dot</sym>
</trkpt>
<trkpt lat="47.496103" lon="15.670913">
<ele>948.5</ele>
<desc>Speed 106 km/h Distance 26.59 km</desc>
<time>2012-09-18T15:46:36.30</time>
<name>1349</name>
<sym>Dot</sym>
</trkpt>
<trkpt lat="47.496120" lon="15.670517">
<ele>949.5</ele>
<desc>Speed 109 km/h Distance 26.62 km</desc>
<time>2012-09-18T15:46:37.30</time>
<name>1350</name>
<sym>Dot</sym>
</trkpt>
<trkpt lat="47.496133" lon="15.670138">
<ele>951.5</ele>
<desc>Speed 104 km/h Distance 26.65 km</desc>
<time>2012-09-18T15:46:38.30</time>
<name>1351</name>
<sym>Dot</sym>
</trkpt>
<trkpt lat="47.496150" lon="15.669773">
<ele>955.5</ele>
<desc>Speed 100 km/h Distance 26.67 km</desc>
<time>2012-09-18T15:46:39.28</time>
<name>1352</name>
<sym>Dot</sym>
</trkpt>
<trkpt lat="47.496175" lon="15.669428">
<ele>969.0</ele>
<desc>Speed 98.1 km/h Distance 26.70 km</desc>
<time>2012-09-18T15:46:40.28</time>
<name>1353</name>
<sym>Dot</sym>
</trkpt>
<trkpt lat="47.496240" lon="15.669080">
<ele>972.0</ele>
<desc>Speed 99.3 km/h Distance 26.73 km</desc>
<time>2012-09-18T15:46:41.28</time>
<name>1354</name>
<sym>Dot</sym>
</trkpt>
<trkpt lat="47.496318" lon="15.668727">
<ele>978.0</ele>
<desc>Speed 103 km/h Distance 26.76 km</desc>
<time>2012-09-18T15:46:42.28</time>
<name>1355</name>
<sym>Dot</sym>
</trkpt>
<trkpt lat="47.496407" lon="15.668377">
<ele>978.5</ele>
<desc>Speed 101 km/h Distance 26.78 km</desc>
<time>2012-09-18T15:46:43.27</time>
<name>1356</name>
<sym>Dot</sym>
</trkpt>
<trkpt lat="47.496487" lon="15.668022">
<ele>981.0</ele>
<desc>Speed 102 km/h Distance 26.81 km</desc>
<time>2012-09-18T15:46:44.26</time>
<name>1357</name>
<sym>Dot</sym>
</trkpt>
<trkpt lat="47.496530" lon="15.667647">
<ele>985.5</ele>
<desc>Speed 101 km/h Distance 26.84 km</desc>
<time>2012-09-18T15:46:45.26</time>
<name>1358</name>
<sym>Dot</sym>
</trkpt>
<trkpt lat="47.496568" lon="15.667278">
<ele>990.5</ele>
<desc>Speed 99.4 km/h Distance 26.87 km</desc>
<time>2012-09-18T15:46:46.25</time>
<name>1359</name>
<sym>Dot</sym>
</trkpt>
<trkpt lat="47.496610" lon="15.666920">
<ele>992.5</ele>
<desc>Speed 98.7 km/h Distance 26.90 km</desc>
<time>2012-09-18T15:46:47.24</time>
<name>1360</name>
<sym>Dot</sym>
</trkpt>
<trkpt lat="47.496667" lon="15.666572">
<ele>993.0</ele>
<desc>Speed 97.5 km/h Distance 26.92 km</desc>
<time>2012-09-18T15:46:48.24</time>
<name>1361</name>
<sym>Dot</sym>
</trkpt>
<trkpt lat="47.496732" lon="15.666233">
<ele>993.5</ele>
<desc>Speed 95.8 km/h Distance 26.95 km</desc>
<time>2012-09-18T15:46:49.23</time>
<name>1362</name>
<sym>Dot</sym>
</trkpt>
<trkpt lat="47.496795" lon="15.665903">
<ele>996.0</ele>
<desc>Speed 93.3 km/h Distance 26.97 km</desc>
<time>2012-09-18T15:46:50.23</time>
<name>1363</name>
<sym>Dot</sym>
</trkpt>
<trkpt lat="47.496843" lon="15.665578">
<ele>999.0</ele>
<desc>Speed 91.3 km/h Distance 27.00 km</desc>
<time>2012-09-18T15:46:51.22</time>
<name>1364</name>
<sym>Dot</sym>
</trkpt>
<trkpt lat="47.496852" lon="15.665235">
<ele>1000.0</ele>
<desc>Speed 93.9 km/h Distance 27.03 km</desc>
<time>2012-09-18T15:46:52.22</time>
<name>1365</name>
<sym>Dot</sym>
</trkpt>
<trkpt lat="47.496855" lon="15.664878">
<ele>1003.5</ele>
<desc>Speed 96.1 km/h Distance 27.05 km</desc>
<time>2012-09-18T15:46:53.21</time>
<name>1366</name>
<sym>Dot</sym>
</trkpt>
<trkpt lat="47.496812" lon="15.664117">
<ele>1010.0</ele>
<desc>Speed 103 km/h Distance 27.11 km</desc>
<time>2012-09-18T15:46:55.21</time>
<name>1367</name>
<sym>Dot</sym>
</trkpt>
<trkpt lat="47.496790" lon="15.663740">
<ele>1011.5</ele>
<desc>Speed 103 km/h Distance 27.14 km</desc>
<time>2012-09-18T15:46:56.20</time>
<name>1368</name>
<sym>Dot</sym>
</trkpt>
<trkpt lat="47.496772" lon="15.663360">
<ele>1012.0</ele>
<desc>Speed 104 km/h Distance 27.17 km</desc>
<time>2012-09-18T15:46:57.20</time>
<name>1369</name>
<sym>Dot</sym>
</trkpt>
<trkpt lat="47.496748" lon="15.662977">
<ele>1012.0</ele>
<desc>Speed 105 km/h Distance 27.20 km</desc>
<time>2012-09-18T15:46:58.20</time>
<name>1370</name>
<sym>Dot</sym>
</trkpt>
<trkpt lat="47.496727" lon="15.662585">
<ele>1012.0</ele>
<desc>Speed 107 km/h Distance 27.23 km</desc>
<time>2012-09-18T15:46:59.20</time>
<name>1371</name>
<sym>Dot</sym>
</trkpt>
<trkpt lat="47.496700" lon="15.662200">
<ele>1012.5</ele>
<desc>Speed 105 km/h Distance 27.25 km</desc>
<time>2012-09-18T15:47:00.19</time>
<name>1372</name>
<sym>Dot</sym>
</trkpt>
<trkpt lat="47.496677" lon="15.661822">
<ele>1012.5</ele>
<desc>Speed 103 km/h Distance 27.28 km</desc>
<time>2012-09-18T15:47:01.19</time>
<name>1373</name>
<sym>Dot</sym>
</trkpt>
<trkpt lat="47.496650" lon="15.661463">
<ele>1012.5</ele>
<desc>Speed 97.8 km/h Distance 27.31 km</desc>
<time>2012-09-18T15:47:02.18</time>
<name>1374</name>
<sym>Dot</sym>
</trkpt>
<trkpt lat="47.496628" lon="15.661105">
<ele>1014.5</ele>
<desc>Speed 97.9 km/h Distance 27.34 km</desc>
<time>2012-09-18T15:47:03.16</time>
<name>1375</name>
<sym>Dot</sym>
</trkpt>
<trkpt lat="47.496607" lon="15.660757">
<ele>1016.5</ele>
<desc>Speed 94.8 km/h Distance 27.36 km</desc>
<time>2012-09-18T15:47:04.16</time>
<name>1376</name>
<sym>Dot</sym>
</trkpt>
<trkpt lat="47.496587" lon="15.660428">
<ele>1016.5</ele>
<desc>Speed 89.6 km/h Distance 27.39 km</desc>
<time>2012-09-18T15:47:05.16</time>
<name>1377</name>
<sym>Dot</sym>
</trkpt>
<trkpt lat="47.496570" lon="15.660120">
<ele>1018.0</ele>
<desc>Speed 84.4 km/h Distance 27.41 km</desc>
<time>2012-09-18T15:47:06.15</time>
<name>1378</name>
<sym>Dot</sym>
</trkpt>
<trkpt lat="47.496562" lon="15.659822">
<ele>1019.5</ele>
<desc>Speed 81.3 km/h Distance 27.43 km</desc>
<time>2012-09-18T15:47:07.15</time>
<name>1379</name>
<sym>Dot</sym>
</trkpt>
<trkpt lat="47.496560" lon="15.659523">
<ele>1021.0</ele>
<desc>Speed 81.0 km/h Distance 27.46 km</desc>
<time>2012-09-18T15:47:08.13</time>
<name>1380</name>
<sym>Dot</sym>
</trkpt>
<trkpt lat="47.496562" lon="15.659232">
<ele>1025.0</ele>
<desc>Speed 80.4 km/h Distance 27.48 km</desc>
<time>2012-09-18T15:47:09.12</time>
<name>1381</name>
<sym>Dot</sym>
</trkpt>
<trkpt lat="47.496575" lon="15.658952">
<ele>1028.5</ele>
<desc>Speed 77.8 km/h Distance 27.50 km</desc>
<time>2012-09-18T15:47:10.12</time>
<name>1382</name>
<sym>Dot</sym>
</trkpt>
<trkpt lat="47.496600" lon="15.658685">
<ele>1030.0</ele>
<desc>Speed 73.3 km/h Distance 27.52 km</desc>
<time>2012-09-18T15:47:11.11</time>
<name>1383</name>
<sym>Dot</sym>
</trkpt>
<trkpt lat="47.496637" lon="15.658425">
<ele>1032.0</ele>
<desc>Speed 72.5 km/h Distance 27.54 km</desc>
<time>2012-09-18T15:47:12.11</time>
<name>1384</name>
<sym>Dot</sym>
</trkpt>
<trkpt lat="47.496685" lon="15.658165">
<ele>1034.0</ele>
<desc>Speed 73.8 km/h Distance 27.56 km</desc>
<time>2012-09-18T15:47:13.11</time>
<name>1385</name>
<sym>Dot</sym>
</trkpt>
<trkpt lat="47.496742" lon="15.657902">
<ele>1036.0</ele>
<desc>Speed 76.0 km/h Distance 27.58 km</desc>
<time>2012-09-18T15:47:14.11</time>
<name>1386</name>
<sym>Dot</sym>
</trkpt>
<trkpt lat="47.496805" lon="15.657625">
<ele>1038.0</ele>
<desc>Speed 79.1 km/h Distance 27.60 km</desc>
<time>2012-09-18T15:47:15.10</time>
<name>1387</name>
<sym>Dot</sym>
</trkpt>
<trkpt lat="47.496873" lon="15.657338">
<ele>1039.5</ele>
<desc>Speed 83.3 km/h Distance 27.63 km</desc>
<time>2012-09-18T15:47:16.11</time>
<name>1388</name>
<sym>Dot</sym>
</trkpt>
<trkpt lat="47.496947" lon="15.657033">
<ele>1040.5</ele>
<desc>Speed 88.3 km/h Distance 27.65 km</desc>
<time>2012-09-18T15:47:17.10</time>
<name>1389</name>
<sym>Dot</sym>
</trkpt>
<trkpt lat="47.497023" lon="15.656713">
<ele>1041.5</ele>
<desc>Speed 92.9 km/h Distance 27.68 km</desc>
<time>2012-09-18T15:47:18.09</time>
<name>1390</name>
<sym>Dot</sym>
</trkpt>
<trkpt lat="47.497107" lon="15.656375">
<ele>1043.0</ele>
<desc>Speed 98.0 km/h Distance 27.70 km</desc>
<time>2012-09-18T15:47:19.08</time>
<name>1391</name>
<sym>Dot</sym>
</trkpt>
<trkpt lat="47.497195" lon="15.656020">
<ele>1045.0</ele>
<desc>Speed 103 km/h Distance 27.73 km</desc>
<time>2012-09-18T15:47:20.07</time>
<name>1392</name>
<sym>Dot</sym>
</trkpt>
<trkpt lat="47.497287" lon="15.655655">
<ele>1046.5</ele>
<desc>Speed 106 km/h Distance 27.76 km</desc>
<time>2012-09-18T15:47:21.08</time>
<name>1393</name>
<sym>Dot</sym>
</trkpt>
<trkpt lat="47.497380" lon="15.655293">
<ele>1048.5</ele>
<desc>Speed 105 km/h Distance 27.79 km</desc>
<time>2012-09-18T15:47:22.08</time>
<name>1394</name>
<sym>Dot</sym>
</trkpt>
<trkpt lat="47.497475" lon="15.654928">
<ele>1050.5</ele>
<desc>Speed 106 km/h Distance 27.82 km</desc>
<time>2012-09-18T15:47:23.07</time>
<name>1395</name>
<sym>Dot</sym>
</trkpt>
<trkpt lat="47.497580" lon="15.654562">
<ele>1051.0</ele>
<desc>Speed 108 km/h Distance 27.85 km</desc>
<time>2012-09-18T15:47:24.07</time>
<name>1396</name>
<sym>Dot</sym>
</trkpt>
<trkpt lat="47.497687" lon="15.654200">
<ele>1053.0</ele>
<desc>Speed 107 km/h Distance 27.88 km</desc>
<time>2012-09-18T15:47:25.06</time>
<name>1397</name>
<sym>Dot</sym>
</trkpt>
<trkpt lat="47.497802" lon="15.653835">
<ele>1055.0</ele>
<desc>Speed 109 km/h Distance 27.91 km</desc>
<time>2012-09-18T15:47:26.06</time>
<name>1398</name>
<sym>Dot</sym>
</trkpt>
<trkpt lat="47.497922" lon="15.653482">
<ele>1055.5</ele>
<desc>Speed 107 km/h Distance 27.94 km</desc>
<time>2012-09-18T15:47:27.06</time>
<name>1399</name>
<sym>Dot</sym>
</trkpt>
<trkpt lat="47.498050" lon="15.653142">
<ele>1056.0</ele>
<desc>Speed 106 km/h Distance 27.97 km</desc>
<time>2012-09-18T15:47:28.04</time>
<name>1400</name>
<sym>Dot</sym>
</trkpt>
<trkpt lat="47.498180" lon="15.652813">
<ele>1057.0</ele>
<desc>Speed 103 km/h Distance 28.00 km</desc>
<time>2012-09-18T15:47:29.03</time>
<name>1401</name>
<sym>Dot</sym>
</trkpt>
<trkpt lat="47.498320" lon="15.652503">
<ele>1057.5</ele>
<desc>Speed 101 km/h Distance 28.02 km</desc>
<time>2012-09-18T15:47:30.04</time>
<name>1402</name>
<sym>Dot</sym>
</trkpt>
<trkpt lat="47.498480" lon="15.652195">
<ele>1058.5</ele>
<desc>Speed 106 km/h Distance 28.05 km</desc>
<time>2012-09-18T15:47:31.03</time>
<name>1403</name>
<sym>Dot</sym>
</trkpt>
<trkpt lat="47.498648" lon="15.651890">
<ele>1059.5</ele>
<desc>Speed 106 km/h Distance 28.08 km</desc>
<time>2012-09-18T15:47:32.03</time>
<name>1404</name>
<sym>Dot</sym>
</trkpt>
<trkpt lat="47.498813" lon="15.651593">
<ele>1061.5</ele>
<desc>Speed 103 km/h Distance 28.11 km</desc>
<time>2012-09-18T15:47:33.03</time>
<name>1405</name>
<sym>Dot</sym>
</trkpt>
<trkpt lat="47.499092" lon="15.651033">
<ele>1065.0</ele>
<desc>Speed 92.2 km/h Distance 28.16 km</desc>
<time>2012-09-18T15:47:35.02</time>
<name>1406</name>
<sym>Dot</sym>
</trkpt>
<trkpt lat="47.499197" lon="15.650750">
<ele>1069.0</ele>
<desc>Speed 87.4 km/h Distance 28.19 km</desc>
<time>2012-09-18T15:47:36.02</time>
<name>1407</name>
<sym>Dot</sym>
</trkpt>
<trkpt lat="47.499268" lon="15.650445">
<ele>1071.0</ele>
<desc>Speed 87.6 km/h Distance 28.21 km</desc>
<time>2012-09-18T15:47:37.02</time>
<name>1408</name>
<sym>Dot</sym>
</trkpt>
<trkpt lat="47.499320" lon="15.650137">
<ele>1072.5</ele>
<desc>Speed 85.9 km/h Distance 28.24 km</desc>
<time>2012-09-18T15:47:38.02</time>
<name>1409</name>
<sym>Dot</sym>
</trkpt>
<trkpt lat="47.499320" lon="15.649793">
<ele>1075.5</ele>
<desc>Speed 92.6 km/h Distance 28.26 km</desc>
<time>2012-09-18T15:47:39.02</time>
<name>1410</name>
<sym>Dot</sym>
</trkpt>
<trkpt lat="47.499333" lon="15.649447">
<ele>1076.0</ele>
<desc>Speed 93.7 km/h Distance 28.29 km</desc>
<time>2012-09-18T15:47:40.02</time>
<name>1411</name>
<sym>Dot</sym>
</trkpt>
<trkpt lat="47.499352" lon="15.649097">
<ele>1076.5</ele>
<desc>Speed 94.9 km/h Distance 28.32 km</desc>
<time>2012-09-18T15:47:41.00</time>
<name>1412</name>
<sym>Dot</sym>
</trkpt>
<trkpt lat="47.499368" lon="15.648765">
<ele>1077.5</ele>
<desc>Speed 89.4 km/h Distance 28.34 km</desc>
<time>2012-09-18T15:47:42.01</time>
<name>1413</name>
<sym>Dot</sym>
</trkpt>
<trkpt lat="47.499388" lon="15.648445">
<ele>1081.0</ele>
<desc>Speed 86.9 km/h Distance 28.36 km</desc>
<time>2012-09-18T15:47:43.00</time>
<name>1414</name>
<sym>Dot</sym>
</trkpt>
<trkpt lat="47.499427" lon="15.648120">
<ele>1084.0</ele>
<desc>Speed 88.6 km/h Distance 28.39 km</desc>
<time>2012-09-18T15:47:44.00</time>
<name>1415</name>
<sym>Dot</sym>
</trkpt>
<trkpt lat="47.499485" lon="15.647793">
<ele>1086.0</ele>
<desc>Speed 91.4 km/h Distance 28.41 km</desc>
<time>2012-09-18T15:47:45.01</time>
<name>1416</name>
<sym>Dot</sym>
</trkpt>
<trkpt lat="47.499567" lon="15.647478">
<ele>1087.5</ele>
<desc>Speed 91.0 km/h Distance 28.44 km</desc>
<time>2012-09-18T15:47:46.01</time>
<name>1417</name>
<sym>Dot</sym>
</trkpt>
<trkpt lat="47.499687" lon="15.647210">
<ele>1090.5</ele>
<desc>Speed 88.7 km/h Distance 28.46 km</desc>
<time>2012-09-18T15:47:47.00</time>
<name>1418</name>
<sym>Dot</sym>
</trkpt>
<trkpt lat="47.499792" lon="15.646930">
<ele>1092.5</ele>
<desc>Speed 87.4 km/h Distance 28.49 km</desc>
<time>2012-09-18T15:47:47.99</time>
<name>1419</name>
<sym>Dot</sym>
</trkpt>
<trkpt lat="47.499925" lon="15.646683">
<ele>1093.0</ele>
<desc>Speed 86.5 km/h Distance 28.51 km</desc>
<time>2012-09-18T15:47:48.99</time>
<name>1420</name>
<sym>Dot</sym>
</trkpt>
<trkpt lat="47.500045" lon="15.646433">
<ele>1094.0</ele>
<desc>Speed 84.3 km/h Distance 28.54 km</desc>
<time>2012-09-18T15:47:49.98</time>
<name>1421</name>
<sym>Dot</sym>
</trkpt>
<trkpt lat="47.500170" lon="15.646195">
<ele>1094.0</ele>
<desc>Speed 82.1 km/h Distance 28.56 km</desc>
<time>2012-09-18T15:47:50.98</time>
<name>1422</name>
<sym>Dot</sym>
</trkpt>
<trkpt lat="47.500298" lon="15.645965">
<ele>1095.0</ele>
<desc>Speed 81.0 km/h Distance 28.58 km</desc>
<time>2012-09-18T15:47:51.97</time>
<name>1423</name>
<sym>Dot</sym>
</trkpt>
<trkpt lat="47.500428" lon="15.645735">
<ele>1096.0</ele>
<desc>Speed 82.0 km/h Distance 28.60 km</desc>
<time>2012-09-18T15:47:52.98</time>
<name>1424</name>
<sym>Dot</sym>
</trkpt>
<trkpt lat="47.500563" lon="15.645502">
<ele>1097.5</ele>
<desc>Speed 84.0 km/h Distance 28.63 km</desc>
<time>2012-09-18T15:47:53.97</time>
<name>1425</name>
<sym>Dot</sym>
</trkpt>
<trkpt lat="47.500702" lon="15.645255">
<ele>1098.0</ele>
<desc>Speed 86.9 km/h Distance 28.65 km</desc>
<time>2012-09-18T15:47:54.96</time>
<name>1426</name>
<sym>Dot</sym>
</trkpt>
<trkpt lat="47.500842" lon="15.644990">
<ele>1098.0</ele>
<desc>Speed 91.2 km/h Distance 28.68 km</desc>
<time>2012-09-18T15:47:55.96</time>
<name>1427</name>
<sym>Dot</sym>
</trkpt>
<trkpt lat="47.500975" lon="15.644708">
<ele>1098.0</ele>
<desc>Speed 93.0 km/h Distance 28.70 km</desc>
<time>2012-09-18T15:47:56.95</time>
<name>1428</name>
<sym>Dot</sym>
</trkpt>
<trkpt lat="47.501097" lon="15.644410">
<ele>1098.0</ele>
<desc>Speed 94.6 km/h Distance 28.73 km</desc>
<time>2012-09-18T15:47:57.94</time>
<name>1429</name>
<sym>Dot</sym>
</trkpt>
<trkpt lat="47.501208" lon="15.644090">
<ele>1098.5</ele>
<desc>Speed 97.0 km/h Distance 28.75 km</desc>
<time>2012-09-18T15:47:58.94</time>
<name>1430</name>
<sym>Dot</sym>
</trkpt>
<trkpt lat="47.501307" lon="15.643752">
<ele>1098.5</ele>
<desc>Speed 99.6 km/h Distance 28.78 km</desc>
<time>2012-09-18T15:47:59.93</time>
<name>1431</name>
<sym>Dot</sym>
</trkpt>
<trkpt lat="47.501395" lon="15.643400">
<ele>1099.0</ele>
<desc>Speed 102 km/h Distance 28.81 km</desc>
<time>2012-09-18T15:48:00.92</time>
<name>1432</name>
<sym>Dot</sym>
</trkpt>
<trkpt lat="47.501470" lon="15.643055">
<ele>1100.0</ele>
<desc>Speed 99.4 km/h Distance 28.84 km</desc>
<time>2012-09-18T15:48:01.92</time>
<name>1433</name>
<sym>Dot</sym>
</trkpt>
<trkpt lat="47.501545" lon="15.642720">
<ele>1100.0</ele>
<desc>Speed 95.7 km/h Distance 28.86 km</desc>
<time>2012-09-18T15:48:02.93</time>
<name>1434</name>
<sym>Dot</sym>
</trkpt>
<trkpt lat="47.501618" lon="15.642402">
<ele>1101.0</ele>
<desc>Speed 91.8 km/h Distance 28.89 km</desc>
<time>2012-09-18T15:48:03.92</time>
<name>1435</name>
<sym>Dot</sym>
</trkpt>
<trkpt lat="47.501695" lon="15.642100">
<ele>1101.5</ele>
<desc>Speed 88.6 km/h Distance 28.91 km</desc>
<time>2012-09-18T15:48:04.92</time>
<name>1436</name>
<sym>Dot</sym>
</trkpt>
<trkpt lat="47.501780" lon="15.641798">
<ele>1101.5</ele>
<desc>Speed 89.3 km/h Distance 28.94 km</desc>
<time>2012-09-18T15:48:05.92</time>
<name>1437</name>
<sym>Dot</sym>
</trkpt>
<trkpt lat="47.501877" lon="15.641497">
<ele>1101.5</ele>
<desc>Speed 90.8 km/h Distance 28.96 km</desc>
<time>2012-09-18T15:48:06.91</time>
<name>1438</name>
<sym>Dot</sym>
</trkpt>
<trkpt lat="47.501988" lon="15.641202">
<ele>1101.0</ele>
<desc>Speed 91.4 km/h Distance 28.99 km</desc>
<time>2012-09-18T15:48:07.90</time>
<name>1439</name>
<sym>Dot</sym>
</trkpt>
<trkpt lat="47.502108" lon="15.640910">
<ele>1101.0</ele>
<desc>Speed 92.5 km/h Distance 29.01 km</desc>
<time>2012-09-18T15:48:08.89</time>
<name>1440</name>
<sym>Dot</sym>
</trkpt>
<trkpt lat="47.502238" lon="15.640628">
<ele>1100.5</ele>
<desc>Speed 92.1 km/h Distance 29.04 km</desc>
<time>2012-09-18T15:48:09.89</time>
<name>1441</name>
<sym>Dot</sym>
</trkpt>
<trkpt lat="47.502375" lon="15.640357">
<ele>1100.0</ele>
<desc>Speed 91.8 km/h Distance 29.07 km</desc>
<time>2012-09-18T15:48:10.88</time>
<name>1442</name>
<sym>Dot</sym>
</trkpt>
<trkpt lat="47.502520" lon="15.640098">
<ele>1099.0</ele>
<desc>Speed 90.7 km/h Distance 29.09 km</desc>
<time>2012-09-18T15:48:11.87</time>
<name>1443</name>
<sym>Dot</sym>
</trkpt>
<trkpt lat="47.502785" lon="15.639675">
<ele>1099.0</ele>
<desc>Speed 77.5 km/h Distance 29.13 km</desc>
<time>2012-09-18T15:48:13.87</time>
<name>1444</name>
<sym>Dot</sym>
</trkpt>
<trkpt lat="47.502920" lon="15.639503">
<ele>1099.0</ele>
<desc>Speed 71.5 km/h Distance 29.15 km</desc>
<time>2012-09-18T15:48:14.87</time>
<name>1445</name>
<sym>Dot</sym>
</trkpt>
<trkpt lat="47.503067" lon="15.639380">
<ele>1097.0</ele>
<desc>Speed 67.4 km/h Distance 29.17 km</desc>
<time>2012-09-18T15:48:15.86</time>
<name>1446</name>
<sym>Dot</sym>
</trkpt>
<trkpt lat="47.503210" lon="15.639272">
<ele>1096.5</ele>
<desc>Speed 64.6 km/h Distance 29.19 km</desc>
<time>2012-09-18T15:48:16.86</time>
<name>1447</name>
<sym>Dot</sym>
</trkpt>
<trkpt lat="47.503357" lon="15.639210">
<ele>1096.0</ele>
<desc>Speed 61.1 km/h Distance 29.21 km</desc>
<time>2012-09-18T15:48:17.86</time>
<name>1448</name>
<sym>Dot</sym>
</trkpt>
<trkpt lat="47.503493" lon="15.639160">
<ele>1095.0</ele>
<desc>Speed 56.1 km/h Distance 29.22 km</desc>
<time>2012-09-18T15:48:18.85</time>
<name>1449</name>
<sym>Dot</sym>
</trkpt>
<trkpt lat="47.503627" lon="15.639140">
<ele>1093.5</ele>
<desc>Speed 53.6 km/h Distance 29.24 km</desc>
<time>2012-09-18T15:48:19.85</time>
<name>1450</name>
<sym>Dot</sym>
</trkpt>
<trkpt lat="47.503755" lon="15.639168">
<ele>1095.5</ele>
<desc>Speed 51.8 km/h Distance 29.25 km</desc>
<time>2012-09-18T15:48:20.84</time>
<name>1451</name>
<sym>Dot</sym>
</trkpt>
<trkpt lat="47.504228" lon="15.639445">
<ele>1094.5</ele>
<desc>Speed 69.2 km/h Distance 29.31 km</desc>
<time>2012-09-18T15:48:24.36</time>
<name>1452</name>
<sym>Dot</sym>
</trkpt>
<trkpt lat="47.504590" lon="15.639735">
<ele>1091.5</ele>
<desc>Speed 81.6 km/h Distance 29.36 km</desc>
<time>2012-09-18T15:48:26.35</time>
<name>1453</name>
<sym>Dot</sym>
</trkpt>
<trkpt lat="47.504768" lon="15.639902">
<ele>1090.5</ele>
<desc>Speed 84.9 km/h Distance 29.38 km</desc>
<time>2012-09-18T15:48:27.35</time>
<name>1454</name>
<sym>Dot</sym>
</trkpt>
<trkpt lat="47.504952" lon="15.640077">
<ele>1090.0</ele>
<desc>Speed 87.8 km/h Distance 29.40 km</desc>
<time>2012-09-18T15:48:28.34</time>
<name>1455</name>
<sym>Dot</sym>
</trkpt>
<trkpt lat="47.505133" lon="15.640247">
<ele>1091.0</ele>
<desc>Speed 86.8 km/h Distance 29.43 km</desc>
<time>2012-09-18T15:48:29.35</time>
<name>1456</name>
<sym>Dot</sym>
</trkpt>
<trkpt lat="47.505312" lon="15.640413">
<ele>1090.5</ele>
<desc>Speed 84.6 km/h Distance 29.45 km</desc>
<time>2012-09-18T15:48:30.33</time>
<name>1457</name>
<sym>Dot</sym>
</trkpt>
<trkpt lat="47.505485" lon="15.640575">
<ele>1092.0</ele>
<desc>Speed 82.9 km/h Distance 29.47 km</desc>
<time>2012-09-18T15:48:31.33</time>
<name>1458</name>
<sym>Dot</sym>
</trkpt>
<trkpt lat="47.505657" lon="15.640735">
<ele>1091.0</ele>
<desc>Speed 81.4 km/h Distance 29.50 km</desc>
<time>2012-09-18T15:48:32.32</time>
<name>1459</name>
<sym>Dot</sym>
</trkpt>
<trkpt lat="47.505818" lon="15.640885">
<ele>1092.0</ele>
<desc>Speed 76.6 km/h Distance 29.52 km</desc>
<time>2012-09-18T15:48:33.32</time>
<name>1460</name>
<sym>Dot</sym>
</trkpt>
<trkpt lat="47.505965" lon="15.641022">
<ele>1091.5</ele>
<desc>Speed 69.7 km/h Distance 29.54 km</desc>
<time>2012-09-18T15:48:34.31</time>
<name>1461</name>
<sym>Dot</sym>
</trkpt>
<trkpt lat="47.506102" lon="15.641147">
<ele>1090.5</ele>
<desc>Speed 64.6 km/h Distance 29.55 km</desc>
<time>2012-09-18T15:48:35.31</time>
<name>1462</name>
<sym>Dot</sym>
</trkpt>
<trkpt lat="47.506227" lon="15.641253">
<ele>1090.5</ele>
<desc>Speed 58.4 km/h Distance 29.57 km</desc>
<time>2012-09-18T15:48:36.30</time>
<name>1463</name>
<sym>Dot</sym>
</trkpt>
<trkpt lat="47.506343" lon="15.641345">
<ele>1090.5</ele>
<desc>Speed 53.3 km/h Distance 29.59 km</desc>
<time>2012-09-18T15:48:37.30</time>
<name>1464</name>
<sym>Dot</sym>
</trkpt>
<trkpt lat="47.506453" lon="15.641417">
<ele>1091.0</ele>
<desc>Speed 48.3 km/h Distance 29.60 km</desc>
<time>2012-09-18T15:48:38.29</time>
<name>1465</name>
<sym>Dot</sym>
</trkpt>
<trkpt lat="47.506560" lon="15.641467">
<ele>1090.5</ele>
<desc>Speed 44.9 km/h Distance 29.61 km</desc>
<time>2012-09-18T15:48:39.29</time>
<name>1466</name>
<sym>Dot</sym>
</trkpt>
<trkpt lat="47.506672" lon="15.641487">
<ele>1091.0</ele>
<desc>Speed 44.6 km/h Distance 29.62 km</desc>
<time>2012-09-18T15:48:40.29</time>
<name>1467</name>
<sym>Dot</sym>
</trkpt>
<trkpt lat="47.506778" lon="15.641478">
<ele>1092.0</ele>
<desc>Speed 43.5 km/h Distance 29.64 km</desc>
<time>2012-09-18T15:48:41.28</time>
<name>1468</name>
<sym>Dot</sym>
</trkpt>
<trkpt lat="47.506868" lon="15.641425">
<ele>1094.0</ele>
<desc>Speed 38.4 km/h Distance 29.65 km</desc>
<time>2012-09-18T15:48:42.29</time>
<name>1469</name>
<sym>Dot</sym>
</trkpt>
<trkpt lat="47.506960" lon="15.641363">
<ele>1094.5</ele>
<desc>Speed 40.7 km/h Distance 29.66 km</desc>
<time>2012-09-18T15:48:43.28</time>
<name>1470</name>
<sym>Dot</sym>
</trkpt>
<trkpt lat="47.507045" lon="15.641277">
<ele>1095.0</ele>
<desc>Speed 41.3 km/h Distance 29.67 km</desc>
<time>2012-09-18T15:48:44.27</time>
<name>1471</name>
<sym>Dot</sym>
</trkpt>
<trkpt lat="47.507120" lon="15.641168">
<ele>1095.5</ele>
<desc>Speed 42.5 km/h Distance 29.68 km</desc>
<time>2012-09-18T15:48:45.27</time>
<name>1472</name>
<sym>Dot</sym>
</trkpt>
<trkpt lat="47.507170" lon="15.641025">
<ele>1096.0</ele>
<desc>Speed 43.1 km/h Distance 29.69 km</desc>
<time>2012-09-18T15:48:46.27</time>
<name>1473</name>
<sym>Dot</sym>
</trkpt>
<trkpt lat="47.507210" lon="15.640862">
<ele>1096.0</ele>
<desc>Speed 47.1 km/h Distance 29.71 km</desc>
<time>2012-09-18T15:48:47.26</time>
<name>1474</name>
<sym>Dot</sym>
</trkpt>
<trkpt lat="47.507230" lon="15.640695">
<ele>1095.5</ele>
<desc>Speed 46.0 km/h Distance 29.72 km</desc>
<time>2012-09-18T15:48:48.25</time>
<name>1475</name>
<sym>Dot</sym>
</trkpt>
<trkpt lat="47.507227" lon="15.640525">
<ele>1095.5</ele>
<desc>Speed 46.1 km/h Distance 29.73 km</desc>
<time>2012-09-18T15:48:49.26</time>
<name>1476</name>
<sym>Dot</sym>
</trkpt>
<trkpt lat="47.507215" lon="15.640357">
<ele>1095.0</ele>
<desc>Speed 46.1 km/h Distance 29.74 km</desc>
<time>2012-09-18T15:48:50.25</time>
<name>1477</name>
<sym>Dot</sym>
</trkpt>
<trkpt lat="47.507202" lon="15.640183">
<ele>1095.0</ele>
<desc>Speed 47.3 km/h Distance 29.76 km</desc>
<time>2012-09-18T15:48:51.25</time>
<name>1478</name>
<sym>Dot</sym>
</trkpt>
<trkpt lat="47.507178" lon="15.640018">
<ele>1096.0</ele>
<desc>Speed 45.8 km/h Distance 29.77 km</desc>
<time>2012-09-18T15:48:52.24</time>
<name>1479</name>
<sym>Dot</sym>
</trkpt>
<trkpt lat="47.507157" lon="15.639855">
<ele>1096.5</ele>
<desc>Speed 45.1 km/h Distance 29.78 km</desc>
<time>2012-09-18T15:48:53.24</time>
<name>1480</name>
<sym>Dot</sym>
</trkpt>
<trkpt lat="47.507132" lon="15.639698">
<ele>1098.0</ele>
<desc>Speed 44.1 km/h Distance 29.79 km</desc>
<time>2012-09-18T15:48:54.24</time>
<name>1481</name>
<sym>Dot</sym>
</trkpt>
<trkpt lat="47.507108" lon="15.639538">
<ele>1099.0</ele>
<desc>Speed 44.4 km/h Distance 29.81 km</desc>
<time>2012-09-18T15:48:55.23</time>
<name>1482</name>
<sym>Dot</sym>
</trkpt>
<trkpt lat="47.507082" lon="15.639378">
<ele>1100.0</ele>
<desc>Speed 45.0 km/h Distance 29.82 km</desc>
<time>2012-09-18T15:48:56.23</time>
<name>1483</name>
<sym>Dot</sym>
</trkpt>
<trkpt lat="47.507057" lon="15.639213">
<ele>1100.5</ele>
<desc>Speed 45.8 km/h Distance 29.83 km</desc>
<time>2012-09-18T15:48:57.22</time>
<name>1484</name>
<sym>Dot</sym>
</trkpt>
<trkpt lat="47.507030" lon="15.639048">
<ele>1101.5</ele>
<desc>Speed 46.3 km/h Distance 29.84 km</desc>
<time>2012-09-18T15:48:58.22</time>
<name>1485</name>
<sym>Dot</sym>
</trkpt>
<trkpt lat="47.507002" lon="15.638878">
<ele>1102.5</ele>
<desc>Speed 48.2 km/h Distance 29.86 km</desc>
<time>2012-09-18T15:48:59.22</time>
<name>1486</name>
<sym>Dot</sym>
</trkpt>
<trkpt lat="47.506972" lon="15.638712">
<ele>1103.5</ele>
<desc>Speed 47.4 km/h Distance 29.87 km</desc>
<time>2012-09-18T15:49:00.21</time>
<name>1487</name>
<sym>Dot</sym>
</trkpt>
<trkpt lat="47.506942" lon="15.638547">
<ele>1104.0</ele>
<desc>Speed 46.9 km/h Distance 29.88 km</desc>
<time>2012-09-18T15:49:01.21</time>
<name>1488</name>
<sym>Dot</sym>
</trkpt>
<trkpt lat="47.506915" lon="15.638383">
<ele>1105.0</ele>
<desc>Speed 45.9 km/h Distance 29.90 km</desc>
<time>2012-09-18T15:49:02.20</time>
<name>1489</name>
<sym>Dot</sym>
</trkpt>
<trkpt lat="47.506893" lon="15.638223">
<ele>1106.5</ele>
<desc>Speed 44.6 km/h Distance 29.91 km</desc>
<time>2012-09-18T15:49:03.20</time>
<name>1490</name>
<sym>Dot</sym>
</trkpt>
<trkpt lat="47.506873" lon="15.638068">
<ele>1108.0</ele>
<desc>Speed 43.1 km/h Distance 29.92 km</desc>
<time>2012-09-18T15:49:04.19</time>
<name>1491</name>
<sym>Dot</sym>
</trkpt>
<trkpt lat="47.506857" lon="15.637912">
<ele>1109.0</ele>
<desc>Speed 43.2 km/h Distance 29.93 km</desc>
<time>2012-09-18T15:49:05.18</time>
<name>1492</name>
<sym>Dot</sym>
</trkpt>
<trkpt lat="47.506847" lon="15.637753">
<ele>1110.0</ele>
<desc>Speed 43.4 km/h Distance 29.94 km</desc>
<time>2012-09-18T15:49:06.17</time>
<name>1493</name>
<sym>Dot</sym>
</trkpt>
<trkpt lat="47.506847" lon="15.637595">
<ele>1110.5</ele>
<desc>Speed 43.1 km/h Distance 29.96 km</desc>
<time>2012-09-18T15:49:07.18</time>
<name>1494</name>
<sym>Dot</sym>
</trkpt>
<trkpt lat="47.506863" lon="15.637440">
<ele>1111.0</ele>
<desc>Speed 42.9 km/h Distance 29.97 km</desc>
<time>2012-09-18T15:49:08.17</time>
<name>1495</name>
<sym>Dot</sym>
</trkpt>
<trkpt lat="47.506898" lon="15.637292">
<ele>1111.5</ele>
<desc>Speed 42.7 km/h Distance 29.98 km</desc>
<time>2012-09-18T15:49:09.17</time>
<name>1496</name>
<sym>Dot</sym>
</trkpt>
<trkpt lat="47.506952" lon="15.637157">
<ele>1112.0</ele>
<desc>Speed 42.4 km/h Distance 29.99 km</desc>
<time>2012-09-18T15:49:10.16</time>
<name>1497</name>
<sym>Dot</sym>
</trkpt>
<trkpt lat="47.507023" lon="15.637057">
<ele>1112.0</ele>
<desc>Speed 39.7 km/h Distance 30.00 km</desc>
<time>2012-09-18T15:49:11.16</time>
<name>1498</name>
<sym>Dot</sym>
</trkpt>
<trkpt lat="47.507110" lon="15.637007">
<ele>1110.0</ele>
<desc>Speed 36.2 km/h Distance 30.01 km</desc>
<time>2012-09-18T15:49:12.15</time>
<name>1499</name>
<sym>Dot</sym>
</trkpt>
<trkpt lat="47.507197" lon="15.636967">
<ele>1110.5</ele>
<desc>Speed 36.1 km/h Distance 30.02 km</desc>
<time>2012-09-18T15:49:13.14</time>
<name>1500</name>
<sym>Dot</sym>
</trkpt>
<trkpt lat="47.507288" lon="15.636952">
<ele>1111.0</ele>
<desc>Speed 37.2 km/h Distance 30.03 km</desc>
<time>2012-09-18T15:49:14.14</time>
<name>1501</name>
<sym>Dot</sym>
</trkpt>
<trkpt lat="47.507382" lon="15.636957">
<ele>1112.0</ele>
<desc>Speed 37.4 km/h Distance 30.04 km</desc>
<time>2012-09-18T15:49:15.14</time>
<name>1502</name>
<sym>Dot</sym>
</trkpt>
<trkpt lat="47.507583" lon="15.637060">
<ele>1112.5</ele>
<desc>Speed 40.7 km/h Distance 30.07 km</desc>
<time>2012-09-18T15:49:17.12</time>
<name>1503</name>
<sym>Dot</sym>
</trkpt>
<trkpt lat="47.507675" lon="15.637135">
<ele>1113.5</ele>
<desc>Speed 42.0 km/h Distance 30.08 km</desc>
<time>2012-09-18T15:49:18.13</time>
<name>1504</name>
<sym>Dot</sym>
</trkpt>
<trkpt lat="47.507772" lon="15.637212">
<ele>1115.0</ele>
<desc>Speed 43.7 km/h Distance 30.09 km</desc>
<time>2012-09-18T15:49:19.12</time>
<name>1505</name>
<sym>Dot</sym>
</trkpt>
<trkpt lat="47.507880" lon="15.637283">
<ele>1116.0</ele>
<desc>Speed 47.7 km/h Distance 30.10 km</desc>
<time>2012-09-18T15:49:20.11</time>
<name>1506</name>
<sym>Dot</sym>
</trkpt>
<trkpt lat="47.508007" lon="15.637327">
<ele>1116.5</ele>
<desc>Speed 51.8 km/h Distance 30.12 km</desc>
<time>2012-09-18T15:49:21.11</time>
<name>1507</name>
<sym>Dot</sym>
</trkpt>
<trkpt lat="47.508512" lon="15.637427">
<ele>1119.5</ele>
<desc>Speed 69.8 km/h Distance 30.18 km</desc>
<time>2012-09-18T15:49:24.35</time>
<name>1508</name>
<sym>Dot</sym>
</trkpt>
<trkpt lat="47.508690" lon="15.637428">
<ele>1120.0</ele>
<desc>Speed 71.1 km/h Distance 30.20 km</desc>
<time>2012-09-18T15:49:25.35</time>
<name>1509</name>
<sym>Dot</sym>
</trkpt>
<trkpt lat="47.508882" lon="15.637433">
<ele>1120.5</ele>
<desc>Speed 76.9 km/h Distance 30.22 km</desc>
<time>2012-09-18T15:49:26.34</time>
<name>1510</name>
<sym>Dot</sym>
</trkpt>
<trkpt lat="47.509087" lon="15.637438">
<ele>1122.0</ele>
<desc>Speed 82.4 km/h Distance 30.24 km</desc>
<time>2012-09-18T15:49:27.34</time>
<name>1511</name>
<sym>Dot</sym>
</trkpt>
<trkpt lat="47.509297" lon="15.637445">
<ele>1124.5</ele>
<desc>Speed 84.2 km/h Distance 30.26 km</desc>
<time>2012-09-18T15:49:28.33</time>
<name>1512</name>
<sym>Dot</sym>
</trkpt>
<trkpt lat="47.509505" lon="15.637453">
<ele>1125.0</ele>
<desc>Speed 83.7 km/h Distance 30.29 km</desc>
<time>2012-09-18T15:49:29.33</time>
<name>1513</name>
<sym>Dot</sym>
</trkpt>
<trkpt lat="47.509720" lon="15.637463">
<ele>1126.5</ele>
<desc>Speed 85.9 km/h Distance 30.31 km</desc>
<time>2012-09-18T15:49:30.32</time>
<name>1514</name>
<sym>Dot</sym>
</trkpt>
<trkpt lat="47.509925" lon="15.637468">
<ele>1128.5</ele>
<desc>Speed 82.2 km/h Distance 30.33 km</desc>
<time>2012-09-18T15:49:31.33</time>
<name>1515</name>
<sym>Dot</sym>
</trkpt>
<trkpt lat="47.510118" lon="15.637467">
<ele>1129.5</ele>
<desc>Speed 76.8 km/h Distance 30.35 km</desc>
<time>2012-09-18T15:49:32.32</time>
<name>1516</name>
<sym>Dot</sym>
</trkpt>
<trkpt lat="47.510298" lon="15.637448">
<ele>1131.0</ele>
<desc>Speed 72.3 km/h Distance 30.37 km</desc>
<time>2012-09-18T15:49:33.32</time>
<name>1517</name>
<sym>Dot</sym>
</trkpt>
<trkpt lat="47.510468" lon="15.637400">
<ele>1132.0</ele>
<desc>Speed 69.2 km/h Distance 30.39 km</desc>
<time>2012-09-18T15:49:34.31</time>
<name>1518</name>
<sym>Dot</sym>
</trkpt>
<trkpt lat="47.510628" lon="15.637332">
<ele>1133.0</ele>
<desc>Speed 67.0 km/h Distance 30.41 km</desc>
<time>2012-09-18T15:49:35.31</time>
<name>1519</name>
<sym>Dot</sym>
</trkpt>
<trkpt lat="47.510777" lon="15.637252">
<ele>1133.5</ele>
<desc>Speed 63.6 km/h Distance 30.43 km</desc>
<time>2012-09-18T15:49:36.30</time>
<name>1520</name>
<sym>Dot</sym>
</trkpt>
<trkpt lat="47.510912" lon="15.637172">
<ele>1134.0</ele>
<desc>Speed 57.8 km/h Distance 30.45 km</desc>
<time>2012-09-18T15:49:37.30</time>
<name>1521</name>
<sym>Dot</sym>
</trkpt>
<trkpt lat="47.511027" lon="15.637093">
<ele>1134.0</ele>
<desc>Speed 50.8 km/h Distance 30.46 km</desc>
<time>2012-09-18T15:49:38.29</time>
<name>1522</name>
<sym>Dot</sym>
</trkpt>
<trkpt lat="47.511127" lon="15.637023">
<ele>1134.0</ele>
<desc>Speed 44.5 km/h Distance 30.47 km</desc>
<time>2012-09-18T15:49:39.29</time>
<name>1523</name>
<sym>Dot</sym>
</trkpt>
<trkpt lat="47.511225" lon="15.636953">
<ele>1133.5</ele>
<desc>Speed 43.6 km/h Distance 30.48 km</desc>
<time>2012-09-18T15:49:40.28</time>
<name>1524</name>
<sym>Dot</sym>
</trkpt>
<trkpt lat="47.511323" lon="15.636880">
<ele>1134.0</ele>
<desc>Speed 43.7 km/h Distance 30.50 km</desc>
<time>2012-09-18T15:49:41.28</time>
<name>1525</name>
<sym>Dot</sym>
</trkpt>
<trkpt lat="47.511425" lon="15.636805">
<ele>1134.0</ele>
<desc>Speed 45.6 km/h Distance 30.51 km</desc>
<time>2012-09-18T15:49:42.27</time>
<name>1526</name>
<sym>Dot</sym>
</trkpt>
<trkpt lat="47.511530" lon="15.636727">
<ele>1133.5</ele>
<desc>Speed 46.7 km/h Distance 30.52 km</desc>
<time>2012-09-18T15:49:43.26</time>
<name>1527</name>
<sym>Dot</sym>
</trkpt>
<trkpt lat="47.511635" lon="15.636650">
<ele>1132.5</ele>
<desc>Speed 46.7 km/h Distance 30.54 km</desc>
<time>2012-09-18T15:49:44.26</time>
<name>1528</name>
<sym>Dot</sym>
</trkpt>
<trkpt lat="47.511740" lon="15.636572">
<ele>1132.0</ele>
<desc>Speed 46.9 km/h Distance 30.55 km</desc>
<time>2012-09-18T15:49:45.25</time>
<name>1529</name>
<sym>Dot</sym>
</trkpt>
<trkpt lat="47.511845" lon="15.636485">
<ele>1132.0</ele>
<desc>Speed 48.0 km/h Distance 30.56 km</desc>
<time>2012-09-18T15:49:46.24</time>
<name>1530</name>
<sym>Dot</sym>
</trkpt>
<trkpt lat="47.511947" lon="15.636388">
<ele>1132.5</ele>
<desc>Speed 48.3 km/h Distance 30.58 km</desc>
<time>2012-09-18T15:49:47.25</time>
<name>1531</name>
<sym>Dot</sym>
</trkpt>
<trkpt lat="47.512047" lon="15.636283">
<ele>1132.5</ele>
<desc>Speed 48.7 km/h Distance 30.59 km</desc>
<time>2012-09-18T15:49:48.24</time>
<name>1532</name>
<sym>Dot</sym>
</trkpt>
<trkpt lat="47.512145" lon="15.636170">
<ele>1133.0</ele>
<desc>Speed 50.0 km/h Distance 30.60 km</desc>
<time>2012-09-18T15:49:49.23</time>
<name>1533</name>
<sym>Dot</sym>
</trkpt>
<trkpt lat="47.512243" lon="15.636047">
<ele>1133.0</ele>
<desc>Speed 51.8 km/h Distance 30.62 km</desc>
<time>2012-09-18T15:49:50.23</time>
<name>1534</name>
<sym>Dot</sym>
</trkpt>
<trkpt lat="47.512345" lon="15.635918">
<ele>1133.5</ele>
<desc>Speed 52.8 km/h Distance 30.63 km</desc>
<time>2012-09-18T15:49:51.22</time>
<name>1535</name>
<sym>Dot</sym>
</trkpt>
<trkpt lat="47.512453" lon="15.635785">
<ele>1133.5</ele>
<desc>Speed 56.6 km/h Distance 30.65 km</desc>
<time>2012-09-18T15:49:52.22</time>
<name>1536</name>
<sym>Dot</sym>
</trkpt>
<trkpt lat="47.512573" lon="15.635638">
<ele>1135.0</ele>
<desc>Speed 62.5 km/h Distance 30.67 km</desc>
<time>2012-09-18T15:49:53.22</time>
<name>1537</name>
<sym>Dot</sym>
</trkpt>
<trkpt lat="47.512697" lon="15.635470">
<ele>1135.0</ele>
<desc>Speed 66.7 km/h Distance 30.68 km</desc>
<time>2012-09-18T15:49:54.20</time>
<name>1538</name>
<sym>Dot</sym>
</trkpt>
<trkpt lat="47.512807" lon="15.635280">
<ele>1136.5</ele>
<desc>Speed 67.7 km/h Distance 30.70 km</desc>
<time>2012-09-18T15:49:55.20</time>
<name>1539</name>
<sym>Dot</sym>
</trkpt>
<trkpt lat="47.512907" lon="15.635068">
<ele>1136.5</ele>
<desc>Speed 69.7 km/h Distance 30.72 km</desc>
<time>2012-09-18T15:49:56.21</time>
<name>1540</name>
<sym>Dot</sym>
</trkpt>
<trkpt lat="47.512980" lon="15.634828">
<ele>1138.5</ele>
<desc>Speed 70.9 km/h Distance 30.74 km</desc>
<time>2012-09-18T15:49:57.20</time>
<name>1541</name>
<sym>Dot</sym>
</trkpt>
<trkpt lat="47.513033" lon="15.634565">
<ele>1139.5</ele>
<desc>Speed 74.5 km/h Distance 30.76 km</desc>
<time>2012-09-18T15:49:58.21</time>
<name>1542</name>
<sym>Dot</sym>
</trkpt>
<trkpt lat="47.513052" lon="15.634287">
<ele>1140.5</ele>
<desc>Speed 75.5 km/h Distance 30.78 km</desc>
<time>2012-09-18T15:49:59.19</time>
<name>1543</name>
<sym>Dot</sym>
</trkpt>
<trkpt lat="47.513073" lon="15.633998">
<ele>1141.0</ele>
<desc>Speed 78.4 km/h Distance 30.81 km</desc>
<time>2012-09-18T15:50:00.19</time>
<name>1544</name>
<sym>Dot</sym>
</trkpt>
<trkpt lat="47.513105" lon="15.633708">
<ele>1141.5</ele>
<desc>Speed 79.4 km/h Distance 30.83 km</desc>
<time>2012-09-18T15:50:01.19</time>
<name>1545</name>
<sym>Dot</sym>
</trkpt>
<trkpt lat="47.513217" lon="15.633095">
<ele>1141.5</ele>
<desc>Speed 85.0 km/h Distance 30.88 km</desc>
<time>2012-09-18T15:50:03.18</time>
<name>1546</name>
<sym>Dot</sym>
</trkpt>
<trkpt lat="47.513287" lon="15.632790">
<ele>1142.0</ele>
<desc>Speed 87.3 km/h Distance 30.90 km</desc>
<time>2012-09-18T15:50:04.18</time>
<name>1547</name>
<sym>Dot</sym>
</trkpt>
<trkpt lat="47.513367" lon="15.632500">
<ele>1142.0</ele>
<desc>Speed 84.9 km/h Distance 30.92 km</desc>
<time>2012-09-18T15:50:05.17</time>
<name>1548</name>
<sym>Dot</sym>
</trkpt>
<trkpt lat="47.513455" lon="15.632223">
<ele>1144.0</ele>
<desc>Speed 82.9 km/h Distance 30.95 km</desc>
<time>2012-09-18T15:50:06.16</time>
<name>1549</name>
<sym>Dot</sym>
</trkpt>
<trkpt lat="47.513542" lon="15.631943">
<ele>1143.5</ele>
<desc>Speed 83.3 km/h Distance 30.97 km</desc>
<time>2012-09-18T15:50:07.16</time>
<name>1550</name>
<sym>Dot</sym>
</trkpt>
<trkpt lat="47.513617" lon="15.631655">
<ele>1142.0</ele>
<desc>Speed 83.6 km/h Distance 30.99 km</desc>
<time>2012-09-18T15:50:08.15</time>
<name>1551</name>
<sym>Dot</sym>
</trkpt>
<trkpt lat="47.513653" lon="15.631338">
<ele>1141.0</ele>
<desc>Speed 87.0 km/h Distance 31.02 km</desc>
<time>2012-09-18T15:50:09.18</time>
<name>1552</name>
<sym>Dot</sym>
</trkpt>
<trkpt lat="47.513690" lon="15.631033">
<ele>1140.5</ele>
<desc>Speed 84.0 km/h Distance 31.04 km</desc>
<time>2012-09-18T15:50:10.34</time>
<name>1553</name>
<sym>Dot</sym>
</trkpt>
<trkpt lat="47.513728" lon="15.630738">
<ele>1140.0</ele>
<desc>Speed 81.4 km/h Distance 31.06 km</desc>
<time>2012-09-18T15:50:11.14</time>
<name>1554</name>
<sym>Dot</sym>
</trkpt>
<trkpt lat="47.513780" lon="15.630457">
<ele>1138.5</ele>
<desc>Speed 78.7 km/h Distance 31.08 km</desc>
<time>2012-09-18T15:50:12.13</time>
<name>1555</name>
<sym>Dot</sym>
</trkpt>
<trkpt lat="47.513845" lon="15.630177">
<ele>1137.5</ele>
<desc>Speed 80.5 km/h Distance 31.11 km</desc>
<time>2012-09-18T15:50:13.12</time>
<name>1556</name>
<sym>Dot</sym>
</trkpt>
<trkpt lat="47.513940" lon="15.629890">
<ele>1137.0</ele>
<desc>Speed 86.0 km/h Distance 31.13 km</desc>
<time>2012-09-18T15:50:14.12</time>
<name>1557</name>
<sym>Dot</sym>
</trkpt>
<trkpt lat="47.514045" lon="15.629605">
<ele>1137.0</ele>
<desc>Speed 88.2 km/h Distance 31.16 km</desc>
<time>2012-09-18T15:50:15.13</time>
<name>1558</name>
<sym>Dot</sym>
</trkpt>
<trkpt lat="47.514160" lon="15.629328">
<ele>1137.0</ele>
<desc>Speed 87.9 km/h Distance 31.18 km</desc>
<time>2012-09-18T15:50:16.11</time>
<name>1559</name>
<sym>Dot</sym>
</trkpt>
<trkpt lat="47.514277" lon="15.629038">
<ele>1135.0</ele>
<desc>Speed 91.5 km/h Distance 31.21 km</desc>
<time>2012-09-18T15:50:17.12</time>
<name>1560</name>
<sym>Dot</sym>
</trkpt>
<trkpt lat="47.514357" lon="15.628703">
<ele>1133.5</ele>
<desc>Speed 96.4 km/h Distance 31.23 km</desc>
<time>2012-09-18T15:50:18.11</time>
<name>1561</name>
<sym>Dot</sym>
</trkpt>
<trkpt lat="47.514442" lon="15.628360">
<ele>1131.0</ele>
<desc>Speed 99.2 km/h Distance 31.26 km</desc>
<time>2012-09-18T15:50:19.10</time>
<name>1562</name>
<sym>Dot</sym>
</trkpt>
<trkpt lat="47.514522" lon="15.627998">
<ele>1131.0</ele>
<desc>Speed 104 km/h Distance 31.29 km</desc>
<time>2012-09-18T15:50:20.12</time>
<name>1563</name>
<sym>Dot</sym>
</trkpt>
<trkpt lat="47.514607" lon="15.627628">
<ele>1130.5</ele>
<desc>Speed 106 km/h Distance 31.32 km</desc>
<time>2012-09-18T15:50:21.10</time>
<name>1564</name>
<sym>Dot</sym>
</trkpt>
<trkpt lat="47.514692" lon="15.627263">
<ele>1130.0</ele>
<desc>Speed 105 km/h Distance 31.35 km</desc>
<time>2012-09-18T15:50:22.11</time>
<name>1565</name>
<sym>Dot</sym>
</trkpt>
<trkpt lat="47.514773" lon="15.626905">
<ele>1129.5</ele>
<desc>Speed 103 km/h Distance 31.37 km</desc>
<time>2012-09-18T15:50:23.10</time>
<name>1566</name>
<sym>Dot</sym>
</trkpt>
<trkpt lat="47.514855" lon="15.626557">
<ele>1127.0</ele>
<desc>Speed 100 km/h Distance 31.40 km</desc>
<time>2012-09-18T15:50:24.09</time>
<name>1567</name>
<sym>Dot</sym>
</trkpt>
<trkpt lat="47.514930" lon="15.626213">
<ele>1125.0</ele>
<desc>Speed 97.8 km/h Distance 31.43 km</desc>
<time>2012-09-18T15:50:25.09</time>
<name>1568</name>
<sym>Dot</sym>
</trkpt>
<trkpt lat="47.515010" lon="15.625875">
<ele>1122.0</ele>
<desc>Speed 97.1 km/h Distance 31.46 km</desc>
<time>2012-09-18T15:50:26.09</time>
<name>1569</name>
<sym>Dot</sym>
</trkpt>
<trkpt lat="47.515097" lon="15.625540">
<ele>1119.5</ele>
<desc>Speed 97.3 km/h Distance 31.48 km</desc>
<time>2012-09-18T15:50:27.08</time>
<name>1570</name>
<sym>Dot</sym>
</trkpt>
<trkpt lat="47.515197" lon="15.625212">
<ele>1117.5</ele>
<desc>Speed 97.7 km/h Distance 31.51 km</desc>
<time>2012-09-18T15:50:28.07</time>
<name>1571</name>
<sym>Dot</sym>
</trkpt>
<trkpt lat="47.515308" lon="15.624878">
<ele>1116.0</ele>
<desc>Speed 101 km/h Distance 31.54 km</desc>
<time>2012-09-18T15:50:29.07</time>
<name>1572</name>
<sym>Dot</sym>
</trkpt>
<trkpt lat="47.515427" lon="15.624548">
<ele>1114.0</ele>
<desc>Speed 102 km/h Distance 31.57 km</desc>
<time>2012-09-18T15:50:30.07</time>
<name>1573</name>
<sym>Dot</sym>
</trkpt>
<trkpt lat="47.515545" lon="15.624227">
<ele>1111.5</ele>
<desc>Speed 99.1 km/h Distance 31.59 km</desc>
<time>2012-09-18T15:50:31.06</time>
<name>1574</name>
<sym>Dot</sym>
</trkpt>
<trkpt lat="47.515658" lon="15.623915">
<ele>1110.0</ele>
<desc>Speed 96.4 km/h Distance 31.62 km</desc>
<time>2012-09-18T15:50:32.06</time>
<name>1575</name>
<sym>Dot</sym>
</trkpt>
<trkpt lat="47.515765" lon="15.623607">
<ele>1108.5</ele>
<desc>Speed 93.7 km/h Distance 31.65 km</desc>
<time>2012-09-18T15:50:33.06</time>
<name>1576</name>
<sym>Dot</sym>
</trkpt>
<trkpt lat="47.515858" lon="15.623293">
<ele>1107.0</ele>
<desc>Speed 93.1 km/h Distance 31.67 km</desc>
<time>2012-09-18T15:50:34.06</time>
<name>1577</name>
<sym>Dot</sym>
</trkpt>
<trkpt lat="47.515940" lon="15.622958">
<ele>1105.5</ele>
<desc>Speed 96.8 km/h Distance 31.70 km</desc>
<time>2012-09-18T15:50:35.06</time>
<name>1578</name>
<sym>Dot</sym>
</trkpt>
<trkpt lat="47.516013" lon="15.622612">
<ele>1104.0</ele>
<desc>Speed 98.5 km/h Distance 31.73 km</desc>
<time>2012-09-18T15:50:36.05</time>
<name>1579</name>
<sym>Dot</sym>
</trkpt>
<trkpt lat="47.516082" lon="15.622275">
<ele>1102.0</ele>
<desc>Speed 95.8 km/h Distance 31.75 km</desc>
<time>2012-09-18T15:50:37.04</time>
<name>1580</name>
<sym>Dot</sym>
</trkpt>
<trkpt lat="47.516150" lon="15.621948">
<ele>1100.5</ele>
<desc>Speed 92.8 km/h Distance 31.78 km</desc>
<time>2012-09-18T15:50:38.05</time>
<name>1581</name>
<sym>Dot</sym>
</trkpt>
<trkpt lat="47.516217" lon="15.621632">
<ele>1099.0</ele>
<desc>Speed 89.9 km/h Distance 31.80 km</desc>
<time>2012-09-18T15:50:39.04</time>
<name>1582</name>
<sym>Dot</sym>
</trkpt>
<trkpt lat="47.516283" lon="15.621325">
<ele>1097.5</ele>
<desc>Speed 87.4 km/h Distance 31.83 km</desc>
<time>2012-09-18T15:50:40.03</time>
<name>1583</name>
<sym>Dot</sym>
</trkpt>
<trkpt lat="47.516355" lon="15.621018">
<ele>1096.0</ele>
<desc>Speed 88.0 km/h Distance 31.85 km</desc>
<time>2012-09-18T15:50:41.04</time>
<name>1584</name>
<sym>Dot</sym>
</trkpt>
<trkpt lat="47.516437" lon="15.620713">
<ele>1094.0</ele>
<desc>Speed 88.8 km/h Distance 31.88 km</desc>
<time>2012-09-18T15:50:42.04</time>
<name>1585</name>
<sym>Dot</sym>
</trkpt>
<trkpt lat="47.516533" lon="15.620408">
<ele>1093.0</ele>
<desc>Speed 91.2 km/h Distance 31.90 km</desc>
<time>2012-09-18T15:50:43.03</time>
<name>1586</name>
<sym>Dot</sym>
</trkpt>
<trkpt lat="47.516645" lon="15.620102">
<ele>1092.0</ele>
<desc>Speed 94.7 km/h Distance 31.93 km</desc>
<time>2012-09-18T15:50:44.03</time>
<name>1587</name>
<sym>Dot</sym>
</trkpt>
<trkpt lat="47.516770" lon="15.619793">
<ele>1091.0</ele>
<desc>Speed 97.2 km/h Distance 31.96 km</desc>
<time>2012-09-18T15:50:45.03</time>
<name>1588</name>
<sym>Dot</sym>
</trkpt>
<trkpt lat="47.516903" lon="15.619498">
<ele>1091.0</ele>
<desc>Speed 95.8 km/h Distance 31.98 km</desc>
<time>2012-09-18T15:50:46.02</time>
<name>1589</name>
<sym>Dot</sym>
</trkpt>
<trkpt lat="47.517037" lon="15.619218">
<ele>1091.0</ele>
<desc>Speed 93.1 km/h Distance 32.01 km</desc>
<time>2012-09-18T15:50:47.03</time>
<name>1590</name>
<sym>Dot</sym>
</trkpt>
<trkpt lat="47.517192" lon="15.618950">
<ele>1092.0</ele>
<desc>Speed 95.0 km/h Distance 32.03 km</desc>
<time>2012-09-18T15:50:48.02</time>
<name>1591</name>
<sym>Dot</sym>
</trkpt>
<trkpt lat="47.517360" lon="15.618692">
<ele>1091.5</ele>
<desc>Speed 97.3 km/h Distance 32.06 km</desc>
<time>2012-09-18T15:50:49.02</time>
<name>1592</name>
<sym>Dot</sym>
</trkpt>
<trkpt lat="47.517538" lon="15.618435">
<ele>1091.0</ele>
<desc>Speed 99.7 km/h Distance 32.09 km</desc>
<time>2012-09-18T15:50:50.00</time>
<name>1593</name>
<sym>Dot</sym>
</trkpt>
<trkpt lat="47.517725" lon="15.618182">
<ele>1091.0</ele>
<desc>Speed 101 km/h Distance 32.12 km</desc>
<time>2012-09-18T15:50:51.00</time>
<name>1594</name>
<sym>Dot</sym>
</trkpt>
<trkpt lat="47.517908" lon="15.617938">
<ele>1089.5</ele>
<desc>Speed 98.9 km/h Distance 32.14 km</desc>
<time>2012-09-18T15:50:52.00</time>
<name>1595</name>
<sym>Dot</sym>
</trkpt>
<trkpt lat="47.518078" lon="15.617708">
<ele>1089.5</ele>
<desc>Speed 92.2 km/h Distance 32.17 km</desc>
<time>2012-09-18T15:50:53.00</time>
<name>1596</name>
<sym>Dot</sym>
</trkpt>
<trkpt lat="47.518305" lon="15.617197">
<ele>1088.0</ele>
<desc>Speed 81.6 km/h Distance 32.22 km</desc>
<time>2012-09-18T15:50:54.99</time>
<name>1597</name>
<sym>Dot</sym>
</trkpt>
<trkpt lat="47.518368" lon="15.616912">
<ele>1088.5</ele>
<desc>Speed 82.0 km/h Distance 32.24 km</desc>
<time>2012-09-18T15:50:55.99</time>
<name>1598</name>
<sym>Dot</sym>
</trkpt>
<trkpt lat="47.518492" lon="15.616262">
<ele>1087.5</ele>
<desc>Speed 94.2 km/h Distance 32.29 km</desc>
<time>2012-09-18T15:50:59.36</time>
<name>1599</name>
<sym>Dot</sym>
</trkpt>
<trkpt lat="47.518548" lon="15.615937">
<ele>1087.0</ele>
<desc>Speed 91.3 km/h Distance 32.32 km</desc>
<time>2012-09-18T15:51:00.36</time>
<name>1600</name>
<sym>Dot</sym>
</trkpt>
<trkpt lat="47.518618" lon="15.615630">
<ele>1086.5</ele>
<desc>Speed 87.9 km/h Distance 32.34 km</desc>
<time>2012-09-18T15:51:01.36</time>
<name>1601</name>
<sym>Dot</sym>
</trkpt>
<trkpt lat="47.518702" lon="15.615333">
<ele>1086.0</ele>
<desc>Speed 87.4 km/h Distance 32.36 km</desc>
<time>2012-09-18T15:51:02.35</time>
<name>1602</name>
<sym>Dot</sym>
</trkpt>
<trkpt lat="47.518813" lon="15.615048">
<ele>1086.0</ele>
<desc>Speed 89.1 km/h Distance 32.39 km</desc>
<time>2012-09-18T15:51:03.36</time>
<name>1603</name>
<sym>Dot</sym>
</trkpt>
<trkpt lat="47.518945" lon="15.614767">
<ele>1086.0</ele>
<desc>Speed 92.7 km/h Distance 32.41 km</desc>
<time>2012-09-18T15:51:04.35</time>
<name>1604</name>
<sym>Dot</sym>
</trkpt>
<trkpt lat="47.519098" lon="15.614513">
<ele>1086.0</ele>
<desc>Speed 92.4 km/h Distance 32.44 km</desc>
<time>2012-09-18T15:51:05.34</time>
<name>1605</name>
<sym>Dot</sym>
</trkpt>
<trkpt lat="47.519247" lon="15.614265">
<ele>1086.0</ele>
<desc>Speed 90.0 km/h Distance 32.46 km</desc>
<time>2012-09-18T15:51:06.34</time>
<name>1606</name>
<sym>Dot</sym>
</trkpt>
<trkpt lat="47.519428" lon="15.614063">
<ele>1086.0</ele>
<desc>Speed 90.8 km/h Distance 32.49 km</desc>
<time>2012-09-18T15:51:07.33</time>
<name>1607</name>
<sym>Dot</sym>
</trkpt>
<trkpt lat="47.519600" lon="15.613872">
<ele>1085.5</ele>
<desc>Speed 85.9 km/h Distance 32.51 km</desc>
<time>2012-09-18T15:51:08.33</time>
<name>1608</name>
<sym>Dot</sym>
</trkpt>
<trkpt lat="47.519757" lon="15.613687">
<ele>1085.5</ele>
<desc>Speed 80.4 km/h Distance 32.54 km</desc>
<time>2012-09-18T15:51:09.32</time>
<name>1609</name>
<sym>Dot</sym>
</trkpt>
<trkpt lat="47.519905" lon="15.613480">
<ele>1085.5</ele>
<desc>Speed 81.4 km/h Distance 32.56 km</desc>
<time>2012-09-18T15:51:10.31</time>
<name>1610</name>
<sym>Dot</sym>
</trkpt>
<trkpt lat="47.520042" lon="15.613263">
<ele>1085.5</ele>
<desc>Speed 80.5 km/h Distance 32.58 km</desc>
<time>2012-09-18T15:51:11.32</time>
<name>1611</name>
<sym>Dot</sym>
</trkpt>
<trkpt lat="47.520147" lon="15.613038">
<ele>1085.5</ele>
<desc>Speed 73.4 km/h Distance 32.60 km</desc>
<time>2012-09-18T15:51:12.31</time>
<name>1612</name>
<sym>Dot</sym>
</trkpt>
<trkpt lat="47.520222" lon="15.612782">
<ele>1084.0</ele>
<desc>Speed 76.1 km/h Distance 32.62 km</desc>
<time>2012-09-18T15:51:13.30</time>
<name>1613</name>
<sym>Dot</sym>
</trkpt>
<trkpt lat="47.520292" lon="15.612497">
<ele>1083.5</ele>
<desc>Speed 83.0 km/h Distance 32.65 km</desc>
<time>2012-09-18T15:51:14.30</time>
<name>1614</name>
<sym>Dot</sym>
</trkpt>
<trkpt lat="47.520350" lon="15.612197">
<ele>1083.0</ele>
<desc>Speed 84.9 km/h Distance 32.67 km</desc>
<time>2012-09-18T15:51:15.30</time>
<name>1615</name>
<sym>Dot</sym>
</trkpt>
<trkpt lat="47.520398" lon="15.611893">
<ele>1082.5</ele>
<desc>Speed 85.1 km/h Distance 32.69 km</desc>
<time>2012-09-18T15:51:16.29</time>
<name>1616</name>
<sym>Dot</sym>
</trkpt>
<trkpt lat="47.520440" lon="15.611602">
<ele>1081.0</ele>
<desc>Speed 81.2 km/h Distance 32.71 km</desc>
<time>2012-09-18T15:51:17.29</time>
<name>1617</name>
<sym>Dot</sym>
</trkpt>
<trkpt lat="47.520515" lon="15.611082">
<ele>1081.0</ele>
<desc>Speed 70.8 km/h Distance 32.75 km</desc>
<time>2012-09-18T15:51:19.28</time>
<name>1618</name>
<sym>Dot</sym>
</trkpt>
<trkpt lat="47.520575" lon="15.610838">
<ele>1079.0</ele>
<desc>Speed 70.0 km/h Distance 32.77 km</desc>
<time>2012-09-18T15:51:20.29</time>
<name>1619</name>
<sym>Dot</sym>
</trkpt>
<trkpt lat="47.520675" lon="15.610627">
<ele>1078.5</ele>
<desc>Speed 70.4 km/h Distance 32.79 km</desc>
<time>2012-09-18T15:51:21.28</time>
<name>1620</name>
<sym>Dot</sym>
</trkpt>
<trkpt lat="47.520772" lon="15.610410">
<ele>1077.0</ele>
<desc>Speed 70.9 km/h Distance 32.81 km</desc>
<time>2012-09-18T15:51:22.28</time>
<name>1621</name>
<sym>Dot</sym>
</trkpt>
<trkpt lat="47.520897" lon="15.610215">
<ele>1075.5</ele>
<desc>Speed 71.8 km/h Distance 32.83 km</desc>
<time>2012-09-18T15:51:23.27</time>
<name>1622</name>
<sym>Dot</sym>
</trkpt>
<trkpt lat="47.520997" lon="15.610013">
<ele>1074.5</ele>
<desc>Speed 68.2 km/h Distance 32.85 km</desc>
<time>2012-09-18T15:51:24.26</time>
<name>1623</name>
<sym>Dot</sym>
</trkpt>
<trkpt lat="47.521088" lon="15.609790">
<ele>1073.0</ele>
<desc>Speed 71.0 km/h Distance 32.87 km</desc>
<time>2012-09-18T15:51:25.25</time>
<name>1624</name>
<sym>Dot</sym>
</trkpt>
<trkpt lat="47.521172" lon="15.609562">
<ele>1072.0</ele>
<desc>Speed 70.6 km/h Distance 32.89 km</desc>
<time>2012-09-18T15:51:26.25</time>
<name>1625</name>
<sym>Dot</sym>
</trkpt>
<trkpt lat="47.521262" lon="15.609343">
<ele>1070.0</ele>
<desc>Speed 69.8 km/h Distance 32.91 km</desc>
<time>2012-09-18T15:51:27.23</time>
<name>1626</name>
<sym>Dot</sym>
</trkpt>
<trkpt lat="47.521365" lon="15.609138">
<ele>1069.5</ele>
<desc>Speed 69.4 km/h Distance 32.93 km</desc>
<time>2012-09-18T15:51:28.23</time>
<name>1627</name>
<sym>Dot</sym>
</trkpt>
<trkpt lat="47.521475" lon="15.608952">
<ele>1068.5</ele>
<desc>Speed 66.4 km/h Distance 32.95 km</desc>
<time>2012-09-18T15:51:29.38</time>
<name>1628</name>
<sym>Dot</sym>
</trkpt>
<trkpt lat="47.521578" lon="15.608777">
<ele>1066.5</ele>
<desc>Speed 62.7 km/h Distance 32.97 km</desc>
<time>2012-09-18T15:51:30.24</time>
<name>1629</name>
<sym>Dot</sym>
</trkpt>
<trkpt lat="47.521667" lon="15.608592">
<ele>1065.0</ele>
<desc>Speed 61.3 km/h Distance 32.98 km</desc>
<time>2012-09-18T15:51:31.23</time>
<name>1630</name>
<sym>Dot</sym>
</trkpt>
<trkpt lat="47.521727" lon="15.608360">
<ele>1063.5</ele>
<desc>Speed 67.3 km/h Distance 33.00 km</desc>
<time>2012-09-18T15:51:32.23</time>
<name>1631</name>
<sym>Dot</sym>
</trkpt>
<trkpt lat="47.521815" lon="15.607808">
<ele>1065.0</ele>
<desc>Speed 75.4 km/h Distance 33.04 km</desc>
<time>2012-09-18T15:51:34.21</time>
<name>1632</name>
<sym>Dot</sym>
</trkpt>
<trkpt lat="47.521865" lon="15.607560">
<ele>1065.0</ele>
<desc>Speed 71.3 km/h Distance 33.06 km</desc>
<time>2012-09-18T15:51:35.21</time>
<name>1633</name>
<sym>Dot</sym>
</trkpt>
<trkpt lat="47.521920" lon="15.607332">
<ele>1063.5</ele>
<desc>Speed 65.8 km/h Distance 33.08 km</desc>
<time>2012-09-18T15:51:36.20</time>
<name>1634</name>
<sym>Dot</sym>
</trkpt>
<trkpt lat="47.521968" lon="15.607117">
<ele>1062.5</ele>
<desc>Speed 61.6 km/h Distance 33.10 km</desc>
<time>2012-09-18T15:51:37.21</time>
<name>1635</name>
<sym>Dot</sym>
</trkpt>
<trkpt lat="47.522013" lon="15.606913">
<ele>1061.0</ele>
<desc>Speed 58.6 km/h Distance 33.11 km</desc>
<time>2012-09-18T15:51:38.21</time>
<name>1636</name>
<sym>Dot</sym>
</trkpt>
<trkpt lat="47.522050" lon="15.606715">
<ele>1059.5</ele>
<desc>Speed 56.5 km/h Distance 33.13 km</desc>
<time>2012-09-18T15:51:39.21</time>
<name>1637</name>
<sym>Dot</sym>
</trkpt>
<trkpt lat="47.522078" lon="15.606518">
<ele>1057.5</ele>
<desc>Speed 55.4 km/h Distance 33.15 km</desc>
<time>2012-09-18T15:51:40.20</time>
<name>1638</name>
<sym>Dot</sym>
</trkpt>
<trkpt lat="47.522095" lon="15.606317">
<ele>1057.5</ele>
<desc>Speed 55.7 km/h Distance 33.16 km</desc>
<time>2012-09-18T15:51:41.20</time>
<name>1639</name>
<sym>Dot</sym>
</trkpt>
<trkpt lat="47.522098" lon="15.606127">
<ele>1057.5</ele>
<desc>Speed 51.6 km/h Distance 33.18 km</desc>
<time>2012-09-18T15:51:42.19</time>
<name>1640</name>
<sym>Dot</sym>
</trkpt>
<trkpt lat="47.522102" lon="15.605943">
<ele>1056.0</ele>
<desc>Speed 51.2 km/h Distance 33.19 km</desc>
<time>2012-09-18T15:51:43.20</time>
<name>1641</name>
<sym>Dot</sym>
</trkpt>
<trkpt lat="47.522112" lon="15.605755">
<ele>1055.5</ele>
<desc>Speed 51.5 km/h Distance 33.20 km</desc>
<time>2012-09-18T15:51:44.19</time>
<name>1642</name>
<sym>Dot</sym>
</trkpt>
<trkpt lat="47.522152" lon="15.605578">
<ele>1053.5</ele>
<desc>Speed 50.9 km/h Distance 33.22 km</desc>
<time>2012-09-18T15:51:45.19</time>
<name>1643</name>
<sym>Dot</sym>
</trkpt>
<trkpt lat="47.522233" lon="15.605427">
<ele>1053.5</ele>
<desc>Speed 52.8 km/h Distance 33.23 km</desc>
<time>2012-09-18T15:51:46.18</time>
<name>1644</name>
<sym>Dot</sym>
</trkpt>
<trkpt lat="47.522335" lon="15.605273">
<ele>1052.0</ele>
<desc>Speed 58.0 km/h Distance 33.25 km</desc>
<time>2012-09-18T15:51:47.18</time>
<name>1645</name>
<sym>Dot</sym>
</trkpt>
<trkpt lat="47.522450" lon="15.605140">
<ele>1051.5</ele>
<desc>Speed 59.0 km/h Distance 33.26 km</desc>
<time>2012-09-18T15:51:48.17</time>
<name>1646</name>
<sym>Dot</sym>
</trkpt>
<trkpt lat="47.522557" lon="15.605010">
<ele>1051.0</ele>
<desc>Speed 55.1 km/h Distance 33.28 km</desc>
<time>2012-09-18T15:51:49.17</time>
<name>1647</name>
<sym>Dot</sym>
</trkpt>
<trkpt lat="47.522652" lon="15.604868">
<ele>1049.5</ele>
<desc>Speed 54.5 km/h Distance 33.29 km</desc>
<time>2012-09-18T15:51:50.16</time>
<name>1648</name>
<sym>Dot</sym>
</trkpt>
<trkpt lat="47.522712" lon="15.604687">
<ele>1048.0</ele>
<desc>Speed 55.1 km/h Distance 33.31 km</desc>
<time>2012-09-18T15:51:51.16</time>
<name>1649</name>
<sym>Dot</sym>
</trkpt>
<trkpt lat="47.522772" lon="15.604515">
<ele>1046.5</ele>
<desc>Speed 53.0 km/h Distance 33.32 km</desc>
<time>2012-09-18T15:51:52.15</time>
<name>1650</name>
<sym>Dot</sym>
</trkpt>
<trkpt lat="47.522823" lon="15.604360">
<ele>1046.5</ele>
<desc>Speed 46.5 km/h Distance 33.34 km</desc>
<time>2012-09-18T15:51:53.15</time>
<name>1651</name>
<sym>Dot</sym>
</trkpt>
<trkpt lat="47.522873" lon="15.604217">
<ele>1045.5</ele>
<desc>Speed 44.1 km/h Distance 33.35 km</desc>
<time>2012-09-18T15:51:54.14</time>
<name>1652</name>
<sym>Dot</sym>
</trkpt>
<trkpt lat="47.522928" lon="15.604088">
<ele>1045.0</ele>
<desc>Speed 41.3 km/h Distance 33.36 km</desc>
<time>2012-09-18T15:51:55.14</time>
<name>1653</name>
<sym>Dot</sym>
</trkpt>
<trkpt lat="47.523007" lon="15.603982">
<ele>1043.5</ele>
<desc>Speed 42.4 km/h Distance 33.37 km</desc>
<time>2012-09-18T15:51:56.13</time>
<name>1654</name>
<sym>Dot</sym>
</trkpt>
<trkpt lat="47.523115" lon="15.603912">
<ele>1043.5</ele>
<desc>Speed 47.6 km/h Distance 33.39 km</desc>
<time>2012-09-18T15:51:57.13</time>
<name>1655</name>
<sym>Dot</sym>
</trkpt>
<trkpt lat="47.523245" lon="15.603888">
<ele>1043.5</ele>
<desc>Speed 51.9 km/h Distance 33.40 km</desc>
<time>2012-09-18T15:51:58.13</time>
<name>1656</name>
<sym>Dot</sym>
</trkpt>
<trkpt lat="47.523382" lon="15.603910">
<ele>1043.0</ele>
<desc>Speed 55.1 km/h Distance 33.42 km</desc>
<time>2012-09-18T15:51:59.12</time>
<name>1657</name>
<sym>Dot</sym>
</trkpt>
<trkpt lat="47.523693" lon="15.604033">
<ele>1041.0</ele>
<desc>Speed 66.0 km/h Distance 33.45 km</desc>
<time>2012-09-18T15:52:01.12</time>
<name>1658</name>
<sym>Dot</sym>
</trkpt>
<trkpt lat="47.523838" lon="15.604122">
<ele>1040.5</ele>
<desc>Speed 63.2 km/h Distance 33.47 km</desc>
<time>2012-09-18T15:52:02.11</time>
<name>1659</name>
<sym>Dot</sym>
</trkpt>
<trkpt lat="47.524418" lon="15.604385">
<ele>1038.5</ele>
<desc>Speed 79.3 km/h Distance 33.54 km</desc>
<time>2012-09-18T15:52:05.37</time>
<name>1660</name>
<sym>Dot</sym>
</trkpt>
<trkpt lat="47.524850" lon="15.604690">
<ele>1031.5</ele>
<desc>Speed 61.8 km/h Distance 33.59 km</desc>
<time>2012-09-18T15:52:08.37</time>
<name>1661</name>
<sym>Dot</sym>
</trkpt>
<trkpt lat="47.525062" lon="15.604990">
<ele>1031.5</ele>
<desc>Speed 64.4 km/h Distance 33.62 km</desc>
<time>2012-09-18T15:52:10.35</time>
<name>1662</name>
<sym>Dot</sym>
</trkpt>
<trkpt lat="47.525177" lon="15.605162">
<ele>1031.5</ele>
<desc>Speed 62.2 km/h Distance 33.64 km</desc>
<time>2012-09-18T15:52:11.34</time>
<name>1663</name>
<sym>Dot</sym>
</trkpt>
<trkpt lat="47.525400" lon="15.605373">
<ele>1030.5</ele>
<desc>Speed 51.8 km/h Distance 33.67 km</desc>
<time>2012-09-18T15:52:13.33</time>
<name>1664</name>
<sym>Dot</sym>
</trkpt>
<trkpt lat="47.525517" lon="15.605410">
<ele>1030.0</ele>
<desc>Speed 46.7 km/h Distance 33.68 km</desc>
<time>2012-09-18T15:52:14.33</time>
<name>1665</name>
<sym>Dot</sym>
</trkpt>
<trkpt lat="47.525632" lon="15.605418">
<ele>1030.0</ele>
<desc>Speed 44.9 km/h Distance 33.70 km</desc>
<time>2012-09-18T15:52:15.33</time>
<name>1666</name>
<sym>Dot</sym>
</trkpt>
<trkpt lat="47.526220" lon="15.605025">
<ele>1028.0</ele>
<desc>Speed 68.7 km/h Distance 33.77 km</desc>
<time>2012-09-18T15:52:19.36</time>
<name>1667</name>
<sym>Dot</sym>
</trkpt>
<trkpt lat="47.526360" lon="15.604890">
<ele>1028.5</ele>
<desc>Speed 65.8 km/h Distance 33.79 km</desc>
<time>2012-09-18T15:52:20.34</time>
<name>1668</name>
<sym>Dot</sym>
</trkpt>
<trkpt lat="47.526460" lon="15.604718">
<ele>1028.0</ele>
<desc>Speed 60.7 km/h Distance 33.80 km</desc>
<time>2012-09-18T15:52:21.35</time>
<name>1669</name>
<sym>Dot</sym>
</trkpt>
<trkpt lat="47.526802" lon="15.603655">
<ele>1025.0</ele>
<desc>Speed 83.6 km/h Distance 33.89 km</desc>
<time>2012-09-18T15:52:25.35</time>
<name>1670</name>
<sym>Dot</sym>
</trkpt>
<trkpt lat="47.526895" lon="15.603382">
<ele>1022.5</ele>
<desc>Speed 82.3 km/h Distance 33.92 km</desc>
<time>2012-09-18T15:52:26.36</time>
<name>1671</name>
<sym>Dot</sym>
</trkpt>
<trkpt lat="47.526983" lon="15.603112">
<ele>1020.0</ele>
<desc>Speed 80.3 km/h Distance 33.94 km</desc>
<time>2012-09-18T15:52:27.35</time>
<name>1672</name>
<sym>Dot</sym>
</trkpt>
<trkpt lat="47.527038" lon="15.602827">
<ele>1019.0</ele>
<desc>Speed 79.7 km/h Distance 33.96 km</desc>
<time>2012-09-18T15:52:28.34</time>
<name>1673</name>
<sym>Dot</sym>
</trkpt>
<trkpt lat="47.527232" lon="15.601860">
<ele>1013.0</ele>
<desc>Speed 55.7 km/h Distance 34.04 km</desc>
<time>2012-09-18T15:52:33.35</time>
<name>1674</name>
<sym>Dot</sym>
</trkpt>
<trkpt lat="47.527335" lon="15.601718">
<ele>1011.5</ele>
<desc>Speed 55.7 km/h Distance 34.05 km</desc>
<time>2012-09-18T15:52:34.35</time>
<name>1675</name>
<sym>Dot</sym>
</trkpt>
<trkpt lat="47.527463" lon="15.601595">
<ele>1011.0</ele>
<desc>Speed 60.7 km/h Distance 34.07 km</desc>
<time>2012-09-18T15:52:35.35</time>
<name>1676</name>
<sym>Dot</sym>
</trkpt>
<trkpt lat="47.527600" lon="15.601510">
<ele>1011.0</ele>
<desc>Speed 58.6 km/h Distance 34.09 km</desc>
<time>2012-09-18T15:52:36.34</time>
<name>1677</name>
<sym>Dot</sym>
</trkpt>
<trkpt lat="47.527917" lon="15.601387">
<ele>1010.0</ele>
<desc>Speed 61.5 km/h Distance 34.12 km</desc>
<time>2012-09-18T15:52:38.34</time>
<name>1678</name>
<sym>Dot</sym>
</trkpt>
<trkpt lat="47.528270" lon="15.601363">
<ele>1005.0</ele>
<desc>Speed 46.3 km/h Distance 34.16 km</desc>
<time>2012-09-18T15:52:41.36</time>
<name>1679</name>
<sym>Dot</sym>
</trkpt>
<trkpt lat="47.528495" lon="15.601598">
<ele>998.5</ele>
<desc>Speed 52.4 km/h Distance 34.19 km</desc>
<time>2012-09-18T15:52:43.33</time>
<name>1680</name>
<sym>Dot</sym>
</trkpt>
<trkpt lat="47.528597" lon="15.601750">
<ele>997.0</ele>
<desc>Speed 51.4 km/h Distance 34.21 km</desc>
<time>2012-09-18T15:52:44.34</time>
<name>1681</name>
<sym>Dot</sym>
</trkpt>
<trkpt lat="47.529033" lon="15.602668">
<ele>992.0</ele>
<desc>Speed 65.8 km/h Distance 34.29 km</desc>
<time>2012-09-18T15:52:48.35</time>
<name>1682</name>
<sym>Dot</sym>
</trkpt>
<trkpt lat="47.529125" lon="15.602863">
<ele>988.5</ele>
<desc>Speed 61.2 km/h Distance 34.31 km</desc>
<time>2012-09-18T15:52:49.34</time>
<name>1683</name>
<sym>Dot</sym>
</trkpt>
<trkpt lat="47.529215" lon="15.603033">
<ele>986.5</ele>
<desc>Speed 56.6 km/h Distance 34.33 km</desc>
<time>2012-09-18T15:52:50.33</time>
<name>1684</name>
<sym>Dot</sym>
</trkpt>
<trkpt lat="47.529312" lon="15.603155">
<ele>986.0</ele>
<desc>Speed 50.0 km/h Distance 34.34 km</desc>
<time>2012-09-18T15:52:51.33</time>
<name>1685</name>
<sym>Dot</sym>
</trkpt>
<trkpt lat="47.529577" lon="15.603350">
<ele>983.0</ele>
<desc>Speed 52.3 km/h Distance 34.37 km</desc>
<time>2012-09-18T15:52:53.32</time>
<name>1686</name>
<sym>Dot</sym>
</trkpt>
<trkpt lat="47.529708" lon="15.603307">
<ele>983.0</ele>
<desc>Speed 53.8 km/h Distance 34.39 km</desc>
<time>2012-09-18T15:52:54.33</time>
<name>1687</name>
<sym>Dot</sym>
</trkpt>
<trkpt lat="47.529955" lon="15.603107">
<ele>981.5</ele>
<desc>Speed 67.1 km/h Distance 34.42 km</desc>
<time>2012-09-18T15:52:56.31</time>
<name>1688</name>
<sym>Dot</sym>
</trkpt>
<trkpt lat="47.530432" lon="15.602493">
<ele>977.5</ele>
<desc>Speed 88.3 km/h Distance 34.49 km</desc>
<time>2012-09-18T15:52:59.36</time>
<name>1689</name>
<sym>Dot</sym>
</trkpt>
<trkpt lat="47.530770" lon="15.602038">
<ele>972.0</ele>
<desc>Speed 84.2 km/h Distance 34.54 km</desc>
<time>2012-09-18T15:53:01.34</time>
<name>1690</name>
<sym>Dot</sym>
</trkpt>
<trkpt lat="47.530933" lon="15.601845">
<ele>969.0</ele>
<desc>Speed 80.1 km/h Distance 34.56 km</desc>
<time>2012-09-18T15:53:02.34</time>
<name>1691</name>
<sym>Dot</sym>
</trkpt>
<trkpt lat="47.531080" lon="15.601662">
<ele>968.0</ele>
<desc>Speed 74.7 km/h Distance 34.59 km</desc>
<time>2012-09-18T15:53:03.33</time>
<name>1692</name>
<sym>Dot</sym>
</trkpt>
<trkpt lat="47.531208" lon="15.601478">
<ele>965.5</ele>
<desc>Speed 69.3 km/h Distance 34.61 km</desc>
<time>2012-09-18T15:53:04.34</time>
<name>1693</name>
<sym>Dot</sym>
</trkpt>
<trkpt lat="47.531297" lon="15.601263">
<ele>965.5</ele>
<desc>Speed 66.8 km/h Distance 34.62 km</desc>
<time>2012-09-18T15:53:05.33</time>
<name>1694</name>
<sym>Dot</sym>
</trkpt>
<trkpt lat="47.531362" lon="15.601025">
<ele>964.5</ele>
<desc>Speed 69.0 km/h Distance 34.64 km</desc>
<time>2012-09-18T15:53:06.37</time>
<name>1695</name>
<sym>Dot</sym>
</trkpt>
<trkpt lat="47.531405" lon="15.600777">
<ele>962.5</ele>
<desc>Speed 68.7 km/h Distance 34.66 km</desc>
<time>2012-09-18T15:53:07.31</time>
<name>1696</name>
<sym>Dot</sym>
</trkpt>
<trkpt lat="47.531420" lon="15.600528">
<ele>961.5</ele>
<desc>Speed 67.1 km/h Distance 34.68 km</desc>
<time>2012-09-18T15:53:08.32</time>
<name>1697</name>
<sym>Dot</sym>
</trkpt>
<trkpt lat="47.531603" lon="15.599898">
<ele>954.0</ele>
<desc>Speed 48.9 km/h Distance 34.73 km</desc>
<time>2012-09-18T15:53:12.35</time>
<name>1698</name>
<sym>Dot</sym>
</trkpt>
<trkpt lat="47.531857" lon="15.599698">
<ele>950.5</ele>
<desc>Speed 57.0 km/h Distance 34.76 km</desc>
<time>2012-09-18T15:53:14.35</time>
<name>1699</name>
<sym>Dot</sym>
</trkpt>
<trkpt lat="47.531977" lon="15.599588">
<ele>948.5</ele>
<desc>Speed 55.7 km/h Distance 34.78 km</desc>
<time>2012-09-18T15:53:15.34</time>
<name>1700</name>
<sym>Dot</sym>
</trkpt>
<trkpt lat="47.532085" lon="15.599423">
<ele>948.0</ele>
<desc>Speed 61.6 km/h Distance 34.80 km</desc>
<time>2012-09-18T15:53:16.34</time>
<name>1701</name>
<sym>Dot</sym>
</trkpt>
<trkpt lat="47.532162" lon="15.599228">
<ele>946.5</ele>
<desc>Speed 60.4 km/h Distance 34.81 km</desc>
<time>2012-09-18T15:53:17.34</time>
<name>1702</name>
<sym>Dot</sym>
</trkpt>
<trkpt lat="47.532218" lon="15.599005">
<ele>944.0</ele>
<desc>Speed 64.1 km/h Distance 34.83 km</desc>
<time>2012-09-18T15:53:18.33</time>
<name>1703</name>
<sym>Dot</sym>
</trkpt>
<trkpt lat="47.532245" lon="15.598758">
<ele>944.0</ele>
<desc>Speed 67.6 km/h Distance 34.85 km</desc>
<time>2012-09-18T15:53:19.33</time>
<name>1704</name>
<sym>Dot</sym>
</trkpt>
<trkpt lat="47.532275" lon="15.598532">
<ele>943.5</ele>
<desc>Speed 62.6 km/h Distance 34.87 km</desc>
<time>2012-09-18T15:53:20.33</time>
<name>1705</name>
<sym>Dot</sym>
</trkpt>
<trkpt lat="47.532280" lon="15.598327">
<ele>943.0</ele>
<desc>Speed 55.5 km/h Distance 34.88 km</desc>
<time>2012-09-18T15:53:21.32</time>
<name>1706</name>
<sym>Dot</sym>
</trkpt>
<trkpt lat="47.532383" lon="15.597940">
<ele>940.5</ele>
<desc>Speed 35.9 km/h Distance 34.92 km</desc>
<time>2012-09-18T15:53:24.35</time>
<name>1707</name>
<sym>Dot</sym>
</trkpt>
<trkpt lat="47.532470" lon="15.597883">
<ele>940.0</ele>
<desc>Speed 38.0 km/h Distance 34.93 km</desc>
<time>2012-09-18T15:53:25.35</time>
<name>1708</name>
<sym>Dot</sym>
</trkpt>
<trkpt lat="47.532582" lon="15.597875">
<ele>940.0</ele>
<desc>Speed 44.3 km/h Distance 34.94 km</desc>
<time>2012-09-18T15:53:26.35</time>
<name>1709</name>
<sym>Dot</sym>
</trkpt>
<trkpt lat="47.532697" lon="15.597922">
<ele>939.5</ele>
<desc>Speed 47.6 km/h Distance 34.95 km</desc>
<time>2012-09-18T15:53:27.34</time>
<name>1710</name>
<sym>Dot</sym>
</trkpt>
<trkpt lat="47.533200" lon="15.598565">
<ele>937.0</ele>
<desc>Speed 72.7 km/h Distance 35.03 km</desc>
<time>2012-09-18T15:53:31.36</time>
<name>1711</name>
<sym>Dot</sym>
</trkpt>
<trkpt lat="47.533313" lon="15.598768">
<ele>935.0</ele>
<desc>Speed 70.4 km/h Distance 35.05 km</desc>
<time>2012-09-18T15:53:32.36</time>
<name>1712</name>
<sym>Dot</sym>
</trkpt>
<trkpt lat="47.533480" lon="15.599115">
<ele>932.5</ele>
<desc>Speed 56.6 km/h Distance 35.08 km</desc>
<time>2012-09-18T15:53:34.36</time>
<name>1713</name>
<sym>Dot</sym>
</trkpt>
<trkpt lat="47.533718" lon="15.599478">
<ele>932.0</ele>
<desc>Speed 30.2 km/h Distance 35.12 km</desc>
<time>2012-09-18T15:53:38.35</time>
<name>1714</name>
<sym>Dot</sym>
</trkpt>
<trkpt lat="47.533807" lon="15.599443">
<ele>932.5</ele>
<desc>Speed 36.6 km/h Distance 35.13 km</desc>
<time>2012-09-18T15:53:39.35</time>
<name>1715</name>
<sym>Dot</sym>
</trkpt>
<trkpt lat="47.534473" lon="15.598917">
<ele>923.0</ele>
<desc>Speed 69.1 km/h Distance 35.21 km</desc>
<time>2012-09-18T15:53:44.35</time>
<name>1716</name>
<sym>Dot</sym>
</trkpt>
<trkpt lat="47.534618" lon="15.598752">
<ele>923.0</ele>
<desc>Speed 72.8 km/h Distance 35.23 km</desc>
<time>2012-09-18T15:53:45.35</time>
<name>1717</name>
<sym>Dot</sym>
</trkpt>
<trkpt lat="47.534763" lon="15.598563">
<ele>922.5</ele>
<desc>Speed 76.8 km/h Distance 35.25 km</desc>
<time>2012-09-18T15:53:46.35</time>
<name>1718</name>
<sym>Dot</sym>
</trkpt>
<trkpt lat="47.534868" lon="15.598345">
<ele>920.5</ele>
<desc>Speed 72.1 km/h Distance 35.27 km</desc>
<time>2012-09-18T15:53:47.35</time>
<name>1719</name>
<sym>Dot</sym>
</trkpt>
<trkpt lat="47.535068" lon="15.597982">
<ele>920.0</ele>
<desc>Speed 63.0 km/h Distance 35.31 km</desc>
<time>2012-09-18T15:53:49.34</time>
<name>1720</name>
<sym>Dot</sym>
</trkpt>
<trkpt lat="47.535192" lon="15.597845">
<ele>920.0</ele>
<desc>Speed 61.6 km/h Distance 35.32 km</desc>
<time>2012-09-18T15:53:50.34</time>
<name>1721</name>
<sym>Dot</sym>
</trkpt>
<trkpt lat="47.535467" lon="15.597567">
<ele>916.5</ele>
<desc>Speed 74.3 km/h Distance 35.36 km</desc>
<time>2012-09-18T15:53:52.33</time>
<name>1722</name>
<sym>Dot</sym>
</trkpt>
<trkpt lat="47.535628" lon="15.597407">
<ele>916.0</ele>
<desc>Speed 77.1 km/h Distance 35.38 km</desc>
<time>2012-09-18T15:53:53.33</time>
<name>1723</name>
<sym>Dot</sym>
</trkpt>
<trkpt lat="47.535780" lon="15.597247">
<ele>915.0</ele>
<desc>Speed 72.5 km/h Distance 35.40 km</desc>
<time>2012-09-18T15:53:54.32</time>
<name>1724</name>
<sym>Dot</sym>
</trkpt>
<trkpt lat="47.536020" lon="15.596895">
<ele>907.5</ele>
<desc>Speed 65.0 km/h Distance 35.44 km</desc>
<time>2012-09-18T15:53:56.32</time>
<name>1725</name>
<sym>Dot</sym>
</trkpt>
<trkpt lat="47.536150" lon="15.596373">
<ele>903.5</ele>
<desc>Speed 46.7 km/h Distance 35.48 km</desc>
<time>2012-09-18T15:53:59.35</time>
<name>1726</name>
<sym>Dot</sym>
</trkpt>
<trkpt lat="47.536133" lon="15.596187">
<ele>903.0</ele>
<desc>Speed 51.9 km/h Distance 35.50 km</desc>
<time>2012-09-18T15:54:00.35</time>
<name>1727</name>
<sym>Dot</sym>
</trkpt>
<trkpt lat="47.536075" lon="15.596008">
<ele>902.0</ele>
<desc>Speed 55.3 km/h Distance 35.51 km</desc>
<time>2012-09-18T15:54:01.35</time>
<name>1728</name>
<sym>Dot</sym>
</trkpt>
<trkpt lat="47.536028" lon="15.595818">
<ele>903.0</ele>
<desc>Speed 56.0 km/h Distance 35.53 km</desc>
<time>2012-09-18T15:54:02.35</time>
<name>1729</name>
<sym>Dot</sym>
</trkpt>
<trkpt lat="47.535977" lon="15.595412">
<ele>902.0</ele>
<desc>Speed 37.8 km/h Distance 35.56 km</desc>
<time>2012-09-18T15:54:05.34</time>
<name>1730</name>
<sym>Dot</sym>
</trkpt>
<trkpt lat="47.536028" lon="15.595288">
<ele>900.5</ele>
<desc>Speed 38.8 km/h Distance 35.57 km</desc>
<time>2012-09-18T15:54:06.34</time>
<name>1731</name>
<sym>Dot</sym>
</trkpt>
<trkpt lat="47.536832" lon="15.594140">
<ele>892.5</ele>
<desc>Speed 83.9 km/h Distance 35.69 km</desc>
<time>2012-09-18T15:54:12.35</time>
<name>1732</name>
<sym>Dot</sym>
</trkpt>
<trkpt lat="47.536988" lon="15.593957">
<ele>891.5</ele>
<desc>Speed 79.6 km/h Distance 35.72 km</desc>
<time>2012-09-18T15:54:13.34</time>
<name>1733</name>
<sym>Dot</sym>
</trkpt>
<trkpt lat="47.537155" lon="15.593778">
<ele>890.5</ele>
<desc>Speed 81.9 km/h Distance 35.74 km</desc>
<time>2012-09-18T15:54:14.34</time>
<name>1734</name>
<sym>Dot</sym>
</trkpt>
<trkpt lat="47.537318" lon="15.593600">
<ele>889.5</ele>
<desc>Speed 81.5 km/h Distance 35.76 km</desc>
<time>2012-09-18T15:54:15.33</time>
<name>1735</name>
<sym>Dot</sym>
</trkpt>
<trkpt lat="47.537490" lon="15.593423">
<ele>888.0</ele>
<desc>Speed 83.9 km/h Distance 35.78 km</desc>
<time>2012-09-18T15:54:16.32</time>
<name>1736</name>
<sym>Dot</sym>
</trkpt>
<trkpt lat="47.537767" lon="15.593063">
<ele>886.5</ele>
<desc>Speed 73.2 km/h Distance 35.83 km</desc>
<time>2012-09-18T15:54:18.32</time>
<name>1737</name>
<sym>Dot</sym>
</trkpt>
<trkpt lat="47.537890" lon="15.592873">
<ele>886.0</ele>
<desc>Speed 71.7 km/h Distance 35.85 km</desc>
<time>2012-09-18T15:54:19.32</time>
<name>1738</name>
<sym>Dot</sym>
</trkpt>
<trkpt lat="47.537987" lon="15.592672">
<ele>881.0</ele>
<desc>Speed 70.4 km/h Distance 35.86 km</desc>
<time>2012-09-18T15:54:20.33</time>
<name>1739</name>
<sym>Dot</sym>
</trkpt>
<trkpt lat="47.538085" lon="15.592467">
<ele>878.0</ele>
<desc>Speed 70.8 km/h Distance 35.88 km</desc>
<time>2012-09-18T15:54:21.31</time>
<name>1740</name>
<sym>Dot</sym>
</trkpt>
<trkpt lat="47.538187" lon="15.592262">
<ele>876.0</ele>
<desc>Speed 70.3 km/h Distance 35.90 km</desc>
<time>2012-09-18T15:54:22.31</time>
<name>1741</name>
<sym>Dot</sym>
</trkpt>
<trkpt lat="47.538297" lon="15.592053">
<ele>875.5</ele>
<desc>Speed 71.4 km/h Distance 35.92 km</desc>
<time>2012-09-18T15:54:23.30</time>
<name>1742</name>
<sym>Dot</sym>
</trkpt>
<trkpt lat="47.538417" lon="15.591853">
<ele>874.0</ele>
<desc>Speed 71.5 km/h Distance 35.94 km</desc>
<time>2012-09-18T15:54:24.29</time>
<name>1743</name>
<sym>Dot</sym>
</trkpt>
<trkpt lat="47.538538" lon="15.591663">
<ele>868.0</ele>
<desc>Speed 71.2 km/h Distance 35.96 km</desc>
<time>2012-09-18T15:54:25.28</time>
<name>1744</name>
<sym>Dot</sym>
</trkpt>
<trkpt lat="47.538668" lon="15.591493">
<ele>863.5</ele>
<desc>Speed 70.8 km/h Distance 35.98 km</desc>
<time>2012-09-18T15:54:26.28</time>
<name>1745</name>
<sym>Dot</sym>
</trkpt>
<trkpt lat="47.538795" lon="15.591340">
<ele>859.0</ele>
<desc>Speed 67.0 km/h Distance 36.00 km</desc>
<time>2012-09-18T15:54:27.27</time>
<name>1746</name>
<sym>Dot</sym>
</trkpt>
<trkpt lat="47.538923" lon="15.591213">
<ele>851.5</ele>
<desc>Speed 60.4 km/h Distance 36.02 km</desc>
<time>2012-09-18T15:54:28.27</time>
<name>1747</name>
<sym>Dot</sym>
</trkpt>
<trkpt lat="47.539055" lon="15.591143">
<ele>852.0</ele>
<desc>Speed 55.4 km/h Distance 36.03 km</desc>
<time>2012-09-18T15:54:29.26</time>
<name>1748</name>
<sym>Dot</sym>
</trkpt>
<trkpt lat="47.539193" lon="15.591085">
<ele>851.5</ele>
<desc>Speed 56.7 km/h Distance 36.05 km</desc>
<time>2012-09-18T15:54:30.26</time>
<name>1749</name>
<sym>Dot</sym>
</trkpt>
<trkpt lat="47.539523" lon="15.591072">
<ele>848.5</ele>
<desc>Speed 66.5 km/h Distance 36.08 km</desc>
<time>2012-09-18T15:54:32.26</time>
<name>1750</name>
<sym>Dot</sym>
</trkpt>
<trkpt lat="47.539692" lon="15.591078">
<ele>847.0</ele>
<desc>Speed 65.8 km/h Distance 36.10 km</desc>
<time>2012-09-18T15:54:33.25</time>
<name>1751</name>
<sym>Dot</sym>
</trkpt>
<trkpt lat="47.539855" lon="15.591083">
<ele>845.5</ele>
<desc>Speed 64.0 km/h Distance 36.12 km</desc>
<time>2012-09-18T15:54:34.25</time>
<name>1752</name>
<sym>Dot</sym>
</trkpt>
<trkpt lat="47.540022" lon="15.591088">
<ele>843.5</ele>
<desc>Speed 65.2 km/h Distance 36.14 km</desc>
<time>2012-09-18T15:54:35.24</time>
<name>1753</name>
<sym>Dot</sym>
</trkpt>
<trkpt lat="47.540185" lon="15.591088">
<ele>842.0</ele>
<desc>Speed 64.6 km/h Distance 36.16 km</desc>
<time>2012-09-18T15:54:36.24</time>
<name>1754</name>
<sym>Dot</sym>
</trkpt>
<trkpt lat="47.540343" lon="15.591085">
<ele>840.0</ele>
<desc>Speed 62.0 km/h Distance 36.18 km</desc>
<time>2012-09-18T15:54:37.23</time>
<name>1755</name>
<sym>Dot</sym>
</trkpt>
<trkpt lat="47.540493" lon="15.591058">
<ele>838.0</ele>
<desc>Speed 59.5 km/h Distance 36.19 km</desc>
<time>2012-09-18T15:54:38.23</time>
<name>1756</name>
<sym>Dot</sym>
</trkpt>
<trkpt lat="47.540832" lon="15.590873">
<ele>832.0</ele>
<desc>Speed 71.1 km/h Distance 36.23 km</desc>
<time>2012-09-18T15:54:40.22</time>
<name>1757</name>
<sym>Dot</sym>
</trkpt>
<trkpt lat="47.540988" lon="15.590783">
<ele>829.5</ele>
<desc>Speed 67.0 km/h Distance 36.25 km</desc>
<time>2012-09-18T15:54:41.22</time>
<name>1758</name>
<sym>Dot</sym>
</trkpt>
<trkpt lat="47.541145" lon="15.590708">
<ele>827.5</ele>
<desc>Speed 64.9 km/h Distance 36.27 km</desc>
<time>2012-09-18T15:54:42.22</time>
<name>1759</name>
<sym>Dot</sym>
</trkpt>
<trkpt lat="47.541297" lon="15.590648">
<ele>825.0</ele>
<desc>Speed 63.3 km/h Distance 36.29 km</desc>
<time>2012-09-18T15:54:43.22</time>
<name>1760</name>
<sym>Dot</sym>
</trkpt>
<trkpt lat="47.541442" lon="15.590602">
<ele>822.5</ele>
<desc>Speed 59.0 km/h Distance 36.30 km</desc>
<time>2012-09-18T15:54:44.21</time>
<name>1761</name>
<sym>Dot</sym>
</trkpt>
<trkpt lat="47.541575" lon="15.590570">
<ele>820.0</ele>
<desc>Speed 53.8 km/h Distance 36.32 km</desc>
<time>2012-09-18T15:54:45.20</time>
<name>1762</name>
<sym>Dot</sym>
</trkpt>
<trkpt lat="47.541702" lon="15.590550">
<ele>817.5</ele>
<desc>Speed 50.5 km/h Distance 36.33 km</desc>
<time>2012-09-18T15:54:46.20</time>
<name>1763</name>
<sym>Dot</sym>
</trkpt>
<trkpt lat="47.541830" lon="15.590547">
<ele>815.0</ele>
<desc>Speed 50.5 km/h Distance 36.35 km</desc>
<time>2012-09-18T15:54:47.20</time>
<name>1764</name>
<sym>Dot</sym>
</trkpt>
<trkpt lat="47.541953" lon="15.590548">
<ele>813.0</ele>
<desc>Speed 48.8 km/h Distance 36.36 km</desc>
<time>2012-09-18T15:54:48.19</time>
<name>1765</name>
<sym>Dot</sym>
</trkpt>
<trkpt lat="47.542060" lon="15.590548">
<ele>811.0</ele>
<desc>Speed 42.6 km/h Distance 36.37 km</desc>
<time>2012-09-18T15:54:49.18</time>
<name>1766</name>
<sym>Dot</sym>
</trkpt>
<trkpt lat="47.542158" lon="15.590547">
<ele>809.5</ele>
<desc>Speed 38.8 km/h Distance 36.38 km</desc>
<time>2012-09-18T15:54:50.18</time>
<name>1767</name>
<sym>Dot</sym>
</trkpt>
<trkpt lat="47.542243" lon="15.590545">
<ele>808.0</ele>
<desc>Speed 34.2 km/h Distance 36.39 km</desc>
<time>2012-09-18T15:54:51.18</time>
<name>1768</name>
<sym>Dot</sym>
</trkpt>
<trkpt lat="47.542328" lon="15.590540">
<ele>807.0</ele>
<desc>Speed 33.7 km/h Distance 36.40 km</desc>
<time>2012-09-18T15:54:52.17</time>
<name>1769</name>
<sym>Dot</sym>
</trkpt>
<trkpt lat="47.542413" lon="15.590522">
<ele>805.5</ele>
<desc>Speed 33.7 km/h Distance 36.41 km</desc>
<time>2012-09-18T15:54:53.16</time>
<name>1770</name>
<sym>Dot</sym>
</trkpt>
<trkpt lat="47.542500" lon="15.590463">
<ele>803.5</ele>
<desc>Speed 37.9 km/h Distance 36.42 km</desc>
<time>2012-09-18T15:54:54.17</time>
<name>1771</name>
<sym>Dot</sym>
</trkpt>
<trkpt lat="47.542563" lon="15.590392">
<ele>804.0</ele>
<desc>Speed 32.1 km/h Distance 36.43 km</desc>
<time>2012-09-18T15:54:55.16</time>
<name>1772</name>
<sym>Dot</sym>
</trkpt>
<trkpt lat="47.542610" lon="15.590305">
<ele>803.5</ele>
<desc>Speed 30.2 km/h Distance 36.44 km</desc>
<time>2012-09-18T15:54:56.15</time>
<name>1773</name>
<sym>Dot</sym>
</trkpt>
<trkpt lat="47.542622" lon="15.590192">
<ele>803.0</ele>
<desc>Speed 31.1 km/h Distance 36.45 km</desc>
<time>2012-09-18T15:54:57.16</time>
<name>1774</name>
<sym>Dot</sym>
</trkpt>
<trkpt lat="47.542623" lon="15.590072">
<ele>803.0</ele>
<desc>Speed 32.8 km/h Distance 36.46 km</desc>
<time>2012-09-18T15:54:58.15</time>
<name>1775</name>
<sym>Dot</sym>
</trkpt>
<trkpt lat="47.542613" lon="15.589938">
<ele>801.0</ele>
<desc>Speed 36.4 km/h Distance 36.47 km</desc>
<time>2012-09-18T15:54:59.14</time>
<name>1776</name>
<sym>Dot</sym>
</trkpt>
<trkpt lat="47.542428" lon="15.589162">
<ele>796.0</ele>
<desc>Speed 57.7 km/h Distance 36.53 km</desc>
<time>2012-09-18T15:55:03.34</time>
<name>1777</name>
<sym>Dot</sym>
</trkpt>
<trkpt lat="47.542388" lon="15.588962">
<ele>794.0</ele>
<desc>Speed 57.1 km/h Distance 36.55 km</desc>
<time>2012-09-18T15:55:04.35</time>
<name>1778</name>
<sym>Dot</sym>
</trkpt>
<trkpt lat="47.542352" lon="15.588763">
<ele>793.0</ele>
<desc>Speed 56.3 km/h Distance 36.56 km</desc>
<time>2012-09-18T15:55:05.33</time>
<name>1779</name>
<sym>Dot</sym>
</trkpt>
<trkpt lat="47.542313" lon="15.588570">
<ele>792.0</ele>
<desc>Speed 55.0 km/h Distance 36.58 km</desc>
<time>2012-09-18T15:55:06.34</time>
<name>1780</name>
<sym>Dot</sym>
</trkpt>
<trkpt lat="47.542273" lon="15.588380">
<ele>790.0</ele>
<desc>Speed 54.6 km/h Distance 36.59 km</desc>
<time>2012-09-18T15:55:07.33</time>
<name>1781</name>
<sym>Dot</sym>
</trkpt>
<trkpt lat="47.542225" lon="15.588170">
<ele>790.5</ele>
<desc>Speed 60.8 km/h Distance 36.61 km</desc>
<time>2012-09-18T15:55:08.34</time>
<name>1782</name>
<sym>Dot</sym>
</trkpt>
<trkpt lat="47.542138" lon="15.587690">
<ele>789.0</ele>
<desc>Speed 68.4 km/h Distance 36.65 km</desc>
<time>2012-09-18T15:55:10.32</time>
<name>1783</name>
<sym>Dot</sym>
</trkpt>
<trkpt lat="47.542112" lon="15.587448">
<ele>788.5</ele>
<desc>Speed 67.0 km/h Distance 36.66 km</desc>
<time>2012-09-18T15:55:11.32</time>
<name>1784</name>
<sym>Dot</sym>
</trkpt>
<trkpt lat="47.542092" lon="15.587213">
<ele>787.5</ele>
<desc>Speed 64.9 km/h Distance 36.68 km</desc>
<time>2012-09-18T15:55:12.30</time>
<name>1785</name>
<sym>Dot</sym>
</trkpt>
<trkpt lat="47.542070" lon="15.586987">
<ele>786.0</ele>
<desc>Speed 62.5 km/h Distance 36.70 km</desc>
<time>2012-09-18T15:55:13.29</time>
<name>1786</name>
<sym>Dot</sym>
</trkpt>
<trkpt lat="47.542047" lon="15.586772">
<ele>785.0</ele>
<desc>Speed 59.7 km/h Distance 36.72 km</desc>
<time>2012-09-18T15:55:14.29</time>
<name>1787</name>
<sym>Dot</sym>
</trkpt>
<trkpt lat="47.542028" lon="15.586563">
<ele>783.5</ele>
<desc>Speed 57.3 km/h Distance 36.73 km</desc>
<time>2012-09-18T15:55:15.28</time>
<name>1788</name>
<sym>Dot</sym>
</trkpt>
<trkpt lat="47.542023" lon="15.586357">
<ele>781.0</ele>
<desc>Speed 56.3 km/h Distance 36.75 km</desc>
<time>2012-09-18T15:55:16.29</time>
<name>1789</name>
<sym>Dot</sym>
</trkpt>
<trkpt lat="47.542038" lon="15.586145">
<ele>780.0</ele>
<desc>Speed 58.0 km/h Distance 36.76 km</desc>
<time>2012-09-18T15:55:17.28</time>
<name>1790</name>
<sym>Dot</sym>
</trkpt>
<trkpt lat="47.542072" lon="15.585920">
<ele>778.0</ele>
<desc>Speed 62.3 km/h Distance 36.78 km</desc>
<time>2012-09-18T15:55:18.27</time>
<name>1791</name>
<sym>Dot</sym>
</trkpt>
<trkpt lat="47.542105" lon="15.585700">
<ele>776.5</ele>
<desc>Speed 61.6 km/h Distance 36.80 km</desc>
<time>2012-09-18T15:55:19.27</time>
<name>1792</name>
<sym>Dot</sym>
</trkpt>
<trkpt lat="47.542138" lon="15.585468">
<ele>775.5</ele>
<desc>Speed 64.1 km/h Distance 36.81 km</desc>
<time>2012-09-18T15:55:20.26</time>
<name>1793</name>
<sym>Dot</sym>
</trkpt>
<trkpt lat="47.542170" lon="15.585227">
<ele>774.5</ele>
<desc>Speed 66.8 km/h Distance 36.83 km</desc>
<time>2012-09-18T15:55:21.25</time>
<name>1794</name>
<sym>Dot</sym>
</trkpt>
<trkpt lat="47.542200" lon="15.584990">
<ele>773.0</ele>
<desc>Speed 65.6 km/h Distance 36.85 km</desc>
<time>2012-09-18T15:55:22.27</time>
<name>1795</name>
<sym>Dot</sym>
</trkpt>
<trkpt lat="47.542233" lon="15.584753">
<ele>771.0</ele>
<desc>Speed 65.4 km/h Distance 36.87 km</desc>
<time>2012-09-18T15:55:23.25</time>
<name>1796</name>
<sym>Dot</sym>
</trkpt>
<trkpt lat="47.542272" lon="15.584510">
<ele>769.0</ele>
<desc>Speed 67.6 km/h Distance 36.89 km</desc>
<time>2012-09-18T15:55:24.25</time>
<name>1797</name>
<sym>Dot</sym>
</trkpt>
<trkpt lat="47.542320" lon="15.584262">
<ele>766.5</ele>
<desc>Speed 69.7 km/h Distance 36.91 km</desc>
<time>2012-09-18T15:55:25.24</time>
<name>1798</name>
<sym>Dot</sym>
</trkpt>
<trkpt lat="47.542377" lon="15.584010">
<ele>763.5</ele>
<desc>Speed 72.1 km/h Distance 36.93 km</desc>
<time>2012-09-18T15:55:26.24</time>
<name>1799</name>
<sym>Dot</sym>
</trkpt>
<trkpt lat="47.542438" lon="15.583755">
<ele>761.5</ele>
<desc>Speed 73.4 km/h Distance 36.95 km</desc>
<time>2012-09-18T15:55:27.24</time>
<name>1800</name>
<sym>Dot</sym>
</trkpt>
<trkpt lat="47.542502" lon="15.583503">
<ele>759.0</ele>
<desc>Speed 72.8 km/h Distance 36.97 km</desc>
<time>2012-09-18T15:55:28.23</time>
<name>1801</name>
<sym>Dot</sym>
</trkpt>
<trkpt lat="47.542565" lon="15.583257">
<ele>757.0</ele>
<desc>Speed 71.8 km/h Distance 36.99 km</desc>
<time>2012-09-18T15:55:29.24</time>
<name>1802</name>
<sym>Dot</sym>
</trkpt>
<trkpt lat="47.542628" lon="15.583012">
<ele>755.0</ele>
<desc>Speed 71.0 km/h Distance 37.01 km</desc>
<time>2012-09-18T15:55:30.23</time>
<name>1803</name>
<sym>Dot</sym>
</trkpt>
<trkpt lat="47.542688" lon="15.582757">
<ele>753.0</ele>
<desc>Speed 73.1 km/h Distance 37.03 km</desc>
<time>2012-09-18T15:55:31.23</time>
<name>1804</name>
<sym>Dot</sym>
</trkpt>
<trkpt lat="47.542745" lon="15.582490">
<ele>751.5</ele>
<desc>Speed 76.0 km/h Distance 37.05 km</desc>
<time>2012-09-18T15:55:32.23</time>
<name>1805</name>
<sym>Dot</sym>
</trkpt>
<trkpt lat="47.542800" lon="15.582213">
<ele>749.5</ele>
<desc>Speed 78.4 km/h Distance 37.07 km</desc>
<time>2012-09-18T15:55:33.22</time>
<name>1806</name>
<sym>Dot</sym>
</trkpt>
<trkpt lat="47.542858" lon="15.581937">
<ele>748.0</ele>
<desc>Speed 78.5 km/h Distance 37.09 km</desc>
<time>2012-09-18T15:55:34.22</time>
<name>1807</name>
<sym>Dot</sym>
</trkpt>
<trkpt lat="47.542918" lon="15.581670">
<ele>747.0</ele>
<desc>Speed 76.3 km/h Distance 37.11 km</desc>
<time>2012-09-18T15:55:35.21</time>
<name>1808</name>
<sym>Dot</sym>
</trkpt>
<trkpt lat="47.542980" lon="15.581408">
<ele>746.0</ele>
<desc>Speed 75.2 km/h Distance 37.13 km</desc>
<time>2012-09-18T15:55:36.20</time>
<name>1809</name>
<sym>Dot</sym>
</trkpt>
<trkpt lat="47.543043" lon="15.581147">
<ele>745.0</ele>
<desc>Speed 75.7 km/h Distance 37.15 km</desc>
<time>2012-09-18T15:55:37.20</time>
<name>1810</name>
<sym>Dot</sym>
</trkpt>
<trkpt lat="47.543108" lon="15.580882">
<ele>744.0</ele>
<desc>Speed 76.2 km/h Distance 37.18 km</desc>
<time>2012-09-18T15:55:38.20</time>
<name>1811</name>
<sym>Dot</sym>
</trkpt>
<trkpt lat="47.543170" lon="15.580620">
<ele>743.0</ele>
<desc>Speed 75.4 km/h Distance 37.20 km</desc>
<time>2012-09-18T15:55:39.18</time>
<name>1812</name>
<sym>Dot</sym>
</trkpt>
<trkpt lat="47.543223" lon="15.580363">
<ele>742.0</ele>
<desc>Speed 73.1 km/h Distance 37.22 km</desc>
<time>2012-09-18T15:55:40.17</time>
<name>1813</name>
<sym>Dot</sym>
</trkpt>
<trkpt lat="47.543268" lon="15.580112">
<ele>740.5</ele>
<desc>Speed 70.8 km/h Distance 37.24 km</desc>
<time>2012-09-18T15:55:41.17</time>
<name>1814</name>
<sym>Dot</sym>
</trkpt>
<trkpt lat="47.543302" lon="15.579857">
<ele>739.5</ele>
<desc>Speed 70.4 km/h Distance 37.26 km</desc>
<time>2012-09-18T15:55:42.17</time>
<name>1815</name>
<sym>Dot</sym>
</trkpt>
<trkpt lat="47.543328" lon="15.579593">
<ele>738.0</ele>
<desc>Speed 72.4 km/h Distance 37.28 km</desc>
<time>2012-09-18T15:55:43.16</time>
<name>1816</name>
<sym>Dot</sym>
</trkpt>
<trkpt lat="47.543345" lon="15.579325">
<ele>736.5</ele>
<desc>Speed 73.4 km/h Distance 37.30 km</desc>
<time>2012-09-18T15:55:44.15</time>
<name>1817</name>
<sym>Dot</sym>
</trkpt>
<trkpt lat="47.543348" lon="15.579058">
<ele>736.0</ele>
<desc>Speed 72.2 km/h Distance 37.32 km</desc>
<time>2012-09-18T15:55:45.14</time>
<name>1818</name>
<sym>Dot</sym>
</trkpt>
<trkpt lat="47.543313" lon="15.578797">
<ele>734.0</ele>
<desc>Speed 72.6 km/h Distance 37.34 km</desc>
<time>2012-09-18T15:55:46.15</time>
<name>1819</name>
<sym>Dot</sym>
</trkpt>
<trkpt lat="47.543280" lon="15.578522">
<ele>732.5</ele>
<desc>Speed 75.9 km/h Distance 37.36 km</desc>
<time>2012-09-18T15:55:47.13</time>
<name>1820</name>
<sym>Dot</sym>
</trkpt>
<trkpt lat="47.543243" lon="15.578225">
<ele>732.0</ele>
<desc>Speed 82.0 km/h Distance 37.38 km</desc>
<time>2012-09-18T15:55:48.14</time>
<name>1821</name>
<sym>Dot</sym>
</trkpt>
<trkpt lat="47.543197" lon="15.577937">
<ele>730.5</ele>
<desc>Speed 80.8 km/h Distance 37.40 km</desc>
<time>2012-09-18T15:55:49.13</time>
<name>1822</name>
<sym>Dot</sym>
</trkpt>
<trkpt lat="47.543147" lon="15.577655">
<ele>728.5</ele>
<desc>Speed 78.8 km/h Distance 37.42 km</desc>
<time>2012-09-18T15:55:50.13</time>
<name>1823</name>
<sym>Dot</sym>
</trkpt>
<trkpt lat="47.543098" lon="15.577380">
<ele>726.5</ele>
<desc>Speed 77.1 km/h Distance 37.45 km</desc>
<time>2012-09-18T15:55:51.13</time>
<name>1824</name>
<sym>Dot</sym>
</trkpt>
<trkpt lat="47.543047" lon="15.577108">
<ele>726.0</ele>
<desc>Speed 76.4 km/h Distance 37.47 km</desc>
<time>2012-09-18T15:55:52.12</time>
<name>1825</name>
<sym>Dot</sym>
</trkpt>
<trkpt lat="47.543002" lon="15.576837">
<ele>723.5</ele>
<desc>Speed 75.7 km/h Distance 37.49 km</desc>
<time>2012-09-18T15:55:53.13</time>
<name>1826</name>
<sym>Dot</sym>
</trkpt>
<trkpt lat="47.542967" lon="15.576568">
<ele>721.5</ele>
<desc>Speed 74.2 km/h Distance 37.51 km</desc>
<time>2012-09-18T15:55:54.12</time>
<name>1827</name>
<sym>Dot</sym>
</trkpt>
<trkpt lat="47.542930" lon="15.576302">
<ele>721.0</ele>
<desc>Speed 73.4 km/h Distance 37.53 km</desc>
<time>2012-09-18T15:55:55.13</time>
<name>1828</name>
<sym>Dot</sym>
</trkpt>
<trkpt lat="47.542903" lon="15.576025">
<ele>721.0</ele>
<desc>Speed 75.9 km/h Distance 37.55 km</desc>
<time>2012-09-18T15:55:56.11</time>
<name>1829</name>
<sym>Dot</sym>
</trkpt>
<trkpt lat="47.542890" lon="15.575763">
<ele>721.0</ele>
<desc>Speed 71.2 km/h Distance 37.57 km</desc>
<time>2012-09-18T15:55:57.11</time>
<name>1830</name>
<sym>Dot</sym>
</trkpt>
<trkpt lat="47.542865" lon="15.575508">
<ele>720.5</ele>
<desc>Speed 70.1 km/h Distance 37.59 km</desc>
<time>2012-09-18T15:55:58.10</time>
<name>1831</name>
<sym>Dot</sym>
</trkpt>
<trkpt lat="47.542837" lon="15.575268">
<ele>721.0</ele>
<desc>Speed 66.1 km/h Distance 37.61 km</desc>
<time>2012-09-18T15:55:59.11</time>
<name>1832</name>
<sym>Dot</sym>
</trkpt>
<trkpt lat="47.542825" lon="15.575027">
<ele>721.0</ele>
<desc>Speed 65.7 km/h Distance 37.63 km</desc>
<time>2012-09-18T15:56:00.10</time>
<name>1833</name>
<sym>Dot</sym>
</trkpt>
<trkpt lat="47.542828" lon="15.574792">
<ele>719.5</ele>
<desc>Speed 63.7 km/h Distance 37.64 km</desc>
<time>2012-09-18T15:56:01.10</time>
<name>1834</name>
<sym>Dot</sym>
</trkpt>
<trkpt lat="47.542850" lon="15.574552">
<ele>719.0</ele>
<desc>Speed 66.0 km/h Distance 37.66 km</desc>
<time>2012-09-18T15:56:02.09</time>
<name>1835</name>
<sym>Dot</sym>
</trkpt>
<trkpt lat="47.542895" lon="15.574315">
<ele>718.0</ele>
<desc>Speed 66.9 km/h Distance 37.68 km</desc>
<time>2012-09-18T15:56:03.09</time>
<name>1836</name>
<sym>Dot</sym>
</trkpt>
<trkpt lat="47.542945" lon="15.574078">
<ele>716.5</ele>
<desc>Speed 67.4 km/h Distance 37.70 km</desc>
<time>2012-09-18T15:56:04.09</time>
<name>1837</name>
<sym>Dot</sym>
</trkpt>
<trkpt lat="47.543002" lon="15.573847">
<ele>715.5</ele>
<desc>Speed 67.0 km/h Distance 37.72 km</desc>
<time>2012-09-18T15:56:05.09</time>
<name>1838</name>
<sym>Dot</sym>
</trkpt>
<trkpt lat="47.543067" lon="15.573623">
<ele>714.5</ele>
<desc>Speed 66.6 km/h Distance 37.74 km</desc>
<time>2012-09-18T15:56:06.09</time>
<name>1839</name>
<sym>Dot</sym>
</trkpt>
<trkpt lat="47.543143" lon="15.573403">
<ele>713.0</ele>
<desc>Speed 67.4 km/h Distance 37.75 km</desc>
<time>2012-09-18T15:56:07.08</time>
<name>1840</name>
<sym>Dot</sym>
</trkpt>
<trkpt lat="47.543230" lon="15.573197">
<ele>711.0</ele>
<desc>Speed 66.2 km/h Distance 37.77 km</desc>
<time>2012-09-18T15:56:08.08</time>
<name>1841</name>
<sym>Dot</sym>
</trkpt>
<trkpt lat="47.543317" lon="15.572998">
<ele>709.0</ele>
<desc>Speed 64.3 km/h Distance 37.79 km</desc>
<time>2012-09-18T15:56:09.07</time>
<name>1842</name>
<sym>Dot</sym>
</trkpt>
<trkpt lat="47.543398" lon="15.572803">
<ele>707.5</ele>
<desc>Speed 62.4 km/h Distance 37.81 km</desc>
<time>2012-09-18T15:56:10.06</time>
<name>1843</name>
<sym>Dot</sym>
</trkpt>
<trkpt lat="47.543470" lon="15.572610">
<ele>705.5</ele>
<desc>Speed 60.5 km/h Distance 37.82 km</desc>
<time>2012-09-18T15:56:11.06</time>
<name>1844</name>
<sym>Dot</sym>
</trkpt>
<trkpt lat="47.543533" lon="15.572415">
<ele>704.5</ele>
<desc>Speed 58.8 km/h Distance 37.84 km</desc>
<time>2012-09-18T15:56:12.05</time>
<name>1845</name>
<sym>Dot</sym>
</trkpt>
<trkpt lat="47.543587" lon="15.572218">
<ele>703.0</ele>
<desc>Speed 58.0 km/h Distance 37.86 km</desc>
<time>2012-09-18T15:56:13.05</time>
<name>1846</name>
<sym>Dot</sym>
</trkpt>
<trkpt lat="47.543630" lon="15.572003">
<ele>702.0</ele>
<desc>Speed 61.0 km/h Distance 37.87 km</desc>
<time>2012-09-18T15:56:14.05</time>
<name>1847</name>
<sym>Dot</sym>
</trkpt>
<trkpt lat="47.543663" lon="15.571773">
<ele>700.5</ele>
<desc>Speed 64.0 km/h Distance 37.89 km</desc>
<time>2012-09-18T15:56:15.04</time>
<name>1848</name>
<sym>Dot</sym>
</trkpt>
<trkpt lat="47.543688" lon="15.571547">
<ele>699.5</ele>
<desc>Speed 62.8 km/h Distance 37.91 km</desc>
<time>2012-09-18T15:56:16.02</time>
<name>1849</name>
<sym>Dot</sym>
</trkpt>
<trkpt lat="47.543710" lon="15.571323">
<ele>698.0</ele>
<desc>Speed 61.3 km/h Distance 37.92 km</desc>
<time>2012-09-18T15:56:17.02</time>
<name>1850</name>
<sym>Dot</sym>
</trkpt>
<trkpt lat="47.543733" lon="15.571108">
<ele>696.5</ele>
<desc>Speed 59.6 km/h Distance 37.94 km</desc>
<time>2012-09-18T15:56:18.00</time>
<name>1851</name>
<sym>Dot</sym>
</trkpt>
<trkpt lat="47.543763" lon="15.570905">
<ele>695.5</ele>
<desc>Speed 56.3 km/h Distance 37.96 km</desc>
<time>2012-09-18T15:56:19.01</time>
<name>1852</name>
<sym>Dot</sym>
</trkpt>
<trkpt lat="47.543802" lon="15.570713">
<ele>695.0</ele>
<desc>Speed 54.4 km/h Distance 37.97 km</desc>
<time>2012-09-18T15:56:20.00</time>
<name>1853</name>
<sym>Dot</sym>
</trkpt>
<trkpt lat="47.543848" lon="15.570532">
<ele>694.0</ele>
<desc>Speed 53.3 km/h Distance 37.99 km</desc>
<time>2012-09-18T15:56:20.99</time>
<name>1854</name>
<sym>Dot</sym>
</trkpt>
<trkpt lat="47.543912" lon="15.570357">
<ele>693.5</ele>
<desc>Speed 54.0 km/h Distance 38.00 km</desc>
<time>2012-09-18T15:56:22.58</time>
<name>1855</name>
<sym>Dot</sym>
</trkpt>
<trkpt lat="47.543995" lon="15.570180">
<ele>692.5</ele>
<desc>Speed 58.4 km/h Distance 38.02 km</desc>
<time>2012-09-18T15:56:22.99</time>
<name>1856</name>
<sym>Dot</sym>
</trkpt>
<trkpt lat="47.544192" lon="15.569852">
<ele>690.5</ele>
<desc>Speed 58.7 km/h Distance 38.05 km</desc>
<time>2012-09-18T15:56:24.99</time>
<name>1857</name>
<sym>Dot</sym>
</trkpt>
<trkpt lat="47.544288" lon="15.569708">
<ele>689.5</ele>
<desc>Speed 54.8 km/h Distance 38.07 km</desc>
<time>2012-09-18T15:56:25.98</time>
<name>1858</name>
<sym>Dot</sym>
</trkpt>
<trkpt lat="47.544382" lon="15.569592">
<ele>688.5</ele>
<desc>Speed 49.1 km/h Distance 38.08 km</desc>
<time>2012-09-18T15:56:26.98</time>
<name>1859</name>
<sym>Dot</sym>
</trkpt>
<trkpt lat="47.544477" lon="15.569502">
<ele>687.5</ele>
<desc>Speed 45.8 km/h Distance 38.09 km</desc>
<time>2012-09-18T15:56:27.97</time>
<name>1860</name>
<sym>Dot</sym>
</trkpt>
<trkpt lat="47.544587" lon="15.569433">
<ele>687.0</ele>
<desc>Speed 47.7 km/h Distance 38.11 km</desc>
<time>2012-09-18T15:56:28.97</time>
<name>1861</name>
<sym>Dot</sym>
</trkpt>
<trkpt lat="47.544713" lon="15.569375">
<ele>686.0</ele>
<desc>Speed 53.3 km/h Distance 38.12 km</desc>
<time>2012-09-18T15:56:29.97</time>
<name>1862</name>
<sym>Dot</sym>
</trkpt>
<trkpt lat="47.544842" lon="15.569320">
<ele>685.0</ele>
<desc>Speed 53.4 km/h Distance 38.13 km</desc>
<time>2012-09-18T15:56:30.96</time>
<name>1863</name>
<sym>Dot</sym>
</trkpt>
<trkpt lat="47.544967" lon="15.569262">
<ele>684.0</ele>
<desc>Speed 52.4 km/h Distance 38.15 km</desc>
<time>2012-09-18T15:56:31.96</time>
<name>1864</name>
<sym>Dot</sym>
</trkpt>
<trkpt lat="47.545083" lon="15.569195">
<ele>683.0</ele>
<desc>Speed 49.9 km/h Distance 38.16 km</desc>
<time>2012-09-18T15:56:32.96</time>
<name>1865</name>
<sym>Dot</sym>
</trkpt>
<trkpt lat="47.545183" lon="15.569130">
<ele>682.5</ele>
<desc>Speed 43.6 km/h Distance 38.18 km</desc>
<time>2012-09-18T15:56:33.95</time>
<name>1866</name>
<sym>Dot</sym>
</trkpt>
<trkpt lat="47.545385" lon="15.568948">
<ele>679.5</ele>
<desc>Speed 19.2 km/h Distance 38.20 km</desc>
<time>2012-09-18T15:56:38.33</time>
<name>1867</name>
<sym>Dot</sym>
</trkpt>
<trkpt lat="47.545422" lon="15.568915">
<ele>679.0</ele>
<desc>Speed 16.9 km/h Distance 38.21 km</desc>
<time>2012-09-18T15:56:39.33</time>
<name>1868</name>
<sym>Dot</sym>
</trkpt>
<trkpt lat="47.545455" lon="15.568888">
<ele>678.5</ele>
<desc>Speed 15.2 km/h Distance 38.21 km</desc>
<time>2012-09-18T15:56:40.32</time>
<name>1869</name>
<sym>Dot</sym>
</trkpt>
<trkpt lat="47.545483" lon="15.568870">
<ele>678.0</ele>
<desc>Speed 12.0 km/h Distance 38.21 km</desc>
<time>2012-09-18T15:56:41.32</time>
<name>1870</name>
<sym>Dot</sym>
</trkpt>
<trkpt lat="47.545508" lon="15.568867">
<ele>678.0</ele>
<desc>Speed 10.4 km/h Distance 38.22 km</desc>
<time>2012-09-18T15:56:42.31</time>
<name>1871</name>
<sym>Dot</sym>
</trkpt>
<trkpt lat="47.545540" lon="15.568880">
<ele>677.5</ele>
<desc>Speed 12.7 km/h Distance 38.22 km</desc>
<time>2012-09-18T15:56:43.31</time>
<name>1872</name>
<sym>Dot</sym>
</trkpt>
<trkpt lat="47.545897" lon="15.569302">
<ele>675.0</ele>
<desc>Speed 45.8 km/h Distance 38.27 km</desc>
<time>2012-09-18T15:56:48.33</time>
<name>1873</name>
<sym>Dot</sym>
</trkpt>
<trkpt lat="47.546102" lon="15.569570">
<ele>674.0</ele>
<desc>Speed 56.0 km/h Distance 38.30 km</desc>
<time>2012-09-18T15:56:50.33</time>
<name>1874</name>
<sym>Dot</sym>
</trkpt>
<trkpt lat="47.546202" lon="15.569707">
<ele>673.5</ele>
<desc>Speed 54.1 km/h Distance 38.32 km</desc>
<time>2012-09-18T15:56:51.33</time>
<name>1875</name>
<sym>Dot</sym>
</trkpt>
<trkpt lat="47.546298" lon="15.569847">
<ele>673.5</ele>
<desc>Speed 54.7 km/h Distance 38.33 km</desc>
<time>2012-09-18T15:56:52.60</time>
<name>1876</name>
<sym>Dot</sym>
</trkpt>
<trkpt lat="47.546402" lon="15.570000">
<ele>673.0</ele>
<desc>Speed 58.7 km/h Distance 38.35 km</desc>
<time>2012-09-18T15:56:53.32</time>
<name>1877</name>
<sym>Dot</sym>
</trkpt>
<trkpt lat="47.546505" lon="15.570155">
<ele>673.0</ele>
<desc>Speed 59.4 km/h Distance 38.36 km</desc>
<time>2012-09-18T15:56:54.33</time>
<name>1878</name>
<sym>Dot</sym>
</trkpt>
<trkpt lat="47.546612" lon="15.570317">
<ele>672.5</ele>
<desc>Speed 61.4 km/h Distance 38.38 km</desc>
<time>2012-09-18T15:56:55.32</time>
<name>1879</name>
<sym>Dot</sym>
</trkpt>
<trkpt lat="47.546725" lon="15.570487">
<ele>672.0</ele>
<desc>Speed 64.8 km/h Distance 38.40 km</desc>
<time>2012-09-18T15:56:56.33</time>
<name>1880</name>
<sym>Dot</sym>
</trkpt>
<trkpt lat="47.546838" lon="15.570655">
<ele>672.0</ele>
<desc>Speed 64.0 km/h Distance 38.42 km</desc>
<time>2012-09-18T15:56:57.32</time>
<name>1881</name>
<sym>Dot</sym>
</trkpt>
<trkpt lat="47.546953" lon="15.570827">
<ele>672.0</ele>
<desc>Speed 65.3 km/h Distance 38.44 km</desc>
<time>2012-09-18T15:56:58.32</time>
<name>1882</name>
<sym>Dot</sym>
</trkpt>
<trkpt lat="47.547068" lon="15.571003">
<ele>671.5</ele>
<desc>Speed 66.7 km/h Distance 38.45 km</desc>
<time>2012-09-18T15:56:59.31</time>
<name>1883</name>
<sym>Dot</sym>
</trkpt>
<trkpt lat="47.547185" lon="15.571185">
<ele>671.0</ele>
<desc>Speed 67.2 km/h Distance 38.47 km</desc>
<time>2012-09-18T15:57:00.30</time>
<name>1884</name>
<sym>Dot</sym>
</trkpt>
<trkpt lat="47.547300" lon="15.571365">
<ele>671.0</ele>
<desc>Speed 67.4 km/h Distance 38.49 km</desc>
<time>2012-09-18T15:57:01.30</time>
<name>1885</name>
<sym>Dot</sym>
</trkpt>
<trkpt lat="47.547415" lon="15.571547">
<ele>671.0</ele>
<desc>Speed 67.1 km/h Distance 38.51 km</desc>
<time>2012-09-18T15:57:02.29</time>
<name>1886</name>
<sym>Dot</sym>
</trkpt>
<trkpt lat="47.547528" lon="15.571727">
<ele>670.5</ele>
<desc>Speed 66.7 km/h Distance 38.53 km</desc>
<time>2012-09-18T15:57:03.29</time>
<name>1887</name>
<sym>Dot</sym>
</trkpt>
<trkpt lat="47.547640" lon="15.571908">
<ele>670.5</ele>
<desc>Speed 65.8 km/h Distance 38.55 km</desc>
<time>2012-09-18T15:57:04.35</time>
<name>1888</name>
<sym>Dot</sym>
</trkpt>
<trkpt lat="47.547747" lon="15.572088">
<ele>670.5</ele>
<desc>Speed 65.2 km/h Distance 38.57 km</desc>
<time>2012-09-18T15:57:05.27</time>
<name>1889</name>
<sym>Dot</sym>
</trkpt>
<trkpt lat="47.547853" lon="15.572272">
<ele>670.0</ele>
<desc>Speed 64.9 km/h Distance 38.58 km</desc>
<time>2012-09-18T15:57:06.27</time>
<name>1890</name>
<sym>Dot</sym>
</trkpt>
<trkpt lat="47.547962" lon="15.572462">
<ele>670.0</ele>
<desc>Speed 67.4 km/h Distance 38.60 km</desc>
<time>2012-09-18T15:57:07.27</time>
<name>1891</name>
<sym>Dot</sym>
</trkpt>
<trkpt lat="47.548075" lon="15.572653">
<ele>670.0</ele>
<desc>Speed 69.1 km/h Distance 38.62 km</desc>
<time>2012-09-18T15:57:08.28</time>
<name>1892</name>
<sym>Dot</sym>
</trkpt>
<trkpt lat="47.548190" lon="15.572847">
<ele>670.5</ele>
<desc>Speed 69.6 km/h Distance 38.64 km</desc>
<time>2012-09-18T15:57:09.26</time>
<name>1893</name>
<sym>Dot</sym>
</trkpt>
<trkpt lat="47.548307" lon="15.573038">
<ele>670.5</ele>
<desc>Speed 69.7 km/h Distance 38.66 km</desc>
<time>2012-09-18T15:57:10.26</time>
<name>1894</name>
<sym>Dot</sym>
</trkpt>
<trkpt lat="47.548422" lon="15.573228">
<ele>670.5</ele>
<desc>Speed 69.4 km/h Distance 38.68 km</desc>
<time>2012-09-18T15:57:11.25</time>
<name>1895</name>
<sym>Dot</sym>
</trkpt>
<trkpt lat="47.548535" lon="15.573420">
<ele>671.0</ele>
<desc>Speed 69.1 km/h Distance 38.70 km</desc>
<time>2012-09-18T15:57:12.25</time>
<name>1896</name>
<sym>Dot</sym>
</trkpt>
<trkpt lat="47.548647" lon="15.573612">
<ele>671.0</ele>
<desc>Speed 68.5 km/h Distance 38.72 km</desc>
<time>2012-09-18T15:57:13.24</time>
<name>1897</name>
<sym>Dot</sym>
</trkpt>
<trkpt lat="47.548760" lon="15.573798">
<ele>671.5</ele>
<desc>Speed 67.9 km/h Distance 38.74 km</desc>
<time>2012-09-18T15:57:14.24</time>
<name>1898</name>
<sym>Dot</sym>
</trkpt>
<trkpt lat="47.548872" lon="15.573985">
<ele>671.5</ele>
<desc>Speed 67.3 km/h Distance 38.76 km</desc>
<time>2012-09-18T15:57:15.23</time>
<name>1899</name>
<sym>Dot</sym>
</trkpt>
<trkpt lat="47.548982" lon="15.574168">
<ele>671.5</ele>
<desc>Speed 66.8 km/h Distance 38.77 km</desc>
<time>2012-09-18T15:57:16.23</time>
<name>1900</name>
<sym>Dot</sym>
</trkpt>
<trkpt lat="47.549092" lon="15.574352">
<ele>671.5</ele>
<desc>Speed 66.1 km/h Distance 38.79 km</desc>
<time>2012-09-18T15:57:17.22</time>
<name>1901</name>
<sym>Dot</sym>
</trkpt>
<trkpt lat="47.549202" lon="15.574532">
<ele>672.0</ele>
<desc>Speed 65.6 km/h Distance 38.81 km</desc>
<time>2012-09-18T15:57:18.22</time>
<name>1902</name>
<sym>Dot</sym>
</trkpt>
<trkpt lat="47.549310" lon="15.574712">
<ele>672.0</ele>
<desc>Speed 65.4 km/h Distance 38.83 km</desc>
<time>2012-09-18T15:57:19.21</time>
<name>1903</name>
<sym>Dot</sym>
</trkpt>
<trkpt lat="47.549422" lon="15.574895">
<ele>672.0</ele>
<desc>Speed 66.6 km/h Distance 38.85 km</desc>
<time>2012-09-18T15:57:20.21</time>
<name>1904</name>
<sym>Dot</sym>
</trkpt>
<trkpt lat="47.549537" lon="15.575085">
<ele>672.0</ele>
<desc>Speed 69.7 km/h Distance 38.87 km</desc>
<time>2012-09-18T15:57:21.20</time>
<name>1905</name>
<sym>Dot</sym>
</trkpt>
<trkpt lat="47.549655" lon="15.575277">
<ele>672.0</ele>
<desc>Speed 70.3 km/h Distance 38.89 km</desc>
<time>2012-09-18T15:57:22.20</time>
<name>1906</name>
<sym>Dot</sym>
</trkpt>
<trkpt lat="47.549775" lon="15.575462">
<ele>672.0</ele>
<desc>Speed 69.5 km/h Distance 38.90 km</desc>
<time>2012-09-18T15:57:23.19</time>
<name>1907</name>
<sym>Dot</sym>
</trkpt>
<trkpt lat="47.549902" lon="15.575637">
<ele>672.0</ele>
<desc>Speed 69.1 km/h Distance 38.92 km</desc>
<time>2012-09-18T15:57:24.19</time>
<name>1908</name>
<sym>Dot</sym>
</trkpt>
<trkpt lat="47.550032" lon="15.575803">
<ele>672.0</ele>
<desc>Speed 68.9 km/h Distance 38.94 km</desc>
<time>2012-09-18T15:57:25.18</time>
<name>1909</name>
<sym>Dot</sym>
</trkpt>
<trkpt lat="47.550163" lon="15.575962">
<ele>672.0</ele>
<desc>Speed 68.0 km/h Distance 38.96 km</desc>
<time>2012-09-18T15:57:26.18</time>
<name>1910</name>
<sym>Dot</sym>
</trkpt>
<trkpt lat="47.550293" lon="15.576117">
<ele>671.5</ele>
<desc>Speed 67.2 km/h Distance 38.98 km</desc>
<time>2012-09-18T15:57:27.23</time>
<name>1911</name>
<sym>Dot</sym>
</trkpt>
<trkpt lat="47.550423" lon="15.576270">
<ele>671.5</ele>
<desc>Speed 66.3 km/h Distance 39.00 km</desc>
<time>2012-09-18T15:57:28.16</time>
<name>1912</name>
<sym>Dot</sym>
</trkpt>
<trkpt lat="47.550555" lon="15.576418">
<ele>671.5</ele>
<desc>Speed 65.8 km/h Distance 39.02 km</desc>
<time>2012-09-18T15:57:29.15</time>
<name>1913</name>
<sym>Dot</sym>
</trkpt>
<trkpt lat="47.550690" lon="15.576553">
<ele>671.5</ele>
<desc>Speed 65.3 km/h Distance 39.04 km</desc>
<time>2012-09-18T15:57:30.15</time>
<name>1914</name>
<sym>Dot</sym>
</trkpt>
<trkpt lat="47.550840" lon="15.576678">
<ele>671.0</ele>
<desc>Speed 68.5 km/h Distance 39.05 km</desc>
<time>2012-09-18T15:57:31.14</time>
<name>1915</name>
<sym>Dot</sym>
</trkpt>
<trkpt lat="47.551200" lon="15.576923">
<ele>670.5</ele>
<desc>Speed 82.1 km/h Distance 39.10 km</desc>
<time>2012-09-18T15:57:33.13</time>
<name>1916</name>
<sym>Dot</sym>
</trkpt>
<trkpt lat="47.551400" lon="15.577047">
<ele>670.0</ele>
<desc>Speed 86.9 km/h Distance 39.12 km</desc>
<time>2012-09-18T15:57:34.13</time>
<name>1917</name>
<sym>Dot</sym>
</trkpt>
<trkpt lat="47.551598" lon="15.577167">
<ele>669.5</ele>
<desc>Speed 86.1 km/h Distance 39.15 km</desc>
<time>2012-09-18T15:57:35.13</time>
<name>1918</name>
<sym>Dot</sym>
</trkpt>
<trkpt lat="47.551792" lon="15.577282">
<ele>669.0</ele>
<desc>Speed 83.2 km/h Distance 39.17 km</desc>
<time>2012-09-18T15:57:36.12</time>
<name>1919</name>
<sym>Dot</sym>
</trkpt>
<trkpt lat="47.551977" lon="15.577392">
<ele>668.5</ele>
<desc>Speed 79.5 km/h Distance 39.19 km</desc>
<time>2012-09-18T15:57:37.11</time>
<name>1920</name>
<sym>Dot</sym>
</trkpt>
<trkpt lat="47.552155" lon="15.577502">
<ele>668.0</ele>
<desc>Speed 77.5 km/h Distance 39.21 km</desc>
<time>2012-09-18T15:57:38.10</time>
<name>1921</name>
<sym>Dot</sym>
</trkpt>
<trkpt lat="47.552333" lon="15.577615">
<ele>667.5</ele>
<desc>Speed 78.0 km/h Distance 39.24 km</desc>
<time>2012-09-18T15:57:39.09</time>
<name>1922</name>
<sym>Dot</sym>
</trkpt>
<trkpt lat="47.552513" lon="15.577730">
<ele>667.5</ele>
<desc>Speed 78.2 km/h Distance 39.26 km</desc>
<time>2012-09-18T15:57:40.09</time>
<name>1923</name>
<sym>Dot</sym>
</trkpt>
<trkpt lat="47.552693" lon="15.577843">
<ele>667.0</ele>
<desc>Speed 77.8 km/h Distance 39.28 km</desc>
<time>2012-09-18T15:57:41.14</time>
<name>1924</name>
<sym>Dot</sym>
</trkpt>
<trkpt lat="47.552865" lon="15.577952">
<ele>667.0</ele>
<desc>Speed 75.2 km/h Distance 39.30 km</desc>
<time>2012-09-18T15:57:42.09</time>
<name>1925</name>
<sym>Dot</sym>
</trkpt>
<trkpt lat="47.553030" lon="15.578057">
<ele>667.0</ele>
<desc>Speed 72.0 km/h Distance 39.32 km</desc>
<time>2012-09-18T15:57:43.09</time>
<name>1926</name>
<sym>Dot</sym>
</trkpt>
<trkpt lat="47.553188" lon="15.578158">
<ele>667.0</ele>
<desc>Speed 68.9 km/h Distance 39.34 km</desc>
<time>2012-09-18T15:57:44.07</time>
<name>1927</name>
<sym>Dot</sym>
</trkpt>
<trkpt lat="47.553340" lon="15.578257">
<ele>666.5</ele>
<desc>Speed 66.4 km/h Distance 39.36 km</desc>
<time>2012-09-18T15:57:45.07</time>
<name>1928</name>
<sym>Dot</sym>
</trkpt>
<trkpt lat="47.553488" lon="15.578350">
<ele>666.5</ele>
<desc>Speed 64.1 km/h Distance 39.38 km</desc>
<time>2012-09-18T15:57:46.06</time>
<name>1929</name>
<sym>Dot</sym>
</trkpt>
<trkpt lat="47.553628" lon="15.578442">
<ele>666.5</ele>
<desc>Speed 61.8 km/h Distance 39.39 km</desc>
<time>2012-09-18T15:57:47.06</time>
<name>1930</name>
<sym>Dot</sym>
</trkpt>
<trkpt lat="47.553763" lon="15.578530">
<ele>666.5</ele>
<desc>Speed 58.5 km/h Distance 39.41 km</desc>
<time>2012-09-18T15:57:48.05</time>
<name>1931</name>
<sym>Dot</sym>
</trkpt>
<trkpt lat="47.553890" lon="15.578613">
<ele>666.0</ele>
<desc>Speed 55.4 km/h Distance 39.42 km</desc>
<time>2012-09-18T15:57:49.04</time>
<name>1932</name>
<sym>Dot</sym>
</trkpt>
<trkpt lat="47.554007" lon="15.578687">
<ele>666.0</ele>
<desc>Speed 50.1 km/h Distance 39.44 km</desc>
<time>2012-09-18T15:57:50.03</time>
<name>1933</name>
<sym>Dot</sym>
</trkpt>
<trkpt lat="47.554113" lon="15.578753">
<ele>665.5</ele>
<desc>Speed 45.8 km/h Distance 39.45 km</desc>
<time>2012-09-18T15:57:51.03</time>
<name>1934</name>
<sym>Dot</sym>
</trkpt>
<trkpt lat="47.554210" lon="15.578813">
<ele>665.0</ele>
<desc>Speed 41.9 km/h Distance 39.46 km</desc>
<time>2012-09-18T15:57:52.03</time>
<name>1935</name>
<sym>Dot</sym>
</trkpt>
<trkpt lat="47.554302" lon="15.578863">
<ele>665.0</ele>
<desc>Speed 38.4 km/h Distance 39.47 km</desc>
<time>2012-09-18T15:57:53.03</time>
<name>1936</name>
<sym>Dot</sym>
</trkpt>
<trkpt lat="47.554385" lon="15.578908">
<ele>665.0</ele>
<desc>Speed 35.4 km/h Distance 39.48 km</desc>
<time>2012-09-18T15:57:54.07</time>
<name>1937</name>
<sym>Dot</sym>
</trkpt>
<trkpt lat="47.554462" lon="15.578945">
<ele>665.0</ele>
<desc>Speed 32.0 km/h Distance 39.49 km</desc>
<time>2012-09-18T15:57:55.01</time>
<name>1938</name>
<sym>Dot</sym>
</trkpt>
<trkpt lat="47.554522" lon="15.578972">
<ele>665.0</ele>
<desc>Speed 24.8 km/h Distance 39.50 km</desc>
<time>2012-09-18T15:57:56.01</time>
<name>1939</name>
<sym>Dot</sym>
</trkpt>
<trkpt lat="47.554568" lon="15.578988">
<ele>665.5</ele>
<desc>Speed 18.8 km/h Distance 39.50 km</desc>
<time>2012-09-18T15:57:57.00</time>
<name>1940</name>
<sym>Dot</sym>
</trkpt>
<trkpt lat="47.554603" lon="15.578998">
<ele>666.0</ele>
<desc>Speed 14.2 km/h Distance 39.51 km</desc>
<time>2012-09-18T15:57:58.00</time>
<name>1941</name>
<sym>Dot</sym>
</trkpt>
<trkpt lat="47.554632" lon="15.579002">
<ele>666.5</ele>
<desc>Speed 11.6 km/h Distance 39.51 km</desc>
<time>2012-09-18T15:57:58.99</time>
<name>1942</name>
<sym>Dot</sym>
</trkpt>
<trkpt lat="47.554658" lon="15.579005">
<ele>666.5</ele>
<desc>Speed 10.0 km/h Distance 39.52 km</desc>
<time>2012-09-18T15:57:59.99</time>
<name>1943</name>
<sym>Dot</sym>
</trkpt>
<trkpt lat="47.554688" lon="15.579012">
<ele>666.5</ele>
<desc>Speed 11.9 km/h Distance 39.52 km</desc>
<time>2012-09-18T15:58:00.99</time>
<name>1944</name>
<sym>Dot</sym>
</trkpt>
<trkpt lat="47.554718" lon="15.579020">
<ele>666.5</ele>
<desc>Speed 12.2 km/h Distance 39.52 km</desc>
<time>2012-09-18T15:58:01.97</time>
<name>1945</name>
<sym>Dot</sym>
</trkpt>
<trkpt lat="47.554747" lon="15.579030">
<ele>666.5</ele>
<desc>Speed 11.5 km/h Distance 39.53 km</desc>
<time>2012-09-18T15:58:02.97</time>
<name>1946</name>
<sym>Dot</sym>
</trkpt>
<trkpt lat="47.554783" lon="15.579055">
<ele>667.0</ele>
<desc>Speed 16.3 km/h Distance 39.53 km</desc>
<time>2012-09-18T15:58:03.97</time>
<name>1947</name>
<sym>Dot</sym>
</trkpt>
<trkpt lat="47.554883" lon="15.579165">
<ele>667.0</ele>
<desc>Speed 26.0 km/h Distance 39.54 km</desc>
<time>2012-09-18T15:58:05.96</time>
<name>1948</name>
<sym>Dot</sym>
</trkpt>
<trkpt lat="47.554928" lon="15.579257">
<ele>667.0</ele>
<desc>Speed 30.5 km/h Distance 39.55 km</desc>
<time>2012-09-18T15:58:07.01</time>
<name>1949</name>
<sym>Dot</sym>
</trkpt>
<trkpt lat="47.555013" lon="15.579520">
<ele>667.0</ele>
<desc>Speed 42.2 km/h Distance 39.57 km</desc>
<time>2012-09-18T15:58:08.95</time>
<name>1950</name>
<sym>Dot</sym>
</trkpt>
<trkpt lat="47.555055" lon="15.579690">
<ele>667.0</ele>
<desc>Speed 48.8 km/h Distance 39.59 km</desc>
<time>2012-09-18T15:58:09.95</time>
<name>1951</name>
<sym>Dot</sym>
</trkpt>
<trkpt lat="47.555157" lon="15.580113">
<ele>667.0</ele>
<desc>Speed 55.3 km/h Distance 39.62 km</desc>
<time>2012-09-18T15:58:11.95</time>
<name>1952</name>
<sym>Dot</sym>
</trkpt>
<trkpt lat="47.555222" lon="15.580300">
<ele>667.0</ele>
<desc>Speed 56.9 km/h Distance 39.64 km</desc>
<time>2012-09-18T15:58:12.94</time>
<name>1953</name>
<sym>Dot</sym>
</trkpt>
<trkpt lat="47.555268" lon="15.580488">
<ele>667.0</ele>
<desc>Speed 55.0 km/h Distance 39.65 km</desc>
<time>2012-09-18T15:58:13.93</time>
<name>1954</name>
<sym>Dot</sym>
</trkpt>
<trkpt lat="47.555323" lon="15.580678">
<ele>667.0</ele>
<desc>Speed 56.2 km/h Distance 39.67 km</desc>
<time>2012-09-18T15:58:14.92</time>
<name>1955</name>
<sym>Dot</sym>
</trkpt>
<trkpt lat="47.555385" lon="15.580872">
<ele>667.0</ele>
<desc>Speed 57.2 km/h Distance 39.68 km</desc>
<time>2012-09-18T15:58:15.92</time>
<name>1956</name>
<sym>Dot</sym>
</trkpt>
<trkpt lat="47.555453" lon="15.581062">
<ele>667.5</ele>
<desc>Speed 57.5 km/h Distance 39.70 km</desc>
<time>2012-09-18T15:58:16.91</time>
<name>1957</name>
<sym>Dot</sym>
</trkpt>
<trkpt lat="47.555532" lon="15.581250">
<ele>668.0</ele>
<desc>Speed 58.7 km/h Distance 39.72 km</desc>
<time>2012-09-18T15:58:17.91</time>
<name>1958</name>
<sym>Dot</sym>
</trkpt>
<trkpt lat="47.555615" lon="15.581438">
<ele>670.0</ele>
<desc>Speed 61.4 km/h Distance 39.73 km</desc>
<time>2012-09-18T15:58:18.91</time>
<name>1959</name>
<sym>Dot</sym>
</trkpt>
<trkpt lat="47.555787" lon="15.581753">
<ele>670.5</ele>
<desc>Speed 55.4 km/h Distance 39.76 km</desc>
<time>2012-09-18T15:58:20.90</time>
<name>1960</name>
<sym>Dot</sym>
</trkpt>
<trkpt lat="47.555875" lon="15.581893">
<ele>670.5</ele>
<desc>Speed 52.4 km/h Distance 39.78 km</desc>
<time>2012-09-18T15:58:21.89</time>
<name>1961</name>
<sym>Dot</sym>
</trkpt>
<trkpt lat="47.555960" lon="15.582020">
<ele>670.5</ele>
<desc>Speed 48.7 km/h Distance 39.79 km</desc>
<time>2012-09-18T15:58:22.89</time>
<name>1962</name>
<sym>Dot</sym>
</trkpt>
<trkpt lat="47.556047" lon="15.582140">
<ele>671.0</ele>
<desc>Speed 47.0 km/h Distance 39.80 km</desc>
<time>2012-09-18T15:58:23.89</time>
<name>1963</name>
<sym>Dot</sym>
</trkpt>
<trkpt lat="47.556143" lon="15.582260">
<ele>671.0</ele>
<desc>Speed 50.8 km/h Distance 39.82 km</desc>
<time>2012-09-18T15:58:24.89</time>
<name>1964</name>
<sym>Dot</sym>
</trkpt>
<trkpt lat="47.556255" lon="15.582388">
<ele>671.5</ele>
<desc>Speed 56.4 km/h Distance 39.83 km</desc>
<time>2012-09-18T15:58:25.88</time>
<name>1965</name>
<sym>Dot</sym>
</trkpt>
<trkpt lat="47.556375" lon="15.582518">
<ele>671.5</ele>
<desc>Speed 59.1 km/h Distance 39.85 km</desc>
<time>2012-09-18T15:58:26.88</time>
<name>1966</name>
<sym>Dot</sym>
</trkpt>
<trkpt lat="47.556495" lon="15.582655">
<ele>671.5</ele>
<desc>Speed 60.5 km/h Distance 39.87 km</desc>
<time>2012-09-18T15:58:27.87</time>
<name>1967</name>
<sym>Dot</sym>
</trkpt>
<trkpt lat="47.556618" lon="15.582797">
<ele>671.5</ele>
<desc>Speed 62.5 km/h Distance 39.89 km</desc>
<time>2012-09-18T15:58:28.87</time>
<name>1968</name>
<sym>Dot</sym>
</trkpt>
<trkpt lat="47.556748" lon="15.582958">
<ele>672.0</ele>
<desc>Speed 67.6 km/h Distance 39.90 km</desc>
<time>2012-09-18T15:58:29.86</time>
<name>1969</name>
<sym>Dot</sym>
</trkpt>
<trkpt lat="47.557013" lon="15.583370">
<ele>672.0</ele>
<desc>Speed 78.0 km/h Distance 39.95 km</desc>
<time>2012-09-18T15:58:31.87</time>
<name>1970</name>
<sym>Dot</sym>
</trkpt>
<trkpt lat="47.557138" lon="15.583612">
<ele>671.0</ele>
<desc>Speed 82.6 km/h Distance 39.97 km</desc>
<time>2012-09-18T15:58:32.91</time>
<name>1971</name>
<sym>Dot</sym>
</trkpt>
<trkpt lat="47.557262" lon="15.583877">
<ele>671.0</ele>
<desc>Speed 86.6 km/h Distance 39.99 km</desc>
<time>2012-09-18T15:58:33.85</time>
<name>1972</name>
<sym>Dot</sym>
</trkpt>
<trkpt lat="47.557375" lon="15.584168">
<ele>671.0</ele>
<desc>Speed 90.6 km/h Distance 40.02 km</desc>
<time>2012-09-18T15:58:34.86</time>
<name>1973</name>
<sym>Dot</sym>
</trkpt>
<trkpt lat="47.557483" lon="15.584470">
<ele>671.5</ele>
<desc>Speed 92.1 km/h Distance 40.04 km</desc>
<time>2012-09-18T15:58:35.85</time>
<name>1974</name>
<sym>Dot</sym>
</trkpt>
<trkpt lat="47.557587" lon="15.584777">
<ele>671.5</ele>
<desc>Speed 92.3 km/h Distance 40.07 km</desc>
<time>2012-09-18T15:58:36.85</time>
<name>1975</name>
<sym>Dot</sym>
</trkpt>
<trkpt lat="47.557682" lon="15.585087">
<ele>671.5</ele>
<desc>Speed 92.1 km/h Distance 40.10 km</desc>
<time>2012-09-18T15:58:37.84</time>
<name>1976</name>
<sym>Dot</sym>
</trkpt>
<trkpt lat="47.557772" lon="15.585398">
<ele>671.5</ele>
<desc>Speed 91.8 km/h Distance 40.12 km</desc>
<time>2012-09-18T15:58:38.84</time>
<name>1977</name>
<sym>Dot</sym>
</trkpt>
<trkpt lat="47.557857" lon="15.585713">
<ele>671.5</ele>
<desc>Speed 91.7 km/h Distance 40.15 km</desc>
<time>2012-09-18T15:58:39.82</time>
<name>1978</name>
<sym>Dot</sym>
</trkpt>
<trkpt lat="47.557933" lon="15.586032">
<ele>672.0</ele>
<desc>Speed 91.5 km/h Distance 40.17 km</desc>
<time>2012-09-18T15:58:40.83</time>
<name>1979</name>
<sym>Dot</sym>
</trkpt>
<trkpt lat="47.558003" lon="15.586352">
<ele>671.5</ele>
<desc>Speed 91.3 km/h Distance 40.20 km</desc>
<time>2012-09-18T15:58:41.82</time>
<name>1980</name>
<sym>Dot</sym>
</trkpt>
<trkpt lat="47.558067" lon="15.586675">
<ele>671.5</ele>
<desc>Speed 91.3 km/h Distance 40.22 km</desc>
<time>2012-09-18T15:58:42.81</time>
<name>1981</name>
<sym>Dot</sym>
</trkpt>
<trkpt lat="47.558123" lon="15.586998">
<ele>671.5</ele>
<desc>Speed 90.4 km/h Distance 40.25 km</desc>
<time>2012-09-18T15:58:43.81</time>
<name>1982</name>
<sym>Dot</sym>
</trkpt>
<trkpt lat="47.558173" lon="15.587315">
<ele>671.5</ele>
<desc>Speed 87.7 km/h Distance 40.27 km</desc>
<time>2012-09-18T15:58:44.89</time>
<name>1983</name>
<sym>Dot</sym>
</trkpt>
<trkpt lat="47.558213" lon="15.587615">
<ele>671.5</ele>
<desc>Speed 83.1 km/h Distance 40.30 km</desc>
<time>2012-09-18T15:58:45.79</time>
<name>1984</name>
<sym>Dot</sym>
</trkpt>
<trkpt lat="47.558238" lon="15.587900">
<ele>671.5</ele>
<desc>Speed 77.9 km/h Distance 40.32 km</desc>
<time>2012-09-18T15:58:46.78</time>
<name>1985</name>
<sym>Dot</sym>
</trkpt>
<trkpt lat="47.558245" lon="15.588165">
<ele>672.0</ele>
<desc>Speed 72.4 km/h Distance 40.34 km</desc>
<time>2012-09-18T15:58:47.78</time>
<name>1986</name>
<sym>Dot</sym>
</trkpt>
<trkpt lat="47.558230" lon="15.588422">
<ele>672.5</ele>
<desc>Speed 69.5 km/h Distance 40.36 km</desc>
<time>2012-09-18T15:58:48.77</time>
<name>1987</name>
<sym>Dot</sym>
</trkpt>
<trkpt lat="47.558190" lon="15.588668">
<ele>673.0</ele>
<desc>Speed 69.1 km/h Distance 40.38 km</desc>
<time>2012-09-18T15:58:49.77</time>
<name>1988</name>
<sym>Dot</sym>
</trkpt>
<trkpt lat="47.558137" lon="15.588903">
<ele>674.0</ele>
<desc>Speed 67.0 km/h Distance 40.39 km</desc>
<time>2012-09-18T15:58:50.76</time>
<name>1989</name>
<sym>Dot</sym>
</trkpt>
<trkpt lat="47.558085" lon="15.589123">
<ele>674.5</ele>
<desc>Speed 62.9 km/h Distance 40.41 km</desc>
<time>2012-09-18T15:58:51.76</time>
<name>1990</name>
<sym>Dot</sym>
</trkpt>
<trkpt lat="47.558047" lon="15.589332">
<ele>674.5</ele>
<desc>Speed 58.6 km/h Distance 40.43 km</desc>
<time>2012-09-18T15:58:52.75</time>
<name>1991</name>
<sym>Dot</sym>
</trkpt>
<trkpt lat="47.558025" lon="15.589537">
<ele>675.0</ele>
<desc>Speed 56.7 km/h Distance 40.44 km</desc>
<time>2012-09-18T15:58:53.75</time>
<name>1992</name>
<sym>Dot</sym>
</trkpt>
<trkpt lat="47.558015" lon="15.589743">
<ele>675.0</ele>
<desc>Speed 56.1 km/h Distance 40.46 km</desc>
<time>2012-09-18T15:58:54.74</time>
<name>1993</name>
<sym>Dot</sym>
</trkpt>
<trkpt lat="47.558012" lon="15.589948">
<ele>675.5</ele>
<desc>Speed 55.8 km/h Distance 40.47 km</desc>
<time>2012-09-18T15:58:55.74</time>
<name>1994</name>
<sym>Dot</sym>
</trkpt>
<trkpt lat="47.558012" lon="15.590153">
<ele>675.5</ele>
<desc>Speed 55.4 km/h Distance 40.49 km</desc>
<time>2012-09-18T15:58:56.73</time>
<name>1995</name>
<sym>Dot</sym>
</trkpt>
<trkpt lat="47.558015" lon="15.590357">
<ele>675.5</ele>
<desc>Speed 55.2 km/h Distance 40.51 km</desc>
<time>2012-09-18T15:58:57.73</time>
<name>1996</name>
<sym>Dot</sym>
</trkpt>
<trkpt lat="47.558018" lon="15.590560">
<ele>676.0</ele>
<desc>Speed 55.3 km/h Distance 40.52 km</desc>
<time>2012-09-18T15:58:58.72</time>
<name>1997</name>
<sym>Dot</sym>
</trkpt>
<trkpt lat="47.558023" lon="15.590763">
<ele>676.0</ele>
<desc>Speed 55.3 km/h Distance 40.54 km</desc>
<time>2012-09-18T15:58:59.72</time>
<name>1998</name>
<sym>Dot</sym>
</trkpt>
<trkpt lat="47.558033" lon="15.590965">
<ele>676.0</ele>
<desc>Speed 55.1 km/h Distance 40.55 km</desc>
<time>2012-09-18T15:59:00.71</time>
<name>1999</name>
<sym>Dot</sym>
</trkpt>
<trkpt lat="47.558045" lon="15.591168">
<ele>676.0</ele>
<desc>Speed 55.1 km/h Distance 40.57 km</desc>
<time>2012-09-18T15:59:01.71</time>
<name>2000</name>
<sym>Dot</sym>
</trkpt>
<trkpt lat="47.558060" lon="15.591367">
<ele>676.5</ele>
<desc>Speed 54.4 km/h Distance 40.58 km</desc>
<time>2012-09-18T15:59:02.70</time>
<name>2001</name>
<sym>Dot</sym>
</trkpt>
<trkpt lat="47.558075" lon="15.591562">
<ele>676.5</ele>
<desc>Speed 53.3 km/h Distance 40.60 km</desc>
<time>2012-09-18T15:59:03.70</time>
<name>2002</name>
<sym>Dot</sym>
</trkpt>
<trkpt lat="47.558090" lon="15.591753">
<ele>676.5</ele>
<desc>Speed 52.5 km/h Distance 40.61 km</desc>
<time>2012-09-18T15:59:04.69</time>
<name>2003</name>
<sym>Dot</sym>
</trkpt>
<trkpt lat="47.558105" lon="15.591943">
<ele>676.5</ele>
<desc>Speed 52.4 km/h Distance 40.62 km</desc>
<time>2012-09-18T15:59:05.69</time>
<name>2004</name>
<sym>Dot</sym>
</trkpt>
<trkpt lat="47.558118" lon="15.592138">
<ele>676.5</ele>
<desc>Speed 53.0 km/h Distance 40.64 km</desc>
<time>2012-09-18T15:59:06.68</time>
<name>2005</name>
<sym>Dot</sym>
</trkpt>
<trkpt lat="47.558130" lon="15.592335">
<ele>676.5</ele>
<desc>Speed 53.5 km/h Distance 40.65 km</desc>
<time>2012-09-18T15:59:07.69</time>
<name>2006</name>
<sym>Dot</sym>
</trkpt>
<trkpt lat="47.558145" lon="15.592532">
<ele>676.5</ele>
<desc>Speed 54.1 km/h Distance 40.67 km</desc>
<time>2012-09-18T15:59:08.67</time>
<name>2007</name>
<sym>Dot</sym>
</trkpt>
<trkpt lat="47.558157" lon="15.592733">
<ele>676.5</ele>
<desc>Speed 54.6 km/h Distance 40.68 km</desc>
<time>2012-09-18T15:59:09.67</time>
<name>2008</name>
<sym>Dot</sym>
</trkpt>
<trkpt lat="47.558165" lon="15.592933">
<ele>676.5</ele>
<desc>Speed 54.3 km/h Distance 40.70 km</desc>
<time>2012-09-18T15:59:10.66</time>
<name>2009</name>
<sym>Dot</sym>
</trkpt>
<trkpt lat="47.558170" lon="15.593132">
<ele>676.5</ele>
<desc>Speed 53.8 km/h Distance 40.71 km</desc>
<time>2012-09-18T15:59:11.66</time>
<name>2010</name>
<sym>Dot</sym>
</trkpt>
<trkpt lat="47.558175" lon="15.593330">
<ele>676.5</ele>
<desc>Speed 53.5 km/h Distance 40.73 km</desc>
<time>2012-09-18T15:59:12.65</time>
<name>2011</name>
<sym>Dot</sym>
</trkpt>
<trkpt lat="47.558178" lon="15.593527">
<ele>676.5</ele>
<desc>Speed 53.2 km/h Distance 40.74 km</desc>
<time>2012-09-18T15:59:13.65</time>
<name>2012</name>
<sym>Dot</sym>
</trkpt>
<trkpt lat="47.558182" lon="15.593722">
<ele>676.5</ele>
<desc>Speed 53.0 km/h Distance 40.76 km</desc>
<time>2012-09-18T15:59:14.64</time>
<name>2013</name>
<sym>Dot</sym>
</trkpt>
<trkpt lat="47.558185" lon="15.593917">
<ele>676.5</ele>
<desc>Speed 52.6 km/h Distance 40.77 km</desc>
<time>2012-09-18T15:59:15.64</time>
<name>2014</name>
<sym>Dot</sym>
</trkpt>
<trkpt lat="47.558187" lon="15.594108">
<ele>676.0</ele>
<desc>Speed 52.1 km/h Distance 40.79 km</desc>
<time>2012-09-18T15:59:16.63</time>
<name>2015</name>
<sym>Dot</sym>
</trkpt>
<trkpt lat="47.558188" lon="15.594300">
<ele>676.0</ele>
<desc>Speed 51.7 km/h Distance 40.80 km</desc>
<time>2012-09-18T15:59:17.63</time>
<name>2016</name>
<sym>Dot</sym>
</trkpt>
<trkpt lat="47.558188" lon="15.594490">
<ele>676.0</ele>
<desc>Speed 51.3 km/h Distance 40.82 km</desc>
<time>2012-09-18T15:59:18.62</time>
<name>2017</name>
<sym>Dot</sym>
</trkpt>
<trkpt lat="47.558185" lon="15.594678">
<ele>676.0</ele>
<desc>Speed 51.2 km/h Distance 40.83 km</desc>
<time>2012-09-18T15:59:19.62</time>
<name>2018</name>
<sym>Dot</sym>
</trkpt>
<trkpt lat="47.558182" lon="15.594868">
<ele>676.0</ele>
<desc>Speed 51.3 km/h Distance 40.84 km</desc>
<time>2012-09-18T15:59:20.61</time>
<name>2019</name>
<sym>Dot</sym>
</trkpt>
<trkpt lat="47.558177" lon="15.595058">
<ele>676.0</ele>
<desc>Speed 51.4 km/h Distance 40.86 km</desc>
<time>2012-09-18T15:59:21.60</time>
<name>2020</name>
<sym>Dot</sym>
</trkpt>
<trkpt lat="47.558167" lon="15.595248">
<ele>675.5</ele>
<desc>Speed 51.9 km/h Distance 40.87 km</desc>
<time>2012-09-18T15:59:22.59</time>
<name>2021</name>
<sym>Dot</sym>
</trkpt>
<trkpt lat="47.558157" lon="15.595443">
<ele>675.5</ele>
<desc>Speed 53.0 km/h Distance 40.89 km</desc>
<time>2012-09-18T15:59:23.59</time>
<name>2022</name>
<sym>Dot</sym>
</trkpt>
<trkpt lat="47.558143" lon="15.595642">
<ele>675.5</ele>
<desc>Speed 53.6 km/h Distance 40.90 km</desc>
<time>2012-09-18T15:59:24.58</time>
<name>2023</name>
<sym>Dot</sym>
</trkpt>
<trkpt lat="47.558130" lon="15.595837">
<ele>675.5</ele>
<desc>Speed 53.5 km/h Distance 40.92 km</desc>
<time>2012-09-18T15:59:25.58</time>
<name>2024</name>
<sym>Dot</sym>
</trkpt>
<trkpt lat="47.558115" lon="15.596037">
<ele>675.5</ele>
<desc>Speed 54.6 km/h Distance 40.93 km</desc>
<time>2012-09-18T15:59:26.57</time>
<name>2025</name>
<sym>Dot</sym>
</trkpt>
<trkpt lat="47.558100" lon="15.596245">
<ele>675.0</ele>
<desc>Speed 56.6 km/h Distance 40.95 km</desc>
<time>2012-09-18T15:59:27.57</time>
<name>2026</name>
<sym>Dot</sym>
</trkpt>
<trkpt lat="47.558055" lon="15.596730">
<ele>675.5</ele>
<desc>Speed 68.8 km/h Distance 40.99 km</desc>
<time>2012-09-18T15:59:29.56</time>
<name>2027</name>
<sym>Dot</sym>
</trkpt>
<trkpt lat="47.558032" lon="15.596980">
<ele>675.0</ele>
<desc>Speed 68.5 km/h Distance 41.00 km</desc>
<time>2012-09-18T15:59:30.55</time>
<name>2028</name>
<sym>Dot</sym>
</trkpt>
<trkpt lat="47.558008" lon="15.597218">
<ele>675.0</ele>
<desc>Speed 65.2 km/h Distance 41.02 km</desc>
<time>2012-09-18T15:59:31.55</time>
<name>2029</name>
<sym>Dot</sym>
</trkpt>
<trkpt lat="47.557983" lon="15.597453">
<ele>674.5</ele>
<desc>Speed 64.5 km/h Distance 41.04 km</desc>
<time>2012-09-18T15:59:32.54</time>
<name>2030</name>
<sym>Dot</sym>
</trkpt>
<trkpt lat="47.557957" lon="15.597688">
<ele>674.5</ele>
<desc>Speed 64.6 km/h Distance 41.06 km</desc>
<time>2012-09-18T15:59:33.54</time>
<name>2031</name>
<sym>Dot</sym>
</trkpt>
<trkpt lat="47.557925" lon="15.597923">
<ele>674.5</ele>
<desc>Speed 64.9 km/h Distance 41.08 km</desc>
<time>2012-09-18T15:59:34.54</time>
<name>2032</name>
<sym>Dot</sym>
</trkpt>
<trkpt lat="47.557887" lon="15.598158">
<ele>674.5</ele>
<desc>Speed 65.5 km/h Distance 41.09 km</desc>
<time>2012-09-18T15:59:35.54</time>
<name>2033</name>
<sym>Dot</sym>
</trkpt>
<trkpt lat="47.557845" lon="15.598395">
<ele>674.5</ele>
<desc>Speed 66.1 km/h Distance 41.11 km</desc>
<time>2012-09-18T15:59:36.53</time>
<name>2034</name>
<sym>Dot</sym>
</trkpt>
<trkpt lat="47.557803" lon="15.598637">
<ele>674.5</ele>
<desc>Speed 67.2 km/h Distance 41.13 km</desc>
<time>2012-09-18T15:59:37.53</time>
<name>2035</name>
<sym>Dot</sym>
</trkpt>
<trkpt lat="47.557760" lon="15.598890">
<ele>675.0</ele>
<desc>Speed 71.1 km/h Distance 41.15 km</desc>
<time>2012-09-18T15:59:38.53</time>
<name>2036</name>
<sym>Dot</sym>
</trkpt>
<trkpt lat="47.557713" lon="15.599157">
<ele>675.0</ele>
<desc>Speed 74.6 km/h Distance 41.17 km</desc>
<time>2012-09-18T15:59:39.52</time>
<name>2037</name>
<sym>Dot</sym>
</trkpt>
<trkpt lat="47.557667" lon="15.599435">
<ele>675.0</ele>
<desc>Speed 77.5 km/h Distance 41.19 km</desc>
<time>2012-09-18T15:59:40.51</time>
<name>2038</name>
<sym>Dot</sym>
</trkpt>
<trkpt lat="47.557618" lon="15.599718">
<ele>675.0</ele>
<desc>Speed 79.2 km/h Distance 41.22 km</desc>
<time>2012-09-18T15:59:41.51</time>
<name>2039</name>
<sym>Dot</sym>
</trkpt>
<trkpt lat="47.557573" lon="15.600003">
<ele>675.5</ele>
<desc>Speed 79.3 km/h Distance 41.24 km</desc>
<time>2012-09-18T15:59:42.50</time>
<name>2040</name>
<sym>Dot</sym>
</trkpt>
<trkpt lat="47.557530" lon="15.600285">
<ele>675.5</ele>
<desc>Speed 78.2 km/h Distance 41.26 km</desc>
<time>2012-09-18T15:59:43.50</time>
<name>2041</name>
<sym>Dot</sym>
</trkpt>
<trkpt lat="47.557490" lon="15.600563">
<ele>676.0</ele>
<desc>Speed 77.1 km/h Distance 41.28 km</desc>
<time>2012-09-18T15:59:44.49</time>
<name>2042</name>
<sym>Dot</sym>
</trkpt>
<trkpt lat="47.557453" lon="15.600843">
<ele>676.0</ele>
<desc>Speed 76.7 km/h Distance 41.30 km</desc>
<time>2012-09-18T15:59:45.49</time>
<name>2043</name>
<sym>Dot</sym>
</trkpt>
<trkpt lat="47.557422" lon="15.601123">
<ele>676.0</ele>
<desc>Speed 76.9 km/h Distance 41.32 km</desc>
<time>2012-09-18T15:59:46.48</time>
<name>2044</name>
<sym>Dot</sym>
</trkpt>
<trkpt lat="47.557393" lon="15.601408">
<ele>676.0</ele>
<desc>Speed 77.5 km/h Distance 41.35 km</desc>
<time>2012-09-18T15:59:47.48</time>
<name>2045</name>
<sym>Dot</sym>
</trkpt>
<trkpt lat="47.557373" lon="15.601693">
<ele>676.0</ele>
<desc>Speed 77.4 km/h Distance 41.37 km</desc>
<time>2012-09-18T15:59:48.48</time>
<name>2046</name>
<sym>Dot</sym>
</trkpt>
<trkpt lat="47.557365" lon="15.601980">
<ele>676.5</ele>
<desc>Speed 76.8 km/h Distance 41.39 km</desc>
<time>2012-09-18T15:59:49.47</time>
<name>2047</name>
<sym>Dot</sym>
</trkpt>
<trkpt lat="47.557368" lon="15.602258">
<ele>677.0</ele>
<desc>Speed 75.1 km/h Distance 41.41 km</desc>
<time>2012-09-18T15:59:50.47</time>
<name>2048</name>
<sym>Dot</sym>
</trkpt>
<trkpt lat="47.557400" lon="15.602512">
<ele>676.5</ele>
<desc>Speed 69.7 km/h Distance 41.43 km</desc>
<time>2012-09-18T15:59:51.46</time>
<name>2049</name>
<sym>Dot</sym>
</trkpt>
<trkpt lat="47.557443" lon="15.602752">
<ele>676.0</ele>
<desc>Speed 67.0 km/h Distance 41.45 km</desc>
<time>2012-09-18T15:59:52.46</time>
<name>2050</name>
<sym>Dot</sym>
</trkpt>
<trkpt lat="47.557513" lon="15.602978">
<ele>675.5</ele>
<desc>Speed 67.0 km/h Distance 41.47 km</desc>
<time>2012-09-18T15:59:53.45</time>
<name>2051</name>
<sym>Dot</sym>
</trkpt>
<trkpt lat="47.557603" lon="15.603212">
<ele>676.0</ele>
<desc>Speed 72.7 km/h Distance 41.49 km</desc>
<time>2012-09-18T15:59:54.45</time>
<name>2052</name>
<sym>Dot</sym>
</trkpt>
<trkpt lat="47.557707" lon="15.603453">
<ele>676.5</ele>
<desc>Speed 76.9 km/h Distance 41.51 km</desc>
<time>2012-09-18T15:59:55.44</time>
<name>2053</name>
<sym>Dot</sym>
</trkpt>
<trkpt lat="47.557813" lon="15.603703">
<ele>676.5</ele>
<desc>Speed 80.0 km/h Distance 41.53 km</desc>
<time>2012-09-18T15:59:56.44</time>
<name>2054</name>
<sym>Dot</sym>
</trkpt>
<trkpt lat="47.557917" lon="15.603958">
<ele>676.5</ele>
<desc>Speed 80.5 km/h Distance 41.55 km</desc>
<time>2012-09-18T15:59:57.43</time>
<name>2055</name>
<sym>Dot</sym>
</trkpt>
<trkpt lat="47.558012" lon="15.604220">
<ele>677.0</ele>
<desc>Speed 80.2 km/h Distance 41.57 km</desc>
<time>2012-09-18T15:59:58.43</time>
<name>2056</name>
<sym>Dot</sym>
</trkpt>
<trkpt lat="47.558093" lon="15.604498">
<ele>677.0</ele>
<desc>Speed 81.8 km/h Distance 41.60 km</desc>
<time>2012-09-18T15:59:59.42</time>
<name>2057</name>
<sym>Dot</sym>
</trkpt>
<trkpt lat="47.558168" lon="15.604795">
<ele>677.0</ele>
<desc>Speed 85.2 km/h Distance 41.62 km</desc>
<time>2012-09-18T16:00:00.43</time>
<name>2058</name>
<sym>Dot</sym>
</trkpt>
<trkpt lat="47.558245" lon="15.605105">
<ele>677.5</ele>
<desc>Speed 89.5 km/h Distance 41.65 km</desc>
<time>2012-09-18T16:00:01.42</time>
<name>2059</name>
<sym>Dot</sym>
</trkpt>
<trkpt lat="47.558328" lon="15.605433">
<ele>677.5</ele>
<desc>Speed 94.6 km/h Distance 41.67 km</desc>
<time>2012-09-18T16:00:02.41</time>
<name>2060</name>
<sym>Dot</sym>
</trkpt>
<trkpt lat="47.558410" lon="15.605767">
<ele>678.0</ele>
<desc>Speed 95.4 km/h Distance 41.70 km</desc>
<time>2012-09-18T16:00:03.41</time>
<name>2061</name>
<sym>Dot</sym>
</trkpt>
<trkpt lat="47.558487" lon="15.606083">
<ele>678.5</ele>
<desc>Speed 90.6 km/h Distance 41.72 km</desc>
<time>2012-09-18T16:00:04.41</time>
<name>2062</name>
<sym>Dot</sym>
</trkpt>
<trkpt lat="47.558560" lon="15.606382">
<ele>678.5</ele>
<desc>Speed 85.5 km/h Distance 41.75 km</desc>
<time>2012-09-18T16:00:05.40</time>
<name>2063</name>
<sym>Dot</sym>
</trkpt>
<trkpt lat="47.558628" lon="15.606662">
<ele>678.5</ele>
<desc>Speed 80.8 km/h Distance 41.77 km</desc>
<time>2012-09-18T16:00:06.40</time>
<name>2064</name>
<sym>Dot</sym>
</trkpt>
<trkpt lat="47.558690" lon="15.606927">
<ele>679.0</ele>
<desc>Speed 75.8 km/h Distance 41.79 km</desc>
<time>2012-09-18T16:00:07.40</time>
<name>2065</name>
<sym>Dot</sym>
</trkpt>
<trkpt lat="47.558750" lon="15.607168">
<ele>679.0</ele>
<desc>Speed 69.8 km/h Distance 41.81 km</desc>
<time>2012-09-18T16:00:08.39</time>
<name>2066</name>
<sym>Dot</sym>
</trkpt>
<trkpt lat="47.558803" lon="15.607388">
<ele>679.5</ele>
<desc>Speed 63.4 km/h Distance 41.83 km</desc>
<time>2012-09-18T16:00:09.38</time>
<name>2067</name>
<sym>Dot</sym>
</trkpt>
<trkpt lat="47.558855" lon="15.607598">
<ele>679.5</ele>
<desc>Speed 60.2 km/h Distance 41.84 km</desc>
<time>2012-09-18T16:00:10.38</time>
<name>2068</name>
<sym>Dot</sym>
</trkpt>
<trkpt lat="47.558905" lon="15.607798">
<ele>680.0</ele>
<desc>Speed 57.5 km/h Distance 41.86 km</desc>
<time>2012-09-18T16:00:11.38</time>
<name>2069</name>
<sym>Dot</sym>
</trkpt>
<trkpt lat="47.558950" lon="15.607988">
<ele>680.0</ele>
<desc>Speed 54.8 km/h Distance 41.88 km</desc>
<time>2012-09-18T16:00:12.39</time>
<name>2070</name>
<sym>Dot</sym>
</trkpt>
<trkpt lat="47.558990" lon="15.608172">
<ele>680.0</ele>
<desc>Speed 52.3 km/h Distance 41.89 km</desc>
<time>2012-09-18T16:00:13.38</time>
<name>2071</name>
<sym>Dot</sym>
</trkpt>
<trkpt lat="47.559025" lon="15.608350">
<ele>680.5</ele>
<desc>Speed 50.0 km/h Distance 41.90 km</desc>
<time>2012-09-18T16:00:14.38</time>
<name>2072</name>
<sym>Dot</sym>
</trkpt>
<trkpt lat="47.559052" lon="15.608523">
<ele>680.0</ele>
<desc>Speed 47.9 km/h Distance 41.92 km</desc>
<time>2012-09-18T16:00:15.37</time>
<name>2073</name>
<sym>Dot</sym>
</trkpt>
<trkpt lat="47.559073" lon="15.608698">
<ele>680.5</ele>
<desc>Speed 48.2 km/h Distance 41.93 km</desc>
<time>2012-09-18T16:00:16.37</time>
<name>2074</name>
<sym>Dot</sym>
</trkpt>
<trkpt lat="47.559088" lon="15.608875">
<ele>680.0</ele>
<desc>Speed 48.0 km/h Distance 41.94 km</desc>
<time>2012-09-18T16:00:17.36</time>
<name>2075</name>
<sym>Dot</sym>
</trkpt>
<trkpt lat="47.559102" lon="15.609040">
<ele>680.5</ele>
<desc>Speed 44.6 km/h Distance 41.96 km</desc>
<time>2012-09-18T16:00:18.36</time>
<name>2076</name>
<sym>Dot</sym>
</trkpt>
<trkpt lat="47.559107" lon="15.609192">
<ele>680.5</ele>
<desc>Speed 41.3 km/h Distance 41.97 km</desc>
<time>2012-09-18T16:00:19.35</time>
<name>2077</name>
<sym>Dot</sym>
</trkpt>
<trkpt lat="47.559112" lon="15.609333">
<ele>681.0</ele>
<desc>Speed 38.4 km/h Distance 41.98 km</desc>
<time>2012-09-18T16:00:20.34</time>
<name>2078</name>
<sym>Dot</sym>
</trkpt>
<trkpt lat="47.559127" lon="15.609465">
<ele>681.5</ele>
<desc>Speed 36.2 km/h Distance 41.99 km</desc>
<time>2012-09-18T16:00:21.34</time>
<name>2079</name>
<sym>Dot</sym>
</trkpt>
<trkpt lat="47.559178" lon="15.609583">
<ele>683.0</ele>
<desc>Speed 38.2 km/h Distance 42.00 km</desc>
<time>2012-09-18T16:00:22.34</time>
<name>2080</name>
<sym>Dot</sym>
</trkpt>
<trkpt lat="47.559257" lon="15.609682">
<ele>684.5</ele>
<desc>Speed 41.0 km/h Distance 42.01 km</desc>
<time>2012-09-18T16:00:23.33</time>
<name>2081</name>
<sym>Dot</sym>
</trkpt>
<trkpt lat="47.559337" lon="15.609725">
<ele>686.0</ele>
<desc>Speed 34.4 km/h Distance 42.02 km</desc>
<time>2012-09-18T16:00:24.33</time>
<name>2082</name>
<sym>Dot</sym>
</trkpt>
<trkpt lat="47.559427" lon="15.609737">
<ele>686.5</ele>
<desc>Speed 36.1 km/h Distance 42.03 km</desc>
<time>2012-09-18T16:00:25.32</time>
<name>2083</name>
<sym>Dot</sym>
</trkpt>
<trkpt lat="47.559520" lon="15.609693">
<ele>686.0</ele>
<desc>Speed 39.1 km/h Distance 42.04 km</desc>
<time>2012-09-18T16:00:26.32</time>
<name>2084</name>
<sym>Dot</sym>
</trkpt>
<trkpt lat="47.559747" lon="15.609562">
<ele>686.0</ele>
<desc>Speed 49.2 km/h Distance 42.07 km</desc>
<time>2012-09-18T16:00:28.31</time>
<name>2085</name>
<sym>Dot</sym>
</trkpt>
<trkpt lat="47.559855" lon="15.609500">
<ele>685.5</ele>
<desc>Speed 46.5 km/h Distance 42.08 km</desc>
<time>2012-09-18T16:00:29.31</time>
<name>2086</name>
<sym>Dot</sym>
</trkpt>
<trkpt lat="47.559955" lon="15.609460">
<ele>685.5</ele>
<desc>Speed 41.1 km/h Distance 42.09 km</desc>
<time>2012-09-18T16:00:30.31</time>
<name>2087</name>
<sym>Dot</sym>
</trkpt>
<trkpt lat="47.560045" lon="15.609470">
<ele>685.5</ele>
<desc>Speed 36.3 km/h Distance 42.10 km</desc>
<time>2012-09-18T16:00:31.30</time>
<name>2088</name>
<sym>Dot</sym>
</trkpt>
<trkpt lat="47.560132" lon="15.609515">
<ele>686.5</ele>
<desc>Speed 37.1 km/h Distance 42.11 km</desc>
<time>2012-09-18T16:00:32.29</time>
<name>2089</name>
<sym>Dot</sym>
</trkpt>
<trkpt lat="47.560198" lon="15.609568">
<ele>684.5</ele>
<desc>Speed 29.9 km/h Distance 42.12 km</desc>
<time>2012-09-18T16:00:33.29</time>
<name>2090</name>
<sym>Dot</sym>
</trkpt>
<trkpt lat="47.560417" lon="15.610037">
<ele>682.5</ele>
<desc>Speed 51.0 km/h Distance 42.16 km</desc>
<time>2012-09-18T16:00:37.31</time>
<name>2091</name>
<sym>Dot</sym>
</trkpt>
<trkpt lat="47.560483" lon="15.610192">
<ele>681.5</ele>
<desc>Speed 47.9 km/h Distance 42.18 km</desc>
<time>2012-09-18T16:00:38.31</time>
<name>2092</name>
<sym>Dot</sym>
</trkpt>
<trkpt lat="47.560545" lon="15.610328">
<ele>681.0</ele>
<desc>Speed 44.1 km/h Distance 42.19 km</desc>
<time>2012-09-18T16:00:39.31</time>
<name>2093</name>
<sym>Dot</sym>
</trkpt>
<trkpt lat="47.560615" lon="15.610448">
<ele>680.5</ele>
<desc>Speed 42.9 km/h Distance 42.20 km</desc>
<time>2012-09-18T16:00:40.30</time>
<name>2094</name>
<sym>Dot</sym>
</trkpt>
<trkpt lat="47.560707" lon="15.610560">
<ele>681.0</ele>
<desc>Speed 46.9 km/h Distance 42.22 km</desc>
<time>2012-09-18T16:00:41.29</time>
<name>2095</name>
<sym>Dot</sym>
</trkpt>
<trkpt lat="47.560798" lon="15.610665">
<ele>680.0</ele>
<desc>Speed 46.0 km/h Distance 42.23 km</desc>
<time>2012-09-18T16:00:42.29</time>
<name>2096</name>
<sym>Dot</sym>
</trkpt>
<trkpt lat="47.560887" lon="15.610767">
<ele>680.0</ele>
<desc>Speed 44.9 km/h Distance 42.24 km</desc>
<time>2012-09-18T16:00:43.28</time>
<name>2097</name>
<sym>Dot</sym>
</trkpt>
<trkpt lat="47.560973" lon="15.610865">
<ele>680.0</ele>
<desc>Speed 43.3 km/h Distance 42.25 km</desc>
<time>2012-09-18T16:00:44.28</time>
<name>2098</name>
<sym>Dot</sym>
</trkpt>
<trkpt lat="47.561057" lon="15.610967">
<ele>680.0</ele>
<desc>Speed 42.7 km/h Distance 42.27 km</desc>
<time>2012-09-18T16:00:45.27</time>
<name>2099</name>
<sym>Dot</sym>
</trkpt>
<trkpt lat="47.561140" lon="15.611072">
<ele>680.0</ele>
<desc>Speed 43.6 km/h Distance 42.28 km</desc>
<time>2012-09-18T16:00:46.26</time>
<name>2100</name>
<sym>Dot</sym>
</trkpt>
<trkpt lat="47.561223" lon="15.611182">
<ele>680.0</ele>
<desc>Speed 44.9 km/h Distance 42.29 km</desc>
<time>2012-09-18T16:00:47.26</time>
<name>2101</name>
<sym>Dot</sym>
</trkpt>
<trkpt lat="47.561312" lon="15.611297">
<ele>679.5</ele>
<desc>Speed 46.5 km/h Distance 42.30 km</desc>
<time>2012-09-18T16:00:48.26</time>
<name>2102</name>
<sym>Dot</sym>
</trkpt>
<trkpt lat="47.561400" lon="15.611412">
<ele>679.5</ele>
<desc>Speed 46.9 km/h Distance 42.32 km</desc>
<time>2012-09-18T16:00:49.25</time>
<name>2103</name>
<sym>Dot</sym>
</trkpt>
<trkpt lat="47.561485" lon="15.611522">
<ele>680.0</ele>
<desc>Speed 45.2 km/h Distance 42.33 km</desc>
<time>2012-09-18T16:00:50.26</time>
<name>2104</name>
<sym>Dot</sym>
</trkpt>
<trkpt lat="47.561568" lon="15.611630">
<ele>680.0</ele>
<desc>Speed 44.1 km/h Distance 42.34 km</desc>
<time>2012-09-18T16:00:51.25</time>
<name>2105</name>
<sym>Dot</sym>
</trkpt>
<trkpt lat="47.561653" lon="15.611735">
<ele>680.5</ele>
<desc>Speed 44.0 km/h Distance 42.35 km</desc>
<time>2012-09-18T16:00:52.24</time>
<name>2106</name>
<sym>Dot</sym>
</trkpt>
<trkpt lat="47.561738" lon="15.611838">
<ele>680.5</ele>
<desc>Speed 43.8 km/h Distance 42.37 km</desc>
<time>2012-09-18T16:00:53.23</time>
<name>2107</name>
<sym>Dot</sym>
</trkpt>
<trkpt lat="47.561822" lon="15.611945">
<ele>681.0</ele>
<desc>Speed 44.3 km/h Distance 42.38 km</desc>
<time>2012-09-18T16:00:54.23</time>
<name>2108</name>
<sym>Dot</sym>
</trkpt>
<trkpt lat="47.561905" lon="15.612058">
<ele>681.0</ele>
<desc>Speed 44.7 km/h Distance 42.39 km</desc>
<time>2012-09-18T16:00:55.22</time>
<name>2109</name>
<sym>Dot</sym>
</trkpt>
<trkpt lat="47.561987" lon="15.612170">
<ele>681.5</ele>
<desc>Speed 44.6 km/h Distance 42.40 km</desc>
<time>2012-09-18T16:00:56.21</time>
<name>2110</name>
<sym>Dot</sym>
</trkpt>
<trkpt lat="47.562068" lon="15.612278">
<ele>681.5</ele>
<desc>Speed 43.7 km/h Distance 42.42 km</desc>
<time>2012-09-18T16:00:57.21</time>
<name>2111</name>
<sym>Dot</sym>
</trkpt>
<trkpt lat="47.562145" lon="15.612382">
<ele>681.5</ele>
<desc>Speed 41.7 km/h Distance 42.43 km</desc>
<time>2012-09-18T16:00:58.20</time>
<name>2112</name>
<sym>Dot</sym>
</trkpt>
<trkpt lat="47.562218" lon="15.612482">
<ele>681.5</ele>
<desc>Speed 39.8 km/h Distance 42.44 km</desc>
<time>2012-09-18T16:00:59.19</time>
<name>2113</name>
<sym>Dot</sym>
</trkpt>
<trkpt lat="47.562292" lon="15.612578">
<ele>682.0</ele>
<desc>Speed 39.8 km/h Distance 42.45 km</desc>
<time>2012-09-18T16:01:00.19</time>
<name>2114</name>
<sym>Dot</sym>
</trkpt>
<trkpt lat="47.562368" lon="15.612677">
<ele>682.0</ele>
<desc>Speed 40.6 km/h Distance 42.46 km</desc>
<time>2012-09-18T16:01:01.18</time>
<name>2115</name>
<sym>Dot</sym>
</trkpt>
<trkpt lat="47.562445" lon="15.612780">
<ele>682.5</ele>
<desc>Speed 41.7 km/h Distance 42.47 km</desc>
<time>2012-09-18T16:01:02.18</time>
<name>2116</name>
<sym>Dot</sym>
</trkpt>
<trkpt lat="47.562527" lon="15.612882">
<ele>682.5</ele>
<desc>Speed 42.5 km/h Distance 42.48 km</desc>
<time>2012-09-18T16:01:03.18</time>
<name>2117</name>
<sym>Dot</sym>
</trkpt>
<trkpt lat="47.562607" lon="15.612987">
<ele>682.5</ele>
<desc>Speed 43.0 km/h Distance 42.50 km</desc>
<time>2012-09-18T16:01:04.18</time>
<name>2118</name>
<sym>Dot</sym>
</trkpt>
<trkpt lat="47.562685" lon="15.613097">
<ele>683.0</ele>
<desc>Speed 43.4 km/h Distance 42.51 km</desc>
<time>2012-09-18T16:01:05.17</time>
<name>2119</name>
<sym>Dot</sym>
</trkpt>
<trkpt lat="47.562767" lon="15.613205">
<ele>683.0</ele>
<desc>Speed 43.4 km/h Distance 42.52 km</desc>
<time>2012-09-18T16:01:06.17</time>
<name>2120</name>
<sym>Dot</sym>
</trkpt>
<trkpt lat="47.562850" lon="15.613310">
<ele>683.0</ele>
<desc>Speed 44.0 km/h Distance 42.53 km</desc>
<time>2012-09-18T16:01:07.17</time>
<name>2121</name>
<sym>Dot</sym>
</trkpt>
<trkpt lat="47.562933" lon="15.613415">
<ele>683.0</ele>
<desc>Speed 43.7 km/h Distance 42.54 km</desc>
<time>2012-09-18T16:01:08.18</time>
<name>2122</name>
<sym>Dot</sym>
</trkpt>
<trkpt lat="47.563017" lon="15.613518">
<ele>684.0</ele>
<desc>Speed 43.3 km/h Distance 42.56 km</desc>
<time>2012-09-18T16:01:09.16</time>
<name>2123</name>
<sym>Dot</sym>
</trkpt>
<trkpt lat="47.563095" lon="15.613618">
<ele>684.0</ele>
<desc>Speed 41.9 km/h Distance 42.57 km</desc>
<time>2012-09-18T16:01:10.15</time>
<name>2124</name>
<sym>Dot</sym>
</trkpt>
<trkpt lat="47.563173" lon="15.613715">
<ele>684.0</ele>
<desc>Speed 40.5 km/h Distance 42.58 km</desc>
<time>2012-09-18T16:01:11.14</time>
<name>2125</name>
<sym>Dot</sym>
</trkpt>
<trkpt lat="47.563250" lon="15.613810">
<ele>684.0</ele>
<desc>Speed 40.3 km/h Distance 42.59 km</desc>
<time>2012-09-18T16:01:12.13</time>
<name>2126</name>
<sym>Dot</sym>
</trkpt>
<trkpt lat="47.563330" lon="15.613907">
<ele>684.0</ele>
<desc>Speed 41.3 km/h Distance 42.60 km</desc>
<time>2012-09-18T16:01:13.13</time>
<name>2127</name>
<sym>Dot</sym>
</trkpt>
<trkpt lat="47.563412" lon="15.614003">
<ele>684.0</ele>
<desc>Speed 41.2 km/h Distance 42.61 km</desc>
<time>2012-09-18T16:01:14.12</time>
<name>2128</name>
<sym>Dot</sym>
</trkpt>
<trkpt lat="47.563492" lon="15.614095">
<ele>684.5</ele>
<desc>Speed 40.6 km/h Distance 42.62 km</desc>
<time>2012-09-18T16:01:15.11</time>
<name>2129</name>
<sym>Dot</sym>
</trkpt>
<trkpt lat="47.563570" lon="15.614190">
<ele>684.5</ele>
<desc>Speed 40.4 km/h Distance 42.64 km</desc>
<time>2012-09-18T16:01:16.10</time>
<name>2130</name>
<sym>Dot</sym>
</trkpt>
<trkpt lat="47.563645" lon="15.614290">
<ele>686.5</ele>
<desc>Speed 40.4 km/h Distance 42.65 km</desc>
<time>2012-09-18T16:01:17.10</time>
<name>2131</name>
<sym>Dot</sym>
</trkpt>
<trkpt lat="47.563725" lon="15.614390">
<ele>686.0</ele>
<desc>Speed 41.3 km/h Distance 42.66 km</desc>
<time>2012-09-18T16:01:18.09</time>
<name>2132</name>
<sym>Dot</sym>
</trkpt>
<trkpt lat="47.563807" lon="15.614492">
<ele>686.0</ele>
<desc>Speed 41.9 km/h Distance 42.67 km</desc>
<time>2012-09-18T16:01:19.08</time>
<name>2133</name>
<sym>Dot</sym>
</trkpt>
<trkpt lat="47.563888" lon="15.614592">
<ele>686.0</ele>
<desc>Speed 42.2 km/h Distance 42.68 km</desc>
<time>2012-09-18T16:01:20.08</time>
<name>2134</name>
<sym>Dot</sym>
</trkpt>
<trkpt lat="47.563972" lon="15.614690">
<ele>686.0</ele>
<desc>Speed 43.1 km/h Distance 42.69 km</desc>
<time>2012-09-18T16:01:21.07</time>
<name>2135</name>
<sym>Dot</sym>
</trkpt>
<trkpt lat="47.564057" lon="15.614793">
<ele>686.0</ele>
<desc>Speed 43.4 km/h Distance 42.71 km</desc>
<time>2012-09-18T16:01:22.06</time>
<name>2136</name>
<sym>Dot</sym>
</trkpt>
<trkpt lat="47.564140" lon="15.614900">
<ele>686.0</ele>
<desc>Speed 43.7 km/h Distance 42.72 km</desc>
<time>2012-09-18T16:01:23.07</time>
<name>2137</name>
<sym>Dot</sym>
</trkpt>
<trkpt lat="47.564223" lon="15.615007">
<ele>685.5</ele>
<desc>Speed 43.9 km/h Distance 42.73 km</desc>
<time>2012-09-18T16:01:24.07</time>
<name>2138</name>
<sym>Dot</sym>
</trkpt>
<trkpt lat="47.564305" lon="15.615112">
<ele>686.0</ele>
<desc>Speed 42.7 km/h Distance 42.74 km</desc>
<time>2012-09-18T16:01:25.07</time>
<name>2139</name>
<sym>Dot</sym>
</trkpt>
<trkpt lat="47.564382" lon="15.615210">
<ele>686.0</ele>
<desc>Speed 41.3 km/h Distance 42.75 km</desc>
<time>2012-09-18T16:01:26.06</time>
<name>2140</name>
<sym>Dot</sym>
</trkpt>
<trkpt lat="47.564458" lon="15.615305">
<ele>686.0</ele>
<desc>Speed 39.7 km/h Distance 42.77 km</desc>
<time>2012-09-18T16:01:27.04</time>
<name>2141</name>
<sym>Dot</sym>
</trkpt>
<trkpt lat="47.564535" lon="15.615400">
<ele>686.0</ele>
<desc>Speed 40.0 km/h Distance 42.78 km</desc>
<time>2012-09-18T16:01:28.04</time>
<name>2142</name>
<sym>Dot</sym>
</trkpt>
<trkpt lat="47.564613" lon="15.615495">
<ele>686.5</ele>
<desc>Speed 40.4 km/h Distance 42.79 km</desc>
<time>2012-09-18T16:01:29.05</time>
<name>2143</name>
<sym>Dot</sym>
</trkpt>
<trkpt lat="47.564692" lon="15.615593">
<ele>686.0</ele>
<desc>Speed 41.1 km/h Distance 42.80 km</desc>
<time>2012-09-18T16:01:30.03</time>
<name>2144</name>
<sym>Dot</sym>
</trkpt>
<trkpt lat="47.564772" lon="15.615693">
<ele>686.5</ele>
<desc>Speed 41.9 km/h Distance 42.81 km</desc>
<time>2012-09-18T16:01:31.03</time>
<name>2145</name>
<sym>Dot</sym>
</trkpt>
<trkpt lat="47.564853" lon="15.615797">
<ele>686.5</ele>
<desc>Speed 42.8 km/h Distance 42.82 km</desc>
<time>2012-09-18T16:01:32.02</time>
<name>2146</name>
<sym>Dot</sym>
</trkpt>
<trkpt lat="47.564935" lon="15.615902">
<ele>687.0</ele>
<desc>Speed 43.2 km/h Distance 42.83 km</desc>
<time>2012-09-18T16:01:33.01</time>
<name>2147</name>
<sym>Dot</sym>
</trkpt>
<trkpt lat="47.565017" lon="15.616007">
<ele>687.0</ele>
<desc>Speed 42.8 km/h Distance 42.85 km</desc>
<time>2012-09-18T16:01:34.00</time>
<name>2148</name>
<sym>Dot</sym>
</trkpt>
<trkpt lat="47.565098" lon="15.616108">
<ele>687.5</ele>
<desc>Speed 42.5 km/h Distance 42.86 km</desc>
<time>2012-09-18T16:01:35.00</time>
<name>2149</name>
<sym>Dot</sym>
</trkpt>
<trkpt lat="47.565178" lon="15.616208">
<ele>687.5</ele>
<desc>Speed 41.7 km/h Distance 42.87 km</desc>
<time>2012-09-18T16:01:35.99</time>
<name>2150</name>
<sym>Dot</sym>
</trkpt>
<trkpt lat="47.565260" lon="15.616303">
<ele>688.0</ele>
<desc>Speed 41.3 km/h Distance 42.88 km</desc>
<time>2012-09-18T16:01:36.99</time>
<name>2151</name>
<sym>Dot</sym>
</trkpt>
<trkpt lat="47.565338" lon="15.616400">
<ele>688.0</ele>
<desc>Speed 40.3 km/h Distance 42.89 km</desc>
<time>2012-09-18T16:01:37.99</time>
<name>2152</name>
<sym>Dot</sym>
</trkpt>
<trkpt lat="47.565412" lon="15.616495">
<ele>688.0</ele>
<desc>Speed 38.8 km/h Distance 42.90 km</desc>
<time>2012-09-18T16:01:38.99</time>
<name>2153</name>
<sym>Dot</sym>
</trkpt>
<trkpt lat="47.565487" lon="15.616592">
<ele>688.0</ele>
<desc>Speed 39.0 km/h Distance 42.91 km</desc>
<time>2012-09-18T16:01:39.99</time>
<name>2154</name>
<sym>Dot</sym>
</trkpt>
<trkpt lat="47.565567" lon="15.616690">
<ele>688.5</ele>
<desc>Speed 41.5 km/h Distance 42.93 km</desc>
<time>2012-09-18T16:01:40.99</time>
<name>2155</name>
<sym>Dot</sym>
</trkpt>
<trkpt lat="47.565650" lon="15.616792">
<ele>688.5</ele>
<desc>Speed 43.1 km/h Distance 42.94 km</desc>
<time>2012-09-18T16:01:41.98</time>
<name>2156</name>
<sym>Dot</sym>
</trkpt>
<trkpt lat="47.565732" lon="15.616890">
<ele>688.5</ele>
<desc>Speed 42.4 km/h Distance 42.95 km</desc>
<time>2012-09-18T16:01:42.98</time>
<name>2157</name>
<sym>Dot</sym>
</trkpt>
<trkpt lat="47.565812" lon="15.616987">
<ele>689.0</ele>
<desc>Speed 41.0 km/h Distance 42.96 km</desc>
<time>2012-09-18T16:01:43.98</time>
<name>2158</name>
<sym>Dot</sym>
</trkpt>
<trkpt lat="47.565888" lon="15.617077">
<ele>689.0</ele>
<desc>Speed 39.2 km/h Distance 42.97 km</desc>
<time>2012-09-18T16:01:44.97</time>
<name>2159</name>
<sym>Dot</sym>
</trkpt>
<trkpt lat="47.565967" lon="15.617167">
<ele>689.0</ele>
<desc>Speed 38.7 km/h Distance 42.98 km</desc>
<time>2012-09-18T16:01:45.98</time>
<name>2160</name>
<sym>Dot</sym>
</trkpt>
<trkpt lat="47.566042" lon="15.617260">
<ele>688.5</ele>
<desc>Speed 39.2 km/h Distance 42.99 km</desc>
<time>2012-09-18T16:01:46.98</time>
<name>2161</name>
<sym>Dot</sym>
</trkpt>
<trkpt lat="47.566118" lon="15.617368">
<ele>689.0</ele>
<desc>Speed 42.5 km/h Distance 43.01 km</desc>
<time>2012-09-18T16:01:47.96</time>
<name>2162</name>
<sym>Dot</sym>
</trkpt>
<trkpt lat="47.566197" lon="15.617485">
<ele>689.0</ele>
<desc>Speed 44.0 km/h Distance 43.02 km</desc>
<time>2012-09-18T16:01:48.97</time>
<name>2163</name>
<sym>Dot</sym>
</trkpt>
<trkpt lat="47.566270" lon="15.617605">
<ele>689.0</ele>
<desc>Speed 43.7 km/h Distance 43.03 km</desc>
<time>2012-09-18T16:01:49.96</time>
<name>2164</name>
<sym>Dot</sym>
</trkpt>
<trkpt lat="47.566340" lon="15.617728">
<ele>689.0</ele>
<desc>Speed 43.3 km/h Distance 43.04 km</desc>
<time>2012-09-18T16:01:50.96</time>
<name>2165</name>
<sym>Dot</sym>
</trkpt>
<trkpt lat="47.566407" lon="15.617853">
<ele>689.0</ele>
<desc>Speed 42.9 km/h Distance 43.05 km</desc>
<time>2012-09-18T16:01:51.95</time>
<name>2166</name>
<sym>Dot</sym>
</trkpt>
<trkpt lat="47.566472" lon="15.617975">
<ele>689.0</ele>
<desc>Speed 41.9 km/h Distance 43.07 km</desc>
<time>2012-09-18T16:01:52.95</time>
<name>2167</name>
<sym>Dot</sym>
</trkpt>
<trkpt lat="47.566538" lon="15.618093">
<ele>688.5</ele>
<desc>Speed 41.0 km/h Distance 43.08 km</desc>
<time>2012-09-18T16:01:53.93</time>
<name>2168</name>
<sym>Dot</sym>
</trkpt>
<trkpt lat="47.566608" lon="15.618205">
<ele>688.0</ele>
<desc>Speed 41.4 km/h Distance 43.09 km</desc>
<time>2012-09-18T16:01:54.93</time>
<name>2169</name>
<sym>Dot</sym>
</trkpt>
<trkpt lat="47.566683" lon="15.618315">
<ele>688.0</ele>
<desc>Speed 41.8 km/h Distance 43.10 km</desc>
<time>2012-09-18T16:01:55.92</time>
<name>2170</name>
<sym>Dot</sym>
</trkpt>
<trkpt lat="47.566770" lon="15.618427">
<ele>688.0</ele>
<desc>Speed 46.0 km/h Distance 43.11 km</desc>
<time>2012-09-18T16:01:56.93</time>
<name>2171</name>
<sym>Dot</sym>
</trkpt>
<trkpt lat="47.566862" lon="15.618558">
<ele>688.0</ele>
<desc>Speed 50.9 km/h Distance 43.13 km</desc>
<time>2012-09-18T16:01:57.92</time>
<name>2172</name>
<sym>Dot</sym>
</trkpt>
<trkpt lat="47.566948" lon="15.618668">
<ele>689.0</ele>
<desc>Speed 45.8 km/h Distance 43.14 km</desc>
<time>2012-09-18T16:01:58.90</time>
<name>2173</name>
<sym>Dot</sym>
</trkpt>
<trkpt lat="47.567040" lon="15.618773">
<ele>689.0</ele>
<desc>Speed 45.6 km/h Distance 43.15 km</desc>
<time>2012-09-18T16:01:59.89</time>
<name>2174</name>
<sym>Dot</sym>
</trkpt>
<trkpt lat="47.567130" lon="15.618873">
<ele>688.5</ele>
<desc>Speed 44.4 km/h Distance 43.17 km</desc>
<time>2012-09-18T16:02:00.89</time>
<name>2175</name>
<sym>Dot</sym>
</trkpt>
<trkpt lat="47.567218" lon="15.618968">
<ele>688.5</ele>
<desc>Speed 43.7 km/h Distance 43.18 km</desc>
<time>2012-09-18T16:02:01.90</time>
<name>2176</name>
<sym>Dot</sym>
</trkpt>
<trkpt lat="47.567307" lon="15.619062">
<ele>689.0</ele>
<desc>Speed 43.1 km/h Distance 43.19 km</desc>
<time>2012-09-18T16:02:02.89</time>
<name>2177</name>
<sym>Dot</sym>
</trkpt>
<trkpt lat="47.567393" lon="15.619157">
<ele>690.0</ele>
<desc>Speed 43.1 km/h Distance 43.20 km</desc>
<time>2012-09-18T16:02:03.89</time>
<name>2178</name>
<sym>Dot</sym>
</trkpt>
<trkpt lat="47.567482" lon="15.619253">
<ele>691.0</ele>
<desc>Speed 43.5 km/h Distance 43.21 km</desc>
<time>2012-09-18T16:02:04.87</time>
<name>2179</name>
<sym>Dot</sym>
</trkpt>
<trkpt lat="47.567568" lon="15.619353">
<ele>692.0</ele>
<desc>Speed 44.0 km/h Distance 43.23 km</desc>
<time>2012-09-18T16:02:05.88</time>
<name>2180</name>
<sym>Dot</sym>
</trkpt>
<trkpt lat="47.567658" lon="15.619457">
<ele>691.0</ele>
<desc>Speed 45.2 km/h Distance 43.24 km</desc>
<time>2012-09-18T16:02:06.86</time>
<name>2181</name>
<sym>Dot</sym>
</trkpt>
<trkpt lat="47.567752" lon="15.619570">
<ele>692.5</ele>
<desc>Speed 48.1 km/h Distance 43.25 km</desc>
<time>2012-09-18T16:02:07.87</time>
<name>2182</name>
<sym>Dot</sym>
</trkpt>
<trkpt lat="47.567843" lon="15.619690">
<ele>694.0</ele>
<desc>Speed 48.8 km/h Distance 43.27 km</desc>
<time>2012-09-18T16:02:08.86</time>
<name>2183</name>
<sym>Dot</sym>
</trkpt>
<trkpt lat="47.567933" lon="15.619795">
<ele>694.0</ele>
<desc>Speed 46.2 km/h Distance 43.28 km</desc>
<time>2012-09-18T16:02:09.85</time>
<name>2184</name>
<sym>Dot</sym>
</trkpt>
<trkpt lat="47.568018" lon="15.619898">
<ele>694.5</ele>
<desc>Speed 43.8 km/h Distance 43.29 km</desc>
<time>2012-09-18T16:02:10.85</time>
<name>2185</name>
<sym>Dot</sym>
</trkpt>
<trkpt lat="47.568098" lon="15.620002">
<ele>693.5</ele>
<desc>Speed 42.2 km/h Distance 43.30 km</desc>
<time>2012-09-18T16:02:11.84</time>
<name>2186</name>
<sym>Dot</sym>
</trkpt>
<trkpt lat="47.568167" lon="15.620107">
<ele>693.5</ele>
<desc>Speed 39.9 km/h Distance 43.31 km</desc>
<time>2012-09-18T16:02:12.84</time>
<name>2187</name>
<sym>Dot</sym>
</trkpt>
<trkpt lat="47.568225" lon="15.620217">
<ele>693.5</ele>
<desc>Speed 37.3 km/h Distance 43.33 km</desc>
<time>2012-09-18T16:02:13.85</time>
<name>2188</name>
<sym>Dot</sym>
</trkpt>
<trkpt lat="47.568280" lon="15.620308">
<ele>693.0</ele>
<desc>Speed 31.9 km/h Distance 43.33 km</desc>
<time>2012-09-18T16:02:14.83</time>
<name>2189</name>
<sym>Dot</sym>
</trkpt>
<trkpt lat="47.568323" lon="15.620455">
<ele>692.0</ele>
<desc>Speed 21.6 km/h Distance 43.35 km</desc>
<time>2012-09-18T16:02:16.83</time>
<name>2190</name>
<sym>Dot</sym>
</trkpt>
<trkpt lat="47.568340" lon="15.620530">
<ele>692.5</ele>
<desc>Speed 21.4 km/h Distance 43.35 km</desc>
<time>2012-09-18T16:02:17.81</time>
<name>2191</name>
<sym>Dot</sym>
</trkpt>
<trkpt lat="47.568360" lon="15.620620">
<ele>692.5</ele>
<desc>Speed 25.3 km/h Distance 43.36 km</desc>
<time>2012-09-18T16:02:18.81</time>
<name>2192</name>
<sym>Dot</sym>
</trkpt>
<trkpt lat="47.568417" lon="15.620875">
<ele>691.5</ele>
<desc>Speed 39.5 km/h Distance 43.38 km</desc>
<time>2012-09-18T16:02:20.81</time>
<name>2193</name>
<sym>Dot</sym>
</trkpt>
<trkpt lat="47.568450" lon="15.621013">
<ele>691.0</ele>
<desc>Speed 39.3 km/h Distance 43.39 km</desc>
<time>2012-09-18T16:02:21.82</time>
<name>2194</name>
<sym>Dot</sym>
</trkpt>
<trkpt lat="47.568487" lon="15.621165">
<ele>691.5</ele>
<desc>Speed 43.4 km/h Distance 43.40 km</desc>
<time>2012-09-18T16:02:22.81</time>
<name>2195</name>
<sym>Dot</sym>
</trkpt>
<trkpt lat="47.568527" lon="15.621332">
<ele>691.5</ele>
<desc>Speed 47.8 km/h Distance 43.42 km</desc>
<time>2012-09-18T16:02:23.81</time>
<name>2196</name>
<sym>Dot</sym>
</trkpt>
<trkpt lat="47.568568" lon="15.621500">
<ele>691.5</ele>
<desc>Speed 48.2 km/h Distance 43.43 km</desc>
<time>2012-09-18T16:02:24.80</time>
<name>2197</name>
<sym>Dot</sym>
</trkpt>
<trkpt lat="47.568602" lon="15.621660">
<ele>693.0</ele>
<desc>Speed 45.5 km/h Distance 43.44 km</desc>
<time>2012-09-18T16:02:25.79</time>
<name>2198</name>
<sym>Dot</sym>
</trkpt>
<trkpt lat="47.568633" lon="15.621825">
<ele>691.0</ele>
<desc>Speed 46.4 km/h Distance 43.45 km</desc>
<time>2012-09-18T16:02:26.78</time>
<name>2199</name>
<sym>Dot</sym>
</trkpt>
<trkpt lat="47.568657" lon="15.622002">
<ele>689.5</ele>
<desc>Speed 49.0 km/h Distance 43.47 km</desc>
<time>2012-09-18T16:02:27.78</time>
<name>2200</name>
<sym>Dot</sym>
</trkpt>
<trkpt lat="47.568675" lon="15.622183">
<ele>689.5</ele>
<desc>Speed 50.0 km/h Distance 43.48 km</desc>
<time>2012-09-18T16:02:28.77</time>
<name>2201</name>
<sym>Dot</sym>
</trkpt>
<trkpt lat="47.568698" lon="15.622357">
<ele>689.5</ele>
<desc>Speed 47.9 km/h Distance 43.50 km</desc>
<time>2012-09-18T16:02:29.77</time>
<name>2202</name>
<sym>Dot</sym>
</trkpt>
<trkpt lat="47.568723" lon="15.622522">
<ele>689.0</ele>
<desc>Speed 46.1 km/h Distance 43.51 km</desc>
<time>2012-09-18T16:02:30.76</time>
<name>2203</name>
<sym>Dot</sym>
</trkpt>
<trkpt lat="47.568752" lon="15.622687">
<ele>689.0</ele>
<desc>Speed 46.4 km/h Distance 43.52 km</desc>
<time>2012-09-18T16:02:31.75</time>
<name>2204</name>
<sym>Dot</sym>
</trkpt>
<trkpt lat="47.568790" lon="15.622850">
<ele>688.5</ele>
<desc>Speed 46.4 km/h Distance 43.53 km</desc>
<time>2012-09-18T16:02:32.75</time>
<name>2205</name>
<sym>Dot</sym>
</trkpt>
<trkpt lat="47.568833" lon="15.623010">
<ele>688.5</ele>
<desc>Speed 46.4 km/h Distance 43.55 km</desc>
<time>2012-09-18T16:02:33.75</time>
<name>2206</name>
<sym>Dot</sym>
</trkpt>
<trkpt lat="47.568877" lon="15.623167">
<ele>688.5</ele>
<desc>Speed 45.6 km/h Distance 43.56 km</desc>
<time>2012-09-18T16:02:34.74</time>
<name>2207</name>
<sym>Dot</sym>
</trkpt>
<trkpt lat="47.568922" lon="15.623322">
<ele>688.0</ele>
<desc>Speed 45.8 km/h Distance 43.57 km</desc>
<time>2012-09-18T16:02:35.74</time>
<name>2208</name>
<sym>Dot</sym>
</trkpt>
<trkpt lat="47.568970" lon="15.623480">
<ele>687.5</ele>
<desc>Speed 47.2 km/h Distance 43.59 km</desc>
<time>2012-09-18T16:02:36.73</time>
<name>2209</name>
<sym>Dot</sym>
</trkpt>
<trkpt lat="47.569017" lon="15.623635">
<ele>687.5</ele>
<desc>Speed 46.0 km/h Distance 43.60 km</desc>
<time>2012-09-18T16:02:37.73</time>
<name>2210</name>
<sym>Dot</sym>
</trkpt>
<trkpt lat="47.569062" lon="15.623788">
<ele>687.5</ele>
<desc>Speed 45.0 km/h Distance 43.61 km</desc>
<time>2012-09-18T16:02:38.72</time>
<name>2211</name>
<sym>Dot</sym>
</trkpt>
<trkpt lat="47.569103" lon="15.623940">
<ele>687.5</ele>
<desc>Speed 43.8 km/h Distance 43.62 km</desc>
<time>2012-09-18T16:02:39.72</time>
<name>2212</name>
<sym>Dot</sym>
</trkpt>
<trkpt lat="47.569145" lon="15.624090">
<ele>687.0</ele>
<desc>Speed 43.7 km/h Distance 43.64 km</desc>
<time>2012-09-18T16:02:40.71</time>
<name>2213</name>
<sym>Dot</sym>
</trkpt>
<trkpt lat="47.569188" lon="15.624242">
<ele>687.0</ele>
<desc>Speed 44.4 km/h Distance 43.65 km</desc>
<time>2012-09-18T16:02:41.71</time>
<name>2214</name>
<sym>Dot</sym>
</trkpt>
<trkpt lat="47.569233" lon="15.624395">
<ele>687.5</ele>
<desc>Speed 44.9 km/h Distance 43.66 km</desc>
<time>2012-09-18T16:02:42.70</time>
<name>2215</name>
<sym>Dot</sym>
</trkpt>
<trkpt lat="47.569280" lon="15.624555">
<ele>687.5</ele>
<desc>Speed 46.4 km/h Distance 43.67 km</desc>
<time>2012-09-18T16:02:43.70</time>
<name>2216</name>
<sym>Dot</sym>
</trkpt>
<trkpt lat="47.569333" lon="15.624733">
<ele>688.0</ele>
<desc>Speed 52.1 km/h Distance 43.69 km</desc>
<time>2012-09-18T16:02:44.70</time>
<name>2217</name>
<sym>Dot</sym>
</trkpt>
<trkpt lat="47.569393" lon="15.624928">
<ele>686.5</ele>
<desc>Speed 57.9 km/h Distance 43.70 km</desc>
<time>2012-09-18T16:02:45.70</time>
<name>2218</name>
<sym>Dot</sym>
</trkpt>
<trkpt lat="47.569453" lon="15.625122">
<ele>687.0</ele>
<desc>Speed 57.1 km/h Distance 43.72 km</desc>
<time>2012-09-18T16:02:46.69</time>
<name>2219</name>
<sym>Dot</sym>
</trkpt>
<trkpt lat="47.569510" lon="15.625310">
<ele>687.5</ele>
<desc>Speed 55.7 km/h Distance 43.74 km</desc>
<time>2012-09-18T16:02:47.69</time>
<name>2220</name>
<sym>Dot</sym>
</trkpt>
<trkpt lat="47.569565" lon="15.625488">
<ele>688.0</ele>
<desc>Speed 52.9 km/h Distance 43.75 km</desc>
<time>2012-09-18T16:02:48.68</time>
<name>2221</name>
<sym>Dot</sym>
</trkpt>
<trkpt lat="47.569618" lon="15.625658">
<ele>688.0</ele>
<desc>Speed 50.3 km/h Distance 43.76 km</desc>
<time>2012-09-18T16:02:49.68</time>
<name>2222</name>
<sym>Dot</sym>
</trkpt>
<trkpt lat="47.569670" lon="15.625818">
<ele>688.5</ele>
<desc>Speed 48.2 km/h Distance 43.78 km</desc>
<time>2012-09-18T16:02:50.67</time>
<name>2223</name>
<sym>Dot</sym>
</trkpt>
<trkpt lat="47.569723" lon="15.625972">
<ele>689.0</ele>
<desc>Speed 46.4 km/h Distance 43.79 km</desc>
<time>2012-09-18T16:02:51.67</time>
<name>2224</name>
<sym>Dot</sym>
</trkpt>
<trkpt lat="47.569777" lon="15.626118">
<ele>689.5</ele>
<desc>Speed 44.7 km/h Distance 43.80 km</desc>
<time>2012-09-18T16:02:52.66</time>
<name>2225</name>
<sym>Dot</sym>
</trkpt>
<trkpt lat="47.569828" lon="15.626258">
<ele>690.0</ele>
<desc>Speed 43.1 km/h Distance 43.82 km</desc>
<time>2012-09-18T16:02:53.66</time>
<name>2226</name>
<sym>Dot</sym>
</trkpt>
<trkpt lat="47.569882" lon="15.626397">
<ele>690.5</ele>
<desc>Speed 42.7 km/h Distance 43.83 km</desc>
<time>2012-09-18T16:02:54.65</time>
<name>2227</name>
<sym>Dot</sym>
</trkpt>
<trkpt lat="47.569933" lon="15.626522">
<ele>691.0</ele>
<desc>Speed 39.2 km/h Distance 43.84 km</desc>
<time>2012-09-18T16:02:55.64</time>
<name>2228</name>
<sym>Dot</sym>
</trkpt>
<trkpt lat="47.569982" lon="15.626637">
<ele>692.0</ele>
<desc>Speed 36.6 km/h Distance 43.85 km</desc>
<time>2012-09-18T16:02:56.63</time>
<name>2229</name>
<sym>Dot</sym>
</trkpt>
<trkpt lat="47.570030" lon="15.626745">
<ele>692.5</ele>
<desc>Speed 35.0 km/h Distance 43.86 km</desc>
<time>2012-09-18T16:02:57.63</time>
<name>2230</name>
<sym>Dot</sym>
</trkpt>
<trkpt lat="47.570080" lon="15.626847">
<ele>692.5</ele>
<desc>Speed 33.9 km/h Distance 43.87 km</desc>
<time>2012-09-18T16:02:58.62</time>
<name>2231</name>
<sym>Dot</sym>
</trkpt>
<trkpt lat="47.570137" lon="15.626952">
<ele>692.5</ele>
<desc>Speed 36.4 km/h Distance 43.88 km</desc>
<time>2012-09-18T16:02:59.62</time>
<name>2232</name>
<sym>Dot</sym>
</trkpt>
<trkpt lat="47.570198" lon="15.627075">
<ele>693.0</ele>
<desc>Speed 41.4 km/h Distance 43.89 km</desc>
<time>2012-09-18T16:03:00.61</time>
<name>2233</name>
<sym>Dot</sym>
</trkpt>
<trkpt lat="47.570263" lon="15.627213">
<ele>693.0</ele>
<desc>Speed 45.6 km/h Distance 43.90 km</desc>
<time>2012-09-18T16:03:01.62</time>
<name>2234</name>
<sym>Dot</sym>
</trkpt>
<trkpt lat="47.570330" lon="15.627348">
<ele>693.5</ele>
<desc>Speed 45.1 km/h Distance 43.91 km</desc>
<time>2012-09-18T16:03:02.60</time>
<name>2235</name>
<sym>Dot</sym>
</trkpt>
<trkpt lat="47.570395" lon="15.627482">
<ele>694.0</ele>
<desc>Speed 44.0 km/h Distance 43.93 km</desc>
<time>2012-09-18T16:03:03.59</time>
<name>2236</name>
<sym>Dot</sym>
</trkpt>
<trkpt lat="47.570458" lon="15.627618">
<ele>694.0</ele>
<desc>Speed 44.9 km/h Distance 43.94 km</desc>
<time>2012-09-18T16:03:04.60</time>
<name>2237</name>
<sym>Dot</sym>
</trkpt>
<trkpt lat="47.570522" lon="15.627762">
<ele>694.5</ele>
<desc>Speed 46.0 km/h Distance 43.95 km</desc>
<time>2012-09-18T16:03:05.59</time>
<name>2238</name>
<sym>Dot</sym>
</trkpt>
<trkpt lat="47.570582" lon="15.627905">
<ele>694.5</ele>
<desc>Speed 45.4 km/h Distance 43.96 km</desc>
<time>2012-09-18T16:03:06.58</time>
<name>2239</name>
<sym>Dot</sym>
</trkpt>
<trkpt lat="47.570633" lon="15.628047">
<ele>694.5</ele>
<desc>Speed 43.5 km/h Distance 43.98 km</desc>
<time>2012-09-18T16:03:07.59</time>
<name>2240</name>
<sym>Dot</sym>
</trkpt>
<trkpt lat="47.570680" lon="15.628183">
<ele>694.5</ele>
<desc>Speed 41.6 km/h Distance 43.99 km</desc>
<time>2012-09-18T16:03:08.58</time>
<name>2241</name>
<sym>Dot</sym>
</trkpt>
<trkpt lat="47.570720" lon="15.628317">
<ele>695.0</ele>
<desc>Speed 39.3 km/h Distance 44.00 km</desc>
<time>2012-09-18T16:03:09.58</time>
<name>2242</name>
<sym>Dot</sym>
</trkpt>
<trkpt lat="47.570757" lon="15.628442">
<ele>695.0</ele>
<desc>Speed 37.1 km/h Distance 44.01 km</desc>
<time>2012-09-18T16:03:10.58</time>
<name>2243</name>
<sym>Dot</sym>
</trkpt>
<trkpt lat="47.570793" lon="15.628560">
<ele>695.0</ele>
<desc>Speed 35.1 km/h Distance 44.02 km</desc>
<time>2012-09-18T16:03:11.57</time>
<name>2244</name>
<sym>Dot</sym>
</trkpt>
<trkpt lat="47.570827" lon="15.628672">
<ele>694.5</ele>
<desc>Speed 33.2 km/h Distance 44.03 km</desc>
<time>2012-09-18T16:03:12.56</time>
<name>2245</name>
<sym>Dot</sym>
</trkpt>
<trkpt lat="47.570857" lon="15.628782">
<ele>694.5</ele>
<desc>Speed 31.7 km/h Distance 44.04 km</desc>
<time>2012-09-18T16:03:13.56</time>
<name>2246</name>
<sym>Dot</sym>
</trkpt>
<trkpt lat="47.570883" lon="15.628887">
<ele>694.5</ele>
<desc>Speed 30.5 km/h Distance 44.05 km</desc>
<time>2012-09-18T16:03:14.57</time>
<name>2247</name>
<sym>Dot</sym>
</trkpt>
<trkpt lat="47.570913" lon="15.628985">
<ele>694.5</ele>
<desc>Speed 28.9 km/h Distance 44.05 km</desc>
<time>2012-09-18T16:03:15.55</time>
<name>2248</name>
<sym>Dot</sym>
</trkpt>
<trkpt lat="47.570943" lon="15.629078">
<ele>694.5</ele>
<desc>Speed 27.7 km/h Distance 44.06 km</desc>
<time>2012-09-18T16:03:16.54</time>
<name>2249</name>
<sym>Dot</sym>
</trkpt>
<trkpt lat="47.570973" lon="15.629165">
<ele>694.5</ele>
<desc>Speed 26.1 km/h Distance 44.07 km</desc>
<time>2012-09-18T16:03:17.54</time>
<name>2250</name>
<sym>Dot</sym>
</trkpt>
<trkpt lat="47.571002" lon="15.629248">
<ele>694.5</ele>
<desc>Speed 25.7 km/h Distance 44.08 km</desc>
<time>2012-09-18T16:03:18.53</time>
<name>2251</name>
<sym>Dot</sym>
</trkpt>
<trkpt lat="47.571027" lon="15.629343">
<ele>694.5</ele>
<desc>Speed 27.4 km/h Distance 44.08 km</desc>
<time>2012-09-18T16:03:19.53</time>
<name>2252</name>
<sym>Dot</sym>
</trkpt>
<trkpt lat="47.571052" lon="15.629443">
<ele>693.5</ele>
<desc>Speed 29.5 km/h Distance 44.09 km</desc>
<time>2012-09-18T16:03:20.52</time>
<name>2253</name>
<sym>Dot</sym>
</trkpt>
<trkpt lat="47.571082" lon="15.629562">
<ele>693.5</ele>
<desc>Speed 33.8 km/h Distance 44.10 km</desc>
<time>2012-09-18T16:03:21.52</time>
<name>2254</name>
<sym>Dot</sym>
</trkpt>
<trkpt lat="47.571113" lon="15.629690">
<ele>693.5</ele>
<desc>Speed 37.0 km/h Distance 44.11 km</desc>
<time>2012-09-18T16:03:22.51</time>
<name>2255</name>
<sym>Dot</sym>
</trkpt>
<trkpt lat="47.571153" lon="15.629837">
<ele>693.5</ele>
<desc>Speed 42.5 km/h Distance 44.12 km</desc>
<time>2012-09-18T16:03:23.51</time>
<name>2256</name>
<sym>Dot</sym>
</trkpt>
<trkpt lat="47.571203" lon="15.629998">
<ele>694.5</ele>
<desc>Speed 48.1 km/h Distance 44.14 km</desc>
<time>2012-09-18T16:03:24.51</time>
<name>2257</name>
<sym>Dot</sym>
</trkpt>
<trkpt lat="47.571258" lon="15.630175">
<ele>694.5</ele>
<desc>Speed 52.2 km/h Distance 44.15 km</desc>
<time>2012-09-18T16:03:25.50</time>
<name>2258</name>
<sym>Dot</sym>
</trkpt>
<trkpt lat="47.571310" lon="15.630357">
<ele>694.5</ele>
<desc>Speed 52.8 km/h Distance 44.17 km</desc>
<time>2012-09-18T16:03:26.50</time>
<name>2259</name>
<sym>Dot</sym>
</trkpt>
<trkpt lat="47.571362" lon="15.630533">
<ele>695.0</ele>
<desc>Speed 52.1 km/h Distance 44.18 km</desc>
<time>2012-09-18T16:03:27.49</time>
<name>2260</name>
<sym>Dot</sym>
</trkpt>
<trkpt lat="47.571413" lon="15.630705">
<ele>694.5</ele>
<desc>Speed 50.5 km/h Distance 44.19 km</desc>
<time>2012-09-18T16:03:28.49</time>
<name>2261</name>
<sym>Dot</sym>
</trkpt>
<trkpt lat="47.571465" lon="15.630877">
<ele>694.5</ele>
<desc>Speed 50.6 km/h Distance 44.21 km</desc>
<time>2012-09-18T16:03:29.49</time>
<name>2262</name>
<sym>Dot</sym>
</trkpt>
<trkpt lat="47.571522" lon="15.631067">
<ele>694.5</ele>
<desc>Speed 56.4 km/h Distance 44.22 km</desc>
<time>2012-09-18T16:03:30.49</time>
<name>2263</name>
<sym>Dot</sym>
</trkpt>
<trkpt lat="47.571578" lon="15.631262">
<ele>694.5</ele>
<desc>Speed 57.2 km/h Distance 44.24 km</desc>
<time>2012-09-18T16:03:31.48</time>
<name>2264</name>
<sym>Dot</sym>
</trkpt>
<trkpt lat="47.571633" lon="15.631452">
<ele>694.5</ele>
<desc>Speed 55.7 km/h Distance 44.26 km</desc>
<time>2012-09-18T16:03:32.48</time>
<name>2265</name>
<sym>Dot</sym>
</trkpt>
<trkpt lat="47.571687" lon="15.631632">
<ele>694.0</ele>
<desc>Speed 52.8 km/h Distance 44.27 km</desc>
<time>2012-09-18T16:03:33.48</time>
<name>2266</name>
<sym>Dot</sym>
</trkpt>
<trkpt lat="47.571738" lon="15.631803">
<ele>694.0</ele>
<desc>Speed 50.5 km/h Distance 44.28 km</desc>
<time>2012-09-18T16:03:34.47</time>
<name>2267</name>
<sym>Dot</sym>
</trkpt>
<trkpt lat="47.571787" lon="15.631968">
<ele>694.0</ele>
<desc>Speed 48.7 km/h Distance 44.30 km</desc>
<time>2012-09-18T16:03:35.46</time>
<name>2268</name>
<sym>Dot</sym>
</trkpt>
<trkpt lat="47.571835" lon="15.632138">
<ele>694.0</ele>
<desc>Speed 49.7 km/h Distance 44.31 km</desc>
<time>2012-09-18T16:03:36.46</time>
<name>2269</name>
<sym>Dot</sym>
</trkpt>
<trkpt lat="47.571883" lon="15.632310">
<ele>694.0</ele>
<desc>Speed 49.6 km/h Distance 44.33 km</desc>
<time>2012-09-18T16:03:37.45</time>
<name>2270</name>
<sym>Dot</sym>
</trkpt>
<trkpt lat="47.571930" lon="15.632472">
<ele>693.5</ele>
<desc>Speed 47.7 km/h Distance 44.34 km</desc>
<time>2012-09-18T16:03:38.45</time>
<name>2271</name>
<sym>Dot</sym>
</trkpt>
<trkpt lat="47.571978" lon="15.632633">
<ele>693.5</ele>
<desc>Speed 47.3 km/h Distance 44.35 km</desc>
<time>2012-09-18T16:03:39.45</time>
<name>2272</name>
<sym>Dot</sym>
</trkpt>
<trkpt lat="47.572028" lon="15.632793">
<ele>693.5</ele>
<desc>Speed 47.4 km/h Distance 44.37 km</desc>
<time>2012-09-18T16:03:40.44</time>
<name>2273</name>
<sym>Dot</sym>
</trkpt>
<trkpt lat="47.572087" lon="15.632943">
<ele>694.5</ele>
<desc>Speed 47.0 km/h Distance 44.38 km</desc>
<time>2012-09-18T16:03:41.43</time>
<name>2274</name>
<sym>Dot</sym>
</trkpt>
<trkpt lat="47.572162" lon="15.633090">
<ele>695.0</ele>
<desc>Speed 49.2 km/h Distance 44.39 km</desc>
<time>2012-09-18T16:03:42.43</time>
<name>2275</name>
<sym>Dot</sym>
</trkpt>
<trkpt lat="47.572248" lon="15.633237">
<ele>696.5</ele>
<desc>Speed 52.7 km/h Distance 44.41 km</desc>
<time>2012-09-18T16:03:43.44</time>
<name>2276</name>
<sym>Dot</sym>
</trkpt>
<trkpt lat="47.572350" lon="15.633375">
<ele>696.5</ele>
<desc>Speed 54.8 km/h Distance 44.42 km</desc>
<time>2012-09-18T16:03:44.43</time>
<name>2277</name>
<sym>Dot</sym>
</trkpt>
<trkpt lat="47.572455" lon="15.633515">
<ele>696.0</ele>
<desc>Speed 56.3 km/h Distance 44.44 km</desc>
<time>2012-09-18T16:03:45.43</time>
<name>2278</name>
<sym>Dot</sym>
</trkpt>
<trkpt lat="47.572557" lon="15.633652">
<ele>696.0</ele>
<desc>Speed 54.5 km/h Distance 44.45 km</desc>
<time>2012-09-18T16:03:46.42</time>
<name>2279</name>
<sym>Dot</sym>
</trkpt>
<trkpt lat="47.572652" lon="15.633782">
<ele>695.5</ele>
<desc>Speed 51.8 km/h Distance 44.47 km</desc>
<time>2012-09-18T16:03:47.42</time>
<name>2280</name>
<sym>Dot</sym>
</trkpt>
<trkpt lat="47.572743" lon="15.633907">
<ele>695.5</ele>
<desc>Speed 49.6 km/h Distance 44.48 km</desc>
<time>2012-09-18T16:03:48.41</time>
<name>2281</name>
<sym>Dot</sym>
</trkpt>
<trkpt lat="47.572830" lon="15.634025">
<ele>695.5</ele>
<desc>Speed 47.4 km/h Distance 44.49 km</desc>
<time>2012-09-18T16:03:49.39</time>
<name>2282</name>
<sym>Dot</sym>
</trkpt>
<trkpt lat="47.572915" lon="15.634143">
<ele>695.5</ele>
<desc>Speed 46.3 km/h Distance 44.51 km</desc>
<time>2012-09-18T16:03:50.38</time>
<name>2283</name>
<sym>Dot</sym>
</trkpt>
<trkpt lat="47.573002" lon="15.634263">
<ele>695.0</ele>
<desc>Speed 47.6 km/h Distance 44.52 km</desc>
<time>2012-09-18T16:03:51.37</time>
<name>2284</name>
<sym>Dot</sym>
</trkpt>
<trkpt lat="47.573088" lon="15.634385">
<ele>695.0</ele>
<desc>Speed 48.1 km/h Distance 44.53 km</desc>
<time>2012-09-18T16:03:52.36</time>
<name>2285</name>
<sym>Dot</sym>
</trkpt>
<trkpt lat="47.573182" lon="15.634510">
<ele>694.5</ele>
<desc>Speed 50.0 km/h Distance 44.55 km</desc>
<time>2012-09-18T16:03:53.36</time>
<name>2286</name>
<sym>Dot</sym>
</trkpt>
<trkpt lat="47.573285" lon="15.634652">
<ele>694.0</ele>
<desc>Speed 56.8 km/h Distance 44.56 km</desc>
<time>2012-09-18T16:03:54.35</time>
<name>2287</name>
<sym>Dot</sym>
</trkpt>
<trkpt lat="47.573390" lon="15.634798">
<ele>693.5</ele>
<desc>Speed 57.9 km/h Distance 44.58 km</desc>
<time>2012-09-18T16:03:55.35</time>
<name>2288</name>
<sym>Dot</sym>
</trkpt>
<trkpt lat="47.573490" lon="15.634940">
<ele>693.0</ele>
<desc>Speed 55.7 km/h Distance 44.60 km</desc>
<time>2012-09-18T16:03:56.34</time>
<name>2289</name>
<sym>Dot</sym>
</trkpt>
<trkpt lat="47.573587" lon="15.635075">
<ele>693.0</ele>
<desc>Speed 53.3 km/h Distance 44.61 km</desc>
<time>2012-09-18T16:03:57.34</time>
<name>2290</name>
<sym>Dot</sym>
</trkpt>
<trkpt lat="47.573680" lon="15.635203">
<ele>693.0</ele>
<desc>Speed 51.1 km/h Distance 44.62 km</desc>
<time>2012-09-18T16:03:58.33</time>
<name>2291</name>
<sym>Dot</sym>
</trkpt>
<trkpt lat="47.573770" lon="15.635327">
<ele>692.5</ele>
<desc>Speed 49.1 km/h Distance 44.64 km</desc>
<time>2012-09-18T16:03:59.33</time>
<name>2292</name>
<sym>Dot</sym>
</trkpt>
<trkpt lat="47.573857" lon="15.635445">
<ele>692.5</ele>
<desc>Speed 46.9 km/h Distance 44.65 km</desc>
<time>2012-09-18T16:04:00.33</time>
<name>2293</name>
<sym>Dot</sym>
</trkpt>
<trkpt lat="47.574032" lon="15.635680">
<ele>692.5</ele>
<desc>Speed 48.5 km/h Distance 44.68 km</desc>
<time>2012-09-18T16:04:02.34</time>
<name>2294</name>
<sym>Dot</sym>
</trkpt>
<trkpt lat="47.574117" lon="15.635797">
<ele>692.5</ele>
<desc>Speed 46.5 km/h Distance 44.69 km</desc>
<time>2012-09-18T16:04:03.34</time>
<name>2295</name>
<sym>Dot</sym>
</trkpt>
<trkpt lat="47.574197" lon="15.635908">
<ele>692.5</ele>
<desc>Speed 44.2 km/h Distance 44.70 km</desc>
<time>2012-09-18T16:04:04.33</time>
<name>2296</name>
<sym>Dot</sym>
</trkpt>
<trkpt lat="47.574273" lon="15.636017">
<ele>693.0</ele>
<desc>Speed 41.9 km/h Distance 44.71 km</desc>
<time>2012-09-18T16:04:05.33</time>
<name>2297</name>
<sym>Dot</sym>
</trkpt>
<trkpt lat="47.574345" lon="15.636120">
<ele>693.0</ele>
<desc>Speed 40.1 km/h Distance 44.73 km</desc>
<time>2012-09-18T16:04:06.31</time>
<name>2298</name>
<sym>Dot</sym>
</trkpt>
<trkpt lat="47.574418" lon="15.636222">
<ele>693.0</ele>
<desc>Speed 40.2 km/h Distance 44.74 km</desc>
<time>2012-09-18T16:04:07.32</time>
<name>2299</name>
<sym>Dot</sym>
</trkpt>
<trkpt lat="47.574492" lon="15.636323">
<ele>693.0</ele>
<desc>Speed 40.2 km/h Distance 44.75 km</desc>
<time>2012-09-18T16:04:08.30</time>
<name>2300</name>
<sym>Dot</sym>
</trkpt>
<trkpt lat="47.574562" lon="15.636420">
<ele>693.0</ele>
<desc>Speed 38.2 km/h Distance 44.76 km</desc>
<time>2012-09-18T16:04:09.30</time>
<name>2301</name>
<sym>Dot</sym>
</trkpt>
<trkpt lat="47.574627" lon="15.636512">
<ele>693.0</ele>
<desc>Speed 36.3 km/h Distance 44.77 km</desc>
<time>2012-09-18T16:04:10.30</time>
<name>2302</name>
<sym>Dot</sym>
</trkpt>
<trkpt lat="47.574688" lon="15.636600">
<ele>693.5</ele>
<desc>Speed 34.1 km/h Distance 44.78 km</desc>
<time>2012-09-18T16:04:11.32</time>
<name>2303</name>
<sym>Dot</sym>
</trkpt>
<trkpt lat="47.574747" lon="15.636680">
<ele>693.5</ele>
<desc>Speed 31.6 km/h Distance 44.79 km</desc>
<time>2012-09-18T16:04:12.28</time>
<name>2304</name>
<sym>Dot</sym>
</trkpt>
<trkpt lat="47.574807" lon="15.636763">
<ele>693.5</ele>
<desc>Speed 32.6 km/h Distance 44.80 km</desc>
<time>2012-09-18T16:04:13.28</time>
<name>2305</name>
<sym>Dot</sym>
</trkpt>
<trkpt lat="47.574873" lon="15.636857">
<ele>693.5</ele>
<desc>Speed 36.9 km/h Distance 44.81 km</desc>
<time>2012-09-18T16:04:14.28</time>
<name>2306</name>
<sym>Dot</sym>
</trkpt>
<trkpt lat="47.574948" lon="15.636960">
<ele>694.0</ele>
<desc>Speed 41.0 km/h Distance 44.82 km</desc>
<time>2012-09-18T16:04:15.27</time>
<name>2307</name>
<sym>Dot</sym>
</trkpt>
<trkpt lat="47.575025" lon="15.637068">
<ele>694.0</ele>
<desc>Speed 41.9 km/h Distance 44.83 km</desc>
<time>2012-09-18T16:04:16.27</time>
<name>2308</name>
<sym>Dot</sym>
</trkpt>
<trkpt lat="47.575102" lon="15.637177">
<ele>694.0</ele>
<desc>Speed 42.0 km/h Distance 44.84 km</desc>
<time>2012-09-18T16:04:17.26</time>
<name>2309</name>
<sym>Dot</sym>
</trkpt>
<trkpt lat="47.575178" lon="15.637283">
<ele>694.0</ele>
<desc>Speed 41.8 km/h Distance 44.85 km</desc>
<time>2012-09-18T16:04:18.26</time>
<name>2310</name>
<sym>Dot</sym>
</trkpt>
<trkpt lat="47.575255" lon="15.637388">
<ele>694.0</ele>
<desc>Speed 41.6 km/h Distance 44.86 km</desc>
<time>2012-09-18T16:04:19.26</time>
<name>2311</name>
<sym>Dot</sym>
</trkpt>
<trkpt lat="47.575333" lon="15.637495">
<ele>694.0</ele>
<desc>Speed 42.6 km/h Distance 44.88 km</desc>
<time>2012-09-18T16:04:20.25</time>
<name>2312</name>
<sym>Dot</sym>
</trkpt>
<trkpt lat="47.575417" lon="15.637607">
<ele>694.5</ele>
<desc>Speed 45.2 km/h Distance 44.89 km</desc>
<time>2012-09-18T16:04:21.24</time>
<name>2313</name>
<sym>Dot</sym>
</trkpt>
<trkpt lat="47.575498" lon="15.637718">
<ele>694.5</ele>
<desc>Speed 44.3 km/h Distance 44.90 km</desc>
<time>2012-09-18T16:04:22.24</time>
<name>2314</name>
<sym>Dot</sym>
</trkpt>
<trkpt lat="47.575573" lon="15.637818">
<ele>694.5</ele>
<desc>Speed 40.5 km/h Distance 44.91 km</desc>
<time>2012-09-18T16:04:23.24</time>
<name>2315</name>
<sym>Dot</sym>
</trkpt>
<trkpt lat="47.575642" lon="15.637912">
<ele>694.5</ele>
<desc>Speed 37.3 km/h Distance 44.92 km</desc>
<time>2012-09-18T16:04:24.23</time>
<name>2316</name>
<sym>Dot</sym>
</trkpt>
<trkpt lat="47.575707" lon="15.638002">
<ele>694.5</ele>
<desc>Speed 35.3 km/h Distance 44.93 km</desc>
<time>2012-09-18T16:04:25.23</time>
<name>2317</name>
<sym>Dot</sym>
</trkpt>
<trkpt lat="47.575765" lon="15.638090">
<ele>694.0</ele>
<desc>Speed 33.2 km/h Distance 44.94 km</desc>
<time>2012-09-18T16:04:26.22</time>
<name>2318</name>
<sym>Dot</sym>
</trkpt>
<trkpt lat="47.575810" lon="15.638182">
<ele>694.5</ele>
<desc>Speed 30.3 km/h Distance 44.95 km</desc>
<time>2012-09-18T16:04:27.21</time>
<name>2319</name>
<sym>Dot</sym>
</trkpt>
<trkpt lat="47.575835" lon="15.638277">
<ele>694.0</ele>
<desc>Speed 27.0 km/h Distance 44.96 km</desc>
<time>2012-09-18T16:04:28.21</time>
<name>2320</name>
<sym>Dot</sym>
</trkpt>
<trkpt lat="47.575842" lon="15.638367">
<ele>694.0</ele>
<desc>Speed 24.6 km/h Distance 44.97 km</desc>
<time>2012-09-18T16:04:29.21</time>
<name>2321</name>
<sym>Dot</sym>
</trkpt>
<trkpt lat="47.575832" lon="15.638448">
<ele>694.5</ele>
<desc>Speed 22.1 km/h Distance 44.97 km</desc>
<time>2012-09-18T16:04:30.20</time>
<name>2322</name>
<sym>Dot</sym>
</trkpt>
<trkpt lat="47.575817" lon="15.638515">
<ele>694.0</ele>
<desc>Speed 18.9 km/h Distance 44.98 km</desc>
<time>2012-09-18T16:04:31.20</time>
<name>2323</name>
<sym>Dot</sym>
</trkpt>
<trkpt lat="47.575802" lon="15.638567">
<ele>694.0</ele>
<desc>Speed 14.9 km/h Distance 44.98 km</desc>
<time>2012-09-18T16:04:32.20</time>
<name>2324</name>
<sym>Dot</sym>
</trkpt>
<trkpt lat="47.575788" lon="15.638605">
<ele>694.0</ele>
<desc>Speed 11.5 km/h Distance 44.98 km</desc>
<time>2012-09-18T16:04:33.20</time>
<name>2325</name>
<sym>Dot</sym>
</trkpt>
<trkpt lat="47.575778" lon="15.638642">
<ele>694.0</ele>
<desc>Speed 10.3 km/h Distance 44.99 km</desc>
<time>2012-09-18T16:04:34.19</time>
<name>2326</name>
<sym>Dot</sym>
</trkpt>
<trkpt lat="47.575770" lon="15.638672">
<ele>694.5</ele>
<desc>Speed 8.9 km/h Distance 44.99 km</desc>
<time>2012-09-18T16:04:35.20</time>
<name>2327</name>
<sym>Dot</sym>
</trkpt>
<trkpt lat="47.575765" lon="15.638698">
<ele>694.5</ele>
<desc>Speed 7.4 km/h Distance 44.99 km</desc>
<time>2012-09-18T16:04:36.20</time>
<name>2328</name>
<sym>Dot</sym>
</trkpt>
<trkpt lat="47.575763" lon="15.638730">
<ele>694.5</ele>
<desc>Speed 8.1 km/h Distance 44.99 km</desc>
<time>2012-09-18T16:04:37.19</time>
<name>2329</name>
<sym>Dot</sym>
</trkpt>
<trkpt lat="47.575768" lon="15.638775">
<ele>694.5</ele>
<desc>Speed 12.4 km/h Distance 45.00 km</desc>
<time>2012-09-18T16:04:38.19</time>
<name>2330</name>
<sym>Dot</sym>
</trkpt>
<trkpt lat="47.575785" lon="15.638838">
<ele>694.5</ele>
<desc>Speed 18.3 km/h Distance 45.00 km</desc>
<time>2012-09-18T16:04:39.19</time>
<name>2331</name>
<sym>Dot</sym>
</trkpt>
<trkpt lat="47.575815" lon="15.638898">
<ele>694.5</ele>
<desc>Speed 19.7 km/h Distance 45.01 km</desc>
<time>2012-09-18T16:04:40.19</time>
<name>2332</name>
<sym>Dot</sym>
</trkpt>
<trkpt lat="47.575865" lon="15.638962">
<ele>694.5</ele>
<desc>Speed 26.1 km/h Distance 45.02 km</desc>
<time>2012-09-18T16:04:41.19</time>
<name>2333</name>
<sym>Dot</sym>
</trkpt>
<trkpt lat="47.576148" lon="15.639187">
<ele>695.0</ele>
<desc>Speed 46.8 km/h Distance 45.05 km</desc>
<time>2012-09-18T16:04:45.27</time>
<name>2334</name>
<sym>Dot</sym>
</trkpt>
<trkpt lat="47.576720" lon="15.639672">
<ele>695.5</ele>
<desc>Speed 70.1 km/h Distance 45.12 km</desc>
<time>2012-09-18T16:04:49.28</time>
<name>2335</name>
<sym>Dot</sym>
</trkpt>
<trkpt lat="47.576878" lon="15.639832">
<ele>695.5</ele>
<desc>Speed 76.0 km/h Distance 45.15 km</desc>
<time>2012-09-18T16:04:50.27</time>
<name>2336</name>
<sym>Dot</sym>
</trkpt>
<trkpt lat="47.577047" lon="15.640008">
<ele>695.5</ele>
<desc>Speed 82.3 km/h Distance 45.17 km</desc>
<time>2012-09-18T16:04:51.27</time>
<name>2337</name>
<sym>Dot</sym>
</trkpt>
<trkpt lat="47.577210" lon="15.640190">
<ele>695.5</ele>
<desc>Speed 81.4 km/h Distance 45.19 km</desc>
<time>2012-09-18T16:04:52.28</time>
<name>2338</name>
<sym>Dot</sym>
</trkpt>
<trkpt lat="47.577360" lon="15.640365">
<ele>695.5</ele>
<desc>Speed 76.5 km/h Distance 45.21 km</desc>
<time>2012-09-18T16:04:53.24</time>
<name>2339</name>
<sym>Dot</sym>
</trkpt>
<trkpt lat="47.577498" lon="15.640537">
<ele>695.5</ele>
<desc>Speed 72.1 km/h Distance 45.23 km</desc>
<time>2012-09-18T16:04:54.23</time>
<name>2340</name>
<sym>Dot</sym>
</trkpt>
<trkpt lat="47.577627" lon="15.640702">
<ele>695.5</ele>
<desc>Speed 67.9 km/h Distance 45.25 km</desc>
<time>2012-09-18T16:04:55.23</time>
<name>2341</name>
<sym>Dot</sym>
</trkpt>
<trkpt lat="47.577742" lon="15.640853">
<ele>695.5</ele>
<desc>Speed 61.3 km/h Distance 45.27 km</desc>
<time>2012-09-18T16:04:56.22</time>
<name>2342</name>
<sym>Dot</sym>
</trkpt>
<trkpt lat="47.577915" lon="15.641102">
<ele>695.0</ele>
<desc>Speed 48.6 km/h Distance 45.30 km</desc>
<time>2012-09-18T16:04:58.22</time>
<name>2343</name>
<sym>Dot</sym>
</trkpt>
<trkpt lat="47.578005" lon="15.641225">
<ele>695.0</ele>
<desc>Speed 48.7 km/h Distance 45.31 km</desc>
<time>2012-09-18T16:04:59.21</time>
<name>2344</name>
<sym>Dot</sym>
</trkpt>
<trkpt lat="47.578097" lon="15.641348">
<ele>695.0</ele>
<desc>Speed 48.9 km/h Distance 45.32 km</desc>
<time>2012-09-18T16:05:00.21</time>
<name>2345</name>
<sym>Dot</sym>
</trkpt>
<trkpt lat="47.578187" lon="15.641470">
<ele>695.0</ele>
<desc>Speed 49.0 km/h Distance 45.34 km</desc>
<time>2012-09-18T16:05:01.20</time>
<name>2346</name>
<sym>Dot</sym>
</trkpt>
<trkpt lat="47.578280" lon="15.641597">
<ele>695.0</ele>
<desc>Speed 50.3 km/h Distance 45.35 km</desc>
<time>2012-09-18T16:05:02.19</time>
<name>2347</name>
<sym>Dot</sym>
</trkpt>
<trkpt lat="47.578375" lon="15.641728">
<ele>695.0</ele>
<desc>Speed 51.8 km/h Distance 45.37 km</desc>
<time>2012-09-18T16:05:03.19</time>
<name>2348</name>
<sym>Dot</sym>
</trkpt>
<trkpt lat="47.578468" lon="15.641855">
<ele>695.0</ele>
<desc>Speed 50.8 km/h Distance 45.38 km</desc>
<time>2012-09-18T16:05:04.18</time>
<name>2349</name>
<sym>Dot</sym>
</trkpt>
<trkpt lat="47.578560" lon="15.641983">
<ele>695.5</ele>
<desc>Speed 50.4 km/h Distance 45.39 km</desc>
<time>2012-09-18T16:05:05.17</time>
<name>2350</name>
<sym>Dot</sym>
</trkpt>
<trkpt lat="47.578660" lon="15.642122">
<ele>695.5</ele>
<desc>Speed 54.8 km/h Distance 45.41 km</desc>
<time>2012-09-18T16:05:06.17</time>
<name>2351</name>
<sym>Dot</sym>
</trkpt>
<trkpt lat="47.578768" lon="15.642270">
<ele>695.5</ele>
<desc>Speed 58.8 km/h Distance 45.43 km</desc>
<time>2012-09-18T16:05:07.16</time>
<name>2352</name>
<sym>Dot</sym>
</trkpt>
<trkpt lat="47.578873" lon="15.642420">
<ele>696.0</ele>
<desc>Speed 58.0 km/h Distance 45.44 km</desc>
<time>2012-09-18T16:05:08.17</time>
<name>2353</name>
<sym>Dot</sym>
</trkpt>
<trkpt lat="47.578973" lon="15.642562">
<ele>696.0</ele>
<desc>Speed 55.7 km/h Distance 45.46 km</desc>
<time>2012-09-18T16:05:09.15</time>
<name>2354</name>
<sym>Dot</sym>
</trkpt>
<trkpt lat="47.579070" lon="15.642703">
<ele>696.5</ele>
<desc>Speed 54.2 km/h Distance 45.47 km</desc>
<time>2012-09-18T16:05:10.15</time>
<name>2355</name>
<sym>Dot</sym>
</trkpt>
<trkpt lat="47.579167" lon="15.642840">
<ele>696.5</ele>
<desc>Speed 53.6 km/h Distance 45.49 km</desc>
<time>2012-09-18T16:05:11.16</time>
<name>2356</name>
<sym>Dot</sym>
</trkpt>
<trkpt lat="47.579265" lon="15.642975">
<ele>697.0</ele>
<desc>Speed 53.3 km/h Distance 45.50 km</desc>
<time>2012-09-18T16:05:12.15</time>
<name>2357</name>
<sym>Dot</sym>
</trkpt>
<trkpt lat="47.579362" lon="15.643108">
<ele>697.0</ele>
<desc>Speed 52.7 km/h Distance 45.52 km</desc>
<time>2012-09-18T16:05:13.15</time>
<name>2358</name>
<sym>Dot</sym>
</trkpt>
<trkpt lat="47.579457" lon="15.643240">
<ele>697.5</ele>
<desc>Speed 52.3 km/h Distance 45.53 km</desc>
<time>2012-09-18T16:05:14.15</time>
<name>2359</name>
<sym>Dot</sym>
</trkpt>
<trkpt lat="47.579552" lon="15.643370">
<ele>697.5</ele>
<desc>Speed 51.7 km/h Distance 45.55 km</desc>
<time>2012-09-18T16:05:15.15</time>
<name>2360</name>
<sym>Dot</sym>
</trkpt>
<trkpt lat="47.579647" lon="15.643497">
<ele>698.0</ele>
<desc>Speed 51.3 km/h Distance 45.56 km</desc>
<time>2012-09-18T16:05:16.14</time>
<name>2361</name>
<sym>Dot</sym>
</trkpt>
<trkpt lat="47.579740" lon="15.643625">
<ele>698.0</ele>
<desc>Speed 50.5 km/h Distance 45.57 km</desc>
<time>2012-09-18T16:05:17.14</time>
<name>2362</name>
<sym>Dot</sym>
</trkpt>
<trkpt lat="47.579832" lon="15.643753">
<ele>698.5</ele>
<desc>Speed 50.4 km/h Distance 45.59 km</desc>
<time>2012-09-18T16:05:18.13</time>
<name>2363</name>
<sym>Dot</sym>
</trkpt>
<trkpt lat="47.579923" lon="15.643877">
<ele>698.5</ele>
<desc>Speed 49.7 km/h Distance 45.60 km</desc>
<time>2012-09-18T16:05:19.13</time>
<name>2364</name>
<sym>Dot</sym>
</trkpt>
<trkpt lat="47.580015" lon="15.644002">
<ele>699.0</ele>
<desc>Speed 50.0 km/h Distance 45.62 km</desc>
<time>2012-09-18T16:05:20.12</time>
<name>2365</name>
<sym>Dot</sym>
</trkpt>
<trkpt lat="47.580110" lon="15.644132">
<ele>699.0</ele>
<desc>Speed 51.5 km/h Distance 45.63 km</desc>
<time>2012-09-18T16:05:21.12</time>
<name>2366</name>
<sym>Dot</sym>
</trkpt>
<trkpt lat="47.580210" lon="15.644263">
<ele>699.0</ele>
<desc>Speed 53.0 km/h Distance 45.64 km</desc>
<time>2012-09-18T16:05:22.11</time>
<name>2367</name>
<sym>Dot</sym>
</trkpt>
<trkpt lat="47.580312" lon="15.644402">
<ele>699.5</ele>
<desc>Speed 55.2 km/h Distance 45.66 km</desc>
<time>2012-09-18T16:05:23.11</time>
<name>2368</name>
<sym>Dot</sym>
</trkpt>
<trkpt lat="47.580415" lon="15.644547">
<ele>699.5</ele>
<desc>Speed 57.0 km/h Distance 45.68 km</desc>
<time>2012-09-18T16:05:24.10</time>
<name>2369</name>
<sym>Dot</sym>
</trkpt>
<trkpt lat="47.580515" lon="15.644683">
<ele>699.5</ele>
<desc>Speed 54.4 km/h Distance 45.69 km</desc>
<time>2012-09-18T16:05:25.10</time>
<name>2370</name>
<sym>Dot</sym>
</trkpt>
<trkpt lat="47.580612" lon="15.644817">
<ele>699.5</ele>
<desc>Speed 52.4 km/h Distance 45.71 km</desc>
<time>2012-09-18T16:05:26.09</time>
<name>2371</name>
<sym>Dot</sym>
</trkpt>
<trkpt lat="47.580705" lon="15.644948">
<ele>699.5</ele>
<desc>Speed 51.8 km/h Distance 45.72 km</desc>
<time>2012-09-18T16:05:27.08</time>
<name>2372</name>
<sym>Dot</sym>
</trkpt>
<trkpt lat="47.580798" lon="15.645083">
<ele>699.5</ele>
<desc>Speed 52.1 km/h Distance 45.73 km</desc>
<time>2012-09-18T16:05:28.08</time>
<name>2373</name>
<sym>Dot</sym>
</trkpt>
<trkpt lat="47.580888" lon="15.645222">
<ele>699.5</ele>
<desc>Speed 51.8 km/h Distance 45.75 km</desc>
<time>2012-09-18T16:05:29.08</time>
<name>2374</name>
<sym>Dot</sym>
</trkpt>
<trkpt lat="47.580977" lon="15.645360">
<ele>700.0</ele>
<desc>Speed 51.7 km/h Distance 45.76 km</desc>
<time>2012-09-18T16:05:30.07</time>
<name>2375</name>
<sym>Dot</sym>
</trkpt>
<trkpt lat="47.581065" lon="15.645500">
<ele>699.5</ele>
<desc>Speed 51.4 km/h Distance 45.78 km</desc>
<time>2012-09-18T16:05:31.06</time>
<name>2376</name>
<sym>Dot</sym>
</trkpt>
<trkpt lat="47.581150" lon="15.645642">
<ele>699.5</ele>
<desc>Speed 51.0 km/h Distance 45.79 km</desc>
<time>2012-09-18T16:05:32.06</time>
<name>2377</name>
<sym>Dot</sym>
</trkpt>
<trkpt lat="47.581235" lon="15.645790">
<ele>700.0</ele>
<desc>Speed 52.2 km/h Distance 45.81 km</desc>
<time>2012-09-18T16:05:33.07</time>
<name>2378</name>
<sym>Dot</sym>
</trkpt>
<trkpt lat="47.581322" lon="15.645955">
<ele>700.0</ele>
<desc>Speed 56.4 km/h Distance 45.82 km</desc>
<time>2012-09-18T16:05:34.06</time>
<name>2379</name>
<sym>Dot</sym>
</trkpt>
<trkpt lat="47.581405" lon="15.646102">
<ele>700.0</ele>
<desc>Speed 51.8 km/h Distance 45.84 km</desc>
<time>2012-09-18T16:05:35.06</time>
<name>2380</name>
<sym>Dot</sym>
</trkpt>
<trkpt lat="47.581480" lon="15.646242">
<ele>701.0</ele>
<desc>Speed 48.5 km/h Distance 45.85 km</desc>
<time>2012-09-18T16:05:36.04</time>
<name>2381</name>
<sym>Dot</sym>
</trkpt>
<trkpt lat="47.581550" lon="15.646372">
<ele>702.0</ele>
<desc>Speed 44.6 km/h Distance 45.86 km</desc>
<time>2012-09-18T16:05:37.06</time>
<name>2382</name>
<sym>Dot</sym>
</trkpt>
<trkpt lat="47.581617" lon="15.646498">
<ele>702.5</ele>
<desc>Speed 42.9 km/h Distance 45.87 km</desc>
<time>2012-09-18T16:05:38.06</time>
<name>2383</name>
<sym>Dot</sym>
</trkpt>
<trkpt lat="47.581683" lon="15.646625">
<ele>703.0</ele>
<desc>Speed 43.4 km/h Distance 45.89 km</desc>
<time>2012-09-18T16:05:39.04</time>
<name>2384</name>
<sym>Dot</sym>
</trkpt>
<trkpt lat="47.581753" lon="15.646753">
<ele>704.0</ele>
<desc>Speed 44.5 km/h Distance 45.90 km</desc>
<time>2012-09-18T16:05:40.05</time>
<name>2385</name>
<sym>Dot</sym>
</trkpt>
<trkpt lat="47.581825" lon="15.646887">
<ele>704.5</ele>
<desc>Speed 45.8 km/h Distance 45.91 km</desc>
<time>2012-09-18T16:05:41.03</time>
<name>2386</name>
<sym>Dot</sym>
</trkpt>
<trkpt lat="47.581898" lon="15.647020">
<ele>705.5</ele>
<desc>Speed 46.8 km/h Distance 45.92 km</desc>
<time>2012-09-18T16:05:42.03</time>
<name>2387</name>
<sym>Dot</sym>
</trkpt>
<trkpt lat="47.581973" lon="15.647155">
<ele>706.0</ele>
<desc>Speed 46.9 km/h Distance 45.94 km</desc>
<time>2012-09-18T16:05:43.03</time>
<name>2388</name>
<sym>Dot</sym>
</trkpt>
<trkpt lat="47.582043" lon="15.647290">
<ele>707.0</ele>
<desc>Speed 46.3 km/h Distance 45.95 km</desc>
<time>2012-09-18T16:05:44.03</time>
<name>2389</name>
<sym>Dot</sym>
</trkpt>
<trkpt lat="47.582112" lon="15.647427">
<ele>707.5</ele>
<desc>Speed 45.2 km/h Distance 45.96 km</desc>
<time>2012-09-18T16:05:45.02</time>
<name>2390</name>
<sym>Dot</sym>
</trkpt>
<trkpt lat="47.582182" lon="15.647567">
<ele>707.5</ele>
<desc>Speed 45.8 km/h Distance 45.98 km</desc>
<time>2012-09-18T16:05:46.02</time>
<name>2391</name>
<sym>Dot</sym>
</trkpt>
<trkpt lat="47.582247" lon="15.647707">
<ele>708.0</ele>
<desc>Speed 46.7 km/h Distance 45.99 km</desc>
<time>2012-09-18T16:05:47.01</time>
<name>2392</name>
<sym>Dot</sym>
</trkpt>
<trkpt lat="47.582312" lon="15.647855">
<ele>708.0</ele>
<desc>Speed 47.3 km/h Distance 46.00 km</desc>
<time>2012-09-18T16:05:48.01</time>
<name>2393</name>
<sym>Dot</sym>
</trkpt>
<trkpt lat="47.582373" lon="15.648012">
<ele>708.5</ele>
<desc>Speed 48.8 km/h Distance 46.02 km</desc>
<time>2012-09-18T16:05:49.01</time>
<name>2394</name>
<sym>Dot</sym>
</trkpt>
<trkpt lat="47.582435" lon="15.648190">
<ele>708.0</ele>
<desc>Speed 52.7 km/h Distance 46.03 km</desc>
<time>2012-09-18T16:05:50.00</time>
<name>2395</name>
<sym>Dot</sym>
</trkpt>
<trkpt lat="47.582493" lon="15.648385">
<ele>707.5</ele>
<desc>Speed 56.1 km/h Distance 46.05 km</desc>
<time>2012-09-18T16:05:51.00</time>
<name>2396</name>
<sym>Dot</sym>
</trkpt>
<trkpt lat="47.582543" lon="15.648582">
<ele>707.5</ele>
<desc>Speed 56.4 km/h Distance 46.06 km</desc>
<time>2012-09-18T16:05:51.99</time>
<name>2397</name>
<sym>Dot</sym>
</trkpt>
<trkpt lat="47.582582" lon="15.648777">
<ele>707.5</ele>
<desc>Speed 54.9 km/h Distance 46.08 km</desc>
<time>2012-09-18T16:05:52.99</time>
<name>2398</name>
<sym>Dot</sym>
</trkpt>
<trkpt lat="47.582612" lon="15.648968">
<ele>707.5</ele>
<desc>Speed 53.3 km/h Distance 46.09 km</desc>
<time>2012-09-18T16:05:53.98</time>
<name>2399</name>
<sym>Dot</sym>
</trkpt>
<trkpt lat="47.582635" lon="15.649160">
<ele>707.5</ele>
<desc>Speed 53.2 km/h Distance 46.11 km</desc>
<time>2012-09-18T16:05:54.98</time>
<name>2400</name>
<sym>Dot</sym>
</trkpt>
<trkpt lat="47.582657" lon="15.649355">
<ele>707.5</ele>
<desc>Speed 53.6 km/h Distance 46.12 km</desc>
<time>2012-09-18T16:05:55.97</time>
<name>2401</name>
<sym>Dot</sym>
</trkpt>
<trkpt lat="47.582673" lon="15.649550">
<ele>707.5</ele>
<desc>Speed 53.9 km/h Distance 46.14 km</desc>
<time>2012-09-18T16:05:56.97</time>
<name>2402</name>
<sym>Dot</sym>
</trkpt>
<trkpt lat="47.582688" lon="15.649747">
<ele>707.5</ele>
<desc>Speed 54.2 km/h Distance 46.15 km</desc>
<time>2012-09-18T16:05:57.96</time>
<name>2403</name>
<sym>Dot</sym>
</trkpt>
<trkpt lat="47.582700" lon="15.649945">
<ele>707.0</ele>
<desc>Speed 54.4 km/h Distance 46.17 km</desc>
<time>2012-09-18T16:05:58.96</time>
<name>2404</name>
<sym>Dot</sym>
</trkpt>
<trkpt lat="47.582712" lon="15.650143">
<ele>707.5</ele>
<desc>Speed 54.5 km/h Distance 46.18 km</desc>
<time>2012-09-18T16:05:59.96</time>
<name>2405</name>
<sym>Dot</sym>
</trkpt>
<trkpt lat="47.582727" lon="15.650340">
<ele>707.5</ele>
<desc>Speed 54.1 km/h Distance 46.20 km</desc>
<time>2012-09-18T16:06:00.96</time>
<name>2406</name>
<sym>Dot</sym>
</trkpt>
<trkpt lat="47.582745" lon="15.650533">
<ele>708.0</ele>
<desc>Speed 53.1 km/h Distance 46.21 km</desc>
<time>2012-09-18T16:06:01.95</time>
<name>2407</name>
<sym>Dot</sym>
</trkpt>
<trkpt lat="47.582768" lon="15.650725">
<ele>708.0</ele>
<desc>Speed 52.8 km/h Distance 46.23 km</desc>
<time>2012-09-18T16:06:02.95</time>
<name>2408</name>
<sym>Dot</sym>
</trkpt>
<trkpt lat="47.582793" lon="15.650913">
<ele>707.5</ele>
<desc>Speed 51.7 km/h Distance 46.24 km</desc>
<time>2012-09-18T16:06:03.93</time>
<name>2409</name>
<sym>Dot</sym>
</trkpt>
<trkpt lat="47.582823" lon="15.651098">
<ele>707.5</ele>
<desc>Speed 51.5 km/h Distance 46.25 km</desc>
<time>2012-09-18T16:06:04.94</time>
<name>2410</name>
<sym>Dot</sym>
</trkpt>
<trkpt lat="47.582853" lon="15.651283">
<ele>707.5</ele>
<desc>Speed 51.6 km/h Distance 46.27 km</desc>
<time>2012-09-18T16:06:05.93</time>
<name>2411</name>
<sym>Dot</sym>
</trkpt>
<trkpt lat="47.582887" lon="15.651467">
<ele>708.0</ele>
<desc>Speed 51.7 km/h Distance 46.28 km</desc>
<time>2012-09-18T16:06:06.93</time>
<name>2412</name>
<sym>Dot</sym>
</trkpt>
<trkpt lat="47.582920" lon="15.651655">
<ele>708.0</ele>
<desc>Speed 52.5 km/h Distance 46.30 km</desc>
<time>2012-09-18T16:06:07.93</time>
<name>2413</name>
<sym>Dot</sym>
</trkpt>
<trkpt lat="47.582957" lon="15.651855">
<ele>708.0</ele>
<desc>Speed 55.7 km/h Distance 46.31 km</desc>
<time>2012-09-18T16:06:08.92</time>
<name>2414</name>
<sym>Dot</sym>
</trkpt>
<trkpt lat="47.582993" lon="15.652063">
<ele>708.5</ele>
<desc>Speed 58.6 km/h Distance 46.33 km</desc>
<time>2012-09-18T16:06:09.91</time>
<name>2415</name>
<sym>Dot</sym>
</trkpt>
<trkpt lat="47.583030" lon="15.652272">
<ele>708.5</ele>
<desc>Speed 58.1 km/h Distance 46.35 km</desc>
<time>2012-09-18T16:06:10.91</time>
<name>2416</name>
<sym>Dot</sym>
</trkpt>
<trkpt lat="47.583065" lon="15.652475">
<ele>709.0</ele>
<desc>Speed 56.4 km/h Distance 46.36 km</desc>
<time>2012-09-18T16:06:11.90</time>
<name>2417</name>
<sym>Dot</sym>
</trkpt>
<trkpt lat="47.583095" lon="15.652672">
<ele>709.5</ele>
<desc>Speed 54.6 km/h Distance 46.38 km</desc>
<time>2012-09-18T16:06:12.90</time>
<name>2418</name>
<sym>Dot</sym>
</trkpt>
<trkpt lat="47.583123" lon="15.652862">
<ele>710.0</ele>
<desc>Speed 52.2 km/h Distance 46.39 km</desc>
<time>2012-09-18T16:06:13.89</time>
<name>2419</name>
<sym>Dot</sym>
</trkpt>
<trkpt lat="47.583152" lon="15.653050">
<ele>710.0</ele>
<desc>Speed 52.0 km/h Distance 46.41 km</desc>
<time>2012-09-18T16:06:14.89</time>
<name>2420</name>
<sym>Dot</sym>
</trkpt>
<trkpt lat="47.583173" lon="15.653235">
<ele>710.0</ele>
<desc>Speed 50.9 km/h Distance 46.42 km</desc>
<time>2012-09-18T16:06:15.88</time>
<name>2421</name>
<sym>Dot</sym>
</trkpt>
<trkpt lat="47.583193" lon="15.653425">
<ele>710.5</ele>
<desc>Speed 51.9 km/h Distance 46.43 km</desc>
<time>2012-09-18T16:06:16.88</time>
<name>2422</name>
<sym>Dot</sym>
</trkpt>
<trkpt lat="47.583208" lon="15.653623">
<ele>711.5</ele>
<desc>Speed 53.7 km/h Distance 46.45 km</desc>
<time>2012-09-18T16:06:17.87</time>
<name>2423</name>
<sym>Dot</sym>
</trkpt>
<trkpt lat="47.583223" lon="15.653828">
<ele>712.5</ele>
<desc>Speed 55.0 km/h Distance 46.46 km</desc>
<time>2012-09-18T16:06:18.88</time>
<name>2424</name>
<sym>Dot</sym>
</trkpt>
<trkpt lat="47.583237" lon="15.654032">
<ele>713.0</ele>
<desc>Speed 55.3 km/h Distance 46.48 km</desc>
<time>2012-09-18T16:06:19.87</time>
<name>2425</name>
<sym>Dot</sym>
</trkpt>
<trkpt lat="47.583248" lon="15.654225">
<ele>714.5</ele>
<desc>Speed 53.1 km/h Distance 46.49 km</desc>
<time>2012-09-18T16:06:20.86</time>
<name>2426</name>
<sym>Dot</sym>
</trkpt>
<trkpt lat="47.583260" lon="15.654415">
<ele>715.5</ele>
<desc>Speed 51.6 km/h Distance 46.51 km</desc>
<time>2012-09-18T16:06:21.85</time>
<name>2427</name>
<sym>Dot</sym>
</trkpt>
<trkpt lat="47.583277" lon="15.654600">
<ele>716.0</ele>
<desc>Speed 50.5 km/h Distance 46.52 km</desc>
<time>2012-09-18T16:06:22.85</time>
<name>2428</name>
<sym>Dot</sym>
</trkpt>
<trkpt lat="47.583292" lon="15.654780">
<ele>716.5</ele>
<desc>Speed 48.9 km/h Distance 46.54 km</desc>
<time>2012-09-18T16:06:23.84</time>
<name>2429</name>
<sym>Dot</sym>
</trkpt>
<trkpt lat="47.583313" lon="15.654955">
<ele>717.0</ele>
<desc>Speed 48.1 km/h Distance 46.55 km</desc>
<time>2012-09-18T16:06:24.84</time>
<name>2430</name>
<sym>Dot</sym>
</trkpt>
<trkpt lat="47.583340" lon="15.655130">
<ele>717.5</ele>
<desc>Speed 48.2 km/h Distance 46.56 km</desc>
<time>2012-09-18T16:06:25.83</time>
<name>2431</name>
<sym>Dot</sym>
</trkpt>
<trkpt lat="47.583370" lon="15.655310">
<ele>718.0</ele>
<desc>Speed 50.0 km/h Distance 46.58 km</desc>
<time>2012-09-18T16:06:26.83</time>
<name>2432</name>
<sym>Dot</sym>
</trkpt>
<trkpt lat="47.583403" lon="15.655497">
<ele>718.5</ele>
<desc>Speed 52.0 km/h Distance 46.59 km</desc>
<time>2012-09-18T16:06:27.82</time>
<name>2433</name>
<sym>Dot</sym>
</trkpt>
<trkpt lat="47.583447" lon="15.655700">
<ele>718.5</ele>
<desc>Speed 57.0 km/h Distance 46.61 km</desc>
<time>2012-09-18T16:06:28.82</time>
<name>2434</name>
<sym>Dot</sym>
</trkpt>
<trkpt lat="47.583573" lon="15.656152">
<ele>719.0</ele>
<desc>Speed 64.4 km/h Distance 46.64 km</desc>
<time>2012-09-18T16:06:30.81</time>
<name>2435</name>
<sym>Dot</sym>
</trkpt>
<trkpt lat="47.583652" lon="15.656375">
<ele>719.0</ele>
<desc>Speed 67.9 km/h Distance 46.66 km</desc>
<time>2012-09-18T16:06:31.80</time>
<name>2436</name>
<sym>Dot</sym>
</trkpt>
<trkpt lat="47.583743" lon="15.656605">
<ele>719.0</ele>
<desc>Speed 71.9 km/h Distance 46.68 km</desc>
<time>2012-09-18T16:06:32.80</time>
<name>2437</name>
<sym>Dot</sym>
</trkpt>
<trkpt lat="47.583847" lon="15.656827">
<ele>719.5</ele>
<desc>Speed 72.5 km/h Distance 46.70 km</desc>
<time>2012-09-18T16:06:33.79</time>
<name>2438</name>
<sym>Dot</sym>
</trkpt>
<trkpt lat="47.583958" lon="15.657037">
<ele>719.5</ele>
<desc>Speed 71.6 km/h Distance 46.72 km</desc>
<time>2012-09-18T16:06:34.79</time>
<name>2439</name>
<sym>Dot</sym>
</trkpt>
<trkpt lat="47.584077" lon="15.657240">
<ele>720.0</ele>
<desc>Speed 71.5 km/h Distance 46.74 km</desc>
<time>2012-09-18T16:06:35.78</time>
<name>2440</name>
<sym>Dot</sym>
</trkpt>
<trkpt lat="47.584198" lon="15.657432">
<ele>720.5</ele>
<desc>Speed 71.2 km/h Distance 46.76 km</desc>
<time>2012-09-18T16:06:36.79</time>
<name>2441</name>
<sym>Dot</sym>
</trkpt>
<trkpt lat="47.584330" lon="15.657613">
<ele>721.0</ele>
<desc>Speed 71.3 km/h Distance 46.78 km</desc>
<time>2012-09-18T16:06:37.76</time>
<name>2442</name>
<sym>Dot</sym>
</trkpt>
<trkpt lat="47.584467" lon="15.657785">
<ele>721.0</ele>
<desc>Speed 71.6 km/h Distance 46.80 km</desc>
<time>2012-09-18T16:06:38.75</time>
<name>2443</name>
<sym>Dot</sym>
</trkpt>
<trkpt lat="47.584612" lon="15.657948">
<ele>721.5</ele>
<desc>Speed 72.4 km/h Distance 46.82 km</desc>
<time>2012-09-18T16:06:39.75</time>
<name>2444</name>
<sym>Dot</sym>
</trkpt>
<trkpt lat="47.584765" lon="15.658107">
<ele>722.0</ele>
<desc>Speed 74.5 km/h Distance 46.84 km</desc>
<time>2012-09-18T16:06:40.75</time>
<name>2445</name>
<sym>Dot</sym>
</trkpt>
<trkpt lat="47.584933" lon="15.658258">
<ele>722.0</ele>
<desc>Speed 79.0 km/h Distance 46.87 km</desc>
<time>2012-09-18T16:06:41.75</time>
<name>2446</name>
<sym>Dot</sym>
</trkpt>
<trkpt lat="47.585115" lon="15.658405">
<ele>722.0</ele>
<desc>Speed 82.3 km/h Distance 46.89 km</desc>
<time>2012-09-18T16:06:42.75</time>
<name>2447</name>
<sym>Dot</sym>
</trkpt>
<trkpt lat="47.585293" lon="15.658533">
<ele>721.5</ele>
<desc>Speed 79.3 km/h Distance 46.91 km</desc>
<time>2012-09-18T16:06:43.74</time>
<name>2448</name>
<sym>Dot</sym>
</trkpt>
<trkpt lat="47.585465" lon="15.658647">
<ele>721.5</ele>
<desc>Speed 75.2 km/h Distance 46.93 km</desc>
<time>2012-09-18T16:06:44.74</time>
<name>2449</name>
<sym>Dot</sym>
</trkpt>
<trkpt lat="47.585637" lon="15.658752">
<ele>721.0</ele>
<desc>Speed 74.3 km/h Distance 46.95 km</desc>
<time>2012-09-18T16:06:45.73</time>
<name>2450</name>
<sym>Dot</sym>
</trkpt>
<trkpt lat="47.585808" lon="15.658852">
<ele>721.0</ele>
<desc>Speed 73.5 km/h Distance 46.97 km</desc>
<time>2012-09-18T16:06:46.73</time>
<name>2451</name>
<sym>Dot</sym>
</trkpt>
<trkpt lat="47.585978" lon="15.658942">
<ele>721.0</ele>
<desc>Speed 72.4 km/h Distance 46.99 km</desc>
<time>2012-09-18T16:06:47.72</time>
<name>2452</name>
<sym>Dot</sym>
</trkpt>
<trkpt lat="47.586152" lon="15.659030">
<ele>721.0</ele>
<desc>Speed 73.3 km/h Distance 47.01 km</desc>
<time>2012-09-18T16:06:48.72</time>
<name>2453</name>
<sym>Dot</sym>
</trkpt>
<trkpt lat="47.586328" lon="15.659118">
<ele>721.0</ele>
<desc>Speed 74.6 km/h Distance 47.04 km</desc>
<time>2012-09-18T16:06:49.71</time>
<name>2454</name>
<sym>Dot</sym>
</trkpt>
<trkpt lat="47.586507" lon="15.659208">
<ele>720.5</ele>
<desc>Speed 75.0 km/h Distance 47.06 km</desc>
<time>2012-09-18T16:06:50.76</time>
<name>2455</name>
<sym>Dot</sym>
</trkpt>
<trkpt lat="47.586682" lon="15.659297">
<ele>720.5</ele>
<desc>Speed 74.2 km/h Distance 47.08 km</desc>
<time>2012-09-18T16:06:51.71</time>
<name>2456</name>
<sym>Dot</sym>
</trkpt>
<trkpt lat="47.586855" lon="15.659378">
<ele>720.0</ele>
<desc>Speed 73.1 km/h Distance 47.10 km</desc>
<time>2012-09-18T16:06:52.71</time>
<name>2457</name>
<sym>Dot</sym>
</trkpt>
<trkpt lat="47.587028" lon="15.659458">
<ele>720.0</ele>
<desc>Speed 72.2 km/h Distance 47.12 km</desc>
<time>2012-09-18T16:06:53.70</time>
<name>2458</name>
<sym>Dot</sym>
</trkpt>
<trkpt lat="47.587202" lon="15.659537">
<ele>720.0</ele>
<desc>Speed 72.6 km/h Distance 47.14 km</desc>
<time>2012-09-18T16:06:54.70</time>
<name>2459</name>
<sym>Dot</sym>
</trkpt>
<trkpt lat="47.587377" lon="15.659615">
<ele>719.5</ele>
<desc>Speed 72.8 km/h Distance 47.16 km</desc>
<time>2012-09-18T16:06:55.68</time>
<name>2460</name>
<sym>Dot</sym>
</trkpt>
<trkpt lat="47.587558" lon="15.659692">
<ele>719.5</ele>
<desc>Speed 75.9 km/h Distance 47.18 km</desc>
<time>2012-09-18T16:06:56.69</time>
<name>2461</name>
<sym>Dot</sym>
</trkpt>
<trkpt lat="47.587747" lon="15.659768">
<ele>719.5</ele>
<desc>Speed 78.2 km/h Distance 47.20 km</desc>
<time>2012-09-18T16:06:57.67</time>
<name>2462</name>
<sym>Dot</sym>
</trkpt>
<trkpt lat="47.587932" lon="15.659840">
<ele>719.5</ele>
<desc>Speed 76.4 km/h Distance 47.22 km</desc>
<time>2012-09-18T16:06:58.66</time>
<name>2463</name>
<sym>Dot</sym>
</trkpt>
<trkpt lat="47.588110" lon="15.659903">
<ele>719.5</ele>
<desc>Speed 72.9 km/h Distance 47.24 km</desc>
<time>2012-09-18T16:06:59.66</time>
<name>2464</name>
<sym>Dot</sym>
</trkpt>
<trkpt lat="47.588278" lon="15.659962">
<ele>719.5</ele>
<desc>Speed 69.5 km/h Distance 47.26 km</desc>
<time>2012-09-18T16:07:00.77</time>
<name>2465</name>
<sym>Dot</sym>
</trkpt>
<trkpt lat="47.588440" lon="15.660015">
<ele>719.0</ele>
<desc>Speed 66.3 km/h Distance 47.28 km</desc>
<time>2012-09-18T16:07:01.65</time>
<name>2466</name>
<sym>Dot</sym>
</trkpt>
<trkpt lat="47.588598" lon="15.660067">
<ele>719.0</ele>
<desc>Speed 65.3 km/h Distance 47.30 km</desc>
<time>2012-09-18T16:07:02.65</time>
<name>2467</name>
<sym>Dot</sym>
</trkpt>
<trkpt lat="47.588763" lon="15.660117">
<ele>718.5</ele>
<desc>Speed 67.3 km/h Distance 47.32 km</desc>
<time>2012-09-18T16:07:03.64</time>
<name>2468</name>
<sym>Dot</sym>
</trkpt>
<trkpt lat="47.588932" lon="15.660165">
<ele>718.0</ele>
<desc>Speed 68.6 km/h Distance 47.34 km</desc>
<time>2012-09-18T16:07:04.64</time>
<name>2469</name>
<sym>Dot</sym>
</trkpt>
<trkpt lat="47.589102" lon="15.660212">
<ele>718.0</ele>
<desc>Speed 69.7 km/h Distance 47.36 km</desc>
<time>2012-09-18T16:07:05.63</time>
<name>2470</name>
<sym>Dot</sym>
</trkpt>
<trkpt lat="47.589275" lon="15.660260">
<ele>717.5</ele>
<desc>Speed 70.3 km/h Distance 47.37 km</desc>
<time>2012-09-18T16:07:06.63</time>
<name>2471</name>
<sym>Dot</sym>
</trkpt>
<trkpt lat="47.589447" lon="15.660310">
<ele>717.0</ele>
<desc>Speed 70.0 km/h Distance 47.39 km</desc>
<time>2012-09-18T16:07:07.63</time>
<name>2472</name>
<sym>Dot</sym>
</trkpt>
<trkpt lat="47.589618" lon="15.660367">
<ele>716.5</ele>
<desc>Speed 70.1 km/h Distance 47.41 km</desc>
<time>2012-09-18T16:07:08.62</time>
<name>2473</name>
<sym>Dot</sym>
</trkpt>
<trkpt lat="47.589793" lon="15.660432">
<ele>716.0</ele>
<desc>Speed 72.4 km/h Distance 47.43 km</desc>
<time>2012-09-18T16:07:09.61</time>
<name>2474</name>
<sym>Dot</sym>
</trkpt>
<trkpt lat="47.589967" lon="15.660502">
<ele>715.5</ele>
<desc>Speed 71.1 km/h Distance 47.45 km</desc>
<time>2012-09-18T16:07:10.61</time>
<name>2475</name>
<sym>Dot</sym>
</trkpt>
<trkpt lat="47.590130" lon="15.660577">
<ele>714.5</ele>
<desc>Speed 68.4 km/h Distance 47.47 km</desc>
<time>2012-09-18T16:07:11.60</time>
<name>2476</name>
<sym>Dot</sym>
</trkpt>
<trkpt lat="47.590283" lon="15.660655">
<ele>714.0</ele>
<desc>Speed 65.1 km/h Distance 47.49 km</desc>
<time>2012-09-18T16:07:12.60</time>
<name>2477</name>
<sym>Dot</sym>
</trkpt>
<trkpt lat="47.590430" lon="15.660742">
<ele>713.5</ele>
<desc>Speed 62.5 km/h Distance 47.51 km</desc>
<time>2012-09-18T16:07:13.59</time>
<name>2478</name>
<sym>Dot</sym>
</trkpt>
<trkpt lat="47.590567" lon="15.660833">
<ele>713.5</ele>
<desc>Speed 60.2 km/h Distance 47.53 km</desc>
<time>2012-09-18T16:07:14.59</time>
<name>2479</name>
<sym>Dot</sym>
</trkpt>
<trkpt lat="47.590698" lon="15.660930">
<ele>713.5</ele>
<desc>Speed 58.0 km/h Distance 47.54 km</desc>
<time>2012-09-18T16:07:15.58</time>
<name>2480</name>
<sym>Dot</sym>
</trkpt>
<trkpt lat="47.590822" lon="15.661030">
<ele>713.5</ele>
<desc>Speed 56.4 km/h Distance 47.56 km</desc>
<time>2012-09-18T16:07:16.58</time>
<name>2481</name>
<sym>Dot</sym>
</trkpt>
<trkpt lat="47.590940" lon="15.661132">
<ele>713.5</ele>
<desc>Speed 54.5 km/h Distance 47.57 km</desc>
<time>2012-09-18T16:07:17.57</time>
<name>2482</name>
<sym>Dot</sym>
</trkpt>
<trkpt lat="47.591053" lon="15.661237">
<ele>713.5</ele>
<desc>Speed 53.1 km/h Distance 47.59 km</desc>
<time>2012-09-18T16:07:18.57</time>
<name>2483</name>
<sym>Dot</sym>
</trkpt>
<trkpt lat="47.591165" lon="15.661343">
<ele>713.5</ele>
<desc>Speed 52.8 km/h Distance 47.60 km</desc>
<time>2012-09-18T16:07:19.56</time>
<name>2484</name>
<sym>Dot</sym>
</trkpt>
<trkpt lat="47.591272" lon="15.661455">
<ele>713.5</ele>
<desc>Speed 52.2 km/h Distance 47.62 km</desc>
<time>2012-09-18T16:07:20.56</time>
<name>2485</name>
<sym>Dot</sym>
</trkpt>
<trkpt lat="47.591373" lon="15.661568">
<ele>714.0</ele>
<desc>Speed 50.9 km/h Distance 47.63 km</desc>
<time>2012-09-18T16:07:21.55</time>
<name>2486</name>
<sym>Dot</sym>
</trkpt>
<trkpt lat="47.591468" lon="15.661683">
<ele>714.5</ele>
<desc>Speed 48.4 km/h Distance 47.64 km</desc>
<time>2012-09-18T16:07:22.55</time>
<name>2487</name>
<sym>Dot</sym>
</trkpt>
<trkpt lat="47.591550" lon="15.661793">
<ele>715.0</ele>
<desc>Speed 44.0 km/h Distance 47.66 km</desc>
<time>2012-09-18T16:07:23.54</time>
<name>2488</name>
<sym>Dot</sym>
</trkpt>
<trkpt lat="47.591617" lon="15.661903">
<ele>715.0</ele>
<desc>Speed 40.0 km/h Distance 47.67 km</desc>
<time>2012-09-18T16:07:24.54</time>
<name>2489</name>
<sym>Dot</sym>
</trkpt>
<trkpt lat="47.591698" lon="15.662087">
<ele>716.0</ele>
<desc>Speed 26.6 km/h Distance 47.68 km</desc>
<time>2012-09-18T16:07:26.53</time>
<name>2490</name>
<sym>Dot</sym>
</trkpt>
<trkpt lat="47.591718" lon="15.662157">
<ele>716.0</ele>
<desc>Speed 20.6 km/h Distance 47.69 km</desc>
<time>2012-09-18T16:07:27.52</time>
<name>2491</name>
<sym>Dot</sym>
</trkpt>
<trkpt lat="47.591730" lon="15.662208">
<ele>716.0</ele>
<desc>Speed 14.3 km/h Distance 47.69 km</desc>
<time>2012-09-18T16:07:28.52</time>
<name>2492</name>
<sym>Dot</sym>
</trkpt>
<trkpt lat="47.591735" lon="15.662245">
<ele>716.5</ele>
<desc>Speed 9.9 km/h Distance 47.70 km</desc>
<time>2012-09-18T16:07:29.52</time>
<name>2493</name>
<sym>Dot</sym>
</trkpt>
<trkpt lat="47.591742" lon="15.662277">
<ele>716.5</ele>
<desc>Speed 8.9 km/h Distance 47.70 km</desc>
<time>2012-09-18T16:07:30.52</time>
<name>2494</name>
<sym>Dot</sym>
</trkpt>
<trkpt lat="47.591742" lon="15.662298">
<ele>716.5</ele>
<desc>Speed 5.5 km/h Distance 47.70 km</desc>
<time>2012-09-18T16:07:31.52</time>
<name>2495</name>
<sym>Dot</sym>
</trkpt>
<trkpt lat="47.591743" lon="15.662298">
<ele>716.5</ele>
<desc>Speed 0.5 km/h Distance 47.70 km</desc>
<time>2012-09-18T16:07:32.51</time>
<name>2496</name>
<sym>Dot</sym>
</trkpt>
<trkpt lat="47.591743" lon="15.662300">
<ele>716.5</ele>
<desc>Speed 0.4 km/h Distance 47.70 km</desc>
<time>2012-09-18T16:07:33.51</time>
<name>2497</name>
<sym>Dot</sym>
</trkpt>
<trkpt lat="47.591743" lon="15.662300">
<ele>716.5</ele>
<desc>Speed 0.2 km/h Distance 47.70 km</desc>
<time>2012-09-18T16:07:34.51</time>
<name>2498</name>
<sym>Dot</sym>
</trkpt>
<trkpt lat="47.591743" lon="15.662300">
<ele>716.5</ele>
<desc>Speed 0.3 km/h Distance 47.70 km</desc>
<time>2012-09-18T16:07:35.51</time>
<name>2499</name>
<sym>Dot</sym>
</trkpt>
<trkpt lat="47.591745" lon="15.662300">
<ele>716.5</ele>
<desc>Speed 0.3 km/h Distance 47.70 km</desc>
<time>2012-09-18T16:07:36.51</time>
<name>2500</name>
<sym>Dot</sym>
</trkpt>
<trkpt lat="47.591762" lon="15.662602">
<ele>717.0</ele>
<desc>Speed 23.6 km/h Distance 47.72 km</desc>
<time>2012-09-18T16:07:41.24</time>
<name>2501</name>
<sym>Dot</sym>
</trkpt>
<trkpt lat="47.591792" lon="15.662658">
<ele>718.5</ele>
<desc>Speed 19.7 km/h Distance 47.73 km</desc>
<time>2012-09-18T16:07:42.24</time>
<name>2502</name>
<sym>Dot</sym>
</trkpt>
<trkpt lat="47.591837" lon="15.662713">
<ele>718.0</ele>
<desc>Speed 23.4 km/h Distance 47.74 km</desc>
<time>2012-09-18T16:07:43.24</time>
<name>2503</name>
<sym>Dot</sym>
</trkpt>
<trkpt lat="47.591898" lon="15.662738">
<ele>716.5</ele>
<desc>Speed 25.4 km/h Distance 47.74 km</desc>
<time>2012-09-18T16:07:44.23</time>
<name>2504</name>
<sym>Dot</sym>
</trkpt>
<trkpt lat="47.591972" lon="15.662762">
<ele>716.5</ele>
<desc>Speed 30.0 km/h Distance 47.75 km</desc>
<time>2012-09-18T16:07:45.22</time>
<name>2505</name>
<sym>Dot</sym>
</trkpt>
<trkpt lat="47.592055" lon="15.662800">
<ele>716.5</ele>
<desc>Speed 35.3 km/h Distance 47.76 km</desc>
<time>2012-09-18T16:07:46.22</time>
<name>2506</name>
<sym>Dot</sym>
</trkpt>
<trkpt lat="47.592147" lon="15.662867">
<ele>715.5</ele>
<desc>Speed 40.5 km/h Distance 47.77 km</desc>
<time>2012-09-18T16:07:47.21</time>
<name>2507</name>
<sym>Dot</sym>
</trkpt>
<trkpt lat="47.592237" lon="15.662958">
<ele>716.0</ele>
<desc>Speed 43.4 km/h Distance 47.78 km</desc>
<time>2012-09-18T16:07:48.20</time>
<name>2508</name>
<sym>Dot</sym>
</trkpt>
<trkpt lat="47.592335" lon="15.663072">
<ele>716.0</ele>
<desc>Speed 50.1 km/h Distance 47.80 km</desc>
<time>2012-09-18T16:07:49.20</time>
<name>2509</name>
<sym>Dot</sym>
</trkpt>
<trkpt lat="47.592445" lon="15.663203">
<ele>715.5</ele>
<desc>Speed 56.4 km/h Distance 47.81 km</desc>
<time>2012-09-18T16:07:50.21</time>
<name>2510</name>
<sym>Dot</sym>
</trkpt>
<trkpt lat="47.592697" lon="15.663498">
<ele>716.5</ele>
<desc>Speed 65.5 km/h Distance 47.85 km</desc>
<time>2012-09-18T16:07:52.20</time>
<name>2511</name>
<sym>Dot</sym>
</trkpt>
<trkpt lat="47.593005" lon="15.663813">
<ele>715.5</ele>
<desc>Speed 77.0 km/h Distance 47.89 km</desc>
<time>2012-09-18T16:07:54.19</time>
<name>2512</name>
<sym>Dot</sym>
</trkpt>
<trkpt lat="47.593183" lon="15.663973">
<ele>715.5</ele>
<desc>Speed 83.0 km/h Distance 47.92 km</desc>
<time>2012-09-18T16:07:55.18</time>
<name>2513</name>
<sym>Dot</sym>
</trkpt>
<trkpt lat="47.593367" lon="15.664107">
<ele>716.0</ele>
<desc>Speed 81.6 km/h Distance 47.94 km</desc>
<time>2012-09-18T16:07:56.18</time>
<name>2514</name>
<sym>Dot</sym>
</trkpt>
<trkpt lat="47.593568" lon="15.664240">
<ele>717.0</ele>
<desc>Speed 88.3 km/h Distance 47.96 km</desc>
<time>2012-09-18T16:07:57.18</time>
<name>2515</name>
<sym>Dot</sym>
</trkpt>
<trkpt lat="47.593785" lon="15.664382">
<ele>717.0</ele>
<desc>Speed 94.7 km/h Distance 47.99 km</desc>
<time>2012-09-18T16:07:58.18</time>
<name>2516</name>
<sym>Dot</sym>
</trkpt>
<trkpt lat="47.594007" lon="15.664508">
<ele>716.5</ele>
<desc>Speed 95.0 km/h Distance 48.02 km</desc>
<time>2012-09-18T16:07:59.17</time>
<name>2517</name>
<sym>Dot</sym>
</trkpt>
<trkpt lat="47.594423" lon="15.664665">
<ele>718.5</ele>
<desc>Speed 84.8 km/h Distance 48.06 km</desc>
<time>2012-09-18T16:08:01.16</time>
<name>2518</name>
<sym>Dot</sym>
</trkpt>
<trkpt lat="47.594620" lon="15.664717">
<ele>719.0</ele>
<desc>Speed 79.9 km/h Distance 48.09 km</desc>
<time>2012-09-18T16:08:02.16</time>
<name>2519</name>
<sym>Dot</sym>
</trkpt>
<trkpt lat="47.594808" lon="15.664753">
<ele>719.0</ele>
<desc>Speed 75.6 km/h Distance 48.11 km</desc>
<time>2012-09-18T16:08:03.15</time>
<name>2520</name>
<sym>Dot</sym>
</trkpt>
<trkpt lat="47.594985" lon="15.664778">
<ele>719.0</ele>
<desc>Speed 70.9 km/h Distance 48.13 km</desc>
<time>2012-09-18T16:08:04.14</time>
<name>2521</name>
<sym>Dot</sym>
</trkpt>
<trkpt lat="47.595152" lon="15.664797">
<ele>720.0</ele>
<desc>Speed 66.4 km/h Distance 48.14 km</desc>
<time>2012-09-18T16:08:05.13</time>
<name>2522</name>
<sym>Dot</sym>
</trkpt>
<trkpt lat="47.595308" lon="15.664815">
<ele>720.0</ele>
<desc>Speed 62.8 km/h Distance 48.16 km</desc>
<time>2012-09-18T16:08:06.13</time>
<name>2523</name>
<sym>Dot</sym>
</trkpt>
<trkpt lat="47.595457" lon="15.664832">
<ele>720.5</ele>
<desc>Speed 58.6 km/h Distance 48.18 km</desc>
<time>2012-09-18T16:08:07.12</time>
<name>2524</name>
<sym>Dot</sym>
</trkpt>
<trkpt lat="47.595595" lon="15.664842">
<ele>721.0</ele>
<desc>Speed 54.9 km/h Distance 48.19 km</desc>
<time>2012-09-18T16:08:08.13</time>
<name>2525</name>
<sym>Dot</sym>
</trkpt>
<trkpt lat="47.595727" lon="15.664852">
<ele>721.0</ele>
<desc>Speed 52.3 km/h Distance 48.21 km</desc>
<time>2012-09-18T16:08:09.12</time>
<name>2526</name>
<sym>Dot</sym>
</trkpt>
<trkpt lat="47.595853" lon="15.664863">
<ele>721.0</ele>
<desc>Speed 50.8 km/h Distance 48.22 km</desc>
<time>2012-09-18T16:08:10.12</time>
<name>2527</name>
<sym>Dot</sym>
</trkpt>
<trkpt lat="47.595978" lon="15.664875">
<ele>721.0</ele>
<desc>Speed 49.5 km/h Distance 48.24 km</desc>
<time>2012-09-18T16:08:11.11</time>
<name>2528</name>
<sym>Dot</sym>
</trkpt>
<trkpt lat="47.596100" lon="15.664887">
<ele>721.5</ele>
<desc>Speed 48.5 km/h Distance 48.25 km</desc>
<time>2012-09-18T16:08:12.11</time>
<name>2529</name>
<sym>Dot</sym>
</trkpt>
<trkpt lat="47.596220" lon="15.664900">
<ele>722.0</ele>
<desc>Speed 48.2 km/h Distance 48.26 km</desc>
<time>2012-09-18T16:08:13.10</time>
<name>2530</name>
<sym>Dot</sym>
</trkpt>
<trkpt lat="47.596338" lon="15.664910">
<ele>722.0</ele>
<desc>Speed 47.4 km/h Distance 48.28 km</desc>
<time>2012-09-18T16:08:14.11</time>
<name>2531</name>
<sym>Dot</sym>
</trkpt>
<trkpt lat="47.596455" lon="15.664922">
<ele>722.5</ele>
<desc>Speed 46.9 km/h Distance 48.29 km</desc>
<time>2012-09-18T16:08:15.10</time>
<name>2532</name>
<sym>Dot</sym>
</trkpt>
<trkpt lat="47.596572" lon="15.664933">
<ele>722.5</ele>
<desc>Speed 46.7 km/h Distance 48.30 km</desc>
<time>2012-09-18T16:08:16.10</time>
<name>2533</name>
<sym>Dot</sym>
</trkpt>
<trkpt lat="47.596690" lon="15.664948">
<ele>723.0</ele>
<desc>Speed 47.6 km/h Distance 48.32 km</desc>
<time>2012-09-18T16:08:17.09</time>
<name>2534</name>
<sym>Dot</sym>
</trkpt>
<trkpt lat="47.596813" lon="15.664973">
<ele>722.5</ele>
<desc>Speed 49.6 km/h Distance 48.33 km</desc>
<time>2012-09-18T16:08:18.10</time>
<name>2535</name>
<sym>Dot</sym>
</trkpt>
<trkpt lat="47.596947" lon="15.665012">
<ele>723.5</ele>
<desc>Speed 54.4 km/h Distance 48.35 km</desc>
<time>2012-09-18T16:08:19.10</time>
<name>2536</name>
<sym>Dot</sym>
</trkpt>
<trkpt lat="47.597087" lon="15.665063">
<ele>723.5</ele>
<desc>Speed 57.3 km/h Distance 48.36 km</desc>
<time>2012-09-18T16:08:20.09</time>
<name>2537</name>
<sym>Dot</sym>
</trkpt>
<trkpt lat="47.597218" lon="15.665123">
<ele>723.5</ele>
<desc>Speed 55.1 km/h Distance 48.38 km</desc>
<time>2012-09-18T16:08:21.08</time>
<name>2538</name>
<sym>Dot</sym>
</trkpt>
<trkpt lat="47.597347" lon="15.665187">
<ele>724.0</ele>
<desc>Speed 53.5 km/h Distance 48.39 km</desc>
<time>2012-09-18T16:08:22.08</time>
<name>2539</name>
<sym>Dot</sym>
</trkpt>
<trkpt lat="47.597470" lon="15.665257">
<ele>724.5</ele>
<desc>Speed 52.8 km/h Distance 48.41 km</desc>
<time>2012-09-18T16:08:23.07</time>
<name>2540</name>
<sym>Dot</sym>
</trkpt>
<trkpt lat="47.597593" lon="15.665330">
<ele>724.0</ele>
<desc>Speed 53.0 km/h Distance 48.42 km</desc>
<time>2012-09-18T16:08:24.07</time>
<name>2541</name>
<sym>Dot</sym>
</trkpt>
<trkpt lat="47.597712" lon="15.665408">
<ele>724.0</ele>
<desc>Speed 52.0 km/h Distance 48.44 km</desc>
<time>2012-09-18T16:08:25.08</time>
<name>2542</name>
<sym>Dot</sym>
</trkpt>
<trkpt lat="47.597827" lon="15.665492">
<ele>724.0</ele>
<desc>Speed 51.3 km/h Distance 48.45 km</desc>
<time>2012-09-18T16:08:26.07</time>
<name>2543</name>
<sym>Dot</sym>
</trkpt>
<trkpt lat="47.597942" lon="15.665582">
<ele>724.0</ele>
<desc>Speed 51.8 km/h Distance 48.46 km</desc>
<time>2012-09-18T16:08:27.06</time>
<name>2544</name>
<sym>Dot</sym>
</trkpt>
<trkpt lat="47.598055" lon="15.665672">
<ele>724.0</ele>
<desc>Speed 51.3 km/h Distance 48.48 km</desc>
<time>2012-09-18T16:08:28.05</time>
<name>2545</name>
<sym>Dot</sym>
</trkpt>
<trkpt lat="47.598167" lon="15.665758">
<ele>724.0</ele>
<desc>Speed 50.6 km/h Distance 48.49 km</desc>
<time>2012-09-18T16:08:29.05</time>
<name>2546</name>
<sym>Dot</sym>
</trkpt>
<trkpt lat="47.598278" lon="15.665840">
<ele>724.0</ele>
<desc>Speed 49.0 km/h Distance 48.51 km</desc>
<time>2012-09-18T16:08:30.04</time>
<name>2547</name>
<sym>Dot</sym>
</trkpt>
<trkpt lat="47.598388" lon="15.665918">
<ele>724.0</ele>
<desc>Speed 48.8 km/h Distance 48.52 km</desc>
<time>2012-09-18T16:08:31.04</time>
<name>2548</name>
<sym>Dot</sym>
</trkpt>
<trkpt lat="47.598503" lon="15.665998">
<ele>723.5</ele>
<desc>Speed 50.8 km/h Distance 48.53 km</desc>
<time>2012-09-18T16:08:32.03</time>
<name>2549</name>
<sym>Dot</sym>
</trkpt>
<trkpt lat="47.598623" lon="15.666087">
<ele>723.5</ele>
<desc>Speed 52.9 km/h Distance 48.55 km</desc>
<time>2012-09-18T16:08:33.03</time>
<name>2550</name>
<sym>Dot</sym>
</trkpt>
<trkpt lat="47.598743" lon="15.666175">
<ele>723.5</ele>
<desc>Speed 53.7 km/h Distance 48.56 km</desc>
<time>2012-09-18T16:08:34.02</time>
<name>2551</name>
<sym>Dot</sym>
</trkpt>
<trkpt lat="47.598860" lon="15.666262">
<ele>723.0</ele>
<desc>Speed 52.6 km/h Distance 48.58 km</desc>
<time>2012-09-18T16:08:35.02</time>
<name>2552</name>
<sym>Dot</sym>
</trkpt>
<trkpt lat="47.598978" lon="15.666343">
<ele>723.0</ele>
<desc>Speed 52.1 km/h Distance 48.59 km</desc>
<time>2012-09-18T16:08:36.01</time>
<name>2553</name>
<sym>Dot</sym>
</trkpt>
<trkpt lat="47.599098" lon="15.666420">
<ele>723.0</ele>
<desc>Speed 52.3 km/h Distance 48.61 km</desc>
<time>2012-09-18T16:08:37.01</time>
<name>2554</name>
<sym>Dot</sym>
</trkpt>
<trkpt lat="47.599218" lon="15.666497">
<ele>722.5</ele>
<desc>Speed 52.1 km/h Distance 48.62 km</desc>
<time>2012-09-18T16:08:38.01</time>
<name>2555</name>
<sym>Dot</sym>
</trkpt>
<trkpt lat="47.599340" lon="15.666578">
<ele>723.0</ele>
<desc>Speed 54.0 km/h Distance 48.64 km</desc>
<time>2012-09-18T16:08:39.02</time>
<name>2556</name>
<sym>Dot</sym>
</trkpt>
<trkpt lat="47.599467" lon="15.666672">
<ele>722.5</ele>
<desc>Speed 56.7 km/h Distance 48.65 km</desc>
<time>2012-09-18T16:08:40.00</time>
<name>2557</name>
<sym>Dot</sym>
</trkpt>
<trkpt lat="47.599595" lon="15.666772">
<ele>722.0</ele>
<desc>Speed 57.7 km/h Distance 48.67 km</desc>
<time>2012-09-18T16:08:41.00</time>
<name>2558</name>
<sym>Dot</sym>
</trkpt>
<trkpt lat="47.599717" lon="15.666877">
<ele>722.5</ele>
<desc>Speed 56.4 km/h Distance 48.68 km</desc>
<time>2012-09-18T16:08:41.99</time>
<name>2559</name>
<sym>Dot</sym>
</trkpt>
<trkpt lat="47.599835" lon="15.666983">
<ele>723.0</ele>
<desc>Speed 55.8 km/h Distance 48.70 km</desc>
<time>2012-09-18T16:08:43.00</time>
<name>2560</name>
<sym>Dot</sym>
</trkpt>
<trkpt lat="47.599950" lon="15.667092">
<ele>723.0</ele>
<desc>Speed 54.7 km/h Distance 48.72 km</desc>
<time>2012-09-18T16:08:43.98</time>
<name>2561</name>
<sym>Dot</sym>
</trkpt>
<trkpt lat="47.600062" lon="15.667198">
<ele>723.0</ele>
<desc>Speed 53.1 km/h Distance 48.73 km</desc>
<time>2012-09-18T16:08:44.98</time>
<name>2562</name>
<sym>Dot</sym>
</trkpt>
<trkpt lat="47.600172" lon="15.667302">
<ele>723.5</ele>
<desc>Speed 51.7 km/h Distance 48.74 km</desc>
<time>2012-09-18T16:08:45.97</time>
<name>2563</name>
<sym>Dot</sym>
</trkpt>
<trkpt lat="47.600277" lon="15.667402">
<ele>723.5</ele>
<desc>Speed 50.3 km/h Distance 48.76 km</desc>
<time>2012-09-18T16:08:46.97</time>
<name>2564</name>
<sym>Dot</sym>
</trkpt>
<trkpt lat="47.600383" lon="15.667498">
<ele>724.0</ele>
<desc>Speed 49.7 km/h Distance 48.77 km</desc>
<time>2012-09-18T16:08:47.96</time>
<name>2565</name>
<sym>Dot</sym>
</trkpt>
<trkpt lat="47.600495" lon="15.667590">
<ele>724.0</ele>
<desc>Speed 50.8 km/h Distance 48.79 km</desc>
<time>2012-09-18T16:08:48.96</time>
<name>2566</name>
<sym>Dot</sym>
</trkpt>
<trkpt lat="47.600615" lon="15.667687">
<ele>724.0</ele>
<desc>Speed 54.8 km/h Distance 48.80 km</desc>
<time>2012-09-18T16:08:49.96</time>
<name>2567</name>
<sym>Dot</sym>
</trkpt>
<trkpt lat="47.600745" lon="15.667783">
<ele>723.5</ele>
<desc>Speed 58.0 km/h Distance 48.82 km</desc>
<time>2012-09-18T16:08:50.95</time>
<name>2568</name>
<sym>Dot</sym>
</trkpt>
<trkpt lat="47.600870" lon="15.667872">
<ele>724.0</ele>
<desc>Speed 55.4 km/h Distance 48.83 km</desc>
<time>2012-09-18T16:08:51.94</time>
<name>2569</name>
<sym>Dot</sym>
</trkpt>
<trkpt lat="47.600992" lon="15.667958">
<ele>725.0</ele>
<desc>Speed 53.7 km/h Distance 48.85 km</desc>
<time>2012-09-18T16:08:52.95</time>
<name>2570</name>
<sym>Dot</sym>
</trkpt>
<trkpt lat="47.601107" lon="15.668035">
<ele>725.5</ele>
<desc>Speed 50.6 km/h Distance 48.86 km</desc>
<time>2012-09-18T16:08:53.94</time>
<name>2571</name>
<sym>Dot</sym>
</trkpt>
<trkpt lat="47.601222" lon="15.668108">
<ele>726.5</ele>
<desc>Speed 50.0 km/h Distance 48.88 km</desc>
<time>2012-09-18T16:08:54.94</time>
<name>2572</name>
<sym>Dot</sym>
</trkpt>
<trkpt lat="47.601337" lon="15.668177">
<ele>728.0</ele>
<desc>Speed 49.2 km/h Distance 48.89 km</desc>
<time>2012-09-18T16:08:55.93</time>
<name>2573</name>
<sym>Dot</sym>
</trkpt>
<trkpt lat="47.601457" lon="15.668237">
<ele>728.0</ele>
<desc>Speed 50.3 km/h Distance 48.90 km</desc>
<time>2012-09-18T16:08:56.93</time>
<name>2574</name>
<sym>Dot</sym>
</trkpt>
<trkpt lat="47.601577" lon="15.668290">
<ele>728.0</ele>
<desc>Speed 50.0 km/h Distance 48.92 km</desc>
<time>2012-09-18T16:08:57.92</time>
<name>2575</name>
<sym>Dot</sym>
</trkpt>
<trkpt lat="47.601705" lon="15.668345">
<ele>727.5</ele>
<desc>Speed 52.3 km/h Distance 48.93 km</desc>
<time>2012-09-18T16:08:58.92</time>
<name>2576</name>
<sym>Dot</sym>
</trkpt>
<trkpt lat="47.601838" lon="15.668402">
<ele>727.5</ele>
<desc>Speed 54.7 km/h Distance 48.95 km</desc>
<time>2012-09-18T16:08:59.91</time>
<name>2577</name>
<sym>Dot</sym>
</trkpt>
<trkpt lat="47.601972" lon="15.668455">
<ele>728.0</ele>
<desc>Speed 54.8 km/h Distance 48.96 km</desc>
<time>2012-09-18T16:09:00.91</time>
<name>2578</name>
<sym>Dot</sym>
</trkpt>
<trkpt lat="47.602100" lon="15.668503">
<ele>728.0</ele>
<desc>Speed 52.7 km/h Distance 48.98 km</desc>
<time>2012-09-18T16:09:01.91</time>
<name>2579</name>
<sym>Dot</sym>
</trkpt>
<trkpt lat="47.602223" lon="15.668548">
<ele>728.0</ele>
<desc>Speed 50.9 km/h Distance 48.99 km</desc>
<time>2012-09-18T16:09:02.91</time>
<name>2580</name>
<sym>Dot</sym>
</trkpt>
<trkpt lat="47.602340" lon="15.668593">
<ele>728.5</ele>
<desc>Speed 47.9 km/h Distance 49.01 km</desc>
<time>2012-09-18T16:09:03.89</time>
<name>2581</name>
<sym>Dot</sym>
</trkpt>
<trkpt lat="47.602452" lon="15.668638">
<ele>729.0</ele>
<desc>Speed 45.7 km/h Distance 49.02 km</desc>
<time>2012-09-18T16:09:04.89</time>
<name>2582</name>
<sym>Dot</sym>
</trkpt>
<trkpt lat="47.602560" lon="15.668683">
<ele>728.5</ele>
<desc>Speed 44.3 km/h Distance 49.03 km</desc>
<time>2012-09-18T16:09:05.88</time>
<name>2583</name>
<sym>Dot</sym>
</trkpt>
<trkpt lat="47.602667" lon="15.668738">
<ele>729.0</ele>
<desc>Speed 45.0 km/h Distance 49.04 km</desc>
<time>2012-09-18T16:09:06.87</time>
<name>2584</name>
<sym>Dot</sym>
</trkpt>
<trkpt lat="47.602775" lon="15.668798">
<ele>729.0</ele>
<desc>Speed 46.3 km/h Distance 49.06 km</desc>
<time>2012-09-18T16:09:07.87</time>
<name>2585</name>
<sym>Dot</sym>
</trkpt>
<trkpt lat="47.602885" lon="15.668863">
<ele>728.0</ele>
<desc>Speed 47.2 km/h Distance 49.07 km</desc>
<time>2012-09-18T16:09:08.98</time>
<name>2586</name>
<sym>Dot</sym>
</trkpt>
<trkpt lat="47.602993" lon="15.668932">
<ele>727.0</ele>
<desc>Speed 46.7 km/h Distance 49.08 km</desc>
<time>2012-09-18T16:09:09.86</time>
<name>2587</name>
<sym>Dot</sym>
</trkpt>
<trkpt lat="47.603097" lon="15.668997">
<ele>727.0</ele>
<desc>Speed 45.4 km/h Distance 49.10 km</desc>
<time>2012-09-18T16:09:10.87</time>
<name>2588</name>
<sym>Dot</sym>
</trkpt>
<trkpt lat="47.603200" lon="15.669060">
<ele>727.5</ele>
<desc>Speed 44.6 km/h Distance 49.11 km</desc>
<time>2012-09-18T16:09:11.86</time>
<name>2589</name>
<sym>Dot</sym>
</trkpt>
<trkpt lat="47.603303" lon="15.669127">
<ele>727.5</ele>
<desc>Speed 44.5 km/h Distance 49.12 km</desc>
<time>2012-09-18T16:09:12.85</time>
<name>2590</name>
<sym>Dot</sym>
</trkpt>
<trkpt lat="47.603405" lon="15.669195">
<ele>727.5</ele>
<desc>Speed 44.9 km/h Distance 49.13 km</desc>
<time>2012-09-18T16:09:13.84</time>
<name>2591</name>
<sym>Dot</sym>
</trkpt>
<trkpt lat="47.603512" lon="15.669262">
<ele>727.0</ele>
<desc>Speed 45.8 km/h Distance 49.15 km</desc>
<time>2012-09-18T16:09:14.84</time>
<name>2592</name>
<sym>Dot</sym>
</trkpt>
<trkpt lat="47.603617" lon="15.669318">
<ele>727.5</ele>
<desc>Speed 44.5 km/h Distance 49.16 km</desc>
<time>2012-09-18T16:09:15.84</time>
<name>2593</name>
<sym>Dot</sym>
</trkpt>
<trkpt lat="47.603723" lon="15.669370">
<ele>728.5</ele>
<desc>Speed 44.9 km/h Distance 49.17 km</desc>
<time>2012-09-18T16:09:16.83</time>
<name>2594</name>
<sym>Dot</sym>
</trkpt>
<trkpt lat="47.603842" lon="15.669427">
<ele>728.5</ele>
<desc>Speed 49.4 km/h Distance 49.19 km</desc>
<time>2012-09-18T16:09:17.83</time>
<name>2595</name>
<sym>Dot</sym>
</trkpt>
<trkpt lat="47.603963" lon="15.669487">
<ele>729.0</ele>
<desc>Speed 50.9 km/h Distance 49.20 km</desc>
<time>2012-09-18T16:09:18.83</time>
<name>2596</name>
<sym>Dot</sym>
</trkpt>
<trkpt lat="47.604085" lon="15.669555">
<ele>729.0</ele>
<desc>Speed 51.5 km/h Distance 49.21 km</desc>
<time>2012-09-18T16:09:19.83</time>
<name>2597</name>
<sym>Dot</sym>
</trkpt>
<trkpt lat="47.604200" lon="15.669628">
<ele>729.0</ele>
<desc>Speed 49.6 km/h Distance 49.23 km</desc>
<time>2012-09-18T16:09:20.83</time>
<name>2598</name>
<sym>Dot</sym>
</trkpt>
<trkpt lat="47.604307" lon="15.669705">
<ele>729.0</ele>
<desc>Speed 47.9 km/h Distance 49.24 km</desc>
<time>2012-09-18T16:09:21.83</time>
<name>2599</name>
<sym>Dot</sym>
</trkpt>
<trkpt lat="47.604405" lon="15.669795">
<ele>730.0</ele>
<desc>Speed 45.8 km/h Distance 49.25 km</desc>
<time>2012-09-18T16:09:22.82</time>
<name>2600</name>
<sym>Dot</sym>
</trkpt>
<trkpt lat="47.604507" lon="15.669900">
<ele>730.0</ele>
<desc>Speed 49.5 km/h Distance 49.27 km</desc>
<time>2012-09-18T16:09:23.81</time>
<name>2601</name>
<sym>Dot</sym>
</trkpt>
<trkpt lat="47.604615" lon="15.670012">
<ele>730.0</ele>
<desc>Speed 51.8 km/h Distance 49.28 km</desc>
<time>2012-09-18T16:09:24.81</time>
<name>2602</name>
<sym>Dot</sym>
</trkpt>
<trkpt lat="47.604717" lon="15.670122">
<ele>730.0</ele>
<desc>Speed 50.6 km/h Distance 49.30 km</desc>
<time>2012-09-18T16:09:25.81</time>
<name>2603</name>
<sym>Dot</sym>
</trkpt>
<trkpt lat="47.604810" lon="15.670238">
<ele>731.0</ele>
<desc>Speed 48.7 km/h Distance 49.31 km</desc>
<time>2012-09-18T16:09:26.80</time>
<name>2604</name>
<sym>Dot</sym>
</trkpt>
<trkpt lat="47.604900" lon="15.670368">
<ele>731.5</ele>
<desc>Speed 50.3 km/h Distance 49.32 km</desc>
<time>2012-09-18T16:09:27.80</time>
<name>2605</name>
<sym>Dot</sym>
</trkpt>
<trkpt lat="47.604985" lon="15.670472">
<ele>730.5</ele>
<desc>Speed 43.7 km/h Distance 49.34 km</desc>
<time>2012-09-18T16:09:28.78</time>
<name>2606</name>
<sym>Dot</sym>
</trkpt>
<trkpt lat="47.605070" lon="15.670582">
<ele>730.0</ele>
<desc>Speed 44.9 km/h Distance 49.35 km</desc>
<time>2012-09-18T16:09:29.78</time>
<name>2607</name>
<sym>Dot</sym>
</trkpt>
<trkpt lat="47.605148" lon="15.670672">
<ele>729.0</ele>
<desc>Speed 39.7 km/h Distance 49.36 km</desc>
<time>2012-09-18T16:09:30.76</time>
<name>2608</name>
<sym>Dot</sym>
</trkpt>
<trkpt lat="47.605230" lon="15.670765">
<ele>727.5</ele>
<desc>Speed 41.1 km/h Distance 49.37 km</desc>
<time>2012-09-18T16:09:31.76</time>
<name>2609</name>
<sym>Dot</sym>
</trkpt>
<trkpt lat="47.605310" lon="15.670862">
<ele>729.0</ele>
<desc>Speed 42.0 km/h Distance 49.38 km</desc>
<time>2012-09-18T16:09:32.76</time>
<name>2610</name>
<sym>Dot</sym>
</trkpt>
<trkpt lat="47.605385" lon="15.670955">
<ele>731.0</ele>
<desc>Speed 39.5 km/h Distance 49.39 km</desc>
<time>2012-09-18T16:09:33.76</time>
<name>2611</name>
<sym>Dot</sym>
</trkpt>
<trkpt lat="47.605458" lon="15.671047">
<ele>732.0</ele>
<desc>Speed 39.1 km/h Distance 49.40 km</desc>
<time>2012-09-18T16:09:34.76</time>
<name>2612</name>
<sym>Dot</sym>
</trkpt>
<trkpt lat="47.605528" lon="15.671132">
<ele>733.0</ele>
<desc>Speed 36.2 km/h Distance 49.41 km</desc>
<time>2012-09-18T16:09:35.76</time>
<name>2613</name>
<sym>Dot</sym>
</trkpt>
<trkpt lat="47.605595" lon="15.671222">
<ele>733.0</ele>
<desc>Speed 36.3 km/h Distance 49.42 km</desc>
<time>2012-09-18T16:09:36.75</time>
<name>2614</name>
<sym>Dot</sym>
</trkpt>
<trkpt lat="47.605657" lon="15.671313">
<ele>733.5</ele>
<desc>Speed 35.9 km/h Distance 49.43 km</desc>
<time>2012-09-18T16:09:37.74</time>
<name>2615</name>
<sym>Dot</sym>
</trkpt>
<trkpt lat="47.605712" lon="15.671410">
<ele>734.0</ele>
<desc>Speed 33.8 km/h Distance 49.44 km</desc>
<time>2012-09-18T16:09:38.74</time>
<name>2616</name>
<sym>Dot</sym>
</trkpt>
<trkpt lat="47.605760" lon="15.671502">
<ele>734.0</ele>
<desc>Speed 31.9 km/h Distance 49.45 km</desc>
<time>2012-09-18T16:09:39.73</time>
<name>2617</name>
<sym>Dot</sym>
</trkpt>
<trkpt lat="47.605808" lon="15.671578">
<ele>734.5</ele>
<desc>Speed 28.7 km/h Distance 49.46 km</desc>
<time>2012-09-18T16:09:40.73</time>
<name>2618</name>
<sym>Dot</sym>
</trkpt>
<trkpt lat="47.605865" lon="15.671637">
<ele>733.5</ele>
<desc>Speed 27.9 km/h Distance 49.47 km</desc>
<time>2012-09-18T16:09:41.71</time>
<name>2619</name>
<sym>Dot</sym>
</trkpt>
<trkpt lat="47.605928" lon="15.671675">
<ele>733.5</ele>
<desc>Speed 27.2 km/h Distance 49.48 km</desc>
<time>2012-09-18T16:09:42.70</time>
<name>2620</name>
<sym>Dot</sym>
</trkpt>
<trkpt lat="47.606007" lon="15.671690">
<ele>733.0</ele>
<desc>Speed 32.0 km/h Distance 49.48 km</desc>
<time>2012-09-18T16:09:43.71</time>
<name>2621</name>
<sym>Dot</sym>
</trkpt>
<trkpt lat="47.606102" lon="15.671697">
<ele>732.5</ele>
<desc>Speed 37.1 km/h Distance 49.49 km</desc>
<time>2012-09-18T16:09:44.71</time>
<name>2622</name>
<sym>Dot</sym>
</trkpt>
<trkpt lat="47.606188" lon="15.671700">
<ele>732.0</ele>
<desc>Speed 33.9 km/h Distance 49.50 km</desc>
<time>2012-09-18T16:09:45.70</time>
<name>2623</name>
<sym>Dot</sym>
</trkpt>
<trkpt lat="47.606265" lon="15.671745">
<ele>732.0</ele>
<desc>Speed 32.4 km/h Distance 49.51 km</desc>
<time>2012-09-18T16:09:46.71</time>
<name>2624</name>
<sym>Dot</sym>
</trkpt>
<trkpt lat="47.606340" lon="15.671783">
<ele>730.0</ele>
<desc>Speed 32.6 km/h Distance 49.52 km</desc>
<time>2012-09-18T16:09:47.70</time>
<name>2625</name>
<sym>Dot</sym>
</trkpt>
<trkpt lat="47.606422" lon="15.671807">
<ele>728.0</ele>
<desc>Speed 32.8 km/h Distance 49.53 km</desc>
<time>2012-09-18T16:09:48.69</time>
<name>2626</name>
<sym>Dot</sym>
</trkpt>
<trkpt lat="47.606500" lon="15.671812">
<ele>727.0</ele>
<desc>Speed 30.9 km/h Distance 49.54 km</desc>
<time>2012-09-18T16:09:49.69</time>
<name>2627</name>
<sym>Dot</sym>
</trkpt>
<trkpt lat="47.606573" lon="15.671812">
<ele>726.5</ele>
<desc>Speed 28.9 km/h Distance 49.55 km</desc>
<time>2012-09-18T16:09:50.70</time>
<name>2628</name>
<sym>Dot</sym>
</trkpt>
<trkpt lat="47.606640" lon="15.671795">
<ele>726.5</ele>
<desc>Speed 26.3 km/h Distance 49.56 km</desc>
<time>2012-09-18T16:09:51.68</time>
<name>2629</name>
<sym>Dot</sym>
</trkpt>
<trkpt lat="47.606695" lon="15.671740">
<ele>726.5</ele>
<desc>Speed 26.6 km/h Distance 49.56 km</desc>
<time>2012-09-18T16:09:52.69</time>
<name>2630</name>
<sym>Dot</sym>
</trkpt>
<trkpt lat="47.606760" lon="15.671697">
<ele>726.0</ele>
<desc>Speed 27.6 km/h Distance 49.57 km</desc>
<time>2012-09-18T16:09:53.68</time>
<name>2631</name>
<sym>Dot</sym>
</trkpt>
<trkpt lat="47.606825" lon="15.671653">
<ele>725.0</ele>
<desc>Speed 28.1 km/h Distance 49.58 km</desc>
<time>2012-09-18T16:09:54.68</time>
<name>2632</name>
<sym>Dot</sym>
</trkpt>
<trkpt lat="47.606888" lon="15.671603">
<ele>723.5</ele>
<desc>Speed 28.0 km/h Distance 49.59 km</desc>
<time>2012-09-18T16:09:55.66</time>
<name>2633</name>
<sym>Dot</sym>
</trkpt>
<trkpt lat="47.606948" lon="15.671558">
<ele>723.5</ele>
<desc>Speed 26.2 km/h Distance 49.59 km</desc>
<time>2012-09-18T16:09:56.65</time>
<name>2634</name>
<sym>Dot</sym>
</trkpt>
<trkpt lat="47.607007" lon="15.671522">
<ele>723.0</ele>
<desc>Speed 25.1 km/h Distance 49.60 km</desc>
<time>2012-09-18T16:09:57.65</time>
<name>2635</name>
<sym>Dot</sym>
</trkpt>
<trkpt lat="47.607063" lon="15.671487">
<ele>722.5</ele>
<desc>Speed 24.6 km/h Distance 49.61 km</desc>
<time>2012-09-18T16:09:58.65</time>
<name>2636</name>
<sym>Dot</sym>
</trkpt>
<trkpt lat="47.607120" lon="15.671452">
<ele>723.0</ele>
<desc>Speed 24.4 km/h Distance 49.62 km</desc>
<time>2012-09-18T16:09:59.64</time>
<name>2637</name>
<sym>Dot</sym>
</trkpt>
<trkpt lat="47.607175" lon="15.671415">
<ele>723.0</ele>
<desc>Speed 24.1 km/h Distance 49.62 km</desc>
<time>2012-09-18T16:10:00.63</time>
<name>2638</name>
<sym>Dot</sym>
</trkpt>
<trkpt lat="47.607228" lon="15.671380">
<ele>723.0</ele>
<desc>Speed 23.0 km/h Distance 49.63 km</desc>
<time>2012-09-18T16:10:01.63</time>
<name>2639</name>
<sym>Dot</sym>
</trkpt>
<trkpt lat="47.607280" lon="15.671348">
<ele>723.0</ele>
<desc>Speed 21.8 km/h Distance 49.64 km</desc>
<time>2012-09-18T16:10:02.63</time>
<name>2640</name>
<sym>Dot</sym>
</trkpt>
<trkpt lat="47.607330" lon="15.671323">
<ele>722.5</ele>
<desc>Speed 20.4 km/h Distance 49.64 km</desc>
<time>2012-09-18T16:10:03.62</time>
<name>2641</name>
<sym>Dot</sym>
</trkpt>
<trkpt lat="47.607375" lon="15.671302">
<ele>722.0</ele>
<desc>Speed 18.5 km/h Distance 49.65 km</desc>
<time>2012-09-18T16:10:04.62</time>
<name>2642</name>
<sym>Dot</sym>
</trkpt>
<trkpt lat="47.607418" lon="15.671290">
<ele>721.5</ele>
<desc>Speed 17.1 km/h Distance 49.65 km</desc>
<time>2012-09-18T16:10:05.62</time>
<name>2643</name>
<sym>Dot</sym>
</trkpt>
<trkpt lat="47.607468" lon="15.671287">
<ele>722.5</ele>
<desc>Speed 19.9 km/h Distance 49.66 km</desc>
<time>2012-09-18T16:10:06.62</time>
<name>2644</name>
<sym>Dot</sym>
</trkpt>
<trkpt lat="47.607530" lon="15.671275">
<ele>724.0</ele>
<desc>Speed 25.1 km/h Distance 49.66 km</desc>
<time>2012-09-18T16:10:07.61</time>
<name>2645</name>
<sym>Dot</sym>
</trkpt>
<trkpt lat="47.607588" lon="15.671242">
<ele>724.0</ele>
<desc>Speed 24.9 km/h Distance 49.67 km</desc>
<time>2012-09-18T16:10:08.60</time>
<name>2646</name>
<sym>Dot</sym>
</trkpt>
<trkpt lat="47.607638" lon="15.671197">
<ele>724.0</ele>
<desc>Speed 23.3 km/h Distance 49.68 km</desc>
<time>2012-09-18T16:10:09.60</time>
<name>2647</name>
<sym>Dot</sym>
</trkpt>
<trkpt lat="47.607665" lon="15.671140">
<ele>723.5</ele>
<desc>Speed 18.2 km/h Distance 49.68 km</desc>
<time>2012-09-18T16:10:10.60</time>
<name>2648</name>
<sym>Dot</sym>
</trkpt>
<trkpt lat="47.607700" lon="15.671105">
<ele>724.5</ele>
<desc>Speed 17.0 km/h Distance 49.69 km</desc>
<time>2012-09-18T16:10:11.58</time>
<name>2649</name>
<sym>Dot</sym>
</trkpt>
<trkpt lat="47.607745" lon="15.671048">
<ele>724.0</ele>
<desc>Speed 23.7 km/h Distance 49.69 km</desc>
<time>2012-09-18T16:10:12.59</time>
<name>2650</name>
<sym>Dot</sym>
</trkpt>
<trkpt lat="47.607805" lon="15.671017">
<ele>724.5</ele>
<desc>Speed 25.1 km/h Distance 49.70 km</desc>
<time>2012-09-18T16:10:13.57</time>
<name>2651</name>
<sym>Dot</sym>
</trkpt>
<trkpt lat="47.607873" lon="15.670980">
<ele>724.5</ele>
<desc>Speed 29.6 km/h Distance 49.71 km</desc>
<time>2012-09-18T16:10:14.58</time>
<name>2652</name>
<sym>Dot</sym>
</trkpt>
<trkpt lat="47.607957" lon="15.670938">
<ele>724.5</ele>
<desc>Speed 34.4 km/h Distance 49.72 km</desc>
<time>2012-09-18T16:10:15.57</time>
<name>2653</name>
<sym>Dot</sym>
</trkpt>
<trkpt lat="47.608048" lon="15.670895">
<ele>724.5</ele>
<desc>Speed 37.7 km/h Distance 49.73 km</desc>
<time>2012-09-18T16:10:16.56</time>
<name>2654</name>
<sym>Dot</sym>
</trkpt>
<trkpt lat="47.608153" lon="15.670848">
<ele>723.5</ele>
<desc>Speed 43.8 km/h Distance 49.74 km</desc>
<time>2012-09-18T16:10:17.56</time>
<name>2655</name>
<sym>Dot</sym>
</trkpt>
<trkpt lat="47.608422" lon="15.670783">
<ele>725.5</ele>
<desc>Speed 55.5 km/h Distance 49.77 km</desc>
<time>2012-09-18T16:10:19.56</time>
<name>2656</name>
<sym>Dot</sym>
</trkpt>
<trkpt lat="47.608557" lon="15.670767">
<ele>726.0</ele>
<desc>Speed 53.5 km/h Distance 49.79 km</desc>
<time>2012-09-18T16:10:20.56</time>
<name>2657</name>
<sym>Dot</sym>
</trkpt>
<trkpt lat="47.608682" lon="15.670755">
<ele>726.5</ele>
<desc>Speed 49.4 km/h Distance 49.80 km</desc>
<time>2012-09-18T16:10:21.54</time>
<name>2658</name>
<sym>Dot</sym>
</trkpt>
<trkpt lat="47.608793" lon="15.670743">
<ele>727.5</ele>
<desc>Speed 44.3 km/h Distance 49.81 km</desc>
<time>2012-09-18T16:10:22.55</time>
<name>2659</name>
<sym>Dot</sym>
</trkpt>
<trkpt lat="47.608902" lon="15.670723">
<ele>728.0</ele>
<desc>Speed 42.0 km/h Distance 49.83 km</desc>
<time>2012-09-18T16:10:23.55</time>
<name>2660</name>
<sym>Dot</sym>
</trkpt>
<trkpt lat="47.609008" lon="15.670687">
<ele>728.5</ele>
<desc>Speed 42.9 km/h Distance 49.84 km</desc>
<time>2012-09-18T16:10:24.55</time>
<name>2661</name>
<sym>Dot</sym>
</trkpt>
<trkpt lat="47.609115" lon="15.670630">
<ele>729.5</ele>
<desc>Speed 44.3 km/h Distance 49.85 km</desc>
<time>2012-09-18T16:10:25.54</time>
<name>2662</name>
<sym>Dot</sym>
</trkpt>
<trkpt lat="47.609218" lon="15.670555">
<ele>730.0</ele>
<desc>Speed 44.7 km/h Distance 49.86 km</desc>
<time>2012-09-18T16:10:26.53</time>
<name>2663</name>
<sym>Dot</sym>
</trkpt>
<trkpt lat="47.609308" lon="15.670467">
<ele>731.0</ele>
<desc>Speed 42.6 km/h Distance 49.87 km</desc>
<time>2012-09-18T16:10:27.53</time>
<name>2664</name>
<sym>Dot</sym>
</trkpt>
<trkpt lat="47.609390" lon="15.670375">
<ele>731.0</ele>
<desc>Speed 40.5 km/h Distance 49.89 km</desc>
<time>2012-09-18T16:10:28.52</time>
<name>2665</name>
<sym>Dot</sym>
</trkpt>
<trkpt lat="47.609465" lon="15.670282">
<ele>731.5</ele>
<desc>Speed 39.2 km/h Distance 49.90 km</desc>
<time>2012-09-18T16:10:29.51</time>
<name>2666</name>
<sym>Dot</sym>
</trkpt>
<trkpt lat="47.609543" lon="15.670190">
<ele>731.0</ele>
<desc>Speed 38.6 km/h Distance 49.91 km</desc>
<time>2012-09-18T16:10:30.51</time>
<name>2667</name>
<sym>Dot</sym>
</trkpt>
<trkpt lat="47.609620" lon="15.670110">
<ele>730.5</ele>
<desc>Speed 37.1 km/h Distance 49.92 km</desc>
<time>2012-09-18T16:10:31.50</time>
<name>2668</name>
<sym>Dot</sym>
</trkpt>
<trkpt lat="47.609698" lon="15.670030">
<ele>731.0</ele>
<desc>Speed 37.9 km/h Distance 49.93 km</desc>
<time>2012-09-18T16:10:32.50</time>
<name>2669</name>
<sym>Dot</sym>
</trkpt>
<trkpt lat="47.609783" lon="15.669947">
<ele>731.5</ele>
<desc>Speed 40.1 km/h Distance 49.94 km</desc>
<time>2012-09-18T16:10:33.50</time>
<name>2670</name>
<sym>Dot</sym>
</trkpt>
<trkpt lat="47.609875" lon="15.669863">
<ele>732.5</ele>
<desc>Speed 42.5 km/h Distance 49.95 km</desc>
<time>2012-09-18T16:10:34.49</time>
<name>2671</name>
<sym>Dot</sym>
</trkpt>
<trkpt lat="47.609972" lon="15.669778">
<ele>733.5</ele>
<desc>Speed 44.7 km/h Distance 49.97 km</desc>
<time>2012-09-18T16:10:35.48</time>
<name>2672</name>
<sym>Dot</sym>
</trkpt>
<trkpt lat="47.610075" lon="15.669693">
<ele>734.5</ele>
<desc>Speed 47.3 km/h Distance 49.98 km</desc>
<time>2012-09-18T16:10:36.48</time>
<name>2673</name>
<sym>Dot</sym>
</trkpt>
<trkpt lat="47.610183" lon="15.669603">
<ele>735.5</ele>
<desc>Speed 49.1 km/h Distance 49.99 km</desc>
<time>2012-09-18T16:10:37.47</time>
<name>2674</name>
<sym>Dot</sym>
</trkpt>
<trkpt lat="47.610297" lon="15.669512">
<ele>736.5</ele>
<desc>Speed 51.5 km/h Distance 50.01 km</desc>
<time>2012-09-18T16:10:38.47</time>
<name>2675</name>
<sym>Dot</sym>
</trkpt>
<trkpt lat="47.610415" lon="15.669417">
<ele>737.5</ele>
<desc>Speed 53.8 km/h Distance 50.02 km</desc>
<time>2012-09-18T16:10:39.46</time>
<name>2676</name>
<sym>Dot</sym>
</trkpt>
<trkpt lat="47.610538" lon="15.669322">
<ele>737.5</ele>
<desc>Speed 54.8 km/h Distance 50.04 km</desc>
<time>2012-09-18T16:10:40.46</time>
<name>2677</name>
<sym>Dot</sym>
</trkpt>
<trkpt lat="47.610660" lon="15.669228">
<ele>737.5</ele>
<desc>Speed 54.3 km/h Distance 50.05 km</desc>
<time>2012-09-18T16:10:41.46</time>
<name>2678</name>
<sym>Dot</sym>
</trkpt>
<trkpt lat="47.610778" lon="15.669135">
<ele>737.5</ele>
<desc>Speed 53.3 km/h Distance 50.07 km</desc>
<time>2012-09-18T16:10:42.46</time>
<name>2679</name>
<sym>Dot</sym>
</trkpt>
<trkpt lat="47.610897" lon="15.669045">
<ele>737.5</ele>
<desc>Speed 52.4 km/h Distance 50.08 km</desc>
<time>2012-09-18T16:10:43.46</time>
<name>2680</name>
<sym>Dot</sym>
</trkpt>
<trkpt lat="47.611013" lon="15.668955">
<ele>737.5</ele>
<desc>Speed 51.9 km/h Distance 50.10 km</desc>
<time>2012-09-18T16:10:44.45</time>
<name>2681</name>
<sym>Dot</sym>
</trkpt>
<trkpt lat="47.611128" lon="15.668865">
<ele>737.0</ele>
<desc>Speed 51.8 km/h Distance 50.11 km</desc>
<time>2012-09-18T16:10:45.45</time>
<name>2682</name>
<sym>Dot</sym>
</trkpt>
<trkpt lat="47.611242" lon="15.668777">
<ele>737.0</ele>
<desc>Speed 51.2 km/h Distance 50.13 km</desc>
<time>2012-09-18T16:10:46.45</time>
<name>2683</name>
<sym>Dot</sym>
</trkpt>
<trkpt lat="47.611355" lon="15.668690">
<ele>737.0</ele>
<desc>Speed 50.2 km/h Distance 50.14 km</desc>
<time>2012-09-18T16:10:47.44</time>
<name>2684</name>
<sym>Dot</sym>
</trkpt>
<trkpt lat="47.611475" lon="15.668597">
<ele>737.5</ele>
<desc>Speed 54.2 km/h Distance 50.15 km</desc>
<time>2012-09-18T16:10:48.44</time>
<name>2685</name>
<sym>Dot</sym>
</trkpt>
<trkpt lat="47.611607" lon="15.668495">
<ele>737.0</ele>
<desc>Speed 58.7 km/h Distance 50.17 km</desc>
<time>2012-09-18T16:10:49.43</time>
<name>2686</name>
<sym>Dot</sym>
</trkpt>
<trkpt lat="47.611735" lon="15.668402">
<ele>737.0</ele>
<desc>Speed 56.3 km/h Distance 50.19 km</desc>
<time>2012-09-18T16:10:50.43</time>
<name>2687</name>
<sym>Dot</sym>
</trkpt>
<trkpt lat="47.611857" lon="15.668318">
<ele>736.5</ele>
<desc>Speed 53.0 km/h Distance 50.20 km</desc>
<time>2012-09-18T16:10:51.42</time>
<name>2688</name>
<sym>Dot</sym>
</trkpt>
<trkpt lat="47.611977" lon="15.668248">
<ele>736.5</ele>
<desc>Speed 50.8 km/h Distance 50.22 km</desc>
<time>2012-09-18T16:10:52.42</time>
<name>2689</name>
<sym>Dot</sym>
</trkpt>
<trkpt lat="47.612102" lon="15.668188">
<ele>736.5</ele>
<desc>Speed 52.3 km/h Distance 50.23 km</desc>
<time>2012-09-18T16:10:53.42</time>
<name>2690</name>
<sym>Dot</sym>
</trkpt>
<trkpt lat="47.612237" lon="15.668140">
<ele>736.5</ele>
<desc>Speed 54.6 km/h Distance 50.25 km</desc>
<time>2012-09-18T16:10:54.42</time>
<name>2691</name>
<sym>Dot</sym>
</trkpt>
<trkpt lat="47.612385" lon="15.668112">
<ele>736.5</ele>
<desc>Speed 59.0 km/h Distance 50.26 km</desc>
<time>2012-09-18T16:10:55.41</time>
<name>2692</name>
<sym>Dot</sym>
</trkpt>
<trkpt lat="47.612533" lon="15.668083">
<ele>736.0</ele>
<desc>Speed 59.1 km/h Distance 50.28 km</desc>
<time>2012-09-18T16:10:56.41</time>
<name>2693</name>
<sym>Dot</sym>
</trkpt>
<trkpt lat="47.612678" lon="15.668058">
<ele>736.5</ele>
<desc>Speed 58.1 km/h Distance 50.30 km</desc>
<time>2012-09-18T16:10:57.41</time>
<name>2694</name>
<sym>Dot</sym>
</trkpt>
<trkpt lat="47.612823" lon="15.668033">
<ele>736.5</ele>
<desc>Speed 57.8 km/h Distance 50.31 km</desc>
<time>2012-09-18T16:10:58.40</time>
<name>2695</name>
<sym>Dot</sym>
</trkpt>
<trkpt lat="47.612968" lon="15.668007">
<ele>736.5</ele>
<desc>Speed 58.2 km/h Distance 50.33 km</desc>
<time>2012-09-18T16:10:59.40</time>
<name>2696</name>
<sym>Dot</sym>
</trkpt>
<trkpt lat="47.613118" lon="15.667977">
<ele>736.5</ele>
<desc>Speed 60.0 km/h Distance 50.35 km</desc>
<time>2012-09-18T16:11:00.39</time>
<name>2697</name>
<sym>Dot</sym>
</trkpt>
<trkpt lat="47.613285" lon="15.667947">
<ele>737.0</ele>
<desc>Speed 66.5 km/h Distance 50.36 km</desc>
<time>2012-09-18T16:11:01.39</time>
<name>2698</name>
<sym>Dot</sym>
</trkpt>
<trkpt lat="47.613462" lon="15.667920">
<ele>737.0</ele>
<desc>Speed 70.6 km/h Distance 50.38 km</desc>
<time>2012-09-18T16:11:02.38</time>
<name>2699</name>
<sym>Dot</sym>
</trkpt>
<trkpt lat="47.613632" lon="15.667902">
<ele>737.0</ele>
<desc>Speed 67.1 km/h Distance 50.40 km</desc>
<time>2012-09-18T16:11:03.38</time>
<name>2700</name>
<sym>Dot</sym>
</trkpt>
<trkpt lat="47.613790" lon="15.667887">
<ele>737.0</ele>
<desc>Speed 63.2 km/h Distance 50.42 km</desc>
<time>2012-09-18T16:11:04.37</time>
<name>2701</name>
<sym>Dot</sym>
</trkpt>
<trkpt lat="47.613940" lon="15.667873">
<ele>737.0</ele>
<desc>Speed 59.7 km/h Distance 50.44 km</desc>
<time>2012-09-18T16:11:05.38</time>
<name>2702</name>
<sym>Dot</sym>
</trkpt>
<trkpt lat="47.614085" lon="15.667853">
<ele>737.5</ele>
<desc>Speed 57.6 km/h Distance 50.45 km</desc>
<time>2012-09-18T16:11:06.36</time>
<name>2703</name>
<sym>Dot</sym>
</trkpt>
<trkpt lat="47.614227" lon="15.667830">
<ele>738.0</ele>
<desc>Speed 56.6 km/h Distance 50.47 km</desc>
<time>2012-09-18T16:11:07.36</time>
<name>2704</name>
<sym>Dot</sym>
</trkpt>
<trkpt lat="47.614367" lon="15.667807">
<ele>738.5</ele>
<desc>Speed 55.8 km/h Distance 50.48 km</desc>
<time>2012-09-18T16:11:08.35</time>
<name>2705</name>
<sym>Dot</sym>
</trkpt>
<trkpt lat="47.614507" lon="15.667785">
<ele>739.0</ele>
<desc>Speed 55.9 km/h Distance 50.50 km</desc>
<time>2012-09-18T16:11:09.35</time>
<name>2706</name>
<sym>Dot</sym>
</trkpt>
<trkpt lat="47.614645" lon="15.667747">
<ele>739.5</ele>
<desc>Speed 56.4 km/h Distance 50.52 km</desc>
<time>2012-09-18T16:11:10.35</time>
<name>2707</name>
<sym>Dot</sym>
</trkpt>
<trkpt lat="47.614790" lon="15.667690">
<ele>740.0</ele>
<desc>Speed 59.7 km/h Distance 50.53 km</desc>
<time>2012-09-18T16:11:11.33</time>
<name>2708</name>
<sym>Dot</sym>
</trkpt>
<trkpt lat="47.614945" lon="15.667617">
<ele>740.0</ele>
<desc>Speed 64.6 km/h Distance 50.55 km</desc>
<time>2012-09-18T16:11:12.33</time>
<name>2709</name>
<sym>Dot</sym>
</trkpt>
<trkpt lat="47.615105" lon="15.667540">
<ele>740.0</ele>
<desc>Speed 66.8 km/h Distance 50.57 km</desc>
<time>2012-09-18T16:11:13.34</time>
<name>2710</name>
<sym>Dot</sym>
</trkpt>
<trkpt lat="47.615262" lon="15.667465">
<ele>740.5</ele>
<desc>Speed 65.9 km/h Distance 50.59 km</desc>
<time>2012-09-18T16:11:14.33</time>
<name>2711</name>
<sym>Dot</sym>
</trkpt>
<trkpt lat="47.615413" lon="15.667387">
<ele>740.0</ele>
<desc>Speed 63.9 km/h Distance 50.61 km</desc>
<time>2012-09-18T16:11:15.33</time>
<name>2712</name>
<sym>Dot</sym>
</trkpt>
<trkpt lat="47.615563" lon="15.667307">
<ele>740.5</ele>
<desc>Speed 63.6 km/h Distance 50.62 km</desc>
<time>2012-09-18T16:11:16.32</time>
<name>2713</name>
<sym>Dot</sym>
</trkpt>
<trkpt lat="47.615710" lon="15.667218">
<ele>740.5</ele>
<desc>Speed 63.5 km/h Distance 50.64 km</desc>
<time>2012-09-18T16:11:17.32</time>
<name>2714</name>
<sym>Dot</sym>
</trkpt>
<trkpt lat="47.615852" lon="15.667123">
<ele>740.0</ele>
<desc>Speed 61.8 km/h Distance 50.66 km</desc>
<time>2012-09-18T16:11:18.30</time>
<name>2715</name>
<sym>Dot</sym>
</trkpt>
<trkpt lat="47.615985" lon="15.667025">
<ele>740.0</ele>
<desc>Speed 59.2 km/h Distance 50.68 km</desc>
<time>2012-09-18T16:11:19.31</time>
<name>2716</name>
<sym>Dot</sym>
</trkpt>
<trkpt lat="47.616113" lon="15.666928">
<ele>739.5</ele>
<desc>Speed 57.1 km/h Distance 50.69 km</desc>
<time>2012-09-18T16:11:20.30</time>
<name>2717</name>
<sym>Dot</sym>
</trkpt>
<trkpt lat="47.616237" lon="15.666838">
<ele>739.0</ele>
<desc>Speed 55.1 km/h Distance 50.71 km</desc>
<time>2012-09-18T16:11:21.30</time>
<name>2718</name>
<sym>Dot</sym>
</trkpt>
<trkpt lat="47.616355" lon="15.666755">
<ele>738.5</ele>
<desc>Speed 52.4 km/h Distance 50.72 km</desc>
<time>2012-09-18T16:11:22.29</time>
<name>2719</name>
<sym>Dot</sym>
</trkpt>
<trkpt lat="47.616472" lon="15.666683">
<ele>738.0</ele>
<desc>Speed 50.4 km/h Distance 50.74 km</desc>
<time>2012-09-18T16:11:23.29</time>
<name>2720</name>
<sym>Dot</sym>
</trkpt>
<trkpt lat="47.616592" lon="15.666633">
<ele>736.5</ele>
<desc>Speed 49.8 km/h Distance 50.75 km</desc>
<time>2012-09-18T16:11:24.28</time>
<name>2721</name>
<sym>Dot</sym>
</trkpt>
<trkpt lat="47.616732" lon="15.666627">
<ele>736.5</ele>
<desc>Speed 55.9 km/h Distance 50.76 km</desc>
<time>2012-09-18T16:11:25.28</time>
<name>2722</name>
<sym>Dot</sym>
</trkpt>
<trkpt lat="47.616865" lon="15.666635">
<ele>735.5</ele>
<desc>Speed 53.0 km/h Distance 50.78 km</desc>
<time>2012-09-18T16:11:26.28</time>
<name>2723</name>
<sym>Dot</sym>
</trkpt>
<trkpt lat="47.616995" lon="15.666672">
<ele>736.0</ele>
<desc>Speed 52.8 km/h Distance 50.79 km</desc>
<time>2012-09-18T16:11:27.27</time>
<name>2724</name>
<sym>Dot</sym>
</trkpt>
<trkpt lat="47.617117" lon="15.666755">
<ele>734.0</ele>
<desc>Speed 53.0 km/h Distance 50.81 km</desc>
<time>2012-09-18T16:11:28.26</time>
<name>2725</name>
<sym>Dot</sym>
</trkpt>
<trkpt lat="47.617230" lon="15.666852">
<ele>734.5</ele>
<desc>Speed 52.1 km/h Distance 50.82 km</desc>
<time>2012-09-18T16:11:29.26</time>
<name>2726</name>
<sym>Dot</sym>
</trkpt>
<trkpt lat="47.617335" lon="15.666968">
<ele>733.5</ele>
<desc>Speed 52.6 km/h Distance 50.84 km</desc>
<time>2012-09-18T16:11:30.25</time>
<name>2727</name>
<sym>Dot</sym>
</trkpt>
<trkpt lat="47.617422" lon="15.667107">
<ele>734.5</ele>
<desc>Speed 50.9 km/h Distance 50.85 km</desc>
<time>2012-09-18T16:11:31.25</time>
<name>2728</name>
<sym>Dot</sym>
</trkpt>
<trkpt lat="47.617505" lon="15.667255">
<ele>734.0</ele>
<desc>Speed 51.8 km/h Distance 50.87 km</desc>
<time>2012-09-18T16:11:32.24</time>
<name>2729</name>
<sym>Dot</sym>
</trkpt>
<trkpt lat="47.617593" lon="15.667415">
<ele>733.0</ele>
<desc>Speed 55.7 km/h Distance 50.88 km</desc>
<time>2012-09-18T16:11:33.24</time>
<name>2730</name>
<sym>Dot</sym>
</trkpt>
<trkpt lat="47.617688" lon="15.667563">
<ele>732.5</ele>
<desc>Speed 55.7 km/h Distance 50.90 km</desc>
<time>2012-09-18T16:11:34.23</time>
<name>2731</name>
<sym>Dot</sym>
</trkpt>
<trkpt lat="47.617805" lon="15.667702">
<ele>731.0</ele>
<desc>Speed 59.5 km/h Distance 50.91 km</desc>
<time>2012-09-18T16:11:35.23</time>
<name>2732</name>
<sym>Dot</sym>
</trkpt>
<trkpt lat="47.618508" lon="15.668210">
<ele>728.0</ele>
<desc>Speed 81.6 km/h Distance 51.00 km</desc>
<time>2012-09-18T16:11:40.22</time>
<name>2733</name>
<sym>Dot</sym>
</trkpt>
<trkpt lat="47.618707" lon="15.668312">
<ele>728.5</ele>
<desc>Speed 83.8 km/h Distance 51.02 km</desc>
<time>2012-09-18T16:11:41.21</time>
<name>2734</name>
<sym>Dot</sym>
</trkpt>
<trkpt lat="47.619165" lon="15.668528">
<ele>727.5</ele>
<desc>Speed 97.3 km/h Distance 51.08 km</desc>
<time>2012-09-18T16:11:43.21</time>
<name>2735</name>
<sym>Dot</sym>
</trkpt>
<trkpt lat="47.619418" lon="15.668550">
<ele>727.5</ele>
<desc>Speed 101 km/h Distance 51.11 km</desc>
<time>2012-09-18T16:11:44.21</time>
<name>2736</name>
<sym>Dot</sym>
</trkpt>
<trkpt lat="47.619687" lon="15.668605">
<ele>728.0</ele>
<desc>Speed 108 km/h Distance 51.14 km</desc>
<time>2012-09-18T16:11:45.21</time>
<name>2737</name>
<sym>Dot</sym>
</trkpt>
<trkpt lat="47.619948" lon="15.668660">
<ele>728.0</ele>
<desc>Speed 106 km/h Distance 51.17 km</desc>
<time>2012-09-18T16:11:46.22</time>
<name>2738</name>
<sym>Dot</sym>
</trkpt>
<trkpt lat="47.620203" lon="15.668712">
<ele>728.0</ele>
<desc>Speed 103 km/h Distance 51.19 km</desc>
<time>2012-09-18T16:11:47.21</time>
<name>2739</name>
<sym>Dot</sym>
</trkpt>
<trkpt lat="47.620457" lon="15.668757">
<ele>728.5</ele>
<desc>Speed 101 km/h Distance 51.22 km</desc>
<time>2012-09-18T16:11:48.19</time>
<name>2740</name>
<sym>Dot</sym>
</trkpt>
<trkpt lat="47.620705" lon="15.668785">
<ele>728.5</ele>
<desc>Speed 100 km/h Distance 51.25 km</desc>
<time>2012-09-18T16:11:49.19</time>
<name>2741</name>
<sym>Dot</sym>
</trkpt>
<trkpt lat="47.620947" lon="15.668750">
<ele>728.0</ele>
<desc>Speed 96.4 km/h Distance 51.28 km</desc>
<time>2012-09-18T16:11:50.19</time>
<name>2742</name>
<sym>Dot</sym>
</trkpt>
<trkpt lat="47.621463" lon="15.668627">
<ele>728.5</ele>
<desc>Speed 105 km/h Distance 51.34 km</desc>
<time>2012-09-18T16:11:52.18</time>
<name>2743</name>
<sym>Dot</sym>
</trkpt>
<trkpt lat="47.621720" lon="15.668512">
<ele>729.0</ele>
<desc>Speed 107 km/h Distance 51.37 km</desc>
<time>2012-09-18T16:11:53.18</time>
<name>2744</name>
<sym>Dot</sym>
</trkpt>
<trkpt lat="47.621968" lon="15.668383">
<ele>729.0</ele>
<desc>Speed 105 km/h Distance 51.40 km</desc>
<time>2012-09-18T16:11:54.17</time>
<name>2745</name>
<sym>Dot</sym>
</trkpt>
<trkpt lat="47.622208" lon="15.668253">
<ele>729.0</ele>
<desc>Speed 102 km/h Distance 51.42 km</desc>
<time>2012-09-18T16:11:55.17</time>
<name>2746</name>
<sym>Dot</sym>
</trkpt>
<trkpt lat="47.622432" lon="15.668075">
<ele>728.5</ele>
<desc>Speed 101 km/h Distance 51.45 km</desc>
<time>2012-09-18T16:11:56.16</time>
<name>2747</name>
<sym>Dot</sym>
</trkpt>
<trkpt lat="47.622645" lon="15.667895">
<ele>729.0</ele>
<desc>Speed 98.1 km/h Distance 51.48 km</desc>
<time>2012-09-18T16:11:57.16</time>
<name>2748</name>
<sym>Dot</sym>
</trkpt>
<trkpt lat="47.622845" lon="15.667717">
<ele>729.0</ele>
<desc>Speed 93.4 km/h Distance 51.51 km</desc>
<time>2012-09-18T16:11:58.15</time>
<name>2749</name>
<sym>Dot</sym>
</trkpt>
<trkpt lat="47.623035" lon="15.667532">
<ele>729.0</ele>
<desc>Speed 91.6 km/h Distance 51.53 km</desc>
<time>2012-09-18T16:11:59.15</time>
<name>2750</name>
<sym>Dot</sym>
</trkpt>
<trkpt lat="47.623217" lon="15.667310">
<ele>727.5</ele>
<desc>Speed 94.0 km/h Distance 51.56 km</desc>
<time>2012-09-18T16:12:00.15</time>
<name>2751</name>
<sym>Dot</sym>
</trkpt>
<trkpt lat="47.623373" lon="15.667042">
<ele>727.5</ele>
<desc>Speed 95.5 km/h Distance 51.58 km</desc>
<time>2012-09-18T16:12:01.14</time>
<name>2752</name>
<sym>Dot</sym>
</trkpt>
<trkpt lat="47.623522" lon="15.666778">
<ele>727.5</ele>
<desc>Speed 92.8 km/h Distance 51.61 km</desc>
<time>2012-09-18T16:12:02.14</time>
<name>2753</name>
<sym>Dot</sym>
</trkpt>
<trkpt lat="47.623655" lon="15.666510">
<ele>727.0</ele>
<desc>Speed 90.6 km/h Distance 51.63 km</desc>
<time>2012-09-18T16:12:03.13</time>
<name>2754</name>
<sym>Dot</sym>
</trkpt>
<trkpt lat="47.623780" lon="15.666227">
<ele>727.5</ele>
<desc>Speed 92.1 km/h Distance 51.66 km</desc>
<time>2012-09-18T16:12:04.13</time>
<name>2755</name>
<sym>Dot</sym>
</trkpt>
<trkpt lat="47.623872" lon="15.665923">
<ele>727.0</ele>
<desc>Speed 91.3 km/h Distance 51.68 km</desc>
<time>2012-09-18T16:12:05.12</time>
<name>2756</name>
<sym>Dot</sym>
</trkpt>
<trkpt lat="47.624017" lon="15.665212">
<ele>727.5</ele>
<desc>Speed 102 km/h Distance 51.74 km</desc>
<time>2012-09-18T16:12:07.12</time>
<name>2757</name>
<sym>Dot</sym>
</trkpt>
<trkpt lat="47.624075" lon="15.664863">
<ele>727.0</ele>
<desc>Speed 98.1 km/h Distance 51.77 km</desc>
<time>2012-09-18T16:12:08.12</time>
<name>2758</name>
<sym>Dot</sym>
</trkpt>
<trkpt lat="47.624127" lon="15.664530">
<ele>726.5</ele>
<desc>Speed 93.0 km/h Distance 51.79 km</desc>
<time>2012-09-18T16:12:09.09</time>
<name>2759</name>
<sym>Dot</sym>
</trkpt>
<trkpt lat="47.624198" lon="15.663925">
<ele>728.0</ele>
<desc>Speed 81.3 km/h Distance 51.84 km</desc>
<time>2012-09-18T16:12:11.09</time>
<name>2760</name>
<sym>Dot</sym>
</trkpt>
<trkpt lat="47.624217" lon="15.663640">
<ele>729.5</ele>
<desc>Speed 78.4 km/h Distance 51.86 km</desc>
<time>2012-09-18T16:12:12.10</time>
<name>2761</name>
<sym>Dot</sym>
</trkpt>
<trkpt lat="47.624227" lon="15.663358">
<ele>730.0</ele>
<desc>Speed 76.6 km/h Distance 51.88 km</desc>
<time>2012-09-18T16:12:13.09</time>
<name>2762</name>
<sym>Dot</sym>
</trkpt>
<trkpt lat="47.624238" lon="15.663093">
<ele>731.0</ele>
<desc>Speed 72.3 km/h Distance 51.90 km</desc>
<time>2012-09-18T16:12:14.09</time>
<name>2763</name>
<sym>Dot</sym>
</trkpt>
<trkpt lat="47.624255" lon="15.662845">
<ele>732.5</ele>
<desc>Speed 68.2 km/h Distance 51.92 km</desc>
<time>2012-09-18T16:12:15.08</time>
<name>2764</name>
<sym>Dot</sym>
</trkpt>
<trkpt lat="47.624287" lon="15.662622">
<ele>733.0</ele>
<desc>Speed 62.6 km/h Distance 51.94 km</desc>
<time>2012-09-18T16:12:16.08</time>
<name>2765</name>
<sym>Dot</sym>
</trkpt>
<trkpt lat="47.624318" lon="15.662402">
<ele>733.0</ele>
<desc>Speed 61.3 km/h Distance 51.95 km</desc>
<time>2012-09-18T16:12:17.06</time>
<name>2766</name>
<sym>Dot</sym>
</trkpt>
<trkpt lat="47.624362" lon="15.662193">
<ele>734.0</ele>
<desc>Speed 59.8 km/h Distance 51.97 km</desc>
<time>2012-09-18T16:12:18.06</time>
<name>2767</name>
<sym>Dot</sym>
</trkpt>
<trkpt lat="47.624418" lon="15.661988">
<ele>735.0</ele>
<desc>Speed 59.8 km/h Distance 51.99 km</desc>
<time>2012-09-18T16:12:19.06</time>
<name>2768</name>
<sym>Dot</sym>
</trkpt>
<trkpt lat="47.624485" lon="15.661790">
<ele>737.0</ele>
<desc>Speed 61.0 km/h Distance 52.00 km</desc>
<time>2012-09-18T16:12:20.05</time>
<name>2769</name>
<sym>Dot</sym>
</trkpt>
<trkpt lat="47.624567" lon="15.661600">
<ele>738.0</ele>
<desc>Speed 61.3 km/h Distance 52.02 km</desc>
<time>2012-09-18T16:12:21.04</time>
<name>2770</name>
<sym>Dot</sym>
</trkpt>
<trkpt lat="47.624662" lon="15.661427">
<ele>739.5</ele>
<desc>Speed 60.8 km/h Distance 52.04 km</desc>
<time>2012-09-18T16:12:22.04</time>
<name>2771</name>
<sym>Dot</sym>
</trkpt>
<trkpt lat="47.624770" lon="15.661268">
<ele>740.5</ele>
<desc>Speed 61.1 km/h Distance 52.05 km</desc>
<time>2012-09-18T16:12:23.03</time>
<name>2772</name>
<sym>Dot</sym>
</trkpt>
<trkpt lat="47.625040" lon="15.660942">
<ele>741.5</ele>
<desc>Speed 70.6 km/h Distance 52.09 km</desc>
<time>2012-09-18T16:12:25.04</time>
<name>2773</name>
<sym>Dot</sym>
</trkpt>
<trkpt lat="47.625182" lon="15.660753">
<ele>741.0</ele>
<desc>Speed 75.8 km/h Distance 52.11 km</desc>
<time>2012-09-18T16:12:26.03</time>
<name>2774</name>
<sym>Dot</sym>
</trkpt>
<trkpt lat="47.625595" lon="15.660308">
<ele>736.0</ele>
<desc>Speed 16.5 km/h Distance 52.17 km</desc>
<time>2012-09-18T16:12:31.23</time>
<name>2775</name>
<sym>Dot</sym>
</trkpt>
<trkpt lat="47.625595" lon="15.660282">
<ele>738.0</ele>
<desc>Speed 0.2 km/h Distance 52.17 km</desc>
<time>2012-09-18T16:12:34.22</time>
<name>2776</name>
<sym>Dot</sym>
</trkpt>
<trkpt lat="47.625597" lon="15.660282">
<ele>738.0</ele>
<desc>Speed 0.3 km/h Distance 52.17 km</desc>
<time>2012-09-18T16:12:35.21</time>
<name>2777</name>
<sym>Dot</sym>
</trkpt>
<trkpt lat="47.625597" lon="15.660283">
<ele>737.5</ele>
<desc>Speed 0.2 km/h Distance 52.17 km</desc>
<time>2012-09-18T16:12:36.22</time>
<name>2778</name>
<sym>Dot</sym>
</trkpt>
<trkpt lat="47.625598" lon="15.660285">
<ele>737.5</ele>
<desc>Speed 0.2 km/h Distance 52.17 km</desc>
<time>2012-09-18T16:12:37.21</time>
<name>2779</name>
<sym>Dot</sym>
</trkpt>
<trkpt lat="47.625600" lon="15.660287">
<ele>737.5</ele>
<desc>Speed 0.3 km/h Distance 52.17 km</desc>
<time>2012-09-18T16:12:38.22</time>
<name>2780</name>
<sym>Dot</sym>
</trkpt>
<trkpt lat="47.625602" lon="15.660287">
<ele>737.0</ele>
<desc>Speed 0.3 km/h Distance 52.17 km</desc>
<time>2012-09-18T16:12:39.21</time>
<name>2781</name>
<sym>Dot</sym>
</trkpt>
<trkpt lat="47.625603" lon="15.660288">
<ele>737.5</ele>
<desc>Speed 0.2 km/h Distance 52.17 km</desc>
<time>2012-09-18T16:12:40.21</time>
<name>2782</name>
<sym>Dot</sym>
</trkpt>
<trkpt lat="47.625603" lon="15.660290">
<ele>737.5</ele>
<desc>Speed 0.3 km/h Distance 52.17 km</desc>
<time>2012-09-18T16:12:41.20</time>
<name>2783</name>
<sym>Dot</sym>
</trkpt>
<trkpt lat="47.625605" lon="15.660290">
<ele>737.5</ele>
<desc>Speed 0.6 km/h Distance 52.17 km</desc>
<time>2012-09-18T16:12:42.19</time>
<name>2784</name>
<sym>Dot</sym>
</trkpt>
<trkpt lat="47.625605" lon="15.660290">
<ele>737.5</ele>
<desc>Speed 0.2 km/h Distance 52.17 km</desc>
<time>2012-09-18T16:12:43.19</time>
<name>2785</name>
<sym>Dot</sym>
</trkpt>
<trkpt lat="47.625605" lon="15.660290">
<ele>737.5</ele>
<desc>Speed 0.3 km/h Distance 52.17 km</desc>
<time>2012-09-18T16:12:44.18</time>
<name>2786</name>
<sym>Dot</sym>
</trkpt>
<trkpt lat="47.625605" lon="15.660290">
<ele>737.0</ele>
<desc>Speed 0.2 km/h Distance 52.17 km</desc>
<time>2012-09-18T16:12:45.18</time>
<name>2787</name>
<sym>Dot</sym>
</trkpt>
<trkpt lat="47.625605" lon="15.660290">
<ele>737.0</ele>
<desc>Speed 0.2 km/h Distance 52.17 km</desc>
<time>2012-09-18T16:12:46.17</time>
<name>2788</name>
<sym>Dot</sym>
</trkpt>
<trkpt lat="47.625605" lon="15.660290">
<ele>737.0</ele>
<desc>Speed 0.3 km/h Distance 52.17 km</desc>
<time>2012-09-18T16:12:47.17</time>
<name>2789</name>
<sym>Dot</sym>
</trkpt>
<trkpt lat="47.625605" lon="15.660290">
<ele>737.5</ele>
<desc>Speed 0.1 km/h Distance 52.17 km</desc>
<time>2012-09-18T16:12:48.16</time>
<name>2790</name>
<sym>Dot</sym>
</trkpt>
<trkpt lat="47.625607" lon="15.660290">
<ele>737.5</ele>
<desc>Speed 0.2 km/h Distance 52.18 km</desc>
<time>2012-09-18T16:12:49.16</time>
<name>2791</name>
<sym>Dot</sym>
</trkpt>
<trkpt lat="47.625607" lon="15.660290">
<ele>737.5</ele>
<desc>Speed 0.2 km/h Distance 52.18 km</desc>
<time>2012-09-18T16:12:50.15</time>
<name>2792</name>
<sym>Dot</sym>
</trkpt>
<trkpt lat="47.625607" lon="15.660290">
<ele>737.5</ele>
<desc>Speed 0.1 km/h Distance 52.18 km</desc>
<time>2012-09-18T16:12:51.15</time>
<name>2793</name>
<sym>Dot</sym>
</trkpt>
<trkpt lat="47.625607" lon="15.660290">
<ele>737.5</ele>
<desc>Speed 0.3 km/h Distance 52.18 km</desc>
<time>2012-09-18T16:12:52.15</time>
<name>2794</name>
<sym>Dot</sym>
</trkpt>
<trkpt lat="47.625607" lon="15.660290">
<ele>737.5</ele>
<desc>Speed 0.2 km/h Distance 52.18 km</desc>
<time>2012-09-18T16:12:53.14</time>
<name>2795</name>
<sym>Dot</sym>
</trkpt>
<trkpt lat="47.625607" lon="15.660290">
<ele>737.5</ele>
<desc>Speed 0.2 km/h Distance 52.18 km</desc>
<time>2012-09-18T16:12:54.14</time>
<name>2796</name>
<sym>Dot</sym>
</trkpt>
<trkpt lat="47.625607" lon="15.660290">
<ele>737.5</ele>
<desc>Speed 0.1 km/h Distance 52.18 km</desc>
<time>2012-09-18T16:12:55.13</time>
<name>2797</name>
<sym>Dot</sym>
</trkpt>
<trkpt lat="47.625607" lon="15.660290">
<ele>737.0</ele>
<desc>Speed 0.1 km/h Distance 52.18 km</desc>
<time>2012-09-18T16:12:56.13</time>
<name>2798</name>
<sym>Dot</sym>
</trkpt>
<trkpt lat="47.625607" lon="15.660290">
<ele>737.0</ele>
<desc>Speed 0.2 km/h Distance 52.18 km</desc>
<time>2012-09-18T16:12:57.13</time>
<name>2799</name>
<sym>Dot</sym>
</trkpt>
<trkpt lat="47.625607" lon="15.660290">
<ele>737.0</ele>
<desc>Speed 0.2 km/h Distance 52.18 km</desc>
<time>2012-09-18T16:12:58.13</time>
<name>2800</name>
<sym>Dot</sym>
</trkpt>
<trkpt lat="47.625608" lon="15.660260">
<ele>737.0</ele>
<desc>Speed 0.3 km/h Distance 52.18 km</desc>
<time>2012-09-18T16:27:03.03</time>
<name>2801</name>
<sym>Dot</sym>
</trkpt>
<trkpt lat="47.625608" lon="15.660260">
<ele>737.0</ele>
<desc>Speed 0.4 km/h Distance 52.18 km</desc>
<time>2012-09-18T16:27:04.02</time>
<name>2802</name>
<sym>Dot</sym>
</trkpt>
<trkpt lat="47.625608" lon="15.660260">
<ele>737.0</ele>
<desc>Speed 0.3 km/h Distance 52.18 km</desc>
<time>2012-09-18T16:27:05.02</time>
<name>2803</name>
<sym>Dot</sym>
</trkpt>
<trkpt lat="47.625608" lon="15.660262">
<ele>737.0</ele>
<desc>Speed 0.2 km/h Distance 52.18 km</desc>
<time>2012-09-18T16:27:06.01</time>
<name>2804</name>
<sym>Dot</sym>
</trkpt>
<trkpt lat="47.625608" lon="15.660262">
<ele>737.0</ele>
<desc>Speed 0.3 km/h Distance 52.18 km</desc>
<time>2012-09-18T16:27:07.01</time>
<name>2805</name>
<sym>Dot</sym>
</trkpt>
<trkpt lat="47.625608" lon="15.660262">
<ele>737.0</ele>
<desc>Speed 0.2 km/h Distance 52.18 km</desc>
<time>2012-09-18T16:27:08.01</time>
<name>2806</name>
<sym>Dot</sym>
</trkpt>
<trkpt lat="47.625608" lon="15.660262">
<ele>737.0</ele>
<desc>Speed 0.3 km/h Distance 52.18 km</desc>
<time>2012-09-18T16:27:09.01</time>
<name>2807</name>
<sym>Dot</sym>
</trkpt>
<trkpt lat="47.625608" lon="15.660262">
<ele>737.0</ele>
<desc>Speed 0.2 km/h Distance 52.18 km</desc>
<time>2012-09-18T16:27:10.00</time>
<name>2808</name>
<sym>Dot</sym>
</trkpt>
<trkpt lat="47.625608" lon="15.660262">
<ele>737.0</ele>
<desc>Speed 0.3 km/h Distance 52.18 km</desc>
<time>2012-09-18T16:27:11.00</time>
<name>2809</name>
<sym>Dot</sym>
</trkpt>
<trkpt lat="47.625608" lon="15.660262">
<ele>737.0</ele>
<desc>Speed 0.4 km/h Distance 52.18 km</desc>
<time>2012-09-18T16:27:12.00</time>
<name>2810</name>
<sym>Dot</sym>
</trkpt>
<trkpt lat="47.625608" lon="15.660262">
<ele>737.0</ele>
<desc>Speed 0.1 km/h Distance 52.18 km</desc>
<time>2012-09-18T16:27:13.05</time>
<name>2811</name>
<sym>Dot</sym>
</trkpt>
<trkpt lat="47.625608" lon="15.660262">
<ele>737.0</ele>
<desc>Speed 0.4 km/h Distance 52.18 km</desc>
<time>2012-09-18T16:27:13.99</time>
<name>2812</name>
<sym>Dot</sym>
</trkpt>
<trkpt lat="47.625608" lon="15.660262">
<ele>737.0</ele>
<desc>Speed 0.4 km/h Distance 52.18 km</desc>
<time>2012-09-18T16:27:14.98</time>
<name>2813</name>
<sym>Dot</sym>
</trkpt>
<trkpt lat="47.625608" lon="15.660262">
<ele>737.0</ele>
<desc>Speed 0.5 km/h Distance 52.18 km</desc>
<time>2012-09-18T16:27:15.98</time>
<name>2814</name>
<sym>Dot</sym>
</trkpt>
<trkpt lat="47.625608" lon="15.660262">
<ele>737.0</ele>
<desc>Speed 0.2 km/h Distance 52.18 km</desc>
<time>2012-09-18T16:27:16.98</time>
<name>2815</name>
<sym>Dot</sym>
</trkpt>
<trkpt lat="47.625608" lon="15.660262">
<ele>737.0</ele>
<desc>Speed 0.3 km/h Distance 52.18 km</desc>
<time>2012-09-18T16:27:17.97</time>
<name>2816</name>
<sym>Dot</sym>
</trkpt>
<trkpt lat="47.625608" lon="15.660262">
<ele>737.0</ele>
<desc>Speed 0.2 km/h Distance 52.18 km</desc>
<time>2012-09-18T16:27:18.96</time>
<name>2817</name>
<sym>Dot</sym>
</trkpt>
<trkpt lat="47.625608" lon="15.660262">
<ele>737.0</ele>
<desc>Speed 0.0 km/h Distance 52.18 km</desc>
<time>2012-09-18T16:27:19.96</time>
<name>2818</name>
<sym>Dot</sym>
</trkpt>
<trkpt lat="47.625608" lon="15.660262">
<ele>737.0</ele>
<desc>Speed 0.3 km/h Distance 52.18 km</desc>
<time>2012-09-18T16:27:20.96</time>
<name>2819</name>
<sym>Dot</sym>
</trkpt>
<trkpt lat="47.625608" lon="15.660262">
<ele>737.0</ele>
<desc>Speed 0.1 km/h Distance 52.18 km</desc>
<time>2012-09-18T16:27:21.96</time>
<name>2820</name>
<sym>Dot</sym>
</trkpt>
<trkpt lat="47.625608" lon="15.660262">
<ele>737.0</ele>
<desc>Speed 0.3 km/h Distance 52.18 km</desc>
<time>2012-09-18T16:27:22.96</time>
<name>2821</name>
<sym>Dot</sym>
</trkpt>
<trkpt lat="47.625608" lon="15.660262">
<ele>737.0</ele>
<desc>Speed 0.4 km/h Distance 52.18 km</desc>
<time>2012-09-18T16:27:23.95</time>
<name>2822</name>
<sym>Dot</sym>
</trkpt>
<trkpt lat="47.625608" lon="15.660262">
<ele>737.0</ele>
<desc>Speed 0.7 km/h Distance 52.18 km</desc>
<time>2012-09-18T16:27:24.95</time>
<name>2823</name>
<sym>Dot</sym>
</trkpt>
<trkpt lat="47.625613" lon="15.660242">
<ele>738.5</ele>
<desc>Speed 6.6 km/h Distance 52.18 km</desc>
<time>2012-09-18T16:27:25.95</time>
<name>2824</name>
<sym>Dot</sym>
</trkpt>
<trkpt lat="47.626060" lon="15.659685">
<ele>738.0</ele>
<desc>Speed 57.2 km/h Distance 52.24 km</desc>
<time>2012-09-18T16:27:32.04</time>
<name>2825</name>
<sym>Dot</sym>
</trkpt>
<trkpt lat="47.626185" lon="15.659578">
<ele>737.0</ele>
<desc>Speed 57.9 km/h Distance 52.26 km</desc>
<time>2012-09-18T16:27:33.03</time>
<name>2826</name>
<sym>Dot</sym>
</trkpt>
<trkpt lat="47.626490" lon="15.659383">
<ele>738.5</ele>
<desc>Speed 67.6 km/h Distance 52.29 km</desc>
<time>2012-09-18T16:27:35.10</time>
<name>2827</name>
<sym>Dot</sym>
</trkpt>
<trkpt lat="47.626660" lon="15.659310">
<ele>737.5</ele>
<desc>Speed 70.6 km/h Distance 52.31 km</desc>
<time>2012-09-18T16:27:36.03</time>
<name>2828</name>
<sym>Dot</sym>
</trkpt>
<trkpt lat="47.626840" lon="15.659248">
<ele>736.5</ele>
<desc>Speed 74.4 km/h Distance 52.33 km</desc>
<time>2012-09-18T16:27:37.01</time>
<name>2829</name>
<sym>Dot</sym>
</trkpt>
<trkpt lat="47.627038" lon="15.659200">
<ele>736.0</ele>
<desc>Speed 80.7 km/h Distance 52.36 km</desc>
<time>2012-09-18T16:27:38.02</time>
<name>2830</name>
<sym>Dot</sym>
</trkpt>
<trkpt lat="47.627250" lon="15.659167">
<ele>735.5</ele>
<desc>Speed 85.2 km/h Distance 52.38 km</desc>
<time>2012-09-18T16:27:39.01</time>
<name>2831</name>
<sym>Dot</sym>
</trkpt>
<trkpt lat="47.627470" lon="15.659147">
<ele>735.0</ele>
<desc>Speed 88.8 km/h Distance 52.41 km</desc>
<time>2012-09-18T16:27:40.00</time>
<name>2832</name>
<sym>Dot</sym>
</trkpt>
<trkpt lat="47.627702" lon="15.659132">
<ele>735.0</ele>
<desc>Speed 92.4 km/h Distance 52.43 km</desc>
<time>2012-09-18T16:27:41.00</time>
<name>2833</name>
<sym>Dot</sym>
</trkpt>
<trkpt lat="47.627930" lon="15.659117">
<ele>734.5</ele>
<desc>Speed 92.3 km/h Distance 52.46 km</desc>
<time>2012-09-18T16:27:41.99</time>
<name>2834</name>
<sym>Dot</sym>
</trkpt>
<trkpt lat="47.628162" lon="15.659102">
<ele>734.5</ele>
<desc>Speed 93.2 km/h Distance 52.48 km</desc>
<time>2012-09-18T16:27:42.99</time>
<name>2835</name>
<sym>Dot</sym>
</trkpt>
<trkpt lat="47.628395" lon="15.659082">
<ele>735.0</ele>
<desc>Speed 94.1 km/h Distance 52.51 km</desc>
<time>2012-09-18T16:27:43.98</time>
<name>2836</name>
<sym>Dot</sym>
</trkpt>
<trkpt lat="47.628630" lon="15.659063">
<ele>736.0</ele>
<desc>Speed 94.9 km/h Distance 52.53 km</desc>
<time>2012-09-18T16:27:44.97</time>
<name>2837</name>
<sym>Dot</sym>
</trkpt>
<trkpt lat="47.628868" lon="15.659043">
<ele>737.0</ele>
<desc>Speed 95.3 km/h Distance 52.56 km</desc>
<time>2012-09-18T16:27:46.00</time>
<name>2838</name>
<sym>Dot</sym>
</trkpt>
<trkpt lat="47.629105" lon="15.659025">
<ele>737.5</ele>
<desc>Speed 95.6 km/h Distance 52.59 km</desc>
<time>2012-09-18T16:27:46.97</time>
<name>2839</name>
<sym>Dot</sym>
</trkpt>
<trkpt lat="47.629337" lon="15.659008">
<ele>738.0</ele>
<desc>Speed 93.0 km/h Distance 52.61 km</desc>
<time>2012-09-18T16:27:47.95</time>
<name>2840</name>
<sym>Dot</sym>
</trkpt>
<trkpt lat="47.629557" lon="15.658995">
<ele>738.0</ele>
<desc>Speed 88.5 km/h Distance 52.64 km</desc>
<time>2012-09-18T16:27:48.95</time>
<name>2841</name>
<sym>Dot</sym>
</trkpt>
<trkpt lat="47.629765" lon="15.658983">
<ele>738.5</ele>
<desc>Speed 83.8 km/h Distance 52.66 km</desc>
<time>2012-09-18T16:27:49.95</time>
<name>2842</name>
<sym>Dot</sym>
</trkpt>
<trkpt lat="47.629965" lon="15.658953">
<ele>739.5</ele>
<desc>Speed 81.2 km/h Distance 52.68 km</desc>
<time>2012-09-18T16:27:50.94</time>
<name>2843</name>
<sym>Dot</sym>
</trkpt>
<trkpt lat="47.630158" lon="15.658892">
<ele>740.0</ele>
<desc>Speed 79.5 km/h Distance 52.71 km</desc>
<time>2012-09-18T16:27:51.94</time>
<name>2844</name>
<sym>Dot</sym>
</trkpt>
<trkpt lat="47.630323" lon="15.658753">
<ele>741.0</ele>
<desc>Speed 76.1 km/h Distance 52.73 km</desc>
<time>2012-09-18T16:27:52.93</time>
<name>2845</name>
<sym>Dot</sym>
</trkpt>
<trkpt lat="47.630472" lon="15.658622">
<ele>742.0</ele>
<desc>Speed 69.4 km/h Distance 52.75 km</desc>
<time>2012-09-18T16:27:53.93</time>
<name>2846</name>
<sym>Dot</sym>
</trkpt>
<trkpt lat="47.630612" lon="15.658470">
<ele>742.0</ele>
<desc>Speed 69.5 km/h Distance 52.77 km</desc>
<time>2012-09-18T16:27:54.93</time>
<name>2847</name>
<sym>Dot</sym>
</trkpt>
<trkpt lat="47.630732" lon="15.658303">
<ele>742.0</ele>
<desc>Speed 66.1 km/h Distance 52.78 km</desc>
<time>2012-09-18T16:27:55.92</time>
<name>2848</name>
<sym>Dot</sym>
</trkpt>
<trkpt lat="47.630838" lon="15.658132">
<ele>741.5</ele>
<desc>Speed 63.4 km/h Distance 52.80 km</desc>
<time>2012-09-18T16:27:56.96</time>
<name>2849</name>
<sym>Dot</sym>
</trkpt>
<trkpt lat="47.630938" lon="15.657958">
<ele>741.0</ele>
<desc>Speed 62.0 km/h Distance 52.82 km</desc>
<time>2012-09-18T16:27:57.90</time>
<name>2850</name>
<sym>Dot</sym>
</trkpt>
<trkpt lat="47.631033" lon="15.657782">
<ele>740.5</ele>
<desc>Speed 61.0 km/h Distance 52.84 km</desc>
<time>2012-09-18T16:27:58.90</time>
<name>2851</name>
<sym>Dot</sym>
</trkpt>
<trkpt lat="47.631123" lon="15.657602">
<ele>740.5</ele>
<desc>Speed 60.3 km/h Distance 52.85 km</desc>
<time>2012-09-18T16:27:59.90</time>
<name>2852</name>
<sym>Dot</sym>
</trkpt>
<trkpt lat="47.631207" lon="15.657422">
<ele>740.5</ele>
<desc>Speed 59.4 km/h Distance 52.87 km</desc>
<time>2012-09-18T16:28:00.90</time>
<name>2853</name>
<sym>Dot</sym>
</trkpt>
<trkpt lat="47.631288" lon="15.657243">
<ele>740.5</ele>
<desc>Speed 58.2 km/h Distance 52.88 km</desc>
<time>2012-09-18T16:28:01.89</time>
<name>2854</name>
<sym>Dot</sym>
</trkpt>
<trkpt lat="47.631372" lon="15.657077">
<ele>740.5</ele>
<desc>Speed 56.6 km/h Distance 52.90 km</desc>
<time>2012-09-18T16:28:02.89</time>
<name>2855</name>
<sym>Dot</sym>
</trkpt>
<trkpt lat="47.631450" lon="15.656907">
<ele>740.5</ele>
<desc>Speed 55.3 km/h Distance 52.92 km</desc>
<time>2012-09-18T16:28:03.88</time>
<name>2856</name>
<sym>Dot</sym>
</trkpt>
<trkpt lat="47.631527" lon="15.656747">
<ele>740.5</ele>
<desc>Speed 53.6 km/h Distance 52.93 km</desc>
<time>2012-09-18T16:28:04.89</time>
<name>2857</name>
<sym>Dot</sym>
</trkpt>
<trkpt lat="47.631603" lon="15.656592">
<ele>740.5</ele>
<desc>Speed 52.3 km/h Distance 52.94 km</desc>
<time>2012-09-18T16:28:05.87</time>
<name>2858</name>
<sym>Dot</sym>
</trkpt>
<trkpt lat="47.631678" lon="15.656433">
<ele>740.5</ele>
<desc>Speed 52.3 km/h Distance 52.96 km</desc>
<time>2012-09-18T16:28:06.87</time>
<name>2859</name>
<sym>Dot</sym>
</trkpt>
<trkpt lat="47.631757" lon="15.656282">
<ele>740.5</ele>
<desc>Speed 51.9 km/h Distance 52.97 km</desc>
<time>2012-09-18T16:28:07.90</time>
<name>2860</name>
<sym>Dot</sym>
</trkpt>
<trkpt lat="47.631835" lon="15.656127">
<ele>740.5</ele>
<desc>Speed 52.4 km/h Distance 52.99 km</desc>
<time>2012-09-18T16:28:08.86</time>
<name>2861</name>
<sym>Dot</sym>
</trkpt>
<trkpt lat="47.631915" lon="15.655973">
<ele>740.5</ele>
<desc>Speed 52.6 km/h Distance 53.00 km</desc>
<time>2012-09-18T16:28:09.86</time>
<name>2862</name>
<sym>Dot</sym>
</trkpt>
<trkpt lat="47.631998" lon="15.655825">
<ele>740.5</ele>
<desc>Speed 52.4 km/h Distance 53.02 km</desc>
<time>2012-09-18T16:28:10.85</time>
<name>2863</name>
<sym>Dot</sym>
</trkpt>
<trkpt lat="47.632087" lon="15.655683">
<ele>741.0</ele>
<desc>Speed 52.2 km/h Distance 53.03 km</desc>
<time>2012-09-18T16:28:11.84</time>
<name>2864</name>
<sym>Dot</sym>
</trkpt>
<trkpt lat="47.632180" lon="15.655550">
<ele>740.5</ele>
<desc>Speed 51.9 km/h Distance 53.05 km</desc>
<time>2012-09-18T16:28:12.83</time>
<name>2865</name>
<sym>Dot</sym>
</trkpt>
<trkpt lat="47.632275" lon="15.655420">
<ele>740.5</ele>
<desc>Speed 51.9 km/h Distance 53.06 km</desc>
<time>2012-09-18T16:28:13.82</time>
<name>2866</name>
<sym>Dot</sym>
</trkpt>
<trkpt lat="47.632377" lon="15.655297">
<ele>740.5</ele>
<desc>Speed 52.3 km/h Distance 53.08 km</desc>
<time>2012-09-18T16:28:14.82</time>
<name>2867</name>
<sym>Dot</sym>
</trkpt>
<trkpt lat="47.632478" lon="15.655175">
<ele>740.0</ele>
<desc>Speed 52.5 km/h Distance 53.09 km</desc>
<time>2012-09-18T16:28:15.81</time>
<name>2868</name>
<sym>Dot</sym>
</trkpt>
<trkpt lat="47.632592" lon="15.655075">
<ele>739.5</ele>
<desc>Speed 52.4 km/h Distance 53.10 km</desc>
<time>2012-09-18T16:28:16.87</time>
<name>2869</name>
<sym>Dot</sym>
</trkpt>
<trkpt lat="47.632710" lon="15.654985">
<ele>739.5</ele>
<desc>Speed 53.0 km/h Distance 53.12 km</desc>
<time>2012-09-18T16:28:17.80</time>
<name>2870</name>
<sym>Dot</sym>
</trkpt>
<trkpt lat="47.632843" lon="15.654910">
<ele>739.5</ele>
<desc>Speed 56.9 km/h Distance 53.14 km</desc>
<time>2012-09-18T16:28:18.80</time>
<name>2871</name>
<sym>Dot</sym>
</trkpt>
<trkpt lat="47.633595" lon="15.654692">
<ele>741.0</ele>
<desc>Speed 80.4 km/h Distance 53.22 km</desc>
<time>2012-09-18T16:28:23.01</time>
<name>2872</name>
<sym>Dot</sym>
</trkpt>
<trkpt lat="47.633797" lon="15.654615">
<ele>740.0</ele>
<desc>Speed 83.5 km/h Distance 53.24 km</desc>
<time>2012-09-18T16:28:24.01</time>
<name>2873</name>
<sym>Dot</sym>
</trkpt>
<trkpt lat="47.633987" lon="15.654477">
<ele>742.0</ele>
<desc>Speed 84.7 km/h Distance 53.27 km</desc>
<time>2012-09-18T16:28:25.00</time>
<name>2874</name>
<sym>Dot</sym>
</trkpt>
<trkpt lat="47.634167" lon="15.654295">
<ele>742.0</ele>
<desc>Speed 86.6 km/h Distance 53.29 km</desc>
<time>2012-09-18T16:28:26.01</time>
<name>2875</name>
<sym>Dot</sym>
</trkpt>
<trkpt lat="47.634338" lon="15.654097">
<ele>742.0</ele>
<desc>Speed 87.4 km/h Distance 53.32 km</desc>
<time>2012-09-18T16:28:27.01</time>
<name>2876</name>
<sym>Dot</sym>
</trkpt>
<trkpt lat="47.634487" lon="15.653843">
<ele>742.0</ele>
<desc>Speed 90.4 km/h Distance 53.34 km</desc>
<time>2012-09-18T16:28:28.00</time>
<name>2877</name>
<sym>Dot</sym>
</trkpt>
<trkpt lat="47.634620" lon="15.653545">
<ele>742.5</ele>
<desc>Speed 96.5 km/h Distance 53.37 km</desc>
<time>2012-09-18T16:28:29.00</time>
<name>2878</name>
<sym>Dot</sym>
</trkpt>
<trkpt lat="47.634765" lon="15.653247">
<ele>742.0</ele>
<desc>Speed 99.9 km/h Distance 53.40 km</desc>
<time>2012-09-18T16:28:29.99</time>
<name>2879</name>
<sym>Dot</sym>
</trkpt>
<trkpt lat="47.634910" lon="15.652935">
<ele>742.0</ele>
<desc>Speed 102 km/h Distance 53.42 km</desc>
<time>2012-09-18T16:28:31.33</time>
<name>2880</name>
<sym>Dot</sym>
</trkpt>
<trkpt lat="47.635055" lon="15.652618">
<ele>742.0</ele>
<desc>Speed 103 km/h Distance 53.45 km</desc>
<time>2012-09-18T16:28:32.02</time>
<name>2881</name>
<sym>Dot</sym>
</trkpt>
<trkpt lat="47.635207" lon="15.652307">
<ele>742.0</ele>
<desc>Speed 104 km/h Distance 53.48 km</desc>
<time>2012-09-18T16:28:32.98</time>
<name>2882</name>
<sym>Dot</sym>
</trkpt>
<trkpt lat="47.635365" lon="15.651998">
<ele>742.0</ele>
<desc>Speed 105 km/h Distance 53.51 km</desc>
<time>2012-09-18T16:28:33.97</time>
<name>2883</name>
<sym>Dot</sym>
</trkpt>
<trkpt lat="47.635527" lon="15.651697">
<ele>741.5</ele>
<desc>Speed 105 km/h Distance 53.54 km</desc>
<time>2012-09-18T16:28:34.97</time>
<name>2884</name>
<sym>Dot</sym>
</trkpt>
<trkpt lat="47.635692" lon="15.651400">
<ele>741.5</ele>
<desc>Speed 104 km/h Distance 53.57 km</desc>
<time>2012-09-18T16:28:35.97</time>
<name>2885</name>
<sym>Dot</sym>
</trkpt>
<trkpt lat="47.635860" lon="15.651103">
<ele>741.0</ele>
<desc>Speed 104 km/h Distance 53.60 km</desc>
<time>2012-09-18T16:28:36.96</time>
<name>2886</name>
<sym>Dot</sym>
</trkpt>
<trkpt lat="47.636025" lon="15.650808">
<ele>741.0</ele>
<desc>Speed 104 km/h Distance 53.63 km</desc>
<time>2012-09-18T16:28:37.96</time>
<name>2887</name>
<sym>Dot</sym>
</trkpt>
<trkpt lat="47.636190" lon="15.650513">
<ele>740.5</ele>
<desc>Speed 104 km/h Distance 53.65 km</desc>
<time>2012-09-18T16:28:38.96</time>
<name>2888</name>
<sym>Dot</sym>
</trkpt>
<trkpt lat="47.636358" lon="15.650217">
<ele>740.5</ele>
<desc>Speed 105 km/h Distance 53.68 km</desc>
<time>2012-09-18T16:28:39.95</time>
<name>2889</name>
<sym>Dot</sym>
</trkpt>
<trkpt lat="47.636530" lon="15.649918">
<ele>740.5</ele>
<desc>Speed 106 km/h Distance 53.71 km</desc>
<time>2012-09-18T16:28:40.95</time>
<name>2890</name>
<sym>Dot</sym>
</trkpt>
<trkpt lat="47.636700" lon="15.649620">
<ele>740.5</ele>
<desc>Speed 106 km/h Distance 53.74 km</desc>
<time>2012-09-18T16:28:41.95</time>
<name>2891</name>
<sym>Dot</sym>
</trkpt>
<trkpt lat="47.636870" lon="15.649318">
<ele>740.0</ele>
<desc>Speed 107 km/h Distance 53.77 km</desc>
<time>2012-09-18T16:28:42.94</time>
<name>2892</name>
<sym>Dot</sym>
</trkpt>
<trkpt lat="47.637040" lon="15.649017">
<ele>740.5</ele>
<desc>Speed 106 km/h Distance 53.80 km</desc>
<time>2012-09-18T16:28:43.94</time>
<name>2893</name>
<sym>Dot</sym>
</trkpt>
<trkpt lat="47.637203" lon="15.648722">
<ele>740.0</ele>
<desc>Speed 104 km/h Distance 53.83 km</desc>
<time>2012-09-18T16:28:44.93</time>
<name>2894</name>
<sym>Dot</sym>
</trkpt>
<trkpt lat="47.637362" lon="15.648435">
<ele>740.5</ele>
<desc>Speed 101 km/h Distance 53.86 km</desc>
<time>2012-09-18T16:28:45.93</time>
<name>2895</name>
<sym>Dot</sym>
</trkpt>
<trkpt lat="47.637518" lon="15.648143">
<ele>740.5</ele>
<desc>Speed 101 km/h Distance 53.89 km</desc>
<time>2012-09-18T16:28:46.92</time>
<name>2896</name>
<sym>Dot</sym>
</trkpt>
<trkpt lat="47.637670" lon="15.647847">
<ele>740.5</ele>
<desc>Speed 101 km/h Distance 53.91 km</desc>
<time>2012-09-18T16:28:47.92</time>
<name>2897</name>
<sym>Dot</sym>
</trkpt>
<trkpt lat="47.637807" lon="15.647548">
<ele>741.0</ele>
<desc>Speed 97.8 km/h Distance 53.94 km</desc>
<time>2012-09-18T16:28:48.91</time>
<name>2898</name>
<sym>Dot</sym>
</trkpt>
<trkpt lat="47.637925" lon="15.647242">
<ele>741.5</ele>
<desc>Speed 95.5 km/h Distance 53.97 km</desc>
<time>2012-09-18T16:28:49.91</time>
<name>2899</name>
<sym>Dot</sym>
</trkpt>
<trkpt lat="47.638030" lon="15.646922">
<ele>741.0</ele>
<desc>Speed 96.5 km/h Distance 53.99 km</desc>
<time>2012-09-18T16:28:50.90</time>
<name>2900</name>
<sym>Dot</sym>
</trkpt>
<trkpt lat="47.638112" lon="15.646580">
<ele>742.0</ele>
<desc>Speed 98.6 km/h Distance 54.02 km</desc>
<time>2012-09-18T16:28:51.90</time>
<name>2901</name>
<sym>Dot</sym>
</trkpt>
<trkpt lat="47.638162" lon="15.646227">
<ele>741.0</ele>
<desc>Speed 98.1 km/h Distance 54.05 km</desc>
<time>2012-09-18T16:28:52.90</time>
<name>2902</name>
<sym>Dot</sym>
</trkpt>
<trkpt lat="47.638198" lon="15.645872">
<ele>739.5</ele>
<desc>Speed 97.3 km/h Distance 54.08 km</desc>
<time>2012-09-18T16:28:53.91</time>
<name>2903</name>
<sym>Dot</sym>
</trkpt>
<trkpt lat="47.638237" lon="15.645503">
<ele>740.0</ele>
<desc>Speed 101 km/h Distance 54.10 km</desc>
<time>2012-09-18T16:28:54.90</time>
<name>2904</name>
<sym>Dot</sym>
</trkpt>
<trkpt lat="47.638267" lon="15.645132">
<ele>740.5</ele>
<desc>Speed 102 km/h Distance 54.13 km</desc>
<time>2012-09-18T16:28:55.90</time>
<name>2905</name>
<sym>Dot</sym>
</trkpt>
<trkpt lat="47.638285" lon="15.644775">
<ele>740.5</ele>
<desc>Speed 97.5 km/h Distance 54.16 km</desc>
<time>2012-09-18T16:28:56.89</time>
<name>2906</name>
<sym>Dot</sym>
</trkpt>
<trkpt lat="47.638302" lon="15.644440">
<ele>740.0</ele>
<desc>Speed 91.8 km/h Distance 54.18 km</desc>
<time>2012-09-18T16:28:57.89</time>
<name>2907</name>
<sym>Dot</sym>
</trkpt>
<trkpt lat="47.638323" lon="15.644118">
<ele>740.0</ele>
<desc>Speed 87.7 km/h Distance 54.21 km</desc>
<time>2012-09-18T16:28:58.88</time>
<name>2908</name>
<sym>Dot</sym>
</trkpt>
<trkpt lat="47.638353" lon="15.643800">
<ele>739.5</ele>
<desc>Speed 87.2 km/h Distance 54.23 km</desc>
<time>2012-09-18T16:28:59.88</time>
<name>2909</name>
<sym>Dot</sym>
</trkpt>
<trkpt lat="47.638402" lon="15.643485">
<ele>739.5</ele>
<desc>Speed 87.6 km/h Distance 54.26 km</desc>
<time>2012-09-18T16:29:00.87</time>
<name>2910</name>
<sym>Dot</sym>
</trkpt>
<trkpt lat="47.638475" lon="15.643175">
<ele>739.0</ele>
<desc>Speed 88.7 km/h Distance 54.28 km</desc>
<time>2012-09-18T16:29:01.86</time>
<name>2911</name>
<sym>Dot</sym>
</trkpt>
<trkpt lat="47.638590" lon="15.642893">
<ele>739.0</ele>
<desc>Speed 89.2 km/h Distance 54.31 km</desc>
<time>2012-09-18T16:29:02.86</time>
<name>2912</name>
<sym>Dot</sym>
</trkpt>
<trkpt lat="47.638720" lon="15.642632">
<ele>738.5</ele>
<desc>Speed 87.9 km/h Distance 54.33 km</desc>
<time>2012-09-18T16:29:03.86</time>
<name>2913</name>
<sym>Dot</sym>
</trkpt>
<trkpt lat="47.638873" lon="15.642380">
<ele>739.0</ele>
<desc>Speed 91.5 km/h Distance 54.36 km</desc>
<time>2012-09-18T16:29:04.85</time>
<name>2914</name>
<sym>Dot</sym>
</trkpt>
<trkpt lat="47.639057" lon="15.642155">
<ele>737.5</ele>
<desc>Speed 95.3 km/h Distance 54.38 km</desc>
<time>2012-09-18T16:29:05.85</time>
<name>2915</name>
<sym>Dot</sym>
</trkpt>
<trkpt lat="47.639255" lon="15.641982">
<ele>738.0</ele>
<desc>Speed 91.4 km/h Distance 54.41 km</desc>
<time>2012-09-18T16:29:06.84</time>
<name>2916</name>
<sym>Dot</sym>
</trkpt>
<trkpt lat="47.639462" lon="15.641830">
<ele>740.0</ele>
<desc>Speed 92.2 km/h Distance 54.43 km</desc>
<time>2012-09-18T16:29:07.85</time>
<name>2917</name>
<sym>Dot</sym>
</trkpt>
<trkpt lat="47.639690" lon="15.641723">
<ele>740.0</ele>
<desc>Speed 95.3 km/h Distance 54.46 km</desc>
<time>2012-09-18T16:29:08.84</time>
<name>2918</name>
<sym>Dot</sym>
</trkpt>
<trkpt lat="47.639937" lon="15.641668">
<ele>740.0</ele>
<desc>Speed 99.7 km/h Distance 54.49 km</desc>
<time>2012-09-18T16:29:09.84</time>
<name>2919</name>
<sym>Dot</sym>
</trkpt>
<trkpt lat="47.640190" lon="15.641632">
<ele>742.0</ele>
<desc>Speed 102 km/h Distance 54.52 km</desc>
<time>2012-09-18T16:29:10.83</time>
<name>2920</name>
<sym>Dot</sym>
</trkpt>
<trkpt lat="47.640743" lon="15.641618">
<ele>739.5</ele>
<desc>Speed 110 km/h Distance 54.58 km</desc>
<time>2012-09-18T16:29:12.83</time>
<name>2921</name>
<sym>Dot</sym>
</trkpt>
<trkpt lat="47.641010" lon="15.641607">
<ele>740.0</ele>
<desc>Speed 107 km/h Distance 54.61 km</desc>
<time>2012-09-18T16:29:13.82</time>
<name>2922</name>
<sym>Dot</sym>
</trkpt>
<trkpt lat="47.641280" lon="15.641600">
<ele>740.0</ele>
<desc>Speed 108 km/h Distance 54.64 km</desc>
<time>2012-09-18T16:29:14.82</time>
<name>2923</name>
<sym>Dot</sym>
</trkpt>
<trkpt lat="47.641552" lon="15.641597">
<ele>740.5</ele>
<desc>Speed 109 km/h Distance 54.67 km</desc>
<time>2012-09-18T16:29:15.82</time>
<name>2924</name>
<sym>Dot</sym>
</trkpt>
<trkpt lat="47.641825" lon="15.641593">
<ele>740.5</ele>
<desc>Speed 110 km/h Distance 54.70 km</desc>
<time>2012-09-18T16:29:16.80</time>
<name>2925</name>
<sym>Dot</sym>
</trkpt>
<trkpt lat="47.642100" lon="15.641588">
<ele>740.5</ele>
<desc>Speed 110 km/h Distance 54.73 km</desc>
<time>2012-09-18T16:29:17.80</time>
<name>2926</name>
<sym>Dot</sym>
</trkpt>
<trkpt lat="47.642375" lon="15.641580">
<ele>740.5</ele>
<desc>Speed 110 km/h Distance 54.76 km</desc>
<time>2012-09-18T16:29:18.80</time>
<name>2927</name>
<sym>Dot</sym>
</trkpt>
<trkpt lat="47.642647" lon="15.641570">
<ele>741.0</ele>
<desc>Speed 110 km/h Distance 54.79 km</desc>
<time>2012-09-18T16:29:19.80</time>
<name>2928</name>
<sym>Dot</sym>
</trkpt>
<trkpt lat="47.642915" lon="15.641560">
<ele>741.5</ele>
<desc>Speed 108 km/h Distance 54.82 km</desc>
<time>2012-09-18T16:29:20.79</time>
<name>2929</name>
<sym>Dot</sym>
</trkpt>
<trkpt lat="47.643182" lon="15.641550">
<ele>742.0</ele>
<desc>Speed 107 km/h Distance 54.85 km</desc>
<time>2012-09-18T16:29:21.80</time>
<name>2930</name>
<sym>Dot</sym>
</trkpt>
<trkpt lat="47.643447" lon="15.641542">
<ele>742.5</ele>
<desc>Speed 107 km/h Distance 54.88 km</desc>
<time>2012-09-18T16:29:22.78</time>
<name>2931</name>
<sym>Dot</sym>
</trkpt>
<trkpt lat="47.643713" lon="15.641533">
<ele>743.0</ele>
<desc>Speed 107 km/h Distance 54.91 km</desc>
<time>2012-09-18T16:29:23.77</time>
<name>2932</name>
<sym>Dot</sym>
</trkpt>
<trkpt lat="47.643975" lon="15.641523">
<ele>743.5</ele>
<desc>Speed 106 km/h Distance 54.94 km</desc>
<time>2012-09-18T16:29:24.78</time>
<name>2933</name>
<sym>Dot</sym>
</trkpt>
<trkpt lat="47.644238" lon="15.641517">
<ele>743.5</ele>
<desc>Speed 105 km/h Distance 54.97 km</desc>
<time>2012-09-18T16:29:25.77</time>
<name>2934</name>
<sym>Dot</sym>
</trkpt>
<trkpt lat="47.644497" lon="15.641508">
<ele>744.0</ele>
<desc>Speed 104 km/h Distance 55.00 km</desc>
<time>2012-09-18T16:29:26.77</time>
<name>2935</name>
<sym>Dot</sym>
</trkpt>
<trkpt lat="47.644755" lon="15.641502">
<ele>744.0</ele>
<desc>Speed 103 km/h Distance 55.02 km</desc>
<time>2012-09-18T16:29:27.77</time>
<name>2936</name>
<sym>Dot</sym>
</trkpt>
<trkpt lat="47.645008" lon="15.641490">
<ele>743.5</ele>
<desc>Speed 102 km/h Distance 55.05 km</desc>
<time>2012-09-18T16:29:28.76</time>
<name>2937</name>
<sym>Dot</sym>
</trkpt>
<trkpt lat="47.645263" lon="15.641480">
<ele>743.5</ele>
<desc>Speed 101 km/h Distance 55.08 km</desc>
<time>2012-09-18T16:29:29.75</time>
<name>2938</name>
<sym>Dot</sym>
</trkpt>
<trkpt lat="47.645503" lon="15.641472">
<ele>744.0</ele>
<desc>Speed 96.4 km/h Distance 55.11 km</desc>
<time>2012-09-18T16:29:30.75</time>
<name>2939</name>
<sym>Dot</sym>
</trkpt>
<trkpt lat="47.645740" lon="15.641453">
<ele>744.0</ele>
<desc>Speed 94.7 km/h Distance 55.13 km</desc>
<time>2012-09-18T16:29:31.74</time>
<name>2940</name>
<sym>Dot</sym>
</trkpt>
<trkpt lat="47.645973" lon="15.641422">
<ele>744.0</ele>
<desc>Speed 93.5 km/h Distance 55.16 km</desc>
<time>2012-09-18T16:29:32.74</time>
<name>2941</name>
<sym>Dot</sym>
</trkpt>
<trkpt lat="47.646198" lon="15.641368">
<ele>744.0</ele>
<desc>Speed 91.3 km/h Distance 55.18 km</desc>
<time>2012-09-18T16:29:33.73</time>
<name>2942</name>
<sym>Dot</sym>
</trkpt>
<trkpt lat="47.646402" lon="15.641287">
<ele>742.5</ele>
<desc>Speed 84.7 km/h Distance 55.21 km</desc>
<time>2012-09-18T16:29:34.73</time>
<name>2943</name>
<sym>Dot</sym>
</trkpt>
<trkpt lat="47.646587" lon="15.641165">
<ele>743.0</ele>
<desc>Speed 80.6 km/h Distance 55.23 km</desc>
<time>2012-09-18T16:29:35.72</time>
<name>2944</name>
<sym>Dot</sym>
</trkpt>
<trkpt lat="47.646752" lon="15.641015">
<ele>743.0</ele>
<desc>Speed 77.6 km/h Distance 55.25 km</desc>
<time>2012-09-18T16:29:36.72</time>
<name>2945</name>
<sym>Dot</sym>
</trkpt>
<trkpt lat="47.646900" lon="15.640825">
<ele>744.5</ele>
<desc>Speed 78.8 km/h Distance 55.27 km</desc>
<time>2012-09-18T16:29:37.72</time>
<name>2946</name>
<sym>Dot</sym>
</trkpt>
<trkpt lat="47.647032" lon="15.640590">
<ele>744.5</ele>
<desc>Speed 82.4 km/h Distance 55.30 km</desc>
<time>2012-09-18T16:29:38.72</time>
<name>2947</name>
<sym>Dot</sym>
</trkpt>
<trkpt lat="47.647143" lon="15.640342">
<ele>745.0</ele>
<desc>Speed 81.1 km/h Distance 55.32 km</desc>
<time>2012-09-18T16:29:39.71</time>
<name>2948</name>
<sym>Dot</sym>
</trkpt>
<trkpt lat="47.647232" lon="15.640067">
<ele>744.5</ele>
<desc>Speed 82.0 km/h Distance 55.34 km</desc>
<time>2012-09-18T16:29:40.70</time>
<name>2949</name>
<sym>Dot</sym>
</trkpt>
<trkpt lat="47.647288" lon="15.639768">
<ele>744.0</ele>
<desc>Speed 83.8 km/h Distance 55.37 km</desc>
<time>2012-09-18T16:29:41.69</time>
<name>2950</name>
<sym>Dot</sym>
</trkpt>
<trkpt lat="47.647318" lon="15.639453">
<ele>745.5</ele>
<desc>Speed 86.2 km/h Distance 55.39 km</desc>
<time>2012-09-18T16:29:42.69</time>
<name>2951</name>
<sym>Dot</sym>
</trkpt>
<trkpt lat="47.647315" lon="15.639138">
<ele>746.0</ele>
<desc>Speed 85.4 km/h Distance 55.41 km</desc>
<time>2012-09-18T16:29:43.68</time>
<name>2952</name>
<sym>Dot</sym>
</trkpt>
<trkpt lat="47.647283" lon="15.638823">
<ele>746.0</ele>
<desc>Speed 86.4 km/h Distance 55.44 km</desc>
<time>2012-09-18T16:29:44.67</time>
<name>2953</name>
<sym>Dot</sym>
</trkpt>
<trkpt lat="47.647233" lon="15.638503">
<ele>746.5</ele>
<desc>Speed 88.7 km/h Distance 55.46 km</desc>
<time>2012-09-18T16:29:45.67</time>
<name>2954</name>
<sym>Dot</sym>
</trkpt>
<trkpt lat="47.647170" lon="15.638175">
<ele>746.5</ele>
<desc>Speed 92.7 km/h Distance 55.49 km</desc>
<time>2012-09-18T16:29:46.66</time>
<name>2955</name>
<sym>Dot</sym>
</trkpt>
<trkpt lat="47.647100" lon="15.637840">
<ele>746.5</ele>
<desc>Speed 95.2 km/h Distance 55.51 km</desc>
<time>2012-09-18T16:29:47.65</time>
<name>2956</name>
<sym>Dot</sym>
</trkpt>
<trkpt lat="47.647030" lon="15.637513">
<ele>746.0</ele>
<desc>Speed 93.2 km/h Distance 55.54 km</desc>
<time>2012-09-18T16:29:48.65</time>
<name>2957</name>
<sym>Dot</sym>
</trkpt>
<trkpt lat="47.646960" lon="15.637192">
<ele>746.0</ele>
<desc>Speed 91.8 km/h Distance 55.56 km</desc>
<time>2012-09-18T16:29:49.66</time>
<name>2958</name>
<sym>Dot</sym>
</trkpt>
<trkpt lat="47.646890" lon="15.636872">
<ele>746.5</ele>
<desc>Speed 91.2 km/h Distance 55.59 km</desc>
<time>2012-09-18T16:29:50.66</time>
<name>2959</name>
<sym>Dot</sym>
</trkpt>
<trkpt lat="47.646825" lon="15.636553">
<ele>746.0</ele>
<desc>Speed 90.4 km/h Distance 55.61 km</desc>
<time>2012-09-18T16:29:51.66</time>
<name>2960</name>
<sym>Dot</sym>
</trkpt>
<trkpt lat="47.646763" lon="15.636235">
<ele>746.5</ele>
<desc>Speed 89.8 km/h Distance 55.64 km</desc>
<time>2012-09-18T16:29:52.65</time>
<name>2961</name>
<sym>Dot</sym>
</trkpt>
<trkpt lat="47.646700" lon="15.635917">
<ele>746.5</ele>
<desc>Speed 89.8 km/h Distance 55.66 km</desc>
<time>2012-09-18T16:29:53.65</time>
<name>2962</name>
<sym>Dot</sym>
</trkpt>
<trkpt lat="47.646637" lon="15.635592">
<ele>746.5</ele>
<desc>Speed 91.3 km/h Distance 55.69 km</desc>
<time>2012-09-18T16:29:54.65</time>
<name>2963</name>
<sym>Dot</sym>
</trkpt>
<trkpt lat="47.646575" lon="15.635267">
<ele>747.0</ele>
<desc>Speed 91.9 km/h Distance 55.72 km</desc>
<time>2012-09-18T16:29:55.64</time>
<name>2964</name>
<sym>Dot</sym>
</trkpt>
<trkpt lat="47.646517" lon="15.634943">
<ele>747.5</ele>
<desc>Speed 90.4 km/h Distance 55.74 km</desc>
<time>2012-09-18T16:29:56.63</time>
<name>2965</name>
<sym>Dot</sym>
</trkpt>
<trkpt lat="47.646465" lon="15.634637">
<ele>748.0</ele>
<desc>Speed 85.6 km/h Distance 55.76 km</desc>
<time>2012-09-18T16:29:57.62</time>
<name>2966</name>
<sym>Dot</sym>
</trkpt>
<trkpt lat="47.646420" lon="15.634347">
<ele>748.0</ele>
<desc>Speed 80.6 km/h Distance 55.79 km</desc>
<time>2012-09-18T16:29:58.62</time>
<name>2967</name>
<sym>Dot</sym>
</trkpt>
<trkpt lat="47.646385" lon="15.634070">
<ele>748.0</ele>
<desc>Speed 76.2 km/h Distance 55.81 km</desc>
<time>2012-09-18T16:29:59.62</time>
<name>2968</name>
<sym>Dot</sym>
</trkpt>
<trkpt lat="47.646355" lon="15.633813">
<ele>748.0</ele>
<desc>Speed 70.9 km/h Distance 55.83 km</desc>
<time>2012-09-18T16:30:00.61</time>
<name>2969</name>
<sym>Dot</sym>
</trkpt>
<trkpt lat="47.646310" lon="15.633382">
<ele>748.0</ele>
<desc>Speed 58.8 km/h Distance 55.86 km</desc>
<time>2012-09-18T16:30:02.60</time>
<name>2970</name>
<sym>Dot</sym>
</trkpt>
<trkpt lat="47.646290" lon="15.633182">
<ele>748.5</ele>
<desc>Speed 55.1 km/h Distance 55.87 km</desc>
<time>2012-09-18T16:30:03.60</time>
<name>2971</name>
<sym>Dot</sym>
</trkpt>
<trkpt lat="47.646275" lon="15.632988">
<ele>748.5</ele>
<desc>Speed 52.4 km/h Distance 55.89 km</desc>
<time>2012-09-18T16:30:04.59</time>
<name>2972</name>
<sym>Dot</sym>
</trkpt>
<trkpt lat="47.646267" lon="15.632805">
<ele>748.5</ele>
<desc>Speed 50.1 km/h Distance 55.90 km</desc>
<time>2012-09-18T16:30:05.59</time>
<name>2973</name>
<sym>Dot</sym>
</trkpt>
<trkpt lat="47.646263" lon="15.632628">
<ele>747.5</ele>
<desc>Speed 48.7 km/h Distance 55.92 km</desc>
<time>2012-09-18T16:30:06.58</time>
<name>2974</name>
<sym>Dot</sym>
</trkpt>
<trkpt lat="47.646263" lon="15.632457">
<ele>747.5</ele>
<desc>Speed 46.5 km/h Distance 55.93 km</desc>
<time>2012-09-18T16:30:07.59</time>
<name>2975</name>
<sym>Dot</sym>
</trkpt>
<trkpt lat="47.646265" lon="15.632292">
<ele>747.5</ele>
<desc>Speed 44.6 km/h Distance 55.94 km</desc>
<time>2012-09-18T16:30:08.58</time>
<name>2976</name>
<sym>Dot</sym>
</trkpt>
<trkpt lat="47.646268" lon="15.632132">
<ele>747.5</ele>
<desc>Speed 43.5 km/h Distance 55.95 km</desc>
<time>2012-09-18T16:30:09.57</time>
<name>2977</name>
<sym>Dot</sym>
</trkpt>
<trkpt lat="47.646272" lon="15.631973">
<ele>747.5</ele>
<desc>Speed 43.0 km/h Distance 55.97 km</desc>
<time>2012-09-18T16:30:10.57</time>
<name>2978</name>
<sym>Dot</sym>
</trkpt>
<trkpt lat="47.646277" lon="15.631815">
<ele>747.5</ele>
<desc>Speed 43.2 km/h Distance 55.98 km</desc>
<time>2012-09-18T16:30:11.57</time>
<name>2979</name>
<sym>Dot</sym>
</trkpt>
<trkpt lat="47.646282" lon="15.631652">
<ele>747.0</ele>
<desc>Speed 44.2 km/h Distance 55.99 km</desc>
<time>2012-09-18T16:30:12.56</time>
<name>2980</name>
<sym>Dot</sym>
</trkpt>
<trkpt lat="47.646288" lon="15.631487">
<ele>747.0</ele>
<desc>Speed 45.1 km/h Distance 56.00 km</desc>
<time>2012-09-18T16:30:13.55</time>
<name>2981</name>
<sym>Dot</sym>
</trkpt>
<trkpt lat="47.646300" lon="15.631318">
<ele>747.0</ele>
<desc>Speed 45.8 km/h Distance 56.01 km</desc>
<time>2012-09-18T16:30:14.54</time>
<name>2982</name>
<sym>Dot</sym>
</trkpt>
<trkpt lat="47.646313" lon="15.631145">
<ele>747.5</ele>
<desc>Speed 46.9 km/h Distance 56.03 km</desc>
<time>2012-09-18T16:30:15.54</time>
<name>2983</name>
<sym>Dot</sym>
</trkpt>
<trkpt lat="47.646330" lon="15.630970">
<ele>747.5</ele>
<desc>Speed 48.2 km/h Distance 56.04 km</desc>
<time>2012-09-18T16:30:16.54</time>
<name>2984</name>
<sym>Dot</sym>
</trkpt>
<trkpt lat="47.646350" lon="15.630785">
<ele>747.5</ele>
<desc>Speed 50.8 km/h Distance 56.06 km</desc>
<time>2012-09-18T16:30:17.53</time>
<name>2985</name>
<sym>Dot</sym>
</trkpt>
<trkpt lat="47.646373" lon="15.630592">
<ele>747.5</ele>
<desc>Speed 53.3 km/h Distance 56.07 km</desc>
<time>2012-09-18T16:30:18.53</time>
<name>2986</name>
<sym>Dot</sym>
</trkpt>
<trkpt lat="47.646403" lon="15.630395">
<ele>747.5</ele>
<desc>Speed 54.4 km/h Distance 56.09 km</desc>
<time>2012-09-18T16:30:19.51</time>
<name>2987</name>
<sym>Dot</sym>
</trkpt>
<trkpt lat="47.646435" lon="15.630207">
<ele>747.5</ele>
<desc>Speed 52.3 km/h Distance 56.10 km</desc>
<time>2012-09-18T16:30:20.51</time>
<name>2988</name>
<sym>Dot</sym>
</trkpt>
<trkpt lat="47.646467" lon="15.630025">
<ele>747.5</ele>
<desc>Speed 50.8 km/h Distance 56.11 km</desc>
<time>2012-09-18T16:30:21.50</time>
<name>2989</name>
<sym>Dot</sym>
</trkpt>
<trkpt lat="47.646502" lon="15.629840">
<ele>748.0</ele>
<desc>Speed 51.9 km/h Distance 56.13 km</desc>
<time>2012-09-18T16:30:22.49</time>
<name>2990</name>
<sym>Dot</sym>
</trkpt>
<trkpt lat="47.646542" lon="15.629648">
<ele>748.0</ele>
<desc>Speed 54.2 km/h Distance 56.14 km</desc>
<time>2012-09-18T16:30:23.48</time>
<name>2991</name>
<sym>Dot</sym>
</trkpt>
<trkpt lat="47.646588" lon="15.629458">
<ele>748.0</ele>
<desc>Speed 54.8 km/h Distance 56.16 km</desc>
<time>2012-09-18T16:30:24.48</time>
<name>2992</name>
<sym>Dot</sym>
</trkpt>
<trkpt lat="47.646642" lon="15.629273">
<ele>748.5</ele>
<desc>Speed 54.8 km/h Distance 56.17 km</desc>
<time>2012-09-18T16:30:25.47</time>
<name>2993</name>
<sym>Dot</sym>
</trkpt>
<trkpt lat="47.646700" lon="15.629090">
<ele>748.5</ele>
<desc>Speed 54.3 km/h Distance 56.19 km</desc>
<time>2012-09-18T16:30:26.47</time>
<name>2994</name>
<sym>Dot</sym>
</trkpt>
<trkpt lat="47.646758" lon="15.628913">
<ele>749.0</ele>
<desc>Speed 53.2 km/h Distance 56.20 km</desc>
<time>2012-09-18T16:30:27.46</time>
<name>2995</name>
<sym>Dot</sym>
</trkpt>
<trkpt lat="47.646817" lon="15.628745">
<ele>749.0</ele>
<desc>Speed 51.2 km/h Distance 56.22 km</desc>
<time>2012-09-18T16:30:28.46</time>
<name>2996</name>
<sym>Dot</sym>
</trkpt>
<trkpt lat="47.646877" lon="15.628580">
<ele>749.0</ele>
<desc>Speed 50.6 km/h Distance 56.23 km</desc>
<time>2012-09-18T16:30:29.45</time>
<name>2997</name>
<sym>Dot</sym>
</trkpt>
<trkpt lat="47.646940" lon="15.628413">
<ele>749.5</ele>
<desc>Speed 51.3 km/h Distance 56.25 km</desc>
<time>2012-09-18T16:30:30.45</time>
<name>2998</name>
<sym>Dot</sym>
</trkpt>
<trkpt lat="47.647003" lon="15.628258">
<ele>749.5</ele>
<desc>Speed 49.1 km/h Distance 56.26 km</desc>
<time>2012-09-18T16:30:31.44</time>
<name>2999</name>
<sym>Dot</sym>
</trkpt>
<trkpt lat="47.647070" lon="15.628100">
<ele>750.0</ele>
<desc>Speed 50.5 km/h Distance 56.27 km</desc>
<time>2012-09-18T16:30:32.44</time>
<name>3000</name>
<sym>Dot</sym>
</trkpt>
<trkpt lat="47.647145" lon="15.627935">
<ele>750.0</ele>
<desc>Speed 53.7 km/h Distance 56.29 km</desc>
<time>2012-09-18T16:30:33.44</time>
<name>3001</name>
<sym>Dot</sym>
</trkpt>
<trkpt lat="47.647223" lon="15.627767">
<ele>750.5</ele>
<desc>Speed 55.2 km/h Distance 56.30 km</desc>
<time>2012-09-18T16:30:34.42</time>
<name>3002</name>
<sym>Dot</sym>
</trkpt>
<trkpt lat="47.647305" lon="15.627600">
<ele>751.0</ele>
<desc>Speed 55.4 km/h Distance 56.32 km</desc>
<time>2012-09-18T16:30:35.42</time>
<name>3003</name>
<sym>Dot</sym>
</trkpt>
<trkpt lat="47.647395" lon="15.627418">
<ele>751.0</ele>
<desc>Speed 61.0 km/h Distance 56.34 km</desc>
<time>2012-09-18T16:30:36.41</time>
<name>3004</name>
<sym>Dot</sym>
</trkpt>
<trkpt lat="47.648165" lon="15.626045">
<ele>755.5</ele>
<desc>Speed 110 km/h Distance 56.47 km</desc>
<time>2012-09-18T16:30:41.99</time>
<name>3005</name>
<sym>Dot</sym>
</trkpt>
<trkpt lat="47.648348" lon="15.625717">
<ele>755.5</ele>
<desc>Speed 115 km/h Distance 56.50 km</desc>
<time>2012-09-18T16:30:42.98</time>
<name>3006</name>
<sym>Dot</sym>
</trkpt>
<trkpt lat="47.648530" lon="15.625390">
<ele>756.0</ele>
<desc>Speed 115 km/h Distance 56.53 km</desc>
<time>2012-09-18T16:30:43.98</time>
<name>3007</name>
<sym>Dot</sym>
</trkpt>
<trkpt lat="47.648712" lon="15.625063">
<ele>756.5</ele>
<desc>Speed 114 km/h Distance 56.57 km</desc>
<time>2012-09-18T16:30:44.98</time>
<name>3008</name>
<sym>Dot</sym>
</trkpt>
<trkpt lat="47.648892" lon="15.624743">
<ele>756.5</ele>
<desc>Speed 113 km/h Distance 56.60 km</desc>
<time>2012-09-18T16:30:45.98</time>
<name>3009</name>
<sym>Dot</sym>
</trkpt>
<trkpt lat="47.649072" lon="15.624422">
<ele>756.5</ele>
<desc>Speed 113 km/h Distance 56.63 km</desc>
<time>2012-09-18T16:30:46.98</time>
<name>3010</name>
<sym>Dot</sym>
</trkpt>
<trkpt lat="47.649252" lon="15.624097">
<ele>756.5</ele>
<desc>Speed 114 km/h Distance 56.66 km</desc>
<time>2012-09-18T16:30:47.98</time>
<name>3011</name>
<sym>Dot</sym>
</trkpt>
<trkpt lat="47.649432" lon="15.623768">
<ele>756.0</ele>
<desc>Speed 114 km/h Distance 56.69 km</desc>
<time>2012-09-18T16:30:48.98</time>
<name>3012</name>
<sym>Dot</sym>
</trkpt>
<trkpt lat="47.649613" lon="15.623440">
<ele>755.5</ele>
<desc>Speed 114 km/h Distance 56.72 km</desc>
<time>2012-09-18T16:30:49.97</time>
<name>3013</name>
<sym>Dot</sym>
</trkpt>
<trkpt lat="47.649792" lon="15.623113">
<ele>755.5</ele>
<desc>Speed 113 km/h Distance 56.76 km</desc>
<time>2012-09-18T16:30:50.97</time>
<name>3014</name>
<sym>Dot</sym>
</trkpt>
<trkpt lat="47.649960" lon="15.622782">
<ele>755.0</ele>
<desc>Speed 112 km/h Distance 56.79 km</desc>
<time>2012-09-18T16:30:51.96</time>
<name>3015</name>
<sym>Dot</sym>
</trkpt>
<trkpt lat="47.650110" lon="15.622437">
<ele>755.0</ele>
<desc>Speed 111 km/h Distance 56.82 km</desc>
<time>2012-09-18T16:30:52.96</time>
<name>3016</name>
<sym>Dot</sym>
</trkpt>
<trkpt lat="47.650233" lon="15.622067">
<ele>755.0</ele>
<desc>Speed 111 km/h Distance 56.85 km</desc>
<time>2012-09-18T16:30:53.96</time>
<name>3017</name>
<sym>Dot</sym>
</trkpt>
<trkpt lat="47.650340" lon="15.621672">
<ele>755.0</ele>
<desc>Speed 115 km/h Distance 56.88 km</desc>
<time>2012-09-18T16:30:54.95</time>
<name>3018</name>
<sym>Dot</sym>
</trkpt>
<trkpt lat="47.650447" lon="15.621270">
<ele>755.0</ele>
<desc>Speed 117 km/h Distance 56.91 km</desc>
<time>2012-09-18T16:30:55.95</time>
<name>3019</name>
<sym>Dot</sym>
</trkpt>
<trkpt lat="47.650550" lon="15.620867">
<ele>754.5</ele>
<desc>Speed 117 km/h Distance 56.94 km</desc>
<time>2012-09-18T16:30:56.94</time>
<name>3020</name>
<sym>Dot</sym>
</trkpt>
<trkpt lat="47.650648" lon="15.620477">
<ele>754.5</ele>
<desc>Speed 113 km/h Distance 56.98 km</desc>
<time>2012-09-18T16:30:57.94</time>
<name>3021</name>
<sym>Dot</sym>
</trkpt>
<trkpt lat="47.650743" lon="15.620105">
<ele>754.5</ele>
<desc>Speed 108 km/h Distance 57.01 km</desc>
<time>2012-09-18T16:30:58.94</time>
<name>3022</name>
<sym>Dot</sym>
</trkpt>
<trkpt lat="47.650843" lon="15.619757">
<ele>755.0</ele>
<desc>Speed 103 km/h Distance 57.03 km</desc>
<time>2012-09-18T16:30:59.94</time>
<name>3023</name>
<sym>Dot</sym>
</trkpt>
<trkpt lat="47.650953" lon="15.619428">
<ele>755.0</ele>
<desc>Speed 99.4 km/h Distance 57.06 km</desc>
<time>2012-09-18T16:31:00.93</time>
<name>3024</name>
<sym>Dot</sym>
</trkpt>
<trkpt lat="47.651070" lon="15.619125">
<ele>755.5</ele>
<desc>Speed 95.5 km/h Distance 57.09 km</desc>
<time>2012-09-18T16:31:01.93</time>
<name>3025</name>
<sym>Dot</sym>
</trkpt>
<trkpt lat="47.651197" lon="15.618833">
<ele>755.5</ele>
<desc>Speed 94.2 km/h Distance 57.11 km</desc>
<time>2012-09-18T16:31:02.93</time>
<name>3026</name>
<sym>Dot</sym>
</trkpt>
<trkpt lat="47.651340" lon="15.618548">
<ele>756.0</ele>
<desc>Speed 96.2 km/h Distance 57.14 km</desc>
<time>2012-09-18T16:31:03.92</time>
<name>3027</name>
<sym>Dot</sym>
</trkpt>
<trkpt lat="47.651500" lon="15.618275">
<ele>756.5</ele>
<desc>Speed 97.6 km/h Distance 57.17 km</desc>
<time>2012-09-18T16:31:04.92</time>
<name>3028</name>
<sym>Dot</sym>
</trkpt>
<trkpt lat="47.651675" lon="15.618020">
<ele>756.5</ele>
<desc>Speed 98.2 km/h Distance 57.20 km</desc>
<time>2012-09-18T16:31:05.91</time>
<name>3029</name>
<sym>Dot</sym>
</trkpt>
<trkpt lat="47.651865" lon="15.617772">
<ele>757.0</ele>
<desc>Speed 102 km/h Distance 57.22 km</desc>
<time>2012-09-18T16:31:06.90</time>
<name>3030</name>
<sym>Dot</sym>
</trkpt>
<trkpt lat="47.652075" lon="15.617525">
<ele>757.5</ele>
<desc>Speed 107 km/h Distance 57.25 km</desc>
<time>2012-09-18T16:31:07.91</time>
<name>3031</name>
<sym>Dot</sym>
</trkpt>
<trkpt lat="47.652307" lon="15.617287">
<ele>758.0</ele>
<desc>Speed 113 km/h Distance 57.28 km</desc>
<time>2012-09-18T16:31:08.90</time>
<name>3032</name>
<sym>Dot</sym>
</trkpt>
<trkpt lat="47.652537" lon="15.617068">
<ele>758.5</ele>
<desc>Speed 109 km/h Distance 57.31 km</desc>
<time>2012-09-18T16:31:09.90</time>
<name>3033</name>
<sym>Dot</sym>
</trkpt>
<trkpt lat="47.652752" lon="15.616867">
<ele>758.0</ele>
<desc>Speed 102 km/h Distance 57.34 km</desc>
<time>2012-09-18T16:31:10.89</time>
<name>3034</name>
<sym>Dot</sym>
</trkpt>
<trkpt lat="47.653427" lon="15.616208">
<ele>759.0</ele>
<desc>Speed 77.8 km/h Distance 57.43 km</desc>
<time>2012-09-18T16:31:14.99</time>
<name>3035</name>
<sym>Dot</sym>
</trkpt>
<trkpt lat="47.653587" lon="15.616043">
<ele>759.0</ele>
<desc>Speed 77.7 km/h Distance 57.45 km</desc>
<time>2012-09-18T16:31:15.98</time>
<name>3036</name>
<sym>Dot</sym>
</trkpt>
<trkpt lat="47.653742" lon="15.615867">
<ele>759.5</ele>
<desc>Speed 77.9 km/h Distance 57.48 km</desc>
<time>2012-09-18T16:31:16.97</time>
<name>3037</name>
<sym>Dot</sym>
</trkpt>
<trkpt lat="47.653890" lon="15.615678">
<ele>759.5</ele>
<desc>Speed 78.7 km/h Distance 57.50 km</desc>
<time>2012-09-18T16:31:17.97</time>
<name>3038</name>
<sym>Dot</sym>
</trkpt>
<trkpt lat="47.654030" lon="15.615473">
<ele>759.5</ele>
<desc>Speed 78.8 km/h Distance 57.52 km</desc>
<time>2012-09-18T16:31:18.97</time>
<name>3039</name>
<sym>Dot</sym>
</trkpt>
<trkpt lat="47.654145" lon="15.615238">
<ele>759.5</ele>
<desc>Speed 78.5 km/h Distance 57.54 km</desc>
<time>2012-09-18T16:31:19.97</time>
<name>3040</name>
<sym>Dot</sym>
</trkpt>
<trkpt lat="47.654242" lon="15.614980">
<ele>759.5</ele>
<desc>Speed 80.0 km/h Distance 57.56 km</desc>
<time>2012-09-18T16:31:20.97</time>
<name>3041</name>
<sym>Dot</sym>
</trkpt>
<trkpt lat="47.654318" lon="15.614708">
<ele>760.0</ele>
<desc>Speed 79.4 km/h Distance 57.59 km</desc>
<time>2012-09-18T16:31:21.96</time>
<name>3042</name>
<sym>Dot</sym>
</trkpt>
<trkpt lat="47.654367" lon="15.614427">
<ele>759.0</ele>
<desc>Speed 78.6 km/h Distance 57.61 km</desc>
<time>2012-09-18T16:31:22.96</time>
<name>3043</name>
<sym>Dot</sym>
</trkpt>
<trkpt lat="47.654377" lon="15.613803">
<ele>759.0</ele>
<desc>Speed 82.9 km/h Distance 57.65 km</desc>
<time>2012-09-18T16:31:24.95</time>
<name>3044</name>
<sym>Dot</sym>
</trkpt>
<trkpt lat="47.654365" lon="15.613498">
<ele>759.0</ele>
<desc>Speed 82.6 km/h Distance 57.68 km</desc>
<time>2012-09-18T16:31:25.95</time>
<name>3045</name>
<sym>Dot</sym>
</trkpt>
<trkpt lat="47.654340" lon="15.613198">
<ele>759.0</ele>
<desc>Speed 82.0 km/h Distance 57.70 km</desc>
<time>2012-09-18T16:31:26.94</time>
<name>3046</name>
<sym>Dot</sym>
</trkpt>
<trkpt lat="47.654305" lon="15.612905">
<ele>758.5</ele>
<desc>Speed 80.8 km/h Distance 57.72 km</desc>
<time>2012-09-18T16:31:27.93</time>
<name>3047</name>
<sym>Dot</sym>
</trkpt>
<trkpt lat="47.654267" lon="15.612615">
<ele>758.5</ele>
<desc>Speed 80.4 km/h Distance 57.74 km</desc>
<time>2012-09-18T16:31:28.92</time>
<name>3048</name>
<sym>Dot</sym>
</trkpt>
<trkpt lat="47.654227" lon="15.612323">
<ele>758.5</ele>
<desc>Speed 81.0 km/h Distance 57.77 km</desc>
<time>2012-09-18T16:31:29.93</time>
<name>3049</name>
<sym>Dot</sym>
</trkpt>
<trkpt lat="47.654183" lon="15.612030">
<ele>758.5</ele>
<desc>Speed 81.5 km/h Distance 57.79 km</desc>
<time>2012-09-18T16:31:30.92</time>
<name>3050</name>
<sym>Dot</sym>
</trkpt>
<trkpt lat="47.654137" lon="15.611737">
<ele>759.0</ele>
<desc>Speed 82.0 km/h Distance 57.81 km</desc>
<time>2012-09-18T16:31:31.91</time>
<name>3051</name>
<sym>Dot</sym>
</trkpt>
<trkpt lat="47.654088" lon="15.611443">
<ele>759.0</ele>
<desc>Speed 81.9 km/h Distance 57.83 km</desc>
<time>2012-09-18T16:31:32.91</time>
<name>3052</name>
<sym>Dot</sym>
</trkpt>
<trkpt lat="47.654042" lon="15.611152">
<ele>759.0</ele>
<desc>Speed 81.7 km/h Distance 57.86 km</desc>
<time>2012-09-18T16:31:33.91</time>
<name>3053</name>
<sym>Dot</sym>
</trkpt>
<trkpt lat="47.653997" lon="15.610865">
<ele>759.5</ele>
<desc>Speed 80.0 km/h Distance 57.88 km</desc>
<time>2012-09-18T16:31:34.90</time>
<name>3054</name>
<sym>Dot</sym>
</trkpt>
<trkpt lat="47.653953" lon="15.610582">
<ele>759.5</ele>
<desc>Speed 78.5 km/h Distance 57.90 km</desc>
<time>2012-09-18T16:31:35.90</time>
<name>3055</name>
<sym>Dot</sym>
</trkpt>
<trkpt lat="47.653918" lon="15.610300">
<ele>759.0</ele>
<desc>Speed 77.5 km/h Distance 57.92 km</desc>
<time>2012-09-18T16:31:36.89</time>
<name>3056</name>
<sym>Dot</sym>
</trkpt>
<trkpt lat="47.653885" lon="15.610023">
<ele>759.0</ele>
<desc>Speed 76.3 km/h Distance 57.94 km</desc>
<time>2012-09-18T16:31:37.89</time>
<name>3057</name>
<sym>Dot</sym>
</trkpt>
<trkpt lat="47.653855" lon="15.609750">
<ele>759.5</ele>
<desc>Speed 75.3 km/h Distance 57.96 km</desc>
<time>2012-09-18T16:31:38.89</time>
<name>3058</name>
<sym>Dot</sym>
</trkpt>
<trkpt lat="47.653833" lon="15.609477">
<ele>760.0</ele>
<desc>Speed 74.6 km/h Distance 57.99 km</desc>
<time>2012-09-18T16:31:39.88</time>
<name>3059</name>
<sym>Dot</sym>
</trkpt>
<trkpt lat="47.653820" lon="15.609205">
<ele>760.0</ele>
<desc>Speed 73.6 km/h Distance 58.01 km</desc>
<time>2012-09-18T16:31:40.87</time>
<name>3060</name>
<sym>Dot</sym>
</trkpt>
<trkpt lat="47.653813" lon="15.608937">
<ele>760.0</ele>
<desc>Speed 72.8 km/h Distance 58.03 km</desc>
<time>2012-09-18T16:31:41.85</time>
<name>3061</name>
<sym>Dot</sym>
</trkpt>
<trkpt lat="47.653815" lon="15.608667">
<ele>760.0</ele>
<desc>Speed 72.8 km/h Distance 58.05 km</desc>
<time>2012-09-18T16:31:42.85</time>
<name>3062</name>
<sym>Dot</sym>
</trkpt>
<trkpt lat="47.653825" lon="15.608393">
<ele>760.0</ele>
<desc>Speed 74.0 km/h Distance 58.07 km</desc>
<time>2012-09-18T16:31:43.84</time>
<name>3063</name>
<sym>Dot</sym>
</trkpt>
<trkpt lat="47.653845" lon="15.608113">
<ele>759.5</ele>
<desc>Speed 75.7 km/h Distance 58.09 km</desc>
<time>2012-09-18T16:31:44.84</time>
<name>3064</name>
<sym>Dot</sym>
</trkpt>
<trkpt lat="47.653872" lon="15.607832">
<ele>759.5</ele>
<desc>Speed 76.9 km/h Distance 58.11 km</desc>
<time>2012-09-18T16:31:45.84</time>
<name>3065</name>
<sym>Dot</sym>
</trkpt>
<trkpt lat="47.653908" lon="15.607548">
<ele>759.0</ele>
<desc>Speed 77.8 km/h Distance 58.13 km</desc>
<time>2012-09-18T16:31:46.84</time>
<name>3066</name>
<sym>Dot</sym>
</trkpt>
<trkpt lat="47.653953" lon="15.607263">
<ele>758.5</ele>
<desc>Speed 79.0 km/h Distance 58.15 km</desc>
<time>2012-09-18T16:31:47.83</time>
<name>3067</name>
<sym>Dot</sym>
</trkpt>
<trkpt lat="47.654012" lon="15.606972">
<ele>758.5</ele>
<desc>Speed 82.2 km/h Distance 58.18 km</desc>
<time>2012-09-18T16:31:48.83</time>
<name>3068</name>
<sym>Dot</sym>
</trkpt>
<trkpt lat="47.654087" lon="15.606667">
<ele>759.5</ele>
<desc>Speed 87.1 km/h Distance 58.20 km</desc>
<time>2012-09-18T16:31:49.83</time>
<name>3069</name>
<sym>Dot</sym>
</trkpt>
<trkpt lat="47.654403" lon="15.605625">
<ele>759.5</ele>
<desc>Speed 108 km/h Distance 58.29 km</desc>
<time>2012-09-18T16:31:52.98</time>
<name>3070</name>
<sym>Dot</sym>
</trkpt>
<trkpt lat="47.654522" lon="15.605262">
<ele>760.0</ele>
<desc>Speed 109 km/h Distance 58.32 km</desc>
<time>2012-09-18T16:31:53.98</time>
<name>3071</name>
<sym>Dot</sym>
</trkpt>
<trkpt lat="47.654640" lon="15.604898">
<ele>760.0</ele>
<desc>Speed 109 km/h Distance 58.35 km</desc>
<time>2012-09-18T16:31:54.98</time>
<name>3072</name>
<sym>Dot</sym>
</trkpt>
<trkpt lat="47.654760" lon="15.604532">
<ele>760.0</ele>
<desc>Speed 110 km/h Distance 58.38 km</desc>
<time>2012-09-18T16:31:55.98</time>
<name>3073</name>
<sym>Dot</sym>
</trkpt>
<trkpt lat="47.654882" lon="15.604165">
<ele>759.5</ele>
<desc>Speed 110 km/h Distance 58.41 km</desc>
<time>2012-09-18T16:31:56.98</time>
<name>3074</name>
<sym>Dot</sym>
</trkpt>
<trkpt lat="47.655003" lon="15.603797">
<ele>759.5</ele>
<desc>Speed 111 km/h Distance 58.44 km</desc>
<time>2012-09-18T16:31:57.98</time>
<name>3075</name>
<sym>Dot</sym>
</trkpt>
<trkpt lat="47.655127" lon="15.603428">
<ele>760.0</ele>
<desc>Speed 111 km/h Distance 58.47 km</desc>
<time>2012-09-18T16:31:58.98</time>
<name>3076</name>
<sym>Dot</sym>
</trkpt>
<trkpt lat="47.655253" lon="15.603060">
<ele>760.0</ele>
<desc>Speed 112 km/h Distance 58.50 km</desc>
<time>2012-09-18T16:31:59.97</time>
<name>3077</name>
<sym>Dot</sym>
</trkpt>
<trkpt lat="47.655378" lon="15.602697">
<ele>760.5</ele>
<desc>Speed 110 km/h Distance 58.53 km</desc>
<time>2012-09-18T16:32:00.96</time>
<name>3078</name>
<sym>Dot</sym>
</trkpt>
<trkpt lat="47.655503" lon="15.602340">
<ele>761.0</ele>
<desc>Speed 109 km/h Distance 58.56 km</desc>
<time>2012-09-18T16:32:01.97</time>
<name>3079</name>
<sym>Dot</sym>
</trkpt>
<trkpt lat="47.655628" lon="15.601988">
<ele>761.5</ele>
<desc>Speed 107 km/h Distance 58.59 km</desc>
<time>2012-09-18T16:32:02.96</time>
<name>3080</name>
<sym>Dot</sym>
</trkpt>
<trkpt lat="47.655752" lon="15.601638">
<ele>762.0</ele>
<desc>Speed 107 km/h Distance 58.62 km</desc>
<time>2012-09-18T16:32:03.96</time>
<name>3081</name>
<sym>Dot</sym>
</trkpt>
<trkpt lat="47.655873" lon="15.601288">
<ele>762.0</ele>
<desc>Speed 107 km/h Distance 58.65 km</desc>
<time>2012-09-18T16:32:04.95</time>
<name>3082</name>
<sym>Dot</sym>
</trkpt>
<trkpt lat="47.655997" lon="15.600937">
<ele>762.5</ele>
<desc>Speed 107 km/h Distance 58.68 km</desc>
<time>2012-09-18T16:32:05.95</time>
<name>3083</name>
<sym>Dot</sym>
</trkpt>
<trkpt lat="47.656118" lon="15.600587">
<ele>763.0</ele>
<desc>Speed 107 km/h Distance 58.71 km</desc>
<time>2012-09-18T16:32:06.95</time>
<name>3084</name>
<sym>Dot</sym>
</trkpt>
<trkpt lat="47.656242" lon="15.600242">
<ele>763.5</ele>
<desc>Speed 106 km/h Distance 58.74 km</desc>
<time>2012-09-18T16:32:07.94</time>
<name>3085</name>
<sym>Dot</sym>
</trkpt>
<trkpt lat="47.656357" lon="15.599912">
<ele>763.5</ele>
<desc>Speed 101 km/h Distance 58.77 km</desc>
<time>2012-09-18T16:32:08.93</time>
<name>3086</name>
<sym>Dot</sym>
</trkpt>
<trkpt lat="47.656460" lon="15.599595">
<ele>764.0</ele>
<desc>Speed 95.4 km/h Distance 58.79 km</desc>
<time>2012-09-18T16:32:09.93</time>
<name>3087</name>
<sym>Dot</sym>
</trkpt>
<trkpt lat="47.656547" lon="15.599277">
<ele>764.0</ele>
<desc>Speed 92.5 km/h Distance 58.82 km</desc>
<time>2012-09-18T16:32:10.92</time>
<name>3088</name>
<sym>Dot</sym>
</trkpt>
<trkpt lat="47.656602" lon="15.598952">
<ele>763.5</ele>
<desc>Speed 90.8 km/h Distance 58.84 km</desc>
<time>2012-09-18T16:32:11.92</time>
<name>3089</name>
<sym>Dot</sym>
</trkpt>
<trkpt lat="47.656628" lon="15.598632">
<ele>764.5</ele>
<desc>Speed 87.3 km/h Distance 58.87 km</desc>
<time>2012-09-18T16:32:12.92</time>
<name>3090</name>
<sym>Dot</sym>
</trkpt>
<trkpt lat="47.656628" lon="15.598320">
<ele>763.5</ele>
<desc>Speed 84.2 km/h Distance 58.89 km</desc>
<time>2012-09-18T16:32:13.92</time>
<name>3091</name>
<sym>Dot</sym>
</trkpt>
<trkpt lat="47.656622" lon="15.598020">
<ele>763.5</ele>
<desc>Speed 81.1 km/h Distance 58.91 km</desc>
<time>2012-09-18T16:32:14.91</time>
<name>3092</name>
<sym>Dot</sym>
</trkpt>
<trkpt lat="47.656610" lon="15.597747">
<ele>763.0</ele>
<desc>Speed 73.9 km/h Distance 58.93 km</desc>
<time>2012-09-18T16:32:15.90</time>
<name>3093</name>
<sym>Dot</sym>
</trkpt>
<trkpt lat="47.656562" lon="15.597095">
<ele>764.5</ele>
<desc>Speed 53.9 km/h Distance 58.98 km</desc>
<time>2012-09-18T16:32:18.98</time>
<name>3094</name>
<sym>Dot</sym>
</trkpt>
<trkpt lat="47.656548" lon="15.596908">
<ele>764.0</ele>
<desc>Speed 51.3 km/h Distance 59.00 km</desc>
<time>2012-09-18T16:32:19.97</time>
<name>3095</name>
<sym>Dot</sym>
</trkpt>
<trkpt lat="47.656535" lon="15.596727">
<ele>764.0</ele>
<desc>Speed 49.6 km/h Distance 59.01 km</desc>
<time>2012-09-18T16:32:20.97</time>
<name>3096</name>
<sym>Dot</sym>
</trkpt>
<trkpt lat="47.656527" lon="15.596550">
<ele>764.0</ele>
<desc>Speed 48.2 km/h Distance 59.02 km</desc>
<time>2012-09-18T16:32:21.96</time>
<name>3097</name>
<sym>Dot</sym>
</trkpt>
<trkpt lat="47.656523" lon="15.596372">
<ele>763.5</ele>
<desc>Speed 48.7 km/h Distance 59.04 km</desc>
<time>2012-09-18T16:32:22.96</time>
<name>3098</name>
<sym>Dot</sym>
</trkpt>
<trkpt lat="47.656530" lon="15.596192">
<ele>764.0</ele>
<desc>Speed 48.7 km/h Distance 59.05 km</desc>
<time>2012-09-18T16:32:23.95</time>
<name>3099</name>
<sym>Dot</sym>
</trkpt>
<trkpt lat="47.656550" lon="15.596015">
<ele>764.0</ele>
<desc>Speed 48.9 km/h Distance 59.06 km</desc>
<time>2012-09-18T16:32:24.95</time>
<name>3100</name>
<sym>Dot</sym>
</trkpt>
<trkpt lat="47.656582" lon="15.595840">
<ele>764.0</ele>
<desc>Speed 49.0 km/h Distance 59.08 km</desc>
<time>2012-09-18T16:32:25.94</time>
<name>3101</name>
<sym>Dot</sym>
</trkpt>
<trkpt lat="47.656623" lon="15.595660">
<ele>764.0</ele>
<desc>Speed 51.0 km/h Distance 59.09 km</desc>
<time>2012-09-18T16:32:26.94</time>
<name>3102</name>
<sym>Dot</sym>
</trkpt>
<trkpt lat="47.656677" lon="15.595483">
<ele>764.5</ele>
<desc>Speed 52.6 km/h Distance 59.11 km</desc>
<time>2012-09-18T16:32:27.94</time>
<name>3103</name>
<sym>Dot</sym>
</trkpt>
<trkpt lat="47.656738" lon="15.595315">
<ele>765.0</ele>
<desc>Speed 51.5 km/h Distance 59.12 km</desc>
<time>2012-09-18T16:32:28.93</time>
<name>3104</name>
<sym>Dot</sym>
</trkpt>
<trkpt lat="47.656810" lon="15.595162">
<ele>765.5</ele>
<desc>Speed 50.3 km/h Distance 59.13 km</desc>
<time>2012-09-18T16:32:29.92</time>
<name>3105</name>
<sym>Dot</sym>
</trkpt>
<trkpt lat="47.656895" lon="15.595028">
<ele>766.0</ele>
<desc>Speed 49.4 km/h Distance 59.15 km</desc>
<time>2012-09-18T16:32:30.92</time>
<name>3106</name>
<sym>Dot</sym>
</trkpt>
<trkpt lat="47.657005" lon="15.594925">
<ele>766.0</ele>
<desc>Speed 52.2 km/h Distance 59.16 km</desc>
<time>2012-09-18T16:32:31.91</time>
<name>3107</name>
<sym>Dot</sym>
</trkpt>
<trkpt lat="47.657122" lon="15.594818">
<ele>766.5</ele>
<desc>Speed 54.1 km/h Distance 59.18 km</desc>
<time>2012-09-18T16:32:32.91</time>
<name>3108</name>
<sym>Dot</sym>
</trkpt>
<trkpt lat="47.657240" lon="15.594703">
<ele>766.5</ele>
<desc>Speed 56.3 km/h Distance 59.19 km</desc>
<time>2012-09-18T16:32:33.90</time>
<name>3109</name>
<sym>Dot</sym>
</trkpt>
<trkpt lat="47.657355" lon="15.594580">
<ele>766.5</ele>
<desc>Speed 56.8 km/h Distance 59.21 km</desc>
<time>2012-09-18T16:32:34.90</time>
<name>3110</name>
<sym>Dot</sym>
</trkpt>
<trkpt lat="47.657467" lon="15.594450">
<ele>766.5</ele>
<desc>Speed 56.4 km/h Distance 59.23 km</desc>
<time>2012-09-18T16:32:35.89</time>
<name>3111</name>
<sym>Dot</sym>
</trkpt>
<trkpt lat="47.657570" lon="15.594313">
<ele>767.0</ele>
<desc>Speed 55.4 km/h Distance 59.24 km</desc>
<time>2012-09-18T16:32:36.89</time>
<name>3112</name>
<sym>Dot</sym>
</trkpt>
<trkpt lat="47.657667" lon="15.594170">
<ele>767.5</ele>
<desc>Speed 54.4 km/h Distance 59.26 km</desc>
<time>2012-09-18T16:32:37.88</time>
<name>3113</name>
<sym>Dot</sym>
</trkpt>
<trkpt lat="47.657758" lon="15.594027">
<ele>767.5</ele>
<desc>Speed 53.5 km/h Distance 59.27 km</desc>
<time>2012-09-18T16:32:38.88</time>
<name>3114</name>
<sym>Dot</sym>
</trkpt>
<trkpt lat="47.657843" lon="15.593882">
<ele>767.5</ele>
<desc>Speed 51.7 km/h Distance 59.29 km</desc>
<time>2012-09-18T16:32:39.87</time>
<name>3115</name>
<sym>Dot</sym>
</trkpt>
<trkpt lat="47.657920" lon="15.593735">
<ele>768.0</ele>
<desc>Speed 50.0 km/h Distance 59.30 km</desc>
<time>2012-09-18T16:32:40.87</time>
<name>3116</name>
<sym>Dot</sym>
</trkpt>
<trkpt lat="47.657990" lon="15.593588">
<ele>768.0</ele>
<desc>Speed 48.8 km/h Distance 59.31 km</desc>
<time>2012-09-18T16:32:41.86</time>
<name>3117</name>
<sym>Dot</sym>
</trkpt>
<trkpt lat="47.658058" lon="15.593442">
<ele>768.5</ele>
<desc>Speed 48.3 km/h Distance 59.33 km</desc>
<time>2012-09-18T16:32:42.86</time>
<name>3118</name>
<sym>Dot</sym>
</trkpt>
<trkpt lat="47.658125" lon="15.593293">
<ele>769.0</ele>
<desc>Speed 47.9 km/h Distance 59.34 km</desc>
<time>2012-09-18T16:32:43.85</time>
<name>3119</name>
<sym>Dot</sym>
</trkpt>
<trkpt lat="47.658188" lon="15.593142">
<ele>769.5</ele>
<desc>Speed 48.0 km/h Distance 59.35 km</desc>
<time>2012-09-18T16:32:44.85</time>
<name>3120</name>
<sym>Dot</sym>
</trkpt>
<trkpt lat="47.658248" lon="15.592988">
<ele>770.0</ele>
<desc>Speed 47.9 km/h Distance 59.37 km</desc>
<time>2012-09-18T16:32:45.85</time>
<name>3121</name>
<sym>Dot</sym>
</trkpt>
<trkpt lat="47.658307" lon="15.592832">
<ele>770.5</ele>
<desc>Speed 48.3 km/h Distance 59.38 km</desc>
<time>2012-09-18T16:32:46.85</time>
<name>3122</name>
<sym>Dot</sym>
</trkpt>
<trkpt lat="47.658365" lon="15.592672">
<ele>771.0</ele>
<desc>Speed 48.8 km/h Distance 59.39 km</desc>
<time>2012-09-18T16:32:47.84</time>
<name>3123</name>
<sym>Dot</sym>
</trkpt>
<trkpt lat="47.658420" lon="15.592510">
<ele>772.0</ele>
<desc>Speed 49.4 km/h Distance 59.41 km</desc>
<time>2012-09-18T16:32:48.84</time>
<name>3124</name>
<sym>Dot</sym>
</trkpt>
<trkpt lat="47.658475" lon="15.592343">
<ele>773.0</ele>
<desc>Speed 50.0 km/h Distance 59.42 km</desc>
<time>2012-09-18T16:32:49.83</time>
<name>3125</name>
<sym>Dot</sym>
</trkpt>
<trkpt lat="47.658527" lon="15.592177">
<ele>773.0</ele>
<desc>Speed 49.4 km/h Distance 59.43 km</desc>
<time>2012-09-18T16:32:50.84</time>
<name>3126</name>
<sym>Dot</sym>
</trkpt>
<trkpt lat="47.658577" lon="15.592013">
<ele>773.0</ele>
<desc>Speed 48.2 km/h Distance 59.45 km</desc>
<time>2012-09-18T16:32:51.84</time>
<name>3127</name>
<sym>Dot</sym>
</trkpt>
<trkpt lat="47.658623" lon="15.591855">
<ele>773.0</ele>
<desc>Speed 46.9 km/h Distance 59.46 km</desc>
<time>2012-09-18T16:32:52.84</time>
<name>3128</name>
<sym>Dot</sym>
</trkpt>
<trkpt lat="47.658667" lon="15.591702">
<ele>772.5</ele>
<desc>Speed 45.3 km/h Distance 59.47 km</desc>
<time>2012-09-18T16:32:53.84</time>
<name>3129</name>
<sym>Dot</sym>
</trkpt>
<trkpt lat="47.658708" lon="15.591552">
<ele>772.5</ele>
<desc>Speed 44.0 km/h Distance 59.49 km</desc>
<time>2012-09-18T16:32:54.82</time>
<name>3130</name>
<sym>Dot</sym>
</trkpt>
<trkpt lat="47.658742" lon="15.591393">
<ele>773.0</ele>
<desc>Speed 44.6 km/h Distance 59.50 km</desc>
<time>2012-09-18T16:32:55.82</time>
<name>3131</name>
<sym>Dot</sym>
</trkpt>
<trkpt lat="47.658767" lon="15.591228">
<ele>773.0</ele>
<desc>Speed 46.1 km/h Distance 59.51 km</desc>
<time>2012-09-18T16:32:56.82</time>
<name>3132</name>
<sym>Dot</sym>
</trkpt>
<trkpt lat="47.658785" lon="15.591050">
<ele>773.0</ele>
<desc>Speed 48.7 km/h Distance 59.52 km</desc>
<time>2012-09-18T16:32:57.82</time>
<name>3133</name>
<sym>Dot</sym>
</trkpt>
<trkpt lat="47.658803" lon="15.590865">
<ele>773.0</ele>
<desc>Speed 50.6 km/h Distance 59.54 km</desc>
<time>2012-09-18T16:32:58.81</time>
<name>3134</name>
<sym>Dot</sym>
</trkpt>
<trkpt lat="47.658820" lon="15.590683">
<ele>773.0</ele>
<desc>Speed 49.8 km/h Distance 59.55 km</desc>
<time>2012-09-18T16:32:59.80</time>
<name>3135</name>
<sym>Dot</sym>
</trkpt>
<trkpt lat="47.658837" lon="15.590508">
<ele>773.0</ele>
<desc>Speed 48.0 km/h Distance 59.57 km</desc>
<time>2012-09-18T16:33:00.80</time>
<name>3136</name>
<sym>Dot</sym>
</trkpt>
<trkpt lat="47.658858" lon="15.590342">
<ele>773.0</ele>
<desc>Speed 46.0 km/h Distance 59.58 km</desc>
<time>2012-09-18T16:33:01.79</time>
<name>3137</name>
<sym>Dot</sym>
</trkpt>
<trkpt lat="47.658887" lon="15.590177">
<ele>772.5</ele>
<desc>Speed 46.1 km/h Distance 59.59 km</desc>
<time>2012-09-18T16:33:02.79</time>
<name>3138</name>
<sym>Dot</sym>
</trkpt>
<trkpt lat="47.658925" lon="15.590007">
<ele>773.0</ele>
<desc>Speed 48.0 km/h Distance 59.60 km</desc>
<time>2012-09-18T16:33:03.79</time>
<name>3139</name>
<sym>Dot</sym>
</trkpt>
<trkpt lat="47.658970" lon="15.589838">
<ele>773.0</ele>
<desc>Speed 49.0 km/h Distance 59.62 km</desc>
<time>2012-09-18T16:33:04.79</time>
<name>3140</name>
<sym>Dot</sym>
</trkpt>
<trkpt lat="47.659013" lon="15.589673">
<ele>773.0</ele>
<desc>Speed 47.8 km/h Distance 59.63 km</desc>
<time>2012-09-18T16:33:05.78</time>
<name>3141</name>
<sym>Dot</sym>
</trkpt>
<trkpt lat="47.659060" lon="15.589512">
<ele>773.0</ele>
<desc>Speed 47.4 km/h Distance 59.64 km</desc>
<time>2012-09-18T16:33:06.78</time>
<name>3142</name>
<sym>Dot</sym>
</trkpt>
<trkpt lat="47.659107" lon="15.589350">
<ele>773.0</ele>
<desc>Speed 47.6 km/h Distance 59.66 km</desc>
<time>2012-09-18T16:33:07.77</time>
<name>3143</name>
<sym>Dot</sym>
</trkpt>
<trkpt lat="47.659153" lon="15.589185">
<ele>773.0</ele>
<desc>Speed 47.9 km/h Distance 59.67 km</desc>
<time>2012-09-18T16:33:08.76</time>
<name>3144</name>
<sym>Dot</sym>
</trkpt>
<trkpt lat="47.659197" lon="15.589018">
<ele>773.0</ele>
<desc>Speed 47.9 km/h Distance 59.68 km</desc>
<time>2012-09-18T16:33:09.75</time>
<name>3145</name>
<sym>Dot</sym>
</trkpt>
<trkpt lat="47.659235" lon="15.588848">
<ele>773.5</ele>
<desc>Speed 48.5 km/h Distance 59.70 km</desc>
<time>2012-09-18T16:33:10.76</time>
<name>3146</name>
<sym>Dot</sym>
</trkpt>
<trkpt lat="47.659270" lon="15.588672">
<ele>773.5</ele>
<desc>Speed 49.6 km/h Distance 59.71 km</desc>
<time>2012-09-18T16:33:11.75</time>
<name>3147</name>
<sym>Dot</sym>
</trkpt>
<trkpt lat="47.659307" lon="15.588490">
<ele>773.5</ele>
<desc>Speed 51.0 km/h Distance 59.73 km</desc>
<time>2012-09-18T16:33:12.75</time>
<name>3148</name>
<sym>Dot</sym>
</trkpt>
<trkpt lat="47.659340" lon="15.588303">
<ele>773.5</ele>
<desc>Speed 52.3 km/h Distance 59.74 km</desc>
<time>2012-09-18T16:33:13.74</time>
<name>3149</name>
<sym>Dot</sym>
</trkpt>
<trkpt lat="47.659372" lon="15.588115">
<ele>773.0</ele>
<desc>Speed 52.0 km/h Distance 59.75 km</desc>
<time>2012-09-18T16:33:14.74</time>
<name>3150</name>
<sym>Dot</sym>
</trkpt>
<trkpt lat="47.659400" lon="15.587930">
<ele>773.0</ele>
<desc>Speed 51.4 km/h Distance 59.77 km</desc>
<time>2012-09-18T16:33:15.73</time>
<name>3151</name>
<sym>Dot</sym>
</trkpt>
<trkpt lat="47.659428" lon="15.587747">
<ele>772.5</ele>
<desc>Speed 50.6 km/h Distance 59.78 km</desc>
<time>2012-09-18T16:33:16.74</time>
<name>3152</name>
<sym>Dot</sym>
</trkpt>
<trkpt lat="47.659458" lon="15.587565">
<ele>773.0</ele>
<desc>Speed 50.7 km/h Distance 59.80 km</desc>
<time>2012-09-18T16:33:17.72</time>
<name>3153</name>
<sym>Dot</sym>
</trkpt>
<trkpt lat="47.659487" lon="15.587382">
<ele>773.0</ele>
<desc>Speed 50.9 km/h Distance 59.81 km</desc>
<time>2012-09-18T16:33:18.71</time>
<name>3154</name>
<sym>Dot</sym>
</trkpt>
<trkpt lat="47.659512" lon="15.587197">
<ele>773.0</ele>
<desc>Speed 50.9 km/h Distance 59.83 km</desc>
<time>2012-09-18T16:33:19.70</time>
<name>3155</name>
<sym>Dot</sym>
</trkpt>
<trkpt lat="47.659533" lon="15.587010">
<ele>773.0</ele>
<desc>Speed 51.0 km/h Distance 59.84 km</desc>
<time>2012-09-18T16:33:20.70</time>
<name>3156</name>
<sym>Dot</sym>
</trkpt>
<trkpt lat="47.659552" lon="15.586825">
<ele>773.0</ele>
<desc>Speed 50.8 km/h Distance 59.85 km</desc>
<time>2012-09-18T16:33:21.69</time>
<name>3157</name>
<sym>Dot</sym>
</trkpt>
<trkpt lat="47.659568" lon="15.586642">
<ele>773.0</ele>
<desc>Speed 50.3 km/h Distance 59.87 km</desc>
<time>2012-09-18T16:33:22.69</time>
<name>3158</name>
<sym>Dot</sym>
</trkpt>
<trkpt lat="47.659583" lon="15.586460">
<ele>773.0</ele>
<desc>Speed 49.7 km/h Distance 59.88 km</desc>
<time>2012-09-18T16:33:23.69</time>
<name>3159</name>
<sym>Dot</sym>
</trkpt>
<trkpt lat="47.659605" lon="15.586280">
<ele>773.5</ele>
<desc>Speed 49.3 km/h Distance 59.90 km</desc>
<time>2012-09-18T16:33:24.69</time>
<name>3160</name>
<sym>Dot</sym>
</trkpt>
<trkpt lat="47.659630" lon="15.586095">
<ele>773.5</ele>
<desc>Speed 51.4 km/h Distance 59.91 km</desc>
<time>2012-09-18T16:33:25.67</time>
<name>3161</name>
<sym>Dot</sym>
</trkpt>
<trkpt lat="47.659657" lon="15.585900">
<ele>773.5</ele>
<desc>Speed 53.9 km/h Distance 59.92 km</desc>
<time>2012-09-18T16:33:26.67</time>
<name>3162</name>
<sym>Dot</sym>
</trkpt>
<trkpt lat="47.659680" lon="15.585698">
<ele>773.5</ele>
<desc>Speed 55.3 km/h Distance 59.94 km</desc>
<time>2012-09-18T16:33:27.66</time>
<name>3163</name>
<sym>Dot</sym>
</trkpt>
<trkpt lat="47.659695" lon="15.585500">
<ele>773.5</ele>
<desc>Speed 54.1 km/h Distance 59.95 km</desc>
<time>2012-09-18T16:33:28.66</time>
<name>3164</name>
<sym>Dot</sym>
</trkpt>
<trkpt lat="47.659703" lon="15.585308">
<ele>773.5</ele>
<desc>Speed 52.3 km/h Distance 59.97 km</desc>
<time>2012-09-18T16:33:29.65</time>
<name>3165</name>
<sym>Dot</sym>
</trkpt>
<trkpt lat="47.659702" lon="15.585117">
<ele>773.5</ele>
<desc>Speed 51.9 km/h Distance 59.98 km</desc>
<time>2012-09-18T16:33:30.66</time>
<name>3166</name>
<sym>Dot</sym>
</trkpt>
<trkpt lat="47.659687" lon="15.584925">
<ele>773.5</ele>
<desc>Speed 52.4 km/h Distance 60.00 km</desc>
<time>2012-09-18T16:33:31.66</time>
<name>3167</name>
<sym>Dot</sym>
</trkpt>
<trkpt lat="47.659658" lon="15.584738">
<ele>773.5</ele>
<desc>Speed 51.9 km/h Distance 60.01 km</desc>
<time>2012-09-18T16:33:32.66</time>
<name>3168</name>
<sym>Dot</sym>
</trkpt>
<trkpt lat="47.659618" lon="15.584560">
<ele>773.5</ele>
<desc>Speed 51.0 km/h Distance 60.03 km</desc>
<time>2012-09-18T16:33:33.65</time>
<name>3169</name>
<sym>Dot</sym>
</trkpt>
<trkpt lat="47.659568" lon="15.584395">
<ele>773.5</ele>
<desc>Speed 49.0 km/h Distance 60.04 km</desc>
<time>2012-09-18T16:33:34.64</time>
<name>3170</name>
<sym>Dot</sym>
</trkpt>
<trkpt lat="47.659520" lon="15.584238">
<ele>772.5</ele>
<desc>Speed 47.3 km/h Distance 60.05 km</desc>
<time>2012-09-18T16:33:35.64</time>
<name>3171</name>
<sym>Dot</sym>
</trkpt>
<trkpt lat="47.659485" lon="15.584068">
<ele>771.0</ele>
<desc>Speed 48.7 km/h Distance 60.07 km</desc>
<time>2012-09-18T16:33:36.64</time>
<name>3172</name>
<sym>Dot</sym>
</trkpt>
<trkpt lat="47.659475" lon="15.583888">
<ele>771.0</ele>
<desc>Speed 49.5 km/h Distance 60.08 km</desc>
<time>2012-09-18T16:33:37.63</time>
<name>3173</name>
<sym>Dot</sym>
</trkpt>
<trkpt lat="47.659492" lon="15.583707">
<ele>771.5</ele>
<desc>Speed 49.6 km/h Distance 60.09 km</desc>
<time>2012-09-18T16:33:38.63</time>
<name>3174</name>
<sym>Dot</sym>
</trkpt>
<trkpt lat="47.659540" lon="15.583528">
<ele>772.0</ele>
<desc>Speed 52.3 km/h Distance 60.11 km</desc>
<time>2012-09-18T16:33:39.63</time>
<name>3175</name>
<sym>Dot</sym>
</trkpt>
<trkpt lat="47.659597" lon="15.583347">
<ele>772.5</ele>
<desc>Speed 54.1 km/h Distance 60.12 km</desc>
<time>2012-09-18T16:33:40.64</time>
<name>3176</name>
<sym>Dot</sym>
</trkpt>
<trkpt lat="47.659662" lon="15.583163">
<ele>772.5</ele>
<desc>Speed 55.9 km/h Distance 60.14 km</desc>
<time>2012-09-18T16:33:41.61</time>
<name>3177</name>
<sym>Dot</sym>
</trkpt>
<trkpt lat="47.659735" lon="15.582995">
<ele>773.0</ele>
<desc>Speed 54.3 km/h Distance 60.15 km</desc>
<time>2012-09-18T16:33:42.61</time>
<name>3178</name>
<sym>Dot</sym>
</trkpt>
<trkpt lat="47.659828" lon="15.582852">
<ele>773.0</ele>
<desc>Speed 53.1 km/h Distance 60.17 km</desc>
<time>2012-09-18T16:33:43.61</time>
<name>3179</name>
<sym>Dot</sym>
</trkpt>
<trkpt lat="47.659923" lon="15.582710">
<ele>773.0</ele>
<desc>Speed 53.8 km/h Distance 60.18 km</desc>
<time>2012-09-18T16:33:44.61</time>
<name>3180</name>
<sym>Dot</sym>
</trkpt>
<trkpt lat="47.660020" lon="15.582567">
<ele>773.5</ele>
<desc>Speed 55.0 km/h Distance 60.20 km</desc>
<time>2012-09-18T16:33:45.61</time>
<name>3181</name>
<sym>Dot</sym>
</trkpt>
<trkpt lat="47.660117" lon="15.582415">
<ele>773.5</ele>
<desc>Speed 56.0 km/h Distance 60.21 km</desc>
<time>2012-09-18T16:33:46.61</time>
<name>3182</name>
<sym>Dot</sym>
</trkpt>
<trkpt lat="47.660210" lon="15.582260">
<ele>774.0</ele>
<desc>Speed 56.1 km/h Distance 60.23 km</desc>
<time>2012-09-18T16:33:47.61</time>
<name>3183</name>
<sym>Dot</sym>
</trkpt>
<trkpt lat="47.660302" lon="15.582103">
<ele>774.0</ele>
<desc>Speed 56.0 km/h Distance 60.25 km</desc>
<time>2012-09-18T16:33:48.60</time>
<name>3184</name>
<sym>Dot</sym>
</trkpt>
<trkpt lat="47.660392" lon="15.581945">
<ele>774.5</ele>
<desc>Speed 55.5 km/h Distance 60.26 km</desc>
<time>2012-09-18T16:33:49.60</time>
<name>3185</name>
<sym>Dot</sym>
</trkpt>
<trkpt lat="47.660478" lon="15.581788">
<ele>774.5</ele>
<desc>Speed 54.8 km/h Distance 60.28 km</desc>
<time>2012-09-18T16:33:50.60</time>
<name>3186</name>
<sym>Dot</sym>
</trkpt>
<trkpt lat="47.660565" lon="15.581633">
<ele>774.5</ele>
<desc>Speed 54.1 km/h Distance 60.29 km</desc>
<time>2012-09-18T16:33:51.59</time>
<name>3187</name>
<sym>Dot</sym>
</trkpt>
<trkpt lat="47.660650" lon="15.581480">
<ele>775.0</ele>
<desc>Speed 53.5 km/h Distance 60.31 km</desc>
<time>2012-09-18T16:33:52.59</time>
<name>3188</name>
<sym>Dot</sym>
</trkpt>
<trkpt lat="47.660732" lon="15.581327">
<ele>775.0</ele>
<desc>Speed 52.7 km/h Distance 60.32 km</desc>
<time>2012-09-18T16:33:53.58</time>
<name>3189</name>
<sym>Dot</sym>
</trkpt>
<trkpt lat="47.660813" lon="15.581175">
<ele>775.0</ele>
<desc>Speed 52.4 km/h Distance 60.34 km</desc>
<time>2012-09-18T16:33:54.58</time>
<name>3190</name>
<sym>Dot</sym>
</trkpt>
<trkpt lat="47.660892" lon="15.581023">
<ele>775.5</ele>
<desc>Speed 51.9 km/h Distance 60.35 km</desc>
<time>2012-09-18T16:33:55.57</time>
<name>3191</name>
<sym>Dot</sym>
</trkpt>
<trkpt lat="47.660968" lon="15.580875">
<ele>775.5</ele>
<desc>Speed 50.5 km/h Distance 60.36 km</desc>
<time>2012-09-18T16:33:56.57</time>
<name>3192</name>
<sym>Dot</sym>
</trkpt>
<trkpt lat="47.661043" lon="15.580730">
<ele>776.0</ele>
<desc>Speed 49.3 km/h Distance 60.38 km</desc>
<time>2012-09-18T16:33:57.56</time>
<name>3193</name>
<sym>Dot</sym>
</trkpt>
<trkpt lat="47.661117" lon="15.580587">
<ele>776.0</ele>
<desc>Speed 48.7 km/h Distance 60.39 km</desc>
<time>2012-09-18T16:33:58.56</time>
<name>3194</name>
<sym>Dot</sym>
</trkpt>
<trkpt lat="47.661188" lon="15.580443">
<ele>776.0</ele>
<desc>Speed 47.8 km/h Distance 60.40 km</desc>
<time>2012-09-18T16:33:59.55</time>
<name>3195</name>
<sym>Dot</sym>
</trkpt>
<trkpt lat="47.661252" lon="15.580302">
<ele>776.5</ele>
<desc>Speed 46.2 km/h Distance 60.42 km</desc>
<time>2012-09-18T16:34:00.55</time>
<name>3196</name>
<sym>Dot</sym>
</trkpt>
<trkpt lat="47.661303" lon="15.580150">
<ele>776.5</ele>
<desc>Speed 45.8 km/h Distance 60.43 km</desc>
<time>2012-09-18T16:34:01.54</time>
<name>3197</name>
<sym>Dot</sym>
</trkpt>
<trkpt lat="47.661345" lon="15.579983">
<ele>776.5</ele>
<desc>Speed 48.5 km/h Distance 60.44 km</desc>
<time>2012-09-18T16:34:02.54</time>
<name>3198</name>
<sym>Dot</sym>
</trkpt>
<trkpt lat="47.661383" lon="15.579797">
<ele>777.0</ele>
<desc>Speed 52.8 km/h Distance 60.46 km</desc>
<time>2012-09-18T16:34:03.53</time>
<name>3199</name>
<sym>Dot</sym>
</trkpt>
<trkpt lat="47.661420" lon="15.579595">
<ele>777.5</ele>
<desc>Speed 56.2 km/h Distance 60.47 km</desc>
<time>2012-09-18T16:34:04.53</time>
<name>3200</name>
<sym>Dot</sym>
</trkpt>
<trkpt lat="47.661453" lon="15.579392">
<ele>778.0</ele>
<desc>Speed 56.9 km/h Distance 60.49 km</desc>
<time>2012-09-18T16:34:05.52</time>
<name>3201</name>
<sym>Dot</sym>
</trkpt>
<trkpt lat="47.661483" lon="15.579188">
<ele>778.0</ele>
<desc>Speed 56.1 km/h Distance 60.50 km</desc>
<time>2012-09-18T16:34:06.52</time>
<name>3202</name>
<sym>Dot</sym>
</trkpt>
<trkpt lat="47.661515" lon="15.578993">
<ele>778.0</ele>
<desc>Speed 54.5 km/h Distance 60.52 km</desc>
<time>2012-09-18T16:34:07.52</time>
<name>3203</name>
<sym>Dot</sym>
</trkpt>
<trkpt lat="47.661548" lon="15.578805">
<ele>778.0</ele>
<desc>Speed 52.6 km/h Distance 60.53 km</desc>
<time>2012-09-18T16:34:08.51</time>
<name>3204</name>
<sym>Dot</sym>
</trkpt>
<trkpt lat="47.661583" lon="15.578623">
<ele>778.0</ele>
<desc>Speed 50.9 km/h Distance 60.55 km</desc>
<time>2012-09-18T16:34:09.50</time>
<name>3205</name>
<sym>Dot</sym>
</trkpt>
<trkpt lat="47.661620" lon="15.578450">
<ele>778.0</ele>
<desc>Speed 49.2 km/h Distance 60.56 km</desc>
<time>2012-09-18T16:34:10.49</time>
<name>3206</name>
<sym>Dot</sym>
</trkpt>
<trkpt lat="47.661657" lon="15.578282">
<ele>778.0</ele>
<desc>Speed 47.8 km/h Distance 60.58 km</desc>
<time>2012-09-18T16:34:11.47</time>
<name>3207</name>
<sym>Dot</sym>
</trkpt>
<trkpt lat="47.661695" lon="15.578123">
<ele>777.5</ele>
<desc>Speed 45.3 km/h Distance 60.59 km</desc>
<time>2012-09-18T16:34:12.48</time>
<name>3208</name>
<sym>Dot</sym>
</trkpt>
<trkpt lat="47.661740" lon="15.577977">
<ele>777.5</ele>
<desc>Speed 43.6 km/h Distance 60.60 km</desc>
<time>2012-09-18T16:34:13.59</time>
<name>3209</name>
<sym>Dot</sym>
</trkpt>
<trkpt lat="47.661797" lon="15.577842">
<ele>777.0</ele>
<desc>Speed 43.1 km/h Distance 60.61 km</desc>
<time>2012-09-18T16:34:14.49</time>
<name>3210</name>
<sym>Dot</sym>
</trkpt>
<trkpt lat="47.661868" lon="15.577717">
<ele>776.5</ele>
<desc>Speed 44.0 km/h Distance 60.62 km</desc>
<time>2012-09-18T16:34:15.45</time>
<name>3211</name>
<sym>Dot</sym>
</trkpt>
<trkpt lat="47.661957" lon="15.577605">
<ele>776.0</ele>
<desc>Speed 46.7 km/h Distance 60.64 km</desc>
<time>2012-09-18T16:34:16.45</time>
<name>3212</name>
<sym>Dot</sym>
</trkpt>
<trkpt lat="47.662062" lon="15.577505">
<ele>776.0</ele>
<desc>Speed 49.8 km/h Distance 60.65 km</desc>
<time>2012-09-18T16:34:17.45</time>
<name>3213</name>
<sym>Dot</sym>
</trkpt>
<trkpt lat="47.662177" lon="15.577418">
<ele>777.0</ele>
<desc>Speed 51.5 km/h Distance 60.67 km</desc>
<time>2012-09-18T16:34:18.44</time>
<name>3214</name>
<sym>Dot</sym>
</trkpt>
<trkpt lat="47.662295" lon="15.577343">
<ele>777.5</ele>
<desc>Speed 51.3 km/h Distance 60.68 km</desc>
<time>2012-09-18T16:34:19.44</time>
<name>3215</name>
<sym>Dot</sym>
</trkpt>
<trkpt lat="47.662415" lon="15.577283">
<ele>778.0</ele>
<desc>Speed 51.0 km/h Distance 60.69 km</desc>
<time>2012-09-18T16:34:20.44</time>
<name>3216</name>
<sym>Dot</sym>
</trkpt>
<trkpt lat="47.662533" lon="15.577230">
<ele>778.0</ele>
<desc>Speed 49.4 km/h Distance 60.71 km</desc>
<time>2012-09-18T16:34:21.43</time>
<name>3217</name>
<sym>Dot</sym>
</trkpt>
<trkpt lat="47.662650" lon="15.577195">
<ele>778.0</ele>
<desc>Speed 47.7 km/h Distance 60.72 km</desc>
<time>2012-09-18T16:34:22.43</time>
<name>3218</name>
<sym>Dot</sym>
</trkpt>
<trkpt lat="47.662770" lon="15.577183">
<ele>778.5</ele>
<desc>Speed 47.2 km/h Distance 60.73 km</desc>
<time>2012-09-18T16:34:23.48</time>
<name>3219</name>
<sym>Dot</sym>
</trkpt>
<trkpt lat="47.662880" lon="15.577202">
<ele>780.0</ele>
<desc>Speed 44.2 km/h Distance 60.75 km</desc>
<time>2012-09-18T16:34:24.42</time>
<name>3220</name>
<sym>Dot</sym>
</trkpt>
<trkpt lat="47.662998" lon="15.577258">
<ele>781.0</ele>
<desc>Speed 49.9 km/h Distance 60.76 km</desc>
<time>2012-09-18T16:34:25.41</time>
<name>3221</name>
<sym>Dot</sym>
</trkpt>
<trkpt lat="47.663122" lon="15.577320">
<ele>782.0</ele>
<desc>Speed 51.7 km/h Distance 60.77 km</desc>
<time>2012-09-18T16:34:26.41</time>
<name>3222</name>
<sym>Dot</sym>
</trkpt>
<trkpt lat="47.663237" lon="15.577378">
<ele>782.5</ele>
<desc>Speed 48.3 km/h Distance 60.79 km</desc>
<time>2012-09-18T16:34:27.40</time>
<name>3223</name>
<sym>Dot</sym>
</trkpt>
<trkpt lat="47.663345" lon="15.577422">
<ele>783.0</ele>
<desc>Speed 44.7 km/h Distance 60.80 km</desc>
<time>2012-09-18T16:34:28.39</time>
<name>3224</name>
<sym>Dot</sym>
</trkpt>
<trkpt lat="47.663447" lon="15.577432">
<ele>784.0</ele>
<desc>Speed 40.4 km/h Distance 60.81 km</desc>
<time>2012-09-18T16:34:29.38</time>
<name>3225</name>
<sym>Dot</sym>
</trkpt>
<trkpt lat="47.663552" lon="15.577420">
<ele>782.5</ele>
<desc>Speed 42.3 km/h Distance 60.82 km</desc>
<time>2012-09-18T16:34:30.38</time>
<name>3226</name>
<sym>Dot</sym>
</trkpt>
<trkpt lat="47.663628" lon="15.577338">
<ele>782.5</ele>
<desc>Speed 38.4 km/h Distance 60.83 km</desc>
<time>2012-09-18T16:34:31.38</time>
<name>3227</name>
<sym>Dot</sym>
</trkpt>
<trkpt lat="47.663705" lon="15.577252">
<ele>782.5</ele>
<desc>Speed 39.1 km/h Distance 60.84 km</desc>
<time>2012-09-18T16:34:32.38</time>
<name>3228</name>
<sym>Dot</sym>
</trkpt>
<trkpt lat="47.663772" lon="15.577128">
<ele>783.0</ele>
<desc>Speed 42.8 km/h Distance 60.86 km</desc>
<time>2012-09-18T16:34:33.37</time>
<name>3229</name>
<sym>Dot</sym>
</trkpt>
<trkpt lat="47.663835" lon="15.576978">
<ele>783.0</ele>
<desc>Speed 48.1 km/h Distance 60.87 km</desc>
<time>2012-09-18T16:34:34.38</time>
<name>3230</name>
<sym>Dot</sym>
</trkpt>
<trkpt lat="47.663900" lon="15.576815">
<ele>784.0</ele>
<desc>Speed 51.7 km/h Distance 60.88 km</desc>
<time>2012-09-18T16:34:35.36</time>
<name>3231</name>
<sym>Dot</sym>
</trkpt>
<trkpt lat="47.663963" lon="15.576650">
<ele>784.0</ele>
<desc>Speed 51.3 km/h Distance 60.90 km</desc>
<time>2012-09-18T16:34:36.37</time>
<name>3232</name>
<sym>Dot</sym>
</trkpt>
<trkpt lat="47.664022" lon="15.576492">
<ele>783.5</ele>
<desc>Speed 49.4 km/h Distance 60.91 km</desc>
<time>2012-09-18T16:34:37.35</time>
<name>3233</name>
<sym>Dot</sym>
</trkpt>
<trkpt lat="47.664080" lon="15.576342">
<ele>783.5</ele>
<desc>Speed 46.9 km/h Distance 60.93 km</desc>
<time>2012-09-18T16:34:38.36</time>
<name>3234</name>
<sym>Dot</sym>
</trkpt>
<trkpt lat="47.664138" lon="15.576207">
<ele>783.5</ele>
<desc>Speed 44.0 km/h Distance 60.94 km</desc>
<time>2012-09-18T16:34:39.34</time>
<name>3235</name>
<sym>Dot</sym>
</trkpt>
<trkpt lat="47.664202" lon="15.576085">
<ele>783.0</ele>
<desc>Speed 42.0 km/h Distance 60.95 km</desc>
<time>2012-09-18T16:34:40.33</time>
<name>3236</name>
<sym>Dot</sym>
</trkpt>
<trkpt lat="47.664270" lon="15.575977">
<ele>783.5</ele>
<desc>Speed 39.8 km/h Distance 60.96 km</desc>
<time>2012-09-18T16:34:41.33</time>
<name>3237</name>
<sym>Dot</sym>
</trkpt>
<trkpt lat="47.664340" lon="15.575890">
<ele>783.0</ele>
<desc>Speed 37.4 km/h Distance 60.97 km</desc>
<time>2012-09-18T16:34:42.32</time>
<name>3238</name>
<sym>Dot</sym>
</trkpt>
<trkpt lat="47.664422" lon="15.575813">
<ele>783.0</ele>
<desc>Speed 38.7 km/h Distance 60.98 km</desc>
<time>2012-09-18T16:34:43.32</time>
<name>3239</name>
<sym>Dot</sym>
</trkpt>
<trkpt lat="47.664517" lon="15.575747">
<ele>783.5</ele>
<desc>Speed 41.8 km/h Distance 60.99 km</desc>
<time>2012-09-18T16:34:44.31</time>
<name>3240</name>
<sym>Dot</sym>
</trkpt>
<trkpt lat="47.664615" lon="15.575698">
<ele>783.5</ele>
<desc>Speed 41.0 km/h Distance 61.00 km</desc>
<time>2012-09-18T16:34:45.30</time>
<name>3241</name>
<sym>Dot</sym>
</trkpt>
<trkpt lat="47.664708" lon="15.575662">
<ele>784.0</ele>
<desc>Speed 38.6 km/h Distance 61.01 km</desc>
<time>2012-09-18T16:34:46.30</time>
<name>3242</name>
<sym>Dot</sym>
</trkpt>
<trkpt lat="47.664798" lon="15.575635">
<ele>785.0</ele>
<desc>Speed 37.0 km/h Distance 61.02 km</desc>
<time>2012-09-18T16:34:47.30</time>
<name>3243</name>
<sym>Dot</sym>
</trkpt>
<trkpt lat="47.664895" lon="15.575622">
<ele>785.5</ele>
<desc>Speed 38.3 km/h Distance 61.04 km</desc>
<time>2012-09-18T16:34:48.29</time>
<name>3244</name>
<sym>Dot</sym>
</trkpt>
<trkpt lat="47.664990" lon="15.575617">
<ele>786.0</ele>
<desc>Speed 37.7 km/h Distance 61.05 km</desc>
<time>2012-09-18T16:34:49.29</time>
<name>3245</name>
<sym>Dot</sym>
</trkpt>
<trkpt lat="47.665088" lon="15.575615">
<ele>785.5</ele>
<desc>Speed 39.7 km/h Distance 61.06 km</desc>
<time>2012-09-18T16:34:50.29</time>
<name>3246</name>
<sym>Dot</sym>
</trkpt>
<trkpt lat="47.665193" lon="15.575625">
<ele>785.0</ele>
<desc>Speed 41.8 km/h Distance 61.07 km</desc>
<time>2012-09-18T16:34:51.29</time>
<name>3247</name>
<sym>Dot</sym>
</trkpt>
<trkpt lat="47.665303" lon="15.575645">
<ele>785.5</ele>
<desc>Speed 44.6 km/h Distance 61.08 km</desc>
<time>2012-09-18T16:34:52.29</time>
<name>3248</name>
<sym>Dot</sym>
</trkpt>
<trkpt lat="47.665428" lon="15.575683">
<ele>785.5</ele>
<desc>Speed 50.4 km/h Distance 61.10 km</desc>
<time>2012-09-18T16:34:53.27</time>
<name>3249</name>
<sym>Dot</sym>
</trkpt>
<trkpt lat="47.665547" lon="15.575727">
<ele>785.0</ele>
<desc>Speed 49.0 km/h Distance 61.11 km</desc>
<time>2012-09-18T16:34:54.26</time>
<name>3250</name>
<sym>Dot</sym>
</trkpt>
<trkpt lat="47.665658" lon="15.575767">
<ele>785.0</ele>
<desc>Speed 46.1 km/h Distance 61.12 km</desc>
<time>2012-09-18T16:34:55.26</time>
<name>3251</name>
<sym>Dot</sym>
</trkpt>
<trkpt lat="47.665767" lon="15.575798">
<ele>785.0</ele>
<desc>Speed 44.2 km/h Distance 61.13 km</desc>
<time>2012-09-18T16:34:56.26</time>
<name>3252</name>
<sym>Dot</sym>
</trkpt>
<trkpt lat="47.665873" lon="15.575815">
<ele>784.5</ele>
<desc>Speed 42.5 km/h Distance 61.15 km</desc>
<time>2012-09-18T16:34:57.26</time>
<name>3253</name>
<sym>Dot</sym>
</trkpt>
<trkpt lat="47.665985" lon="15.575780">
<ele>784.5</ele>
<desc>Speed 44.9 km/h Distance 61.16 km</desc>
<time>2012-09-18T16:34:58.24</time>
<name>3254</name>
<sym>Dot</sym>
</trkpt>
<trkpt lat="47.666090" lon="15.575717">
<ele>784.5</ele>
<desc>Speed 44.7 km/h Distance 61.17 km</desc>
<time>2012-09-18T16:34:59.23</time>
<name>3255</name>
<sym>Dot</sym>
</trkpt>
<trkpt lat="47.666200" lon="15.575633">
<ele>784.5</ele>
<desc>Speed 49.4 km/h Distance 61.19 km</desc>
<time>2012-09-18T16:35:00.24</time>
<name>3256</name>
<sym>Dot</sym>
</trkpt>
<trkpt lat="47.666315" lon="15.575535">
<ele>784.5</ele>
<desc>Speed 53.1 km/h Distance 61.20 km</desc>
<time>2012-09-18T16:35:01.23</time>
<name>3257</name>
<sym>Dot</sym>
</trkpt>
<trkpt lat="47.666427" lon="15.575435">
<ele>785.0</ele>
<desc>Speed 52.6 km/h Distance 61.21 km</desc>
<time>2012-09-18T16:35:02.22</time>
<name>3258</name>
<sym>Dot</sym>
</trkpt>
<trkpt lat="47.666535" lon="15.575345">
<ele>785.0</ele>
<desc>Speed 50.1 km/h Distance 61.23 km</desc>
<time>2012-09-18T16:35:03.21</time>
<name>3259</name>
<sym>Dot</sym>
</trkpt>
<trkpt lat="47.666647" lon="15.575258">
<ele>784.5</ele>
<desc>Speed 50.9 km/h Distance 61.24 km</desc>
<time>2012-09-18T16:35:04.20</time>
<name>3260</name>
<sym>Dot</sym>
</trkpt>
<trkpt lat="47.666760" lon="15.575170">
<ele>785.5</ele>
<desc>Speed 51.9 km/h Distance 61.26 km</desc>
<time>2012-09-18T16:35:05.20</time>
<name>3261</name>
<sym>Dot</sym>
</trkpt>
<trkpt lat="47.666867" lon="15.575065">
<ele>787.0</ele>
<desc>Speed 51.0 km/h Distance 61.27 km</desc>
<time>2012-09-18T16:35:06.21</time>
<name>3262</name>
<sym>Dot</sym>
</trkpt>
<trkpt lat="47.666968" lon="15.574962">
<ele>786.5</ele>
<desc>Speed 49.6 km/h Distance 61.28 km</desc>
<time>2012-09-18T16:35:07.20</time>
<name>3263</name>
<sym>Dot</sym>
</trkpt>
<trkpt lat="47.667067" lon="15.574862">
<ele>786.5</ele>
<desc>Speed 47.4 km/h Distance 61.30 km</desc>
<time>2012-09-18T16:35:08.19</time>
<name>3264</name>
<sym>Dot</sym>
</trkpt>
<trkpt lat="47.667160" lon="15.574772">
<ele>786.5</ele>
<desc>Speed 45.1 km/h Distance 61.31 km</desc>
<time>2012-09-18T16:35:09.19</time>
<name>3265</name>
<sym>Dot</sym>
</trkpt>
<trkpt lat="47.667252" lon="15.574688">
<ele>786.5</ele>
<desc>Speed 42.9 km/h Distance 61.32 km</desc>
<time>2012-09-18T16:35:10.18</time>
<name>3266</name>
<sym>Dot</sym>
</trkpt>
<trkpt lat="47.667337" lon="15.574617">
<ele>787.0</ele>
<desc>Speed 40.4 km/h Distance 61.33 km</desc>
<time>2012-09-18T16:35:11.19</time>
<name>3267</name>
<sym>Dot</sym>
</trkpt>
<trkpt lat="47.667432" lon="15.574555">
<ele>786.5</ele>
<desc>Speed 41.7 km/h Distance 61.34 km</desc>
<time>2012-09-18T16:35:12.18</time>
<name>3268</name>
<sym>Dot</sym>
</trkpt>
<trkpt lat="47.667542" lon="15.574502">
<ele>786.0</ele>
<desc>Speed 46.4 km/h Distance 61.36 km</desc>
<time>2012-09-18T16:35:13.17</time>
<name>3269</name>
<sym>Dot</sym>
</trkpt>
<trkpt lat="47.667670" lon="15.574458">
<ele>785.5</ele>
<desc>Speed 52.6 km/h Distance 61.37 km</desc>
<time>2012-09-18T16:35:14.17</time>
<name>3270</name>
<sym>Dot</sym>
</trkpt>
<trkpt lat="47.667805" lon="15.574422">
<ele>786.0</ele>
<desc>Speed 55.2 km/h Distance 61.39 km</desc>
<time>2012-09-18T16:35:15.17</time>
<name>3271</name>
<sym>Dot</sym>
</trkpt>
<trkpt lat="47.667940" lon="15.574385">
<ele>785.5</ele>
<desc>Speed 54.5 km/h Distance 61.40 km</desc>
<time>2012-09-18T16:35:16.16</time>
<name>3272</name>
<sym>Dot</sym>
</trkpt>
<trkpt lat="47.668070" lon="15.574343">
<ele>786.0</ele>
<desc>Speed 53.3 km/h Distance 61.42 km</desc>
<time>2012-09-18T16:35:17.15</time>
<name>3273</name>
<sym>Dot</sym>
</trkpt>
<trkpt lat="47.668203" lon="15.574290">
<ele>786.5</ele>
<desc>Speed 54.8 km/h Distance 61.43 km</desc>
<time>2012-09-18T16:35:18.15</time>
<name>3274</name>
<sym>Dot</sym>
</trkpt>
<trkpt lat="47.668337" lon="15.574222">
<ele>786.5</ele>
<desc>Speed 55.9 km/h Distance 61.45 km</desc>
<time>2012-09-18T16:35:19.14</time>
<name>3275</name>
<sym>Dot</sym>
</trkpt>
<trkpt lat="47.668465" lon="15.574138">
<ele>786.5</ele>
<desc>Speed 56.3 km/h Distance 61.46 km</desc>
<time>2012-09-18T16:35:20.14</time>
<name>3276</name>
<sym>Dot</sym>
</trkpt>
<trkpt lat="47.668595" lon="15.574057">
<ele>786.5</ele>
<desc>Speed 55.9 km/h Distance 61.48 km</desc>
<time>2012-09-18T16:35:21.14</time>
<name>3277</name>
<sym>Dot</sym>
</trkpt>
<trkpt lat="47.668727" lon="15.573987">
<ele>786.5</ele>
<desc>Speed 55.5 km/h Distance 61.50 km</desc>
<time>2012-09-18T16:35:22.12</time>
<name>3278</name>
<sym>Dot</sym>
</trkpt>
<trkpt lat="47.668860" lon="15.573935">
<ele>786.5</ele>
<desc>Speed 55.3 km/h Distance 61.51 km</desc>
<time>2012-09-18T16:35:23.12</time>
<name>3279</name>
<sym>Dot</sym>
</trkpt>
<trkpt lat="47.668995" lon="15.573907">
<ele>786.0</ele>
<desc>Speed 54.5 km/h Distance 61.53 km</desc>
<time>2012-09-18T16:35:24.12</time>
<name>3280</name>
<sym>Dot</sym>
</trkpt>
<trkpt lat="47.669120" lon="15.573878">
<ele>786.0</ele>
<desc>Speed 50.4 km/h Distance 61.54 km</desc>
<time>2012-09-18T16:35:25.11</time>
<name>3281</name>
<sym>Dot</sym>
</trkpt>
<trkpt lat="47.669232" lon="15.573833">
<ele>786.5</ele>
<desc>Speed 46.7 km/h Distance 61.55 km</desc>
<time>2012-09-18T16:35:26.10</time>
<name>3282</name>
<sym>Dot</sym>
</trkpt>
<trkpt lat="47.669333" lon="15.573763">
<ele>786.0</ele>
<desc>Speed 44.7 km/h Distance 61.57 km</desc>
<time>2012-09-18T16:35:27.11</time>
<name>3283</name>
<sym>Dot</sym>
</trkpt>
<trkpt lat="47.669430" lon="15.573673">
<ele>787.0</ele>
<desc>Speed 46.1 km/h Distance 61.58 km</desc>
<time>2012-09-18T16:35:28.10</time>
<name>3284</name>
<sym>Dot</sym>
</trkpt>
<trkpt lat="47.669525" lon="15.573565">
<ele>787.5</ele>
<desc>Speed 48.5 km/h Distance 61.59 km</desc>
<time>2012-09-18T16:35:29.09</time>
<name>3285</name>
<sym>Dot</sym>
</trkpt>
<trkpt lat="47.669615" lon="15.573437">
<ele>787.5</ele>
<desc>Speed 49.5 km/h Distance 61.61 km</desc>
<time>2012-09-18T16:35:30.09</time>
<name>3286</name>
<sym>Dot</sym>
</trkpt>
<trkpt lat="47.669692" lon="15.573303">
<ele>788.0</ele>
<desc>Speed 48.1 km/h Distance 61.62 km</desc>
<time>2012-09-18T16:35:31.08</time>
<name>3287</name>
<sym>Dot</sym>
</trkpt>
<trkpt lat="47.669760" lon="15.573158">
<ele>787.5</ele>
<desc>Speed 47.8 km/h Distance 61.63 km</desc>
<time>2012-09-18T16:35:32.07</time>
<name>3288</name>
<sym>Dot</sym>
</trkpt>
<trkpt lat="47.669823" lon="15.573000">
<ele>787.5</ele>
<desc>Speed 49.9 km/h Distance 61.65 km</desc>
<time>2012-09-18T16:35:33.07</time>
<name>3289</name>
<sym>Dot</sym>
</trkpt>
<trkpt lat="47.669888" lon="15.572835">
<ele>787.5</ele>
<desc>Speed 51.8 km/h Distance 61.66 km</desc>
<time>2012-09-18T16:35:34.08</time>
<name>3290</name>
<sym>Dot</sym>
</trkpt>
<trkpt lat="47.669953" lon="15.572665">
<ele>787.5</ele>
<desc>Speed 52.5 km/h Distance 61.67 km</desc>
<time>2012-09-18T16:35:35.05</time>
<name>3291</name>
<sym>Dot</sym>
</trkpt>
<trkpt lat="47.670013" lon="15.572495">
<ele>788.0</ele>
<desc>Speed 52.1 km/h Distance 61.69 km</desc>
<time>2012-09-18T16:35:36.07</time>
<name>3292</name>
<sym>Dot</sym>
</trkpt>
<trkpt lat="47.670070" lon="15.572323">
<ele>788.0</ele>
<desc>Speed 51.5 km/h Distance 61.70 km</desc>
<time>2012-09-18T16:35:37.06</time>
<name>3293</name>
<sym>Dot</sym>
</trkpt>
<trkpt lat="47.670128" lon="15.572153">
<ele>788.0</ele>
<desc>Speed 51.4 km/h Distance 61.72 km</desc>
<time>2012-09-18T16:35:38.05</time>
<name>3294</name>
<sym>Dot</sym>
</trkpt>
<trkpt lat="47.670188" lon="15.571983">
<ele>788.0</ele>
<desc>Speed 51.9 km/h Distance 61.73 km</desc>
<time>2012-09-18T16:35:39.04</time>
<name>3295</name>
<sym>Dot</sym>
</trkpt>
<trkpt lat="47.670250" lon="15.571813">
<ele>788.0</ele>
<desc>Speed 52.1 km/h Distance 61.75 km</desc>
<time>2012-09-18T16:35:40.04</time>
<name>3296</name>
<sym>Dot</sym>
</trkpt>
<trkpt lat="47.670312" lon="15.571645">
<ele>788.0</ele>
<desc>Speed 51.7 km/h Distance 61.76 km</desc>
<time>2012-09-18T16:35:41.03</time>
<name>3297</name>
<sym>Dot</sym>
</trkpt>
<trkpt lat="47.670375" lon="15.571480">
<ele>788.0</ele>
<desc>Speed 51.3 km/h Distance 61.77 km</desc>
<time>2012-09-18T16:35:42.03</time>
<name>3298</name>
<sym>Dot</sym>
</trkpt>
<trkpt lat="47.670438" lon="15.571313">
<ele>788.0</ele>
<desc>Speed 51.5 km/h Distance 61.79 km</desc>
<time>2012-09-18T16:35:43.03</time>
<name>3299</name>
<sym>Dot</sym>
</trkpt>
<trkpt lat="47.670502" lon="15.571150">
<ele>788.0</ele>
<desc>Speed 50.9 km/h Distance 61.80 km</desc>
<time>2012-09-18T16:35:44.04</time>
<name>3300</name>
<sym>Dot</sym>
</trkpt>
<trkpt lat="47.670565" lon="15.570987">
<ele>788.0</ele>
<desc>Speed 50.6 km/h Distance 61.82 km</desc>
<time>2012-09-18T16:35:45.03</time>
<name>3301</name>
<sym>Dot</sym>
</trkpt>
<trkpt lat="47.670632" lon="15.570825">
<ele>788.0</ele>
<desc>Speed 51.2 km/h Distance 61.83 km</desc>
<time>2012-09-18T16:35:46.02</time>
<name>3302</name>
<sym>Dot</sym>
</trkpt>
<trkpt lat="47.670703" lon="15.570667">
<ele>787.0</ele>
<desc>Speed 51.8 km/h Distance 61.85 km</desc>
<time>2012-09-18T16:35:47.01</time>
<name>3303</name>
<sym>Dot</sym>
</trkpt>
<trkpt lat="47.670780" lon="15.570512">
<ele>787.0</ele>
<desc>Speed 51.8 km/h Distance 61.86 km</desc>
<time>2012-09-18T16:35:48.01</time>
<name>3304</name>
<sym>Dot</sym>
</trkpt>
<trkpt lat="47.670857" lon="15.570358">
<ele>787.0</ele>
<desc>Speed 52.1 km/h Distance 61.87 km</desc>
<time>2012-09-18T16:35:49.00</time>
<name>3305</name>
<sym>Dot</sym>
</trkpt>
<trkpt lat="47.670937" lon="15.570202">
<ele>787.0</ele>
<desc>Speed 53.0 km/h Distance 61.89 km</desc>
<time>2012-09-18T16:35:50.00</time>
<name>3306</name>
<sym>Dot</sym>
</trkpt>
<trkpt lat="47.671018" lon="15.570043">
<ele>787.0</ele>
<desc>Speed 54.2 km/h Distance 61.90 km</desc>
<time>2012-09-18T16:35:50.99</time>
<name>3307</name>
<sym>Dot</sym>
</trkpt>
<trkpt lat="47.671100" lon="15.569883">
<ele>787.0</ele>
<desc>Speed 54.1 km/h Distance 61.92 km</desc>
<time>2012-09-18T16:35:51.99</time>
<name>3308</name>
<sym>Dot</sym>
</trkpt>
<trkpt lat="47.671182" lon="15.569727">
<ele>787.0</ele>
<desc>Speed 53.7 km/h Distance 61.93 km</desc>
<time>2012-09-18T16:35:52.98</time>
<name>3309</name>
<sym>Dot</sym>
</trkpt>
<trkpt lat="47.671267" lon="15.569563">
<ele>787.5</ele>
<desc>Speed 55.9 km/h Distance 61.95 km</desc>
<time>2012-09-18T16:35:53.97</time>
<name>3310</name>
<sym>Dot</sym>
</trkpt>
<trkpt lat="47.671357" lon="15.569382">
<ele>787.5</ele>
<desc>Speed 61.2 km/h Distance 61.97 km</desc>
<time>2012-09-18T16:35:54.97</time>
<name>3311</name>
<sym>Dot</sym>
</trkpt>
<trkpt lat="47.671573" lon="15.568955">
<ele>787.5</ele>
<desc>Speed 75.4 km/h Distance 62.01 km</desc>
<time>2012-09-18T16:35:56.97</time>
<name>3312</name>
<sym>Dot</sym>
</trkpt>
<trkpt lat="47.671692" lon="15.568730">
<ele>787.5</ele>
<desc>Speed 77.0 km/h Distance 62.03 km</desc>
<time>2012-09-18T16:35:57.97</time>
<name>3313</name>
<sym>Dot</sym>
</trkpt>
<trkpt lat="47.671815" lon="15.568492">
<ele>787.5</ele>
<desc>Speed 81.1 km/h Distance 62.05 km</desc>
<time>2012-09-18T16:35:58.96</time>
<name>3314</name>
<sym>Dot</sym>
</trkpt>
<trkpt lat="47.671943" lon="15.568242">
<ele>788.0</ele>
<desc>Speed 85.0 km/h Distance 62.07 km</desc>
<time>2012-09-18T16:35:59.95</time>
<name>3315</name>
<sym>Dot</sym>
</trkpt>
<trkpt lat="47.672078" lon="15.567977">
<ele>788.0</ele>
<desc>Speed 89.5 km/h Distance 62.10 km</desc>
<time>2012-09-18T16:36:00.96</time>
<name>3316</name>
<sym>Dot</sym>
</trkpt>
<trkpt lat="47.672212" lon="15.567705">
<ele>788.0</ele>
<desc>Speed 90.5 km/h Distance 62.12 km</desc>
<time>2012-09-18T16:36:01.95</time>
<name>3317</name>
<sym>Dot</sym>
</trkpt>
<trkpt lat="47.672337" lon="15.567425">
<ele>788.5</ele>
<desc>Speed 90.3 km/h Distance 62.15 km</desc>
<time>2012-09-18T16:36:02.95</time>
<name>3318</name>
<sym>Dot</sym>
</trkpt>
<trkpt lat="47.672457" lon="15.567133">
<ele>789.0</ele>
<desc>Speed 92.2 km/h Distance 62.18 km</desc>
<time>2012-09-18T16:36:03.93</time>
<name>3319</name>
<sym>Dot</sym>
</trkpt>
<trkpt lat="47.672573" lon="15.566832">
<ele>789.5</ele>
<desc>Speed 93.9 km/h Distance 62.20 km</desc>
<time>2012-09-18T16:36:04.93</time>
<name>3320</name>
<sym>Dot</sym>
</trkpt>
<trkpt lat="47.672680" lon="15.566518">
<ele>790.5</ele>
<desc>Speed 95.1 km/h Distance 62.23 km</desc>
<time>2012-09-18T16:36:05.92</time>
<name>3321</name>
<sym>Dot</sym>
</trkpt>
<trkpt lat="47.672773" lon="15.566190">
<ele>791.5</ele>
<desc>Speed 96.4 km/h Distance 62.25 km</desc>
<time>2012-09-18T16:36:06.92</time>
<name>3322</name>
<sym>Dot</sym>
</trkpt>
<trkpt lat="47.672855" lon="15.565850">
<ele>793.0</ele>
<desc>Speed 97.4 km/h Distance 62.28 km</desc>
<time>2012-09-18T16:36:07.91</time>
<name>3323</name>
<sym>Dot</sym>
</trkpt>
<trkpt lat="47.672923" lon="15.565502">
<ele>794.0</ele>
<desc>Speed 98.2 km/h Distance 62.31 km</desc>
<time>2012-09-18T16:36:08.91</time>
<name>3324</name>
<sym>Dot</sym>
</trkpt>
<trkpt lat="47.672980" lon="15.565147">
<ele>795.0</ele>
<desc>Speed 99.1 km/h Distance 62.34 km</desc>
<time>2012-09-18T16:36:09.90</time>
<name>3325</name>
<sym>Dot</sym>
</trkpt>
<trkpt lat="47.673027" lon="15.564783">
<ele>796.0</ele>
<desc>Speed 100.0 km/h Distance 62.36 km</desc>
<time>2012-09-18T16:36:10.89</time>
<name>3326</name>
<sym>Dot</sym>
</trkpt>
<trkpt lat="47.673058" lon="15.564415">
<ele>797.0</ele>
<desc>Speed 101 km/h Distance 62.39 km</desc>
<time>2012-09-18T16:36:11.89</time>
<name>3327</name>
<sym>Dot</sym>
</trkpt>
<trkpt lat="47.673082" lon="15.564047">
<ele>798.0</ele>
<desc>Speed 100 km/h Distance 62.42 km</desc>
<time>2012-09-18T16:36:12.90</time>
<name>3328</name>
<sym>Dot</sym>
</trkpt>
<trkpt lat="47.673100" lon="15.563680">
<ele>799.0</ele>
<desc>Speed 99.7 km/h Distance 62.45 km</desc>
<time>2012-09-18T16:36:13.88</time>
<name>3329</name>
<sym>Dot</sym>
</trkpt>
<trkpt lat="47.673122" lon="15.563313">
<ele>800.0</ele>
<desc>Speed 99.4 km/h Distance 62.47 km</desc>
<time>2012-09-18T16:36:14.88</time>
<name>3330</name>
<sym>Dot</sym>
</trkpt>
<trkpt lat="47.673140" lon="15.562950">
<ele>801.0</ele>
<desc>Speed 98.8 km/h Distance 62.50 km</desc>
<time>2012-09-18T16:36:15.87</time>
<name>3331</name>
<sym>Dot</sym>
</trkpt>
<trkpt lat="47.673157" lon="15.562593">
<ele>802.5</ele>
<desc>Speed 96.8 km/h Distance 62.53 km</desc>
<time>2012-09-18T16:36:16.87</time>
<name>3332</name>
<sym>Dot</sym>
</trkpt>
<trkpt lat="47.673173" lon="15.562255">
<ele>802.5</ele>
<desc>Speed 91.7 km/h Distance 62.55 km</desc>
<time>2012-09-18T16:36:17.86</time>
<name>3333</name>
<sym>Dot</sym>
</trkpt>
<trkpt lat="47.673187" lon="15.561937">
<ele>803.0</ele>
<desc>Speed 86.1 km/h Distance 62.58 km</desc>
<time>2012-09-18T16:36:18.86</time>
<name>3334</name>
<sym>Dot</sym>
</trkpt>
<trkpt lat="47.673205" lon="15.561637">
<ele>803.0</ele>
<desc>Speed 81.4 km/h Distance 62.60 km</desc>
<time>2012-09-18T16:36:19.86</time>
<name>3335</name>
<sym>Dot</sym>
</trkpt>
<trkpt lat="47.673228" lon="15.561342">
<ele>803.5</ele>
<desc>Speed 80.5 km/h Distance 62.62 km</desc>
<time>2012-09-18T16:36:20.85</time>
<name>3336</name>
<sym>Dot</sym>
</trkpt>
<trkpt lat="47.673263" lon="15.561048">
<ele>803.5</ele>
<desc>Speed 80.5 km/h Distance 62.64 km</desc>
<time>2012-09-18T16:36:21.86</time>
<name>3337</name>
<sym>Dot</sym>
</trkpt>
<trkpt lat="47.673322" lon="15.560752">
<ele>802.5</ele>
<desc>Speed 83.3 km/h Distance 62.67 km</desc>
<time>2012-09-18T16:36:22.87</time>
<name>3338</name>
<sym>Dot</sym>
</trkpt>
<trkpt lat="47.673387" lon="15.560462">
<ele>802.5</ele>
<desc>Speed 82.4 km/h Distance 62.69 km</desc>
<time>2012-09-18T16:36:23.86</time>
<name>3339</name>
<sym>Dot</sym>
</trkpt>
<trkpt lat="47.673462" lon="15.560178">
<ele>801.5</ele>
<desc>Speed 82.5 km/h Distance 62.71 km</desc>
<time>2012-09-18T16:36:24.85</time>
<name>3340</name>
<sym>Dot</sym>
</trkpt>
<trkpt lat="47.673553" lon="15.559905">
<ele>801.5</ele>
<desc>Speed 82.6 km/h Distance 62.74 km</desc>
<time>2012-09-18T16:36:25.84</time>
<name>3341</name>
<sym>Dot</sym>
</trkpt>
<trkpt lat="47.673660" lon="15.559637">
<ele>801.0</ele>
<desc>Speed 83.8 km/h Distance 62.76 km</desc>
<time>2012-09-18T16:36:26.83</time>
<name>3342</name>
<sym>Dot</sym>
</trkpt>
<trkpt lat="47.673778" lon="15.559377">
<ele>801.0</ele>
<desc>Speed 85.0 km/h Distance 62.78 km</desc>
<time>2012-09-18T16:36:27.84</time>
<name>3343</name>
<sym>Dot</sym>
</trkpt>
<trkpt lat="47.673907" lon="15.559123">
<ele>801.0</ele>
<desc>Speed 84.9 km/h Distance 62.81 km</desc>
<time>2012-09-18T16:36:28.84</time>
<name>3344</name>
<sym>Dot</sym>
</trkpt>
<trkpt lat="47.674037" lon="15.558880">
<ele>800.5</ele>
<desc>Speed 83.5 km/h Distance 62.83 km</desc>
<time>2012-09-18T16:36:29.83</time>
<name>3345</name>
<sym>Dot</sym>
</trkpt>
<trkpt lat="47.674163" lon="15.558638">
<ele>799.5</ele>
<desc>Speed 82.4 km/h Distance 62.85 km</desc>
<time>2012-09-18T16:36:30.84</time>
<name>3346</name>
<sym>Dot</sym>
</trkpt>
<trkpt lat="47.674288" lon="15.558395">
<ele>799.0</ele>
<desc>Speed 82.4 km/h Distance 62.88 km</desc>
<time>2012-09-18T16:36:31.83</time>
<name>3347</name>
<sym>Dot</sym>
</trkpt>
<trkpt lat="47.674413" lon="15.558150">
<ele>798.0</ele>
<desc>Speed 82.9 km/h Distance 62.90 km</desc>
<time>2012-09-18T16:36:32.83</time>
<name>3348</name>
<sym>Dot</sym>
</trkpt>
<trkpt lat="47.674538" lon="15.557907">
<ele>797.0</ele>
<desc>Speed 82.8 km/h Distance 62.92 km</desc>
<time>2012-09-18T16:36:33.82</time>
<name>3349</name>
<sym>Dot</sym>
</trkpt>
<trkpt lat="47.674665" lon="15.557657">
<ele>796.5</ele>
<desc>Speed 83.8 km/h Distance 62.95 km</desc>
<time>2012-09-18T16:36:34.82</time>
<name>3350</name>
<sym>Dot</sym>
</trkpt>
<trkpt lat="47.674787" lon="15.557402">
<ele>796.0</ele>
<desc>Speed 84.8 km/h Distance 62.97 km</desc>
<time>2012-09-18T16:36:35.82</time>
<name>3351</name>
<sym>Dot</sym>
</trkpt>
<trkpt lat="47.674905" lon="15.557143">
<ele>795.5</ele>
<desc>Speed 84.2 km/h Distance 62.99 km</desc>
<time>2012-09-18T16:36:36.81</time>
<name>3352</name>
<sym>Dot</sym>
</trkpt>
<trkpt lat="47.675017" lon="15.556877">
<ele>795.0</ele>
<desc>Speed 85.4 km/h Distance 63.02 km</desc>
<time>2012-09-18T16:36:37.81</time>
<name>3353</name>
<sym>Dot</sym>
</trkpt>
<trkpt lat="47.675127" lon="15.556602">
<ele>795.0</ele>
<desc>Speed 86.8 km/h Distance 63.04 km</desc>
<time>2012-09-18T16:36:38.79</time>
<name>3354</name>
<sym>Dot</sym>
</trkpt>
<trkpt lat="47.675230" lon="15.556317">
<ele>795.0</ele>
<desc>Speed 87.7 km/h Distance 63.06 km</desc>
<time>2012-09-18T16:36:39.78</time>
<name>3355</name>
<sym>Dot</sym>
</trkpt>
<trkpt lat="47.675328" lon="15.556023">
<ele>794.5</ele>
<desc>Speed 89.2 km/h Distance 63.09 km</desc>
<time>2012-09-18T16:36:40.78</time>
<name>3356</name>
<sym>Dot</sym>
</trkpt>
<trkpt lat="47.675422" lon="15.555718">
<ele>794.5</ele>
<desc>Speed 91.0 km/h Distance 63.11 km</desc>
<time>2012-09-18T16:36:41.78</time>
<name>3357</name>
<sym>Dot</sym>
</trkpt>
<trkpt lat="47.675510" lon="15.555405">
<ele>795.0</ele>
<desc>Speed 92.4 km/h Distance 63.14 km</desc>
<time>2012-09-18T16:36:42.83</time>
<name>3358</name>
<sym>Dot</sym>
</trkpt>
<trkpt lat="47.675592" lon="15.555085">
<ele>795.5</ele>
<desc>Speed 92.4 km/h Distance 63.17 km</desc>
<time>2012-09-18T16:36:43.78</time>
<name>3359</name>
<sym>Dot</sym>
</trkpt>
<trkpt lat="47.675663" lon="15.554773">
<ele>795.5</ele>
<desc>Speed 89.0 km/h Distance 63.19 km</desc>
<time>2012-09-18T16:36:44.78</time>
<name>3360</name>
<sym>Dot</sym>
</trkpt>
<trkpt lat="47.675755" lon="15.553927">
<ele>796.0</ele>
<desc>Speed 73.5 km/h Distance 63.25 km</desc>
<time>2012-09-18T16:36:49.42</time>
<name>3361</name>
<sym>Dot</sym>
</trkpt>
<trkpt lat="47.675732" lon="15.553647">
<ele>798.0</ele>
<desc>Speed 76.4 km/h Distance 63.28 km</desc>
<time>2012-09-18T16:36:49.95</time>
<name>3362</name>
<sym>Dot</sym>
</trkpt>
<trkpt lat="47.675688" lon="15.553362">
<ele>799.5</ele>
<desc>Speed 79.3 km/h Distance 63.30 km</desc>
<time>2012-09-18T16:36:50.95</time>
<name>3363</name>
<sym>Dot</sym>
</trkpt>
<trkpt lat="47.675620" lon="15.553085">
<ele>801.0</ele>
<desc>Speed 80.0 km/h Distance 63.32 km</desc>
<time>2012-09-18T16:36:51.95</time>
<name>3364</name>
<sym>Dot</sym>
</trkpt>
<trkpt lat="47.675530" lon="15.552810">
<ele>800.0</ele>
<desc>Speed 82.7 km/h Distance 63.34 km</desc>
<time>2012-09-18T16:36:52.94</time>
<name>3365</name>
<sym>Dot</sym>
</trkpt>
<trkpt lat="47.675427" lon="15.552547">
<ele>801.5</ele>
<desc>Speed 83.3 km/h Distance 63.37 km</desc>
<time>2012-09-18T16:36:53.94</time>
<name>3366</name>
<sym>Dot</sym>
</trkpt>
<trkpt lat="47.675328" lon="15.552293">
<ele>801.5</ele>
<desc>Speed 79.1 km/h Distance 63.39 km</desc>
<time>2012-09-18T16:36:54.94</time>
<name>3367</name>
<sym>Dot</sym>
</trkpt>
<trkpt lat="47.675235" lon="15.552058">
<ele>801.5</ele>
<desc>Speed 74.2 km/h Distance 63.41 km</desc>
<time>2012-09-18T16:36:55.94</time>
<name>3368</name>
<sym>Dot</sym>
</trkpt>
<trkpt lat="47.675150" lon="15.551833">
<ele>801.5</ele>
<desc>Speed 70.0 km/h Distance 63.43 km</desc>
<time>2012-09-18T16:36:56.93</time>
<name>3369</name>
<sym>Dot</sym>
</trkpt>
<trkpt lat="47.675070" lon="15.551622">
<ele>802.0</ele>
<desc>Speed 65.6 km/h Distance 63.45 km</desc>
<time>2012-09-18T16:36:57.93</time>
<name>3370</name>
<sym>Dot</sym>
</trkpt>
<trkpt lat="47.674997" lon="15.551420">
<ele>802.0</ele>
<desc>Speed 62.2 km/h Distance 63.46 km</desc>
<time>2012-09-18T16:36:58.92</time>
<name>3371</name>
<sym>Dot</sym>
</trkpt>
<trkpt lat="47.674930" lon="15.551225">
<ele>802.0</ele>
<desc>Speed 59.4 km/h Distance 63.48 km</desc>
<time>2012-09-18T16:36:59.91</time>
<name>3372</name>
<sym>Dot</sym>
</trkpt>
<trkpt lat="47.674868" lon="15.551035">
<ele>802.5</ele>
<desc>Speed 57.5 km/h Distance 63.49 km</desc>
<time>2012-09-18T16:37:00.91</time>
<name>3373</name>
<sym>Dot</sym>
</trkpt>
<trkpt lat="47.674813" lon="15.550845">
<ele>802.5</ele>
<desc>Speed 56.1 km/h Distance 63.51 km</desc>
<time>2012-09-18T16:37:01.90</time>
<name>3374</name>
<sym>Dot</sym>
</trkpt>
<trkpt lat="47.674762" lon="15.550653">
<ele>802.0</ele>
<desc>Speed 55.9 km/h Distance 63.53 km</desc>
<time>2012-09-18T16:37:02.90</time>
<name>3375</name>
<sym>Dot</sym>
</trkpt>
<trkpt lat="47.674718" lon="15.550457">
<ele>802.0</ele>
<desc>Speed 55.4 km/h Distance 63.54 km</desc>
<time>2012-09-18T16:37:03.88</time>
<name>3376</name>
<sym>Dot</sym>
</trkpt>
<trkpt lat="47.674680" lon="15.550262">
<ele>801.5</ele>
<desc>Speed 55.1 km/h Distance 63.56 km</desc>
<time>2012-09-18T16:37:04.88</time>
<name>3377</name>
<sym>Dot</sym>
</trkpt>
<trkpt lat="47.674647" lon="15.550065">
<ele>801.5</ele>
<desc>Speed 54.8 km/h Distance 63.57 km</desc>
<time>2012-09-18T16:37:05.88</time>
<name>3378</name>
<sym>Dot</sym>
</trkpt>
<trkpt lat="47.674617" lon="15.549867">
<ele>801.0</ele>
<desc>Speed 54.8 km/h Distance 63.59 km</desc>
<time>2012-09-18T16:37:06.87</time>
<name>3379</name>
<sym>Dot</sym>
</trkpt>
<trkpt lat="47.674592" lon="15.549667">
<ele>801.5</ele>
<desc>Speed 54.8 km/h Distance 63.60 km</desc>
<time>2012-09-18T16:37:07.87</time>
<name>3380</name>
<sym>Dot</sym>
</trkpt>
<trkpt lat="47.674572" lon="15.549465">
<ele>801.5</ele>
<desc>Speed 55.2 km/h Distance 63.62 km</desc>
<time>2012-09-18T16:37:08.86</time>
<name>3381</name>
<sym>Dot</sym>
</trkpt>
<trkpt lat="47.674553" lon="15.549260">
<ele>801.5</ele>
<desc>Speed 56.0 km/h Distance 63.63 km</desc>
<time>2012-09-18T16:37:09.84</time>
<name>3382</name>
<sym>Dot</sym>
</trkpt>
<trkpt lat="47.674538" lon="15.549052">
<ele>802.0</ele>
<desc>Speed 56.6 km/h Distance 63.65 km</desc>
<time>2012-09-18T16:37:10.83</time>
<name>3383</name>
<sym>Dot</sym>
</trkpt>
<trkpt lat="47.674533" lon="15.548838">
<ele>802.5</ele>
<desc>Speed 57.4 km/h Distance 63.66 km</desc>
<time>2012-09-18T16:37:11.83</time>
<name>3384</name>
<sym>Dot</sym>
</trkpt>
<trkpt lat="47.674540" lon="15.548620">
<ele>802.5</ele>
<desc>Speed 58.8 km/h Distance 63.68 km</desc>
<time>2012-09-18T16:37:12.82</time>
<name>3385</name>
<sym>Dot</sym>
</trkpt>
<trkpt lat="47.674548" lon="15.548397">
<ele>802.5</ele>
<desc>Speed 60.4 km/h Distance 63.70 km</desc>
<time>2012-09-18T16:37:13.82</time>
<name>3386</name>
<sym>Dot</sym>
</trkpt>
<trkpt lat="47.674555" lon="15.548168">
<ele>802.5</ele>
<desc>Speed 61.6 km/h Distance 63.71 km</desc>
<time>2012-09-18T16:37:14.81</time>
<name>3387</name>
<sym>Dot</sym>
</trkpt>
<trkpt lat="47.674563" lon="15.547938">
<ele>802.5</ele>
<desc>Speed 62.0 km/h Distance 63.73 km</desc>
<time>2012-09-18T16:37:15.81</time>
<name>3388</name>
<sym>Dot</sym>
</trkpt>
<trkpt lat="47.674573" lon="15.547708">
<ele>802.5</ele>
<desc>Speed 62.0 km/h Distance 63.75 km</desc>
<time>2012-09-18T16:37:16.81</time>
<name>3389</name>
<sym>Dot</sym>
</trkpt>
<trkpt lat="47.674583" lon="15.547472">
<ele>802.0</ele>
<desc>Speed 64.2 km/h Distance 63.77 km</desc>
<time>2012-09-18T16:37:17.81</time>
<name>3390</name>
<sym>Dot</sym>
</trkpt>
<trkpt lat="47.674593" lon="15.547222">
<ele>802.0</ele>
<desc>Speed 67.4 km/h Distance 63.79 km</desc>
<time>2012-09-18T16:37:18.80</time>
<name>3391</name>
<sym>Dot</sym>
</trkpt>
<trkpt lat="47.674603" lon="15.546955">
<ele>802.0</ele>
<desc>Speed 72.1 km/h Distance 63.81 km</desc>
<time>2012-09-18T16:37:19.81</time>
<name>3392</name>
<sym>Dot</sym>
</trkpt>
<trkpt lat="47.674607" lon="15.546668">
<ele>802.5</ele>
<desc>Speed 77.4 km/h Distance 63.83 km</desc>
<time>2012-09-18T16:37:20.85</time>
<name>3393</name>
<sym>Dot</sym>
</trkpt>
<trkpt lat="47.674595" lon="15.546052">
<ele>803.5</ele>
<desc>Speed 84.3 km/h Distance 63.87 km</desc>
<time>2012-09-18T16:37:22.80</time>
<name>3394</name>
<sym>Dot</sym>
</trkpt>
<trkpt lat="47.674577" lon="15.545748">
<ele>804.0</ele>
<desc>Speed 82.7 km/h Distance 63.90 km</desc>
<time>2012-09-18T16:37:23.79</time>
<name>3395</name>
<sym>Dot</sym>
</trkpt>
<trkpt lat="47.674547" lon="15.545442">
<ele>804.5</ele>
<desc>Speed 83.8 km/h Distance 63.92 km</desc>
<time>2012-09-18T16:37:24.79</time>
<name>3396</name>
<sym>Dot</sym>
</trkpt>
<trkpt lat="47.674500" lon="15.545133">
<ele>805.0</ele>
<desc>Speed 85.1 km/h Distance 63.94 km</desc>
<time>2012-09-18T16:37:25.78</time>
<name>3397</name>
<sym>Dot</sym>
</trkpt>
<trkpt lat="47.674435" lon="15.544823">
<ele>805.0</ele>
<desc>Speed 88.0 km/h Distance 63.97 km</desc>
<time>2012-09-18T16:37:26.78</time>
<name>3398</name>
<sym>Dot</sym>
</trkpt>
<trkpt lat="47.674362" lon="15.544517">
<ele>805.5</ele>
<desc>Speed 88.0 km/h Distance 63.99 km</desc>
<time>2012-09-18T16:37:27.77</time>
<name>3399</name>
<sym>Dot</sym>
</trkpt>
<trkpt lat="47.674273" lon="15.544220">
<ele>805.5</ele>
<desc>Speed 88.3 km/h Distance 64.02 km</desc>
<time>2012-09-18T16:37:28.77</time>
<name>3400</name>
<sym>Dot</sym>
</trkpt>
<trkpt lat="47.674173" lon="15.543925">
<ele>805.5</ele>
<desc>Speed 89.2 km/h Distance 64.04 km</desc>
<time>2012-09-18T16:37:29.76</time>
<name>3401</name>
<sym>Dot</sym>
</trkpt>
<trkpt lat="47.674062" lon="15.543637">
<ele>806.5</ele>
<desc>Speed 90.1 km/h Distance 64.07 km</desc>
<time>2012-09-18T16:37:30.75</time>
<name>3402</name>
<sym>Dot</sym>
</trkpt>
<trkpt lat="47.673938" lon="15.543353">
<ele>807.5</ele>
<desc>Speed 91.0 km/h Distance 64.09 km</desc>
<time>2012-09-18T16:37:31.73</time>
<name>3403</name>
<sym>Dot</sym>
</trkpt>
<trkpt lat="47.673803" lon="15.543082">
<ele>808.0</ele>
<desc>Speed 91.7 km/h Distance 64.12 km</desc>
<time>2012-09-18T16:37:32.78</time>
<name>3404</name>
<sym>Dot</sym>
</trkpt>
<trkpt lat="47.673662" lon="15.542812">
<ele>809.0</ele>
<desc>Speed 92.3 km/h Distance 64.14 km</desc>
<time>2012-09-18T16:37:33.72</time>
<name>3405</name>
<sym>Dot</sym>
</trkpt>
<trkpt lat="47.673522" lon="15.542543">
<ele>809.5</ele>
<desc>Speed 91.7 km/h Distance 64.17 km</desc>
<time>2012-09-18T16:37:34.72</time>
<name>3406</name>
<sym>Dot</sym>
</trkpt>
<trkpt lat="47.673288" lon="15.542027">
<ele>810.0</ele>
<desc>Speed 83.8 km/h Distance 64.21 km</desc>
<time>2012-09-18T16:37:36.72</time>
<name>3407</name>
<sym>Dot</sym>
</trkpt>
<trkpt lat="47.673182" lon="15.541768">
<ele>810.0</ele>
<desc>Speed 81.9 km/h Distance 64.24 km</desc>
<time>2012-09-18T16:37:37.71</time>
<name>3408</name>
<sym>Dot</sym>
</trkpt>
<trkpt lat="47.673065" lon="15.541520">
<ele>810.5</ele>
<desc>Speed 81.8 km/h Distance 64.26 km</desc>
<time>2012-09-18T16:37:38.71</time>
<name>3409</name>
<sym>Dot</sym>
</trkpt>
<trkpt lat="47.672933" lon="15.541290">
<ele>811.5</ele>
<desc>Speed 81.5 km/h Distance 64.28 km</desc>
<time>2012-09-18T16:37:39.70</time>
<name>3410</name>
<sym>Dot</sym>
</trkpt>
<trkpt lat="47.672772" lon="15.541098">
<ele>812.5</ele>
<desc>Speed 83.3 km/h Distance 64.31 km</desc>
<time>2012-09-18T16:37:40.71</time>
<name>3411</name>
<sym>Dot</sym>
</trkpt>
<trkpt lat="47.672612" lon="15.540917">
<ele>812.0</ele>
<desc>Speed 80.8 km/h Distance 64.33 km</desc>
<time>2012-09-18T16:37:41.70</time>
<name>3412</name>
<sym>Dot</sym>
</trkpt>
<trkpt lat="47.672433" lon="15.540763">
<ele>812.0</ele>
<desc>Speed 82.5 km/h Distance 64.35 km</desc>
<time>2012-09-18T16:37:42.71</time>
<name>3413</name>
<sym>Dot</sym>
</trkpt>
<trkpt lat="47.672237" lon="15.540640">
<ele>813.0</ele>
<desc>Speed 85.9 km/h Distance 64.37 km</desc>
<time>2012-09-18T16:37:43.70</time>
<name>3414</name>
<sym>Dot</sym>
</trkpt>
<trkpt lat="47.672040" lon="15.540523">
<ele>813.5</ele>
<desc>Speed 85.1 km/h Distance 64.40 km</desc>
<time>2012-09-18T16:37:44.69</time>
<name>3415</name>
<sym>Dot</sym>
</trkpt>
<trkpt lat="47.671853" lon="15.540413">
<ele>813.5</ele>
<desc>Speed 80.6 km/h Distance 64.42 km</desc>
<time>2012-09-18T16:37:45.68</time>
<name>3416</name>
<sym>Dot</sym>
</trkpt>
<trkpt lat="47.671677" lon="15.540300">
<ele>814.0</ele>
<desc>Speed 77.5 km/h Distance 64.44 km</desc>
<time>2012-09-18T16:37:46.77</time>
<name>3417</name>
<sym>Dot</sym>
</trkpt>
<trkpt lat="47.671507" lon="15.540167">
<ele>814.5</ele>
<desc>Speed 78.0 km/h Distance 64.46 km</desc>
<time>2012-09-18T16:37:47.68</time>
<name>3418</name>
<sym>Dot</sym>
</trkpt>
<trkpt lat="47.671345" lon="15.540005">
<ele>813.5</ele>
<desc>Speed 78.5 km/h Distance 64.48 km</desc>
<time>2012-09-18T16:37:48.67</time>
<name>3419</name>
<sym>Dot</sym>
</trkpt>
<trkpt lat="47.671198" lon="15.539825">
<ele>814.0</ele>
<desc>Speed 76.9 km/h Distance 64.51 km</desc>
<time>2012-09-18T16:37:49.67</time>
<name>3420</name>
<sym>Dot</sym>
</trkpt>
<trkpt lat="47.671087" lon="15.539600">
<ele>814.5</ele>
<desc>Speed 75.7 km/h Distance 64.53 km</desc>
<time>2012-09-18T16:37:50.66</time>
<name>3421</name>
<sym>Dot</sym>
</trkpt>
<trkpt lat="47.670988" lon="15.539370">
<ele>816.0</ele>
<desc>Speed 74.0 km/h Distance 64.55 km</desc>
<time>2012-09-18T16:37:51.65</time>
<name>3422</name>
<sym>Dot</sym>
</trkpt>
<trkpt lat="47.670917" lon="15.539105">
<ele>817.5</ele>
<desc>Speed 77.8 km/h Distance 64.57 km</desc>
<time>2012-09-18T16:37:52.66</time>
<name>3423</name>
<sym>Dot</sym>
</trkpt>
<trkpt lat="47.670855" lon="15.538833">
<ele>818.0</ele>
<desc>Speed 78.0 km/h Distance 64.59 km</desc>
<time>2012-09-18T16:37:53.65</time>
<name>3424</name>
<sym>Dot</sym>
</trkpt>
<trkpt lat="47.670808" lon="15.538550">
<ele>818.5</ele>
<desc>Speed 79.3 km/h Distance 64.61 km</desc>
<time>2012-09-18T16:37:54.65</time>
<name>3425</name>
<sym>Dot</sym>
</trkpt>
<trkpt lat="47.670793" lon="15.538243">
<ele>819.5</ele>
<desc>Speed 83.6 km/h Distance 64.64 km</desc>
<time>2012-09-18T16:37:55.65</time>
<name>3426</name>
<sym>Dot</sym>
</trkpt>
<trkpt lat="47.670790" lon="15.537917">
<ele>819.0</ele>
<desc>Speed 87.9 km/h Distance 64.66 km</desc>
<time>2012-09-18T16:37:56.64</time>
<name>3427</name>
<sym>Dot</sym>
</trkpt>
<trkpt lat="47.670810" lon="15.537580">
<ele>819.5</ele>
<desc>Speed 91.1 km/h Distance 64.69 km</desc>
<time>2012-09-18T16:37:57.68</time>
<name>3428</name>
<sym>Dot</sym>
</trkpt>
<trkpt lat="47.670845" lon="15.537245">
<ele>820.0</ele>
<desc>Speed 91.9 km/h Distance 64.71 km</desc>
<time>2012-09-18T16:37:58.63</time>
<name>3429</name>
<sym>Dot</sym>
</trkpt>
<trkpt lat="47.670887" lon="15.536907">
<ele>819.5</ele>
<desc>Speed 92.3 km/h Distance 64.74 km</desc>
<time>2012-09-18T16:37:59.62</time>
<name>3430</name>
<sym>Dot</sym>
</trkpt>
<trkpt lat="47.670930" lon="15.536563">
<ele>819.5</ele>
<desc>Speed 94.4 km/h Distance 64.76 km</desc>
<time>2012-09-18T16:38:00.61</time>
<name>3431</name>
<sym>Dot</sym>
</trkpt>
<trkpt lat="47.670975" lon="15.536213">
<ele>819.5</ele>
<desc>Speed 96.2 km/h Distance 64.79 km</desc>
<time>2012-09-18T16:38:01.61</time>
<name>3432</name>
<sym>Dot</sym>
</trkpt>
<trkpt lat="47.671013" lon="15.535858">
<ele>819.0</ele>
<desc>Speed 97.2 km/h Distance 64.82 km</desc>
<time>2012-09-18T16:38:02.60</time>
<name>3433</name>
<sym>Dot</sym>
</trkpt>
<trkpt lat="47.671042" lon="15.535505">
<ele>818.5</ele>
<desc>Speed 96.5 km/h Distance 64.84 km</desc>
<time>2012-09-18T16:38:03.60</time>
<name>3434</name>
<sym>Dot</sym>
</trkpt>
<trkpt lat="47.671055" lon="15.535157">
<ele>818.0</ele>
<desc>Speed 94.2 km/h Distance 64.87 km</desc>
<time>2012-09-18T16:38:04.60</time>
<name>3435</name>
<sym>Dot</sym>
</trkpt>
<trkpt lat="47.671043" lon="15.534813">
<ele>818.0</ele>
<desc>Speed 93.2 km/h Distance 64.89 km</desc>
<time>2012-09-18T16:38:05.61</time>
<name>3436</name>
<sym>Dot</sym>
</trkpt>
<trkpt lat="47.671007" lon="15.534495">
<ele>819.5</ele>
<desc>Speed 87.5 km/h Distance 64.92 km</desc>
<time>2012-09-18T16:38:06.59</time>
<name>3437</name>
<sym>Dot</sym>
</trkpt>
<trkpt lat="47.670952" lon="15.534177">
<ele>818.0</ele>
<desc>Speed 88.9 km/h Distance 64.94 km</desc>
<time>2012-09-18T16:38:07.58</time>
<name>3438</name>
<sym>Dot</sym>
</trkpt>
<trkpt lat="47.670790" lon="15.533603">
<ele>817.5</ele>
<desc>Speed 84.7 km/h Distance 64.99 km</desc>
<time>2012-09-18T16:38:09.58</time>
<name>3439</name>
<sym>Dot</sym>
</trkpt>
<trkpt lat="47.670672" lon="15.533343">
<ele>817.0</ele>
<desc>Speed 85.1 km/h Distance 65.01 km</desc>
<time>2012-09-18T16:38:10.57</time>
<name>3440</name>
<sym>Dot</sym>
</trkpt>
<trkpt lat="47.670530" lon="15.533103">
<ele>815.5</ele>
<desc>Speed 86.2 km/h Distance 65.04 km</desc>
<time>2012-09-18T16:38:11.57</time>
<name>3441</name>
<sym>Dot</sym>
</trkpt>
<trkpt lat="47.670365" lon="15.532900">
<ele>814.5</ele>
<desc>Speed 86.2 km/h Distance 65.06 km</desc>
<time>2012-09-18T16:38:12.56</time>
<name>3442</name>
<sym>Dot</sym>
</trkpt>
<trkpt lat="47.670195" lon="15.532727">
<ele>816.0</ele>
<desc>Speed 82.6 km/h Distance 65.08 km</desc>
<time>2012-09-18T16:38:13.56</time>
<name>3443</name>
<sym>Dot</sym>
</trkpt>
<trkpt lat="47.670005" lon="15.532573">
<ele>816.0</ele>
<desc>Speed 86.8 km/h Distance 65.11 km</desc>
<time>2012-09-18T16:38:14.55</time>
<name>3444</name>
<sym>Dot</sym>
</trkpt>
<trkpt lat="47.669800" lon="15.532445">
<ele>817.0</ele>
<desc>Speed 89.2 km/h Distance 65.13 km</desc>
<time>2012-09-18T16:38:15.56</time>
<name>3445</name>
<sym>Dot</sym>
</trkpt>
<trkpt lat="47.669585" lon="15.532332">
<ele>818.0</ele>
<desc>Speed 92.0 km/h Distance 65.16 km</desc>
<time>2012-09-18T16:38:16.55</time>
<name>3446</name>
<sym>Dot</sym>
</trkpt>
<trkpt lat="47.669360" lon="15.532227">
<ele>818.0</ele>
<desc>Speed 94.5 km/h Distance 65.19 km</desc>
<time>2012-09-18T16:38:17.55</time>
<name>3447</name>
<sym>Dot</sym>
</trkpt>
<trkpt lat="47.669132" lon="15.532130">
<ele>817.0</ele>
<desc>Speed 96.6 km/h Distance 65.21 km</desc>
<time>2012-09-18T16:38:18.55</time>
<name>3448</name>
<sym>Dot</sym>
</trkpt>
<trkpt lat="47.668895" lon="15.532043">
<ele>817.0</ele>
<desc>Speed 97.4 km/h Distance 65.24 km</desc>
<time>2012-09-18T16:38:19.53</time>
<name>3449</name>
<sym>Dot</sym>
</trkpt>
<trkpt lat="47.668662" lon="15.531963">
<ele>816.5</ele>
<desc>Speed 97.0 km/h Distance 65.27 km</desc>
<time>2012-09-18T16:38:20.58</time>
<name>3450</name>
<sym>Dot</sym>
</trkpt>
<trkpt lat="47.668427" lon="15.531892">
<ele>816.0</ele>
<desc>Speed 96.4 km/h Distance 65.29 km</desc>
<time>2012-09-18T16:38:21.51</time>
<name>3451</name>
<sym>Dot</sym>
</trkpt>
<trkpt lat="47.668192" lon="15.531827">
<ele>815.5</ele>
<desc>Speed 96.7 km/h Distance 65.32 km</desc>
<time>2012-09-18T16:38:22.51</time>
<name>3452</name>
<sym>Dot</sym>
</trkpt>
<trkpt lat="47.667953" lon="15.531772">
<ele>816.0</ele>
<desc>Speed 96.7 km/h Distance 65.35 km</desc>
<time>2012-09-18T16:38:23.50</time>
<name>3453</name>
<sym>Dot</sym>
</trkpt>
<trkpt lat="47.667717" lon="15.531725">
<ele>815.5</ele>
<desc>Speed 96.0 km/h Distance 65.37 km</desc>
<time>2012-09-18T16:38:24.50</time>
<name>3454</name>
<sym>Dot</sym>
</trkpt>
<trkpt lat="47.667485" lon="15.531680">
<ele>815.0</ele>
<desc>Speed 94.7 km/h Distance 65.40 km</desc>
<time>2012-09-18T16:38:25.50</time>
<name>3455</name>
<sym>Dot</sym>
</trkpt>
<trkpt lat="47.667255" lon="15.531638">
<ele>815.5</ele>
<desc>Speed 93.2 km/h Distance 65.42 km</desc>
<time>2012-09-18T16:38:26.49</time>
<name>3456</name>
<sym>Dot</sym>
</trkpt>
<trkpt lat="47.667028" lon="15.531598">
<ele>816.0</ele>
<desc>Speed 91.6 km/h Distance 65.45 km</desc>
<time>2012-09-18T16:38:27.48</time>
<name>3457</name>
<sym>Dot</sym>
</trkpt>
<trkpt lat="47.666805" lon="15.531558">
<ele>816.5</ele>
<desc>Speed 91.0 km/h Distance 65.47 km</desc>
<time>2012-09-18T16:38:28.48</time>
<name>3458</name>
<sym>Dot</sym>
</trkpt>
<trkpt lat="47.666585" lon="15.531515">
<ele>817.5</ele>
<desc>Speed 89.5 km/h Distance 65.50 km</desc>
<time>2012-09-18T16:38:29.47</time>
<name>3459</name>
<sym>Dot</sym>
</trkpt>
<trkpt lat="47.666368" lon="15.531470">
<ele>818.5</ele>
<desc>Speed 88.2 km/h Distance 65.52 km</desc>
<time>2012-09-18T16:38:30.47</time>
<name>3460</name>
<sym>Dot</sym>
</trkpt>
<trkpt lat="47.666153" lon="15.531423">
<ele>820.0</ele>
<desc>Speed 87.3 km/h Distance 65.55 km</desc>
<time>2012-09-18T16:38:31.47</time>
<name>3461</name>
<sym>Dot</sym>
</trkpt>
<trkpt lat="47.665940" lon="15.531370">
<ele>821.0</ele>
<desc>Speed 86.9 km/h Distance 65.57 km</desc>
<time>2012-09-18T16:38:32.56</time>
<name>3462</name>
<sym>Dot</sym>
</trkpt>
<trkpt lat="47.665725" lon="15.531305">
<ele>822.5</ele>
<desc>Speed 87.7 km/h Distance 65.60 km</desc>
<time>2012-09-18T16:38:33.46</time>
<name>3463</name>
<sym>Dot</sym>
</trkpt>
<trkpt lat="47.665512" lon="15.531227">
<ele>823.5</ele>
<desc>Speed 88.4 km/h Distance 65.62 km</desc>
<time>2012-09-18T16:38:34.46</time>
<name>3464</name>
<sym>Dot</sym>
</trkpt>
<trkpt lat="47.665298" lon="15.531127">
<ele>824.5</ele>
<desc>Speed 89.9 km/h Distance 65.65 km</desc>
<time>2012-09-18T16:38:35.45</time>
<name>3465</name>
<sym>Dot</sym>
</trkpt>
<trkpt lat="47.665087" lon="15.531008">
<ele>825.0</ele>
<desc>Speed 91.4 km/h Distance 65.67 km</desc>
<time>2012-09-18T16:38:36.45</time>
<name>3466</name>
<sym>Dot</sym>
</trkpt>
<trkpt lat="47.664877" lon="15.530877">
<ele>825.0</ele>
<desc>Speed 92.3 km/h Distance 65.70 km</desc>
<time>2012-09-18T16:38:37.44</time>
<name>3467</name>
<sym>Dot</sym>
</trkpt>
<trkpt lat="47.664673" lon="15.530733">
<ele>825.0</ele>
<desc>Speed 90.1 km/h Distance 65.72 km</desc>
<time>2012-09-18T16:38:38.44</time>
<name>3468</name>
<sym>Dot</sym>
</trkpt>
<trkpt lat="47.664485" lon="15.530587">
<ele>825.0</ele>
<desc>Speed 85.7 km/h Distance 65.74 km</desc>
<time>2012-09-18T16:38:39.44</time>
<name>3469</name>
<sym>Dot</sym>
</trkpt>
<trkpt lat="47.664312" lon="15.530440">
<ele>825.0</ele>
<desc>Speed 80.5 km/h Distance 65.77 km</desc>
<time>2012-09-18T16:38:40.44</time>
<name>3470</name>
<sym>Dot</sym>
</trkpt>
<trkpt lat="47.664148" lon="15.530300">
<ele>825.5</ele>
<desc>Speed 76.3 km/h Distance 65.79 km</desc>
<time>2012-09-18T16:38:41.44</time>
<name>3471</name>
<sym>Dot</sym>
</trkpt>
<trkpt lat="47.663998" lon="15.530160">
<ele>825.0</ele>
<desc>Speed 71.9 km/h Distance 65.81 km</desc>
<time>2012-09-18T16:38:42.44</time>
<name>3472</name>
<sym>Dot</sym>
</trkpt>
<trkpt lat="47.663857" lon="15.530030">
<ele>825.0</ele>
<desc>Speed 67.4 km/h Distance 65.83 km</desc>
<time>2012-09-18T16:38:43.43</time>
<name>3473</name>
<sym>Dot</sym>
</trkpt>
<trkpt lat="47.663723" lon="15.529912">
<ele>824.5</ele>
<desc>Speed 63.5 km/h Distance 65.84 km</desc>
<time>2012-09-18T16:38:44.43</time>
<name>3474</name>
<sym>Dot</sym>
</trkpt>
<trkpt lat="47.663593" lon="15.529800">
<ele>824.5</ele>
<desc>Speed 60.5 km/h Distance 65.86 km</desc>
<time>2012-09-18T16:38:45.42</time>
<name>3475</name>
<sym>Dot</sym>
</trkpt>
<trkpt lat="47.663470" lon="15.529692">
<ele>824.5</ele>
<desc>Speed 58.3 km/h Distance 65.88 km</desc>
<time>2012-09-18T16:38:46.42</time>
<name>3476</name>
<sym>Dot</sym>
</trkpt>
<trkpt lat="47.663350" lon="15.529593">
<ele>824.5</ele>
<desc>Speed 55.4 km/h Distance 65.89 km</desc>
<time>2012-09-18T16:38:47.41</time>
<name>3477</name>
<sym>Dot</sym>
</trkpt>
<trkpt lat="47.663233" lon="15.529510">
<ele>824.5</ele>
<desc>Speed 52.4 km/h Distance 65.91 km</desc>
<time>2012-09-18T16:38:48.41</time>
<name>3478</name>
<sym>Dot</sym>
</trkpt>
<trkpt lat="47.663118" lon="15.529442">
<ele>824.5</ele>
<desc>Speed 49.6 km/h Distance 65.92 km</desc>
<time>2012-09-18T16:38:49.40</time>
<name>3479</name>
<sym>Dot</sym>
</trkpt>
<trkpt lat="47.663002" lon="15.529385">
<ele>824.5</ele>
<desc>Speed 49.6 km/h Distance 65.93 km</desc>
<time>2012-09-18T16:38:50.39</time>
<name>3480</name>
<sym>Dot</sym>
</trkpt>
<trkpt lat="47.662880" lon="15.529333">
<ele>824.0</ele>
<desc>Speed 51.5 km/h Distance 65.95 km</desc>
<time>2012-09-18T16:38:51.40</time>
<name>3481</name>
<sym>Dot</sym>
</trkpt>
<trkpt lat="47.662750" lon="15.529280">
<ele>823.5</ele>
<desc>Speed 54.3 km/h Distance 65.96 km</desc>
<time>2012-09-18T16:38:52.40</time>
<name>3482</name>
<sym>Dot</sym>
</trkpt>
<trkpt lat="47.662617" lon="15.529215">
<ele>823.0</ele>
<desc>Speed 56.9 km/h Distance 65.98 km</desc>
<time>2012-09-18T16:38:53.39</time>
<name>3483</name>
<sym>Dot</sym>
</trkpt>
<trkpt lat="47.662483" lon="15.529133">
<ele>822.5</ele>
<desc>Speed 58.0 km/h Distance 65.99 km</desc>
<time>2012-09-18T16:38:54.38</time>
<name>3484</name>
<sym>Dot</sym>
</trkpt>
<trkpt lat="47.662358" lon="15.529042">
<ele>822.0</ele>
<desc>Speed 56.7 km/h Distance 66.01 km</desc>
<time>2012-09-18T16:38:55.38</time>
<name>3485</name>
<sym>Dot</sym>
</trkpt>
<trkpt lat="47.662242" lon="15.528933">
<ele>821.0</ele>
<desc>Speed 55.3 km/h Distance 66.02 km</desc>
<time>2012-09-18T16:38:56.38</time>
<name>3486</name>
<sym>Dot</sym>
</trkpt>
<trkpt lat="47.662138" lon="15.528815">
<ele>822.0</ele>
<desc>Speed 52.6 km/h Distance 66.04 km</desc>
<time>2012-09-18T16:38:57.38</time>
<name>3487</name>
<sym>Dot</sym>
</trkpt>
<trkpt lat="47.662040" lon="15.528688">
<ele>820.5</ele>
<desc>Speed 52.1 km/h Distance 66.05 km</desc>
<time>2012-09-18T16:38:58.38</time>
<name>3488</name>
<sym>Dot</sym>
</trkpt>
<trkpt lat="47.661950" lon="15.528553">
<ele>820.0</ele>
<desc>Speed 51.2 km/h Distance 66.07 km</desc>
<time>2012-09-18T16:38:59.37</time>
<name>3489</name>
<sym>Dot</sym>
</trkpt>
<trkpt lat="47.661875" lon="15.528405">
<ele>819.5</ele>
<desc>Speed 50.5 km/h Distance 66.08 km</desc>
<time>2012-09-18T16:39:00.38</time>
<name>3490</name>
<sym>Dot</sym>
</trkpt>
<trkpt lat="47.661813" lon="15.528245">
<ele>819.5</ele>
<desc>Speed 49.9 km/h Distance 66.10 km</desc>
<time>2012-09-18T16:39:01.37</time>
<name>3491</name>
<sym>Dot</sym>
</trkpt>
<trkpt lat="47.661777" lon="15.528077">
<ele>820.0</ele>
<desc>Speed 48.3 km/h Distance 66.11 km</desc>
<time>2012-09-18T16:39:02.37</time>
<name>3492</name>
<sym>Dot</sym>
</trkpt>
<trkpt lat="47.661753" lon="15.527900">
<ele>820.0</ele>
<desc>Speed 48.7 km/h Distance 66.12 km</desc>
<time>2012-09-18T16:39:03.36</time>
<name>3493</name>
<sym>Dot</sym>
</trkpt>
<trkpt lat="47.661723" lon="15.527728">
<ele>820.0</ele>
<desc>Speed 47.9 km/h Distance 66.14 km</desc>
<time>2012-09-18T16:39:04.36</time>
<name>3494</name>
<sym>Dot</sym>
</trkpt>
<trkpt lat="47.661708" lon="15.527543">
<ele>820.0</ele>
<desc>Speed 50.5 km/h Distance 66.15 km</desc>
<time>2012-09-18T16:39:05.35</time>
<name>3495</name>
<sym>Dot</sym>
</trkpt>
<trkpt lat="47.661705" lon="15.527353">
<ele>818.0</ele>
<desc>Speed 51.9 km/h Distance 66.16 km</desc>
<time>2012-09-18T16:39:06.34</time>
<name>3496</name>
<sym>Dot</sym>
</trkpt>
<trkpt lat="47.661718" lon="15.527160">
<ele>817.5</ele>
<desc>Speed 52.8 km/h Distance 66.18 km</desc>
<time>2012-09-18T16:39:07.35</time>
<name>3497</name>
<sym>Dot</sym>
</trkpt>
<trkpt lat="47.661740" lon="15.526970">
<ele>817.0</ele>
<desc>Speed 52.7 km/h Distance 66.19 km</desc>
<time>2012-09-18T16:39:08.33</time>
<name>3498</name>
<sym>Dot</sym>
</trkpt>
<trkpt lat="47.661770" lon="15.526782">
<ele>817.0</ele>
<desc>Speed 52.1 km/h Distance 66.21 km</desc>
<time>2012-09-18T16:39:09.34</time>
<name>3499</name>
<sym>Dot</sym>
</trkpt>
<trkpt lat="47.661802" lon="15.526588">
<ele>816.5</ele>
<desc>Speed 54.3 km/h Distance 66.22 km</desc>
<time>2012-09-18T16:39:10.34</time>
<name>3500</name>
<sym>Dot</sym>
</trkpt>
<trkpt lat="47.661838" lon="15.526388">
<ele>816.0</ele>
<desc>Speed 56.3 km/h Distance 66.24 km</desc>
<time>2012-09-18T16:39:11.32</time>
<name>3501</name>
<sym>Dot</sym>
</trkpt>
<trkpt lat="47.661877" lon="15.526187">
<ele>816.5</ele>
<desc>Speed 56.8 km/h Distance 66.25 km</desc>
<time>2012-09-18T16:39:12.32</time>
<name>3502</name>
<sym>Dot</sym>
</trkpt>
<trkpt lat="47.661913" lon="15.525983">
<ele>816.5</ele>
<desc>Speed 57.1 km/h Distance 66.27 km</desc>
<time>2012-09-18T16:39:13.31</time>
<name>3503</name>
<sym>Dot</sym>
</trkpt>
<trkpt lat="47.661942" lon="15.525772">
<ele>817.5</ele>
<desc>Speed 58.6 km/h Distance 66.29 km</desc>
<time>2012-09-18T16:39:14.31</time>
<name>3504</name>
<sym>Dot</sym>
</trkpt>
<trkpt lat="47.661918" lon="15.524295">
<ele>816.0</ele>
<desc>Speed 88.0 km/h Distance 66.40 km</desc>
<time>2012-09-18T16:39:19.95</time>
<name>3505</name>
<sym>Dot</sym>
</trkpt>
<trkpt lat="47.661895" lon="15.523978">
<ele>815.0</ele>
<desc>Speed 85.5 km/h Distance 66.42 km</desc>
<time>2012-09-18T16:39:20.94</time>
<name>3506</name>
<sym>Dot</sym>
</trkpt>
<trkpt lat="47.661877" lon="15.523678">
<ele>814.5</ele>
<desc>Speed 81.7 km/h Distance 66.44 km</desc>
<time>2012-09-18T16:39:21.94</time>
<name>3507</name>
<sym>Dot</sym>
</trkpt>
<trkpt lat="47.661900" lon="15.523398">
<ele>814.5</ele>
<desc>Speed 75.7 km/h Distance 66.46 km</desc>
<time>2012-09-18T16:39:22.93</time>
<name>3508</name>
<sym>Dot</sym>
</trkpt>
<trkpt lat="47.661957" lon="15.523130">
<ele>814.0</ele>
<desc>Speed 76.0 km/h Distance 66.49 km</desc>
<time>2012-09-18T16:39:23.94</time>
<name>3509</name>
<sym>Dot</sym>
</trkpt>
<trkpt lat="47.662038" lon="15.522862">
<ele>814.0</ele>
<desc>Speed 79.7 km/h Distance 66.51 km</desc>
<time>2012-09-18T16:39:24.93</time>
<name>3510</name>
<sym>Dot</sym>
</trkpt>
<trkpt lat="47.662147" lon="15.522590">
<ele>814.5</ele>
<desc>Speed 85.3 km/h Distance 66.53 km</desc>
<time>2012-09-18T16:39:25.93</time>
<name>3511</name>
<sym>Dot</sym>
</trkpt>
<trkpt lat="47.662253" lon="15.522313">
<ele>814.5</ele>
<desc>Speed 86.3 km/h Distance 66.55 km</desc>
<time>2012-09-18T16:39:26.92</time>
<name>3512</name>
<sym>Dot</sym>
</trkpt>
<trkpt lat="47.662363" lon="15.522037">
<ele>814.5</ele>
<desc>Speed 87.2 km/h Distance 66.58 km</desc>
<time>2012-09-18T16:39:27.92</time>
<name>3513</name>
<sym>Dot</sym>
</trkpt>
<trkpt lat="47.662470" lon="15.521765">
<ele>814.5</ele>
<desc>Speed 85.1 km/h Distance 66.60 km</desc>
<time>2012-09-18T16:39:28.92</time>
<name>3514</name>
<sym>Dot</sym>
</trkpt>
<trkpt lat="47.662570" lon="15.521510">
<ele>814.5</ele>
<desc>Speed 80.3 km/h Distance 66.62 km</desc>
<time>2012-09-18T16:39:29.90</time>
<name>3515</name>
<sym>Dot</sym>
</trkpt>
<trkpt lat="47.662668" lon="15.521268">
<ele>815.0</ele>
<desc>Speed 76.9 km/h Distance 66.65 km</desc>
<time>2012-09-18T16:39:30.89</time>
<name>3516</name>
<sym>Dot</sym>
</trkpt>
<trkpt lat="47.662788" lon="15.521050">
<ele>814.5</ele>
<desc>Speed 76.7 km/h Distance 66.67 km</desc>
<time>2012-09-18T16:39:31.89</time>
<name>3517</name>
<sym>Dot</sym>
</trkpt>
<trkpt lat="47.662942" lon="15.520852">
<ele>815.5</ele>
<desc>Speed 81.7 km/h Distance 66.69 km</desc>
<time>2012-09-18T16:39:32.88</time>
<name>3518</name>
<sym>Dot</sym>
</trkpt>
<trkpt lat="47.663103" lon="15.520677">
<ele>816.0</ele>
<desc>Speed 80.9 km/h Distance 66.71 km</desc>
<time>2012-09-18T16:39:33.88</time>
<name>3519</name>
<sym>Dot</sym>
</trkpt>
<trkpt lat="47.663283" lon="15.520523">
<ele>816.0</ele>
<desc>Speed 83.4 km/h Distance 66.73 km</desc>
<time>2012-09-18T16:39:34.88</time>
<name>3520</name>
<sym>Dot</sym>
</trkpt>
<trkpt lat="47.663468" lon="15.520378">
<ele>816.0</ele>
<desc>Speed 83.8 km/h Distance 66.76 km</desc>
<time>2012-09-18T16:39:35.88</time>
<name>3521</name>
<sym>Dot</sym>
</trkpt>
<trkpt lat="47.663640" lon="15.520227">
<ele>816.0</ele>
<desc>Speed 80.1 km/h Distance 66.78 km</desc>
<time>2012-09-18T16:39:36.87</time>
<name>3522</name>
<sym>Dot</sym>
</trkpt>
<trkpt lat="47.663793" lon="15.520045">
<ele>816.0</ele>
<desc>Speed 79.0 km/h Distance 66.80 km</desc>
<time>2012-09-18T16:39:37.87</time>
<name>3523</name>
<sym>Dot</sym>
</trkpt>
<trkpt lat="47.663920" lon="15.519808">
<ele>816.0</ele>
<desc>Speed 81.9 km/h Distance 66.82 km</desc>
<time>2012-09-18T16:39:38.86</time>
<name>3524</name>
<sym>Dot</sym>
</trkpt>
<trkpt lat="47.664038" lon="15.519557">
<ele>816.5</ele>
<desc>Speed 82.9 km/h Distance 66.85 km</desc>
<time>2012-09-18T16:39:39.86</time>
<name>3525</name>
<sym>Dot</sym>
</trkpt>
<trkpt lat="47.664115" lon="15.519273">
<ele>816.0</ele>
<desc>Speed 82.4 km/h Distance 66.87 km</desc>
<time>2012-09-18T16:39:40.85</time>
<name>3526</name>
<sym>Dot</sym>
</trkpt>
<trkpt lat="47.664165" lon="15.518970">
<ele>815.5</ele>
<desc>Speed 84.3 km/h Distance 66.89 km</desc>
<time>2012-09-18T16:39:41.86</time>
<name>3527</name>
<sym>Dot</sym>
</trkpt>
<trkpt lat="47.664197" lon="15.518670">
<ele>816.5</ele>
<desc>Speed 81.7 km/h Distance 66.92 km</desc>
<time>2012-09-18T16:39:42.85</time>
<name>3528</name>
<sym>Dot</sym>
</trkpt>
<trkpt lat="47.664205" lon="15.518370">
<ele>815.5</ele>
<desc>Speed 80.9 km/h Distance 66.94 km</desc>
<time>2012-09-18T16:39:43.85</time>
<name>3529</name>
<sym>Dot</sym>
</trkpt>
<trkpt lat="47.664183" lon="15.518088">
<ele>816.0</ele>
<desc>Speed 76.6 km/h Distance 66.96 km</desc>
<time>2012-09-18T16:39:44.84</time>
<name>3530</name>
<sym>Dot</sym>
</trkpt>
<trkpt lat="47.664138" lon="15.517412">
<ele>816.0</ele>
<desc>Speed 57.4 km/h Distance 67.01 km</desc>
<time>2012-09-18T16:39:47.95</time>
<name>3531</name>
<sym>Dot</sym>
</trkpt>
<trkpt lat="47.664165" lon="15.517197">
<ele>815.0</ele>
<desc>Speed 59.3 km/h Distance 67.03 km</desc>
<time>2012-09-18T16:39:48.94</time>
<name>3532</name>
<sym>Dot</sym>
</trkpt>
<trkpt lat="47.664237" lon="15.516992">
<ele>815.0</ele>
<desc>Speed 62.6 km/h Distance 67.05 km</desc>
<time>2012-09-18T16:39:49.93</time>
<name>3533</name>
<sym>Dot</sym>
</trkpt>
<trkpt lat="47.664343" lon="15.516802">
<ele>813.5</ele>
<desc>Speed 67.0 km/h Distance 67.06 km</desc>
<time>2012-09-18T16:39:50.94</time>
<name>3534</name>
<sym>Dot</sym>
</trkpt>
<trkpt lat="47.664482" lon="15.516642">
<ele>814.0</ele>
<desc>Speed 70.1 km/h Distance 67.08 km</desc>
<time>2012-09-18T16:39:51.93</time>
<name>3535</name>
<sym>Dot</sym>
</trkpt>
<trkpt lat="47.664627" lon="15.516523">
<ele>815.0</ele>
<desc>Speed 66.3 km/h Distance 67.10 km</desc>
<time>2012-09-18T16:39:52.93</time>
<name>3536</name>
<sym>Dot</sym>
</trkpt>
<trkpt lat="47.664788" lon="15.516420">
<ele>816.0</ele>
<desc>Speed 70.1 km/h Distance 67.12 km</desc>
<time>2012-09-18T16:39:53.91</time>
<name>3537</name>
<sym>Dot</sym>
</trkpt>
<trkpt lat="47.664947" lon="15.516310">
<ele>816.5</ele>
<desc>Speed 70.0 km/h Distance 67.14 km</desc>
<time>2012-09-18T16:39:54.91</time>
<name>3538</name>
<sym>Dot</sym>
</trkpt>
<trkpt lat="47.665097" lon="15.516152">
<ele>815.5</ele>
<desc>Speed 73.9 km/h Distance 67.16 km</desc>
<time>2012-09-18T16:39:55.89</time>
<name>3539</name>
<sym>Dot</sym>
</trkpt>
<trkpt lat="47.665242" lon="15.515960">
<ele>815.0</ele>
<desc>Speed 77.5 km/h Distance 67.18 km</desc>
<time>2012-09-18T16:39:56.89</time>
<name>3540</name>
<sym>Dot</sym>
</trkpt>
<trkpt lat="47.665373" lon="15.515748">
<ele>815.5</ele>
<desc>Speed 78.3 km/h Distance 67.20 km</desc>
<time>2012-09-18T16:39:57.89</time>
<name>3541</name>
<sym>Dot</sym>
</trkpt>
<trkpt lat="47.665452" lon="15.515508">
<ele>815.0</ele>
<desc>Speed 72.0 km/h Distance 67.22 km</desc>
<time>2012-09-18T16:39:58.88</time>
<name>3542</name>
<sym>Dot</sym>
</trkpt>
<trkpt lat="47.665532" lon="15.515250">
<ele>815.5</ele>
<desc>Speed 77.5 km/h Distance 67.25 km</desc>
<time>2012-09-18T16:39:59.87</time>
<name>3543</name>
<sym>Dot</sym>
</trkpt>
<trkpt lat="47.665568" lon="15.514967">
<ele>815.0</ele>
<desc>Speed 78.1 km/h Distance 67.27 km</desc>
<time>2012-09-18T16:40:00.87</time>
<name>3544</name>
<sym>Dot</sym>
</trkpt>
<trkpt lat="47.665602" lon="15.514677">
<ele>814.5</ele>
<desc>Speed 79.4 km/h Distance 67.29 km</desc>
<time>2012-09-18T16:40:01.88</time>
<name>3545</name>
<sym>Dot</sym>
</trkpt>
<trkpt lat="47.665622" lon="15.514393">
<ele>815.0</ele>
<desc>Speed 77.5 km/h Distance 67.31 km</desc>
<time>2012-09-18T16:40:02.87</time>
<name>3546</name>
<sym>Dot</sym>
</trkpt>
<trkpt lat="47.665642" lon="15.514123">
<ele>814.5</ele>
<desc>Speed 73.7 km/h Distance 67.33 km</desc>
<time>2012-09-18T16:40:03.86</time>
<name>3547</name>
<sym>Dot</sym>
</trkpt>
<trkpt lat="47.665698" lon="15.513857">
<ele>814.5</ele>
<desc>Speed 75.6 km/h Distance 67.35 km</desc>
<time>2012-09-18T16:40:04.86</time>
<name>3548</name>
<sym>Dot</sym>
</trkpt>
<trkpt lat="47.665798" lon="15.513603">
<ele>814.5</ele>
<desc>Speed 79.0 km/h Distance 67.37 km</desc>
<time>2012-09-18T16:40:05.85</time>
<name>3549</name>
<sym>Dot</sym>
</trkpt>
<trkpt lat="47.665910" lon="15.513345">
<ele>815.5</ele>
<desc>Speed 82.3 km/h Distance 67.40 km</desc>
<time>2012-09-18T16:40:06.84</time>
<name>3550</name>
<sym>Dot</sym>
</trkpt>
<trkpt lat="47.666027" lon="15.513085">
<ele>816.0</ele>
<desc>Speed 84.1 km/h Distance 67.42 km</desc>
<time>2012-09-18T16:40:07.84</time>
<name>3551</name>
<sym>Dot</sym>
</trkpt>
<trkpt lat="47.666128" lon="15.512813">
<ele>816.5</ele>
<desc>Speed 84.2 km/h Distance 67.44 km</desc>
<time>2012-09-18T16:40:08.85</time>
<name>3552</name>
<sym>Dot</sym>
</trkpt>
<trkpt lat="47.666225" lon="15.512525">
<ele>817.0</ele>
<desc>Speed 87.0 km/h Distance 67.47 km</desc>
<time>2012-09-18T16:40:09.83</time>
<name>3553</name>
<sym>Dot</sym>
</trkpt>
<trkpt lat="47.666327" lon="15.512233">
<ele>817.5</ele>
<desc>Speed 88.6 km/h Distance 67.49 km</desc>
<time>2012-09-18T16:40:10.82</time>
<name>3554</name>
<sym>Dot</sym>
</trkpt>
<trkpt lat="47.666435" lon="15.511947">
<ele>817.5</ele>
<desc>Speed 88.6 km/h Distance 67.52 km</desc>
<time>2012-09-18T16:40:11.82</time>
<name>3555</name>
<sym>Dot</sym>
</trkpt>
<trkpt lat="47.666553" lon="15.511672">
<ele>818.5</ele>
<desc>Speed 87.8 km/h Distance 67.54 km</desc>
<time>2012-09-18T16:40:12.82</time>
<name>3556</name>
<sym>Dot</sym>
</trkpt>
<trkpt lat="47.666687" lon="15.511425">
<ele>819.0</ele>
<desc>Speed 85.3 km/h Distance 67.57 km</desc>
<time>2012-09-18T16:40:13.81</time>
<name>3557</name>
<sym>Dot</sym>
</trkpt>
<trkpt lat="47.666815" lon="15.511178">
<ele>820.0</ele>
<desc>Speed 83.4 km/h Distance 67.59 km</desc>
<time>2012-09-18T16:40:14.81</time>
<name>3558</name>
<sym>Dot</sym>
</trkpt>
<trkpt lat="47.666923" lon="15.510917">
<ele>821.0</ele>
<desc>Speed 82.8 km/h Distance 67.61 km</desc>
<time>2012-09-18T16:40:15.81</time>
<name>3559</name>
<sym>Dot</sym>
</trkpt>
<trkpt lat="47.667017" lon="15.510638">
<ele>821.0</ele>
<desc>Speed 84.0 km/h Distance 67.64 km</desc>
<time>2012-09-18T16:40:16.80</time>
<name>3560</name>
<sym>Dot</sym>
</trkpt>
<trkpt lat="47.667115" lon="15.510358">
<ele>821.5</ele>
<desc>Speed 85.1 km/h Distance 67.66 km</desc>
<time>2012-09-18T16:40:17.80</time>
<name>3561</name>
<sym>Dot</sym>
</trkpt>
<trkpt lat="47.667227" lon="15.510087">
<ele>822.0</ele>
<desc>Speed 86.3 km/h Distance 67.68 km</desc>
<time>2012-09-18T16:40:18.80</time>
<name>3562</name>
<sym>Dot</sym>
</trkpt>
<trkpt lat="47.667352" lon="15.509818">
<ele>822.5</ele>
<desc>Speed 87.9 km/h Distance 67.71 km</desc>
<time>2012-09-18T16:40:19.79</time>
<name>3563</name>
<sym>Dot</sym>
</trkpt>
<trkpt lat="47.667480" lon="15.509548">
<ele>823.0</ele>
<desc>Speed 89.1 km/h Distance 67.73 km</desc>
<time>2012-09-18T16:40:20.79</time>
<name>3564</name>
<sym>Dot</sym>
</trkpt>
<trkpt lat="47.667608" lon="15.509278">
<ele>824.0</ele>
<desc>Speed 89.5 km/h Distance 67.76 km</desc>
<time>2012-09-18T16:40:21.78</time>
<name>3565</name>
<sym>Dot</sym>
</trkpt>
<trkpt lat="47.667737" lon="15.509007">
<ele>824.5</ele>
<desc>Speed 89.7 km/h Distance 67.78 km</desc>
<time>2012-09-18T16:40:22.77</time>
<name>3566</name>
<sym>Dot</sym>
</trkpt>
<trkpt lat="47.667865" lon="15.508733">
<ele>824.5</ele>
<desc>Speed 89.9 km/h Distance 67.81 km</desc>
<time>2012-09-18T16:40:23.77</time>
<name>3567</name>
<sym>Dot</sym>
</trkpt>
<trkpt lat="47.667983" lon="15.508458">
<ele>825.5</ele>
<desc>Speed 88.6 km/h Distance 67.83 km</desc>
<time>2012-09-18T16:40:24.77</time>
<name>3568</name>
<sym>Dot</sym>
</trkpt>
<trkpt lat="47.668092" lon="15.508180">
<ele>826.0</ele>
<desc>Speed 86.8 km/h Distance 67.86 km</desc>
<time>2012-09-18T16:40:25.76</time>
<name>3569</name>
<sym>Dot</sym>
</trkpt>
<trkpt lat="47.668180" lon="15.507903">
<ele>825.0</ele>
<desc>Speed 82.8 km/h Distance 67.88 km</desc>
<time>2012-09-18T16:40:26.77</time>
<name>3570</name>
<sym>Dot</sym>
</trkpt>
<trkpt lat="47.668258" lon="15.507632">
<ele>824.5</ele>
<desc>Speed 79.7 km/h Distance 67.90 km</desc>
<time>2012-09-18T16:40:27.76</time>
<name>3571</name>
<sym>Dot</sym>
</trkpt>
<trkpt lat="47.668327" lon="15.507368">
<ele>824.5</ele>
<desc>Speed 76.3 km/h Distance 67.92 km</desc>
<time>2012-09-18T16:40:28.75</time>
<name>3572</name>
<sym>Dot</sym>
</trkpt>
<trkpt lat="47.668393" lon="15.507117">
<ele>824.0</ele>
<desc>Speed 73.0 km/h Distance 67.94 km</desc>
<time>2012-09-18T16:40:29.75</time>
<name>3573</name>
<sym>Dot</sym>
</trkpt>
<trkpt lat="47.668467" lon="15.506872">
<ele>823.5</ele>
<desc>Speed 72.1 km/h Distance 67.96 km</desc>
<time>2012-09-18T16:40:30.74</time>
<name>3574</name>
<sym>Dot</sym>
</trkpt>
<trkpt lat="47.668555" lon="15.506635">
<ele>823.5</ele>
<desc>Speed 73.1 km/h Distance 67.98 km</desc>
<time>2012-09-18T16:40:31.74</time>
<name>3575</name>
<sym>Dot</sym>
</trkpt>
<trkpt lat="47.668655" lon="15.506405">
<ele>822.5</ele>
<desc>Speed 73.9 km/h Distance 68.00 km</desc>
<time>2012-09-18T16:40:32.73</time>
<name>3576</name>
<sym>Dot</sym>
</trkpt>
<trkpt lat="47.668770" lon="15.506187">
<ele>822.5</ele>
<desc>Speed 74.7 km/h Distance 68.02 km</desc>
<time>2012-09-18T16:40:33.73</time>
<name>3577</name>
<sym>Dot</sym>
</trkpt>
<trkpt lat="47.668895" lon="15.505972">
<ele>822.5</ele>
<desc>Speed 76.3 km/h Distance 68.04 km</desc>
<time>2012-09-18T16:40:34.72</time>
<name>3578</name>
<sym>Dot</sym>
</trkpt>
<trkpt lat="47.669027" lon="15.505762">
<ele>822.0</ele>
<desc>Speed 77.3 km/h Distance 68.07 km</desc>
<time>2012-09-18T16:40:35.71</time>
<name>3579</name>
<sym>Dot</sym>
</trkpt>
<trkpt lat="47.669162" lon="15.505548">
<ele>822.0</ele>
<desc>Speed 79.0 km/h Distance 68.09 km</desc>
<time>2012-09-18T16:40:36.71</time>
<name>3580</name>
<sym>Dot</sym>
</trkpt>
<trkpt lat="47.669300" lon="15.505328">
<ele>822.0</ele>
<desc>Speed 80.6 km/h Distance 68.11 km</desc>
<time>2012-09-18T16:40:37.70</time>
<name>3581</name>
<sym>Dot</sym>
</trkpt>
<trkpt lat="47.669435" lon="15.505107">
<ele>821.5</ele>
<desc>Speed 80.5 km/h Distance 68.13 km</desc>
<time>2012-09-18T16:40:38.70</time>
<name>3582</name>
<sym>Dot</sym>
</trkpt>
<trkpt lat="47.669565" lon="15.504887">
<ele>822.0</ele>
<desc>Speed 79.2 km/h Distance 68.16 km</desc>
<time>2012-09-18T16:40:39.69</time>
<name>3583</name>
<sym>Dot</sym>
</trkpt>
<trkpt lat="47.669693" lon="15.504675">
<ele>822.5</ele>
<desc>Speed 76.7 km/h Distance 68.18 km</desc>
<time>2012-09-18T16:40:40.69</time>
<name>3584</name>
<sym>Dot</sym>
</trkpt>
<trkpt lat="47.669823" lon="15.504475">
<ele>822.5</ele>
<desc>Speed 75.0 km/h Distance 68.20 km</desc>
<time>2012-09-18T16:40:41.68</time>
<name>3585</name>
<sym>Dot</sym>
</trkpt>
<trkpt lat="47.669963" lon="15.504287">
<ele>822.5</ele>
<desc>Speed 75.6 km/h Distance 68.22 km</desc>
<time>2012-09-18T16:40:42.69</time>
<name>3586</name>
<sym>Dot</sym>
</trkpt>
<trkpt lat="47.670112" lon="15.504103">
<ele>822.0</ele>
<desc>Speed 77.5 km/h Distance 68.24 km</desc>
<time>2012-09-18T16:40:43.67</time>
<name>3587</name>
<sym>Dot</sym>
</trkpt>
<trkpt lat="47.670277" lon="15.503937">
<ele>822.5</ele>
<desc>Speed 79.5 km/h Distance 68.26 km</desc>
<time>2012-09-18T16:40:44.67</time>
<name>3588</name>
<sym>Dot</sym>
</trkpt>
<trkpt lat="47.670455" lon="15.503790">
<ele>823.0</ele>
<desc>Speed 81.6 km/h Distance 68.28 km</desc>
<time>2012-09-18T16:40:45.66</time>
<name>3589</name>
<sym>Dot</sym>
</trkpt>
<trkpt lat="47.670650" lon="15.503663">
<ele>823.5</ele>
<desc>Speed 85.2 km/h Distance 68.31 km</desc>
<time>2012-09-18T16:40:46.66</time>
<name>3590</name>
<sym>Dot</sym>
</trkpt>
<trkpt lat="47.670857" lon="15.503550">
<ele>824.0</ele>
<desc>Speed 87.5 km/h Distance 68.33 km</desc>
<time>2012-09-18T16:40:47.65</time>
<name>3591</name>
<sym>Dot</sym>
</trkpt>
<trkpt lat="47.671065" lon="15.503448">
<ele>824.0</ele>
<desc>Speed 88.1 km/h Distance 68.36 km</desc>
<time>2012-09-18T16:40:48.66</time>
<name>3592</name>
<sym>Dot</sym>
</trkpt>
<trkpt lat="47.671283" lon="15.503348">
<ele>824.5</ele>
<desc>Speed 91.1 km/h Distance 68.38 km</desc>
<time>2012-09-18T16:40:49.65</time>
<name>3593</name>
<sym>Dot</sym>
</trkpt>
<trkpt lat="47.671500" lon="15.503248">
<ele>825.0</ele>
<desc>Speed 90.5 km/h Distance 68.41 km</desc>
<time>2012-09-18T16:40:50.64</time>
<name>3594</name>
<sym>Dot</sym>
</trkpt>
<trkpt lat="47.671705" lon="15.503142">
<ele>825.5</ele>
<desc>Speed 86.3 km/h Distance 68.43 km</desc>
<time>2012-09-18T16:40:51.63</time>
<name>3595</name>
<sym>Dot</sym>
</trkpt>
<trkpt lat="47.671902" lon="15.503018">
<ele>825.5</ele>
<desc>Speed 85.5 km/h Distance 68.46 km</desc>
<time>2012-09-18T16:40:52.62</time>
<name>3596</name>
<sym>Dot</sym>
</trkpt>
<trkpt lat="47.672093" lon="15.502870">
<ele>826.0</ele>
<desc>Speed 86.8 km/h Distance 68.48 km</desc>
<time>2012-09-18T16:40:53.62</time>
<name>3597</name>
<sym>Dot</sym>
</trkpt>
<trkpt lat="47.672280" lon="15.502695">
<ele>826.5</ele>
<desc>Speed 88.1 km/h Distance 68.50 km</desc>
<time>2012-09-18T16:40:54.61</time>
<name>3598</name>
<sym>Dot</sym>
</trkpt>
<trkpt lat="47.672457" lon="15.502498">
<ele>826.5</ele>
<desc>Speed 88.8 km/h Distance 68.53 km</desc>
<time>2012-09-18T16:40:55.61</time>
<name>3599</name>
<sym>Dot</sym>
</trkpt>
<trkpt lat="47.672623" lon="15.502283">
<ele>826.0</ele>
<desc>Speed 88.5 km/h Distance 68.55 km</desc>
<time>2012-09-18T16:40:56.60</time>
<name>3600</name>
<sym>Dot</sym>
</trkpt>
<trkpt lat="47.672773" lon="15.502047">
<ele>826.5</ele>
<desc>Speed 87.7 km/h Distance 68.58 km</desc>
<time>2012-09-18T16:40:57.60</time>
<name>3601</name>
<sym>Dot</sym>
</trkpt>
<trkpt lat="47.672905" lon="15.501788">
<ele>826.5</ele>
<desc>Speed 87.6 km/h Distance 68.60 km</desc>
<time>2012-09-18T16:40:58.59</time>
<name>3602</name>
<sym>Dot</sym>
</trkpt>
<trkpt lat="47.673012" lon="15.501497">
<ele>828.0</ele>
<desc>Speed 89.5 km/h Distance 68.63 km</desc>
<time>2012-09-18T16:40:59.58</time>
<name>3603</name>
<sym>Dot</sym>
</trkpt>
<trkpt lat="47.673105" lon="15.501202">
<ele>826.0</ele>
<desc>Speed 88.1 km/h Distance 68.65 km</desc>
<time>2012-09-18T16:41:00.58</time>
<name>3604</name>
<sym>Dot</sym>
</trkpt>
<trkpt lat="47.673190" lon="15.500912">
<ele>826.0</ele>
<desc>Speed 85.6 km/h Distance 68.68 km</desc>
<time>2012-09-18T16:41:01.58</time>
<name>3605</name>
<sym>Dot</sym>
</trkpt>
<trkpt lat="47.673278" lon="15.500637">
<ele>824.0</ele>
<desc>Speed 82.4 km/h Distance 68.70 km</desc>
<time>2012-09-18T16:41:02.58</time>
<name>3606</name>
<sym>Dot</sym>
</trkpt>
<trkpt lat="47.673385" lon="15.500398">
<ele>823.5</ele>
<desc>Speed 77.3 km/h Distance 68.72 km</desc>
<time>2012-09-18T16:41:03.58</time>
<name>3607</name>
<sym>Dot</sym>
</trkpt>
<trkpt lat="47.673517" lon="15.500158">
<ele>823.5</ele>
<desc>Speed 83.7 km/h Distance 68.74 km</desc>
<time>2012-09-18T16:41:04.58</time>
<name>3608</name>
<sym>Dot</sym>
</trkpt>
<trkpt lat="47.673663" lon="15.499933">
<ele>823.0</ele>
<desc>Speed 84.5 km/h Distance 68.77 km</desc>
<time>2012-09-18T16:41:05.56</time>
<name>3609</name>
<sym>Dot</sym>
</trkpt>
<trkpt lat="47.673813" lon="15.499695">
<ele>823.5</ele>
<desc>Speed 87.9 km/h Distance 68.79 km</desc>
<time>2012-09-18T16:41:06.56</time>
<name>3610</name>
<sym>Dot</sym>
</trkpt>
<trkpt lat="47.673952" lon="15.499438">
<ele>824.5</ele>
<desc>Speed 89.3 km/h Distance 68.82 km</desc>
<time>2012-09-18T16:41:07.55</time>
<name>3611</name>
<sym>Dot</sym>
</trkpt>
<trkpt lat="47.674078" lon="15.499180">
<ele>824.0</ele>
<desc>Speed 86.2 km/h Distance 68.84 km</desc>
<time>2012-09-18T16:41:08.54</time>
<name>3612</name>
<sym>Dot</sym>
</trkpt>
<trkpt lat="47.674188" lon="15.498925">
<ele>824.0</ele>
<desc>Speed 82.0 km/h Distance 68.86 km</desc>
<time>2012-09-18T16:41:09.54</time>
<name>3613</name>
<sym>Dot</sym>
</trkpt>
<trkpt lat="47.674287" lon="15.498677">
<ele>824.0</ele>
<desc>Speed 77.9 km/h Distance 68.88 km</desc>
<time>2012-09-18T16:41:10.54</time>
<name>3614</name>
<sym>Dot</sym>
</trkpt>
<trkpt lat="47.674377" lon="15.498440">
<ele>823.5</ele>
<desc>Speed 73.9 km/h Distance 68.90 km</desc>
<time>2012-09-18T16:41:11.53</time>
<name>3615</name>
<sym>Dot</sym>
</trkpt>
<trkpt lat="47.674638" lon="15.497722">
<ele>825.0</ele>
<desc>Speed 48.2 km/h Distance 68.97 km</desc>
<time>2012-09-18T16:41:15.93</time>
<name>3616</name>
<sym>Dot</sym>
</trkpt>
<trkpt lat="47.674673" lon="15.497552">
<ele>824.5</ele>
<desc>Speed 47.7 km/h Distance 68.98 km</desc>
<time>2012-09-18T16:41:16.92</time>
<name>3617</name>
<sym>Dot</sym>
</trkpt>
<trkpt lat="47.674698" lon="15.497375">
<ele>825.0</ele>
<desc>Speed 49.0 km/h Distance 68.99 km</desc>
<time>2012-09-18T16:41:17.92</time>
<name>3618</name>
<sym>Dot</sym>
</trkpt>
<trkpt lat="47.674718" lon="15.497188">
<ele>824.5</ele>
<desc>Speed 50.8 km/h Distance 69.01 km</desc>
<time>2012-09-18T16:41:18.92</time>
<name>3619</name>
<sym>Dot</sym>
</trkpt>
<trkpt lat="47.674730" lon="15.496997">
<ele>824.5</ele>
<desc>Speed 52.3 km/h Distance 69.02 km</desc>
<time>2012-09-18T16:41:19.91</time>
<name>3620</name>
<sym>Dot</sym>
</trkpt>
<trkpt lat="47.674727" lon="15.496800">
<ele>825.5</ele>
<desc>Speed 53.1 km/h Distance 69.04 km</desc>
<time>2012-09-18T16:41:20.90</time>
<name>3621</name>
<sym>Dot</sym>
</trkpt>
<trkpt lat="47.674717" lon="15.496605">
<ele>825.5</ele>
<desc>Speed 52.8 km/h Distance 69.05 km</desc>
<time>2012-09-18T16:41:21.90</time>
<name>3622</name>
<sym>Dot</sym>
</trkpt>
<trkpt lat="47.674707" lon="15.496405">
<ele>825.5</ele>
<desc>Speed 54.4 km/h Distance 69.07 km</desc>
<time>2012-09-18T16:41:22.90</time>
<name>3623</name>
<sym>Dot</sym>
</trkpt>
<trkpt lat="47.674700" lon="15.496208">
<ele>825.5</ele>
<desc>Speed 53.6 km/h Distance 69.08 km</desc>
<time>2012-09-18T16:41:23.89</time>
<name>3624</name>
<sym>Dot</sym>
</trkpt>
<trkpt lat="47.674698" lon="15.496017">
<ele>825.0</ele>
<desc>Speed 51.8 km/h Distance 69.09 km</desc>
<time>2012-09-18T16:41:24.90</time>
<name>3625</name>
<sym>Dot</sym>
</trkpt>
<trkpt lat="47.674703" lon="15.495832">
<ele>824.5</ele>
<desc>Speed 50.1 km/h Distance 69.11 km</desc>
<time>2012-09-18T16:41:25.89</time>
<name>3626</name>
<sym>Dot</sym>
</trkpt>
<trkpt lat="47.674715" lon="15.495650">
<ele>823.5</ele>
<desc>Speed 49.4 km/h Distance 69.12 km</desc>
<time>2012-09-18T16:41:26.89</time>
<name>3627</name>
<sym>Dot</sym>
</trkpt>
<trkpt lat="47.674733" lon="15.495470">
<ele>823.5</ele>
<desc>Speed 49.0 km/h Distance 69.14 km</desc>
<time>2012-09-18T16:41:27.88</time>
<name>3628</name>
<sym>Dot</sym>
</trkpt>
<trkpt lat="47.674757" lon="15.495293">
<ele>823.0</ele>
<desc>Speed 49.0 km/h Distance 69.15 km</desc>
<time>2012-09-18T16:41:28.88</time>
<name>3629</name>
<sym>Dot</sym>
</trkpt>
<trkpt lat="47.674788" lon="15.495122">
<ele>823.0</ele>
<desc>Speed 48.5 km/h Distance 69.16 km</desc>
<time>2012-09-18T16:41:29.87</time>
<name>3630</name>
<sym>Dot</sym>
</trkpt>
<trkpt lat="47.674827" lon="15.494953">
<ele>823.5</ele>
<desc>Speed 48.3 km/h Distance 69.18 km</desc>
<time>2012-09-18T16:41:30.86</time>
<name>3631</name>
<sym>Dot</sym>
</trkpt>
<trkpt lat="47.674870" lon="15.494787">
<ele>823.5</ele>
<desc>Speed 48.3 km/h Distance 69.19 km</desc>
<time>2012-09-18T16:41:31.85</time>
<name>3632</name>
<sym>Dot</sym>
</trkpt>
<trkpt lat="47.674922" lon="15.494627">
<ele>823.5</ele>
<desc>Speed 47.9 km/h Distance 69.20 km</desc>
<time>2012-09-18T16:41:32.85</time>
<name>3633</name>
<sym>Dot</sym>
</trkpt>
<trkpt lat="47.674977" lon="15.494472">
<ele>823.0</ele>
<desc>Speed 47.9 km/h Distance 69.22 km</desc>
<time>2012-09-18T16:41:33.84</time>
<name>3634</name>
<sym>Dot</sym>
</trkpt>
<trkpt lat="47.675035" lon="15.494322">
<ele>823.5</ele>
<desc>Speed 47.3 km/h Distance 69.23 km</desc>
<time>2012-09-18T16:41:34.84</time>
<name>3635</name>
<sym>Dot</sym>
</trkpt>
<trkpt lat="47.675098" lon="15.494180">
<ele>823.5</ele>
<desc>Speed 46.2 km/h Distance 69.24 km</desc>
<time>2012-09-18T16:41:35.84</time>
<name>3636</name>
<sym>Dot</sym>
</trkpt>
<trkpt lat="47.675167" lon="15.494047">
<ele>824.0</ele>
<desc>Speed 46.1 km/h Distance 69.25 km</desc>
<time>2012-09-18T16:41:36.83</time>
<name>3637</name>
<sym>Dot</sym>
</trkpt>
<trkpt lat="47.675240" lon="15.493912">
<ele>824.0</ele>
<desc>Speed 46.7 km/h Distance 69.27 km</desc>
<time>2012-09-18T16:41:37.83</time>
<name>3638</name>
<sym>Dot</sym>
</trkpt>
<trkpt lat="47.675312" lon="15.493773">
<ele>824.5</ele>
<desc>Speed 47.3 km/h Distance 69.28 km</desc>
<time>2012-09-18T16:41:38.83</time>
<name>3639</name>
<sym>Dot</sym>
</trkpt>
<trkpt lat="47.675380" lon="15.493632">
<ele>824.5</ele>
<desc>Speed 47.3 km/h Distance 69.29 km</desc>
<time>2012-09-18T16:41:39.83</time>
<name>3640</name>
<sym>Dot</sym>
</trkpt>
<trkpt lat="47.675440" lon="15.493493">
<ele>825.0</ele>
<desc>Speed 44.9 km/h Distance 69.31 km</desc>
<time>2012-09-18T16:41:40.83</time>
<name>3641</name>
<sym>Dot</sym>
</trkpt>
<trkpt lat="47.675497" lon="15.493357">
<ele>826.5</ele>
<desc>Speed 43.5 km/h Distance 69.32 km</desc>
<time>2012-09-18T16:41:41.82</time>
<name>3642</name>
<sym>Dot</sym>
</trkpt>
<trkpt lat="47.675547" lon="15.493217">
<ele>826.5</ele>
<desc>Speed 43.1 km/h Distance 69.33 km</desc>
<time>2012-09-18T16:41:42.81</time>
<name>3643</name>
<sym>Dot</sym>
</trkpt>
<trkpt lat="47.675597" lon="15.493073">
<ele>827.0</ele>
<desc>Speed 43.6 km/h Distance 69.34 km</desc>
<time>2012-09-18T16:41:43.81</time>
<name>3644</name>
<sym>Dot</sym>
</trkpt>
<trkpt lat="47.675642" lon="15.492928">
<ele>828.0</ele>
<desc>Speed 43.5 km/h Distance 69.35 km</desc>
<time>2012-09-18T16:41:44.80</time>
<name>3645</name>
<sym>Dot</sym>
</trkpt>
<trkpt lat="47.675680" lon="15.492787">
<ele>828.0</ele>
<desc>Speed 41.3 km/h Distance 69.36 km</desc>
<time>2012-09-18T16:41:45.80</time>
<name>3646</name>
<sym>Dot</sym>
</trkpt>
<trkpt lat="47.675700" lon="15.492648">
<ele>829.0</ele>
<desc>Speed 38.6 km/h Distance 69.38 km</desc>
<time>2012-09-18T16:41:46.79</time>
<name>3647</name>
<sym>Dot</sym>
</trkpt>
<trkpt lat="47.675687" lon="15.492510">
<ele>828.0</ele>
<desc>Speed 37.7 km/h Distance 69.39 km</desc>
<time>2012-09-18T16:41:47.78</time>
<name>3648</name>
<sym>Dot</sym>
</trkpt>
<trkpt lat="47.675667" lon="15.492378">
<ele>828.5</ele>
<desc>Speed 37.0 km/h Distance 69.40 km</desc>
<time>2012-09-18T16:41:48.79</time>
<name>3649</name>
<sym>Dot</sym>
</trkpt>
<trkpt lat="47.675645" lon="15.492260">
<ele>828.5</ele>
<desc>Speed 33.3 km/h Distance 69.41 km</desc>
<time>2012-09-18T16:41:49.78</time>
<name>3650</name>
<sym>Dot</sym>
</trkpt>
<trkpt lat="47.675622" lon="15.492152">
<ele>828.0</ele>
<desc>Speed 30.6 km/h Distance 69.41 km</desc>
<time>2012-09-18T16:41:50.78</time>
<name>3651</name>
<sym>Dot</sym>
</trkpt>
<trkpt lat="47.675615" lon="15.492052">
<ele>828.0</ele>
<desc>Speed 27.2 km/h Distance 69.42 km</desc>
<time>2012-09-18T16:41:51.77</time>
<name>3652</name>
<sym>Dot</sym>
</trkpt>
<trkpt lat="47.675642" lon="15.491952">
<ele>828.0</ele>
<desc>Speed 29.0 km/h Distance 69.43 km</desc>
<time>2012-09-18T16:41:52.79</time>
<name>3653</name>
<sym>Dot</sym>
</trkpt>
<trkpt lat="47.675685" lon="15.491863">
<ele>829.5</ele>
<desc>Speed 29.7 km/h Distance 69.44 km</desc>
<time>2012-09-18T16:41:53.77</time>
<name>3654</name>
<sym>Dot</sym>
</trkpt>
<trkpt lat="47.675745" lon="15.491778">
<ele>829.5</ele>
<desc>Speed 33.0 km/h Distance 69.45 km</desc>
<time>2012-09-18T16:41:54.77</time>
<name>3655</name>
<sym>Dot</sym>
</trkpt>
<trkpt lat="47.675823" lon="15.491693">
<ele>829.5</ele>
<desc>Speed 38.4 km/h Distance 69.46 km</desc>
<time>2012-09-18T16:41:55.77</time>
<name>3656</name>
<sym>Dot</sym>
</trkpt>
<trkpt lat="47.675907" lon="15.491613">
<ele>830.0</ele>
<desc>Speed 39.1 km/h Distance 69.47 km</desc>
<time>2012-09-18T16:41:56.76</time>
<name>3657</name>
<sym>Dot</sym>
</trkpt>
<trkpt lat="47.675997" lon="15.491530">
<ele>830.5</ele>
<desc>Speed 42.4 km/h Distance 69.48 km</desc>
<time>2012-09-18T16:41:57.75</time>
<name>3658</name>
<sym>Dot</sym>
</trkpt>
<trkpt lat="47.676097" lon="15.491435">
<ele>831.5</ele>
<desc>Speed 46.9 km/h Distance 69.49 km</desc>
<time>2012-09-18T16:41:58.76</time>
<name>3659</name>
<sym>Dot</sym>
</trkpt>
<trkpt lat="47.676202" lon="15.491335">
<ele>831.5</ele>
<desc>Speed 48.9 km/h Distance 69.51 km</desc>
<time>2012-09-18T16:41:59.75</time>
<name>3660</name>
<sym>Dot</sym>
</trkpt>
<trkpt lat="47.676302" lon="15.491235">
<ele>832.0</ele>
<desc>Speed 48.2 km/h Distance 69.52 km</desc>
<time>2012-09-18T16:42:00.73</time>
<name>3661</name>
<sym>Dot</sym>
</trkpt>
<trkpt lat="47.676405" lon="15.491133">
<ele>832.5</ele>
<desc>Speed 49.6 km/h Distance 69.53 km</desc>
<time>2012-09-18T16:42:01.74</time>
<name>3662</name>
<sym>Dot</sym>
</trkpt>
<trkpt lat="47.676512" lon="15.491027">
<ele>832.5</ele>
<desc>Speed 51.0 km/h Distance 69.55 km</desc>
<time>2012-09-18T16:42:02.72</time>
<name>3663</name>
<sym>Dot</sym>
</trkpt>
<trkpt lat="47.676617" lon="15.490918">
<ele>832.5</ele>
<desc>Speed 51.0 km/h Distance 69.56 km</desc>
<time>2012-09-18T16:42:03.72</time>
<name>3664</name>
<sym>Dot</sym>
</trkpt>
<trkpt lat="47.676723" lon="15.490808">
<ele>833.0</ele>
<desc>Speed 51.8 km/h Distance 69.58 km</desc>
<time>2012-09-18T16:42:04.71</time>
<name>3665</name>
<sym>Dot</sym>
</trkpt>
<trkpt lat="47.676832" lon="15.490695">
<ele>833.0</ele>
<desc>Speed 53.1 km/h Distance 69.59 km</desc>
<time>2012-09-18T16:42:05.72</time>
<name>3666</name>
<sym>Dot</sym>
</trkpt>
<trkpt lat="47.676940" lon="15.490578">
<ele>833.0</ele>
<desc>Speed 53.2 km/h Distance 69.61 km</desc>
<time>2012-09-18T16:42:06.72</time>
<name>3667</name>
<sym>Dot</sym>
</trkpt>
<trkpt lat="47.677043" lon="15.490462">
<ele>833.0</ele>
<desc>Speed 52.1 km/h Distance 69.62 km</desc>
<time>2012-09-18T16:42:07.71</time>
<name>3668</name>
<sym>Dot</sym>
</trkpt>
<trkpt lat="47.677147" lon="15.490345">
<ele>832.5</ele>
<desc>Speed 51.9 km/h Distance 69.64 km</desc>
<time>2012-09-18T16:42:08.69</time>
<name>3669</name>
<sym>Dot</sym>
</trkpt>
<trkpt lat="47.677248" lon="15.490225">
<ele>833.0</ele>
<desc>Speed 52.1 km/h Distance 69.65 km</desc>
<time>2012-09-18T16:42:09.70</time>
<name>3670</name>
<sym>Dot</sym>
</trkpt>
<trkpt lat="47.677348" lon="15.490103">
<ele>833.0</ele>
<desc>Speed 51.7 km/h Distance 69.67 km</desc>
<time>2012-09-18T16:42:10.68</time>
<name>3671</name>
<sym>Dot</sym>
</trkpt>
<trkpt lat="47.677448" lon="15.489982">
<ele>833.5</ele>
<desc>Speed 51.7 km/h Distance 69.68 km</desc>
<time>2012-09-18T16:42:11.68</time>
<name>3672</name>
<sym>Dot</sym>
</trkpt>
<trkpt lat="47.677547" lon="15.489860">
<ele>833.5</ele>
<desc>Speed 51.2 km/h Distance 69.69 km</desc>
<time>2012-09-18T16:42:12.67</time>
<name>3673</name>
<sym>Dot</sym>
</trkpt>
<trkpt lat="47.677643" lon="15.489742">
<ele>833.5</ele>
<desc>Speed 50.5 km/h Distance 69.71 km</desc>
<time>2012-09-18T16:42:13.67</time>
<name>3674</name>
<sym>Dot</sym>
</trkpt>
<trkpt lat="47.677743" lon="15.489622">
<ele>834.0</ele>
<desc>Speed 51.5 km/h Distance 69.72 km</desc>
<time>2012-09-18T16:42:14.66</time>
<name>3675</name>
<sym>Dot</sym>
</trkpt>
<trkpt lat="47.677845" lon="15.489498">
<ele>834.0</ele>
<desc>Speed 52.2 km/h Distance 69.74 km</desc>
<time>2012-09-18T16:42:15.67</time>
<name>3676</name>
<sym>Dot</sym>
</trkpt>
<trkpt lat="47.677953" lon="15.489367">
<ele>835.0</ele>
<desc>Speed 56.3 km/h Distance 69.75 km</desc>
<time>2012-09-18T16:42:16.66</time>
<name>3677</name>
<sym>Dot</sym>
</trkpt>
<trkpt lat="47.678215" lon="15.489045">
<ele>835.0</ele>
<desc>Speed 67.1 km/h Distance 69.79 km</desc>
<time>2012-09-18T16:42:18.66</time>
<name>3678</name>
<sym>Dot</sym>
</trkpt>
<trkpt lat="47.678348" lon="15.488903">
<ele>835.5</ele>
<desc>Speed 65.5 km/h Distance 69.81 km</desc>
<time>2012-09-18T16:42:19.66</time>
<name>3679</name>
<sym>Dot</sym>
</trkpt>
<trkpt lat="47.678500" lon="15.488810">
<ele>835.5</ele>
<desc>Speed 66.1 km/h Distance 69.83 km</desc>
<time>2012-09-18T16:42:20.64</time>
<name>3680</name>
<sym>Dot</sym>
</trkpt>
<trkpt lat="47.678660" lon="15.488768">
<ele>837.0</ele>
<desc>Speed 65.1 km/h Distance 69.84 km</desc>
<time>2012-09-18T16:42:21.65</time>
<name>3681</name>
<sym>Dot</sym>
</trkpt>
<trkpt lat="47.678823" lon="15.488780">
<ele>837.5</ele>
<desc>Speed 66.0 km/h Distance 69.86 km</desc>
<time>2012-09-18T16:42:22.64</time>
<name>3682</name>
<sym>Dot</sym>
</trkpt>
<trkpt lat="47.679002" lon="15.488825">
<ele>839.5</ele>
<desc>Speed 72.1 km/h Distance 69.88 km</desc>
<time>2012-09-18T16:42:23.63</time>
<name>3683</name>
<sym>Dot</sym>
</trkpt>
<trkpt lat="47.679178" lon="15.488853">
<ele>840.0</ele>
<desc>Speed 71.5 km/h Distance 69.90 km</desc>
<time>2012-09-18T16:42:24.63</time>
<name>3684</name>
<sym>Dot</sym>
</trkpt>
<trkpt lat="47.679358" lon="15.488863">
<ele>839.5</ele>
<desc>Speed 72.7 km/h Distance 69.92 km</desc>
<time>2012-09-18T16:42:25.63</time>
<name>3685</name>
<sym>Dot</sym>
</trkpt>
<trkpt lat="47.679532" lon="15.488863">
<ele>840.0</ele>
<desc>Speed 69.4 km/h Distance 69.94 km</desc>
<time>2012-09-18T16:42:26.65</time>
<name>3686</name>
<sym>Dot</sym>
</trkpt>
<trkpt lat="47.679695" lon="15.488867">
<ele>839.0</ele>
<desc>Speed 65.4 km/h Distance 69.96 km</desc>
<time>2012-09-18T16:42:27.62</time>
<name>3687</name>
<sym>Dot</sym>
</trkpt>
<trkpt lat="47.679848" lon="15.488873">
<ele>839.0</ele>
<desc>Speed 61.5 km/h Distance 69.98 km</desc>
<time>2012-09-18T16:42:28.61</time>
<name>3688</name>
<sym>Dot</sym>
</trkpt>
<trkpt lat="47.680000" lon="15.488855">
<ele>838.0</ele>
<desc>Speed 61.1 km/h Distance 69.99 km</desc>
<time>2012-09-18T16:42:29.61</time>
<name>3689</name>
<sym>Dot</sym>
</trkpt>
<trkpt lat="47.680147" lon="15.488777">
<ele>838.0</ele>
<desc>Speed 63.0 km/h Distance 70.01 km</desc>
<time>2012-09-18T16:42:30.61</time>
<name>3690</name>
<sym>Dot</sym>
</trkpt>
<trkpt lat="47.680273" lon="15.488660">
<ele>836.5</ele>
<desc>Speed 59.8 km/h Distance 70.03 km</desc>
<time>2012-09-18T16:42:31.62</time>
<name>3691</name>
<sym>Dot</sym>
</trkpt>
<trkpt lat="47.680422" lon="15.488332">
<ele>837.0</ele>
<desc>Speed 55.8 km/h Distance 70.06 km</desc>
<time>2012-09-18T16:42:33.61</time>
<name>3692</name>
<sym>Dot</sym>
</trkpt>
<trkpt lat="47.680465" lon="15.488118">
<ele>837.0</ele>
<desc>Speed 60.7 km/h Distance 70.07 km</desc>
<time>2012-09-18T16:42:34.61</time>
<name>3693</name>
<sym>Dot</sym>
</trkpt>
<trkpt lat="47.680475" lon="15.487593">
<ele>837.5</ele>
<desc>Speed 74.1 km/h Distance 70.11 km</desc>
<time>2012-09-18T16:42:36.60</time>
<name>3694</name>
<sym>Dot</sym>
</trkpt>
<trkpt lat="47.680517" lon="15.487000">
<ele>837.5</ele>
<desc>Speed 80.8 km/h Distance 70.16 km</desc>
<time>2012-09-18T16:42:38.60</time>
<name>3695</name>
<sym>Dot</sym>
</trkpt>
<trkpt lat="47.680537" lon="15.486702">
<ele>838.0</ele>
<desc>Speed 81.4 km/h Distance 70.18 km</desc>
<time>2012-09-18T16:42:39.60</time>
<name>3696</name>
<sym>Dot</sym>
</trkpt>
<trkpt lat="47.680542" lon="15.486393">
<ele>838.5</ele>
<desc>Speed 83.3 km/h Distance 70.20 km</desc>
<time>2012-09-18T16:42:40.59</time>
<name>3697</name>
<sym>Dot</sym>
</trkpt>
<trkpt lat="47.680540" lon="15.486090">
<ele>838.5</ele>
<desc>Speed 82.4 km/h Distance 70.23 km</desc>
<time>2012-09-18T16:42:41.58</time>
<name>3698</name>
<sym>Dot</sym>
</trkpt>
<trkpt lat="47.680562" lon="15.485793">
<ele>839.0</ele>
<desc>Speed 80.5 km/h Distance 70.25 km</desc>
<time>2012-09-18T16:42:42.58</time>
<name>3699</name>
<sym>Dot</sym>
</trkpt>
<trkpt lat="47.680572" lon="15.485515">
<ele>840.0</ele>
<desc>Speed 75.6 km/h Distance 70.27 km</desc>
<time>2012-09-18T16:42:43.58</time>
<name>3700</name>
<sym>Dot</sym>
</trkpt>
<trkpt lat="47.680597" lon="15.485232">
<ele>840.5</ele>
<desc>Speed 77.2 km/h Distance 70.29 km</desc>
<time>2012-09-18T16:42:44.57</time>
<name>3701</name>
<sym>Dot</sym>
</trkpt>
<trkpt lat="47.680668" lon="15.484952">
<ele>840.5</ele>
<desc>Speed 81.4 km/h Distance 70.31 km</desc>
<time>2012-09-18T16:42:45.57</time>
<name>3702</name>
<sym>Dot</sym>
</trkpt>
<trkpt lat="47.680865" lon="15.484493">
<ele>841.5</ele>
<desc>Speed 75.7 km/h Distance 70.35 km</desc>
<time>2012-09-18T16:42:47.56</time>
<name>3703</name>
<sym>Dot</sym>
</trkpt>
<trkpt lat="47.681002" lon="15.484297">
<ele>841.0</ele>
<desc>Speed 77.3 km/h Distance 70.38 km</desc>
<time>2012-09-18T16:42:48.54</time>
<name>3704</name>
<sym>Dot</sym>
</trkpt>
<trkpt lat="47.681350" lon="15.483928">
<ele>842.0</ele>
<desc>Speed 87.3 km/h Distance 70.42 km</desc>
<time>2012-09-18T16:42:50.55</time>
<name>3705</name>
<sym>Dot</sym>
</trkpt>
<trkpt lat="47.681535" lon="15.483752">
<ele>841.5</ele>
<desc>Speed 89.9 km/h Distance 70.45 km</desc>
<time>2012-09-18T16:42:51.55</time>
<name>3706</name>
<sym>Dot</sym>
</trkpt>
<trkpt lat="47.681728" lon="15.483573">
<ele>841.0</ele>
<desc>Speed 92.6 km/h Distance 70.47 km</desc>
<time>2012-09-18T16:42:52.54</time>
<name>3707</name>
<sym>Dot</sym>
</trkpt>
<trkpt lat="47.681925" lon="15.483403">
<ele>840.5</ele>
<desc>Speed 92.3 km/h Distance 70.50 km</desc>
<time>2012-09-18T16:42:53.53</time>
<name>3708</name>
<sym>Dot</sym>
</trkpt>
<trkpt lat="47.682128" lon="15.483238">
<ele>840.5</ele>
<desc>Speed 92.8 km/h Distance 70.52 km</desc>
<time>2012-09-18T16:42:54.52</time>
<name>3709</name>
<sym>Dot</sym>
</trkpt>
<trkpt lat="47.682327" lon="15.483083">
<ele>841.0</ele>
<desc>Speed 89.9 km/h Distance 70.55 km</desc>
<time>2012-09-18T16:42:55.52</time>
<name>3710</name>
<sym>Dot</sym>
</trkpt>
<trkpt lat="47.682708" lon="15.482858">
<ele>840.5</ele>
<desc>Speed 85.1 km/h Distance 70.60 km</desc>
<time>2012-09-18T16:42:57.52</time>
<name>3711</name>
<sym>Dot</sym>
</trkpt>
<trkpt lat="47.682915" lon="15.482793">
<ele>840.5</ele>
<desc>Speed 86.9 km/h Distance 70.62 km</desc>
<time>2012-09-18T16:42:58.52</time>
<name>3712</name>
<sym>Dot</sym>
</trkpt>
<trkpt lat="47.683138" lon="15.482777">
<ele>840.5</ele>
<desc>Speed 90.1 km/h Distance 70.64 km</desc>
<time>2012-09-18T16:42:59.52</time>
<name>3713</name>
<sym>Dot</sym>
</trkpt>
<trkpt lat="47.683365" lon="15.482788">
<ele>840.5</ele>
<desc>Speed 90.7 km/h Distance 70.67 km</desc>
<time>2012-09-18T16:43:00.51</time>
<name>3714</name>
<sym>Dot</sym>
</trkpt>
<trkpt lat="47.683587" lon="15.482812">
<ele>840.5</ele>
<desc>Speed 89.3 km/h Distance 70.69 km</desc>
<time>2012-09-18T16:43:01.51</time>
<name>3715</name>
<sym>Dot</sym>
</trkpt>
<trkpt lat="47.683818" lon="15.482887">
<ele>840.5</ele>
<desc>Speed 96.2 km/h Distance 70.72 km</desc>
<time>2012-09-18T16:43:02.50</time>
<name>3716</name>
<sym>Dot</sym>
</trkpt>
<trkpt lat="47.684048" lon="15.482962">
<ele>841.5</ele>
<desc>Speed 95.3 km/h Distance 70.75 km</desc>
<time>2012-09-18T16:43:03.49</time>
<name>3717</name>
<sym>Dot</sym>
</trkpt>
<trkpt lat="47.684273" lon="15.483040">
<ele>841.5</ele>
<desc>Speed 93.3 km/h Distance 70.77 km</desc>
<time>2012-09-18T16:43:04.49</time>
<name>3718</name>
<sym>Dot</sym>
</trkpt>
<trkpt lat="47.684487" lon="15.483110">
<ele>842.0</ele>
<desc>Speed 88.6 km/h Distance 70.80 km</desc>
<time>2012-09-18T16:43:05.49</time>
<name>3719</name>
<sym>Dot</sym>
</trkpt>
<trkpt lat="47.684687" lon="15.483167">
<ele>842.0</ele>
<desc>Speed 82.3 km/h Distance 70.82 km</desc>
<time>2012-09-18T16:43:06.49</time>
<name>3720</name>
<sym>Dot</sym>
</trkpt>
<trkpt lat="47.684877" lon="15.483217">
<ele>842.0</ele>
<desc>Speed 78.3 km/h Distance 70.84 km</desc>
<time>2012-09-18T16:43:07.49</time>
<name>3721</name>
<sym>Dot</sym>
</trkpt>
<trkpt lat="47.685060" lon="15.483208">
<ele>843.5</ele>
<desc>Speed 74.2 km/h Distance 70.86 km</desc>
<time>2012-09-18T16:43:08.48</time>
<name>3722</name>
<sym>Dot</sym>
</trkpt>
<trkpt lat="47.685370" lon="15.483007">
<ele>846.0</ele>
<desc>Speed 70.9 km/h Distance 70.90 km</desc>
<time>2012-09-18T16:43:10.48</time>
<name>3723</name>
<sym>Dot</sym>
</trkpt>
<trkpt lat="47.685505" lon="15.482825">
<ele>847.0</ele>
<desc>Speed 73.8 km/h Distance 70.92 km</desc>
<time>2012-09-18T16:43:11.47</time>
<name>3724</name>
<sym>Dot</sym>
</trkpt>
<trkpt lat="47.685623" lon="15.482587">
<ele>848.0</ele>
<desc>Speed 80.8 km/h Distance 70.94 km</desc>
<time>2012-09-18T16:43:12.46</time>
<name>3725</name>
<sym>Dot</sym>
</trkpt>
<trkpt lat="47.685755" lon="15.482353">
<ele>849.0</ele>
<desc>Speed 82.2 km/h Distance 70.96 km</desc>
<time>2012-09-18T16:43:13.46</time>
<name>3726</name>
<sym>Dot</sym>
</trkpt>
<trkpt lat="47.685888" lon="15.482105">
<ele>850.0</ele>
<desc>Speed 86.2 km/h Distance 70.99 km</desc>
<time>2012-09-18T16:43:14.47</time>
<name>3727</name>
<sym>Dot</sym>
</trkpt>
<trkpt lat="47.686027" lon="15.481858">
<ele>850.5</ele>
<desc>Speed 87.1 km/h Distance 71.01 km</desc>
<time>2012-09-18T16:43:15.46</time>
<name>3728</name>
<sym>Dot</sym>
</trkpt>
<trkpt lat="47.686173" lon="15.481615">
<ele>851.5</ele>
<desc>Speed 88.3 km/h Distance 71.04 km</desc>
<time>2012-09-18T16:43:16.46</time>
<name>3729</name>
<sym>Dot</sym>
</trkpt>
<trkpt lat="47.686332" lon="15.481373">
<ele>852.5</ele>
<desc>Speed 91.0 km/h Distance 71.06 km</desc>
<time>2012-09-18T16:43:17.46</time>
<name>3730</name>
<sym>Dot</sym>
</trkpt>
<trkpt lat="47.686495" lon="15.481137">
<ele>853.5</ele>
<desc>Speed 91.8 km/h Distance 71.09 km</desc>
<time>2012-09-18T16:43:18.44</time>
<name>3731</name>
<sym>Dot</sym>
</trkpt>
<trkpt lat="47.686653" lon="15.480918">
<ele>854.0</ele>
<desc>Speed 86.9 km/h Distance 71.11 km</desc>
<time>2012-09-18T16:43:19.44</time>
<name>3732</name>
<sym>Dot</sym>
</trkpt>
<trkpt lat="47.686805" lon="15.480722">
<ele>855.0</ele>
<desc>Speed 80.5 km/h Distance 71.13 km</desc>
<time>2012-09-18T16:43:20.44</time>
<name>3733</name>
<sym>Dot</sym>
</trkpt>
<trkpt lat="47.686948" lon="15.480545">
<ele>855.5</ele>
<desc>Speed 75.4 km/h Distance 71.15 km</desc>
<time>2012-09-18T16:43:21.43</time>
<name>3734</name>
<sym>Dot</sym>
</trkpt>
<trkpt lat="47.687095" lon="15.480415">
<ele>856.0</ele>
<desc>Speed 69.1 km/h Distance 71.17 km</desc>
<time>2012-09-18T16:43:22.43</time>
<name>3735</name>
<sym>Dot</sym>
</trkpt>
<trkpt lat="47.687268" lon="15.480332">
<ele>856.0</ele>
<desc>Speed 73.6 km/h Distance 71.19 km</desc>
<time>2012-09-18T16:43:23.42</time>
<name>3736</name>
<sym>Dot</sym>
</trkpt>
<trkpt lat="47.687448" lon="15.480257">
<ele>856.5</ele>
<desc>Speed 75.2 km/h Distance 71.21 km</desc>
<time>2012-09-18T16:43:24.43</time>
<name>3737</name>
<sym>Dot</sym>
</trkpt>
<trkpt lat="47.687838" lon="15.480175">
<ele>858.5</ele>
<desc>Speed 76.0 km/h Distance 71.26 km</desc>
<time>2012-09-18T16:43:26.41</time>
<name>3738</name>
<sym>Dot</sym>
</trkpt>
<trkpt lat="47.688017" lon="15.480118">
<ele>859.0</ele>
<desc>Speed 73.8 km/h Distance 71.28 km</desc>
<time>2012-09-18T16:43:27.40</time>
<name>3739</name>
<sym>Dot</sym>
</trkpt>
<trkpt lat="47.688178" lon="15.479997">
<ele>859.5</ele>
<desc>Speed 73.0 km/h Distance 71.30 km</desc>
<time>2012-09-18T16:43:28.40</time>
<name>3740</name>
<sym>Dot</sym>
</trkpt>
<trkpt lat="47.688333" lon="15.479848">
<ele>860.5</ele>
<desc>Speed 74.8 km/h Distance 71.32 km</desc>
<time>2012-09-18T16:43:29.40</time>
<name>3741</name>
<sym>Dot</sym>
</trkpt>
<trkpt lat="47.688478" lon="15.479690">
<ele>860.0</ele>
<desc>Speed 72.1 km/h Distance 71.34 km</desc>
<time>2012-09-18T16:43:30.40</time>
<name>3742</name>
<sym>Dot</sym>
</trkpt>
<trkpt lat="47.688618" lon="15.479547">
<ele>858.5</ele>
<desc>Speed 68.3 km/h Distance 71.36 km</desc>
<time>2012-09-18T16:43:31.39</time>
<name>3743</name>
<sym>Dot</sym>
</trkpt>
<trkpt lat="47.688773" lon="15.479437">
<ele>857.0</ele>
<desc>Speed 69.2 km/h Distance 71.38 km</desc>
<time>2012-09-18T16:43:32.39</time>
<name>3744</name>
<sym>Dot</sym>
</trkpt>
<trkpt lat="47.688948" lon="15.479348">
<ele>856.0</ele>
<desc>Speed 74.4 km/h Distance 71.40 km</desc>
<time>2012-09-18T16:43:33.39</time>
<name>3745</name>
<sym>Dot</sym>
</trkpt>
<trkpt lat="47.689117" lon="15.479312">
<ele>854.5</ele>
<desc>Speed 68.6 km/h Distance 71.42 km</desc>
<time>2012-09-18T16:43:34.38</time>
<name>3746</name>
<sym>Dot</sym>
</trkpt>
<trkpt lat="47.689303" lon="15.479323">
<ele>853.0</ele>
<desc>Speed 74.8 km/h Distance 71.44 km</desc>
<time>2012-09-18T16:43:35.37</time>
<name>3747</name>
<sym>Dot</sym>
</trkpt>
<trkpt lat="47.689472" lon="15.479363">
<ele>852.5</ele>
<desc>Speed 68.8 km/h Distance 71.46 km</desc>
<time>2012-09-18T16:43:36.37</time>
<name>3748</name>
<sym>Dot</sym>
</trkpt>
<trkpt lat="47.689643" lon="15.479447">
<ele>852.5</ele>
<desc>Speed 72.3 km/h Distance 71.48 km</desc>
<time>2012-09-18T16:43:37.38</time>
<name>3749</name>
<sym>Dot</sym>
</trkpt>
<trkpt lat="47.689820" lon="15.479543">
<ele>851.0</ele>
<desc>Speed 75.5 km/h Distance 71.50 km</desc>
<time>2012-09-18T16:43:38.37</time>
<name>3750</name>
<sym>Dot</sym>
</trkpt>
<trkpt lat="47.690010" lon="15.479610">
<ele>849.5</ele>
<desc>Speed 78.2 km/h Distance 71.52 km</desc>
<time>2012-09-18T16:43:39.36</time>
<name>3751</name>
<sym>Dot</sym>
</trkpt>
<trkpt lat="47.690203" lon="15.479630">
<ele>849.0</ele>
<desc>Speed 77.9 km/h Distance 71.54 km</desc>
<time>2012-09-18T16:43:40.35</time>
<name>3752</name>
<sym>Dot</sym>
</trkpt>
<trkpt lat="47.690390" lon="15.479587">
<ele>850.5</ele>
<desc>Speed 75.4 km/h Distance 71.56 km</desc>
<time>2012-09-18T16:43:41.34</time>
<name>3753</name>
<sym>Dot</sym>
</trkpt>
<trkpt lat="47.690575" lon="15.479503">
<ele>850.5</ele>
<desc>Speed 77.5 km/h Distance 71.58 km</desc>
<time>2012-09-18T16:43:42.34</time>
<name>3754</name>
<sym>Dot</sym>
</trkpt>
<trkpt lat="47.690732" lon="15.479345">
<ele>850.5</ele>
<desc>Speed 76.3 km/h Distance 71.60 km</desc>
<time>2012-09-18T16:43:43.34</time>
<name>3755</name>
<sym>Dot</sym>
</trkpt>
<trkpt lat="47.690908" lon="15.479192">
<ele>850.0</ele>
<desc>Speed 82.1 km/h Distance 71.63 km</desc>
<time>2012-09-18T16:43:44.33</time>
<name>3756</name>
<sym>Dot</sym>
</trkpt>
<trkpt lat="47.691085" lon="15.479045">
<ele>850.0</ele>
<desc>Speed 81.1 km/h Distance 71.65 km</desc>
<time>2012-09-18T16:43:45.33</time>
<name>3757</name>
<sym>Dot</sym>
</trkpt>
<trkpt lat="47.691268" lon="15.478910">
<ele>850.0</ele>
<desc>Speed 81.6 km/h Distance 71.67 km</desc>
<time>2012-09-18T16:43:46.32</time>
<name>3758</name>
<sym>Dot</sym>
</trkpt>
<trkpt lat="47.691460" lon="15.478793">
<ele>849.5</ele>
<desc>Speed 83.3 km/h Distance 71.70 km</desc>
<time>2012-09-18T16:43:47.31</time>
<name>3759</name>
<sym>Dot</sym>
</trkpt>
<trkpt lat="47.691675" lon="15.478735">
<ele>849.0</ele>
<desc>Speed 86.8 km/h Distance 71.72 km</desc>
<time>2012-09-18T16:43:48.30</time>
<name>3760</name>
<sym>Dot</sym>
</trkpt>
<trkpt lat="47.691903" lon="15.478727">
<ele>849.5</ele>
<desc>Speed 91.0 km/h Distance 71.75 km</desc>
<time>2012-09-18T16:43:49.39</time>
<name>3761</name>
<sym>Dot</sym>
</trkpt>
<trkpt lat="47.692122" lon="15.478752">
<ele>849.5</ele>
<desc>Speed 87.9 km/h Distance 71.77 km</desc>
<time>2012-09-18T16:43:50.29</time>
<name>3762</name>
<sym>Dot</sym>
</trkpt>
<trkpt lat="47.692328" lon="15.478818">
<ele>851.5</ele>
<desc>Speed 84.4 km/h Distance 71.79 km</desc>
<time>2012-09-18T16:43:51.30</time>
<name>3763</name>
<sym>Dot</sym>
</trkpt>
<trkpt lat="47.692535" lon="15.478923">
<ele>853.0</ele>
<desc>Speed 87.5 km/h Distance 71.82 km</desc>
<time>2012-09-18T16:43:52.30</time>
<name>3764</name>
<sym>Dot</sym>
</trkpt>
<trkpt lat="47.692927" lon="15.479282">
<ele>854.5</ele>
<desc>Speed 89.5 km/h Distance 71.87 km</desc>
<time>2012-09-18T16:43:54.29</time>
<name>3765</name>
<sym>Dot</sym>
</trkpt>
<trkpt lat="47.693105" lon="15.479480">
<ele>856.5</ele>
<desc>Speed 89.8 km/h Distance 71.89 km</desc>
<time>2012-09-18T16:43:55.29</time>
<name>3766</name>
<sym>Dot</sym>
</trkpt>
<trkpt lat="47.693280" lon="15.479687">
<ele>857.5</ele>
<desc>Speed 89.5 km/h Distance 71.92 km</desc>
<time>2012-09-18T16:43:56.29</time>
<name>3767</name>
<sym>Dot</sym>
</trkpt>
<trkpt lat="47.693457" lon="15.479898">
<ele>859.0</ele>
<desc>Speed 90.7 km/h Distance 71.94 km</desc>
<time>2012-09-18T16:43:57.30</time>
<name>3768</name>
<sym>Dot</sym>
</trkpt>
<trkpt lat="47.693632" lon="15.480113">
<ele>860.5</ele>
<desc>Speed 91.3 km/h Distance 71.97 km</desc>
<time>2012-09-18T16:43:58.30</time>
<name>3769</name>
<sym>Dot</sym>
</trkpt>
<trkpt lat="47.693812" lon="15.480327">
<ele>861.5</ele>
<desc>Speed 92.5 km/h Distance 71.99 km</desc>
<time>2012-09-18T16:43:59.29</time>
<name>3770</name>
<sym>Dot</sym>
</trkpt>
<trkpt lat="47.693995" lon="15.480545">
<ele>862.5</ele>
<desc>Speed 93.7 km/h Distance 72.02 km</desc>
<time>2012-09-18T16:44:00.29</time>
<name>3771</name>
<sym>Dot</sym>
</trkpt>
<trkpt lat="47.694177" lon="15.480763">
<ele>863.5</ele>
<desc>Speed 94.0 km/h Distance 72.05 km</desc>
<time>2012-09-18T16:44:01.29</time>
<name>3772</name>
<sym>Dot</sym>
</trkpt>
<trkpt lat="47.694360" lon="15.480977">
<ele>864.0</ele>
<desc>Speed 93.0 km/h Distance 72.07 km</desc>
<time>2012-09-18T16:44:02.28</time>
<name>3773</name>
<sym>Dot</sym>
</trkpt>
<trkpt lat="47.694542" lon="15.481162">
<ele>864.5</ele>
<desc>Speed 88.2 km/h Distance 72.10 km</desc>
<time>2012-09-18T16:44:03.27</time>
<name>3774</name>
<sym>Dot</sym>
</trkpt>
<trkpt lat="47.694740" lon="15.481320">
<ele>863.5</ele>
<desc>Speed 90.1 km/h Distance 72.12 km</desc>
<time>2012-09-18T16:44:04.27</time>
<name>3775</name>
<sym>Dot</sym>
</trkpt>
<trkpt lat="47.694953" lon="15.481447">
<ele>864.0</ele>
<desc>Speed 91.9 km/h Distance 72.15 km</desc>
<time>2012-09-18T16:44:05.27</time>
<name>3776</name>
<sym>Dot</sym>
</trkpt>
<trkpt lat="47.695163" lon="15.481525">
<ele>864.5</ele>
<desc>Speed 86.3 km/h Distance 72.17 km</desc>
<time>2012-09-18T16:44:06.26</time>
<name>3777</name>
<sym>Dot</sym>
</trkpt>
<trkpt lat="47.695380" lon="15.481567">
<ele>864.5</ele>
<desc>Speed 87.2 km/h Distance 72.20 km</desc>
<time>2012-09-18T16:44:07.28</time>
<name>3778</name>
<sym>Dot</sym>
</trkpt>
<trkpt lat="47.695598" lon="15.481570">
<ele>866.0</ele>
<desc>Speed 86.2 km/h Distance 72.22 km</desc>
<time>2012-09-18T16:44:08.25</time>
<name>3779</name>
<sym>Dot</sym>
</trkpt>
<trkpt lat="47.695815" lon="15.481533">
<ele>867.0</ele>
<desc>Speed 86.6 km/h Distance 72.24 km</desc>
<time>2012-09-18T16:44:09.24</time>
<name>3780</name>
<sym>Dot</sym>
</trkpt>
<trkpt lat="47.696038" lon="15.481465">
<ele>866.5</ele>
<desc>Speed 90.5 km/h Distance 72.27 km</desc>
<time>2012-09-18T16:44:10.24</time>
<name>3781</name>
<sym>Dot</sym>
</trkpt>
<trkpt lat="47.696263" lon="15.481375">
<ele>865.5</ele>
<desc>Speed 91.9 km/h Distance 72.30 km</desc>
<time>2012-09-18T16:44:11.22</time>
<name>3782</name>
<sym>Dot</sym>
</trkpt>
<trkpt lat="47.696492" lon="15.481267">
<ele>864.5</ele>
<desc>Speed 94.4 km/h Distance 72.32 km</desc>
<time>2012-09-18T16:44:12.22</time>
<name>3783</name>
<sym>Dot</sym>
</trkpt>
<trkpt lat="47.696708" lon="15.481160">
<ele>864.0</ele>
<desc>Speed 91.0 km/h Distance 72.35 km</desc>
<time>2012-09-18T16:44:13.22</time>
<name>3784</name>
<sym>Dot</sym>
</trkpt>
<trkpt lat="47.696915" lon="15.481058">
<ele>863.5</ele>
<desc>Speed 86.4 km/h Distance 72.37 km</desc>
<time>2012-09-18T16:44:14.21</time>
<name>3785</name>
<sym>Dot</sym>
</trkpt>
<trkpt lat="47.697115" lon="15.480973">
<ele>861.5</ele>
<desc>Speed 82.4 km/h Distance 72.40 km</desc>
<time>2012-09-18T16:44:15.22</time>
<name>3786</name>
<sym>Dot</sym>
</trkpt>
<trkpt lat="47.697323" lon="15.480937">
<ele>862.5</ele>
<desc>Speed 84.1 km/h Distance 72.42 km</desc>
<time>2012-09-18T16:44:16.22</time>
<name>3787</name>
<sym>Dot</sym>
</trkpt>
<trkpt lat="47.697550" lon="15.480925">
<ele>862.0</ele>
<desc>Speed 90.1 km/h Distance 72.44 km</desc>
<time>2012-09-18T16:44:17.22</time>
<name>3788</name>
<sym>Dot</sym>
</trkpt>
<trkpt lat="47.697783" lon="15.480928">
<ele>861.5</ele>
<desc>Speed 93.0 km/h Distance 72.47 km</desc>
<time>2012-09-18T16:44:18.21</time>
<name>3789</name>
<sym>Dot</sym>
</trkpt>
<trkpt lat="47.698023" lon="15.480925">
<ele>860.5</ele>
<desc>Speed 94.9 km/h Distance 72.50 km</desc>
<time>2012-09-18T16:44:19.21</time>
<name>3790</name>
<sym>Dot</sym>
</trkpt>
<trkpt lat="47.698262" lon="15.480900">
<ele>860.5</ele>
<desc>Speed 94.9 km/h Distance 72.52 km</desc>
<time>2012-09-18T16:44:20.20</time>
<name>3791</name>
<sym>Dot</sym>
</trkpt>
<trkpt lat="47.698493" lon="15.480827">
<ele>861.5</ele>
<desc>Speed 94.3 km/h Distance 72.55 km</desc>
<time>2012-09-18T16:44:21.20</time>
<name>3792</name>
<sym>Dot</sym>
</trkpt>
<trkpt lat="47.698728" lon="15.480715">
<ele>862.5</ele>
<desc>Speed 98.4 km/h Distance 72.58 km</desc>
<time>2012-09-18T16:44:22.19</time>
<name>3793</name>
<sym>Dot</sym>
</trkpt>
<trkpt lat="47.699223" lon="15.480430">
<ele>861.0</ele>
<desc>Speed 106 km/h Distance 72.64 km</desc>
<time>2012-09-18T16:44:24.18</time>
<name>3794</name>
<sym>Dot</sym>
</trkpt>
<trkpt lat="47.699472" lon="15.480260">
<ele>860.5</ele>
<desc>Speed 109 km/h Distance 72.67 km</desc>
<time>2012-09-18T16:44:25.19</time>
<name>3795</name>
<sym>Dot</sym>
</trkpt>
<trkpt lat="47.699725" lon="15.480087">
<ele>860.0</ele>
<desc>Speed 111 km/h Distance 72.70 km</desc>
<time>2012-09-18T16:44:26.18</time>
<name>3796</name>
<sym>Dot</sym>
</trkpt>
<trkpt lat="47.699980" lon="15.479913">
<ele>860.5</ele>
<desc>Speed 112 km/h Distance 72.73 km</desc>
<time>2012-09-18T16:44:27.17</time>
<name>3797</name>
<sym>Dot</sym>
</trkpt>
<trkpt lat="47.700235" lon="15.479747">
<ele>860.5</ele>
<desc>Speed 111 km/h Distance 72.76 km</desc>
<time>2012-09-18T16:44:28.17</time>
<name>3798</name>
<sym>Dot</sym>
</trkpt>
<trkpt lat="47.700490" lon="15.479588">
<ele>860.5</ele>
<desc>Speed 111 km/h Distance 72.79 km</desc>
<time>2012-09-18T16:44:29.16</time>
<name>3799</name>
<sym>Dot</sym>
</trkpt>
<trkpt lat="47.700738" lon="15.479442">
<ele>860.5</ele>
<desc>Speed 107 km/h Distance 72.82 km</desc>
<time>2012-09-18T16:44:30.16</time>
<name>3800</name>
<sym>Dot</sym>
</trkpt>
<trkpt lat="47.700980" lon="15.479312">
<ele>860.5</ele>
<desc>Speed 103 km/h Distance 72.85 km</desc>
<time>2012-09-18T16:44:31.15</time>
<name>3801</name>
<sym>Dot</sym>
</trkpt>
<trkpt lat="47.701225" lon="15.479187">
<ele>860.5</ele>
<desc>Speed 103 km/h Distance 72.88 km</desc>
<time>2012-09-18T16:44:32.16</time>
<name>3802</name>
<sym>Dot</sym>
</trkpt>
<trkpt lat="47.701470" lon="15.479070">
<ele>860.5</ele>
<desc>Speed 103 km/h Distance 72.91 km</desc>
<time>2012-09-18T16:44:33.15</time>
<name>3803</name>
<sym>Dot</sym>
</trkpt>
<trkpt lat="47.701718" lon="15.478962">
<ele>860.0</ele>
<desc>Speed 104 km/h Distance 72.94 km</desc>
<time>2012-09-18T16:44:34.15</time>
<name>3804</name>
<sym>Dot</sym>
</trkpt>
<trkpt lat="47.701968" lon="15.478858">
<ele>860.0</ele>
<desc>Speed 104 km/h Distance 72.96 km</desc>
<time>2012-09-18T16:44:35.14</time>
<name>3805</name>
<sym>Dot</sym>
</trkpt>
<trkpt lat="47.702218" lon="15.478760">
<ele>860.0</ele>
<desc>Speed 104 km/h Distance 72.99 km</desc>
<time>2012-09-18T16:44:36.13</time>
<name>3806</name>
<sym>Dot</sym>
</trkpt>
<trkpt lat="47.702470" lon="15.478662">
<ele>860.5</ele>
<desc>Speed 104 km/h Distance 73.02 km</desc>
<time>2012-09-18T16:44:37.13</time>
<name>3807</name>
<sym>Dot</sym>
</trkpt>
<trkpt lat="47.702722" lon="15.478563">
<ele>861.0</ele>
<desc>Speed 104 km/h Distance 73.05 km</desc>
<time>2012-09-18T16:44:38.12</time>
<name>3808</name>
<sym>Dot</sym>
</trkpt>
<trkpt lat="47.702975" lon="15.478467">
<ele>861.0</ele>
<desc>Speed 104 km/h Distance 73.08 km</desc>
<time>2012-09-18T16:44:39.11</time>
<name>3809</name>
<sym>Dot</sym>
</trkpt>
<trkpt lat="47.703225" lon="15.478370">
<ele>861.0</ele>
<desc>Speed 104 km/h Distance 73.11 km</desc>
<time>2012-09-18T16:44:40.11</time>
<name>3810</name>
<sym>Dot</sym>
</trkpt>
<trkpt lat="47.703473" lon="15.478273">
<ele>861.5</ele>
<desc>Speed 103 km/h Distance 73.14 km</desc>
<time>2012-09-18T16:44:41.10</time>
<name>3811</name>
<sym>Dot</sym>
</trkpt>
<trkpt lat="47.703723" lon="15.478177">
<ele>862.0</ele>
<desc>Speed 103 km/h Distance 73.17 km</desc>
<time>2012-09-18T16:44:42.10</time>
<name>3812</name>
<sym>Dot</sym>
</trkpt>
<trkpt lat="47.703975" lon="15.478080">
<ele>862.0</ele>
<desc>Speed 104 km/h Distance 73.20 km</desc>
<time>2012-09-18T16:44:43.09</time>
<name>3813</name>
<sym>Dot</sym>
</trkpt>
<trkpt lat="47.704228" lon="15.477982">
<ele>862.5</ele>
<desc>Speed 104 km/h Distance 73.22 km</desc>
<time>2012-09-18T16:44:44.09</time>
<name>3814</name>
<sym>Dot</sym>
</trkpt>
<trkpt lat="47.704480" lon="15.477880">
<ele>862.5</ele>
<desc>Speed 104 km/h Distance 73.25 km</desc>
<time>2012-09-18T16:44:45.08</time>
<name>3815</name>
<sym>Dot</sym>
</trkpt>
<trkpt lat="47.704730" lon="15.477767">
<ele>863.5</ele>
<desc>Speed 104 km/h Distance 73.28 km</desc>
<time>2012-09-18T16:44:46.08</time>
<name>3816</name>
<sym>Dot</sym>
</trkpt>
<trkpt lat="47.704965" lon="15.477622">
<ele>863.0</ele>
<desc>Speed 102 km/h Distance 73.31 km</desc>
<time>2012-09-18T16:44:47.06</time>
<name>3817</name>
<sym>Dot</sym>
</trkpt>
<trkpt lat="47.705197" lon="15.477447">
<ele>863.5</ele>
<desc>Speed 105 km/h Distance 73.34 km</desc>
<time>2012-09-18T16:44:48.07</time>
<name>3818</name>
<sym>Dot</sym>
</trkpt>
<trkpt lat="47.705417" lon="15.477245">
<ele>863.0</ele>
<desc>Speed 104 km/h Distance 73.37 km</desc>
<time>2012-09-18T16:44:49.08</time>
<name>3819</name>
<sym>Dot</sym>
</trkpt>
<trkpt lat="47.705638" lon="15.477038">
<ele>862.5</ele>
<desc>Speed 105 km/h Distance 73.40 km</desc>
<time>2012-09-18T16:44:50.06</time>
<name>3820</name>
<sym>Dot</sym>
</trkpt>
<trkpt lat="47.705857" lon="15.476823">
<ele>863.0</ele>
<desc>Speed 105 km/h Distance 73.43 km</desc>
<time>2012-09-18T16:44:51.05</time>
<name>3821</name>
<sym>Dot</sym>
</trkpt>
<trkpt lat="47.706077" lon="15.476612">
<ele>863.5</ele>
<desc>Speed 105 km/h Distance 73.46 km</desc>
<time>2012-09-18T16:44:52.04</time>
<name>3822</name>
<sym>Dot</sym>
</trkpt>
<trkpt lat="47.706302" lon="15.476412">
<ele>864.0</ele>
<desc>Speed 105 km/h Distance 73.49 km</desc>
<time>2012-09-18T16:44:53.04</time>
<name>3823</name>
<sym>Dot</sym>
</trkpt>
<trkpt lat="47.706533" lon="15.476227">
<ele>864.0</ele>
<desc>Speed 105 km/h Distance 73.51 km</desc>
<time>2012-09-18T16:44:54.04</time>
<name>3824</name>
<sym>Dot</sym>
</trkpt>
<trkpt lat="47.706770" lon="15.476058">
<ele>864.0</ele>
<desc>Speed 105 km/h Distance 73.54 km</desc>
<time>2012-09-18T16:44:55.03</time>
<name>3825</name>
<sym>Dot</sym>
</trkpt>
<trkpt lat="47.707015" lon="15.475907">
<ele>864.5</ele>
<desc>Speed 106 km/h Distance 73.57 km</desc>
<time>2012-09-18T16:44:56.07</time>
<name>3826</name>
<sym>Dot</sym>
</trkpt>
<trkpt lat="47.707263" lon="15.475772">
<ele>864.5</ele>
<desc>Speed 106 km/h Distance 73.60 km</desc>
<time>2012-09-18T16:44:57.03</time>
<name>3827</name>
<sym>Dot</sym>
</trkpt>
<trkpt lat="47.707513" lon="15.475652">
<ele>865.5</ele>
<desc>Speed 105 km/h Distance 73.63 km</desc>
<time>2012-09-18T16:44:58.01</time>
<name>3828</name>
<sym>Dot</sym>
</trkpt>
<trkpt lat="47.707767" lon="15.475555">
<ele>865.5</ele>
<desc>Speed 105 km/h Distance 73.66 km</desc>
<time>2012-09-18T16:44:59.01</time>
<name>3829</name>
<sym>Dot</sym>
</trkpt>
<trkpt lat="47.708023" lon="15.475475">
<ele>865.5</ele>
<desc>Speed 105 km/h Distance 73.69 km</desc>
<time>2012-09-18T16:45:00.00</time>
<name>3830</name>
<sym>Dot</sym>
</trkpt>
<trkpt lat="47.708280" lon="15.475412">
<ele>866.0</ele>
<desc>Speed 104 km/h Distance 73.72 km</desc>
<time>2012-09-18T16:45:01.00</time>
<name>3831</name>
<sym>Dot</sym>
</trkpt>
<trkpt lat="47.708538" lon="15.475370">
<ele>866.0</ele>
<desc>Speed 103 km/h Distance 73.75 km</desc>
<time>2012-09-18T16:45:02.00</time>
<name>3832</name>
<sym>Dot</sym>
</trkpt>
<trkpt lat="47.708795" lon="15.475347">
<ele>866.0</ele>
<desc>Speed 103 km/h Distance 73.78 km</desc>
<time>2012-09-18T16:45:03.00</time>
<name>3833</name>
<sym>Dot</sym>
</trkpt>
<trkpt lat="47.709050" lon="15.475342">
<ele>866.0</ele>
<desc>Speed 102 km/h Distance 73.81 km</desc>
<time>2012-09-18T16:45:04.00</time>
<name>3834</name>
<sym>Dot</sym>
</trkpt>
<trkpt lat="47.709305" lon="15.475352">
<ele>866.0</ele>
<desc>Speed 102 km/h Distance 73.83 km</desc>
<time>2012-09-18T16:45:05.00</time>
<name>3835</name>
<sym>Dot</sym>
</trkpt>
<trkpt lat="47.709562" lon="15.475377">
<ele>865.5</ele>
<desc>Speed 102 km/h Distance 73.86 km</desc>
<time>2012-09-18T16:45:06.01</time>
<name>3836</name>
<sym>Dot</sym>
</trkpt>
<trkpt lat="47.709813" lon="15.475422">
<ele>865.5</ele>
<desc>Speed 101 km/h Distance 73.89 km</desc>
<time>2012-09-18T16:45:06.99</time>
<name>3837</name>
<sym>Dot</sym>
</trkpt>
<trkpt lat="47.710062" lon="15.475483">
<ele>866.0</ele>
<desc>Speed 100 km/h Distance 73.92 km</desc>
<time>2012-09-18T16:45:07.98</time>
<name>3838</name>
<sym>Dot</sym>
</trkpt>
<trkpt lat="47.710308" lon="15.475565">
<ele>865.5</ele>
<desc>Speed 101 km/h Distance 73.95 km</desc>
<time>2012-09-18T16:45:08.97</time>
<name>3839</name>
<sym>Dot</sym>
</trkpt>
<trkpt lat="47.710553" lon="15.475665">
<ele>865.5</ele>
<desc>Speed 102 km/h Distance 73.97 km</desc>
<time>2012-09-18T16:45:09.98</time>
<name>3840</name>
<sym>Dot</sym>
</trkpt>
<trkpt lat="47.710797" lon="15.475780">
<ele>865.5</ele>
<desc>Speed 102 km/h Distance 74.00 km</desc>
<time>2012-09-18T16:45:10.96</time>
<name>3841</name>
<sym>Dot</sym>
</trkpt>
<trkpt lat="47.711037" lon="15.475908">
<ele>865.5</ele>
<desc>Speed 102 km/h Distance 74.03 km</desc>
<time>2012-09-18T16:45:11.96</time>
<name>3842</name>
<sym>Dot</sym>
</trkpt>
<trkpt lat="47.711277" lon="15.476050">
<ele>865.5</ele>
<desc>Speed 103 km/h Distance 74.06 km</desc>
<time>2012-09-18T16:45:12.96</time>
<name>3843</name>
<sym>Dot</sym>
</trkpt>
<trkpt lat="47.711515" lon="15.476198">
<ele>866.0</ele>
<desc>Speed 104 km/h Distance 74.09 km</desc>
<time>2012-09-18T16:45:13.95</time>
<name>3844</name>
<sym>Dot</sym>
</trkpt>
<trkpt lat="47.711755" lon="15.476350">
<ele>866.0</ele>
<desc>Speed 104 km/h Distance 74.12 km</desc>
<time>2012-09-18T16:45:14.95</time>
<name>3845</name>
<sym>Dot</sym>
</trkpt>
<trkpt lat="47.711993" lon="15.476503">
<ele>866.5</ele>
<desc>Speed 104 km/h Distance 74.15 km</desc>
<time>2012-09-18T16:45:15.94</time>
<name>3846</name>
<sym>Dot</sym>
</trkpt>
<trkpt lat="47.712235" lon="15.476658">
<ele>867.0</ele>
<desc>Speed 105 km/h Distance 74.18 km</desc>
<time>2012-09-18T16:45:16.94</time>
<name>3847</name>
<sym>Dot</sym>
</trkpt>
<trkpt lat="47.712475" lon="15.476815">
<ele>867.0</ele>
<desc>Speed 105 km/h Distance 74.21 km</desc>
<time>2012-09-18T16:45:17.93</time>
<name>3848</name>
<sym>Dot</sym>
</trkpt>
<trkpt lat="47.712717" lon="15.476970">
<ele>867.5</ele>
<desc>Speed 105 km/h Distance 74.23 km</desc>
<time>2012-09-18T16:45:18.93</time>
<name>3849</name>
<sym>Dot</sym>
</trkpt>
<trkpt lat="47.712957" lon="15.477125">
<ele>868.0</ele>
<desc>Speed 105 km/h Distance 74.26 km</desc>
<time>2012-09-18T16:45:19.93</time>
<name>3850</name>
<sym>Dot</sym>
</trkpt>
<trkpt lat="47.713193" lon="15.477278">
<ele>868.5</ele>
<desc>Speed 103 km/h Distance 74.29 km</desc>
<time>2012-09-18T16:45:20.92</time>
<name>3851</name>
<sym>Dot</sym>
</trkpt>
<trkpt lat="47.713422" lon="15.477420">
<ele>869.0</ele>
<desc>Speed 99.0 km/h Distance 74.32 km</desc>
<time>2012-09-18T16:45:21.91</time>
<name>3852</name>
<sym>Dot</sym>
</trkpt>
<trkpt lat="47.713642" lon="15.477548">
<ele>869.5</ele>
<desc>Speed 94.3 km/h Distance 74.35 km</desc>
<time>2012-09-18T16:45:22.92</time>
<name>3853</name>
<sym>Dot</sym>
</trkpt>
<trkpt lat="47.713865" lon="15.477655">
<ele>870.5</ele>
<desc>Speed 93.8 km/h Distance 74.37 km</desc>
<time>2012-09-18T16:45:23.91</time>
<name>3854</name>
<sym>Dot</sym>
</trkpt>
<trkpt lat="47.714095" lon="15.477732">
<ele>871.0</ele>
<desc>Speed 93.6 km/h Distance 74.40 km</desc>
<time>2012-09-18T16:45:24.90</time>
<name>3855</name>
<sym>Dot</sym>
</trkpt>
<trkpt lat="47.714332" lon="15.477777">
<ele>870.0</ele>
<desc>Speed 95.7 km/h Distance 74.43 km</desc>
<time>2012-09-18T16:45:25.90</time>
<name>3856</name>
<sym>Dot</sym>
</trkpt>
<trkpt lat="47.714577" lon="15.477788">
<ele>869.5</ele>
<desc>Speed 97.9 km/h Distance 74.45 km</desc>
<time>2012-09-18T16:45:26.89</time>
<name>3857</name>
<sym>Dot</sym>
</trkpt>
<trkpt lat="47.714827" lon="15.477768">
<ele>869.0</ele>
<desc>Speed 99.8 km/h Distance 74.48 km</desc>
<time>2012-09-18T16:45:27.89</time>
<name>3858</name>
<sym>Dot</sym>
</trkpt>
<trkpt lat="47.715075" lon="15.477710">
<ele>869.0</ele>
<desc>Speed 100 km/h Distance 74.51 km</desc>
<time>2012-09-18T16:45:28.89</time>
<name>3859</name>
<sym>Dot</sym>
</trkpt>
<trkpt lat="47.715315" lon="15.477627">
<ele>869.5</ele>
<desc>Speed 97.8 km/h Distance 74.54 km</desc>
<time>2012-09-18T16:45:29.89</time>
<name>3860</name>
<sym>Dot</sym>
</trkpt>
<trkpt lat="47.715547" lon="15.477513">
<ele>870.5</ele>
<desc>Speed 97.6 km/h Distance 74.56 km</desc>
<time>2012-09-18T16:45:30.89</time>
<name>3861</name>
<sym>Dot</sym>
</trkpt>
<trkpt lat="47.715765" lon="15.477408">
<ele>870.5</ele>
<desc>Speed 91.9 km/h Distance 74.59 km</desc>
<time>2012-09-18T16:45:31.88</time>
<name>3862</name>
<sym>Dot</sym>
</trkpt>
<trkpt lat="47.715982" lon="15.477313">
<ele>871.5</ele>
<desc>Speed 90.4 km/h Distance 74.61 km</desc>
<time>2012-09-18T16:45:32.87</time>
<name>3863</name>
<sym>Dot</sym>
</trkpt>
<trkpt lat="47.716205" lon="15.477257">
<ele>873.5</ele>
<desc>Speed 90.8 km/h Distance 74.64 km</desc>
<time>2012-09-18T16:45:33.88</time>
<name>3864</name>
<sym>Dot</sym>
</trkpt>
<trkpt lat="47.716438" lon="15.477208">
<ele>872.0</ele>
<desc>Speed 94.3 km/h Distance 74.67 km</desc>
<time>2012-09-18T16:45:34.86</time>
<name>3865</name>
<sym>Dot</sym>
</trkpt>
<trkpt lat="47.716685" lon="15.477198">
<ele>872.0</ele>
<desc>Speed 98.7 km/h Distance 74.69 km</desc>
<time>2012-09-18T16:45:35.87</time>
<name>3866</name>
<sym>Dot</sym>
</trkpt>
<trkpt lat="47.716940" lon="15.477195">
<ele>871.5</ele>
<desc>Speed 102 km/h Distance 74.72 km</desc>
<time>2012-09-18T16:45:36.85</time>
<name>3867</name>
<sym>Dot</sym>
</trkpt>
<trkpt lat="47.717198" lon="15.477210">
<ele>872.0</ele>
<desc>Speed 104 km/h Distance 74.75 km</desc>
<time>2012-09-18T16:45:37.85</time>
<name>3868</name>
<sym>Dot</sym>
</trkpt>
<trkpt lat="47.717455" lon="15.477235">
<ele>872.5</ele>
<desc>Speed 102 km/h Distance 74.78 km</desc>
<time>2012-09-18T16:45:38.83</time>
<name>3869</name>
<sym>Dot</sym>
</trkpt>
<trkpt lat="47.717695" lon="15.477273">
<ele>873.0</ele>
<desc>Speed 96.7 km/h Distance 74.81 km</desc>
<time>2012-09-18T16:45:39.83</time>
<name>3870</name>
<sym>Dot</sym>
</trkpt>
<trkpt lat="47.717930" lon="15.477322">
<ele>873.5</ele>
<desc>Speed 94.4 km/h Distance 74.83 km</desc>
<time>2012-09-18T16:45:40.82</time>
<name>3871</name>
<sym>Dot</sym>
</trkpt>
<trkpt lat="47.718157" lon="15.477383">
<ele>874.0</ele>
<desc>Speed 92.2 km/h Distance 74.86 km</desc>
<time>2012-09-18T16:45:41.83</time>
<name>3872</name>
<sym>Dot</sym>
</trkpt>
<trkpt lat="47.718380" lon="15.477472">
<ele>875.0</ele>
<desc>Speed 92.5 km/h Distance 74.88 km</desc>
<time>2012-09-18T16:45:42.82</time>
<name>3873</name>
<sym>Dot</sym>
</trkpt>
<trkpt lat="47.718857" lon="15.477758">
<ele>873.5</ele>
<desc>Speed 103 km/h Distance 74.94 km</desc>
<time>2012-09-18T16:45:44.83</time>
<name>3874</name>
<sym>Dot</sym>
</trkpt>
<trkpt lat="47.719085" lon="15.477930">
<ele>873.5</ele>
<desc>Speed 102 km/h Distance 74.97 km</desc>
<time>2012-09-18T16:45:45.83</time>
<name>3875</name>
<sym>Dot</sym>
</trkpt>
<trkpt lat="47.719302" lon="15.478125">
<ele>874.0</ele>
<desc>Speed 101 km/h Distance 75.00 km</desc>
<time>2012-09-18T16:45:46.82</time>
<name>3876</name>
<sym>Dot</sym>
</trkpt>
<trkpt lat="47.719507" lon="15.478347">
<ele>875.0</ele>
<desc>Speed 101 km/h Distance 75.03 km</desc>
<time>2012-09-18T16:45:47.81</time>
<name>3877</name>
<sym>Dot</sym>
</trkpt>
<trkpt lat="47.719700" lon="15.478590">
<ele>875.5</ele>
<desc>Speed 101 km/h Distance 75.05 km</desc>
<time>2012-09-18T16:45:48.80</time>
<name>3878</name>
<sym>Dot</sym>
</trkpt>
<trkpt lat="47.719883" lon="15.478855">
<ele>875.5</ele>
<desc>Speed 102 km/h Distance 75.08 km</desc>
<time>2012-09-18T16:45:49.80</time>
<name>3879</name>
<sym>Dot</sym>
</trkpt>
<trkpt lat="47.720060" lon="15.479140">
<ele>876.5</ele>
<desc>Speed 104 km/h Distance 75.11 km</desc>
<time>2012-09-18T16:45:50.79</time>
<name>3880</name>
<sym>Dot</sym>
</trkpt>
<trkpt lat="47.720230" lon="15.479438">
<ele>877.0</ele>
<desc>Speed 105 km/h Distance 75.14 km</desc>
<time>2012-09-18T16:45:51.79</time>
<name>3881</name>
<sym>Dot</sym>
</trkpt>
<trkpt lat="47.720400" lon="15.479747">
<ele>877.5</ele>
<desc>Speed 106 km/h Distance 75.17 km</desc>
<time>2012-09-18T16:45:52.78</time>
<name>3882</name>
<sym>Dot</sym>
</trkpt>
<trkpt lat="47.720560" lon="15.480047">
<ele>878.0</ele>
<desc>Speed 102 km/h Distance 75.20 km</desc>
<time>2012-09-18T16:45:53.78</time>
<name>3883</name>
<sym>Dot</sym>
</trkpt>
<trkpt lat="47.720707" lon="15.480337">
<ele>879.0</ele>
<desc>Speed 97.1 km/h Distance 75.23 km</desc>
<time>2012-09-18T16:45:54.78</time>
<name>3884</name>
<sym>Dot</sym>
</trkpt>
<trkpt lat="47.720842" lon="15.480613">
<ele>879.5</ele>
<desc>Speed 91.6 km/h Distance 75.25 km</desc>
<time>2012-09-18T16:45:55.77</time>
<name>3885</name>
<sym>Dot</sym>
</trkpt>
<trkpt lat="47.720967" lon="15.480877">
<ele>880.0</ele>
<desc>Speed 86.2 km/h Distance 75.28 km</desc>
<time>2012-09-18T16:45:56.75</time>
<name>3886</name>
<sym>Dot</sym>
</trkpt>
<trkpt lat="47.721082" lon="15.481125">
<ele>880.0</ele>
<desc>Speed 81.1 km/h Distance 75.30 km</desc>
<time>2012-09-18T16:45:57.74</time>
<name>3887</name>
<sym>Dot</sym>
</trkpt>
<trkpt lat="47.721173" lon="15.481380">
<ele>879.0</ele>
<desc>Speed 77.5 km/h Distance 75.32 km</desc>
<time>2012-09-18T16:45:58.74</time>
<name>3888</name>
<sym>Dot</sym>
</trkpt>
<trkpt lat="47.721235" lon="15.481665">
<ele>880.0</ele>
<desc>Speed 80.5 km/h Distance 75.34 km</desc>
<time>2012-09-18T16:45:59.74</time>
<name>3889</name>
<sym>Dot</sym>
</trkpt>
<trkpt lat="47.721272" lon="15.481975">
<ele>880.5</ele>
<desc>Speed 84.8 km/h Distance 75.37 km</desc>
<time>2012-09-18T16:46:00.75</time>
<name>3890</name>
<sym>Dot</sym>
</trkpt>
<trkpt lat="47.721288" lon="15.482277">
<ele>880.5</ele>
<desc>Speed 81.3 km/h Distance 75.39 km</desc>
<time>2012-09-18T16:46:01.74</time>
<name>3891</name>
<sym>Dot</sym>
</trkpt>
<trkpt lat="47.721277" lon="15.482558">
<ele>882.0</ele>
<desc>Speed 76.3 km/h Distance 75.41 km</desc>
<time>2012-09-18T16:46:02.73</time>
<name>3892</name>
<sym>Dot</sym>
</trkpt>
<trkpt lat="47.721257" lon="15.482828">
<ele>883.0</ele>
<desc>Speed 73.6 km/h Distance 75.43 km</desc>
<time>2012-09-18T16:46:03.71</time>
<name>3893</name>
<sym>Dot</sym>
</trkpt>
<trkpt lat="47.721245" lon="15.483078">
<ele>883.5</ele>
<desc>Speed 67.7 km/h Distance 75.45 km</desc>
<time>2012-09-18T16:46:04.71</time>
<name>3894</name>
<sym>Dot</sym>
</trkpt>
<trkpt lat="47.721303" lon="15.483508">
<ele>883.0</ele>
<desc>Speed 62.8 km/h Distance 75.48 km</desc>
<time>2012-09-18T16:46:06.71</time>
<name>3895</name>
<sym>Dot</sym>
</trkpt>
<trkpt lat="47.721472" lon="15.483768">
<ele>883.0</ele>
<desc>Speed 54.8 km/h Distance 75.51 km</desc>
<time>2012-09-18T16:46:08.71</time>
<name>3896</name>
<sym>Dot</sym>
</trkpt>
<trkpt lat="47.721602" lon="15.483815">
<ele>882.5</ele>
<desc>Speed 52.7 km/h Distance 75.52 km</desc>
<time>2012-09-18T16:46:09.70</time>
<name>3897</name>
<sym>Dot</sym>
</trkpt>
<trkpt lat="47.722120" lon="15.483708">
<ele>882.5</ele>
<desc>Speed 72.1 km/h Distance 75.58 km</desc>
<time>2012-09-18T16:46:13.91</time>
<name>3898</name>
<sym>Dot</sym>
</trkpt>
<trkpt lat="47.722517" lon="15.483802">
<ele>881.5</ele>
<desc>Speed 80.0 km/h Distance 75.63 km</desc>
<time>2012-09-18T16:46:15.91</time>
<name>3899</name>
<sym>Dot</sym>
</trkpt>
<trkpt lat="47.722717" lon="15.483905">
<ele>881.5</ele>
<desc>Speed 84.3 km/h Distance 75.65 km</desc>
<time>2012-09-18T16:46:16.89</time>
<name>3900</name>
<sym>Dot</sym>
</trkpt>
<trkpt lat="47.722922" lon="15.484020">
<ele>882.0</ele>
<desc>Speed 86.9 km/h Distance 75.67 km</desc>
<time>2012-09-18T16:46:17.89</time>
<name>3901</name>
<sym>Dot</sym>
</trkpt>
<trkpt lat="47.723132" lon="15.484133">
<ele>882.0</ele>
<desc>Speed 88.9 km/h Distance 75.70 km</desc>
<time>2012-09-18T16:46:18.90</time>
<name>3902</name>
<sym>Dot</sym>
</trkpt>
<trkpt lat="47.723352" lon="15.484238">
<ele>882.0</ele>
<desc>Speed 91.9 km/h Distance 75.73 km</desc>
<time>2012-09-18T16:46:19.89</time>
<name>3903</name>
<sym>Dot</sym>
</trkpt>
<trkpt lat="47.723580" lon="15.484338">
<ele>882.0</ele>
<desc>Speed 94.6 km/h Distance 75.75 km</desc>
<time>2012-09-18T16:46:20.89</time>
<name>3904</name>
<sym>Dot</sym>
</trkpt>
<trkpt lat="47.723815" lon="15.484438">
<ele>881.0</ele>
<desc>Speed 97.6 km/h Distance 75.78 km</desc>
<time>2012-09-18T16:46:21.89</time>
<name>3905</name>
<sym>Dot</sym>
</trkpt>
<trkpt lat="47.724042" lon="15.484515">
<ele>881.0</ele>
<desc>Speed 92.5 km/h Distance 75.80 km</desc>
<time>2012-09-18T16:46:22.89</time>
<name>3906</name>
<sym>Dot</sym>
</trkpt>
<trkpt lat="47.724460" lon="15.484587">
<ele>881.5</ele>
<desc>Speed 83.7 km/h Distance 75.85 km</desc>
<time>2012-09-18T16:46:24.88</time>
<name>3907</name>
<sym>Dot</sym>
</trkpt>
<trkpt lat="47.724653" lon="15.484580">
<ele>883.5</ele>
<desc>Speed 77.2 km/h Distance 75.87 km</desc>
<time>2012-09-18T16:46:25.87</time>
<name>3908</name>
<sym>Dot</sym>
</trkpt>
<trkpt lat="47.724845" lon="15.484517">
<ele>885.5</ele>
<desc>Speed 78.5 km/h Distance 75.90 km</desc>
<time>2012-09-18T16:46:26.87</time>
<name>3909</name>
<sym>Dot</sym>
</trkpt>
<trkpt lat="47.725038" lon="15.484420">
<ele>886.0</ele>
<desc>Speed 81.4 km/h Distance 75.92 km</desc>
<time>2012-09-18T16:46:27.86</time>
<name>3910</name>
<sym>Dot</sym>
</trkpt>
<trkpt lat="47.725233" lon="15.484283">
<ele>886.0</ele>
<desc>Speed 86.5 km/h Distance 75.94 km</desc>
<time>2012-09-18T16:46:28.86</time>
<name>3911</name>
<sym>Dot</sym>
</trkpt>
<trkpt lat="47.725448" lon="15.484155">
<ele>886.0</ele>
<desc>Speed 92.2 km/h Distance 75.97 km</desc>
<time>2012-09-18T16:46:29.86</time>
<name>3912</name>
<sym>Dot</sym>
</trkpt>
<trkpt lat="47.725660" lon="15.484032">
<ele>886.0</ele>
<desc>Speed 91.3 km/h Distance 75.99 km</desc>
<time>2012-09-18T16:46:30.86</time>
<name>3913</name>
<sym>Dot</sym>
</trkpt>
<trkpt lat="47.725878" lon="15.483898">
<ele>886.0</ele>
<desc>Speed 94.2 km/h Distance 76.02 km</desc>
<time>2012-09-18T16:46:31.85</time>
<name>3914</name>
<sym>Dot</sym>
</trkpt>
<trkpt lat="47.726460" lon="15.483663">
<ele>885.5</ele>
<desc>Speed 78.8 km/h Distance 76.09 km</desc>
<time>2012-09-18T16:46:34.92</time>
<name>3915</name>
<sym>Dot</sym>
</trkpt>
<trkpt lat="47.726648" lon="15.483637">
<ele>885.5</ele>
<desc>Speed 75.6 km/h Distance 76.11 km</desc>
<time>2012-09-18T16:46:35.91</time>
<name>3916</name>
<sym>Dot</sym>
</trkpt>
<trkpt lat="47.726830" lon="15.483637">
<ele>885.5</ele>
<desc>Speed 72.3 km/h Distance 76.13 km</desc>
<time>2012-09-18T16:46:36.91</time>
<name>3917</name>
<sym>Dot</sym>
</trkpt>
<trkpt lat="47.727002" lon="15.483667">
<ele>886.0</ele>
<desc>Speed 69.1 km/h Distance 76.15 km</desc>
<time>2012-09-18T16:46:37.91</time>
<name>3918</name>
<sym>Dot</sym>
</trkpt>
<trkpt lat="47.727283" lon="15.483808">
<ele>887.0</ele>
<desc>Speed 59.9 km/h Distance 76.18 km</desc>
<time>2012-09-18T16:46:39.91</time>
<name>3919</name>
<sym>Dot</sym>
</trkpt>
<trkpt lat="47.727422" lon="15.483912">
<ele>887.0</ele>
<desc>Speed 60.8 km/h Distance 76.20 km</desc>
<time>2012-09-18T16:46:40.91</time>
<name>3920</name>
<sym>Dot</sym>
</trkpt>
<trkpt lat="47.727533" lon="15.484082">
<ele>889.0</ele>
<desc>Speed 63.4 km/h Distance 76.21 km</desc>
<time>2012-09-18T16:46:41.91</time>
<name>3921</name>
<sym>Dot</sym>
</trkpt>
<trkpt lat="47.727642" lon="15.484250">
<ele>889.0</ele>
<desc>Speed 62.3 km/h Distance 76.23 km</desc>
<time>2012-09-18T16:46:42.89</time>
<name>3922</name>
<sym>Dot</sym>
</trkpt>
<trkpt lat="47.727735" lon="15.484433">
<ele>889.0</ele>
<desc>Speed 62.3 km/h Distance 76.25 km</desc>
<time>2012-09-18T16:46:43.89</time>
<name>3923</name>
<sym>Dot</sym>
</trkpt>
<trkpt lat="47.727823" lon="15.484625">
<ele>889.5</ele>
<desc>Speed 62.5 km/h Distance 76.27 km</desc>
<time>2012-09-18T16:46:44.90</time>
<name>3924</name>
<sym>Dot</sym>
</trkpt>
<trkpt lat="47.727908" lon="15.484812">
<ele>889.5</ele>
<desc>Speed 60.8 km/h Distance 76.28 km</desc>
<time>2012-09-18T16:46:45.89</time>
<name>3925</name>
<sym>Dot</sym>
</trkpt>
<trkpt lat="47.728078" lon="15.485180">
<ele>889.5</ele>
<desc>Speed 60.8 km/h Distance 76.32 km</desc>
<time>2012-09-18T16:46:48.91</time>
<name>3926</name>
<sym>Dot</sym>
</trkpt>
<trkpt lat="47.732005" lon="15.487645">
<ele>890.0</ele>
<desc>Speed 60.8 km/h Distance 76.79 km</desc>
<time>2012-09-18T16:47:17.92</time>
<name>3927</name>
<sym>Dot</sym>
</trkpt>
<trkpt lat="47.733833" lon="15.485572">
<ele>892.0</ele>
<desc>Speed 53.2 km/h Distance 77.05 km</desc>
<time>2012-09-18T16:47:23.92</time>
<name>3928</name>
<sym>Dot</sym>
</trkpt>
<trkpt lat="47.733972" lon="15.485558">
<ele>892.0</ele>
<desc>Speed 54.8 km/h Distance 77.06 km</desc>
<time>2012-09-18T16:47:24.90</time>
<name>3929</name>
<sym>Dot</sym>
</trkpt>
<trkpt lat="47.734112" lon="15.485553">
<ele>893.5</ele>
<desc>Speed 55.7 km/h Distance 77.08 km</desc>
<time>2012-09-18T16:47:25.91</time>
<name>3930</name>
<sym>Dot</sym>
</trkpt>
<trkpt lat="47.734248" lon="15.485562">
<ele>893.5</ele>
<desc>Speed 55.9 km/h Distance 77.09 km</desc>
<time>2012-09-18T16:47:26.90</time>
<name>3931</name>
<sym>Dot</sym>
</trkpt>
<trkpt lat="47.734377" lon="15.485577">
<ele>892.0</ele>
<desc>Speed 53.0 km/h Distance 77.11 km</desc>
<time>2012-09-18T16:47:27.90</time>
<name>3932</name>
<sym>Dot</sym>
</trkpt>
<trkpt lat="47.734492" lon="15.485582">
<ele>891.5</ele>
<desc>Speed 47.6 km/h Distance 77.12 km</desc>
<time>2012-09-18T16:47:28.89</time>
<name>3933</name>
<sym>Dot</sym>
</trkpt>
<trkpt lat="47.734595" lon="15.485562">
<ele>892.0</ele>
<desc>Speed 42.6 km/h Distance 77.13 km</desc>
<time>2012-09-18T16:47:29.89</time>
<name>3934</name>
<sym>Dot</sym>
</trkpt>
<trkpt lat="47.734685" lon="15.485537">
<ele>892.0</ele>
<desc>Speed 38.4 km/h Distance 77.14 km</desc>
<time>2012-09-18T16:47:30.88</time>
<name>3935</name>
<sym>Dot</sym>
</trkpt>
<trkpt lat="47.734777" lon="15.485508">
<ele>892.5</ele>
<desc>Speed 39.0 km/h Distance 77.15 km</desc>
<time>2012-09-18T16:47:31.88</time>
<name>3936</name>
<sym>Dot</sym>
</trkpt>
<trkpt lat="47.734868" lon="15.485465">
<ele>890.5</ele>
<desc>Speed 39.5 km/h Distance 77.16 km</desc>
<time>2012-09-18T16:47:32.87</time>
<name>3937</name>
<sym>Dot</sym>
</trkpt>
<trkpt lat="47.734958" lon="15.485435">
<ele>891.0</ele>
<desc>Speed 38.6 km/h Distance 77.17 km</desc>
<time>2012-09-18T16:47:33.87</time>
<name>3938</name>
<sym>Dot</sym>
</trkpt>
<trkpt lat="47.735043" lon="15.485437">
<ele>893.5</ele>
<desc>Speed 36.2 km/h Distance 77.18 km</desc>
<time>2012-09-18T16:47:34.86</time>
<name>3939</name>
<sym>Dot</sym>
</trkpt>
<trkpt lat="47.735137" lon="15.485428">
<ele>895.0</ele>
<desc>Speed 40.1 km/h Distance 77.19 km</desc>
<time>2012-09-18T16:47:35.86</time>
<name>3940</name>
<sym>Dot</sym>
</trkpt>
<trkpt lat="47.735233" lon="15.485428">
<ele>896.5</ele>
<desc>Speed 40.4 km/h Distance 77.21 km</desc>
<time>2012-09-18T16:47:36.85</time>
<name>3941</name>
<sym>Dot</sym>
</trkpt>
<trkpt lat="47.735332" lon="15.485432">
<ele>897.5</ele>
<desc>Speed 41.6 km/h Distance 77.22 km</desc>
<time>2012-09-18T16:47:37.83</time>
<name>3942</name>
<sym>Dot</sym>
</trkpt>
<trkpt lat="47.735438" lon="15.485433">
<ele>899.0</ele>
<desc>Speed 44.6 km/h Distance 77.23 km</desc>
<time>2012-09-18T16:47:38.83</time>
<name>3943</name>
<sym>Dot</sym>
</trkpt>
<trkpt lat="47.735548" lon="15.485435">
<ele>899.5</ele>
<desc>Speed 44.8 km/h Distance 77.24 km</desc>
<time>2012-09-18T16:47:39.83</time>
<name>3944</name>
<sym>Dot</sym>
</trkpt>
<trkpt lat="47.735658" lon="15.485407">
<ele>900.0</ele>
<desc>Speed 45.5 km/h Distance 77.25 km</desc>
<time>2012-09-18T16:47:40.82</time>
<name>3945</name>
<sym>Dot</sym>
</trkpt>
<trkpt lat="47.735762" lon="15.485352">
<ele>900.5</ele>
<desc>Speed 44.0 km/h Distance 77.26 km</desc>
<time>2012-09-18T16:47:41.81</time>
<name>3946</name>
<sym>Dot</sym>
</trkpt>
<trkpt lat="47.735867" lon="15.485298">
<ele>900.5</ele>
<desc>Speed 44.5 km/h Distance 77.28 km</desc>
<time>2012-09-18T16:47:42.81</time>
<name>3947</name>
<sym>Dot</sym>
</trkpt>
<trkpt lat="47.735972" lon="15.485250">
<ele>900.5</ele>
<desc>Speed 44.3 km/h Distance 77.29 km</desc>
<time>2012-09-18T16:47:43.80</time>
<name>3948</name>
<sym>Dot</sym>
</trkpt>
<trkpt lat="47.736077" lon="15.485212">
<ele>901.0</ele>
<desc>Speed 43.2 km/h Distance 77.30 km</desc>
<time>2012-09-18T16:47:44.78</time>
<name>3949</name>
<sym>Dot</sym>
</trkpt>
<trkpt lat="47.736183" lon="15.485185">
<ele>900.0</ele>
<desc>Speed 42.8 km/h Distance 77.31 km</desc>
<time>2012-09-18T16:47:45.77</time>
<name>3950</name>
<sym>Dot</sym>
</trkpt>
<trkpt lat="47.736303" lon="15.485190">
<ele>900.5</ele>
<desc>Speed 47.4 km/h Distance 77.33 km</desc>
<time>2012-09-18T16:47:46.77</time>
<name>3951</name>
<sym>Dot</sym>
</trkpt>
<trkpt lat="47.736428" lon="15.485210">
<ele>900.5</ele>
<desc>Speed 49.6 km/h Distance 77.34 km</desc>
<time>2012-09-18T16:47:47.77</time>
<name>3952</name>
<sym>Dot</sym>
</trkpt>
<trkpt lat="47.736560" lon="15.485253">
<ele>900.5</ele>
<desc>Speed 52.9 km/h Distance 77.36 km</desc>
<time>2012-09-18T16:47:48.76</time>
<name>3953</name>
<sym>Dot</sym>
</trkpt>
<trkpt lat="47.736687" lon="15.485318">
<ele>901.0</ele>
<desc>Speed 53.2 km/h Distance 77.37 km</desc>
<time>2012-09-18T16:47:49.76</time>
<name>3954</name>
<sym>Dot</sym>
</trkpt>
<trkpt lat="47.736810" lon="15.485392">
<ele>901.5</ele>
<desc>Speed 52.7 km/h Distance 77.39 km</desc>
<time>2012-09-18T16:47:50.76</time>
<name>3955</name>
<sym>Dot</sym>
</trkpt>
<trkpt lat="47.736937" lon="15.485477">
<ele>902.0</ele>
<desc>Speed 55.3 km/h Distance 77.40 km</desc>
<time>2012-09-18T16:47:51.76</time>
<name>3956</name>
<sym>Dot</sym>
</trkpt>
<trkpt lat="47.737060" lon="15.485568">
<ele>902.5</ele>
<desc>Speed 55.5 km/h Distance 77.42 km</desc>
<time>2012-09-18T16:47:52.76</time>
<name>3957</name>
<sym>Dot</sym>
</trkpt>
<trkpt lat="47.737187" lon="15.485663">
<ele>901.5</ele>
<desc>Speed 56.6 km/h Distance 77.43 km</desc>
<time>2012-09-18T16:47:53.76</time>
<name>3958</name>
<sym>Dot</sym>
</trkpt>
<trkpt lat="47.737308" lon="15.485755">
<ele>900.5</ele>
<desc>Speed 55.3 km/h Distance 77.45 km</desc>
<time>2012-09-18T16:47:54.75</time>
<name>3959</name>
<sym>Dot</sym>
</trkpt>
<trkpt lat="47.737428" lon="15.485842">
<ele>900.0</ele>
<desc>Speed 53.2 km/h Distance 77.46 km</desc>
<time>2012-09-18T16:47:55.74</time>
<name>3960</name>
<sym>Dot</sym>
</trkpt>
<trkpt lat="47.737540" lon="15.485925">
<ele>900.5</ele>
<desc>Speed 49.4 km/h Distance 77.48 km</desc>
<time>2012-09-18T16:47:56.75</time>
<name>3961</name>
<sym>Dot</sym>
</trkpt>
<trkpt lat="47.737748" lon="15.486007">
<ele>898.0</ele>
<desc>Speed 43.7 km/h Distance 77.50 km</desc>
<time>2012-09-18T16:47:58.74</time>
<name>3962</name>
<sym>Dot</sym>
</trkpt>
<trkpt lat="47.737858" lon="15.486023">
<ele>897.5</ele>
<desc>Speed 44.2 km/h Distance 77.51 km</desc>
<time>2012-09-18T16:47:59.74</time>
<name>3963</name>
<sym>Dot</sym>
</trkpt>
<trkpt lat="47.737970" lon="15.486027">
<ele>898.5</ele>
<desc>Speed 43.4 km/h Distance 77.52 km</desc>
<time>2012-09-18T16:48:00.73</time>
<name>3964</name>
<sym>Dot</sym>
</trkpt>
<trkpt lat="47.738078" lon="15.486012">
<ele>899.5</ele>
<desc>Speed 42.9 km/h Distance 77.54 km</desc>
<time>2012-09-18T16:48:01.72</time>
<name>3965</name>
<sym>Dot</sym>
</trkpt>
<trkpt lat="47.738170" lon="15.485965">
<ele>901.0</ele>
<desc>Speed 39.1 km/h Distance 77.55 km</desc>
<time>2012-09-18T16:48:02.72</time>
<name>3966</name>
<sym>Dot</sym>
</trkpt>
<trkpt lat="47.738267" lon="15.485905">
<ele>901.5</ele>
<desc>Speed 41.9 km/h Distance 77.56 km</desc>
<time>2012-09-18T16:48:03.72</time>
<name>3967</name>
<sym>Dot</sym>
</trkpt>
<trkpt lat="47.738358" lon="15.485832">
<ele>903.0</ele>
<desc>Speed 41.3 km/h Distance 77.57 km</desc>
<time>2012-09-18T16:48:04.71</time>
<name>3968</name>
<sym>Dot</sym>
</trkpt>
<trkpt lat="47.738445" lon="15.485747">
<ele>903.5</ele>
<desc>Speed 41.8 km/h Distance 77.58 km</desc>
<time>2012-09-18T16:48:05.71</time>
<name>3969</name>
<sym>Dot</sym>
</trkpt>
<trkpt lat="47.738533" lon="15.485647">
<ele>903.0</ele>
<desc>Speed 44.2 km/h Distance 77.59 km</desc>
<time>2012-09-18T16:48:06.71</time>
<name>3970</name>
<sym>Dot</sym>
</trkpt>
<trkpt lat="47.738620" lon="15.485537">
<ele>902.5</ele>
<desc>Speed 45.1 km/h Distance 77.61 km</desc>
<time>2012-09-18T16:48:07.71</time>
<name>3971</name>
<sym>Dot</sym>
</trkpt>
<trkpt lat="47.738970" lon="15.484783">
<ele>897.0</ele>
<desc>Speed 60.4 km/h Distance 77.68 km</desc>
<time>2012-09-18T16:48:11.90</time>
<name>3972</name>
<sym>Dot</sym>
</trkpt>
<trkpt lat="47.739083" lon="15.484622">
<ele>897.0</ele>
<desc>Speed 62.6 km/h Distance 77.69 km</desc>
<time>2012-09-18T16:48:12.90</time>
<name>3973</name>
<sym>Dot</sym>
</trkpt>
<trkpt lat="47.739227" lon="15.484488">
<ele>897.0</ele>
<desc>Speed 67.1 km/h Distance 77.71 km</desc>
<time>2012-09-18T16:48:13.90</time>
<name>3974</name>
<sym>Dot</sym>
</trkpt>
<trkpt lat="47.739383" lon="15.484387">
<ele>896.5</ele>
<desc>Speed 68.2 km/h Distance 77.73 km</desc>
<time>2012-09-18T16:48:14.89</time>
<name>3975</name>
<sym>Dot</sym>
</trkpt>
<trkpt lat="47.739545" lon="15.484317">
<ele>896.5</ele>
<desc>Speed 66.7 km/h Distance 77.75 km</desc>
<time>2012-09-18T16:48:15.89</time>
<name>3976</name>
<sym>Dot</sym>
</trkpt>
<trkpt lat="47.739720" lon="15.484293">
<ele>897.0</ele>
<desc>Speed 70.6 km/h Distance 77.77 km</desc>
<time>2012-09-18T16:48:16.88</time>
<name>3977</name>
<sym>Dot</sym>
</trkpt>
<trkpt lat="47.739903" lon="15.484300">
<ele>897.0</ele>
<desc>Speed 72.8 km/h Distance 77.79 km</desc>
<time>2012-09-18T16:48:17.89</time>
<name>3978</name>
<sym>Dot</sym>
</trkpt>
<trkpt lat="47.740088" lon="15.484332">
<ele>895.5</ele>
<desc>Speed 74.9 km/h Distance 77.81 km</desc>
<time>2012-09-18T16:48:18.88</time>
<name>3979</name>
<sym>Dot</sym>
</trkpt>
<trkpt lat="47.740270" lon="15.484402">
<ele>896.0</ele>
<desc>Speed 74.7 km/h Distance 77.83 km</desc>
<time>2012-09-18T16:48:19.88</time>
<name>3980</name>
<sym>Dot</sym>
</trkpt>
<trkpt lat="47.740672" lon="15.484608">
<ele>897.0</ele>
<desc>Speed 85.0 km/h Distance 77.88 km</desc>
<time>2012-09-18T16:48:21.86</time>
<name>3981</name>
<sym>Dot</sym>
</trkpt>
<trkpt lat="47.740873" lon="15.484720">
<ele>898.0</ele>
<desc>Speed 85.9 km/h Distance 77.90 km</desc>
<time>2012-09-18T16:48:22.86</time>
<name>3982</name>
<sym>Dot</sym>
</trkpt>
<trkpt lat="47.741077" lon="15.484837">
<ele>898.5</ele>
<desc>Speed 87.1 km/h Distance 77.93 km</desc>
<time>2012-09-18T16:48:23.85</time>
<name>3983</name>
<sym>Dot</sym>
</trkpt>
<trkpt lat="47.741282" lon="15.484958">
<ele>899.5</ele>
<desc>Speed 88.9 km/h Distance 77.95 km</desc>
<time>2012-09-18T16:48:24.84</time>
<name>3984</name>
<sym>Dot</sym>
</trkpt>
<trkpt lat="47.741492" lon="15.485085">
<ele>900.0</ele>
<desc>Speed 90.4 km/h Distance 77.98 km</desc>
<time>2012-09-18T16:48:25.84</time>
<name>3985</name>
<sym>Dot</sym>
</trkpt>
<trkpt lat="47.741702" lon="15.485212">
<ele>901.0</ele>
<desc>Speed 90.5 km/h Distance 78.00 km</desc>
<time>2012-09-18T16:48:26.83</time>
<name>3986</name>
<sym>Dot</sym>
</trkpt>
<trkpt lat="47.741910" lon="15.485338">
<ele>901.5</ele>
<desc>Speed 90.2 km/h Distance 78.03 km</desc>
<time>2012-09-18T16:48:27.83</time>
<name>3987</name>
<sym>Dot</sym>
</trkpt>
<trkpt lat="47.742110" lon="15.485473">
<ele>902.5</ele>
<desc>Speed 88.6 km/h Distance 78.05 km</desc>
<time>2012-09-18T16:48:28.82</time>
<name>3988</name>
<sym>Dot</sym>
</trkpt>
<trkpt lat="47.742302" lon="15.485625">
<ele>903.5</ele>
<desc>Speed 86.2 km/h Distance 78.08 km</desc>
<time>2012-09-18T16:48:29.82</time>
<name>3989</name>
<sym>Dot</sym>
</trkpt>
<trkpt lat="47.742487" lon="15.485793">
<ele>905.0</ele>
<desc>Speed 86.1 km/h Distance 78.10 km</desc>
<time>2012-09-18T16:48:30.81</time>
<name>3990</name>
<sym>Dot</sym>
</trkpt>
<trkpt lat="47.742665" lon="15.485977">
<ele>906.0</ele>
<desc>Speed 87.4 km/h Distance 78.12 km</desc>
<time>2012-09-18T16:48:31.82</time>
<name>3991</name>
<sym>Dot</sym>
</trkpt>
<trkpt lat="47.742843" lon="15.486183">
<ele>907.5</ele>
<desc>Speed 90.5 km/h Distance 78.15 km</desc>
<time>2012-09-18T16:48:32.81</time>
<name>3992</name>
<sym>Dot</sym>
</trkpt>
<trkpt lat="47.743025" lon="15.486413">
<ele>908.0</ele>
<desc>Speed 95.3 km/h Distance 78.18 km</desc>
<time>2012-09-18T16:48:33.80</time>
<name>3993</name>
<sym>Dot</sym>
</trkpt>
<trkpt lat="47.743208" lon="15.486663">
<ele>908.5</ele>
<desc>Speed 99.7 km/h Distance 78.20 km</desc>
<time>2012-09-18T16:48:34.80</time>
<name>3994</name>
<sym>Dot</sym>
</trkpt>
<trkpt lat="47.743388" lon="15.486928">
<ele>909.0</ele>
<desc>Speed 102 km/h Distance 78.23 km</desc>
<time>2012-09-18T16:48:35.80</time>
<name>3995</name>
<sym>Dot</sym>
</trkpt>
<trkpt lat="47.743565" lon="15.487200">
<ele>910.5</ele>
<desc>Speed 102 km/h Distance 78.26 km</desc>
<time>2012-09-18T16:48:36.79</time>
<name>3996</name>
<sym>Dot</sym>
</trkpt>
<trkpt lat="47.743742" lon="15.487477">
<ele>911.5</ele>
<desc>Speed 104 km/h Distance 78.29 km</desc>
<time>2012-09-18T16:48:37.78</time>
<name>3997</name>
<sym>Dot</sym>
</trkpt>
<trkpt lat="47.743917" lon="15.487747">
<ele>912.0</ele>
<desc>Speed 101 km/h Distance 78.32 km</desc>
<time>2012-09-18T16:48:38.78</time>
<name>3998</name>
<sym>Dot</sym>
</trkpt>
<trkpt lat="47.744087" lon="15.488008">
<ele>913.0</ele>
<desc>Speed 98.5 km/h Distance 78.34 km</desc>
<time>2012-09-18T16:48:39.77</time>
<name>3999</name>
<sym>Dot</sym>
</trkpt>
<trkpt lat="47.744257" lon="15.488265">
<ele>914.0</ele>
<desc>Speed 98.0 km/h Distance 78.37 km</desc>
<time>2012-09-18T16:48:40.77</time>
<name>4000</name>
<sym>Dot</sym>
</trkpt>
<trkpt lat="47.744435" lon="15.488515">
<ele>915.5</ele>
<desc>Speed 98.5 km/h Distance 78.40 km</desc>
<time>2012-09-18T16:48:41.77</time>
<name>4001</name>
<sym>Dot</sym>
</trkpt>
<trkpt lat="47.744620" lon="15.488753">
<ele>916.5</ele>
<desc>Speed 98.7 km/h Distance 78.43 km</desc>
<time>2012-09-18T16:48:42.76</time>
<name>4002</name>
<sym>Dot</sym>
</trkpt>
<trkpt lat="47.744817" lon="15.488972">
<ele>917.5</ele>
<desc>Speed 98.5 km/h Distance 78.45 km</desc>
<time>2012-09-18T16:48:43.76</time>
<name>4003</name>
<sym>Dot</sym>
</trkpt>
<trkpt lat="47.745025" lon="15.489173">
<ele>918.5</ele>
<desc>Speed 99.6 km/h Distance 78.48 km</desc>
<time>2012-09-18T16:48:44.76</time>
<name>4004</name>
<sym>Dot</sym>
</trkpt>
<trkpt lat="47.745240" lon="15.489362">
<ele>919.0</ele>
<desc>Speed 101 km/h Distance 78.51 km</desc>
<time>2012-09-18T16:48:45.76</time>
<name>4005</name>
<sym>Dot</sym>
</trkpt>
<trkpt lat="47.745465" lon="15.489545">
<ele>920.5</ele>
<desc>Speed 102 km/h Distance 78.54 km</desc>
<time>2012-09-18T16:48:46.75</time>
<name>4006</name>
<sym>Dot</sym>
</trkpt>
<trkpt lat="47.745692" lon="15.489728">
<ele>921.5</ele>
<desc>Speed 103 km/h Distance 78.57 km</desc>
<time>2012-09-18T16:48:47.75</time>
<name>4007</name>
<sym>Dot</sym>
</trkpt>
<trkpt lat="47.745918" lon="15.489913">
<ele>922.0</ele>
<desc>Speed 104 km/h Distance 78.59 km</desc>
<time>2012-09-18T16:48:48.75</time>
<name>4008</name>
<sym>Dot</sym>
</trkpt>
<trkpt lat="47.746145" lon="15.490097">
<ele>923.0</ele>
<desc>Speed 103 km/h Distance 78.62 km</desc>
<time>2012-09-18T16:48:49.74</time>
<name>4009</name>
<sym>Dot</sym>
</trkpt>
<trkpt lat="47.746368" lon="15.490282">
<ele>924.0</ele>
<desc>Speed 103 km/h Distance 78.65 km</desc>
<time>2012-09-18T16:48:50.74</time>
<name>4010</name>
<sym>Dot</sym>
</trkpt>
<trkpt lat="47.746587" lon="15.490475">
<ele>924.5</ele>
<desc>Speed 102 km/h Distance 78.68 km</desc>
<time>2012-09-18T16:48:51.74</time>
<name>4011</name>
<sym>Dot</sym>
</trkpt>
<trkpt lat="47.746800" lon="15.490677">
<ele>924.5</ele>
<desc>Speed 102 km/h Distance 78.71 km</desc>
<time>2012-09-18T16:48:52.73</time>
<name>4012</name>
<sym>Dot</sym>
</trkpt>
<trkpt lat="47.747010" lon="15.490890">
<ele>924.5</ele>
<desc>Speed 102 km/h Distance 78.74 km</desc>
<time>2012-09-18T16:48:53.73</time>
<name>4013</name>
<sym>Dot</sym>
</trkpt>
<trkpt lat="47.747213" lon="15.491123">
<ele>925.0</ele>
<desc>Speed 103 km/h Distance 78.76 km</desc>
<time>2012-09-18T16:48:54.73</time>
<name>4014</name>
<sym>Dot</sym>
</trkpt>
<trkpt lat="47.747413" lon="15.491373">
<ele>926.0</ele>
<desc>Speed 104 km/h Distance 78.79 km</desc>
<time>2012-09-18T16:48:55.72</time>
<name>4015</name>
<sym>Dot</sym>
</trkpt>
<trkpt lat="47.747612" lon="15.491630">
<ele>927.0</ele>
<desc>Speed 105 km/h Distance 78.82 km</desc>
<time>2012-09-18T16:48:56.72</time>
<name>4016</name>
<sym>Dot</sym>
</trkpt>
<trkpt lat="47.747812" lon="15.491888">
<ele>928.0</ele>
<desc>Speed 106 km/h Distance 78.85 km</desc>
<time>2012-09-18T16:48:57.72</time>
<name>4017</name>
<sym>Dot</sym>
</trkpt>
<trkpt lat="47.748013" lon="15.492148">
<ele>929.5</ele>
<desc>Speed 106 km/h Distance 78.88 km</desc>
<time>2012-09-18T16:48:58.71</time>
<name>4018</name>
<sym>Dot</sym>
</trkpt>
<trkpt lat="47.748213" lon="15.492408">
<ele>931.0</ele>
<desc>Speed 106 km/h Distance 78.91 km</desc>
<time>2012-09-18T16:48:59.71</time>
<name>4019</name>
<sym>Dot</sym>
</trkpt>
<trkpt lat="47.748408" lon="15.492665">
<ele>932.5</ele>
<desc>Speed 104 km/h Distance 78.94 km</desc>
<time>2012-09-18T16:49:00.70</time>
<name>4020</name>
<sym>Dot</sym>
</trkpt>
<trkpt lat="47.748593" lon="15.492912">
<ele>933.5</ele>
<desc>Speed 99.3 km/h Distance 78.97 km</desc>
<time>2012-09-18T16:49:01.70</time>
<name>4021</name>
<sym>Dot</sym>
</trkpt>
<trkpt lat="47.748768" lon="15.493162">
<ele>934.5</ele>
<desc>Speed 97.5 km/h Distance 79.00 km</desc>
<time>2012-09-18T16:49:02.69</time>
<name>4022</name>
<sym>Dot</sym>
</trkpt>
<trkpt lat="47.748937" lon="15.493423">
<ele>935.0</ele>
<desc>Speed 97.4 km/h Distance 79.02 km</desc>
<time>2012-09-18T16:49:03.69</time>
<name>4023</name>
<sym>Dot</sym>
</trkpt>
<trkpt lat="47.749090" lon="15.493708">
<ele>935.5</ele>
<desc>Speed 98.6 km/h Distance 79.05 km</desc>
<time>2012-09-18T16:49:04.68</time>
<name>4024</name>
<sym>Dot</sym>
</trkpt>
<trkpt lat="47.749232" lon="15.494017">
<ele>936.0</ele>
<desc>Speed 101 km/h Distance 79.08 km</desc>
<time>2012-09-18T16:49:05.68</time>
<name>4025</name>
<sym>Dot</sym>
</trkpt>
<trkpt lat="47.749365" lon="15.494347">
<ele>936.5</ele>
<desc>Speed 104 km/h Distance 79.11 km</desc>
<time>2012-09-18T16:49:06.68</time>
<name>4026</name>
<sym>Dot</sym>
</trkpt>
<trkpt lat="47.749497" lon="15.494688">
<ele>936.0</ele>
<desc>Speed 106 km/h Distance 79.14 km</desc>
<time>2012-09-18T16:49:07.72</time>
<name>4027</name>
<sym>Dot</sym>
</trkpt>
<trkpt lat="47.749635" lon="15.495028">
<ele>936.0</ele>
<desc>Speed 107 km/h Distance 79.17 km</desc>
<time>2012-09-18T16:49:08.67</time>
<name>4028</name>
<sym>Dot</sym>
</trkpt>
<trkpt lat="47.749783" lon="15.495360">
<ele>935.0</ele>
<desc>Speed 107 km/h Distance 79.20 km</desc>
<time>2012-09-18T16:49:09.67</time>
<name>4029</name>
<sym>Dot</sym>
</trkpt>
<trkpt lat="47.749945" lon="15.495677">
<ele>933.0</ele>
<desc>Speed 107 km/h Distance 79.23 km</desc>
<time>2012-09-18T16:49:10.67</time>
<name>4030</name>
<sym>Dot</sym>
</trkpt>
<trkpt lat="47.750110" lon="15.495982">
<ele>932.0</ele>
<desc>Speed 105 km/h Distance 79.25 km</desc>
<time>2012-09-18T16:49:11.66</time>
<name>4031</name>
<sym>Dot</sym>
</trkpt>
<trkpt lat="47.750277" lon="15.496277">
<ele>932.0</ele>
<desc>Speed 104 km/h Distance 79.28 km</desc>
<time>2012-09-18T16:49:12.67</time>
<name>4032</name>
<sym>Dot</sym>
</trkpt>
<trkpt lat="47.750448" lon="15.496547">
<ele>931.0</ele>
<desc>Speed 100 km/h Distance 79.31 km</desc>
<time>2012-09-18T16:49:13.66</time>
<name>4033</name>
<sym>Dot</sym>
</trkpt>
<trkpt lat="47.750635" lon="15.496798">
<ele>930.5</ele>
<desc>Speed 101 km/h Distance 79.34 km</desc>
<time>2012-09-18T16:49:14.65</time>
<name>4034</name>
<sym>Dot</sym>
</trkpt>
<trkpt lat="47.750820" lon="15.497032">
<ele>929.0</ele>
<desc>Speed 96.8 km/h Distance 79.37 km</desc>
<time>2012-09-18T16:49:15.64</time>
<name>4035</name>
<sym>Dot</sym>
</trkpt>
<trkpt lat="47.750993" lon="15.497272">
<ele>929.0</ele>
<desc>Speed 94.8 km/h Distance 79.39 km</desc>
<time>2012-09-18T16:49:16.64</time>
<name>4036</name>
<sym>Dot</sym>
</trkpt>
<trkpt lat="47.751158" lon="15.497540">
<ele>928.5</ele>
<desc>Speed 97.6 km/h Distance 79.42 km</desc>
<time>2012-09-18T16:49:17.68</time>
<name>4037</name>
<sym>Dot</sym>
</trkpt>
<trkpt lat="47.751315" lon="15.497842">
<ele>928.5</ele>
<desc>Speed 102 km/h Distance 79.45 km</desc>
<time>2012-09-18T16:49:18.63</time>
<name>4038</name>
<sym>Dot</sym>
</trkpt>
<trkpt lat="47.751472" lon="15.498167">
<ele>928.5</ele>
<desc>Speed 107 km/h Distance 79.48 km</desc>
<time>2012-09-18T16:49:19.64</time>
<name>4039</name>
<sym>Dot</sym>
</trkpt>
<trkpt lat="47.751622" lon="15.498498">
<ele>928.5</ele>
<desc>Speed 107 km/h Distance 79.51 km</desc>
<time>2012-09-18T16:49:20.63</time>
<name>4040</name>
<sym>Dot</sym>
</trkpt>
<trkpt lat="47.751767" lon="15.498835">
<ele>928.0</ele>
<desc>Speed 107 km/h Distance 79.54 km</desc>
<time>2012-09-18T16:49:21.63</time>
<name>4041</name>
<sym>Dot</sym>
</trkpt>
<trkpt lat="47.751907" lon="15.499182">
<ele>928.0</ele>
<desc>Speed 108 km/h Distance 79.57 km</desc>
<time>2012-09-18T16:49:22.62</time>
<name>4042</name>
<sym>Dot</sym>
</trkpt>
<trkpt lat="47.752037" lon="15.499530">
<ele>927.5</ele>
<desc>Speed 107 km/h Distance 79.60 km</desc>
<time>2012-09-18T16:49:23.63</time>
<name>4043</name>
<sym>Dot</sym>
</trkpt>
<trkpt lat="47.752158" lon="15.499877">
<ele>927.5</ele>
<desc>Speed 105 km/h Distance 79.63 km</desc>
<time>2012-09-18T16:49:24.62</time>
<name>4044</name>
<sym>Dot</sym>
</trkpt>
<trkpt lat="47.752270" lon="15.500223">
<ele>927.0</ele>
<desc>Speed 104 km/h Distance 79.66 km</desc>
<time>2012-09-18T16:49:25.62</time>
<name>4045</name>
<sym>Dot</sym>
</trkpt>
<trkpt lat="47.752370" lon="15.500578">
<ele>927.0</ele>
<desc>Speed 104 km/h Distance 79.69 km</desc>
<time>2012-09-18T16:49:26.61</time>
<name>4046</name>
<sym>Dot</sym>
</trkpt>
<trkpt lat="47.752462" lon="15.500937">
<ele>926.0</ele>
<desc>Speed 104 km/h Distance 79.71 km</desc>
<time>2012-09-18T16:49:27.61</time>
<name>4047</name>
<sym>Dot</sym>
</trkpt>
<trkpt lat="47.752548" lon="15.501298">
<ele>925.0</ele>
<desc>Speed 103 km/h Distance 79.74 km</desc>
<time>2012-09-18T16:49:28.60</time>
<name>4048</name>
<sym>Dot</sym>
</trkpt>
<trkpt lat="47.752635" lon="15.501663">
<ele>924.0</ele>
<desc>Speed 104 km/h Distance 79.77 km</desc>
<time>2012-09-18T16:49:29.60</time>
<name>4049</name>
<sym>Dot</sym>
</trkpt>
<trkpt lat="47.752722" lon="15.502028">
<ele>923.5</ele>
<desc>Speed 104 km/h Distance 79.80 km</desc>
<time>2012-09-18T16:49:30.59</time>
<name>4050</name>
<sym>Dot</sym>
</trkpt>
<trkpt lat="47.752810" lon="15.502393">
<ele>923.0</ele>
<desc>Speed 104 km/h Distance 79.83 km</desc>
<time>2012-09-18T16:49:31.59</time>
<name>4051</name>
<sym>Dot</sym>
</trkpt>
<trkpt lat="47.752897" lon="15.502753">
<ele>923.0</ele>
<desc>Speed 103 km/h Distance 79.86 km</desc>
<time>2012-09-18T16:49:32.58</time>
<name>4052</name>
<sym>Dot</sym>
</trkpt>
<trkpt lat="47.752980" lon="15.503097">
<ele>923.5</ele>
<desc>Speed 98.6 km/h Distance 79.89 km</desc>
<time>2012-09-18T16:49:33.58</time>
<name>4053</name>
<sym>Dot</sym>
</trkpt>
<trkpt lat="47.753058" lon="15.503425">
<ele>924.0</ele>
<desc>Speed 94.0 km/h Distance 79.91 km</desc>
<time>2012-09-18T16:49:34.58</time>
<name>4054</name>
<sym>Dot</sym>
</trkpt>
<trkpt lat="47.753128" lon="15.503738">
<ele>924.0</ele>
<desc>Speed 88.9 km/h Distance 79.94 km</desc>
<time>2012-09-18T16:49:35.57</time>
<name>4055</name>
<sym>Dot</sym>
</trkpt>
<trkpt lat="47.753185" lon="15.504050">
<ele>923.0</ele>
<desc>Speed 86.9 km/h Distance 79.96 km</desc>
<time>2012-09-18T16:49:36.56</time>
<name>4056</name>
<sym>Dot</sym>
</trkpt>
<trkpt lat="47.753213" lon="15.504382">
<ele>922.0</ele>
<desc>Speed 90.2 km/h Distance 79.99 km</desc>
<time>2012-09-18T16:49:37.55</time>
<name>4057</name>
<sym>Dot</sym>
</trkpt>
<trkpt lat="47.753233" lon="15.504732">
<ele>922.0</ele>
<desc>Speed 94.9 km/h Distance 80.01 km</desc>
<time>2012-09-18T16:49:38.55</time>
<name>4058</name>
<sym>Dot</sym>
</trkpt>
<trkpt lat="47.753245" lon="15.505098">
<ele>922.0</ele>
<desc>Speed 99.5 km/h Distance 80.04 km</desc>
<time>2012-09-18T16:49:39.56</time>
<name>4059</name>
<sym>Dot</sym>
</trkpt>
<trkpt lat="47.753258" lon="15.505478">
<ele>922.5</ele>
<desc>Speed 102 km/h Distance 80.07 km</desc>
<time>2012-09-18T16:49:40.54</time>
<name>4060</name>
<sym>Dot</sym>
</trkpt>
<trkpt lat="47.753277" lon="15.505862">
<ele>921.0</ele>
<desc>Speed 104 km/h Distance 80.10 km</desc>
<time>2012-09-18T16:49:41.53</time>
<name>4061</name>
<sym>Dot</sym>
</trkpt>
<trkpt lat="47.753297" lon="15.506237">
<ele>921.0</ele>
<desc>Speed 102 km/h Distance 80.12 km</desc>
<time>2012-09-18T16:49:42.53</time>
<name>4062</name>
<sym>Dot</sym>
</trkpt>
<trkpt lat="47.753313" lon="15.506595">
<ele>921.0</ele>
<desc>Speed 97.0 km/h Distance 80.15 km</desc>
<time>2012-09-18T16:49:43.53</time>
<name>4063</name>
<sym>Dot</sym>
</trkpt>
<trkpt lat="47.753325" lon="15.506943">
<ele>921.0</ele>
<desc>Speed 94.3 km/h Distance 80.18 km</desc>
<time>2012-09-18T16:49:44.51</time>
<name>4064</name>
<sym>Dot</sym>
</trkpt>
<trkpt lat="47.753323" lon="15.507297">
<ele>921.0</ele>
<desc>Speed 95.7 km/h Distance 80.20 km</desc>
<time>2012-09-18T16:49:45.51</time>
<name>4065</name>
<sym>Dot</sym>
</trkpt>
<trkpt lat="47.753315" lon="15.507653">
<ele>921.0</ele>
<desc>Speed 96.2 km/h Distance 80.23 km</desc>
<time>2012-09-18T16:49:46.51</time>
<name>4066</name>
<sym>Dot</sym>
</trkpt>
<trkpt lat="47.753305" lon="15.508002">
<ele>921.0</ele>
<desc>Speed 94.0 km/h Distance 80.26 km</desc>
<time>2012-09-18T16:49:47.50</time>
<name>4067</name>
<sym>Dot</sym>
</trkpt>
<trkpt lat="47.753297" lon="15.508340">
<ele>920.5</ele>
<desc>Speed 91.6 km/h Distance 80.28 km</desc>
<time>2012-09-18T16:49:48.50</time>
<name>4068</name>
<sym>Dot</sym>
</trkpt>
<trkpt lat="47.753298" lon="15.508660">
<ele>920.5</ele>
<desc>Speed 86.1 km/h Distance 80.31 km</desc>
<time>2012-09-18T16:49:49.50</time>
<name>4069</name>
<sym>Dot</sym>
</trkpt>
<trkpt lat="47.753323" lon="15.508958">
<ele>920.0</ele>
<desc>Speed 81.1 km/h Distance 80.33 km</desc>
<time>2012-09-18T16:49:50.49</time>
<name>4070</name>
<sym>Dot</sym>
</trkpt>
<trkpt lat="47.753382" lon="15.509238">
<ele>918.5</ele>
<desc>Speed 78.8 km/h Distance 80.35 km</desc>
<time>2012-09-18T16:49:51.49</time>
<name>4071</name>
<sym>Dot</sym>
</trkpt>
<trkpt lat="47.753475" lon="15.509518">
<ele>918.0</ele>
<desc>Speed 84.3 km/h Distance 80.37 km</desc>
<time>2012-09-18T16:49:52.48</time>
<name>4072</name>
<sym>Dot</sym>
</trkpt>
<trkpt lat="47.753588" lon="15.509812">
<ele>920.0</ele>
<desc>Speed 91.5 km/h Distance 80.40 km</desc>
<time>2012-09-18T16:49:53.48</time>
<name>4073</name>
<sym>Dot</sym>
</trkpt>
<trkpt lat="47.753723" lon="15.510105">
<ele>921.0</ele>
<desc>Speed 95.8 km/h Distance 80.43 km</desc>
<time>2012-09-18T16:49:54.46</time>
<name>4074</name>
<sym>Dot</sym>
</trkpt>
<trkpt lat="47.753863" lon="15.510392">
<ele>923.0</ele>
<desc>Speed 95.6 km/h Distance 80.45 km</desc>
<time>2012-09-18T16:49:55.45</time>
<name>4075</name>
<sym>Dot</sym>
</trkpt>
<trkpt lat="47.754015" lon="15.510668">
<ele>925.0</ele>
<desc>Speed 96.1 km/h Distance 80.48 km</desc>
<time>2012-09-18T16:49:56.44</time>
<name>4076</name>
<sym>Dot</sym>
</trkpt>
<trkpt lat="47.754178" lon="15.510937">
<ele>926.5</ele>
<desc>Speed 97.7 km/h Distance 80.51 km</desc>
<time>2012-09-18T16:49:57.44</time>
<name>4077</name>
<sym>Dot</sym>
</trkpt>
<trkpt lat="47.754357" lon="15.511203">
<ele>928.5</ele>
<desc>Speed 101 km/h Distance 80.53 km</desc>
<time>2012-09-18T16:49:58.44</time>
<name>4078</name>
<sym>Dot</sym>
</trkpt>
<trkpt lat="47.754542" lon="15.511467">
<ele>930.5</ele>
<desc>Speed 102 km/h Distance 80.56 km</desc>
<time>2012-09-18T16:49:59.44</time>
<name>4079</name>
<sym>Dot</sym>
</trkpt>
<trkpt lat="47.754728" lon="15.511715">
<ele>931.5</ele>
<desc>Speed 101 km/h Distance 80.59 km</desc>
<time>2012-09-18T16:50:00.43</time>
<name>4080</name>
<sym>Dot</sym>
</trkpt>
<trkpt lat="47.754923" lon="15.511948">
<ele>933.0</ele>
<desc>Speed 100 km/h Distance 80.62 km</desc>
<time>2012-09-18T16:50:01.43</time>
<name>4081</name>
<sym>Dot</sym>
</trkpt>
<trkpt lat="47.755128" lon="15.512173">
<ele>934.0</ele>
<desc>Speed 102 km/h Distance 80.65 km</desc>
<time>2012-09-18T16:50:02.42</time>
<name>4082</name>
<sym>Dot</sym>
</trkpt>
<trkpt lat="47.755338" lon="15.512395">
<ele>935.0</ele>
<desc>Speed 103 km/h Distance 80.68 km</desc>
<time>2012-09-18T16:50:03.42</time>
<name>4083</name>
<sym>Dot</sym>
</trkpt>
<trkpt lat="47.755550" lon="15.512618">
<ele>936.0</ele>
<desc>Speed 104 km/h Distance 80.70 km</desc>
<time>2012-09-18T16:50:04.41</time>
<name>4084</name>
<sym>Dot</sym>
</trkpt>
<trkpt lat="47.755763" lon="15.512847">
<ele>937.0</ele>
<desc>Speed 105 km/h Distance 80.73 km</desc>
<time>2012-09-18T16:50:05.40</time>
<name>4085</name>
<sym>Dot</sym>
</trkpt>
<trkpt lat="47.755980" lon="15.513072">
<ele>938.0</ele>
<desc>Speed 105 km/h Distance 80.76 km</desc>
<time>2012-09-18T16:50:06.40</time>
<name>4086</name>
<sym>Dot</sym>
</trkpt>
<trkpt lat="47.756200" lon="15.513290">
<ele>939.0</ele>
<desc>Speed 105 km/h Distance 80.79 km</desc>
<time>2012-09-18T16:50:07.40</time>
<name>4087</name>
<sym>Dot</sym>
</trkpt>
<trkpt lat="47.756425" lon="15.513493">
<ele>939.5</ele>
<desc>Speed 105 km/h Distance 80.82 km</desc>
<time>2012-09-18T16:50:08.39</time>
<name>4088</name>
<sym>Dot</sym>
</trkpt>
<trkpt lat="47.756653" lon="15.513688">
<ele>940.0</ele>
<desc>Speed 105 km/h Distance 80.85 km</desc>
<time>2012-09-18T16:50:09.40</time>
<name>4089</name>
<sym>Dot</sym>
</trkpt>
<trkpt lat="47.756880" lon="15.513872">
<ele>940.5</ele>
<desc>Speed 103 km/h Distance 80.88 km</desc>
<time>2012-09-18T16:50:10.38</time>
<name>4090</name>
<sym>Dot</sym>
</trkpt>
<trkpt lat="47.757112" lon="15.514033">
<ele>941.0</ele>
<desc>Speed 102 km/h Distance 80.91 km</desc>
<time>2012-09-18T16:50:11.38</time>
<name>4091</name>
<sym>Dot</sym>
</trkpt>
<trkpt lat="47.757348" lon="15.514178">
<ele>941.0</ele>
<desc>Speed 102 km/h Distance 80.94 km</desc>
<time>2012-09-18T16:50:12.38</time>
<name>4092</name>
<sym>Dot</sym>
</trkpt>
<trkpt lat="47.757583" lon="15.514305">
<ele>941.0</ele>
<desc>Speed 99.8 km/h Distance 80.97 km</desc>
<time>2012-09-18T16:50:13.37</time>
<name>4093</name>
<sym>Dot</sym>
</trkpt>
<trkpt lat="47.757803" lon="15.514433">
<ele>942.0</ele>
<desc>Speed 94.8 km/h Distance 80.99 km</desc>
<time>2012-09-18T16:50:14.37</time>
<name>4094</name>
<sym>Dot</sym>
</trkpt>
<trkpt lat="47.758013" lon="15.514590">
<ele>942.5</ele>
<desc>Speed 94.2 km/h Distance 81.02 km</desc>
<time>2012-09-18T16:50:15.37</time>
<name>4095</name>
<sym>Dot</sym>
</trkpt>
<trkpt lat="47.758228" lon="15.514788">
<ele>942.0</ele>
<desc>Speed 101 km/h Distance 81.05 km</desc>
<time>2012-09-18T16:50:16.37</time>
<name>4096</name>
<sym>Dot</sym>
</trkpt>
<trkpt lat="47.758440" lon="15.514988">
<ele>942.5</ele>
<desc>Speed 101 km/h Distance 81.07 km</desc>
<time>2012-09-18T16:50:17.36</time>
<name>4097</name>
<sym>Dot</sym>
</trkpt>
<trkpt lat="47.758647" lon="15.515185">
<ele>942.5</ele>
<desc>Speed 98.5 km/h Distance 81.10 km</desc>
<time>2012-09-18T16:50:18.36</time>
<name>4098</name>
<sym>Dot</sym>
</trkpt>
<trkpt lat="47.759007" lon="15.515517">
<ele>942.0</ele>
<desc>Speed 84.3 km/h Distance 81.15 km</desc>
<time>2012-09-18T16:50:20.35</time>
<name>4099</name>
<sym>Dot</sym>
</trkpt>
<trkpt lat="47.759178" lon="15.515653">
<ele>940.5</ele>
<desc>Speed 78.1 km/h Distance 81.17 km</desc>
<time>2012-09-18T16:50:21.35</time>
<name>4100</name>
<sym>Dot</sym>
</trkpt>
<trkpt lat="47.759375" lon="15.515742">
<ele>938.5</ele>
<desc>Speed 82.3 km/h Distance 81.19 km</desc>
<time>2012-09-18T16:50:22.36</time>
<name>4101</name>
<sym>Dot</sym>
</trkpt>
<trkpt lat="47.760358" lon="15.516030">
<ele>935.5</ele>
<desc>Speed 103 km/h Distance 81.30 km</desc>
<time>2012-09-18T16:50:26.91</time>
<name>4102</name>
<sym>Dot</sym>
</trkpt>
<trkpt lat="47.760622" lon="15.516072">
<ele>935.0</ele>
<desc>Speed 106 km/h Distance 81.33 km</desc>
<time>2012-09-18T16:50:27.91</time>
<name>4103</name>
<sym>Dot</sym>
</trkpt>
<trkpt lat="47.760892" lon="15.516095">
<ele>934.5</ele>
<desc>Speed 108 km/h Distance 81.36 km</desc>
<time>2012-09-18T16:50:28.90</time>
<name>4104</name>
<sym>Dot</sym>
</trkpt>
<trkpt lat="47.761163" lon="15.516103">
<ele>935.0</ele>
<desc>Speed 109 km/h Distance 81.39 km</desc>
<time>2012-09-18T16:50:29.90</time>
<name>4105</name>
<sym>Dot</sym>
</trkpt>
<trkpt lat="47.761430" lon="15.516102">
<ele>935.5</ele>
<desc>Speed 107 km/h Distance 81.42 km</desc>
<time>2012-09-18T16:50:30.89</time>
<name>4106</name>
<sym>Dot</sym>
</trkpt>
<trkpt lat="47.761683" lon="15.516095">
<ele>935.5</ele>
<desc>Speed 101 km/h Distance 81.45 km</desc>
<time>2012-09-18T16:50:31.88</time>
<name>4107</name>
<sym>Dot</sym>
</trkpt>
<trkpt lat="47.761923" lon="15.516092">
<ele>936.0</ele>
<desc>Speed 95.9 km/h Distance 81.48 km</desc>
<time>2012-09-18T16:50:32.88</time>
<name>4108</name>
<sym>Dot</sym>
</trkpt>
<trkpt lat="47.762148" lon="15.516082">
<ele>936.5</ele>
<desc>Speed 90.5 km/h Distance 81.50 km</desc>
<time>2012-09-18T16:50:33.87</time>
<name>4109</name>
<sym>Dot</sym>
</trkpt>
<trkpt lat="47.762363" lon="15.516057">
<ele>936.5</ele>
<desc>Speed 86.4 km/h Distance 81.53 km</desc>
<time>2012-09-18T16:50:34.87</time>
<name>4110</name>
<sym>Dot</sym>
</trkpt>
<trkpt lat="47.762562" lon="15.515985">
<ele>936.5</ele>
<desc>Speed 81.7 km/h Distance 81.55 km</desc>
<time>2012-09-18T16:50:35.87</time>
<name>4111</name>
<sym>Dot</sym>
</trkpt>
<trkpt lat="47.762743" lon="15.515857">
<ele>936.5</ele>
<desc>Speed 80.2 km/h Distance 81.57 km</desc>
<time>2012-09-18T16:50:36.86</time>
<name>4112</name>
<sym>Dot</sym>
</trkpt>
<trkpt lat="47.762918" lon="15.515695">
<ele>937.0</ele>
<desc>Speed 82.7 km/h Distance 81.60 km</desc>
<time>2012-09-18T16:50:37.86</time>
<name>4113</name>
<sym>Dot</sym>
</trkpt>
<trkpt lat="47.763077" lon="15.515482">
<ele>935.5</ele>
<desc>Speed 86.5 km/h Distance 81.62 km</desc>
<time>2012-09-18T16:50:38.86</time>
<name>4114</name>
<sym>Dot</sym>
</trkpt>
<trkpt lat="47.763223" lon="15.515223">
<ele>935.5</ele>
<desc>Speed 91.0 km/h Distance 81.64 km</desc>
<time>2012-09-18T16:50:39.85</time>
<name>4115</name>
<sym>Dot</sym>
</trkpt>
<trkpt lat="47.763368" lon="15.514940">
<ele>936.5</ele>
<desc>Speed 96.1 km/h Distance 81.67 km</desc>
<time>2012-09-18T16:50:40.85</time>
<name>4116</name>
<sym>Dot</sym>
</trkpt>
<trkpt lat="47.763518" lon="15.514652">
<ele>937.0</ele>
<desc>Speed 98.1 km/h Distance 81.70 km</desc>
<time>2012-09-18T16:50:41.84</time>
<name>4117</name>
<sym>Dot</sym>
</trkpt>
<trkpt lat="47.763668" lon="15.514365">
<ele>937.5</ele>
<desc>Speed 98.5 km/h Distance 81.73 km</desc>
<time>2012-09-18T16:50:42.84</time>
<name>4118</name>
<sym>Dot</sym>
</trkpt>
<trkpt lat="47.763813" lon="15.514085">
<ele>938.0</ele>
<desc>Speed 94.9 km/h Distance 81.75 km</desc>
<time>2012-09-18T16:50:43.83</time>
<name>4119</name>
<sym>Dot</sym>
</trkpt>
<trkpt lat="47.763948" lon="15.513818">
<ele>938.0</ele>
<desc>Speed 90.3 km/h Distance 81.78 km</desc>
<time>2012-09-18T16:50:44.83</time>
<name>4120</name>
<sym>Dot</sym>
</trkpt>
<trkpt lat="47.764237" lon="15.513363">
<ele>939.5</ele>
<desc>Speed 86.6 km/h Distance 81.82 km</desc>
<time>2012-09-18T16:50:46.82</time>
<name>4121</name>
<sym>Dot</sym>
</trkpt>
<trkpt lat="47.764413" lon="15.513157">
<ele>939.5</ele>
<desc>Speed 89.9 km/h Distance 81.85 km</desc>
<time>2012-09-18T16:50:47.82</time>
<name>4122</name>
<sym>Dot</sym>
</trkpt>
<trkpt lat="47.764598" lon="15.512957">
<ele>940.0</ele>
<desc>Speed 91.6 km/h Distance 81.87 km</desc>
<time>2012-09-18T16:50:48.82</time>
<name>4123</name>
<sym>Dot</sym>
</trkpt>
<trkpt lat="47.764795" lon="15.512773">
<ele>941.0</ele>
<desc>Speed 92.4 km/h Distance 81.90 km</desc>
<time>2012-09-18T16:50:49.81</time>
<name>4124</name>
<sym>Dot</sym>
</trkpt>
<trkpt lat="47.765005" lon="15.512627">
<ele>941.0</ele>
<desc>Speed 92.8 km/h Distance 81.93 km</desc>
<time>2012-09-18T16:50:50.80</time>
<name>4125</name>
<sym>Dot</sym>
</trkpt>
<trkpt lat="47.765218" lon="15.512485">
<ele>942.5</ele>
<desc>Speed 93.1 km/h Distance 81.95 km</desc>
<time>2012-09-18T16:50:51.79</time>
<name>4126</name>
<sym>Dot</sym>
</trkpt>
<trkpt lat="47.765440" lon="15.512365">
<ele>944.0</ele>
<desc>Speed 94.0 km/h Distance 81.98 km</desc>
<time>2012-09-18T16:50:52.78</time>
<name>4127</name>
<sym>Dot</sym>
</trkpt>
<trkpt lat="47.765678" lon="15.512287">
<ele>944.5</ele>
<desc>Speed 97.3 km/h Distance 82.01 km</desc>
<time>2012-09-18T16:50:53.76</time>
<name>4128</name>
<sym>Dot</sym>
</trkpt>
<trkpt lat="47.765927" lon="15.512220">
<ele>943.0</ele>
<desc>Speed 101 km/h Distance 82.03 km</desc>
<time>2012-09-18T16:50:54.86</time>
<name>4129</name>
<sym>Dot</sym>
</trkpt>
<trkpt lat="47.766183" lon="15.512180">
<ele>943.0</ele>
<desc>Speed 103 km/h Distance 82.06 km</desc>
<time>2012-09-18T16:50:55.78</time>
<name>4130</name>
<sym>Dot</sym>
</trkpt>
<trkpt lat="47.766438" lon="15.512155">
<ele>945.0</ele>
<desc>Speed 102 km/h Distance 82.09 km</desc>
<time>2012-09-18T16:50:56.76</time>
<name>4131</name>
<sym>Dot</sym>
</trkpt>
<trkpt lat="47.766698" lon="15.512148">
<ele>947.0</ele>
<desc>Speed 103 km/h Distance 82.12 km</desc>
<time>2012-09-18T16:50:57.76</time>
<name>4132</name>
<sym>Dot</sym>
</trkpt>
<trkpt lat="47.766953" lon="15.512157">
<ele>949.0</ele>
<desc>Speed 102 km/h Distance 82.15 km</desc>
<time>2012-09-18T16:50:58.76</time>
<name>4133</name>
<sym>Dot</sym>
</trkpt>
<trkpt lat="47.767207" lon="15.512183">
<ele>951.0</ele>
<desc>Speed 101 km/h Distance 82.18 km</desc>
<time>2012-09-18T16:50:59.75</time>
<name>4134</name>
<sym>Dot</sym>
</trkpt>
<trkpt lat="47.767460" lon="15.512225">
<ele>952.5</ele>
<desc>Speed 102 km/h Distance 82.20 km</desc>
<time>2012-09-18T16:51:00.75</time>
<name>4135</name>
<sym>Dot</sym>
</trkpt>
<trkpt lat="47.767713" lon="15.512283">
<ele>954.0</ele>
<desc>Speed 103 km/h Distance 82.23 km</desc>
<time>2012-09-18T16:51:01.74</time>
<name>4136</name>
<sym>Dot</sym>
</trkpt>
<trkpt lat="47.767970" lon="15.512362">
<ele>955.0</ele>
<desc>Speed 104 km/h Distance 82.26 km</desc>
<time>2012-09-18T16:51:02.73</time>
<name>4137</name>
<sym>Dot</sym>
</trkpt>
<trkpt lat="47.768225" lon="15.512452">
<ele>956.0</ele>
<desc>Speed 105 km/h Distance 82.29 km</desc>
<time>2012-09-18T16:51:03.72</time>
<name>4138</name>
<sym>Dot</sym>
</trkpt>
<trkpt lat="47.768478" lon="15.512553">
<ele>957.0</ele>
<desc>Speed 104 km/h Distance 82.32 km</desc>
<time>2012-09-18T16:51:04.72</time>
<name>4139</name>
<sym>Dot</sym>
</trkpt>
<trkpt lat="47.768727" lon="15.512663">
<ele>957.5</ele>
<desc>Speed 104 km/h Distance 82.35 km</desc>
<time>2012-09-18T16:51:05.72</time>
<name>4140</name>
<sym>Dot</sym>
</trkpt>
<trkpt lat="47.768975" lon="15.512772">
<ele>958.0</ele>
<desc>Speed 103 km/h Distance 82.38 km</desc>
<time>2012-09-18T16:51:06.73</time>
<name>4141</name>
<sym>Dot</sym>
</trkpt>
<trkpt lat="47.769220" lon="15.512877">
<ele>959.0</ele>
<desc>Speed 102 km/h Distance 82.41 km</desc>
<time>2012-09-18T16:51:07.74</time>
<name>4142</name>
<sym>Dot</sym>
</trkpt>
<trkpt lat="47.769465" lon="15.512973">
<ele>960.0</ele>
<desc>Speed 101 km/h Distance 82.44 km</desc>
<time>2012-09-18T16:51:08.72</time>
<name>4143</name>
<sym>Dot</sym>
</trkpt>
<trkpt lat="47.769707" lon="15.513055">
<ele>960.5</ele>
<desc>Speed 99.8 km/h Distance 82.46 km</desc>
<time>2012-09-18T16:51:09.72</time>
<name>4144</name>
<sym>Dot</sym>
</trkpt>
<trkpt lat="47.769947" lon="15.513102">
<ele>961.0</ele>
<desc>Speed 96.7 km/h Distance 82.49 km</desc>
<time>2012-09-18T16:51:10.73</time>
<name>4145</name>
<sym>Dot</sym>
</trkpt>
<trkpt lat="47.770187" lon="15.513097">
<ele>962.0</ele>
<desc>Speed 95.5 km/h Distance 82.52 km</desc>
<time>2012-09-18T16:51:11.73</time>
<name>4146</name>
<sym>Dot</sym>
</trkpt>
<trkpt lat="47.770428" lon="15.513042">
<ele>962.5</ele>
<desc>Speed 97.3 km/h Distance 82.54 km</desc>
<time>2012-09-18T16:51:12.71</time>
<name>4147</name>
<sym>Dot</sym>
</trkpt>
<trkpt lat="47.770662" lon="15.512953">
<ele>963.0</ele>
<desc>Speed 96.4 km/h Distance 82.57 km</desc>
<time>2012-09-18T16:51:13.71</time>
<name>4148</name>
<sym>Dot</sym>
</trkpt>
<trkpt lat="47.770887" lon="15.512815">
<ele>962.5</ele>
<desc>Speed 97.4 km/h Distance 82.60 km</desc>
<time>2012-09-18T16:51:14.71</time>
<name>4149</name>
<sym>Dot</sym>
</trkpt>
<trkpt lat="47.771093" lon="15.512618">
<ele>963.5</ele>
<desc>Speed 97.9 km/h Distance 82.62 km</desc>
<time>2012-09-18T16:51:15.71</time>
<name>4150</name>
<sym>Dot</sym>
</trkpt>
<trkpt lat="47.771287" lon="15.512390">
<ele>963.0</ele>
<desc>Speed 98.9 km/h Distance 82.65 km</desc>
<time>2012-09-18T16:51:16.70</time>
<name>4151</name>
<sym>Dot</sym>
</trkpt>
<trkpt lat="47.771463" lon="15.512133">
<ele>961.5</ele>
<desc>Speed 99.0 km/h Distance 82.68 km</desc>
<time>2012-09-18T16:51:17.69</time>
<name>4152</name>
<sym>Dot</sym>
</trkpt>
<trkpt lat="47.771623" lon="15.511855">
<ele>962.0</ele>
<desc>Speed 99.4 km/h Distance 82.71 km</desc>
<time>2012-09-18T16:51:18.69</time>
<name>4153</name>
<sym>Dot</sym>
</trkpt>
<trkpt lat="47.771802" lon="15.511228">
<ele>962.5</ele>
<desc>Speed 93.4 km/h Distance 82.76 km</desc>
<time>2012-09-18T16:51:20.68</time>
<name>4154</name>
<sym>Dot</sym>
</trkpt>
<trkpt lat="47.771860" lon="15.510902">
<ele>963.0</ele>
<desc>Speed 90.8 km/h Distance 82.78 km</desc>
<time>2012-09-18T16:51:21.68</time>
<name>4155</name>
<sym>Dot</sym>
</trkpt>
<trkpt lat="47.771893" lon="15.510565">
<ele>963.0</ele>
<desc>Speed 92.2 km/h Distance 82.81 km</desc>
<time>2012-09-18T16:51:22.67</time>
<name>4156</name>
<sym>Dot</sym>
</trkpt>
<trkpt lat="47.771912" lon="15.510212">
<ele>964.5</ele>
<desc>Speed 95.9 km/h Distance 82.84 km</desc>
<time>2012-09-18T16:51:23.67</time>
<name>4157</name>
<sym>Dot</sym>
</trkpt>
<trkpt lat="47.771925" lon="15.509878">
<ele>966.0</ele>
<desc>Speed 90.1 km/h Distance 82.86 km</desc>
<time>2012-09-18T16:51:24.67</time>
<name>4158</name>
<sym>Dot</sym>
</trkpt>
<trkpt lat="47.771935" lon="15.509563">
<ele>968.0</ele>
<desc>Speed 85.5 km/h Distance 82.88 km</desc>
<time>2012-09-18T16:51:25.66</time>
<name>4159</name>
<sym>Dot</sym>
</trkpt>
<trkpt lat="47.771955" lon="15.509265">
<ele>969.5</ele>
<desc>Speed 81.6 km/h Distance 82.91 km</desc>
<time>2012-09-18T16:51:26.65</time>
<name>4160</name>
<sym>Dot</sym>
</trkpt>
<trkpt lat="47.771988" lon="15.508978">
<ele>971.0</ele>
<desc>Speed 79.1 km/h Distance 82.93 km</desc>
<time>2012-09-18T16:51:27.66</time>
<name>4161</name>
<sym>Dot</sym>
</trkpt>
<trkpt lat="47.772035" lon="15.508698">
<ele>972.5</ele>
<desc>Speed 78.7 km/h Distance 82.95 km</desc>
<time>2012-09-18T16:51:28.64</time>
<name>4162</name>
<sym>Dot</sym>
</trkpt>
<trkpt lat="47.772087" lon="15.508437">
<ele>973.5</ele>
<desc>Speed 74.2 km/h Distance 82.97 km</desc>
<time>2012-09-18T16:51:29.64</time>
<name>4163</name>
<sym>Dot</sym>
</trkpt>
<trkpt lat="47.772172" lon="15.507982">
<ele>975.5</ele>
<desc>Speed 61.6 km/h Distance 83.01 km</desc>
<time>2012-09-18T16:51:31.63</time>
<name>4164</name>
<sym>Dot</sym>
</trkpt>
<trkpt lat="47.772205" lon="15.507778">
<ele>976.0</ele>
<desc>Speed 57.3 km/h Distance 83.02 km</desc>
<time>2012-09-18T16:51:32.64</time>
<name>4165</name>
<sym>Dot</sym>
</trkpt>
<trkpt lat="47.772232" lon="15.507583">
<ele>976.5</ele>
<desc>Speed 54.6 km/h Distance 83.04 km</desc>
<time>2012-09-18T16:51:33.63</time>
<name>4166</name>
<sym>Dot</sym>
</trkpt>
<trkpt lat="47.772255" lon="15.507395">
<ele>976.5</ele>
<desc>Speed 51.9 km/h Distance 83.05 km</desc>
<time>2012-09-18T16:51:34.63</time>
<name>4167</name>
<sym>Dot</sym>
</trkpt>
<trkpt lat="47.772285" lon="15.507220">
<ele>976.5</ele>
<desc>Speed 50.1 km/h Distance 83.06 km</desc>
<time>2012-09-18T16:51:35.62</time>
<name>4168</name>
<sym>Dot</sym>
</trkpt>
<trkpt lat="47.772335" lon="15.507055">
<ele>976.0</ele>
<desc>Speed 48.7 km/h Distance 83.08 km</desc>
<time>2012-09-18T16:51:36.62</time>
<name>4169</name>
<sym>Dot</sym>
</trkpt>
<trkpt lat="47.772410" lon="15.506910">
<ele>976.0</ele>
<desc>Speed 49.7 km/h Distance 83.09 km</desc>
<time>2012-09-18T16:51:37.61</time>
<name>4170</name>
<sym>Dot</sym>
</trkpt>
<trkpt lat="47.772495" lon="15.506753">
<ele>975.5</ele>
<desc>Speed 54.4 km/h Distance 83.11 km</desc>
<time>2012-09-18T16:51:38.60</time>
<name>4171</name>
<sym>Dot</sym>
</trkpt>
<trkpt lat="47.772585" lon="15.506593">
<ele>974.5</ele>
<desc>Speed 56.2 km/h Distance 83.12 km</desc>
<time>2012-09-18T16:51:39.59</time>
<name>4172</name>
<sym>Dot</sym>
</trkpt>
<trkpt lat="47.772673" lon="15.506435">
<ele>974.5</ele>
<desc>Speed 55.4 km/h Distance 83.14 km</desc>
<time>2012-09-18T16:51:40.59</time>
<name>4173</name>
<sym>Dot</sym>
</trkpt>
<trkpt lat="47.772753" lon="15.506273">
<ele>974.0</ele>
<desc>Speed 54.1 km/h Distance 83.15 km</desc>
<time>2012-09-18T16:51:41.58</time>
<name>4174</name>
<sym>Dot</sym>
</trkpt>
<trkpt lat="47.772827" lon="15.506107">
<ele>973.5</ele>
<desc>Speed 53.7 km/h Distance 83.17 km</desc>
<time>2012-09-18T16:51:42.58</time>
<name>4175</name>
<sym>Dot</sym>
</trkpt>
<trkpt lat="47.772892" lon="15.505932">
<ele>973.0</ele>
<desc>Speed 54.5 km/h Distance 83.18 km</desc>
<time>2012-09-18T16:51:43.56</time>
<name>4176</name>
<sym>Dot</sym>
</trkpt>
<trkpt lat="47.772943" lon="15.505743">
<ele>972.5</ele>
<desc>Speed 55.0 km/h Distance 83.20 km</desc>
<time>2012-09-18T16:51:44.56</time>
<name>4177</name>
<sym>Dot</sym>
</trkpt>
<trkpt lat="47.772985" lon="15.505543">
<ele>971.5</ele>
<desc>Speed 56.3 km/h Distance 83.21 km</desc>
<time>2012-09-18T16:51:45.56</time>
<name>4178</name>
<sym>Dot</sym>
</trkpt>
<trkpt lat="47.773020" lon="15.505337">
<ele>971.5</ele>
<desc>Speed 57.4 km/h Distance 83.23 km</desc>
<time>2012-09-18T16:51:46.56</time>
<name>4179</name>
<sym>Dot</sym>
</trkpt>
<trkpt lat="47.773050" lon="15.505128">
<ele>970.5</ele>
<desc>Speed 57.6 km/h Distance 83.24 km</desc>
<time>2012-09-18T16:51:47.55</time>
<name>4180</name>
<sym>Dot</sym>
</trkpt>
<trkpt lat="47.773078" lon="15.504923">
<ele>970.0</ele>
<desc>Speed 56.8 km/h Distance 83.26 km</desc>
<time>2012-09-18T16:51:48.56</time>
<name>4181</name>
<sym>Dot</sym>
</trkpt>
<trkpt lat="47.773108" lon="15.504723">
<ele>970.5</ele>
<desc>Speed 55.0 km/h Distance 83.28 km</desc>
<time>2012-09-18T16:51:49.54</time>
<name>4182</name>
<sym>Dot</sym>
</trkpt>
<trkpt lat="47.773128" lon="15.504540">
<ele>969.5</ele>
<desc>Speed 50.3 km/h Distance 83.29 km</desc>
<time>2012-09-18T16:51:50.54</time>
<name>4183</name>
<sym>Dot</sym>
</trkpt>
<trkpt lat="47.773145" lon="15.504377">
<ele>969.0</ele>
<desc>Speed 44.7 km/h Distance 83.30 km</desc>
<time>2012-09-18T16:51:51.53</time>
<name>4184</name>
<sym>Dot</sym>
</trkpt>
<trkpt lat="47.773150" lon="15.504223">
<ele>968.5</ele>
<desc>Speed 41.8 km/h Distance 83.31 km</desc>
<time>2012-09-18T16:51:52.53</time>
<name>4185</name>
<sym>Dot</sym>
</trkpt>
<trkpt lat="47.773127" lon="15.504078">
<ele>970.5</ele>
<desc>Speed 40.6 km/h Distance 83.32 km</desc>
<time>2012-09-18T16:51:53.53</time>
<name>4186</name>
<sym>Dot</sym>
</trkpt>
<trkpt lat="47.773072" lon="15.503942">
<ele>972.5</ele>
<desc>Speed 43.6 km/h Distance 83.34 km</desc>
<time>2012-09-18T16:51:54.52</time>
<name>4187</name>
<sym>Dot</sym>
</trkpt>
<trkpt lat="47.773012" lon="15.503803">
<ele>972.5</ele>
<desc>Speed 44.5 km/h Distance 83.35 km</desc>
<time>2012-09-18T16:51:55.51</time>
<name>4188</name>
<sym>Dot</sym>
</trkpt>
<trkpt lat="47.772952" lon="15.503675">
<ele>973.0</ele>
<desc>Speed 42.0 km/h Distance 83.36 km</desc>
<time>2012-09-18T16:51:56.50</time>
<name>4189</name>
<sym>Dot</sym>
</trkpt>
<trkpt lat="47.772912" lon="15.503545">
<ele>973.0</ele>
<desc>Speed 38.4 km/h Distance 83.37 km</desc>
<time>2012-09-18T16:51:57.50</time>
<name>4190</name>
<sym>Dot</sym>
</trkpt>
<trkpt lat="47.772903" lon="15.503397">
<ele>973.0</ele>
<desc>Speed 40.2 km/h Distance 83.38 km</desc>
<time>2012-09-18T16:51:58.49</time>
<name>4191</name>
<sym>Dot</sym>
</trkpt>
<trkpt lat="47.772902" lon="15.503233">
<ele>974.0</ele>
<desc>Speed 43.5 km/h Distance 83.39 km</desc>
<time>2012-09-18T16:51:59.49</time>
<name>4192</name>
<sym>Dot</sym>
</trkpt>
<trkpt lat="47.772900" lon="15.503058">
<ele>975.5</ele>
<desc>Speed 47.3 km/h Distance 83.41 km</desc>
<time>2012-09-18T16:52:00.48</time>
<name>4193</name>
<sym>Dot</sym>
</trkpt>
<trkpt lat="47.772897" lon="15.502860">
<ele>977.0</ele>
<desc>Speed 53.4 km/h Distance 83.42 km</desc>
<time>2012-09-18T16:52:01.47</time>
<name>4194</name>
<sym>Dot</sym>
</trkpt>
<trkpt lat="47.772893" lon="15.502645">
<ele>978.5</ele>
<desc>Speed 58.4 km/h Distance 83.44 km</desc>
<time>2012-09-18T16:52:02.47</time>
<name>4195</name>
<sym>Dot</sym>
</trkpt>
<trkpt lat="47.772890" lon="15.502410">
<ele>979.5</ele>
<desc>Speed 63.4 km/h Distance 83.46 km</desc>
<time>2012-09-18T16:52:03.46</time>
<name>4196</name>
<sym>Dot</sym>
</trkpt>
<trkpt lat="47.772890" lon="15.502152">
<ele>980.0</ele>
<desc>Speed 69.7 km/h Distance 83.48 km</desc>
<time>2012-09-18T16:52:04.46</time>
<name>4197</name>
<sym>Dot</sym>
</trkpt>
<trkpt lat="47.772898" lon="15.501872">
<ele>980.5</ele>
<desc>Speed 76.0 km/h Distance 83.50 km</desc>
<time>2012-09-18T16:52:05.45</time>
<name>4198</name>
<sym>Dot</sym>
</trkpt>
<trkpt lat="47.772913" lon="15.501593">
<ele>981.5</ele>
<desc>Speed 75.2 km/h Distance 83.52 km</desc>
<time>2012-09-18T16:52:06.45</time>
<name>4199</name>
<sym>Dot</sym>
</trkpt>
<trkpt lat="47.772935" lon="15.501335">
<ele>983.5</ele>
<desc>Speed 70.3 km/h Distance 83.54 km</desc>
<time>2012-09-18T16:52:07.47</time>
<name>4200</name>
<sym>Dot</sym>
</trkpt>
<trkpt lat="47.772988" lon="15.501095">
<ele>985.0</ele>
<desc>Speed 68.0 km/h Distance 83.56 km</desc>
<time>2012-09-18T16:52:08.45</time>
<name>4201</name>
<sym>Dot</sym>
</trkpt>
<trkpt lat="47.773180" lon="15.500595">
<ele>986.0</ele>
<desc>Speed 80.2 km/h Distance 83.60 km</desc>
<time>2012-09-18T16:52:10.44</time>
<name>4202</name>
<sym>Dot</sym>
</trkpt>
<trkpt lat="47.773280" lon="15.500367">
<ele>986.5</ele>
<desc>Speed 73.9 km/h Distance 83.62 km</desc>
<time>2012-09-18T16:52:11.43</time>
<name>4203</name>
<sym>Dot</sym>
</trkpt>
<trkpt lat="47.773463" lon="15.499962">
<ele>991.0</ele>
<desc>Speed 65.2 km/h Distance 83.66 km</desc>
<time>2012-09-18T16:52:13.43</time>
<name>4204</name>
<sym>Dot</sym>
</trkpt>
<trkpt lat="47.773525" lon="15.499722">
<ele>991.5</ele>
<desc>Speed 69.4 km/h Distance 83.68 km</desc>
<time>2012-09-18T16:52:14.43</time>
<name>4205</name>
<sym>Dot</sym>
</trkpt>
<trkpt lat="47.773607" lon="15.499140">
<ele>991.0</ele>
<desc>Speed 82.1 km/h Distance 83.72 km</desc>
<time>2012-09-18T16:52:16.41</time>
<name>4206</name>
<sym>Dot</sym>
</trkpt>
<trkpt lat="47.773632" lon="15.498822">
<ele>991.5</ele>
<desc>Speed 86.2 km/h Distance 83.74 km</desc>
<time>2012-09-18T16:52:17.41</time>
<name>4207</name>
<sym>Dot</sym>
</trkpt>
<trkpt lat="47.773640" lon="15.498490">
<ele>989.5</ele>
<desc>Speed 89.6 km/h Distance 83.77 km</desc>
<time>2012-09-18T16:52:18.40</time>
<name>4208</name>
<sym>Dot</sym>
</trkpt>
<trkpt lat="47.773637" lon="15.498142">
<ele>991.0</ele>
<desc>Speed 94.1 km/h Distance 83.79 km</desc>
<time>2012-09-18T16:52:19.41</time>
<name>4209</name>
<sym>Dot</sym>
</trkpt>
<trkpt lat="47.773625" lon="15.497805">
<ele>993.0</ele>
<desc>Speed 91.0 km/h Distance 83.82 km</desc>
<time>2012-09-18T16:52:20.40</time>
<name>4210</name>
<sym>Dot</sym>
</trkpt>
<trkpt lat="47.773610" lon="15.497487">
<ele>995.0</ele>
<desc>Speed 86.3 km/h Distance 83.84 km</desc>
<time>2012-09-18T16:52:21.39</time>
<name>4211</name>
<sym>Dot</sym>
</trkpt>
<trkpt lat="47.773593" lon="15.497187">
<ele>997.0</ele>
<desc>Speed 81.1 km/h Distance 83.87 km</desc>
<time>2012-09-18T16:52:22.39</time>
<name>4212</name>
<sym>Dot</sym>
</trkpt>
<trkpt lat="47.773578" lon="15.496893">
<ele>998.5</ele>
<desc>Speed 79.4 km/h Distance 83.89 km</desc>
<time>2012-09-18T16:52:23.38</time>
<name>4213</name>
<sym>Dot</sym>
</trkpt>
<trkpt lat="47.773573" lon="15.496603">
<ele>1000.0</ele>
<desc>Speed 78.1 km/h Distance 83.91 km</desc>
<time>2012-09-18T16:52:24.37</time>
<name>4214</name>
<sym>Dot</sym>
</trkpt>
<trkpt lat="47.773610" lon="15.496333">
<ele>1002.0</ele>
<desc>Speed 74.9 km/h Distance 83.93 km</desc>
<time>2012-09-18T16:52:25.39</time>
<name>4215</name>
<sym>Dot</sym>
</trkpt>
<trkpt lat="47.773768" lon="15.495768">
<ele>1002.0</ele>
<desc>Speed 83.6 km/h Distance 83.98 km</desc>
<time>2012-09-18T16:52:27.38</time>
<name>4216</name>
<sym>Dot</sym>
</trkpt>
<trkpt lat="47.773883" lon="15.495485">
<ele>1001.5</ele>
<desc>Speed 89.3 km/h Distance 84.00 km</desc>
<time>2012-09-18T16:52:28.37</time>
<name>4217</name>
<sym>Dot</sym>
</trkpt>
<trkpt lat="47.773998" lon="15.495203">
<ele>1003.5</ele>
<desc>Speed 88.9 km/h Distance 84.03 km</desc>
<time>2012-09-18T16:52:29.36</time>
<name>4218</name>
<sym>Dot</sym>
</trkpt>
<trkpt lat="47.774110" lon="15.494903">
<ele>1005.5</ele>
<desc>Speed 92.8 km/h Distance 84.05 km</desc>
<time>2012-09-18T16:52:30.36</time>
<name>4219</name>
<sym>Dot</sym>
</trkpt>
<trkpt lat="47.774308" lon="15.494355">
<ele>1007.0</ele>
<desc>Speed 83.6 km/h Distance 84.10 km</desc>
<time>2012-09-18T16:52:32.36</time>
<name>4220</name>
<sym>Dot</sym>
</trkpt>
<trkpt lat="47.774402" lon="15.494100">
<ele>1008.0</ele>
<desc>Speed 78.1 km/h Distance 84.12 km</desc>
<time>2012-09-18T16:52:33.34</time>
<name>4221</name>
<sym>Dot</sym>
</trkpt>
<trkpt lat="47.774497" lon="15.493852">
<ele>1009.0</ele>
<desc>Speed 77.6 km/h Distance 84.14 km</desc>
<time>2012-09-18T16:52:34.35</time>
<name>4222</name>
<sym>Dot</sym>
</trkpt>
<trkpt lat="47.774618" lon="15.493623">
<ele>1010.0</ele>
<desc>Speed 78.7 km/h Distance 84.16 km</desc>
<time>2012-09-18T16:52:35.34</time>
<name>4223</name>
<sym>Dot</sym>
</trkpt>
<trkpt lat="47.774773" lon="15.493442">
<ele>1012.5</ele>
<desc>Speed 79.0 km/h Distance 84.18 km</desc>
<time>2012-09-18T16:52:36.34</time>
<name>4224</name>
<sym>Dot</sym>
</trkpt>
<trkpt lat="47.774950" lon="15.493265">
<ele>1014.5</ele>
<desc>Speed 85.0 km/h Distance 84.21 km</desc>
<time>2012-09-18T16:52:37.34</time>
<name>4225</name>
<sym>Dot</sym>
</trkpt>
<trkpt lat="47.775127" lon="15.493100">
<ele>1017.0</ele>
<desc>Speed 83.6 km/h Distance 84.23 km</desc>
<time>2012-09-18T16:52:38.33</time>
<name>4226</name>
<sym>Dot</sym>
</trkpt>
<trkpt lat="47.775287" lon="15.492933">
<ele>1016.5</ele>
<desc>Speed 77.8 km/h Distance 84.25 km</desc>
<time>2012-09-18T16:52:39.32</time>
<name>4227</name>
<sym>Dot</sym>
</trkpt>
<trkpt lat="47.775422" lon="15.492733">
<ele>1017.0</ele>
<desc>Speed 76.0 km/h Distance 84.27 km</desc>
<time>2012-09-18T16:52:40.32</time>
<name>4228</name>
<sym>Dot</sym>
</trkpt>
<trkpt lat="47.775533" lon="15.492502">
<ele>1018.0</ele>
<desc>Speed 76.2 km/h Distance 84.30 km</desc>
<time>2012-09-18T16:52:41.32</time>
<name>4229</name>
<sym>Dot</sym>
</trkpt>
<trkpt lat="47.775643" lon="15.491998">
<ele>1018.5</ele>
<desc>Speed 81.0 km/h Distance 84.34 km</desc>
<time>2012-09-18T16:52:43.32</time>
<name>4230</name>
<sym>Dot</sym>
</trkpt>
<trkpt lat="47.775665" lon="15.491682">
<ele>1019.5</ele>
<desc>Speed 85.2 km/h Distance 84.36 km</desc>
<time>2012-09-18T16:52:44.32</time>
<name>4231</name>
<sym>Dot</sym>
</trkpt>
<trkpt lat="47.775655" lon="15.490967">
<ele>1021.0</ele>
<desc>Speed 96.5 km/h Distance 84.41 km</desc>
<time>2012-09-18T16:52:46.31</time>
<name>4232</name>
<sym>Dot</sym>
</trkpt>
<trkpt lat="47.775658" lon="15.490607">
<ele>1021.5</ele>
<desc>Speed 94.5 km/h Distance 84.44 km</desc>
<time>2012-09-18T16:52:47.30</time>
<name>4233</name>
<sym>Dot</sym>
</trkpt>
<trkpt lat="47.775670" lon="15.490265">
<ele>1022.0</ele>
<desc>Speed 91.4 km/h Distance 84.47 km</desc>
<time>2012-09-18T16:52:48.30</time>
<name>4234</name>
<sym>Dot</sym>
</trkpt>
<trkpt lat="47.775672" lon="15.489928">
<ele>1023.0</ele>
<desc>Speed 89.4 km/h Distance 84.49 km</desc>
<time>2012-09-18T16:52:49.30</time>
<name>4235</name>
<sym>Dot</sym>
</trkpt>
<trkpt lat="47.775653" lon="15.489583">
<ele>1027.0</ele>
<desc>Speed 92.3 km/h Distance 84.52 km</desc>
<time>2012-09-18T16:52:50.30</time>
<name>4236</name>
<sym>Dot</sym>
</trkpt>
<trkpt lat="47.775510" lon="15.488862">
<ele>1028.0</ele>
<desc>Speed 104 km/h Distance 84.57 km</desc>
<time>2012-09-18T16:52:52.28</time>
<name>4237</name>
<sym>Dot</sym>
</trkpt>
<trkpt lat="47.775410" lon="15.488495">
<ele>1030.0</ele>
<desc>Speed 105 km/h Distance 84.60 km</desc>
<time>2012-09-18T16:52:53.27</time>
<name>4238</name>
<sym>Dot</sym>
</trkpt>
<trkpt lat="47.775308" lon="15.488147">
<ele>1032.5</ele>
<desc>Speed 101 km/h Distance 84.63 km</desc>
<time>2012-09-18T16:52:54.27</time>
<name>4239</name>
<sym>Dot</sym>
</trkpt>
<trkpt lat="47.774953" lon="15.486858">
<ele>1035.0</ele>
<desc>Speed 61.3 km/h Distance 84.73 km</desc>
<time>2012-09-18T16:52:59.90</time>
<name>4240</name>
<sym>Dot</sym>
</trkpt>
<trkpt lat="47.774927" lon="15.486642">
<ele>1037.0</ele>
<desc>Speed 59.1 km/h Distance 84.75 km</desc>
<time>2012-09-18T16:53:00.90</time>
<name>4241</name>
<sym>Dot</sym>
</trkpt>
<trkpt lat="47.774908" lon="15.486428">
<ele>1037.0</ele>
<desc>Speed 57.5 km/h Distance 84.77 km</desc>
<time>2012-09-18T16:53:01.89</time>
<name>4242</name>
<sym>Dot</sym>
</trkpt>
<trkpt lat="47.774905" lon="15.486225">
<ele>1037.0</ele>
<desc>Speed 54.4 km/h Distance 84.78 km</desc>
<time>2012-09-18T16:53:02.87</time>
<name>4243</name>
<sym>Dot</sym>
</trkpt>
<trkpt lat="47.774907" lon="15.486023">
<ele>1036.0</ele>
<desc>Speed 53.9 km/h Distance 84.80 km</desc>
<time>2012-09-18T16:53:03.88</time>
<name>4244</name>
<sym>Dot</sym>
</trkpt>
<trkpt lat="47.774915" lon="15.485825">
<ele>1036.5</ele>
<desc>Speed 53.3 km/h Distance 84.81 km</desc>
<time>2012-09-18T16:53:04.87</time>
<name>4245</name>
<sym>Dot</sym>
</trkpt>
<trkpt lat="47.774932" lon="15.485620">
<ele>1037.0</ele>
<desc>Speed 55.5 km/h Distance 84.83 km</desc>
<time>2012-09-18T16:53:05.86</time>
<name>4246</name>
<sym>Dot</sym>
</trkpt>
<trkpt lat="47.774957" lon="15.485405">
<ele>1036.0</ele>
<desc>Speed 58.9 km/h Distance 84.84 km</desc>
<time>2012-09-18T16:53:06.86</time>
<name>4247</name>
<sym>Dot</sym>
</trkpt>
<trkpt lat="47.775068" lon="15.484908">
<ele>1035.5</ele>
<desc>Speed 70.7 km/h Distance 84.88 km</desc>
<time>2012-09-18T16:53:08.85</time>
<name>4248</name>
<sym>Dot</sym>
</trkpt>
<trkpt lat="47.775132" lon="15.484645">
<ele>1035.5</ele>
<desc>Speed 75.3 km/h Distance 84.90 km</desc>
<time>2012-09-18T16:53:09.85</time>
<name>4249</name>
<sym>Dot</sym>
</trkpt>
<trkpt lat="47.775195" lon="15.484378">
<ele>1035.5</ele>
<desc>Speed 75.5 km/h Distance 84.93 km</desc>
<time>2012-09-18T16:53:10.84</time>
<name>4250</name>
<sym>Dot</sym>
</trkpt>
<trkpt lat="47.775255" lon="15.484100">
<ele>1034.0</ele>
<desc>Speed 78.8 km/h Distance 84.95 km</desc>
<time>2012-09-18T16:53:11.84</time>
<name>4251</name>
<sym>Dot</sym>
</trkpt>
<trkpt lat="47.775307" lon="15.483807">
<ele>1032.0</ele>
<desc>Speed 81.3 km/h Distance 84.97 km</desc>
<time>2012-09-18T16:53:12.83</time>
<name>4252</name>
<sym>Dot</sym>
</trkpt>
<trkpt lat="47.775340" lon="15.483513">
<ele>1031.0</ele>
<desc>Speed 80.0 km/h Distance 84.99 km</desc>
<time>2012-09-18T16:53:13.83</time>
<name>4253</name>
<sym>Dot</sym>
</trkpt>
<trkpt lat="47.775357" lon="15.483230">
<ele>1032.0</ele>
<desc>Speed 76.9 km/h Distance 85.01 km</desc>
<time>2012-09-18T16:53:14.82</time>
<name>4254</name>
<sym>Dot</sym>
</trkpt>
<trkpt lat="47.775365" lon="15.482930">
<ele>1031.0</ele>
<desc>Speed 80.9 km/h Distance 85.04 km</desc>
<time>2012-09-18T16:53:15.82</time>
<name>4255</name>
<sym>Dot</sym>
</trkpt>
<trkpt lat="47.775350" lon="15.482610">
<ele>1032.0</ele>
<desc>Speed 87.1 km/h Distance 85.06 km</desc>
<time>2012-09-18T16:53:16.82</time>
<name>4256</name>
<sym>Dot</sym>
</trkpt>
<trkpt lat="47.775320" lon="15.482293">
<ele>1033.0</ele>
<desc>Speed 86.3 km/h Distance 85.08 km</desc>
<time>2012-09-18T16:53:17.81</time>
<name>4257</name>
<sym>Dot</sym>
</trkpt>
<trkpt lat="47.775280" lon="15.481988">
<ele>1032.0</ele>
<desc>Speed 84.1 km/h Distance 85.11 km</desc>
<time>2012-09-18T16:53:18.80</time>
<name>4258</name>
<sym>Dot</sym>
</trkpt>
<trkpt lat="47.775215" lon="15.481677">
<ele>1033.0</ele>
<desc>Speed 88.1 km/h Distance 85.13 km</desc>
<time>2012-09-18T16:53:19.81</time>
<name>4259</name>
<sym>Dot</sym>
</trkpt>
<trkpt lat="47.775132" lon="15.481368">
<ele>1033.5</ele>
<desc>Speed 89.9 km/h Distance 85.16 km</desc>
<time>2012-09-18T16:53:20.79</time>
<name>4260</name>
<sym>Dot</sym>
</trkpt>
<trkpt lat="47.775038" lon="15.481073">
<ele>1031.5</ele>
<desc>Speed 88.0 km/h Distance 85.18 km</desc>
<time>2012-09-18T16:53:21.79</time>
<name>4261</name>
<sym>Dot</sym>
</trkpt>
<trkpt lat="47.774922" lon="15.480803">
<ele>1032.0</ele>
<desc>Speed 86.3 km/h Distance 85.21 km</desc>
<time>2012-09-18T16:53:22.80</time>
<name>4262</name>
<sym>Dot</sym>
</trkpt>
<trkpt lat="47.774803" lon="15.480543">
<ele>1030.5</ele>
<desc>Speed 84.7 km/h Distance 85.23 km</desc>
<time>2012-09-18T16:53:23.78</time>
<name>4263</name>
<sym>Dot</sym>
</trkpt>
<trkpt lat="47.774670" lon="15.480290">
<ele>1028.5</ele>
<desc>Speed 86.3 km/h Distance 85.25 km</desc>
<time>2012-09-18T16:53:24.79</time>
<name>4264</name>
<sym>Dot</sym>
</trkpt>
<trkpt lat="47.774525" lon="15.480057">
<ele>1028.0</ele>
<desc>Speed 85.9 km/h Distance 85.28 km</desc>
<time>2012-09-18T16:53:25.77</time>
<name>4265</name>
<sym>Dot</sym>
</trkpt>
<trkpt lat="47.774365" lon="15.479853">
<ele>1027.0</ele>
<desc>Speed 83.8 km/h Distance 85.30 km</desc>
<time>2012-09-18T16:53:26.77</time>
<name>4266</name>
<sym>Dot</sym>
</trkpt>
<trkpt lat="47.773982" lon="15.479368">
<ele>1027.5</ele>
<desc>Speed 64.0 km/h Distance 85.36 km</desc>
<time>2012-09-18T16:53:29.90</time>
<name>4267</name>
<sym>Dot</sym>
</trkpt>
<trkpt lat="47.773870" lon="15.479198">
<ele>1027.5</ele>
<desc>Speed 63.7 km/h Distance 85.37 km</desc>
<time>2012-09-18T16:53:30.90</time>
<name>4268</name>
<sym>Dot</sym>
</trkpt>
<trkpt lat="47.773663" lon="15.478748">
<ele>1024.0</ele>
<desc>Speed 75.0 km/h Distance 85.41 km</desc>
<time>2012-09-18T16:53:32.88</time>
<name>4269</name>
<sym>Dot</sym>
</trkpt>
<trkpt lat="47.773560" lon="15.478488">
<ele>1024.0</ele>
<desc>Speed 80.7 km/h Distance 85.44 km</desc>
<time>2012-09-18T16:53:33.88</time>
<name>4270</name>
<sym>Dot</sym>
</trkpt>
<trkpt lat="47.773463" lon="15.478213">
<ele>1024.0</ele>
<desc>Speed 83.7 km/h Distance 85.46 km</desc>
<time>2012-09-18T16:53:34.87</time>
<name>4271</name>
<sym>Dot</sym>
</trkpt>
<trkpt lat="47.773377" lon="15.477918">
<ele>1022.5</ele>
<desc>Speed 86.2 km/h Distance 85.48 km</desc>
<time>2012-09-18T16:53:35.87</time>
<name>4272</name>
<sym>Dot</sym>
</trkpt>
<trkpt lat="47.773293" lon="15.477608">
<ele>1020.5</ele>
<desc>Speed 89.4 km/h Distance 85.51 km</desc>
<time>2012-09-18T16:53:36.86</time>
<name>4273</name>
<sym>Dot</sym>
</trkpt>
<trkpt lat="47.773218" lon="15.477305">
<ele>1020.0</ele>
<desc>Speed 86.6 km/h Distance 85.53 km</desc>
<time>2012-09-18T16:53:37.85</time>
<name>4274</name>
<sym>Dot</sym>
</trkpt>
<trkpt lat="47.773152" lon="15.476990">
<ele>1018.5</ele>
<desc>Speed 88.7 km/h Distance 85.56 km</desc>
<time>2012-09-18T16:53:38.84</time>
<name>4275</name>
<sym>Dot</sym>
</trkpt>
<trkpt lat="47.773097" lon="15.476668">
<ele>1016.5</ele>
<desc>Speed 89.3 km/h Distance 85.58 km</desc>
<time>2012-09-18T16:53:39.84</time>
<name>4276</name>
<sym>Dot</sym>
</trkpt>
<trkpt lat="47.773052" lon="15.476340">
<ele>1016.0</ele>
<desc>Speed 89.9 km/h Distance 85.61 km</desc>
<time>2012-09-18T16:53:40.82</time>
<name>4277</name>
<sym>Dot</sym>
</trkpt>
<trkpt lat="47.773012" lon="15.475997">
<ele>1016.0</ele>
<desc>Speed 94.0 km/h Distance 85.63 km</desc>
<time>2012-09-18T16:53:41.82</time>
<name>4278</name>
<sym>Dot</sym>
</trkpt>
<trkpt lat="47.772973" lon="15.475638">
<ele>1014.0</ele>
<desc>Speed 96.9 km/h Distance 85.66 km</desc>
<time>2012-09-18T16:53:42.82</time>
<name>4279</name>
<sym>Dot</sym>
</trkpt>
<trkpt lat="47.772933" lon="15.475278">
<ele>1014.0</ele>
<desc>Speed 98.0 km/h Distance 85.69 km</desc>
<time>2012-09-18T16:53:43.82</time>
<name>4280</name>
<sym>Dot</sym>
</trkpt>
<trkpt lat="47.772893" lon="15.474918">
<ele>1014.0</ele>
<desc>Speed 98.0 km/h Distance 85.72 km</desc>
<time>2012-09-18T16:53:44.81</time>
<name>4281</name>
<sym>Dot</sym>
</trkpt>
<trkpt lat="47.772858" lon="15.474553">
<ele>1012.5</ele>
<desc>Speed 99.0 km/h Distance 85.74 km</desc>
<time>2012-09-18T16:53:45.82</time>
<name>4282</name>
<sym>Dot</sym>
</trkpt>
<trkpt lat="47.772822" lon="15.474185">
<ele>1010.5</ele>
<desc>Speed 100 km/h Distance 85.77 km</desc>
<time>2012-09-18T16:53:46.81</time>
<name>4283</name>
<sym>Dot</sym>
</trkpt>
<trkpt lat="47.772780" lon="15.473818">
<ele>1009.0</ele>
<desc>Speed 99.8 km/h Distance 85.80 km</desc>
<time>2012-09-18T16:53:47.82</time>
<name>4284</name>
<sym>Dot</sym>
</trkpt>
<trkpt lat="47.772733" lon="15.473450">
<ele>1007.5</ele>
<desc>Speed 101 km/h Distance 85.83 km</desc>
<time>2012-09-18T16:53:48.81</time>
<name>4285</name>
<sym>Dot</sym>
</trkpt>
<trkpt lat="47.772662" lon="15.473102">
<ele>1006.5</ele>
<desc>Speed 98.1 km/h Distance 85.85 km</desc>
<time>2012-09-18T16:53:49.82</time>
<name>4286</name>
<sym>Dot</sym>
</trkpt>
<trkpt lat="47.772590" lon="15.472740">
<ele>1005.5</ele>
<desc>Speed 101 km/h Distance 85.88 km</desc>
<time>2012-09-18T16:53:50.79</time>
<name>4287</name>
<sym>Dot</sym>
</trkpt>
<trkpt lat="47.772512" lon="15.472378">
<ele>1003.5</ele>
<desc>Speed 102 km/h Distance 85.91 km</desc>
<time>2012-09-18T16:53:51.79</time>
<name>4288</name>
<sym>Dot</sym>
</trkpt>
<trkpt lat="47.772433" lon="15.472018">
<ele>1002.0</ele>
<desc>Speed 102 km/h Distance 85.94 km</desc>
<time>2012-09-18T16:53:52.79</time>
<name>4289</name>
<sym>Dot</sym>
</trkpt>
<trkpt lat="47.772353" lon="15.471662">
<ele>1000.0</ele>
<desc>Speed 101 km/h Distance 85.97 km</desc>
<time>2012-09-18T16:53:53.78</time>
<name>4290</name>
<sym>Dot</sym>
</trkpt>
<trkpt lat="47.772277" lon="15.471308">
<ele>998.5</ele>
<desc>Speed 100 km/h Distance 86.00 km</desc>
<time>2012-09-18T16:53:54.78</time>
<name>4291</name>
<sym>Dot</sym>
</trkpt>
<trkpt lat="47.772205" lon="15.470962">
<ele>998.5</ele>
<desc>Speed 97.5 km/h Distance 86.02 km</desc>
<time>2012-09-18T16:53:55.79</time>
<name>4292</name>
<sym>Dot</sym>
</trkpt>
<trkpt lat="47.772137" lon="15.470615">
<ele>998.0</ele>
<desc>Speed 97.2 km/h Distance 86.05 km</desc>
<time>2012-09-18T16:53:56.78</time>
<name>4293</name>
<sym>Dot</sym>
</trkpt>
<trkpt lat="47.772073" lon="15.470255">
<ele>996.0</ele>
<desc>Speed 100 km/h Distance 86.08 km</desc>
<time>2012-09-18T16:53:57.78</time>
<name>4294</name>
<sym>Dot</sym>
</trkpt>
<trkpt lat="47.772010" lon="15.469898">
<ele>995.5</ele>
<desc>Speed 99.2 km/h Distance 86.11 km</desc>
<time>2012-09-18T16:53:58.77</time>
<name>4295</name>
<sym>Dot</sym>
</trkpt>
<trkpt lat="47.771950" lon="15.469542">
<ele>995.0</ele>
<desc>Speed 99.0 km/h Distance 86.13 km</desc>
<time>2012-09-18T16:53:59.78</time>
<name>4296</name>
<sym>Dot</sym>
</trkpt>
<trkpt lat="47.771888" lon="15.469193">
<ele>994.5</ele>
<desc>Speed 96.8 km/h Distance 86.16 km</desc>
<time>2012-09-18T16:54:00.78</time>
<name>4297</name>
<sym>Dot</sym>
</trkpt>
<trkpt lat="47.771828" lon="15.468853">
<ele>994.5</ele>
<desc>Speed 94.3 km/h Distance 86.19 km</desc>
<time>2012-09-18T16:54:01.77</time>
<name>4298</name>
<sym>Dot</sym>
</trkpt>
<trkpt lat="47.771767" lon="15.468523">
<ele>994.5</ele>
<desc>Speed 92.4 km/h Distance 86.21 km</desc>
<time>2012-09-18T16:54:02.77</time>
<name>4299</name>
<sym>Dot</sym>
</trkpt>
<trkpt lat="47.771698" lon="15.468198">
<ele>992.0</ele>
<desc>Speed 91.8 km/h Distance 86.24 km</desc>
<time>2012-09-18T16:54:03.76</time>
<name>4300</name>
<sym>Dot</sym>
</trkpt>
<trkpt lat="47.771612" lon="15.467880">
<ele>990.0</ele>
<desc>Speed 92.6 km/h Distance 86.26 km</desc>
<time>2012-09-18T16:54:04.76</time>
<name>4301</name>
<sym>Dot</sym>
</trkpt>
<trkpt lat="47.771498" lon="15.467575">
<ele>990.0</ele>
<desc>Speed 93.9 km/h Distance 86.29 km</desc>
<time>2012-09-18T16:54:05.75</time>
<name>4302</name>
<sym>Dot</sym>
</trkpt>
<trkpt lat="47.771385" lon="15.467287">
<ele>988.0</ele>
<desc>Speed 89.8 km/h Distance 86.31 km</desc>
<time>2012-09-18T16:54:06.74</time>
<name>4303</name>
<sym>Dot</sym>
</trkpt>
<trkpt lat="47.771185" lon="15.466765">
<ele>982.5</ele>
<desc>Speed 79.7 km/h Distance 86.36 km</desc>
<time>2012-09-18T16:54:08.73</time>
<name>4304</name>
<sym>Dot</sym>
</trkpt>
<trkpt lat="47.771103" lon="15.466500">
<ele>980.0</ele>
<desc>Speed 78.6 km/h Distance 86.38 km</desc>
<time>2012-09-18T16:54:09.72</time>
<name>4305</name>
<sym>Dot</sym>
</trkpt>
<trkpt lat="47.771037" lon="15.466222">
<ele>978.5</ele>
<desc>Speed 79.6 km/h Distance 86.40 km</desc>
<time>2012-09-18T16:54:10.72</time>
<name>4306</name>
<sym>Dot</sym>
</trkpt>
<trkpt lat="47.771003" lon="15.465923">
<ele>978.0</ele>
<desc>Speed 81.3 km/h Distance 86.43 km</desc>
<time>2012-09-18T16:54:11.73</time>
<name>4307</name>
<sym>Dot</sym>
</trkpt>
<trkpt lat="47.770992" lon="15.465602">
<ele>977.0</ele>
<desc>Speed 87.0 km/h Distance 86.45 km</desc>
<time>2012-09-18T16:54:12.72</time>
<name>4308</name>
<sym>Dot</sym>
</trkpt>
<trkpt lat="47.770983" lon="15.465278">
<ele>977.0</ele>
<desc>Speed 86.3 km/h Distance 86.47 km</desc>
<time>2012-09-18T16:54:13.71</time>
<name>4309</name>
<sym>Dot</sym>
</trkpt>
<trkpt lat="47.771003" lon="15.464737">
<ele>975.0</ele>
<desc>Speed 73.6 km/h Distance 86.51 km</desc>
<time>2012-09-18T16:54:15.70</time>
<name>4310</name>
<sym>Dot</sym>
</trkpt>
<trkpt lat="47.770988" lon="15.464462">
<ele>975.0</ele>
<desc>Speed 74.1 km/h Distance 86.53 km</desc>
<time>2012-09-18T16:54:16.71</time>
<name>4311</name>
<sym>Dot</sym>
</trkpt>
<trkpt lat="47.770938" lon="15.464183">
<ele>975.0</ele>
<desc>Speed 76.9 km/h Distance 86.56 km</desc>
<time>2012-09-18T16:54:17.70</time>
<name>4312</name>
<sym>Dot</sym>
</trkpt>
<trkpt lat="47.770858" lon="15.463908">
<ele>976.0</ele>
<desc>Speed 80.3 km/h Distance 86.58 km</desc>
<time>2012-09-18T16:54:18.70</time>
<name>4313</name>
<sym>Dot</sym>
</trkpt>
<trkpt lat="47.770753" lon="15.463663">
<ele>975.5</ele>
<desc>Speed 78.2 km/h Distance 86.60 km</desc>
<time>2012-09-18T16:54:19.70</time>
<name>4314</name>
<sym>Dot</sym>
</trkpt>
<trkpt lat="47.770617" lon="15.463438">
<ele>974.0</ele>
<desc>Speed 82.5 km/h Distance 86.62 km</desc>
<time>2012-09-18T16:54:20.69</time>
<name>4315</name>
<sym>Dot</sym>
</trkpt>
<trkpt lat="47.770363" lon="15.463027">
<ele>972.5</ele>
<desc>Speed 75.4 km/h Distance 86.66 km</desc>
<time>2012-09-18T16:54:22.69</time>
<name>4316</name>
<sym>Dot</sym>
</trkpt>
<trkpt lat="47.770245" lon="15.462808">
<ele>971.0</ele>
<desc>Speed 75.6 km/h Distance 86.69 km</desc>
<time>2012-09-18T16:54:23.69</time>
<name>4317</name>
<sym>Dot</sym>
</trkpt>
<trkpt lat="47.770137" lon="15.462567">
<ele>969.5</ele>
<desc>Speed 78.5 km/h Distance 86.71 km</desc>
<time>2012-09-18T16:54:24.69</time>
<name>4318</name>
<sym>Dot</sym>
</trkpt>
<trkpt lat="47.770047" lon="15.462308">
<ele>967.5</ele>
<desc>Speed 78.9 km/h Distance 86.73 km</desc>
<time>2012-09-18T16:54:25.68</time>
<name>4319</name>
<sym>Dot</sym>
</trkpt>
<trkpt lat="47.769970" lon="15.462043">
<ele>967.0</ele>
<desc>Speed 76.5 km/h Distance 86.75 km</desc>
<time>2012-09-18T16:54:26.68</time>
<name>4320</name>
<sym>Dot</sym>
</trkpt>
<trkpt lat="47.769933" lon="15.461775">
<ele>966.5</ele>
<desc>Speed 73.3 km/h Distance 86.77 km</desc>
<time>2012-09-18T16:54:27.68</time>
<name>4321</name>
<sym>Dot</sym>
</trkpt>
<trkpt lat="47.769890" lon="15.461303">
<ele>968.5</ele>
<desc>Speed 62.2 km/h Distance 86.81 km</desc>
<time>2012-09-18T16:54:29.67</time>
<name>4322</name>
<sym>Dot</sym>
</trkpt>
<trkpt lat="47.769912" lon="15.461050">
<ele>967.0</ele>
<desc>Speed 68.5 km/h Distance 86.83 km</desc>
<time>2012-09-18T16:54:30.66</time>
<name>4323</name>
<sym>Dot</sym>
</trkpt>
<trkpt lat="47.769977" lon="15.460785">
<ele>966.5</ele>
<desc>Speed 75.5 km/h Distance 86.85 km</desc>
<time>2012-09-18T16:54:31.66</time>
<name>4324</name>
<sym>Dot</sym>
</trkpt>
<trkpt lat="47.770143" lon="15.460213">
<ele>964.5</ele>
<desc>Speed 81.9 km/h Distance 86.89 km</desc>
<time>2012-09-18T16:54:33.65</time>
<name>4325</name>
<sym>Dot</sym>
</trkpt>
<trkpt lat="47.770407" lon="15.459572">
<ele>961.0</ele>
<desc>Speed 65.9 km/h Distance 86.95 km</desc>
<time>2012-09-18T16:54:36.90</time>
<name>4326</name>
<sym>Dot</sym>
</trkpt>
<trkpt lat="47.770708" lon="15.459237">
<ele>959.5</ele>
<desc>Speed 76.9 km/h Distance 86.99 km</desc>
<time>2012-09-18T16:54:38.89</time>
<name>4327</name>
<sym>Dot</sym>
</trkpt>
<trkpt lat="47.770865" lon="15.459075">
<ele>958.0</ele>
<desc>Speed 76.4 km/h Distance 87.01 km</desc>
<time>2012-09-18T16:54:39.87</time>
<name>4328</name>
<sym>Dot</sym>
</trkpt>
<trkpt lat="47.771002" lon="15.458875">
<ele>957.5</ele>
<desc>Speed 76.2 km/h Distance 87.03 km</desc>
<time>2012-09-18T16:54:40.87</time>
<name>4329</name>
<sym>Dot</sym>
</trkpt>
<trkpt lat="47.771112" lon="15.458632">
<ele>957.5</ele>
<desc>Speed 78.8 km/h Distance 87.06 km</desc>
<time>2012-09-18T16:54:41.87</time>
<name>4330</name>
<sym>Dot</sym>
</trkpt>
<trkpt lat="47.771202" lon="15.458368">
<ele>956.0</ele>
<desc>Speed 79.8 km/h Distance 87.08 km</desc>
<time>2012-09-18T16:54:42.87</time>
<name>4331</name>
<sym>Dot</sym>
</trkpt>
<trkpt lat="47.771270" lon="15.458092">
<ele>954.5</ele>
<desc>Speed 79.2 km/h Distance 87.10 km</desc>
<time>2012-09-18T16:54:43.86</time>
<name>4332</name>
<sym>Dot</sym>
</trkpt>
<trkpt lat="47.771332" lon="15.457827">
<ele>953.0</ele>
<desc>Speed 75.6 km/h Distance 87.12 km</desc>
<time>2012-09-18T16:54:44.85</time>
<name>4333</name>
<sym>Dot</sym>
</trkpt>
<trkpt lat="47.771413" lon="15.457588">
<ele>951.5</ele>
<desc>Speed 72.3 km/h Distance 87.14 km</desc>
<time>2012-09-18T16:54:45.85</time>
<name>4334</name>
<sym>Dot</sym>
</trkpt>
<trkpt lat="47.771530" lon="15.457358">
<ele>952.5</ele>
<desc>Speed 77.5 km/h Distance 87.16 km</desc>
<time>2012-09-18T16:54:46.85</time>
<name>4335</name>
<sym>Dot</sym>
</trkpt>
<trkpt lat="47.771678" lon="15.457145">
<ele>953.0</ele>
<desc>Speed 83.2 km/h Distance 87.19 km</desc>
<time>2012-09-18T16:54:47.83</time>
<name>4336</name>
<sym>Dot</sym>
</trkpt>
<trkpt lat="47.771833" lon="15.456947">
<ele>952.0</ele>
<desc>Speed 81.9 km/h Distance 87.21 km</desc>
<time>2012-09-18T16:54:48.84</time>
<name>4337</name>
<sym>Dot</sym>
</trkpt>
<trkpt lat="47.772152" lon="15.456498">
<ele>950.5</ele>
<desc>Speed 84.7 km/h Distance 87.26 km</desc>
<time>2012-09-18T16:54:50.84</time>
<name>4338</name>
<sym>Dot</sym>
</trkpt>
<trkpt lat="47.772282" lon="15.456263">
<ele>948.5</ele>
<desc>Speed 80.8 km/h Distance 87.28 km</desc>
<time>2012-09-18T16:54:51.84</time>
<name>4339</name>
<sym>Dot</sym>
</trkpt>
<trkpt lat="47.772395" lon="15.456030">
<ele>947.0</ele>
<desc>Speed 77.6 km/h Distance 87.30 km</desc>
<time>2012-09-18T16:54:52.84</time>
<name>4340</name>
<sym>Dot</sym>
</trkpt>
<trkpt lat="47.772498" lon="15.455783">
<ele>946.0</ele>
<desc>Speed 78.7 km/h Distance 87.32 km</desc>
<time>2012-09-18T16:54:53.83</time>
<name>4341</name>
<sym>Dot</sym>
</trkpt>
<trkpt lat="47.772590" lon="15.455530">
<ele>945.0</ele>
<desc>Speed 77.9 km/h Distance 87.35 km</desc>
<time>2012-09-18T16:54:54.89</time>
<name>4342</name>
<sym>Dot</sym>
</trkpt>
<trkpt lat="47.772752" lon="15.455017">
<ele>938.5</ele>
<desc>Speed 73.4 km/h Distance 87.39 km</desc>
<time>2012-09-18T16:54:56.79</time>
<name>4343</name>
<sym>Dot</sym>
</trkpt>
<trkpt lat="47.772810" lon="15.454772">
<ele>937.5</ele>
<desc>Speed 70.3 km/h Distance 87.41 km</desc>
<time>2012-09-18T16:54:57.78</time>
<name>4344</name>
<sym>Dot</sym>
</trkpt>
<trkpt lat="47.772858" lon="15.454533">
<ele>936.0</ele>
<desc>Speed 67.8 km/h Distance 87.43 km</desc>
<time>2012-09-18T16:54:58.78</time>
<name>4345</name>
<sym>Dot</sym>
</trkpt>
<trkpt lat="47.772900" lon="15.454297">
<ele>935.0</ele>
<desc>Speed 66.1 km/h Distance 87.44 km</desc>
<time>2012-09-18T16:54:59.77</time>
<name>4346</name>
<sym>Dot</sym>
</trkpt>
<trkpt lat="47.772935" lon="15.454065">
<ele>933.5</ele>
<desc>Speed 65.2 km/h Distance 87.46 km</desc>
<time>2012-09-18T16:55:00.76</time>
<name>4347</name>
<sym>Dot</sym>
</trkpt>
<trkpt lat="47.772963" lon="15.453835">
<ele>932.0</ele>
<desc>Speed 63.1 km/h Distance 87.48 km</desc>
<time>2012-09-18T16:55:01.75</time>
<name>4348</name>
<sym>Dot</sym>
</trkpt>
<trkpt lat="47.772982" lon="15.453613">
<ele>930.5</ele>
<desc>Speed 60.7 km/h Distance 87.50 km</desc>
<time>2012-09-18T16:55:02.76</time>
<name>4349</name>
<sym>Dot</sym>
</trkpt>
<trkpt lat="47.772992" lon="15.453408">
<ele>929.5</ele>
<desc>Speed 56.1 km/h Distance 87.51 km</desc>
<time>2012-09-18T16:55:03.75</time>
<name>4350</name>
<sym>Dot</sym>
</trkpt>
<trkpt lat="47.772998" lon="15.453207">
<ele>928.0</ele>
<desc>Speed 55.4 km/h Distance 87.53 km</desc>
<time>2012-09-18T16:55:04.76</time>
<name>4351</name>
<sym>Dot</sym>
</trkpt>
<trkpt lat="47.773005" lon="15.453005">
<ele>927.5</ele>
<desc>Speed 55.0 km/h Distance 87.54 km</desc>
<time>2012-09-18T16:55:05.85</time>
<name>4352</name>
<sym>Dot</sym>
</trkpt>
<trkpt lat="47.773005" lon="15.452822">
<ele>926.5</ele>
<desc>Speed 50.0 km/h Distance 87.56 km</desc>
<time>2012-09-18T16:55:06.74</time>
<name>4353</name>
<sym>Dot</sym>
</trkpt>
<trkpt lat="47.773003" lon="15.452643">
<ele>926.0</ele>
<desc>Speed 48.5 km/h Distance 87.57 km</desc>
<time>2012-09-18T16:55:07.74</time>
<name>4354</name>
<sym>Dot</sym>
</trkpt>
<trkpt lat="47.773000" lon="15.452470">
<ele>925.0</ele>
<desc>Speed 46.9 km/h Distance 87.58 km</desc>
<time>2012-09-18T16:55:08.73</time>
<name>4355</name>
<sym>Dot</sym>
</trkpt>
<trkpt lat="47.772998" lon="15.452303">
<ele>924.5</ele>
<desc>Speed 45.3 km/h Distance 87.59 km</desc>
<time>2012-09-18T16:55:09.72</time>
<name>4356</name>
<sym>Dot</sym>
</trkpt>
<trkpt lat="47.773000" lon="15.452137">
<ele>923.0</ele>
<desc>Speed 45.3 km/h Distance 87.61 km</desc>
<time>2012-09-18T16:55:10.71</time>
<name>4357</name>
<sym>Dot</sym>
</trkpt>
<trkpt lat="47.773000" lon="15.451980">
<ele>922.0</ele>
<desc>Speed 43.0 km/h Distance 87.62 km</desc>
<time>2012-09-18T16:55:11.71</time>
<name>4358</name>
<sym>Dot</sym>
</trkpt>
<trkpt lat="47.773002" lon="15.451825">
<ele>921.5</ele>
<desc>Speed 42.2 km/h Distance 87.63 km</desc>
<time>2012-09-18T16:55:12.70</time>
<name>4359</name>
<sym>Dot</sym>
</trkpt>
<trkpt lat="47.773005" lon="15.451663">
<ele>921.0</ele>
<desc>Speed 44.2 km/h Distance 87.64 km</desc>
<time>2012-09-18T16:55:13.70</time>
<name>4360</name>
<sym>Dot</sym>
</trkpt>
<trkpt lat="47.773013" lon="15.451497">
<ele>920.0</ele>
<desc>Speed 45.5 km/h Distance 87.65 km</desc>
<time>2012-09-18T16:55:14.69</time>
<name>4361</name>
<sym>Dot</sym>
</trkpt>
<trkpt lat="47.773027" lon="15.451333">
<ele>919.0</ele>
<desc>Speed 44.7 km/h Distance 87.67 km</desc>
<time>2012-09-18T16:55:15.70</time>
<name>4362</name>
<sym>Dot</sym>
</trkpt>
<trkpt lat="47.773047" lon="15.451183">
<ele>918.0</ele>
<desc>Speed 42.4 km/h Distance 87.68 km</desc>
<time>2012-09-18T16:55:16.68</time>
<name>4363</name>
<sym>Dot</sym>
</trkpt>
<trkpt lat="47.773073" lon="15.451038">
<ele>916.5</ele>
<desc>Speed 41.3 km/h Distance 87.69 km</desc>
<time>2012-09-18T16:55:17.68</time>
<name>4364</name>
<sym>Dot</sym>
</trkpt>
<trkpt lat="47.773103" lon="15.450900">
<ele>914.5</ele>
<desc>Speed 39.8 km/h Distance 87.70 km</desc>
<time>2012-09-18T16:55:18.67</time>
<name>4365</name>
<sym>Dot</sym>
</trkpt>
<trkpt lat="47.773133" lon="15.450773">
<ele>913.5</ele>
<desc>Speed 36.8 km/h Distance 87.71 km</desc>
<time>2012-09-18T16:55:19.68</time>
<name>4366</name>
<sym>Dot</sym>
</trkpt>
<trkpt lat="47.773163" lon="15.450667">
<ele>912.5</ele>
<desc>Speed 31.4 km/h Distance 87.72 km</desc>
<time>2012-09-18T16:55:20.66</time>
<name>4367</name>
<sym>Dot</sym>
</trkpt>
<trkpt lat="47.773192" lon="15.450575">
<ele>911.5</ele>
<desc>Speed 26.8 km/h Distance 87.73 km</desc>
<time>2012-09-18T16:55:21.66</time>
<name>4368</name>
<sym>Dot</sym>
</trkpt>
<trkpt lat="47.773215" lon="15.450510">
<ele>911.5</ele>
<desc>Speed 19.6 km/h Distance 87.73 km</desc>
<time>2012-09-18T16:55:22.66</time>
<name>4369</name>
<sym>Dot</sym>
</trkpt>
<trkpt lat="47.773248" lon="15.450438">
<ele>911.0</ele>
<desc>Speed 11.0 km/h Distance 87.74 km</desc>
<time>2012-09-18T16:55:24.64</time>
<name>4370</name>
<sym>Dot</sym>
</trkpt>
<trkpt lat="47.773265" lon="15.450413">
<ele>910.5</ele>
<desc>Speed 10.1 km/h Distance 87.74 km</desc>
<time>2012-09-18T16:55:25.64</time>
<name>4371</name>
<sym>Dot</sym>
</trkpt>
<trkpt lat="47.773300" lon="15.450378">
<ele>910.5</ele>
<desc>Speed 16.6 km/h Distance 87.75 km</desc>
<time>2012-09-18T16:55:26.63</time>
<name>4372</name>
<sym>Dot</sym>
</trkpt>
<trkpt lat="47.773433" lon="15.450302">
<ele>907.5</ele>
<desc>Speed 26.4 km/h Distance 87.76 km</desc>
<time>2012-09-18T16:55:28.63</time>
<name>4373</name>
<sym>Dot</sym>
</trkpt>
<trkpt lat="47.773513" lon="15.450275">
<ele>907.5</ele>
<desc>Speed 32.3 km/h Distance 87.77 km</desc>
<time>2012-09-18T16:55:29.62</time>
<name>4374</name>
<sym>Dot</sym>
</trkpt>
<trkpt lat="47.773708" lon="15.450183">
<ele>908.0</ele>
<desc>Speed 41.6 km/h Distance 87.79 km</desc>
<time>2012-09-18T16:55:31.62</time>
<name>4375</name>
<sym>Dot</sym>
</trkpt>
<trkpt lat="47.773808" lon="15.450122">
<ele>908.0</ele>
<desc>Speed 43.2 km/h Distance 87.81 km</desc>
<time>2012-09-18T16:55:32.61</time>
<name>4376</name>
<sym>Dot</sym>
</trkpt>
<trkpt lat="47.773913" lon="15.450048">
<ele>908.0</ele>
<desc>Speed 46.5 km/h Distance 87.82 km</desc>
<time>2012-09-18T16:55:33.60</time>
<name>4377</name>
<sym>Dot</sym>
</trkpt>
<trkpt lat="47.774025" lon="15.449967">
<ele>908.0</ele>
<desc>Speed 49.2 km/h Distance 87.83 km</desc>
<time>2012-09-18T16:55:34.60</time>
<name>4378</name>
<sym>Dot</sym>
</trkpt>
<trkpt lat="47.774132" lon="15.449885">
<ele>908.0</ele>
<desc>Speed 48.5 km/h Distance 87.85 km</desc>
<time>2012-09-18T16:55:35.59</time>
<name>4379</name>
<sym>Dot</sym>
</trkpt>
<trkpt lat="47.774243" lon="15.449793">
<ele>908.0</ele>
<desc>Speed 50.7 km/h Distance 87.86 km</desc>
<time>2012-09-18T16:55:36.59</time>
<name>4380</name>
<sym>Dot</sym>
</trkpt>
<trkpt lat="47.775288" lon="15.448707">
<ele>905.0</ele>
<desc>Speed 102 km/h Distance 88.00 km</desc>
<time>2012-09-18T16:55:42.88</time>
<name>4381</name>
<sym>Dot</sym>
</trkpt>
<trkpt lat="47.775475" lon="15.448472">
<ele>905.5</ele>
<desc>Speed 98.1 km/h Distance 88.03 km</desc>
<time>2012-09-18T16:55:43.88</time>
<name>4382</name>
<sym>Dot</sym>
</trkpt>
<trkpt lat="47.775672" lon="15.448230">
<ele>905.0</ele>
<desc>Speed 103 km/h Distance 88.06 km</desc>
<time>2012-09-18T16:55:44.88</time>
<name>4383</name>
<sym>Dot</sym>
</trkpt>
<trkpt lat="47.775863" lon="15.448003">
<ele>904.5</ele>
<desc>Speed 98.9 km/h Distance 88.08 km</desc>
<time>2012-09-18T16:55:45.87</time>
<name>4384</name>
<sym>Dot</sym>
</trkpt>
<trkpt lat="47.776080" lon="15.447800">
<ele>903.5</ele>
<desc>Speed 103 km/h Distance 88.11 km</desc>
<time>2012-09-18T16:55:46.87</time>
<name>4385</name>
<sym>Dot</sym>
</trkpt>
<trkpt lat="47.776298" lon="15.447635">
<ele>903.5</ele>
<desc>Speed 98.7 km/h Distance 88.14 km</desc>
<time>2012-09-18T16:55:47.87</time>
<name>4386</name>
<sym>Dot</sym>
</trkpt>
<trkpt lat="47.776520" lon="15.447455">
<ele>905.5</ele>
<desc>Speed 101 km/h Distance 88.17 km</desc>
<time>2012-09-18T16:55:48.86</time>
<name>4387</name>
<sym>Dot</sym>
</trkpt>
<trkpt lat="47.776750" lon="15.447303">
<ele>905.5</ele>
<desc>Speed 101 km/h Distance 88.20 km</desc>
<time>2012-09-18T16:55:49.86</time>
<name>4388</name>
<sym>Dot</sym>
</trkpt>
<trkpt lat="47.776970" lon="15.447148">
<ele>905.5</ele>
<desc>Speed 97.7 km/h Distance 88.22 km</desc>
<time>2012-09-18T16:55:50.86</time>
<name>4389</name>
<sym>Dot</sym>
</trkpt>
<trkpt lat="47.777203" lon="15.447028">
<ele>907.0</ele>
<desc>Speed 99.7 km/h Distance 88.25 km</desc>
<time>2012-09-18T16:55:51.86</time>
<name>4390</name>
<sym>Dot</sym>
</trkpt>
<trkpt lat="47.777443" lon="15.446927">
<ele>908.5</ele>
<desc>Speed 100 km/h Distance 88.28 km</desc>
<time>2012-09-18T16:55:52.86</time>
<name>4391</name>
<sym>Dot</sym>
</trkpt>
<trkpt lat="47.777690" lon="15.446840">
<ele>911.5</ele>
<desc>Speed 101 km/h Distance 88.31 km</desc>
<time>2012-09-18T16:55:53.86</time>
<name>4392</name>
<sym>Dot</sym>
</trkpt>
<trkpt lat="47.777947" lon="15.446772">
<ele>914.5</ele>
<desc>Speed 104 km/h Distance 88.34 km</desc>
<time>2012-09-18T16:55:54.85</time>
<name>4393</name>
<sym>Dot</sym>
</trkpt>
<trkpt lat="47.778210" lon="15.446720">
<ele>916.0</ele>
<desc>Speed 107 km/h Distance 88.37 km</desc>
<time>2012-09-18T16:55:55.84</time>
<name>4394</name>
<sym>Dot</sym>
</trkpt>
<trkpt lat="47.778478" lon="15.446670">
<ele>918.0</ele>
<desc>Speed 109 km/h Distance 88.40 km</desc>
<time>2012-09-18T16:55:56.84</time>
<name>4395</name>
<sym>Dot</sym>
</trkpt>
<trkpt lat="47.778753" lon="15.446615">
<ele>920.5</ele>
<desc>Speed 111 km/h Distance 88.43 km</desc>
<time>2012-09-18T16:55:57.83</time>
<name>4396</name>
<sym>Dot</sym>
</trkpt>
<trkpt lat="47.779033" lon="15.446555">
<ele>923.0</ele>
<desc>Speed 113 km/h Distance 88.46 km</desc>
<time>2012-09-18T16:55:58.84</time>
<name>4397</name>
<sym>Dot</sym>
</trkpt>
<trkpt lat="47.779317" lon="15.446487">
<ele>925.0</ele>
<desc>Speed 115 km/h Distance 88.49 km</desc>
<time>2012-09-18T16:55:59.83</time>
<name>4398</name>
<sym>Dot</sym>
</trkpt>
<trkpt lat="47.779598" lon="15.446415">
<ele>926.5</ele>
<desc>Speed 115 km/h Distance 88.52 km</desc>
<time>2012-09-18T16:56:00.83</time>
<name>4399</name>
<sym>Dot</sym>
</trkpt>
<trkpt lat="47.779878" lon="15.446345">
<ele>927.0</ele>
<desc>Speed 113 km/h Distance 88.55 km</desc>
<time>2012-09-18T16:56:01.82</time>
<name>4400</name>
<sym>Dot</sym>
</trkpt>
<trkpt lat="47.780148" lon="15.446263">
<ele>927.5</ele>
<desc>Speed 110 km/h Distance 88.58 km</desc>
<time>2012-09-18T16:56:02.80</time>
<name>4401</name>
<sym>Dot</sym>
</trkpt>
<trkpt lat="47.780410" lon="15.446158">
<ele>929.0</ele>
<desc>Speed 108 km/h Distance 88.61 km</desc>
<time>2012-09-18T16:56:03.79</time>
<name>4402</name>
<sym>Dot</sym>
</trkpt>
<trkpt lat="47.780667" lon="15.446042">
<ele>929.0</ele>
<desc>Speed 108 km/h Distance 88.64 km</desc>
<time>2012-09-18T16:56:04.79</time>
<name>4403</name>
<sym>Dot</sym>
</trkpt>
<trkpt lat="47.780920" lon="15.445907">
<ele>931.5</ele>
<desc>Speed 108 km/h Distance 88.67 km</desc>
<time>2012-09-18T16:56:05.78</time>
<name>4404</name>
<sym>Dot</sym>
</trkpt>
<trkpt lat="47.781173" lon="15.445763">
<ele>933.5</ele>
<desc>Speed 109 km/h Distance 88.70 km</desc>
<time>2012-09-18T16:56:06.78</time>
<name>4405</name>
<sym>Dot</sym>
</trkpt>
<trkpt lat="47.781430" lon="15.445615">
<ele>935.5</ele>
<desc>Speed 111 km/h Distance 88.74 km</desc>
<time>2012-09-18T16:56:07.78</time>
<name>4406</name>
<sym>Dot</sym>
</trkpt>
<trkpt lat="47.781688" lon="15.445462">
<ele>937.5</ele>
<desc>Speed 111 km/h Distance 88.77 km</desc>
<time>2012-09-18T16:56:08.77</time>
<name>4407</name>
<sym>Dot</sym>
</trkpt>
<trkpt lat="47.781947" lon="15.445302">
<ele>939.5</ele>
<desc>Speed 112 km/h Distance 88.80 km</desc>
<time>2012-09-18T16:56:09.77</time>
<name>4408</name>
<sym>Dot</sym>
</trkpt>
<trkpt lat="47.782202" lon="15.445130">
<ele>941.5</ele>
<desc>Speed 113 km/h Distance 88.83 km</desc>
<time>2012-09-18T16:56:10.77</time>
<name>4409</name>
<sym>Dot</sym>
</trkpt>
<trkpt lat="47.782457" lon="15.444952">
<ele>943.0</ele>
<desc>Speed 113 km/h Distance 88.86 km</desc>
<time>2012-09-18T16:56:11.76</time>
<name>4410</name>
<sym>Dot</sym>
</trkpt>
<trkpt lat="47.782708" lon="15.444770">
<ele>944.5</ele>
<desc>Speed 113 km/h Distance 88.89 km</desc>
<time>2012-09-18T16:56:12.75</time>
<name>4411</name>
<sym>Dot</sym>
</trkpt>
<trkpt lat="47.782958" lon="15.444582">
<ele>946.5</ele>
<desc>Speed 112 km/h Distance 88.92 km</desc>
<time>2012-09-18T16:56:13.76</time>
<name>4412</name>
<sym>Dot</sym>
</trkpt>
<trkpt lat="47.783202" lon="15.444398">
<ele>948.5</ele>
<desc>Speed 109 km/h Distance 88.95 km</desc>
<time>2012-09-18T16:56:14.75</time>
<name>4413</name>
<sym>Dot</sym>
</trkpt>
<trkpt lat="47.783638" lon="15.444055">
<ele>950.0</ele>
<desc>Speed 96.8 km/h Distance 89.01 km</desc>
<time>2012-09-18T16:56:16.75</time>
<name>4414</name>
<sym>Dot</sym>
</trkpt>
<trkpt lat="47.783838" lon="15.443895">
<ele>951.5</ele>
<desc>Speed 91.0 km/h Distance 89.03 km</desc>
<time>2012-09-18T16:56:17.75</time>
<name>4415</name>
<sym>Dot</sym>
</trkpt>
<trkpt lat="47.784027" lon="15.443747">
<ele>952.0</ele>
<desc>Speed 85.6 km/h Distance 89.06 km</desc>
<time>2012-09-18T16:56:18.74</time>
<name>4416</name>
<sym>Dot</sym>
</trkpt>
<trkpt lat="47.784207" lon="15.443603">
<ele>953.0</ele>
<desc>Speed 82.4 km/h Distance 89.08 km</desc>
<time>2012-09-18T16:56:19.74</time>
<name>4417</name>
<sym>Dot</sym>
</trkpt>
<trkpt lat="47.784378" lon="15.443467">
<ele>953.5</ele>
<desc>Speed 78.2 km/h Distance 89.10 km</desc>
<time>2012-09-18T16:56:20.73</time>
<name>4418</name>
<sym>Dot</sym>
</trkpt>
<trkpt lat="47.784548" lon="15.443335">
<ele>954.5</ele>
<desc>Speed 76.9 km/h Distance 89.12 km</desc>
<time>2012-09-18T16:56:21.74</time>
<name>4419</name>
<sym>Dot</sym>
</trkpt>
<trkpt lat="47.784717" lon="15.443205">
<ele>955.0</ele>
<desc>Speed 76.3 km/h Distance 89.14 km</desc>
<time>2012-09-18T16:56:22.73</time>
<name>4420</name>
<sym>Dot</sym>
</trkpt>
<trkpt lat="47.784882" lon="15.443083">
<ele>955.5</ele>
<desc>Speed 74.0 km/h Distance 89.16 km</desc>
<time>2012-09-18T16:56:23.72</time>
<name>4421</name>
<sym>Dot</sym>
</trkpt>
<trkpt lat="47.785040" lon="15.442968">
<ele>956.0</ele>
<desc>Speed 70.6 km/h Distance 89.18 km</desc>
<time>2012-09-18T16:56:24.72</time>
<name>4422</name>
<sym>Dot</sym>
</trkpt>
<trkpt lat="47.785198" lon="15.442858">
<ele>956.5</ele>
<desc>Speed 70.4 km/h Distance 89.20 km</desc>
<time>2012-09-18T16:56:25.72</time>
<name>4423</name>
<sym>Dot</sym>
</trkpt>
<trkpt lat="47.785360" lon="15.442745">
<ele>957.0</ele>
<desc>Speed 71.6 km/h Distance 89.22 km</desc>
<time>2012-09-18T16:56:26.72</time>
<name>4424</name>
<sym>Dot</sym>
</trkpt>
<trkpt lat="47.785527" lon="15.442628">
<ele>957.0</ele>
<desc>Speed 74.1 km/h Distance 89.24 km</desc>
<time>2012-09-18T16:56:27.72</time>
<name>4425</name>
<sym>Dot</sym>
</trkpt>
<trkpt lat="47.785702" lon="15.442508">
<ele>957.5</ele>
<desc>Speed 76.9 km/h Distance 89.26 km</desc>
<time>2012-09-18T16:56:28.71</time>
<name>4426</name>
<sym>Dot</sym>
</trkpt>
<trkpt lat="47.785877" lon="15.442395">
<ele>957.5</ele>
<desc>Speed 76.5 km/h Distance 89.29 km</desc>
<time>2012-09-18T16:56:29.71</time>
<name>4427</name>
<sym>Dot</sym>
</trkpt>
<trkpt lat="47.786052" lon="15.442283">
<ele>957.5</ele>
<desc>Speed 76.7 km/h Distance 89.31 km</desc>
<time>2012-09-18T16:56:30.69</time>
<name>4428</name>
<sym>Dot</sym>
</trkpt>
<trkpt lat="47.786233" lon="15.442177">
<ele>957.5</ele>
<desc>Speed 77.8 km/h Distance 89.33 km</desc>
<time>2012-09-18T16:56:31.69</time>
<name>4429</name>
<sym>Dot</sym>
</trkpt>
<trkpt lat="47.786417" lon="15.442073">
<ele>957.5</ele>
<desc>Speed 78.9 km/h Distance 89.35 km</desc>
<time>2012-09-18T16:56:32.68</time>
<name>4430</name>
<sym>Dot</sym>
</trkpt>
<trkpt lat="47.786605" lon="15.441975">
<ele>957.0</ele>
<desc>Speed 79.8 km/h Distance 89.37 km</desc>
<time>2012-09-18T16:56:33.68</time>
<name>4431</name>
<sym>Dot</sym>
</trkpt>
<trkpt lat="47.786792" lon="15.441878">
<ele>957.0</ele>
<desc>Speed 79.2 km/h Distance 89.40 km</desc>
<time>2012-09-18T16:56:34.67</time>
<name>4432</name>
<sym>Dot</sym>
</trkpt>
<trkpt lat="47.786978" lon="15.441788">
<ele>957.0</ele>
<desc>Speed 78.4 km/h Distance 89.42 km</desc>
<time>2012-09-18T16:56:35.67</time>
<name>4433</name>
<sym>Dot</sym>
</trkpt>
<trkpt lat="47.787168" lon="15.441710">
<ele>956.5</ele>
<desc>Speed 78.8 km/h Distance 89.44 km</desc>
<time>2012-09-18T16:56:36.66</time>
<name>4434</name>
<sym>Dot</sym>
</trkpt>
<trkpt lat="47.787362" lon="15.441643">
<ele>956.5</ele>
<desc>Speed 79.4 km/h Distance 89.46 km</desc>
<time>2012-09-18T16:56:37.66</time>
<name>4435</name>
<sym>Dot</sym>
</trkpt>
<trkpt lat="47.787560" lon="15.441588">
<ele>956.5</ele>
<desc>Speed 80.8 km/h Distance 89.48 km</desc>
<time>2012-09-18T16:56:38.65</time>
<name>4436</name>
<sym>Dot</sym>
</trkpt>
<trkpt lat="47.787763" lon="15.441547">
<ele>956.5</ele>
<desc>Speed 81.9 km/h Distance 89.51 km</desc>
<time>2012-09-18T16:56:39.65</time>
<name>4437</name>
<sym>Dot</sym>
</trkpt>
<trkpt lat="47.787975" lon="15.441518">
<ele>956.5</ele>
<desc>Speed 85.3 km/h Distance 89.53 km</desc>
<time>2012-09-18T16:56:40.65</time>
<name>4438</name>
<sym>Dot</sym>
</trkpt>
<trkpt lat="47.788190" lon="15.441503">
<ele>957.0</ele>
<desc>Speed 86.0 km/h Distance 89.55 km</desc>
<time>2012-09-18T16:56:41.64</time>
<name>4439</name>
<sym>Dot</sym>
</trkpt>
<trkpt lat="47.788398" lon="15.441497">
<ele>958.0</ele>
<desc>Speed 83.6 km/h Distance 89.58 km</desc>
<time>2012-09-18T16:56:42.64</time>
<name>4440</name>
<sym>Dot</sym>
</trkpt>
<trkpt lat="47.788595" lon="15.441497">
<ele>958.0</ele>
<desc>Speed 79.1 km/h Distance 89.60 km</desc>
<time>2012-09-18T16:56:43.64</time>
<name>4441</name>
<sym>Dot</sym>
</trkpt>
<trkpt lat="47.788782" lon="15.441498">
<ele>957.5</ele>
<desc>Speed 74.8 km/h Distance 89.62 km</desc>
<time>2012-09-18T16:56:44.64</time>
<name>4442</name>
<sym>Dot</sym>
</trkpt>
<trkpt lat="47.788960" lon="15.441490">
<ele>958.0</ele>
<desc>Speed 71.8 km/h Distance 89.64 km</desc>
<time>2012-09-18T16:56:45.63</time>
<name>4443</name>
<sym>Dot</sym>
</trkpt>
<trkpt lat="47.789138" lon="15.441465">
<ele>957.5</ele>
<desc>Speed 71.3 km/h Distance 89.66 km</desc>
<time>2012-09-18T16:56:46.62</time>
<name>4444</name>
<sym>Dot</sym>
</trkpt>
<trkpt lat="47.789312" lon="15.441418">
<ele>957.0</ele>
<desc>Speed 71.1 km/h Distance 89.68 km</desc>
<time>2012-09-18T16:56:47.62</time>
<name>4445</name>
<sym>Dot</sym>
</trkpt>
<trkpt lat="47.789483" lon="15.441357">
<ele>957.0</ele>
<desc>Speed 70.5 km/h Distance 89.70 km</desc>
<time>2012-09-18T16:56:48.61</time>
<name>4446</name>
<sym>Dot</sym>
</trkpt>
<trkpt lat="47.789647" lon="15.441280">
<ele>957.5</ele>
<desc>Speed 68.6 km/h Distance 89.72 km</desc>
<time>2012-09-18T16:56:49.61</time>
<name>4447</name>
<sym>Dot</sym>
</trkpt>
<trkpt lat="47.789802" lon="15.441193">
<ele>958.5</ele>
<desc>Speed 66.3 km/h Distance 89.74 km</desc>
<time>2012-09-18T16:56:50.60</time>
<name>4448</name>
<sym>Dot</sym>
</trkpt>
<trkpt lat="47.789948" lon="15.441105">
<ele>957.5</ele>
<desc>Speed 63.5 km/h Distance 89.75 km</desc>
<time>2012-09-18T16:56:51.60</time>
<name>4449</name>
<sym>Dot</sym>
</trkpt>
<trkpt lat="47.790090" lon="15.441015">
<ele>957.0</ele>
<desc>Speed 62.0 km/h Distance 89.77 km</desc>
<time>2012-09-18T16:56:52.59</time>
<name>4450</name>
<sym>Dot</sym>
</trkpt>
<trkpt lat="47.790228" lon="15.440928">
<ele>956.5</ele>
<desc>Speed 60.1 km/h Distance 89.79 km</desc>
<time>2012-09-18T16:56:53.58</time>
<name>4451</name>
<sym>Dot</sym>
</trkpt>
<trkpt lat="47.790367" lon="15.440858">
<ele>955.5</ele>
<desc>Speed 58.6 km/h Distance 89.80 km</desc>
<time>2012-09-18T16:56:54.57</time>
<name>4452</name>
<sym>Dot</sym>
</trkpt>
<trkpt lat="47.790525" lon="15.440827">
<ele>954.0</ele>
<desc>Speed 63.7 km/h Distance 89.82 km</desc>
<time>2012-09-18T16:56:55.58</time>
<name>4453</name>
<sym>Dot</sym>
</trkpt>
<trkpt lat="47.790678" lon="15.440832">
<ele>954.0</ele>
<desc>Speed 61.0 km/h Distance 89.84 km</desc>
<time>2012-09-18T16:56:56.56</time>
<name>4454</name>
<sym>Dot</sym>
</trkpt>
<trkpt lat="47.790995" lon="15.440987">
<ele>955.0</ele>
<desc>Speed 62.1 km/h Distance 89.88 km</desc>
<time>2012-09-18T16:56:58.56</time>
<name>4455</name>
<sym>Dot</sym>
</trkpt>
<trkpt lat="47.791137" lon="15.441125">
<ele>955.0</ele>
<desc>Speed 67.9 km/h Distance 89.89 km</desc>
<time>2012-09-18T16:56:59.57</time>
<name>4456</name>
<sym>Dot</sym>
</trkpt>
<trkpt lat="47.791280" lon="15.441282">
<ele>954.0</ele>
<desc>Speed 70.8 km/h Distance 89.91 km</desc>
<time>2012-09-18T16:57:00.55</time>
<name>4457</name>
<sym>Dot</sym>
</trkpt>
<trkpt lat="47.791422" lon="15.441452">
<ele>952.5</ele>
<desc>Speed 72.9 km/h Distance 89.93 km</desc>
<time>2012-09-18T16:57:01.55</time>
<name>4458</name>
<sym>Dot</sym>
</trkpt>
<trkpt lat="47.791548" lon="15.441645">
<ele>953.0</ele>
<desc>Speed 72.9 km/h Distance 89.96 km</desc>
<time>2012-09-18T16:57:02.54</time>
<name>4459</name>
<sym>Dot</sym>
</trkpt>
<trkpt lat="47.791675" lon="15.441825">
<ele>953.5</ele>
<desc>Speed 69.9 km/h Distance 89.97 km</desc>
<time>2012-09-18T16:57:03.55</time>
<name>4460</name>
<sym>Dot</sym>
</trkpt>
<trkpt lat="47.791795" lon="15.441995">
<ele>953.5</ele>
<desc>Speed 66.7 km/h Distance 89.99 km</desc>
<time>2012-09-18T16:57:04.52</time>
<name>4461</name>
<sym>Dot</sym>
</trkpt>
<trkpt lat="47.791910" lon="15.442148">
<ele>954.0</ele>
<desc>Speed 61.7 km/h Distance 90.01 km</desc>
<time>2012-09-18T16:57:05.54</time>
<name>4462</name>
<sym>Dot</sym>
</trkpt>
<trkpt lat="47.792040" lon="15.442267">
<ele>954.0</ele>
<desc>Speed 61.2 km/h Distance 90.03 km</desc>
<time>2012-09-18T16:57:06.52</time>
<name>4463</name>
<sym>Dot</sym>
</trkpt>
<trkpt lat="47.792188" lon="15.442340">
<ele>954.0</ele>
<desc>Speed 62.8 km/h Distance 90.04 km</desc>
<time>2012-09-18T16:57:07.53</time>
<name>4464</name>
<sym>Dot</sym>
</trkpt>
<trkpt lat="47.792340" lon="15.442367">
<ele>954.0</ele>
<desc>Speed 61.0 km/h Distance 90.06 km</desc>
<time>2012-09-18T16:57:08.52</time>
<name>4465</name>
<sym>Dot</sym>
</trkpt>
<trkpt lat="47.792500" lon="15.442357">
<ele>953.5</ele>
<desc>Speed 64.1 km/h Distance 90.08 km</desc>
<time>2012-09-18T16:57:09.51</time>
<name>4466</name>
<sym>Dot</sym>
</trkpt>
<trkpt lat="47.792648" lon="15.442317">
<ele>955.0</ele>
<desc>Speed 60.5 km/h Distance 90.10 km</desc>
<time>2012-09-18T16:57:10.51</time>
<name>4467</name>
<sym>Dot</sym>
</trkpt>
<trkpt lat="47.792797" lon="15.442275">
<ele>956.5</ele>
<desc>Speed 59.3 km/h Distance 90.11 km</desc>
<time>2012-09-18T16:57:11.50</time>
<name>4468</name>
<sym>Dot</sym>
</trkpt>
<trkpt lat="47.792932" lon="15.442225">
<ele>956.5</ele>
<desc>Speed 55.3 km/h Distance 90.13 km</desc>
<time>2012-09-18T16:57:12.50</time>
<name>4469</name>
<sym>Dot</sym>
</trkpt>
<trkpt lat="47.793057" lon="15.442178">
<ele>956.0</ele>
<desc>Speed 51.4 km/h Distance 90.14 km</desc>
<time>2012-09-18T16:57:13.50</time>
<name>4470</name>
<sym>Dot</sym>
</trkpt>
<trkpt lat="47.793177" lon="15.442140">
<ele>955.5</ele>
<desc>Speed 48.7 km/h Distance 90.16 km</desc>
<time>2012-09-18T16:57:14.49</time>
<name>4471</name>
<sym>Dot</sym>
</trkpt>
<trkpt lat="47.793295" lon="15.442127">
<ele>956.0</ele>
<desc>Speed 47.8 km/h Distance 90.17 km</desc>
<time>2012-09-18T16:57:15.49</time>
<name>4472</name>
<sym>Dot</sym>
</trkpt>
<trkpt lat="47.793430" lon="15.442160">
<ele>956.0</ele>
<desc>Speed 54.1 km/h Distance 90.19 km</desc>
<time>2012-09-18T16:57:16.48</time>
<name>4473</name>
<sym>Dot</sym>
</trkpt>
<trkpt lat="47.793562" lon="15.442205">
<ele>955.0</ele>
<desc>Speed 53.6 km/h Distance 90.20 km</desc>
<time>2012-09-18T16:57:17.47</time>
<name>4474</name>
<sym>Dot</sym>
</trkpt>
<trkpt lat="47.793838" lon="15.442408">
<ele>956.5</ele>
<desc>Speed 61.4 km/h Distance 90.23 km</desc>
<time>2012-09-18T16:57:19.47</time>
<name>4475</name>
<sym>Dot</sym>
</trkpt>
<trkpt lat="47.793978" lon="15.442535">
<ele>955.5</ele>
<desc>Speed 65.5 km/h Distance 90.25 km</desc>
<time>2012-09-18T16:57:20.46</time>
<name>4476</name>
<sym>Dot</sym>
</trkpt>
<trkpt lat="47.794115" lon="15.442658">
<ele>954.5</ele>
<desc>Speed 63.8 km/h Distance 90.27 km</desc>
<time>2012-09-18T16:57:21.46</time>
<name>4477</name>
<sym>Dot</sym>
</trkpt>
<trkpt lat="47.794252" lon="15.442767">
<ele>954.5</ele>
<desc>Speed 62.2 km/h Distance 90.29 km</desc>
<time>2012-09-18T16:57:22.45</time>
<name>4478</name>
<sym>Dot</sym>
</trkpt>
<trkpt lat="47.794385" lon="15.442855">
<ele>954.5</ele>
<desc>Speed 58.3 km/h Distance 90.30 km</desc>
<time>2012-09-18T16:57:23.46</time>
<name>4479</name>
<sym>Dot</sym>
</trkpt>
<trkpt lat="47.794525" lon="15.442907">
<ele>954.5</ele>
<desc>Speed 57.8 km/h Distance 90.32 km</desc>
<time>2012-09-18T16:57:24.45</time>
<name>4480</name>
<sym>Dot</sym>
</trkpt>
<trkpt lat="47.794668" lon="15.442917">
<ele>953.0</ele>
<desc>Speed 57.1 km/h Distance 90.34 km</desc>
<time>2012-09-18T16:57:25.44</time>
<name>4481</name>
<sym>Dot</sym>
</trkpt>
<trkpt lat="47.794817" lon="15.442898">
<ele>951.0</ele>
<desc>Speed 60.2 km/h Distance 90.35 km</desc>
<time>2012-09-18T16:57:26.43</time>
<name>4482</name>
<sym>Dot</sym>
</trkpt>
<trkpt lat="47.794952" lon="15.442808">
<ele>951.0</ele>
<desc>Speed 59.3 km/h Distance 90.37 km</desc>
<time>2012-09-18T16:57:27.42</time>
<name>4483</name>
<sym>Dot</sym>
</trkpt>
<trkpt lat="47.795073" lon="15.442678">
<ele>951.0</ele>
<desc>Speed 59.8 km/h Distance 90.39 km</desc>
<time>2012-09-18T16:57:28.42</time>
<name>4484</name>
<sym>Dot</sym>
</trkpt>
<trkpt lat="47.795167" lon="15.442528">
<ele>950.5</ele>
<desc>Speed 55.1 km/h Distance 90.40 km</desc>
<time>2012-09-18T16:57:29.42</time>
<name>4485</name>
<sym>Dot</sym>
</trkpt>
<trkpt lat="47.795253" lon="15.442360">
<ele>951.0</ele>
<desc>Speed 57.2 km/h Distance 90.42 km</desc>
<time>2012-09-18T16:57:30.41</time>
<name>4486</name>
<sym>Dot</sym>
</trkpt>
<trkpt lat="47.795340" lon="15.442212">
<ele>949.5</ele>
<desc>Speed 53.1 km/h Distance 90.43 km</desc>
<time>2012-09-18T16:57:31.40</time>
<name>4487</name>
<sym>Dot</sym>
</trkpt>
<trkpt lat="47.795443" lon="15.442092">
<ele>947.5</ele>
<desc>Speed 52.8 km/h Distance 90.45 km</desc>
<time>2012-09-18T16:57:32.39</time>
<name>4488</name>
<sym>Dot</sym>
</trkpt>
<trkpt lat="47.795558" lon="15.441997">
<ele>946.0</ele>
<desc>Speed 53.3 km/h Distance 90.46 km</desc>
<time>2012-09-18T16:57:33.39</time>
<name>4489</name>
<sym>Dot</sym>
</trkpt>
<trkpt lat="47.795692" lon="15.441925">
<ele>945.0</ele>
<desc>Speed 56.6 km/h Distance 90.48 km</desc>
<time>2012-09-18T16:57:34.38</time>
<name>4490</name>
<sym>Dot</sym>
</trkpt>
<trkpt lat="47.795828" lon="15.441898">
<ele>943.0</ele>
<desc>Speed 55.4 km/h Distance 90.49 km</desc>
<time>2012-09-18T16:57:35.39</time>
<name>4491</name>
<sym>Dot</sym>
</trkpt>
<trkpt lat="47.795967" lon="15.441920">
<ele>941.5</ele>
<desc>Speed 55.4 km/h Distance 90.51 km</desc>
<time>2012-09-18T16:57:36.38</time>
<name>4492</name>
<sym>Dot</sym>
</trkpt>
<trkpt lat="47.796107" lon="15.442002">
<ele>940.0</ele>
<desc>Speed 59.8 km/h Distance 90.52 km</desc>
<time>2012-09-18T16:57:37.38</time>
<name>4493</name>
<sym>Dot</sym>
</trkpt>
<trkpt lat="47.796248" lon="15.442120">
<ele>939.5</ele>
<desc>Speed 65.4 km/h Distance 90.54 km</desc>
<time>2012-09-18T16:57:38.39</time>
<name>4494</name>
<sym>Dot</sym>
</trkpt>
<trkpt lat="47.797387" lon="15.443387">
<ele>941.5</ele>
<desc>Speed 107 km/h Distance 90.70 km</desc>
<time>2012-09-18T16:57:44.87</time>
<name>4495</name>
<sym>Dot</sym>
</trkpt>
<trkpt lat="47.797588" lon="15.443632">
<ele>941.5</ele>
<desc>Speed 104 km/h Distance 90.73 km</desc>
<time>2012-09-18T16:57:45.87</time>
<name>4496</name>
<sym>Dot</sym>
</trkpt>
<trkpt lat="47.797775" lon="15.443865">
<ele>942.5</ele>
<desc>Speed 98.1 km/h Distance 90.76 km</desc>
<time>2012-09-18T16:57:46.87</time>
<name>4497</name>
<sym>Dot</sym>
</trkpt>
<trkpt lat="47.798128" lon="15.444248">
<ele>943.5</ele>
<desc>Speed 85.9 km/h Distance 90.81 km</desc>
<time>2012-09-18T16:57:48.86</time>
<name>4498</name>
<sym>Dot</sym>
</trkpt>
<trkpt lat="47.798313" lon="15.444390">
<ele>943.5</ele>
<desc>Speed 83.3 km/h Distance 90.83 km</desc>
<time>2012-09-18T16:57:49.86</time>
<name>4499</name>
<sym>Dot</sym>
</trkpt>
<trkpt lat="47.798527" lon="15.444448">
<ele>943.5</ele>
<desc>Speed 86.1 km/h Distance 90.85 km</desc>
<time>2012-09-18T16:57:50.86</time>
<name>4500</name>
<sym>Dot</sym>
</trkpt>
<trkpt lat="47.799047" lon="15.444540">
<ele>943.0</ele>
<desc>Speed 69.8 km/h Distance 90.91 km</desc>
<time>2012-09-18T16:57:53.87</time>
<name>4501</name>
<sym>Dot</sym>
</trkpt>
<trkpt lat="47.799207" lon="15.444643">
<ele>941.5</ele>
<desc>Speed 69.2 km/h Distance 90.93 km</desc>
<time>2012-09-18T16:57:54.88</time>
<name>4502</name>
<sym>Dot</sym>
</trkpt>
<trkpt lat="47.799723" lon="15.445200">
<ele>943.0</ele>
<desc>Speed 88.2 km/h Distance 91.00 km</desc>
<time>2012-09-18T16:57:57.87</time>
<name>4503</name>
<sym>Dot</sym>
</trkpt>
<trkpt lat="47.799897" lon="15.445393">
<ele>943.0</ele>
<desc>Speed 86.7 km/h Distance 91.03 km</desc>
<time>2012-09-18T16:57:58.87</time>
<name>4504</name>
<sym>Dot</sym>
</trkpt>
<trkpt lat="47.800227" lon="15.445673">
<ele>945.0</ele>
<desc>Speed 77.2 km/h Distance 91.07 km</desc>
<time>2012-09-18T16:58:00.87</time>
<name>4505</name>
<sym>Dot</sym>
</trkpt>
<trkpt lat="47.800417" lon="15.445740">
<ele>945.0</ele>
<desc>Speed 77.8 km/h Distance 91.09 km</desc>
<time>2012-09-18T16:58:01.86</time>
<name>4506</name>
<sym>Dot</sym>
</trkpt>
<trkpt lat="47.800608" lon="15.445760">
<ele>944.5</ele>
<desc>Speed 78.0 km/h Distance 91.11 km</desc>
<time>2012-09-18T16:58:02.87</time>
<name>4507</name>
<sym>Dot</sym>
</trkpt>
<trkpt lat="47.801043" lon="15.445638">
<ele>942.5</ele>
<desc>Speed 89.5 km/h Distance 91.16 km</desc>
<time>2012-09-18T16:58:04.86</time>
<name>4508</name>
<sym>Dot</sym>
</trkpt>
<trkpt lat="47.801267" lon="15.445567">
<ele>942.5</ele>
<desc>Speed 92.5 km/h Distance 91.19 km</desc>
<time>2012-09-18T16:58:05.85</time>
<name>4509</name>
<sym>Dot</sym>
</trkpt>
<trkpt lat="47.801502" lon="15.445490">
<ele>943.5</ele>
<desc>Speed 96.7 km/h Distance 91.21 km</desc>
<time>2012-09-18T16:58:06.85</time>
<name>4510</name>
<sym>Dot</sym>
</trkpt>
<trkpt lat="47.801740" lon="15.445413">
<ele>944.0</ele>
<desc>Speed 98.2 km/h Distance 91.24 km</desc>
<time>2012-09-18T16:58:07.85</time>
<name>4511</name>
<sym>Dot</sym>
</trkpt>
<trkpt lat="47.801985" lon="15.445332">
<ele>944.5</ele>
<desc>Speed 102 km/h Distance 91.27 km</desc>
<time>2012-09-18T16:58:08.84</time>
<name>4512</name>
<sym>Dot</sym>
</trkpt>
<trkpt lat="47.802237" lon="15.445248">
<ele>944.5</ele>
<desc>Speed 104 km/h Distance 91.30 km</desc>
<time>2012-09-18T16:58:09.84</time>
<name>4513</name>
<sym>Dot</sym>
</trkpt>
<trkpt lat="47.802490" lon="15.445165">
<ele>944.5</ele>
<desc>Speed 105 km/h Distance 91.32 km</desc>
<time>2012-09-18T16:58:10.84</time>
<name>4514</name>
<sym>Dot</sym>
</trkpt>
<trkpt lat="47.802747" lon="15.445085">
<ele>944.5</ele>
<desc>Speed 106 km/h Distance 91.35 km</desc>
<time>2012-09-18T16:58:11.83</time>
<name>4515</name>
<sym>Dot</sym>
</trkpt>
<trkpt lat="47.803007" lon="15.445007">
<ele>944.5</ele>
<desc>Speed 107 km/h Distance 91.38 km</desc>
<time>2012-09-18T16:58:12.83</time>
<name>4516</name>
<sym>Dot</sym>
</trkpt>
<trkpt lat="47.803265" lon="15.444925">
<ele>945.5</ele>
<desc>Speed 106 km/h Distance 91.41 km</desc>
<time>2012-09-18T16:58:13.82</time>
<name>4517</name>
<sym>Dot</sym>
</trkpt>
<trkpt lat="47.803513" lon="15.444830">
<ele>946.0</ele>
<desc>Speed 103 km/h Distance 91.44 km</desc>
<time>2012-09-18T16:58:14.83</time>
<name>4518</name>
<sym>Dot</sym>
</trkpt>
<trkpt lat="47.803758" lon="15.444713">
<ele>947.0</ele>
<desc>Speed 103 km/h Distance 91.47 km</desc>
<time>2012-09-18T16:58:15.81</time>
<name>4519</name>
<sym>Dot</sym>
</trkpt>
<trkpt lat="47.804002" lon="15.444585">
<ele>947.5</ele>
<desc>Speed 104 km/h Distance 91.50 km</desc>
<time>2012-09-18T16:58:16.81</time>
<name>4520</name>
<sym>Dot</sym>
</trkpt>
<trkpt lat="47.804240" lon="15.444462">
<ele>948.0</ele>
<desc>Speed 102 km/h Distance 91.53 km</desc>
<time>2012-09-18T16:58:17.80</time>
<name>4521</name>
<sym>Dot</sym>
</trkpt>
<trkpt lat="47.804465" lon="15.444345">
<ele>948.5</ele>
<desc>Speed 96.1 km/h Distance 91.55 km</desc>
<time>2012-09-18T16:58:18.81</time>
<name>4522</name>
<sym>Dot</sym>
</trkpt>
<trkpt lat="47.804678" lon="15.444232">
<ele>948.5</ele>
<desc>Speed 90.6 km/h Distance 91.58 km</desc>
<time>2012-09-18T16:58:19.81</time>
<name>4523</name>
<sym>Dot</sym>
</trkpt>
<trkpt lat="47.805037" lon="15.444038">
<ele>949.5</ele>
<desc>Speed 76.3 km/h Distance 91.62 km</desc>
<time>2012-09-18T16:58:21.80</time>
<name>4524</name>
<sym>Dot</sym>
</trkpt>
<trkpt lat="47.805210" lon="15.443967">
<ele>949.0</ele>
<desc>Speed 72.0 km/h Distance 91.64 km</desc>
<time>2012-09-18T16:58:22.79</time>
<name>4525</name>
<sym>Dot</sym>
</trkpt>
<trkpt lat="47.805513" lon="15.443892">
<ele>950.0</ele>
<desc>Speed 61.2 km/h Distance 91.68 km</desc>
<time>2012-09-18T16:58:24.80</time>
<name>4526</name>
<sym>Dot</sym>
</trkpt>
<trkpt lat="47.805663" lon="15.443887">
<ele>951.0</ele>
<desc>Speed 60.7 km/h Distance 91.69 km</desc>
<time>2012-09-18T16:58:25.79</time>
<name>4527</name>
<sym>Dot</sym>
</trkpt>
<trkpt lat="47.805813" lon="15.443938">
<ele>951.5</ele>
<desc>Speed 62.1 km/h Distance 91.71 km</desc>
<time>2012-09-18T16:58:26.78</time>
<name>4528</name>
<sym>Dot</sym>
</trkpt>
<trkpt lat="47.805957" lon="15.444023">
<ele>952.5</ele>
<desc>Speed 61.9 km/h Distance 91.73 km</desc>
<time>2012-09-18T16:58:27.78</time>
<name>4529</name>
<sym>Dot</sym>
</trkpt>
<trkpt lat="47.806085" lon="15.444125">
<ele>952.5</ele>
<desc>Speed 58.6 km/h Distance 91.74 km</desc>
<time>2012-09-18T16:58:28.78</time>
<name>4530</name>
<sym>Dot</sym>
</trkpt>
<trkpt lat="47.806177" lon="15.444263">
<ele>953.5</ele>
<desc>Speed 51.7 km/h Distance 91.76 km</desc>
<time>2012-09-18T16:58:29.77</time>
<name>4531</name>
<sym>Dot</sym>
</trkpt>
<trkpt lat="47.806253" lon="15.444403">
<ele>953.5</ele>
<desc>Speed 48.8 km/h Distance 91.77 km</desc>
<time>2012-09-18T16:58:30.76</time>
<name>4532</name>
<sym>Dot</sym>
</trkpt>
<trkpt lat="47.806287" lon="15.444567">
<ele>954.5</ele>
<desc>Speed 45.6 km/h Distance 91.78 km</desc>
<time>2012-09-18T16:58:31.75</time>
<name>4533</name>
<sym>Dot</sym>
</trkpt>
<trkpt lat="47.806292" lon="15.444763">
<ele>955.0</ele>
<desc>Speed 52.6 km/h Distance 91.80 km</desc>
<time>2012-09-18T16:58:32.75</time>
<name>4534</name>
<sym>Dot</sym>
</trkpt>
<trkpt lat="47.806327" lon="15.445507">
<ele>953.0</ele>
<desc>Speed 62.2 km/h Distance 91.85 km</desc>
<time>2012-09-18T16:58:35.87</time>
<name>4535</name>
<sym>Dot</sym>
</trkpt>
<trkpt lat="47.806368" lon="15.445715">
<ele>951.5</ele>
<desc>Speed 58.2 km/h Distance 91.87 km</desc>
<time>2012-09-18T16:58:36.87</time>
<name>4536</name>
<sym>Dot</sym>
</trkpt>
<trkpt lat="47.806405" lon="15.445928">
<ele>952.0</ele>
<desc>Speed 60.2 km/h Distance 91.89 km</desc>
<time>2012-09-18T16:58:37.87</time>
<name>4537</name>
<sym>Dot</sym>
</trkpt>
<trkpt lat="47.806435" lon="15.446432">
<ele>954.5</ele>
<desc>Speed 68.6 km/h Distance 91.92 km</desc>
<time>2012-09-18T16:58:39.86</time>
<name>4538</name>
<sym>Dot</sym>
</trkpt>
<trkpt lat="47.806440" lon="15.446678">
<ele>954.5</ele>
<desc>Speed 66.4 km/h Distance 91.94 km</desc>
<time>2012-09-18T16:58:40.85</time>
<name>4539</name>
<sym>Dot</sym>
</trkpt>
<trkpt lat="47.806443" lon="15.446913">
<ele>954.5</ele>
<desc>Speed 63.5 km/h Distance 91.96 km</desc>
<time>2012-09-18T16:58:41.85</time>
<name>4540</name>
<sym>Dot</sym>
</trkpt>
<trkpt lat="47.806462" lon="15.447135">
<ele>954.5</ele>
<desc>Speed 60.6 km/h Distance 91.98 km</desc>
<time>2012-09-18T16:58:42.85</time>
<name>4541</name>
<sym>Dot</sym>
</trkpt>
<trkpt lat="47.806510" lon="15.447328">
<ele>953.0</ele>
<desc>Speed 55.8 km/h Distance 91.99 km</desc>
<time>2012-09-18T16:58:43.84</time>
<name>4542</name>
<sym>Dot</sym>
</trkpt>
<trkpt lat="47.806567" lon="15.447527">
<ele>953.0</ele>
<desc>Speed 58.3 km/h Distance 92.01 km</desc>
<time>2012-09-18T16:58:44.84</time>
<name>4543</name>
<sym>Dot</sym>
</trkpt>
<trkpt lat="47.806643" lon="15.447712">
<ele>953.5</ele>
<desc>Speed 58.9 km/h Distance 92.02 km</desc>
<time>2012-09-18T16:58:45.83</time>
<name>4544</name>
<sym>Dot</sym>
</trkpt>
<trkpt lat="47.806735" lon="15.447882">
<ele>953.5</ele>
<desc>Speed 59.8 km/h Distance 92.04 km</desc>
<time>2012-09-18T16:58:46.83</time>
<name>4545</name>
<sym>Dot</sym>
</trkpt>
<trkpt lat="47.806837" lon="15.448045">
<ele>954.5</ele>
<desc>Speed 60.3 km/h Distance 92.06 km</desc>
<time>2012-09-18T16:58:47.83</time>
<name>4546</name>
<sym>Dot</sym>
</trkpt>
<trkpt lat="47.806935" lon="15.448215">
<ele>954.5</ele>
<desc>Speed 61.2 km/h Distance 92.07 km</desc>
<time>2012-09-18T16:58:48.82</time>
<name>4547</name>
<sym>Dot</sym>
</trkpt>
<trkpt lat="47.807013" lon="15.448415">
<ele>955.5</ele>
<desc>Speed 62.7 km/h Distance 92.09 km</desc>
<time>2012-09-18T16:58:49.81</time>
<name>4548</name>
<sym>Dot</sym>
</trkpt>
<trkpt lat="47.807085" lon="15.448620">
<ele>955.5</ele>
<desc>Speed 61.9 km/h Distance 92.11 km</desc>
<time>2012-09-18T16:58:50.81</time>
<name>4549</name>
<sym>Dot</sym>
</trkpt>
<trkpt lat="47.807152" lon="15.448823">
<ele>956.0</ele>
<desc>Speed 61.0 km/h Distance 92.13 km</desc>
<time>2012-09-18T16:58:51.81</time>
<name>4550</name>
<sym>Dot</sym>
</trkpt>
<trkpt lat="47.807232" lon="15.449018">
<ele>956.0</ele>
<desc>Speed 61.5 km/h Distance 92.14 km</desc>
<time>2012-09-18T16:58:52.80</time>
<name>4551</name>
<sym>Dot</sym>
</trkpt>
<trkpt lat="47.807347" lon="15.449177">
<ele>956.5</ele>
<desc>Speed 63.1 km/h Distance 92.16 km</desc>
<time>2012-09-18T16:58:53.79</time>
<name>4552</name>
<sym>Dot</sym>
</trkpt>
<trkpt lat="47.807472" lon="15.449325">
<ele>957.5</ele>
<desc>Speed 64.4 km/h Distance 92.18 km</desc>
<time>2012-09-18T16:58:54.79</time>
<name>4553</name>
<sym>Dot</sym>
</trkpt>
<trkpt lat="47.807628" lon="15.449442">
<ele>957.0</ele>
<desc>Speed 70.8 km/h Distance 92.20 km</desc>
<time>2012-09-18T16:58:55.78</time>
<name>4554</name>
<sym>Dot</sym>
</trkpt>
<trkpt lat="47.807773" lon="15.449572">
<ele>957.5</ele>
<desc>Speed 68.0 km/h Distance 92.22 km</desc>
<time>2012-09-18T16:58:56.78</time>
<name>4555</name>
<sym>Dot</sym>
</trkpt>
<trkpt lat="47.807915" lon="15.449697">
<ele>958.0</ele>
<desc>Speed 65.4 km/h Distance 92.24 km</desc>
<time>2012-09-18T16:58:57.77</time>
<name>4556</name>
<sym>Dot</sym>
</trkpt>
<trkpt lat="47.808055" lon="15.449807">
<ele>959.0</ele>
<desc>Speed 63.3 km/h Distance 92.25 km</desc>
<time>2012-09-18T16:58:58.77</time>
<name>4557</name>
<sym>Dot</sym>
</trkpt>
<trkpt lat="47.808317" lon="15.449982">
<ele>959.5</ele>
<desc>Speed 59.2 km/h Distance 92.28 km</desc>
<time>2012-09-18T16:59:00.78</time>
<name>4558</name>
<sym>Dot</sym>
</trkpt>
<trkpt lat="47.808440" lon="15.450095">
<ele>960.0</ele>
<desc>Speed 58.3 km/h Distance 92.30 km</desc>
<time>2012-09-18T16:59:01.76</time>
<name>4559</name>
<sym>Dot</sym>
</trkpt>
<trkpt lat="47.808717" lon="15.450387">
<ele>962.5</ele>
<desc>Speed 69.0 km/h Distance 92.34 km</desc>
<time>2012-09-18T16:59:03.75</time>
<name>4560</name>
<sym>Dot</sym>
</trkpt>
<trkpt lat="47.808857" lon="15.450513">
<ele>963.0</ele>
<desc>Speed 66.2 km/h Distance 92.36 km</desc>
<time>2012-09-18T16:59:04.76</time>
<name>4561</name>
<sym>Dot</sym>
</trkpt>
<trkpt lat="47.808997" lon="15.450623">
<ele>962.5</ele>
<desc>Speed 63.4 km/h Distance 92.37 km</desc>
<time>2012-09-18T16:59:05.75</time>
<name>4562</name>
<sym>Dot</sym>
</trkpt>
<trkpt lat="47.809142" lon="15.450712">
<ele>962.5</ele>
<desc>Speed 63.5 km/h Distance 92.39 km</desc>
<time>2012-09-18T16:59:06.75</time>
<name>4563</name>
<sym>Dot</sym>
</trkpt>
<trkpt lat="47.809298" lon="15.450785">
<ele>962.0</ele>
<desc>Speed 65.6 km/h Distance 92.41 km</desc>
<time>2012-09-18T16:59:07.75</time>
<name>4564</name>
<sym>Dot</sym>
</trkpt>
<trkpt lat="47.809463" lon="15.450840">
<ele>962.0</ele>
<desc>Speed 68.6 km/h Distance 92.43 km</desc>
<time>2012-09-18T16:59:08.73</time>
<name>4565</name>
<sym>Dot</sym>
</trkpt>
<trkpt lat="47.809642" lon="15.450873">
<ele>962.0</ele>
<desc>Speed 71.9 km/h Distance 92.45 km</desc>
<time>2012-09-18T16:59:09.73</time>
<name>4566</name>
<sym>Dot</sym>
</trkpt>
<trkpt lat="47.809825" lon="15.450885">
<ele>962.5</ele>
<desc>Speed 74.3 km/h Distance 92.47 km</desc>
<time>2012-09-18T16:59:10.72</time>
<name>4567</name>
<sym>Dot</sym>
</trkpt>
<trkpt lat="47.810013" lon="15.450893">
<ele>962.5</ele>
<desc>Speed 75.7 km/h Distance 92.49 km</desc>
<time>2012-09-18T16:59:11.71</time>
<name>4568</name>
<sym>Dot</sym>
</trkpt>
<trkpt lat="47.810195" lon="15.450915">
<ele>963.0</ele>
<desc>Speed 73.9 km/h Distance 92.51 km</desc>
<time>2012-09-18T16:59:12.71</time>
<name>4569</name>
<sym>Dot</sym>
</trkpt>
<trkpt lat="47.810375" lon="15.450948">
<ele>963.0</ele>
<desc>Speed 73.1 km/h Distance 92.53 km</desc>
<time>2012-09-18T16:59:13.71</time>
<name>4570</name>
<sym>Dot</sym>
</trkpt>
<trkpt lat="47.810550" lon="15.450978">
<ele>962.5</ele>
<desc>Speed 70.5 km/h Distance 92.55 km</desc>
<time>2012-09-18T16:59:14.70</time>
<name>4571</name>
<sym>Dot</sym>
</trkpt>
<trkpt lat="47.810713" lon="15.451013">
<ele>962.5</ele>
<desc>Speed 66.6 km/h Distance 92.57 km</desc>
<time>2012-09-18T16:59:15.71</time>
<name>4572</name>
<sym>Dot</sym>
</trkpt>
<trkpt lat="47.810865" lon="15.451068">
<ele>963.0</ele>
<desc>Speed 63.1 km/h Distance 92.59 km</desc>
<time>2012-09-18T16:59:16.69</time>
<name>4573</name>
<sym>Dot</sym>
</trkpt>
<trkpt lat="47.811010" lon="15.451155">
<ele>962.5</ele>
<desc>Speed 63.1 km/h Distance 92.60 km</desc>
<time>2012-09-18T16:59:17.69</time>
<name>4574</name>
<sym>Dot</sym>
</trkpt>
<trkpt lat="47.811310" lon="15.451438">
<ele>963.5</ele>
<desc>Speed 72.3 km/h Distance 92.64 km</desc>
<time>2012-09-18T16:59:19.69</time>
<name>4575</name>
<sym>Dot</sym>
</trkpt>
<trkpt lat="47.811452" lon="15.451590">
<ele>964.0</ele>
<desc>Speed 70.1 km/h Distance 92.66 km</desc>
<time>2012-09-18T16:59:20.68</time>
<name>4576</name>
<sym>Dot</sym>
</trkpt>
<trkpt lat="47.811588" lon="15.451727">
<ele>963.5</ele>
<desc>Speed 66.3 km/h Distance 92.68 km</desc>
<time>2012-09-18T16:59:21.69</time>
<name>4577</name>
<sym>Dot</sym>
</trkpt>
<trkpt lat="47.811743" lon="15.451840">
<ele>961.0</ele>
<desc>Speed 69.6 km/h Distance 92.70 km</desc>
<time>2012-09-18T16:59:22.67</time>
<name>4578</name>
<sym>Dot</sym>
</trkpt>
<trkpt lat="47.811907" lon="15.451897">
<ele>960.5</ele>
<desc>Speed 67.3 km/h Distance 92.72 km</desc>
<time>2012-09-18T16:59:23.67</time>
<name>4579</name>
<sym>Dot</sym>
</trkpt>
<trkpt lat="47.812077" lon="15.451913">
<ele>962.0</ele>
<desc>Speed 67.7 km/h Distance 92.74 km</desc>
<time>2012-09-18T16:59:24.68</time>
<name>4580</name>
<sym>Dot</sym>
</trkpt>
<trkpt lat="47.812260" lon="15.451907">
<ele>961.5</ele>
<desc>Speed 73.2 km/h Distance 92.76 km</desc>
<time>2012-09-18T16:59:25.67</time>
<name>4581</name>
<sym>Dot</sym>
</trkpt>
<trkpt lat="47.812437" lon="15.451873">
<ele>962.0</ele>
<desc>Speed 70.8 km/h Distance 92.78 km</desc>
<time>2012-09-18T16:59:26.67</time>
<name>4582</name>
<sym>Dot</sym>
</trkpt>
<trkpt lat="47.812618" lon="15.451837">
<ele>962.5</ele>
<desc>Speed 73.2 km/h Distance 92.80 km</desc>
<time>2012-09-18T16:59:27.66</time>
<name>4583</name>
<sym>Dot</sym>
</trkpt>
<trkpt lat="47.812810" lon="15.451818">
<ele>963.0</ele>
<desc>Speed 76.6 km/h Distance 92.82 km</desc>
<time>2012-09-18T16:59:28.66</time>
<name>4584</name>
<sym>Dot</sym>
</trkpt>
<trkpt lat="47.812998" lon="15.451818">
<ele>963.5</ele>
<desc>Speed 76.1 km/h Distance 92.84 km</desc>
<time>2012-09-18T16:59:29.64</time>
<name>4585</name>
<sym>Dot</sym>
</trkpt>
<trkpt lat="47.813182" lon="15.451828">
<ele>964.0</ele>
<desc>Speed 73.1 km/h Distance 92.86 km</desc>
<time>2012-09-18T16:59:30.63</time>
<name>4586</name>
<sym>Dot</sym>
</trkpt>
<trkpt lat="47.813355" lon="15.451847">
<ele>964.5</ele>
<desc>Speed 70.0 km/h Distance 92.88 km</desc>
<time>2012-09-18T16:59:31.63</time>
<name>4587</name>
<sym>Dot</sym>
</trkpt>
<trkpt lat="47.813518" lon="15.451865">
<ele>965.0</ele>
<desc>Speed 65.6 km/h Distance 92.90 km</desc>
<time>2012-09-18T16:59:32.63</time>
<name>4588</name>
<sym>Dot</sym>
</trkpt>
<trkpt lat="47.813675" lon="15.451882">
<ele>965.0</ele>
<desc>Speed 62.4 km/h Distance 92.92 km</desc>
<time>2012-09-18T16:59:33.62</time>
<name>4589</name>
<sym>Dot</sym>
</trkpt>
<trkpt lat="47.813827" lon="15.451900">
<ele>965.5</ele>
<desc>Speed 61.0 km/h Distance 92.93 km</desc>
<time>2012-09-18T16:59:34.62</time>
<name>4590</name>
<sym>Dot</sym>
</trkpt>
<trkpt lat="47.813978" lon="15.451917">
<ele>965.5</ele>
<desc>Speed 61.1 km/h Distance 92.95 km</desc>
<time>2012-09-18T16:59:35.61</time>
<name>4591</name>
<sym>Dot</sym>
</trkpt>
<trkpt lat="47.814127" lon="15.451940">
<ele>965.5</ele>
<desc>Speed 59.5 km/h Distance 92.97 km</desc>
<time>2012-09-18T16:59:36.61</time>
<name>4592</name>
<sym>Dot</sym>
</trkpt>
<trkpt lat="47.814263" lon="15.451980">
<ele>966.0</ele>
<desc>Speed 55.7 km/h Distance 92.98 km</desc>
<time>2012-09-18T16:59:37.60</time>
<name>4593</name>
<sym>Dot</sym>
</trkpt>
<trkpt lat="47.814393" lon="15.452045">
<ele>966.5</ele>
<desc>Speed 54.4 km/h Distance 93.00 km</desc>
<time>2012-09-18T16:59:38.62</time>
<name>4594</name>
<sym>Dot</sym>
</trkpt>
<trkpt lat="47.814513" lon="15.452137">
<ele>967.0</ele>
<desc>Speed 54.1 km/h Distance 93.01 km</desc>
<time>2012-09-18T16:59:39.60</time>
<name>4595</name>
<sym>Dot</sym>
</trkpt>
<trkpt lat="47.814622" lon="15.452253">
<ele>967.5</ele>
<desc>Speed 53.4 km/h Distance 93.03 km</desc>
<time>2012-09-18T16:59:40.59</time>
<name>4596</name>
<sym>Dot</sym>
</trkpt>
<trkpt lat="47.814718" lon="15.452397">
<ele>968.5</ele>
<desc>Speed 54.5 km/h Distance 93.04 km</desc>
<time>2012-09-18T16:59:41.59</time>
<name>4597</name>
<sym>Dot</sym>
</trkpt>
<trkpt lat="47.814988" lon="15.453102">
<ele>966.5</ele>
<desc>Speed 75.1 km/h Distance 93.10 km</desc>
<time>2012-09-18T16:59:44.85</time>
<name>4598</name>
<sym>Dot</sym>
</trkpt>
<trkpt lat="47.815058" lon="15.453373">
<ele>967.0</ele>
<desc>Speed 78.2 km/h Distance 93.12 km</desc>
<time>2012-09-18T16:59:45.85</time>
<name>4599</name>
<sym>Dot</sym>
</trkpt>
<trkpt lat="47.815125" lon="15.453647">
<ele>967.5</ele>
<desc>Speed 78.3 km/h Distance 93.15 km</desc>
<time>2012-09-18T16:59:46.85</time>
<name>4600</name>
<sym>Dot</sym>
</trkpt>
<trkpt lat="47.815188" lon="15.453922">
<ele>968.5</ele>
<desc>Speed 78.2 km/h Distance 93.17 km</desc>
<time>2012-09-18T16:59:47.85</time>
<name>4601</name>
<sym>Dot</sym>
</trkpt>
<trkpt lat="47.815243" lon="15.454205">
<ele>969.0</ele>
<desc>Speed 79.2 km/h Distance 93.19 km</desc>
<time>2012-09-18T16:59:48.84</time>
<name>4602</name>
<sym>Dot</sym>
</trkpt>
<trkpt lat="47.815290" lon="15.454485">
<ele>968.5</ele>
<desc>Speed 77.9 km/h Distance 93.21 km</desc>
<time>2012-09-18T16:59:49.84</time>
<name>4603</name>
<sym>Dot</sym>
</trkpt>
<trkpt lat="47.815333" lon="15.454757">
<ele>967.5</ele>
<desc>Speed 75.1 km/h Distance 93.23 km</desc>
<time>2012-09-18T16:59:50.83</time>
<name>4604</name>
<sym>Dot</sym>
</trkpt>
<trkpt lat="47.815373" lon="15.455018">
<ele>968.5</ele>
<desc>Speed 72.4 km/h Distance 93.25 km</desc>
<time>2012-09-18T16:59:51.83</time>
<name>4605</name>
<sym>Dot</sym>
</trkpt>
<trkpt lat="47.815410" lon="15.455283">
<ele>969.5</ele>
<desc>Speed 73.1 km/h Distance 93.27 km</desc>
<time>2012-09-18T16:59:52.82</time>
<name>4606</name>
<sym>Dot</sym>
</trkpt>
<trkpt lat="47.815452" lon="15.455550">
<ele>970.0</ele>
<desc>Speed 74.4 km/h Distance 93.29 km</desc>
<time>2012-09-18T16:59:53.81</time>
<name>4607</name>
<sym>Dot</sym>
</trkpt>
<trkpt lat="47.815500" lon="15.455817">
<ele>970.5</ele>
<desc>Speed 74.9 km/h Distance 93.31 km</desc>
<time>2012-09-18T16:59:54.81</time>
<name>4608</name>
<sym>Dot</sym>
</trkpt>
<trkpt lat="47.815558" lon="15.456087">
<ele>971.5</ele>
<desc>Speed 77.0 km/h Distance 93.34 km</desc>
<time>2012-09-18T16:59:55.81</time>
<name>4609</name>
<sym>Dot</sym>
</trkpt>
<trkpt lat="47.815628" lon="15.456348">
<ele>972.0</ele>
<desc>Speed 76.4 km/h Distance 93.36 km</desc>
<time>2012-09-18T16:59:56.80</time>
<name>4610</name>
<sym>Dot</sym>
</trkpt>
<trkpt lat="47.815707" lon="15.456597">
<ele>973.0</ele>
<desc>Speed 74.1 km/h Distance 93.38 km</desc>
<time>2012-09-18T16:59:57.80</time>
<name>4611</name>
<sym>Dot</sym>
</trkpt>
<trkpt lat="47.815792" lon="15.456820">
<ele>974.0</ele>
<desc>Speed 70.1 km/h Distance 93.40 km</desc>
<time>2012-09-18T16:59:58.80</time>
<name>4612</name>
<sym>Dot</sym>
</trkpt>
<trkpt lat="47.815900" lon="15.456995">
<ele>975.0</ele>
<desc>Speed 64.5 km/h Distance 93.41 km</desc>
<time>2012-09-18T16:59:59.79</time>
<name>4613</name>
<sym>Dot</sym>
</trkpt>
<trkpt lat="47.816042" lon="15.457153">
<ele>975.0</ele>
<desc>Speed 70.6 km/h Distance 93.43 km</desc>
<time>2012-09-18T17:00:00.79</time>
<name>4614</name>
<sym>Dot</sym>
</trkpt>
<trkpt lat="47.816205" lon="15.457303">
<ele>975.5</ele>
<desc>Speed 77.3 km/h Distance 93.46 km</desc>
<time>2012-09-18T17:00:01.79</time>
<name>4615</name>
<sym>Dot</sym>
</trkpt>
<trkpt lat="47.816370" lon="15.457455">
<ele>977.0</ele>
<desc>Speed 78.2 km/h Distance 93.48 km</desc>
<time>2012-09-18T17:00:02.77</time>
<name>4616</name>
<sym>Dot</sym>
</trkpt>
<trkpt lat="47.816552" lon="15.457578">
<ele>978.5</ele>
<desc>Speed 80.1 km/h Distance 93.50 km</desc>
<time>2012-09-18T17:00:03.78</time>
<name>4617</name>
<sym>Dot</sym>
</trkpt>
<trkpt lat="47.816742" lon="15.457685">
<ele>978.0</ele>
<desc>Speed 81.1 km/h Distance 93.52 km</desc>
<time>2012-09-18T17:00:04.99</time>
<name>4618</name>
<sym>Dot</sym>
</trkpt>
<trkpt lat="47.817752" lon="15.458097">
<ele>980.5</ele>
<desc>Speed 102 km/h Distance 93.64 km</desc>
<time>2012-09-18T17:00:08.86</time>
<name>4619</name>
<sym>Dot</sym>
</trkpt>
<trkpt lat="47.818172" lon="15.458287">
<ele>980.5</ele>
<desc>Speed 88.5 km/h Distance 93.69 km</desc>
<time>2012-09-18T17:00:10.86</time>
<name>4620</name>
<sym>Dot</sym>
</trkpt>
<trkpt lat="47.818763" lon="15.458748">
<ele>982.5</ele>
<desc>Speed 64.5 km/h Distance 93.76 km</desc>
<time>2012-09-18T17:00:14.86</time>
<name>4621</name>
<sym>Dot</sym>
</trkpt>
<trkpt lat="47.818857" lon="15.458937">
<ele>983.0</ele>
<desc>Speed 62.6 km/h Distance 93.78 km</desc>
<time>2012-09-18T17:00:15.85</time>
<name>4622</name>
<sym>Dot</sym>
</trkpt>
<trkpt lat="47.818930" lon="15.459148">
<ele>984.5</ele>
<desc>Speed 63.6 km/h Distance 93.80 km</desc>
<time>2012-09-18T17:00:16.85</time>
<name>4623</name>
<sym>Dot</sym>
</trkpt>
<trkpt lat="47.818968" lon="15.459375">
<ele>985.0</ele>
<desc>Speed 62.4 km/h Distance 93.81 km</desc>
<time>2012-09-18T17:00:17.86</time>
<name>4624</name>
<sym>Dot</sym>
</trkpt>
<trkpt lat="47.818978" lon="15.459597">
<ele>984.5</ele>
<desc>Speed 59.5 km/h Distance 93.83 km</desc>
<time>2012-09-18T17:00:18.84</time>
<name>4625</name>
<sym>Dot</sym>
</trkpt>
<trkpt lat="47.818972" lon="15.459827">
<ele>986.5</ele>
<desc>Speed 61.7 km/h Distance 93.85 km</desc>
<time>2012-09-18T17:00:19.83</time>
<name>4626</name>
<sym>Dot</sym>
</trkpt>
<trkpt lat="47.818937" lon="15.460055">
<ele>988.0</ele>
<desc>Speed 62.5 km/h Distance 93.87 km</desc>
<time>2012-09-18T17:00:20.83</time>
<name>4627</name>
<sym>Dot</sym>
</trkpt>
<trkpt lat="47.818878" lon="15.460280">
<ele>988.0</ele>
<desc>Speed 64.7 km/h Distance 93.88 km</desc>
<time>2012-09-18T17:00:21.82</time>
<name>4628</name>
<sym>Dot</sym>
</trkpt>
<trkpt lat="47.818802" lon="15.460500">
<ele>988.5</ele>
<desc>Speed 66.4 km/h Distance 93.90 km</desc>
<time>2012-09-18T17:00:22.82</time>
<name>4629</name>
<sym>Dot</sym>
</trkpt>
<trkpt lat="47.818710" lon="15.460730">
<ele>989.0</ele>
<desc>Speed 71.4 km/h Distance 93.92 km</desc>
<time>2012-09-18T17:00:23.82</time>
<name>4630</name>
<sym>Dot</sym>
</trkpt>
<trkpt lat="47.818612" lon="15.460965">
<ele>989.5</ele>
<desc>Speed 74.6 km/h Distance 93.94 km</desc>
<time>2012-09-18T17:00:24.82</time>
<name>4631</name>
<sym>Dot</sym>
</trkpt>
<trkpt lat="47.818513" lon="15.461208">
<ele>990.0</ele>
<desc>Speed 76.1 km/h Distance 93.96 km</desc>
<time>2012-09-18T17:00:25.83</time>
<name>4632</name>
<sym>Dot</sym>
</trkpt>
<trkpt lat="47.818422" lon="15.461457">
<ele>990.5</ele>
<desc>Speed 76.3 km/h Distance 93.99 km</desc>
<time>2012-09-18T17:00:26.82</time>
<name>4633</name>
<sym>Dot</sym>
</trkpt>
<trkpt lat="47.818333" lon="15.461705">
<ele>990.5</ele>
<desc>Speed 75.5 km/h Distance 94.01 km</desc>
<time>2012-09-18T17:00:27.82</time>
<name>4634</name>
<sym>Dot</sym>
</trkpt>
<trkpt lat="47.818257" lon="15.461952">
<ele>991.0</ele>
<desc>Speed 73.5 km/h Distance 94.03 km</desc>
<time>2012-09-18T17:00:28.81</time>
<name>4635</name>
<sym>Dot</sym>
</trkpt>
<trkpt lat="47.818190" lon="15.462198">
<ele>991.0</ele>
<desc>Speed 71.5 km/h Distance 94.05 km</desc>
<time>2012-09-18T17:00:29.81</time>
<name>4636</name>
<sym>Dot</sym>
</trkpt>
<trkpt lat="47.818142" lon="15.462457">
<ele>992.5</ele>
<desc>Speed 71.9 km/h Distance 94.07 km</desc>
<time>2012-09-18T17:00:30.80</time>
<name>4637</name>
<sym>Dot</sym>
</trkpt>
<trkpt lat="47.818122" lon="15.462737">
<ele>993.5</ele>
<desc>Speed 75.9 km/h Distance 94.09 km</desc>
<time>2012-09-18T17:00:31.80</time>
<name>4638</name>
<sym>Dot</sym>
</trkpt>
<trkpt lat="47.818112" lon="15.463007">
<ele>993.5</ele>
<desc>Speed 72.7 km/h Distance 94.11 km</desc>
<time>2012-09-18T17:00:32.80</time>
<name>4639</name>
<sym>Dot</sym>
</trkpt>
<trkpt lat="47.818122" lon="15.463275">
<ele>994.0</ele>
<desc>Speed 72.2 km/h Distance 94.13 km</desc>
<time>2012-09-18T17:00:33.79</time>
<name>4640</name>
<sym>Dot</sym>
</trkpt>
<trkpt lat="47.818147" lon="15.463530">
<ele>994.5</ele>
<desc>Speed 69.7 km/h Distance 94.15 km</desc>
<time>2012-09-18T17:00:34.78</time>
<name>4641</name>
<sym>Dot</sym>
</trkpt>
<trkpt lat="47.818190" lon="15.463770">
<ele>993.5</ele>
<desc>Speed 66.6 km/h Distance 94.17 km</desc>
<time>2012-09-18T17:00:35.78</time>
<name>4642</name>
<sym>Dot</sym>
</trkpt>
<trkpt lat="47.818252" lon="15.464022">
<ele>994.0</ele>
<desc>Speed 72.1 km/h Distance 94.19 km</desc>
<time>2012-09-18T17:00:36.77</time>
<name>4643</name>
<sym>Dot</sym>
</trkpt>
<trkpt lat="47.818327" lon="15.464270">
<ele>994.5</ele>
<desc>Speed 73.0 km/h Distance 94.21 km</desc>
<time>2012-09-18T17:00:37.77</time>
<name>4644</name>
<sym>Dot</sym>
</trkpt>
<trkpt lat="47.818418" lon="15.464513">
<ele>995.0</ele>
<desc>Speed 75.2 km/h Distance 94.23 km</desc>
<time>2012-09-18T17:00:39.32</time>
<name>4645</name>
<sym>Dot</sym>
</trkpt>
<trkpt lat="47.818525" lon="15.464747">
<ele>996.0</ele>
<desc>Speed 75.0 km/h Distance 94.25 km</desc>
<time>2012-09-18T17:00:39.84</time>
<name>4646</name>
<sym>Dot</sym>
</trkpt>
<trkpt lat="47.818642" lon="15.464973">
<ele>996.0</ele>
<desc>Speed 77.0 km/h Distance 94.27 km</desc>
<time>2012-09-18T17:00:40.77</time>
<name>4647</name>
<sym>Dot</sym>
</trkpt>
<trkpt lat="47.818778" lon="15.465197">
<ele>996.5</ele>
<desc>Speed 80.7 km/h Distance 94.29 km</desc>
<time>2012-09-18T17:00:41.74</time>
<name>4648</name>
<sym>Dot</sym>
</trkpt>
<trkpt lat="47.818922" lon="15.465415">
<ele>997.5</ele>
<desc>Speed 81.7 km/h Distance 94.31 km</desc>
<time>2012-09-18T17:00:42.73</time>
<name>4649</name>
<sym>Dot</sym>
</trkpt>
<trkpt lat="47.819070" lon="15.465617">
<ele>998.0</ele>
<desc>Speed 80.0 km/h Distance 94.34 km</desc>
<time>2012-09-18T17:00:43.73</time>
<name>4650</name>
<sym>Dot</sym>
</trkpt>
<trkpt lat="47.819220" lon="15.465797">
<ele>999.0</ele>
<desc>Speed 76.6 km/h Distance 94.36 km</desc>
<time>2012-09-18T17:00:44.72</time>
<name>4651</name>
<sym>Dot</sym>
</trkpt>
<trkpt lat="47.819373" lon="15.465962">
<ele>999.5</ele>
<desc>Speed 75.5 km/h Distance 94.38 km</desc>
<time>2012-09-18T17:00:45.73</time>
<name>4652</name>
<sym>Dot</sym>
</trkpt>
<trkpt lat="47.819530" lon="15.466113">
<ele>999.5</ele>
<desc>Speed 74.8 km/h Distance 94.40 km</desc>
<time>2012-09-18T17:00:46.72</time>
<name>4653</name>
<sym>Dot</sym>
</trkpt>
<trkpt lat="47.819693" lon="15.466248">
<ele>999.5</ele>
<desc>Speed 74.6 km/h Distance 94.42 km</desc>
<time>2012-09-18T17:00:47.72</time>
<name>4654</name>
<sym>Dot</sym>
</trkpt>
<trkpt lat="47.819857" lon="15.466365">
<ele>1000.0</ele>
<desc>Speed 71.9 km/h Distance 94.44 km</desc>
<time>2012-09-18T17:00:48.71</time>
<name>4655</name>
<sym>Dot</sym>
</trkpt>
<trkpt lat="47.820018" lon="15.466460">
<ele>1000.5</ele>
<desc>Speed 68.8 km/h Distance 94.46 km</desc>
<time>2012-09-18T17:00:49.71</time>
<name>4656</name>
<sym>Dot</sym>
</trkpt>
<trkpt lat="47.820178" lon="15.466535">
<ele>1000.0</ele>
<desc>Speed 66.7 km/h Distance 94.48 km</desc>
<time>2012-09-18T17:00:50.70</time>
<name>4657</name>
<sym>Dot</sym>
</trkpt>
<trkpt lat="47.820330" lon="15.466590">
<ele>1000.5</ele>
<desc>Speed 62.4 km/h Distance 94.50 km</desc>
<time>2012-09-18T17:00:51.69</time>
<name>4658</name>
<sym>Dot</sym>
</trkpt>
<trkpt lat="47.820485" lon="15.466650">
<ele>1000.5</ele>
<desc>Speed 63.4 km/h Distance 94.51 km</desc>
<time>2012-09-18T17:00:52.68</time>
<name>4659</name>
<sym>Dot</sym>
</trkpt>
<trkpt lat="47.820633" lon="15.466722">
<ele>1000.0</ele>
<desc>Speed 62.2 km/h Distance 94.53 km</desc>
<time>2012-09-18T17:00:53.68</time>
<name>4660</name>
<sym>Dot</sym>
</trkpt>
<trkpt lat="47.820777" lon="15.466817">
<ele>1000.0</ele>
<desc>Speed 62.2 km/h Distance 94.55 km</desc>
<time>2012-09-18T17:00:54.68</time>
<name>4661</name>
<sym>Dot</sym>
</trkpt>
<trkpt lat="47.820917" lon="15.466933">
<ele>1000.0</ele>
<desc>Speed 64.0 km/h Distance 94.57 km</desc>
<time>2012-09-18T17:00:55.67</time>
<name>4662</name>
<sym>Dot</sym>
</trkpt>
<trkpt lat="47.821055" lon="15.467060">
<ele>1000.0</ele>
<desc>Speed 64.3 km/h Distance 94.59 km</desc>
<time>2012-09-18T17:00:56.66</time>
<name>4663</name>
<sym>Dot</sym>
</trkpt>
<trkpt lat="47.821188" lon="15.467197">
<ele>1000.0</ele>
<desc>Speed 64.4 km/h Distance 94.60 km</desc>
<time>2012-09-18T17:00:57.66</time>
<name>4664</name>
<sym>Dot</sym>
</trkpt>
<trkpt lat="47.821322" lon="15.467333">
<ele>999.0</ele>
<desc>Speed 64.3 km/h Distance 94.62 km</desc>
<time>2012-09-18T17:00:58.64</time>
<name>4665</name>
<sym>Dot</sym>
</trkpt>
<trkpt lat="47.821457" lon="15.467470">
<ele>999.0</ele>
<desc>Speed 65.1 km/h Distance 94.64 km</desc>
<time>2012-09-18T17:00:59.63</time>
<name>4666</name>
<sym>Dot</sym>
</trkpt>
<trkpt lat="47.821597" lon="15.467605">
<ele>998.5</ele>
<desc>Speed 66.6 km/h Distance 94.66 km</desc>
<time>2012-09-18T17:01:00.66</time>
<name>4667</name>
<sym>Dot</sym>
</trkpt>
<trkpt lat="47.821742" lon="15.467738">
<ele>998.0</ele>
<desc>Speed 68.3 km/h Distance 94.68 km</desc>
<time>2012-09-18T17:01:01.62</time>
<name>4668</name>
<sym>Dot</sym>
</trkpt>
<trkpt lat="47.821892" lon="15.467872">
<ele>997.5</ele>
<desc>Speed 70.1 km/h Distance 94.70 km</desc>
<time>2012-09-18T17:01:02.61</time>
<name>4669</name>
<sym>Dot</sym>
</trkpt>
<trkpt lat="47.822048" lon="15.468005">
<ele>997.0</ele>
<desc>Speed 71.7 km/h Distance 94.72 km</desc>
<time>2012-09-18T17:01:03.61</time>
<name>4670</name>
<sym>Dot</sym>
</trkpt>
<trkpt lat="47.822210" lon="15.468138">
<ele>997.0</ele>
<desc>Speed 73.6 km/h Distance 94.74 km</desc>
<time>2012-09-18T17:01:04.60</time>
<name>4671</name>
<sym>Dot</sym>
</trkpt>
<trkpt lat="47.822378" lon="15.468278">
<ele>997.0</ele>
<desc>Speed 76.9 km/h Distance 94.76 km</desc>
<time>2012-09-18T17:01:05.60</time>
<name>4672</name>
<sym>Dot</sym>
</trkpt>
<trkpt lat="47.822540" lon="15.468422">
<ele>996.5</ele>
<desc>Speed 74.8 km/h Distance 94.78 km</desc>
<time>2012-09-18T17:01:06.59</time>
<name>4673</name>
<sym>Dot</sym>
</trkpt>
<trkpt lat="47.822692" lon="15.468568">
<ele>996.5</ele>
<desc>Speed 72.1 km/h Distance 94.80 km</desc>
<time>2012-09-18T17:01:07.59</time>
<name>4674</name>
<sym>Dot</sym>
</trkpt>
<trkpt lat="47.822833" lon="15.468717">
<ele>996.5</ele>
<desc>Speed 69.0 km/h Distance 94.82 km</desc>
<time>2012-09-18T17:01:08.58</time>
<name>4675</name>
<sym>Dot</sym>
</trkpt>
<trkpt lat="47.822967" lon="15.468868">
<ele>996.0</ele>
<desc>Speed 66.6 km/h Distance 94.84 km</desc>
<time>2012-09-18T17:01:09.58</time>
<name>4676</name>
<sym>Dot</sym>
</trkpt>
<trkpt lat="47.823092" lon="15.469023">
<ele>995.5</ele>
<desc>Speed 65.4 km/h Distance 94.86 km</desc>
<time>2012-09-18T17:01:10.57</time>
<name>4677</name>
<sym>Dot</sym>
</trkpt>
<trkpt lat="47.823217" lon="15.469185">
<ele>995.5</ele>
<desc>Speed 65.9 km/h Distance 94.87 km</desc>
<time>2012-09-18T17:01:11.60</time>
<name>4678</name>
<sym>Dot</sym>
</trkpt>
<trkpt lat="47.823340" lon="15.469358">
<ele>995.5</ele>
<desc>Speed 67.6 km/h Distance 94.89 km</desc>
<time>2012-09-18T17:01:12.56</time>
<name>4679</name>
<sym>Dot</sym>
</trkpt>
<trkpt lat="47.823463" lon="15.469545">
<ele>995.5</ele>
<desc>Speed 69.7 km/h Distance 94.91 km</desc>
<time>2012-09-18T17:01:13.56</time>
<name>4680</name>
<sym>Dot</sym>
</trkpt>
<trkpt lat="47.823587" lon="15.469743">
<ele>996.0</ele>
<desc>Speed 72.3 km/h Distance 94.93 km</desc>
<time>2012-09-18T17:01:14.56</time>
<name>4681</name>
<sym>Dot</sym>
</trkpt>
<trkpt lat="47.823703" lon="15.469942">
<ele>996.0</ele>
<desc>Speed 70.8 km/h Distance 94.95 km</desc>
<time>2012-09-18T17:01:15.55</time>
<name>4682</name>
<sym>Dot</sym>
</trkpt>
<trkpt lat="47.823820" lon="15.470150">
<ele>996.0</ele>
<desc>Speed 73.0 km/h Distance 94.97 km</desc>
<time>2012-09-18T17:01:16.54</time>
<name>4683</name>
<sym>Dot</sym>
</trkpt>
<trkpt lat="47.824672" lon="15.471647">
<ele>999.5</ele>
<desc>Speed 121 km/h Distance 95.12 km</desc>
<time>2012-09-18T17:01:22.09</time>
<name>4684</name>
<sym>Dot</sym>
</trkpt>
<trkpt lat="47.824873" lon="15.472007">
<ele>1000.0</ele>
<desc>Speed 126 km/h Distance 95.15 km</desc>
<time>2012-09-18T17:01:22.87</time>
<name>4685</name>
<sym>Dot</sym>
</trkpt>
<trkpt lat="47.825303" lon="15.472740">
<ele>1001.0</ele>
<desc>Speed 131 km/h Distance 95.23 km</desc>
<time>2012-09-18T17:01:24.84</time>
<name>4686</name>
<sym>Dot</sym>
</trkpt>
<trkpt lat="47.825513" lon="15.473100">
<ele>1001.5</ele>
<desc>Speed 128 km/h Distance 95.26 km</desc>
<time>2012-09-18T17:01:25.84</time>
<name>4687</name>
<sym>Dot</sym>
</trkpt>
<trkpt lat="47.825713" lon="15.473448">
<ele>1002.0</ele>
<desc>Speed 124 km/h Distance 95.30 km</desc>
<time>2012-09-18T17:01:26.84</time>
<name>4688</name>
<sym>Dot</sym>
</trkpt>
<trkpt lat="47.825908" lon="15.473798">
<ele>1002.0</ele>
<desc>Speed 122 km/h Distance 95.33 km</desc>
<time>2012-09-18T17:01:27.84</time>
<name>4689</name>
<sym>Dot</sym>
</trkpt>
<trkpt lat="47.826098" lon="15.474150">
<ele>1002.5</ele>
<desc>Speed 121 km/h Distance 95.36 km</desc>
<time>2012-09-18T17:01:28.83</time>
<name>4690</name>
<sym>Dot</sym>
</trkpt>
<trkpt lat="47.826287" lon="15.474500">
<ele>1003.0</ele>
<desc>Speed 121 km/h Distance 95.40 km</desc>
<time>2012-09-18T17:01:29.83</time>
<name>4691</name>
<sym>Dot</sym>
</trkpt>
<trkpt lat="47.826472" lon="15.474843">
<ele>1003.5</ele>
<desc>Speed 119 km/h Distance 95.43 km</desc>
<time>2012-09-18T17:01:30.82</time>
<name>4692</name>
<sym>Dot</sym>
</trkpt>
<trkpt lat="47.826658" lon="15.475175">
<ele>1004.0</ele>
<desc>Speed 116 km/h Distance 95.46 km</desc>
<time>2012-09-18T17:01:31.82</time>
<name>4693</name>
<sym>Dot</sym>
</trkpt>
<trkpt lat="47.826845" lon="15.475498">
<ele>1005.0</ele>
<desc>Speed 115 km/h Distance 95.50 km</desc>
<time>2012-09-18T17:01:32.82</time>
<name>4694</name>
<sym>Dot</sym>
</trkpt>
<trkpt lat="47.827037" lon="15.475813">
<ele>1005.5</ele>
<desc>Speed 114 km/h Distance 95.53 km</desc>
<time>2012-09-18T17:01:33.81</time>
<name>4695</name>
<sym>Dot</sym>
</trkpt>
<trkpt lat="47.827232" lon="15.476122">
<ele>1006.0</ele>
<desc>Speed 114 km/h Distance 95.56 km</desc>
<time>2012-09-18T17:01:34.81</time>
<name>4696</name>
<sym>Dot</sym>
</trkpt>
<trkpt lat="47.827430" lon="15.476425">
<ele>1006.5</ele>
<desc>Speed 114 km/h Distance 95.59 km</desc>
<time>2012-09-18T17:01:35.80</time>
<name>4697</name>
<sym>Dot</sym>
</trkpt>
<trkpt lat="47.827630" lon="15.476723">
<ele>1007.0</ele>
<desc>Speed 114 km/h Distance 95.62 km</desc>
<time>2012-09-18T17:01:36.80</time>
<name>4698</name>
<sym>Dot</sym>
</trkpt>
<trkpt lat="47.827827" lon="15.477010">
<ele>1008.0</ele>
<desc>Speed 110 km/h Distance 95.65 km</desc>
<time>2012-09-18T17:01:37.80</time>
<name>4699</name>
<sym>Dot</sym>
</trkpt>
<trkpt lat="47.828018" lon="15.477287">
<ele>1008.5</ele>
<desc>Speed 107 km/h Distance 95.68 km</desc>
<time>2012-09-18T17:01:38.87</time>
<name>4700</name>
<sym>Dot</sym>
</trkpt>
<trkpt lat="47.828208" lon="15.477553">
<ele>1009.0</ele>
<desc>Speed 105 km/h Distance 95.71 km</desc>
<time>2012-09-18T17:01:39.79</time>
<name>4701</name>
<sym>Dot</sym>
</trkpt>
<trkpt lat="47.828385" lon="15.477805">
<ele>1009.5</ele>
<desc>Speed 97.9 km/h Distance 95.74 km</desc>
<time>2012-09-18T17:01:40.79</time>
<name>4702</name>
<sym>Dot</sym>
</trkpt>
<trkpt lat="47.828543" lon="15.478062">
<ele>1009.5</ele>
<desc>Speed 94.1 km/h Distance 95.76 km</desc>
<time>2012-09-18T17:01:41.79</time>
<name>4703</name>
<sym>Dot</sym>
</trkpt>
<trkpt lat="47.828682" lon="15.478340">
<ele>1008.5</ele>
<desc>Speed 93.2 km/h Distance 95.79 km</desc>
<time>2012-09-18T17:01:42.79</time>
<name>4704</name>
<sym>Dot</sym>
</trkpt>
<trkpt lat="47.828790" lon="15.478675">
<ele>1009.0</ele>
<desc>Speed 99.8 km/h Distance 95.82 km</desc>
<time>2012-09-18T17:01:43.79</time>
<name>4705</name>
<sym>Dot</sym>
</trkpt>
<trkpt lat="47.828872" lon="15.479032">
<ele>1010.5</ele>
<desc>Speed 102 km/h Distance 95.85 km</desc>
<time>2012-09-18T17:01:44.78</time>
<name>4706</name>
<sym>Dot</sym>
</trkpt>
<trkpt lat="47.828908" lon="15.479407">
<ele>1011.0</ele>
<desc>Speed 102 km/h Distance 95.87 km</desc>
<time>2012-09-18T17:01:45.77</time>
<name>4707</name>
<sym>Dot</sym>
</trkpt>
<trkpt lat="47.828907" lon="15.479797">
<ele>1012.0</ele>
<desc>Speed 105 km/h Distance 95.90 km</desc>
<time>2012-09-18T17:01:46.76</time>
<name>4708</name>
<sym>Dot</sym>
</trkpt>
<trkpt lat="47.828890" lon="15.480190">
<ele>1013.5</ele>
<desc>Speed 106 km/h Distance 95.93 km</desc>
<time>2012-09-18T17:01:47.76</time>
<name>4709</name>
<sym>Dot</sym>
</trkpt>
<trkpt lat="47.828835" lon="15.480600">
<ele>1015.5</ele>
<desc>Speed 113 km/h Distance 95.96 km</desc>
<time>2012-09-18T17:01:48.76</time>
<name>4710</name>
<sym>Dot</sym>
</trkpt>
<trkpt lat="47.828777" lon="15.481015">
<ele>1017.0</ele>
<desc>Speed 114 km/h Distance 96.00 km</desc>
<time>2012-09-18T17:01:49.83</time>
<name>4711</name>
<sym>Dot</sym>
</trkpt>
<trkpt lat="47.828708" lon="15.481440">
<ele>1018.0</ele>
<desc>Speed 118 km/h Distance 96.03 km</desc>
<time>2012-09-18T17:01:50.74</time>
<name>4712</name>
<sym>Dot</sym>
</trkpt>
<trkpt lat="47.828637" lon="15.481868">
<ele>1019.0</ele>
<desc>Speed 119 km/h Distance 96.06 km</desc>
<time>2012-09-18T17:01:51.73</time>
<name>4713</name>
<sym>Dot</sym>
</trkpt>
<trkpt lat="47.828560" lon="15.482295">
<ele>1020.0</ele>
<desc>Speed 119 km/h Distance 96.09 km</desc>
<time>2012-09-18T17:01:52.72</time>
<name>4714</name>
<sym>Dot</sym>
</trkpt>
<trkpt lat="47.828482" lon="15.482698">
<ele>1019.5</ele>
<desc>Speed 114 km/h Distance 96.13 km</desc>
<time>2012-09-18T17:01:53.72</time>
<name>4715</name>
<sym>Dot</sym>
</trkpt>
<trkpt lat="47.828237" lon="15.484050">
<ele>1019.5</ele>
<desc>Speed 58.3 km/h Distance 96.23 km</desc>
<time>2012-09-18T17:01:58.88</time>
<name>4716</name>
<sym>Dot</sym>
</trkpt>
<trkpt lat="47.828255" lon="15.484262">
<ele>1019.0</ele>
<desc>Speed 56.9 km/h Distance 96.25 km</desc>
<time>2012-09-18T17:01:59.84</time>
<name>4717</name>
<sym>Dot</sym>
</trkpt>
<trkpt lat="47.828287" lon="15.484465">
<ele>1019.0</ele>
<desc>Speed 56.4 km/h Distance 96.26 km</desc>
<time>2012-09-18T17:02:00.83</time>
<name>4718</name>
<sym>Dot</sym>
</trkpt>
<trkpt lat="47.828360" lon="15.484660">
<ele>1019.0</ele>
<desc>Speed 59.8 km/h Distance 96.28 km</desc>
<time>2012-09-18T17:02:01.84</time>
<name>4719</name>
<sym>Dot</sym>
</trkpt>
<trkpt lat="47.828882" lon="15.485487">
<ele>1014.5</ele>
<desc>Speed 77.3 km/h Distance 96.36 km</desc>
<time>2012-09-18T17:02:05.85</time>
<name>4720</name>
<sym>Dot</sym>
</trkpt>
<trkpt lat="47.829025" lon="15.485673">
<ele>1013.0</ele>
<desc>Speed 76.4 km/h Distance 96.39 km</desc>
<time>2012-09-18T17:02:06.85</time>
<name>4721</name>
<sym>Dot</sym>
</trkpt>
<trkpt lat="47.829163" lon="15.485845">
<ele>1012.5</ele>
<desc>Speed 72.2 km/h Distance 96.41 km</desc>
<time>2012-09-18T17:02:07.85</time>
<name>4722</name>
<sym>Dot</sym>
</trkpt>
<trkpt lat="47.829298" lon="15.486015">
<ele>1010.5</ele>
<desc>Speed 71.0 km/h Distance 96.42 km</desc>
<time>2012-09-18T17:02:08.84</time>
<name>4723</name>
<sym>Dot</sym>
</trkpt>
<trkpt lat="47.829573" lon="15.486482">
<ele>1010.5</ele>
<desc>Speed 85.4 km/h Distance 96.47 km</desc>
<time>2012-09-18T17:02:10.92</time>
<name>4724</name>
<sym>Dot</sym>
</trkpt>
<trkpt lat="47.829830" lon="15.487042">
<ele>1010.0</ele>
<desc>Speed 91.0 km/h Distance 96.52 km</desc>
<time>2012-09-18T17:02:12.82</time>
<name>4725</name>
<sym>Dot</sym>
</trkpt>
<trkpt lat="47.829962" lon="15.487328">
<ele>1009.5</ele>
<desc>Speed 94.3 km/h Distance 96.55 km</desc>
<time>2012-09-18T17:02:13.82</time>
<name>4726</name>
<sym>Dot</sym>
</trkpt>
<trkpt lat="47.830098" lon="15.487612">
<ele>1009.5</ele>
<desc>Speed 94.1 km/h Distance 96.57 km</desc>
<time>2012-09-18T17:02:14.81</time>
<name>4727</name>
<sym>Dot</sym>
</trkpt>
<trkpt lat="47.830575" lon="15.488698">
<ele>1006.0</ele>
<desc>Speed 62.8 km/h Distance 96.67 km</desc>
<time>2012-09-18T17:02:19.86</time>
<name>4728</name>
<sym>Dot</sym>
</trkpt>
<trkpt lat="47.830608" lon="15.488913">
<ele>1005.5</ele>
<desc>Speed 59.0 km/h Distance 96.69 km</desc>
<time>2012-09-18T17:02:20.84</time>
<name>4729</name>
<sym>Dot</sym>
</trkpt>
<trkpt lat="47.830605" lon="15.489135">
<ele>1003.5</ele>
<desc>Speed 60.4 km/h Distance 96.70 km</desc>
<time>2012-09-18T17:02:21.91</time>
<name>4730</name>
<sym>Dot</sym>
</trkpt>
<trkpt lat="47.830570" lon="15.489362">
<ele>1002.0</ele>
<desc>Speed 62.5 km/h Distance 96.72 km</desc>
<time>2012-09-18T17:02:22.84</time>
<name>4731</name>
<sym>Dot</sym>
</trkpt>
<trkpt lat="47.830392" lon="15.490158">
<ele>998.0</ele>
<desc>Speed 77.5 km/h Distance 96.78 km</desc>
<time>2012-09-18T17:02:25.85</time>
<name>4732</name>
<sym>Dot</sym>
</trkpt>
<trkpt lat="47.830353" lon="15.490457">
<ele>997.0</ele>
<desc>Speed 83.2 km/h Distance 96.81 km</desc>
<time>2012-09-18T17:02:26.84</time>
<name>4733</name>
<sym>Dot</sym>
</trkpt>
<trkpt lat="47.830318" lon="15.490760">
<ele>996.0</ele>
<desc>Speed 84.1 km/h Distance 96.83 km</desc>
<time>2012-09-18T17:02:27.84</time>
<name>4734</name>
<sym>Dot</sym>
</trkpt>
<trkpt lat="47.830283" lon="15.491063">
<ele>996.0</ele>
<desc>Speed 83.1 km/h Distance 96.85 km</desc>
<time>2012-09-18T17:02:28.84</time>
<name>4735</name>
<sym>Dot</sym>
</trkpt>
<trkpt lat="47.830078" lon="15.492047">
<ele>990.5</ele>
<desc>Speed 53.0 km/h Distance 96.93 km</desc>
<time>2012-09-18T17:02:33.85</time>
<name>4736</name>
<sym>Dot</sym>
</trkpt>
<trkpt lat="47.829977" lon="15.492187">
<ele>990.0</ele>
<desc>Speed 56.2 km/h Distance 96.95 km</desc>
<time>2012-09-18T17:02:34.85</time>
<name>4737</name>
<sym>Dot</sym>
</trkpt>
<trkpt lat="47.829877" lon="15.492315">
<ele>989.5</ele>
<desc>Speed 53.7 km/h Distance 96.96 km</desc>
<time>2012-09-18T17:02:35.85</time>
<name>4738</name>
<sym>Dot</sym>
</trkpt>
<trkpt lat="47.829760" lon="15.492613">
<ele>986.5</ele>
<desc>Speed 48.5 km/h Distance 96.99 km</desc>
<time>2012-09-18T17:02:37.84</time>
<name>4739</name>
<sym>Dot</sym>
</trkpt>
<trkpt lat="47.829753" lon="15.492800">
<ele>985.5</ele>
<desc>Speed 50.9 km/h Distance 97.00 km</desc>
<time>2012-09-18T17:02:38.84</time>
<name>4740</name>
<sym>Dot</sym>
</trkpt>
<trkpt lat="47.829798" lon="15.493245">
<ele>982.5</ele>
<desc>Speed 62.5 km/h Distance 97.03 km</desc>
<time>2012-09-18T17:02:40.83</time>
<name>4741</name>
<sym>Dot</sym>
</trkpt>
<trkpt lat="47.829808" lon="15.493502">
<ele>982.0</ele>
<desc>Speed 69.1 km/h Distance 97.05 km</desc>
<time>2012-09-18T17:02:41.83</time>
<name>4742</name>
<sym>Dot</sym>
</trkpt>
<trkpt lat="47.829803" lon="15.493768">
<ele>981.5</ele>
<desc>Speed 71.1 km/h Distance 97.07 km</desc>
<time>2012-09-18T17:02:42.82</time>
<name>4743</name>
<sym>Dot</sym>
</trkpt>
<trkpt lat="47.829775" lon="15.494043">
<ele>981.0</ele>
<desc>Speed 74.5 km/h Distance 97.09 km</desc>
<time>2012-09-18T17:02:43.83</time>
<name>4744</name>
<sym>Dot</sym>
</trkpt>
<trkpt lat="47.829737" lon="15.494318">
<ele>979.5</ele>
<desc>Speed 75.9 km/h Distance 97.11 km</desc>
<time>2012-09-18T17:02:44.82</time>
<name>4745</name>
<sym>Dot</sym>
</trkpt>
<trkpt lat="47.829687" lon="15.494583">
<ele>978.0</ele>
<desc>Speed 74.5 km/h Distance 97.13 km</desc>
<time>2012-09-18T17:02:45.82</time>
<name>4746</name>
<sym>Dot</sym>
</trkpt>
<trkpt lat="47.829633" lon="15.494833">
<ele>977.0</ele>
<desc>Speed 71.2 km/h Distance 97.15 km</desc>
<time>2012-09-18T17:02:46.81</time>
<name>4747</name>
<sym>Dot</sym>
</trkpt>
<trkpt lat="47.829598" lon="15.495097">
<ele>976.0</ele>
<desc>Speed 72.8 km/h Distance 97.17 km</desc>
<time>2012-09-18T17:02:47.80</time>
<name>4748</name>
<sym>Dot</sym>
</trkpt>
<trkpt lat="47.829593" lon="15.495388">
<ele>975.0</ele>
<desc>Speed 78.7 km/h Distance 97.20 km</desc>
<time>2012-09-18T17:02:48.80</time>
<name>4749</name>
<sym>Dot</sym>
</trkpt>
<trkpt lat="47.829633" lon="15.496030">
<ele>970.0</ele>
<desc>Speed 85.9 km/h Distance 97.24 km</desc>
<time>2012-09-18T17:02:50.79</time>
<name>4750</name>
<sym>Dot</sym>
</trkpt>
<trkpt lat="47.829662" lon="15.496355">
<ele>967.5</ele>
<desc>Speed 88.0 km/h Distance 97.27 km</desc>
<time>2012-09-18T17:02:51.79</time>
<name>4751</name>
<sym>Dot</sym>
</trkpt>
<trkpt lat="47.829688" lon="15.496685">
<ele>965.0</ele>
<desc>Speed 89.7 km/h Distance 97.29 km</desc>
<time>2012-09-18T17:02:52.79</time>
<name>4752</name>
<sym>Dot</sym>
</trkpt>
<trkpt lat="47.829717" lon="15.497020">
<ele>964.0</ele>
<desc>Speed 91.2 km/h Distance 97.32 km</desc>
<time>2012-09-18T17:02:53.79</time>
<name>4753</name>
<sym>Dot</sym>
</trkpt>
<trkpt lat="47.829752" lon="15.497362">
<ele>962.5</ele>
<desc>Speed 92.8 km/h Distance 97.34 km</desc>
<time>2012-09-18T17:02:54.78</time>
<name>4754</name>
<sym>Dot</sym>
</trkpt>
<trkpt lat="47.829780" lon="15.497702">
<ele>961.5</ele>
<desc>Speed 92.5 km/h Distance 97.37 km</desc>
<time>2012-09-18T17:02:55.78</time>
<name>4755</name>
<sym>Dot</sym>
</trkpt>
<trkpt lat="47.829805" lon="15.498043">
<ele>960.0</ele>
<desc>Speed 92.6 km/h Distance 97.40 km</desc>
<time>2012-09-18T17:02:56.77</time>
<name>4756</name>
<sym>Dot</sym>
</trkpt>
<trkpt lat="47.829828" lon="15.498387">
<ele>958.5</ele>
<desc>Speed 92.9 km/h Distance 97.42 km</desc>
<time>2012-09-18T17:02:57.77</time>
<name>4757</name>
<sym>Dot</sym>
</trkpt>
<trkpt lat="47.829848" lon="15.498728">
<ele>957.5</ele>
<desc>Speed 92.8 km/h Distance 97.45 km</desc>
<time>2012-09-18T17:02:58.75</time>
<name>4758</name>
<sym>Dot</sym>
</trkpt>
<trkpt lat="47.829863" lon="15.499068">
<ele>956.5</ele>
<desc>Speed 91.6 km/h Distance 97.47 km</desc>
<time>2012-09-18T17:02:59.75</time>
<name>4759</name>
<sym>Dot</sym>
</trkpt>
<trkpt lat="47.829875" lon="15.499405">
<ele>955.5</ele>
<desc>Speed 91.0 km/h Distance 97.50 km</desc>
<time>2012-09-18T17:03:00.75</time>
<name>4760</name>
<sym>Dot</sym>
</trkpt>
<trkpt lat="47.829883" lon="15.499747">
<ele>954.0</ele>
<desc>Speed 91.9 km/h Distance 97.52 km</desc>
<time>2012-09-18T17:03:01.75</time>
<name>4761</name>
<sym>Dot</sym>
</trkpt>
<trkpt lat="47.829893" lon="15.500098">
<ele>953.0</ele>
<desc>Speed 94.6 km/h Distance 97.55 km</desc>
<time>2012-09-18T17:03:02.74</time>
<name>4762</name>
<sym>Dot</sym>
</trkpt>
<trkpt lat="47.829900" lon="15.500453">
<ele>952.0</ele>
<desc>Speed 95.7 km/h Distance 97.58 km</desc>
<time>2012-09-18T17:03:03.73</time>
<name>4763</name>
<sym>Dot</sym>
</trkpt>
<trkpt lat="47.829902" lon="15.500810">
<ele>951.5</ele>
<desc>Speed 95.8 km/h Distance 97.60 km</desc>
<time>2012-09-18T17:03:04.73</time>
<name>4764</name>
<sym>Dot</sym>
</trkpt>
<trkpt lat="47.829900" lon="15.501167">
<ele>950.0</ele>
<desc>Speed 95.8 km/h Distance 97.63 km</desc>
<time>2012-09-18T17:03:05.72</time>
<name>4765</name>
<sym>Dot</sym>
</trkpt>
<trkpt lat="47.829897" lon="15.501525">
<ele>949.0</ele>
<desc>Speed 96.4 km/h Distance 97.66 km</desc>
<time>2012-09-18T17:03:06.71</time>
<name>4766</name>
<sym>Dot</sym>
</trkpt>
<trkpt lat="47.829888" lon="15.501882">
<ele>948.0</ele>
<desc>Speed 95.7 km/h Distance 97.68 km</desc>
<time>2012-09-18T17:03:07.72</time>
<name>4767</name>
<sym>Dot</sym>
</trkpt>
<trkpt lat="47.829875" lon="15.502237">
<ele>947.0</ele>
<desc>Speed 95.3 km/h Distance 97.71 km</desc>
<time>2012-09-18T17:03:08.71</time>
<name>4768</name>
<sym>Dot</sym>
</trkpt>
<trkpt lat="47.829852" lon="15.502588">
<ele>946.0</ele>
<desc>Speed 94.2 km/h Distance 97.74 km</desc>
<time>2012-09-18T17:03:09.71</time>
<name>4769</name>
<sym>Dot</sym>
</trkpt>
<trkpt lat="47.829815" lon="15.502938">
<ele>945.0</ele>
<desc>Speed 94.5 km/h Distance 97.76 km</desc>
<time>2012-09-18T17:03:10.70</time>
<name>4770</name>
<sym>Dot</sym>
</trkpt>
<trkpt lat="47.829773" lon="15.503287">
<ele>943.5</ele>
<desc>Speed 94.3 km/h Distance 97.79 km</desc>
<time>2012-09-18T17:03:11.70</time>
<name>4771</name>
<sym>Dot</sym>
</trkpt>
<trkpt lat="47.829718" lon="15.503628">
<ele>940.0</ele>
<desc>Speed 94.9 km/h Distance 97.82 km</desc>
<time>2012-09-18T17:03:12.71</time>
<name>4772</name>
<sym>Dot</sym>
</trkpt>
<trkpt lat="47.829638" lon="15.503977">
<ele>938.0</ele>
<desc>Speed 98.8 km/h Distance 97.84 km</desc>
<time>2012-09-18T17:03:13.69</time>
<name>4773</name>
<sym>Dot</sym>
</trkpt>
<trkpt lat="47.829565" lon="15.504327">
<ele>936.0</ele>
<desc>Speed 98.8 km/h Distance 97.87 km</desc>
<time>2012-09-18T17:03:14.68</time>
<name>4774</name>
<sym>Dot</sym>
</trkpt>
<trkpt lat="47.829483" lon="15.504678">
<ele>932.5</ele>
<desc>Speed 101 km/h Distance 97.90 km</desc>
<time>2012-09-18T17:03:15.79</time>
<name>4775</name>
<sym>Dot</sym>
</trkpt>
<trkpt lat="47.829397" lon="15.505035">
<ele>929.0</ele>
<desc>Speed 102 km/h Distance 97.93 km</desc>
<time>2012-09-18T17:03:16.67</time>
<name>4776</name>
<sym>Dot</sym>
</trkpt>
<trkpt lat="47.829312" lon="15.505392">
<ele>925.5</ele>
<desc>Speed 102 km/h Distance 97.95 km</desc>
<time>2012-09-18T17:03:17.67</time>
<name>4777</name>
<sym>Dot</sym>
</trkpt>
<trkpt lat="47.829228" lon="15.505742">
<ele>921.5</ele>
<desc>Speed 101 km/h Distance 97.98 km</desc>
<time>2012-09-18T17:03:18.66</time>
<name>4778</name>
<sym>Dot</sym>
</trkpt>
<trkpt lat="47.829145" lon="15.506090">
<ele>918.0</ele>
<desc>Speed 99.3 km/h Distance 98.01 km</desc>
<time>2012-09-18T17:03:19.66</time>
<name>4779</name>
<sym>Dot</sym>
</trkpt>
<trkpt lat="47.829062" lon="15.506433">
<ele>915.0</ele>
<desc>Speed 98.2 km/h Distance 98.04 km</desc>
<time>2012-09-18T17:03:20.66</time>
<name>4780</name>
<sym>Dot</sym>
</trkpt>
<trkpt lat="47.828980" lon="15.506770">
<ele>913.5</ele>
<desc>Speed 96.6 km/h Distance 98.06 km</desc>
<time>2012-09-18T17:03:21.65</time>
<name>4781</name>
<sym>Dot</sym>
</trkpt>
<trkpt lat="47.828887" lon="15.507092">
<ele>911.5</ele>
<desc>Speed 94.4 km/h Distance 98.09 km</desc>
<time>2012-09-18T17:03:22.65</time>
<name>4782</name>
<sym>Dot</sym>
</trkpt>
<trkpt lat="47.828772" lon="15.507385">
<ele>909.0</ele>
<desc>Speed 91.3 km/h Distance 98.12 km</desc>
<time>2012-09-18T17:03:23.65</time>
<name>4783</name>
<sym>Dot</sym>
</trkpt>
<trkpt lat="47.828628" lon="15.507638">
<ele>907.5</ele>
<desc>Speed 89.5 km/h Distance 98.14 km</desc>
<time>2012-09-18T17:03:24.64</time>
<name>4784</name>
<sym>Dot</sym>
</trkpt>
<trkpt lat="47.828467" lon="15.507890">
<ele>906.0</ele>
<desc>Speed 94.0 km/h Distance 98.17 km</desc>
<time>2012-09-18T17:03:25.64</time>
<name>4785</name>
<sym>Dot</sym>
</trkpt>
<trkpt lat="47.828290" lon="15.508140">
<ele>902.5</ele>
<desc>Speed 98.9 km/h Distance 98.19 km</desc>
<time>2012-09-18T17:03:26.65</time>
<name>4786</name>
<sym>Dot</sym>
</trkpt>
<trkpt lat="47.828108" lon="15.508395">
<ele>899.0</ele>
<desc>Speed 100 km/h Distance 98.22 km</desc>
<time>2012-09-18T17:03:27.64</time>
<name>4787</name>
<sym>Dot</sym>
</trkpt>
<trkpt lat="47.827935" lon="15.508643">
<ele>897.0</ele>
<desc>Speed 95.9 km/h Distance 98.25 km</desc>
<time>2012-09-18T17:03:28.63</time>
<name>4788</name>
<sym>Dot</sym>
</trkpt>
<trkpt lat="47.827460" lon="15.509213">
<ele>892.0</ele>
<desc>Speed 79.9 km/h Distance 98.32 km</desc>
<time>2012-09-18T17:03:31.85</time>
<name>4789</name>
<sym>Dot</sym>
</trkpt>
<trkpt lat="47.827308" lon="15.509388">
<ele>890.0</ele>
<desc>Speed 77.0 km/h Distance 98.34 km</desc>
<time>2012-09-18T17:03:32.84</time>
<name>4790</name>
<sym>Dot</sym>
</trkpt>
<trkpt lat="47.827175" lon="15.509587">
<ele>889.5</ele>
<desc>Speed 75.2 km/h Distance 98.36 km</desc>
<time>2012-09-18T17:03:33.83</time>
<name>4791</name>
<sym>Dot</sym>
</trkpt>
<trkpt lat="47.826935" lon="15.510107">
<ele>885.0</ele>
<desc>Speed 83.8 km/h Distance 98.41 km</desc>
<time>2012-09-18T17:03:35.83</time>
<name>4792</name>
<sym>Dot</sym>
</trkpt>
<trkpt lat="47.826825" lon="15.510368">
<ele>882.0</ele>
<desc>Speed 82.3 km/h Distance 98.43 km</desc>
<time>2012-09-18T17:03:36.82</time>
<name>4793</name>
<sym>Dot</sym>
</trkpt>
<trkpt lat="47.826688" lon="15.510613">
<ele>880.0</ele>
<desc>Speed 86.0 km/h Distance 98.45 km</desc>
<time>2012-09-18T17:03:37.82</time>
<name>4794</name>
<sym>Dot</sym>
</trkpt>
<trkpt lat="47.826360" lon="15.511095">
<ele>876.5</ele>
<desc>Speed 89.0 km/h Distance 98.50 km</desc>
<time>2012-09-18T17:03:39.81</time>
<name>4795</name>
<sym>Dot</sym>
</trkpt>
<trkpt lat="47.826207" lon="15.511318">
<ele>874.0</ele>
<desc>Speed 85.8 km/h Distance 98.53 km</desc>
<time>2012-09-18T17:03:40.80</time>
<name>4796</name>
<sym>Dot</sym>
</trkpt>
<trkpt lat="47.826063" lon="15.511557">
<ele>873.5</ele>
<desc>Speed 85.3 km/h Distance 98.55 km</desc>
<time>2012-09-18T17:03:41.80</time>
<name>4797</name>
<sym>Dot</sym>
</trkpt>
<trkpt lat="47.825942" lon="15.511838">
<ele>872.5</ele>
<desc>Speed 90.0 km/h Distance 98.58 km</desc>
<time>2012-09-18T17:03:42.80</time>
<name>4798</name>
<sym>Dot</sym>
</trkpt>
<trkpt lat="47.825835" lon="15.512118">
<ele>870.0</ele>
<desc>Speed 86.3 km/h Distance 98.60 km</desc>
<time>2012-09-18T17:03:43.80</time>
<name>4799</name>
<sym>Dot</sym>
</trkpt>
<trkpt lat="47.825745" lon="15.512393">
<ele>868.0</ele>
<desc>Speed 82.5 km/h Distance 98.62 km</desc>
<time>2012-09-18T17:03:44.79</time>
<name>4800</name>
<sym>Dot</sym>
</trkpt>
<trkpt lat="47.825652" lon="15.512657">
<ele>864.0</ele>
<desc>Speed 78.7 km/h Distance 98.65 km</desc>
<time>2012-09-18T17:03:45.79</time>
<name>4801</name>
<sym>Dot</sym>
</trkpt>
<trkpt lat="47.825548" lon="15.512908">
<ele>860.5</ele>
<desc>Speed 79.6 km/h Distance 98.67 km</desc>
<time>2012-09-18T17:03:46.78</time>
<name>4802</name>
<sym>Dot</sym>
</trkpt>
<trkpt lat="47.825423" lon="15.513143">
<ele>858.0</ele>
<desc>Speed 80.9 km/h Distance 98.69 km</desc>
<time>2012-09-18T17:03:47.78</time>
<name>4803</name>
<sym>Dot</sym>
</trkpt>
<trkpt lat="47.825283" lon="15.513357">
<ele>854.5</ele>
<desc>Speed 79.9 km/h Distance 98.71 km</desc>
<time>2012-09-18T17:03:48.77</time>
<name>4804</name>
<sym>Dot</sym>
</trkpt>
<trkpt lat="47.825120" lon="15.513533">
<ele>852.0</ele>
<desc>Speed 80.1 km/h Distance 98.74 km</desc>
<time>2012-09-18T17:03:49.77</time>
<name>4805</name>
<sym>Dot</sym>
</trkpt>
<trkpt lat="47.824948" lon="15.513702">
<ele>845.5</ele>
<desc>Speed 81.4 km/h Distance 98.76 km</desc>
<time>2012-09-18T17:03:50.76</time>
<name>4806</name>
<sym>Dot</sym>
</trkpt>
<trkpt lat="47.824755" lon="15.513813">
<ele>843.5</ele>
<desc>Speed 83.3 km/h Distance 98.78 km</desc>
<time>2012-09-18T17:03:51.76</time>
<name>4807</name>
<sym>Dot</sym>
</trkpt>
<trkpt lat="47.824553" lon="15.513898">
<ele>838.5</ele>
<desc>Speed 82.4 km/h Distance 98.80 km</desc>
<time>2012-09-18T17:03:52.76</time>
<name>4808</name>
<sym>Dot</sym>
</trkpt>
<trkpt lat="47.824367" lon="15.513982">
<ele>836.5</ele>
<desc>Speed 77.9 km/h Distance 98.83 km</desc>
<time>2012-09-18T17:03:53.75</time>
<name>4809</name>
<sym>Dot</sym>
</trkpt>
<trkpt lat="47.824195" lon="15.514118">
<ele>837.5</ele>
<desc>Speed 78.7 km/h Distance 98.85 km</desc>
<time>2012-09-18T17:03:54.74</time>
<name>4810</name>
<sym>Dot</sym>
</trkpt>
<trkpt lat="47.824035" lon="15.514308">
<ele>837.0</ele>
<desc>Speed 82.6 km/h Distance 98.87 km</desc>
<time>2012-09-18T17:03:55.75</time>
<name>4811</name>
<sym>Dot</sym>
</trkpt>
<trkpt lat="47.823882" lon="15.514547">
<ele>837.0</ele>
<desc>Speed 89.0 km/h Distance 98.90 km</desc>
<time>2012-09-18T17:03:56.73</time>
<name>4812</name>
<sym>Dot</sym>
</trkpt>
<trkpt lat="47.823732" lon="15.514797">
<ele>836.0</ele>
<desc>Speed 89.8 km/h Distance 98.92 km</desc>
<time>2012-09-18T17:03:57.75</time>
<name>4813</name>
<sym>Dot</sym>
</trkpt>
<trkpt lat="47.823592" lon="15.515040">
<ele>834.5</ele>
<desc>Speed 86.2 km/h Distance 98.94 km</desc>
<time>2012-09-18T17:03:58.73</time>
<name>4814</name>
<sym>Dot</sym>
</trkpt>
<trkpt lat="47.823463" lon="15.515277">
<ele>833.0</ele>
<desc>Speed 81.5 km/h Distance 98.97 km</desc>
<time>2012-09-18T17:03:59.72</time>
<name>4815</name>
<sym>Dot</sym>
</trkpt>
<trkpt lat="47.823347" lon="15.515502">
<ele>831.5</ele>
<desc>Speed 76.1 km/h Distance 98.99 km</desc>
<time>2012-09-18T17:04:00.71</time>
<name>4816</name>
<sym>Dot</sym>
</trkpt>
<trkpt lat="47.823242" lon="15.515707">
<ele>831.0</ele>
<desc>Speed 69.4 km/h Distance 99.01 km</desc>
<time>2012-09-18T17:04:01.70</time>
<name>4817</name>
<sym>Dot</sym>
</trkpt>
<trkpt lat="47.823065" lon="15.516075">
<ele>828.5</ele>
<desc>Speed 60.1 km/h Distance 99.04 km</desc>
<time>2012-09-18T17:04:03.70</time>
<name>4818</name>
<sym>Dot</sym>
</trkpt>
<trkpt lat="47.822977" lon="15.516255">
<ele>828.0</ele>
<desc>Speed 59.9 km/h Distance 99.06 km</desc>
<time>2012-09-18T17:04:04.69</time>
<name>4819</name>
<sym>Dot</sym>
</trkpt>
<trkpt lat="47.822887" lon="15.516425">
<ele>827.0</ele>
<desc>Speed 58.2 km/h Distance 99.07 km</desc>
<time>2012-09-18T17:04:05.69</time>
<name>4820</name>
<sym>Dot</sym>
</trkpt>
<trkpt lat="47.822803" lon="15.516590">
<ele>826.0</ele>
<desc>Speed 56.2 km/h Distance 99.09 km</desc>
<time>2012-09-18T17:04:06.70</time>
<name>4821</name>
<sym>Dot</sym>
</trkpt>
<trkpt lat="47.822735" lon="15.516777">
<ele>823.0</ele>
<desc>Speed 54.7 km/h Distance 99.11 km</desc>
<time>2012-09-18T17:04:07.69</time>
<name>4822</name>
<sym>Dot</sym>
</trkpt>
<trkpt lat="47.822698" lon="15.516967">
<ele>822.0</ele>
<desc>Speed 53.7 km/h Distance 99.12 km</desc>
<time>2012-09-18T17:04:08.68</time>
<name>4823</name>
<sym>Dot</sym>
</trkpt>
<trkpt lat="47.822675" lon="15.517435">
<ele>818.5</ele>
<desc>Speed 64.4 km/h Distance 99.16 km</desc>
<time>2012-09-18T17:04:10.67</time>
<name>4824</name>
<sym>Dot</sym>
</trkpt>
<trkpt lat="47.822673" lon="15.517668">
<ele>817.0</ele>
<desc>Speed 62.9 km/h Distance 99.17 km</desc>
<time>2012-09-18T17:04:11.67</time>
<name>4825</name>
<sym>Dot</sym>
</trkpt>
<trkpt lat="47.822675" lon="15.517898">
<ele>815.0</ele>
<desc>Speed 61.9 km/h Distance 99.19 km</desc>
<time>2012-09-18T17:04:12.66</time>
<name>4826</name>
<sym>Dot</sym>
</trkpt>
<trkpt lat="47.822683" lon="15.518128">
<ele>814.5</ele>
<desc>Speed 62.2 km/h Distance 99.21 km</desc>
<time>2012-09-18T17:04:13.66</time>
<name>4827</name>
<sym>Dot</sym>
</trkpt>
<trkpt lat="47.822698" lon="15.518360">
<ele>813.0</ele>
<desc>Speed 62.6 km/h Distance 99.22 km</desc>
<time>2012-09-18T17:04:14.65</time>
<name>4828</name>
<sym>Dot</sym>
</trkpt>
<trkpt lat="47.822710" lon="15.518593">
<ele>811.5</ele>
<desc>Speed 62.9 km/h Distance 99.24 km</desc>
<time>2012-09-18T17:04:15.65</time>
<name>4829</name>
<sym>Dot</sym>
</trkpt>
<trkpt lat="47.822713" lon="15.518837">
<ele>809.5</ele>
<desc>Speed 64.8 km/h Distance 99.26 km</desc>
<time>2012-09-18T17:04:16.65</time>
<name>4830</name>
<sym>Dot</sym>
</trkpt>
<trkpt lat="47.822710" lon="15.519097">
<ele>808.0</ele>
<desc>Speed 70.2 km/h Distance 99.28 km</desc>
<time>2012-09-18T17:04:17.66</time>
<name>4831</name>
<sym>Dot</sym>
</trkpt>
<trkpt lat="47.822633" lon="15.520047">
<ele>807.0</ele>
<desc>Speed 88.5 km/h Distance 99.35 km</desc>
<time>2012-09-18T17:04:20.84</time>
<name>4832</name>
<sym>Dot</sym>
</trkpt>
<trkpt lat="47.822597" lon="15.520378">
<ele>805.5</ele>
<desc>Speed 90.3 km/h Distance 99.38 km</desc>
<time>2012-09-18T17:04:21.84</time>
<name>4833</name>
<sym>Dot</sym>
</trkpt>
<trkpt lat="47.822557" lon="15.520697">
<ele>804.0</ele>
<desc>Speed 87.1 km/h Distance 99.40 km</desc>
<time>2012-09-18T17:04:22.83</time>
<name>4834</name>
<sym>Dot</sym>
</trkpt>
<trkpt lat="47.822515" lon="15.521000">
<ele>803.0</ele>
<desc>Speed 83.0 km/h Distance 99.42 km</desc>
<time>2012-09-18T17:04:23.83</time>
<name>4835</name>
<sym>Dot</sym>
</trkpt>
<trkpt lat="47.822477" lon="15.521290">
<ele>801.5</ele>
<desc>Speed 79.4 km/h Distance 99.45 km</desc>
<time>2012-09-18T17:04:24.83</time>
<name>4836</name>
<sym>Dot</sym>
</trkpt>
<trkpt lat="47.822435" lon="15.521558">
<ele>799.5</ele>
<desc>Speed 73.0 km/h Distance 99.47 km</desc>
<time>2012-09-18T17:04:25.82</time>
<name>4837</name>
<sym>Dot</sym>
</trkpt>
<trkpt lat="47.822380" lon="15.521807">
<ele>798.0</ele>
<desc>Speed 69.5 km/h Distance 99.49 km</desc>
<time>2012-09-18T17:04:26.81</time>
<name>4838</name>
<sym>Dot</sym>
</trkpt>
<trkpt lat="47.822293" lon="15.522040">
<ele>796.0</ele>
<desc>Speed 71.7 km/h Distance 99.51 km</desc>
<time>2012-09-18T17:04:27.81</time>
<name>4839</name>
<sym>Dot</sym>
</trkpt>
<trkpt lat="47.822012" lon="15.522492">
<ele>793.0</ele>
<desc>Speed 85.2 km/h Distance 99.55 km</desc>
<time>2012-09-18T17:04:29.81</time>
<name>4840</name>
<sym>Dot</sym>
</trkpt>
<trkpt lat="47.821857" lon="15.522715">
<ele>792.5</ele>
<desc>Speed 86.8 km/h Distance 99.58 km</desc>
<time>2012-09-18T17:04:30.81</time>
<name>4841</name>
<sym>Dot</sym>
</trkpt>
<trkpt lat="47.821702" lon="15.522952">
<ele>790.5</ele>
<desc>Speed 90.0 km/h Distance 99.60 km</desc>
<time>2012-09-18T17:04:31.80</time>
<name>4842</name>
<sym>Dot</sym>
</trkpt>
<trkpt lat="47.821553" lon="15.523233">
<ele>788.0</ele>
<desc>Speed 96.4 km/h Distance 99.63 km</desc>
<time>2012-09-18T17:04:32.80</time>
<name>4843</name>
<sym>Dot</sym>
</trkpt>
<trkpt lat="47.821430" lon="15.523530">
<ele>787.0</ele>
<desc>Speed 94.3 km/h Distance 99.65 km</desc>
<time>2012-09-18T17:04:33.78</time>
<name>4844</name>
<sym>Dot</sym>
</trkpt>
<trkpt lat="47.821330" lon="15.523840">
<ele>786.0</ele>
<desc>Speed 92.6 km/h Distance 99.68 km</desc>
<time>2012-09-18T17:04:34.78</time>
<name>4845</name>
<sym>Dot</sym>
</trkpt>
<trkpt lat="47.821250" lon="15.524158">
<ele>784.0</ele>
<desc>Speed 91.3 km/h Distance 99.70 km</desc>
<time>2012-09-18T17:04:35.77</time>
<name>4846</name>
<sym>Dot</sym>
</trkpt>
<trkpt lat="47.821198" lon="15.524508">
<ele>782.5</ele>
<desc>Speed 96.5 km/h Distance 99.73 km</desc>
<time>2012-09-18T17:04:36.76</time>
<name>4847</name>
<sym>Dot</sym>
</trkpt>
<trkpt lat="47.821157" lon="15.524870">
<ele>781.0</ele>
<desc>Speed 99.4 km/h Distance 99.76 km</desc>
<time>2012-09-18T17:04:37.77</time>
<name>4848</name>
<sym>Dot</sym>
</trkpt>
<trkpt lat="47.821120" lon="15.525248">
<ele>780.0</ele>
<desc>Speed 104 km/h Distance 99.79 km</desc>
<time>2012-09-18T17:04:38.75</time>
<name>4849</name>
<sym>Dot</sym>
</trkpt>
<trkpt lat="47.821092" lon="15.525647">
<ele>778.5</ele>
<desc>Speed 109 km/h Distance 99.82 km</desc>
<time>2012-09-18T17:04:39.75</time>
<name>4850</name>
<sym>Dot</sym>
</trkpt>
<trkpt lat="47.821068" lon="15.526052">
<ele>777.0</ele>
<desc>Speed 110 km/h Distance 99.85 km</desc>
<time>2012-09-18T17:04:40.74</time>
<name>4851</name>
<sym>Dot</sym>
</trkpt>
<trkpt lat="47.821047" lon="15.526462">
<ele>776.0</ele>
<desc>Speed 111 km/h Distance 99.88 km</desc>
<time>2012-09-18T17:04:41.72</time>
<name>4852</name>
<sym>Dot</sym>
</trkpt>
<trkpt lat="47.821028" lon="15.526868">
<ele>774.5</ele>
<desc>Speed 111 km/h Distance 99.91 km</desc>
<time>2012-09-18T17:04:42.72</time>
<name>4853</name>
<sym>Dot</sym>
</trkpt>
<trkpt lat="47.821007" lon="15.527273">
<ele>773.0</ele>
<desc>Speed 110 km/h Distance 99.94 km</desc>
<time>2012-09-18T17:04:43.72</time>
<name>4854</name>
<sym>Dot</sym>
</trkpt>
<trkpt lat="47.820988" lon="15.527677">
<ele>772.0</ele>
<desc>Speed 110 km/h Distance 99.97 km</desc>
<time>2012-09-18T17:04:44.72</time>
<name>4855</name>
<sym>Dot</sym>
</trkpt>
<trkpt lat="47.820973" lon="15.528082">
<ele>770.5</ele>
<desc>Speed 110 km/h Distance 100.00 km</desc>
<time>2012-09-18T17:04:45.71</time>
<name>4856</name>
<sym>Dot</sym>
</trkpt>
<trkpt lat="47.820962" lon="15.528485">
<ele>769.5</ele>
<desc>Speed 109 km/h Distance 100 km</desc>
<time>2012-09-18T17:04:46.83</time>
<name>4857</name>
<sym>Dot</sym>
</trkpt>
<trkpt lat="47.820950" lon="15.528888">
<ele>768.0</ele>
<desc>Speed 109 km/h Distance 100 km</desc>
<time>2012-09-18T17:04:47.70</time>
<name>4858</name>
<sym>Dot</sym>
</trkpt>
<trkpt lat="47.820932" lon="15.529287">
<ele>767.0</ele>
<desc>Speed 108 km/h Distance 100 km</desc>
<time>2012-09-18T17:04:48.70</time>
<name>4859</name>
<sym>Dot</sym>
</trkpt>
<trkpt lat="47.820907" lon="15.529682">
<ele>766.0</ele>
<desc>Speed 107 km/h Distance 100 km</desc>
<time>2012-09-18T17:04:49.70</time>
<name>4860</name>
<sym>Dot</sym>
</trkpt>
<trkpt lat="47.820880" lon="15.530063">
<ele>765.5</ele>
<desc>Speed 104 km/h Distance 100 km</desc>
<time>2012-09-18T17:04:50.69</time>
<name>4861</name>
<sym>Dot</sym>
</trkpt>
<trkpt lat="47.820855" lon="15.530427">
<ele>765.0</ele>
<desc>Speed 98.8 km/h Distance 100 km</desc>
<time>2012-09-18T17:04:51.68</time>
<name>4862</name>
<sym>Dot</sym>
</trkpt>
<trkpt lat="47.820825" lon="15.530773">
<ele>764.5</ele>
<desc>Speed 94.5 km/h Distance 100 km</desc>
<time>2012-09-18T17:04:52.69</time>
<name>4863</name>
<sym>Dot</sym>
</trkpt>
<trkpt lat="47.820778" lon="15.531107">
<ele>763.0</ele>
<desc>Speed 92.1 km/h Distance 100 km</desc>
<time>2012-09-18T17:04:53.69</time>
<name>4864</name>
<sym>Dot</sym>
</trkpt>
<trkpt lat="47.820710" lon="15.531430">
<ele>762.5</ele>
<desc>Speed 91.7 km/h Distance 100 km</desc>
<time>2012-09-18T17:04:54.68</time>
<name>4865</name>
<sym>Dot</sym>
</trkpt>
<trkpt lat="47.820608" lon="15.531738">
<ele>763.0</ele>
<desc>Speed 93.2 km/h Distance 100 km</desc>
<time>2012-09-18T17:04:55.68</time>
<name>4866</name>
<sym>Dot</sym>
</trkpt>
<trkpt lat="47.820490" lon="15.532028">
<ele>763.0</ele>
<desc>Speed 91.9 km/h Distance 100 km</desc>
<time>2012-09-18T17:04:56.67</time>
<name>4867</name>
<sym>Dot</sym>
</trkpt>
<trkpt lat="47.820340" lon="15.532278">
<ele>764.0</ele>
<desc>Speed 90.7 km/h Distance 100 km</desc>
<time>2012-09-18T17:04:57.67</time>
<name>4868</name>
<sym>Dot</sym>
</trkpt>
<trkpt lat="47.820190" lon="15.532497">
<ele>764.0</ele>
<desc>Speed 84.2 km/h Distance 100 km</desc>
<time>2012-09-18T17:04:58.66</time>
<name>4869</name>
<sym>Dot</sym>
</trkpt>
<trkpt lat="47.820030" lon="15.532683">
<ele>764.0</ele>
<desc>Speed 82.3 km/h Distance 100 km</desc>
<time>2012-09-18T17:04:59.66</time>
<name>4870</name>
<sym>Dot</sym>
</trkpt>
<trkpt lat="47.819572" lon="15.533247">
<ele>761.0</ele>
<desc>Speed 53.6 km/h Distance 100 km</desc>
<time>2012-09-18T17:05:03.85</time>
<name>4871</name>
<sym>Dot</sym>
</trkpt>
<trkpt lat="47.819483" lon="15.533395">
<ele>760.5</ele>
<desc>Speed 53.6 km/h Distance 100 km</desc>
<time>2012-09-18T17:05:04.84</time>
<name>4872</name>
<sym>Dot</sym>
</trkpt>
<trkpt lat="47.819398" lon="15.533550">
<ele>760.0</ele>
<desc>Speed 54.8 km/h Distance 100 km</desc>
<time>2012-09-18T17:05:05.84</time>
<name>4873</name>
<sym>Dot</sym>
</trkpt>
<trkpt lat="47.819312" lon="15.533712">
<ele>759.5</ele>
<desc>Speed 55.4 km/h Distance 100 km</desc>
<time>2012-09-18T17:05:06.83</time>
<name>4874</name>
<sym>Dot</sym>
</trkpt>
<trkpt lat="47.819228" lon="15.533875">
<ele>759.0</ele>
<desc>Speed 55.9 km/h Distance 100 km</desc>
<time>2012-09-18T17:05:07.85</time>
<name>4875</name>
<sym>Dot</sym>
</trkpt>
<trkpt lat="47.819145" lon="15.534043">
<ele>758.5</ele>
<desc>Speed 56.0 km/h Distance 100 km</desc>
<time>2012-09-18T17:05:08.82</time>
<name>4876</name>
<sym>Dot</sym>
</trkpt>
<trkpt lat="47.819063" lon="15.534215">
<ele>758.5</ele>
<desc>Speed 56.7 km/h Distance 100 km</desc>
<time>2012-09-18T17:05:09.81</time>
<name>4877</name>
<sym>Dot</sym>
</trkpt>
<trkpt lat="47.818987" lon="15.534388">
<ele>758.0</ele>
<desc>Speed 55.9 km/h Distance 100 km</desc>
<time>2012-09-18T17:05:10.81</time>
<name>4878</name>
<sym>Dot</sym>
</trkpt>
<trkpt lat="47.818918" lon="15.534568">
<ele>757.5</ele>
<desc>Speed 55.4 km/h Distance 100 km</desc>
<time>2012-09-18T17:05:11.81</time>
<name>4879</name>
<sym>Dot</sym>
</trkpt>
<trkpt lat="47.818858" lon="15.534747">
<ele>757.5</ele>
<desc>Speed 54.0 km/h Distance 100 km</desc>
<time>2012-09-18T17:05:12.80</time>
<name>4880</name>
<sym>Dot</sym>
</trkpt>
<trkpt lat="47.818807" lon="15.534927">
<ele>756.5</ele>
<desc>Speed 52.8 km/h Distance 100 km</desc>
<time>2012-09-18T17:05:13.80</time>
<name>4881</name>
<sym>Dot</sym>
</trkpt>
<trkpt lat="47.818758" lon="15.535107">
<ele>756.0</ele>
<desc>Speed 52.1 km/h Distance 100 km</desc>
<time>2012-09-18T17:05:14.79</time>
<name>4882</name>
<sym>Dot</sym>
</trkpt>
<trkpt lat="47.818708" lon="15.535283">
<ele>755.0</ele>
<desc>Speed 51.7 km/h Distance 100 km</desc>
<time>2012-09-18T17:05:15.80</time>
<name>4883</name>
<sym>Dot</sym>
</trkpt>
<trkpt lat="47.818657" lon="15.535458">
<ele>754.0</ele>
<desc>Speed 51.4 km/h Distance 100 km</desc>
<time>2012-09-18T17:05:16.79</time>
<name>4884</name>
<sym>Dot</sym>
</trkpt>
<trkpt lat="47.818602" lon="15.535630">
<ele>753.5</ele>
<desc>Speed 51.2 km/h Distance 100 km</desc>
<time>2012-09-18T17:05:17.79</time>
<name>4885</name>
<sym>Dot</sym>
</trkpt>
<trkpt lat="47.818543" lon="15.535798">
<ele>753.0</ele>
<desc>Speed 51.3 km/h Distance 100 km</desc>
<time>2012-09-18T17:05:18.78</time>
<name>4886</name>
<sym>Dot</sym>
</trkpt>
<trkpt lat="47.818482" lon="15.535968">
<ele>752.5</ele>
<desc>Speed 51.9 km/h Distance 100 km</desc>
<time>2012-09-18T17:05:19.78</time>
<name>4887</name>
<sym>Dot</sym>
</trkpt>
<trkpt lat="47.818420" lon="15.536138">
<ele>752.5</ele>
<desc>Speed 52.3 km/h Distance 100 km</desc>
<time>2012-09-18T17:05:20.77</time>
<name>4888</name>
<sym>Dot</sym>
</trkpt>
<trkpt lat="47.818355" lon="15.536308">
<ele>752.0</ele>
<desc>Speed 52.7 km/h Distance 100 km</desc>
<time>2012-09-18T17:05:21.77</time>
<name>4889</name>
<sym>Dot</sym>
</trkpt>
<trkpt lat="47.818288" lon="15.536478">
<ele>751.5</ele>
<desc>Speed 53.1 km/h Distance 100 km</desc>
<time>2012-09-18T17:05:22.76</time>
<name>4890</name>
<sym>Dot</sym>
</trkpt>
<trkpt lat="47.818220" lon="15.536650">
<ele>751.0</ele>
<desc>Speed 53.3 km/h Distance 100 km</desc>
<time>2012-09-18T17:05:23.76</time>
<name>4891</name>
<sym>Dot</sym>
</trkpt>
<trkpt lat="47.818153" lon="15.536822">
<ele>750.0</ele>
<desc>Speed 53.6 km/h Distance 100 km</desc>
<time>2012-09-18T17:05:24.75</time>
<name>4892</name>
<sym>Dot</sym>
</trkpt>
<trkpt lat="47.818087" lon="15.536995">
<ele>749.5</ele>
<desc>Speed 53.7 km/h Distance 100 km</desc>
<time>2012-09-18T17:05:25.75</time>
<name>4893</name>
<sym>Dot</sym>
</trkpt>
<trkpt lat="47.818022" lon="15.537168">
<ele>749.5</ele>
<desc>Speed 53.7 km/h Distance 100 km</desc>
<time>2012-09-18T17:05:26.74</time>
<name>4894</name>
<sym>Dot</sym>
</trkpt>
<trkpt lat="47.817955" lon="15.537340">
<ele>749.0</ele>
<desc>Speed 53.6 km/h Distance 100 km</desc>
<time>2012-09-18T17:05:27.74</time>
<name>4895</name>
<sym>Dot</sym>
</trkpt>
<trkpt lat="47.817888" lon="15.537513">
<ele>748.5</ele>
<desc>Speed 53.5 km/h Distance 100 km</desc>
<time>2012-09-18T17:05:28.73</time>
<name>4896</name>
<sym>Dot</sym>
</trkpt>
<trkpt lat="47.817822" lon="15.537682">
<ele>748.5</ele>
<desc>Speed 53.1 km/h Distance 100 km</desc>
<time>2012-09-18T17:05:29.73</time>
<name>4897</name>
<sym>Dot</sym>
</trkpt>
<trkpt lat="47.817755" lon="15.537852">
<ele>748.5</ele>
<desc>Speed 52.7 km/h Distance 100 km</desc>
<time>2012-09-18T17:05:30.72</time>
<name>4898</name>
<sym>Dot</sym>
</trkpt>
<trkpt lat="47.817688" lon="15.538018">
<ele>748.0</ele>
<desc>Speed 52.3 km/h Distance 100 km</desc>
<time>2012-09-18T17:05:31.72</time>
<name>4899</name>
<sym>Dot</sym>
</trkpt>
<trkpt lat="47.817623" lon="15.538182">
<ele>747.5</ele>
<desc>Speed 51.4 km/h Distance 100 km</desc>
<time>2012-09-18T17:05:32.71</time>
<name>4900</name>
<sym>Dot</sym>
</trkpt>
<trkpt lat="47.817560" lon="15.538343">
<ele>747.0</ele>
<desc>Speed 50.5 km/h Distance 100 km</desc>
<time>2012-09-18T17:05:33.70</time>
<name>4901</name>
<sym>Dot</sym>
</trkpt>
<trkpt lat="47.817498" lon="15.538503">
<ele>747.0</ele>
<desc>Speed 49.9 km/h Distance 100 km</desc>
<time>2012-09-18T17:05:34.70</time>
<name>4902</name>
<sym>Dot</sym>
</trkpt>
<trkpt lat="47.817438" lon="15.538662">
<ele>746.5</ele>
<desc>Speed 49.7 km/h Distance 100 km</desc>
<time>2012-09-18T17:05:35.70</time>
<name>4903</name>
<sym>Dot</sym>
</trkpt>
<trkpt lat="47.817377" lon="15.538823">
<ele>746.0</ele>
<desc>Speed 50.4 km/h Distance 100 km</desc>
<time>2012-09-18T17:05:36.69</time>
<name>4904</name>
<sym>Dot</sym>
</trkpt>
<trkpt lat="47.817313" lon="15.538988">
<ele>746.0</ele>
<desc>Speed 51.3 km/h Distance 100 km</desc>
<time>2012-09-18T17:05:37.69</time>
<name>4905</name>
<sym>Dot</sym>
</trkpt>
<trkpt lat="47.817250" lon="15.539155">
<ele>746.0</ele>
<desc>Speed 51.8 km/h Distance 100 km</desc>
<time>2012-09-18T17:05:38.68</time>
<name>4906</name>
<sym>Dot</sym>
</trkpt>
<trkpt lat="47.817185" lon="15.539318">
<ele>745.5</ele>
<desc>Speed 51.1 km/h Distance 100 km</desc>
<time>2012-09-18T17:05:39.68</time>
<name>4907</name>
<sym>Dot</sym>
</trkpt>
<trkpt lat="47.817120" lon="15.539477">
<ele>745.0</ele>
<desc>Speed 50.3 km/h Distance 100 km</desc>
<time>2012-09-18T17:05:40.67</time>
<name>4908</name>
<sym>Dot</sym>
</trkpt>
<trkpt lat="47.817057" lon="15.539635">
<ele>745.0</ele>
<desc>Speed 49.6 km/h Distance 100 km</desc>
<time>2012-09-18T17:05:41.66</time>
<name>4909</name>
<sym>Dot</sym>
</trkpt>
<trkpt lat="47.816997" lon="15.539792">
<ele>744.5</ele>
<desc>Speed 48.9 km/h Distance 101 km</desc>
<time>2012-09-18T17:05:42.66</time>
<name>4910</name>
<sym>Dot</sym>
</trkpt>
<trkpt lat="47.816937" lon="15.539950">
<ele>744.0</ele>
<desc>Speed 48.8 km/h Distance 101 km</desc>
<time>2012-09-18T17:05:43.66</time>
<name>4911</name>
<sym>Dot</sym>
</trkpt>
<trkpt lat="47.816877" lon="15.540112">
<ele>743.5</ele>
<desc>Speed 50.3 km/h Distance 101 km</desc>
<time>2012-09-18T17:05:44.65</time>
<name>4912</name>
<sym>Dot</sym>
</trkpt>
<trkpt lat="47.816812" lon="15.540282">
<ele>743.0</ele>
<desc>Speed 52.6 km/h Distance 101 km</desc>
<time>2012-09-18T17:05:45.64</time>
<name>4913</name>
<sym>Dot</sym>
</trkpt>
<trkpt lat="47.816743" lon="15.540453">
<ele>743.0</ele>
<desc>Speed 53.7 km/h Distance 101 km</desc>
<time>2012-09-18T17:05:46.63</time>
<name>4914</name>
<sym>Dot</sym>
</trkpt>
<trkpt lat="47.816678" lon="15.540625">
<ele>742.5</ele>
<desc>Speed 52.8 km/h Distance 101 km</desc>
<time>2012-09-18T17:05:47.63</time>
<name>4915</name>
<sym>Dot</sym>
</trkpt>
<trkpt lat="47.816613" lon="15.540793">
<ele>742.5</ele>
<desc>Speed 52.6 km/h Distance 101 km</desc>
<time>2012-09-18T17:05:48.62</time>
<name>4916</name>
<sym>Dot</sym>
</trkpt>
<trkpt lat="47.816483" lon="15.541133">
<ele>742.5</ele>
<desc>Speed 53.0 km/h Distance 101 km</desc>
<time>2012-09-18T17:05:50.62</time>
<name>4917</name>
<sym>Dot</sym>
</trkpt>
<trkpt lat="47.816415" lon="15.541305">
<ele>742.0</ele>
<desc>Speed 53.5 km/h Distance 101 km</desc>
<time>2012-09-18T17:05:51.61</time>
<name>4918</name>
<sym>Dot</sym>
</trkpt>
<trkpt lat="47.816347" lon="15.541477">
<ele>742.0</ele>
<desc>Speed 54.1 km/h Distance 101 km</desc>
<time>2012-09-18T17:05:52.60</time>
<name>4919</name>
<sym>Dot</sym>
</trkpt>
<trkpt lat="47.816280" lon="15.541653">
<ele>741.5</ele>
<desc>Speed 54.6 km/h Distance 101 km</desc>
<time>2012-09-18T17:05:53.60</time>
<name>4920</name>
<sym>Dot</sym>
</trkpt>
<trkpt lat="47.816213" lon="15.541832">
<ele>741.0</ele>
<desc>Speed 55.3 km/h Distance 101 km</desc>
<time>2012-09-18T17:05:54.59</time>
<name>4921</name>
<sym>Dot</sym>
</trkpt>
<trkpt lat="47.816150" lon="15.542012">
<ele>740.5</ele>
<desc>Speed 54.6 km/h Distance 101 km</desc>
<time>2012-09-18T17:05:55.59</time>
<name>4922</name>
<sym>Dot</sym>
</trkpt>
<trkpt lat="47.816093" lon="15.542185">
<ele>740.5</ele>
<desc>Speed 52.1 km/h Distance 101 km</desc>
<time>2012-09-18T17:05:56.58</time>
<name>4923</name>
<sym>Dot</sym>
</trkpt>
<trkpt lat="47.816038" lon="15.542360">
<ele>741.0</ele>
<desc>Speed 52.7 km/h Distance 101 km</desc>
<time>2012-09-18T17:05:57.58</time>
<name>4924</name>
<sym>Dot</sym>
</trkpt>
<trkpt lat="47.815997" lon="15.542528">
<ele>741.0</ele>
<desc>Speed 48.5 km/h Distance 101 km</desc>
<time>2012-09-18T17:05:58.57</time>
<name>4925</name>
<sym>Dot</sym>
</trkpt>
<trkpt lat="47.815967" lon="15.542697">
<ele>740.5</ele>
<desc>Speed 46.7 km/h Distance 101 km</desc>
<time>2012-09-18T17:05:59.59</time>
<name>4926</name>
<sym>Dot</sym>
</trkpt>
<trkpt lat="47.815948" lon="15.542863">
<ele>740.0</ele>
<desc>Speed 46.0 km/h Distance 101 km</desc>
<time>2012-09-18T17:06:00.58</time>
<name>4927</name>
<sym>Dot</sym>
</trkpt>
<trkpt lat="47.815937" lon="15.543040">
<ele>740.0</ele>
<desc>Speed 48.0 km/h Distance 101 km</desc>
<time>2012-09-18T17:06:01.58</time>
<name>4928</name>
<sym>Dot</sym>
</trkpt>
<trkpt lat="47.815928" lon="15.543228">
<ele>740.0</ele>
<desc>Speed 50.6 km/h Distance 101 km</desc>
<time>2012-09-18T17:06:02.58</time>
<name>4929</name>
<sym>Dot</sym>
</trkpt>
<trkpt lat="47.815920" lon="15.543430">
<ele>740.0</ele>
<desc>Speed 54.5 km/h Distance 101 km</desc>
<time>2012-09-18T17:06:03.58</time>
<name>4930</name>
<sym>Dot</sym>
</trkpt>
<trkpt lat="47.815912" lon="15.543642">
<ele>740.0</ele>
<desc>Speed 57.0 km/h Distance 101 km</desc>
<time>2012-09-18T17:06:04.57</time>
<name>4931</name>
<sym>Dot</sym>
</trkpt>
<trkpt lat="47.815905" lon="15.543845">
<ele>739.5</ele>
<desc>Speed 55.1 km/h Distance 101 km</desc>
<time>2012-09-18T17:06:05.56</time>
<name>4932</name>
<sym>Dot</sym>
</trkpt>
<trkpt lat="47.815898" lon="15.544042">
<ele>739.5</ele>
<desc>Speed 52.8 km/h Distance 101 km</desc>
<time>2012-09-18T17:06:06.55</time>
<name>4933</name>
<sym>Dot</sym>
</trkpt>
<trkpt lat="47.815895" lon="15.544230">
<ele>739.5</ele>
<desc>Speed 50.8 km/h Distance 101 km</desc>
<time>2012-09-18T17:06:07.56</time>
<name>4934</name>
<sym>Dot</sym>
</trkpt>
<trkpt lat="47.815902" lon="15.544585">
<ele>738.5</ele>
<desc>Speed 47.0 km/h Distance 101 km</desc>
<time>2012-09-18T17:06:09.55</time>
<name>4935</name>
<sym>Dot</sym>
</trkpt>
<trkpt lat="47.815917" lon="15.544753">
<ele>738.0</ele>
<desc>Speed 45.8 km/h Distance 101 km</desc>
<time>2012-09-18T17:06:10.55</time>
<name>4936</name>
<sym>Dot</sym>
</trkpt>
<trkpt lat="47.815942" lon="15.544925">
<ele>738.0</ele>
<desc>Speed 47.2 km/h Distance 101 km</desc>
<time>2012-09-18T17:06:11.55</time>
<name>4937</name>
<sym>Dot</sym>
</trkpt>
<trkpt lat="47.815977" lon="15.545097">
<ele>737.5</ele>
<desc>Speed 48.8 km/h Distance 101 km</desc>
<time>2012-09-18T17:06:12.54</time>
<name>4938</name>
<sym>Dot</sym>
</trkpt>
<trkpt lat="47.816020" lon="15.545268">
<ele>737.0</ele>
<desc>Speed 49.2 km/h Distance 101 km</desc>
<time>2012-09-18T17:06:13.53</time>
<name>4939</name>
<sym>Dot</sym>
</trkpt>
<trkpt lat="47.816070" lon="15.545437">
<ele>737.0</ele>
<desc>Speed 50.0 km/h Distance 101 km</desc>
<time>2012-09-18T17:06:14.53</time>
<name>4940</name>
<sym>Dot</sym>
</trkpt>
<trkpt lat="47.816123" lon="15.545607">
<ele>737.0</ele>
<desc>Speed 50.6 km/h Distance 101 km</desc>
<time>2012-09-18T17:06:15.53</time>
<name>4941</name>
<sym>Dot</sym>
</trkpt>
<trkpt lat="47.816185" lon="15.545770">
<ele>736.5</ele>
<desc>Speed 50.6 km/h Distance 101 km</desc>
<time>2012-09-18T17:06:16.52</time>
<name>4942</name>
<sym>Dot</sym>
</trkpt>
<trkpt lat="47.816265" lon="15.545917">
<ele>736.5</ele>
<desc>Speed 50.9 km/h Distance 101 km</desc>
<time>2012-09-18T17:06:17.52</time>
<name>4943</name>
<sym>Dot</sym>
</trkpt>
<trkpt lat="47.816360" lon="15.546037">
<ele>735.5</ele>
<desc>Speed 50.1 km/h Distance 101 km</desc>
<time>2012-09-18T17:06:18.52</time>
<name>4944</name>
<sym>Dot</sym>
</trkpt>
<trkpt lat="47.816473" lon="15.546135">
<ele>735.5</ele>
<desc>Speed 52.1 km/h Distance 101 km</desc>
<time>2012-09-18T17:06:19.51</time>
<name>4945</name>
<sym>Dot</sym>
</trkpt>
<trkpt lat="47.817430" lon="15.546538">
<ele>734.0</ele>
<desc>Speed 97.2 km/h Distance 101 km</desc>
<time>2012-09-18T17:06:24.85</time>
<name>4946</name>
<sym>Dot</sym>
</trkpt>
<trkpt lat="47.817655" lon="15.546648">
<ele>733.0</ele>
<desc>Speed 94.1 km/h Distance 101 km</desc>
<time>2012-09-18T17:06:25.84</time>
<name>4947</name>
<sym>Dot</sym>
</trkpt>
<trkpt lat="47.818155" lon="15.546828">
<ele>730.0</ele>
<desc>Speed 102 km/h Distance 101 km</desc>
<time>2012-09-18T17:06:27.83</time>
<name>4948</name>
<sym>Dot</sym>
</trkpt>
<trkpt lat="47.818410" lon="15.546887">
<ele>729.5</ele>
<desc>Speed 104 km/h Distance 101 km</desc>
<time>2012-09-18T17:06:28.83</time>
<name>4949</name>
<sym>Dot</sym>
</trkpt>
<trkpt lat="47.818662" lon="15.546953">
<ele>728.5</ele>
<desc>Speed 102 km/h Distance 101 km</desc>
<time>2012-09-18T17:06:29.83</time>
<name>4950</name>
<sym>Dot</sym>
</trkpt>
<trkpt lat="47.818912" lon="15.547072">
<ele>727.0</ele>
<desc>Speed 105 km/h Distance 101 km</desc>
<time>2012-09-18T17:06:30.83</time>
<name>4951</name>
<sym>Dot</sym>
</trkpt>
<trkpt lat="47.819155" lon="15.547235">
<ele>726.0</ele>
<desc>Speed 108 km/h Distance 101 km</desc>
<time>2012-09-18T17:06:31.82</time>
<name>4952</name>
<sym>Dot</sym>
</trkpt>
<trkpt lat="47.819397" lon="15.547432">
<ele>727.0</ele>
<desc>Speed 111 km/h Distance 101 km</desc>
<time>2012-09-18T17:06:32.82</time>
<name>4953</name>
<sym>Dot</sym>
</trkpt>
<trkpt lat="47.819642" lon="15.547625">
<ele>726.0</ele>
<desc>Speed 112 km/h Distance 101 km</desc>
<time>2012-09-18T17:06:33.82</time>
<name>4954</name>
<sym>Dot</sym>
</trkpt>
<trkpt lat="47.819892" lon="15.547812">
<ele>725.0</ele>
<desc>Speed 112 km/h Distance 101 km</desc>
<time>2012-09-18T17:06:34.81</time>
<name>4955</name>
<sym>Dot</sym>
</trkpt>
<trkpt lat="47.820138" lon="15.547988">
<ele>723.5</ele>
<desc>Speed 110 km/h Distance 101 km</desc>
<time>2012-09-18T17:06:35.79</time>
<name>4956</name>
<sym>Dot</sym>
</trkpt>
<trkpt lat="47.820378" lon="15.548167">
<ele>723.0</ele>
<desc>Speed 109 km/h Distance 101 km</desc>
<time>2012-09-18T17:06:36.79</time>
<name>4957</name>
<sym>Dot</sym>
</trkpt>
<trkpt lat="47.820617" lon="15.548352">
<ele>722.5</ele>
<desc>Speed 109 km/h Distance 102 km</desc>
<time>2012-09-18T17:06:37.78</time>
<name>4958</name>
<sym>Dot</sym>
</trkpt>
<trkpt lat="47.820857" lon="15.548533">
<ele>721.5</ele>
<desc>Speed 108 km/h Distance 102 km</desc>
<time>2012-09-18T17:06:38.78</time>
<name>4959</name>
<sym>Dot</sym>
</trkpt>
<trkpt lat="47.821102" lon="15.548700">
<ele>721.0</ele>
<desc>Speed 108 km/h Distance 102 km</desc>
<time>2012-09-18T17:06:39.93</time>
<name>4960</name>
<sym>Dot</sym>
</trkpt>
<trkpt lat="47.821357" lon="15.548840">
<ele>720.0</ele>
<desc>Speed 109 km/h Distance 102 km</desc>
<time>2012-09-18T17:06:40.77</time>
<name>4961</name>
<sym>Dot</sym>
</trkpt>
<trkpt lat="47.821618" lon="15.548960">
<ele>719.5</ele>
<desc>Speed 110 km/h Distance 102 km</desc>
<time>2012-09-18T17:06:41.77</time>
<name>4962</name>
<sym>Dot</sym>
</trkpt>
<trkpt lat="47.821887" lon="15.549050">
<ele>718.5</ele>
<desc>Speed 111 km/h Distance 102 km</desc>
<time>2012-09-18T17:06:42.76</time>
<name>4963</name>
<sym>Dot</sym>
</trkpt>
<trkpt lat="47.822155" lon="15.549127">
<ele>717.5</ele>
<desc>Speed 110 km/h Distance 102 km</desc>
<time>2012-09-18T17:06:43.75</time>
<name>4964</name>
<sym>Dot</sym>
</trkpt>
<trkpt lat="47.822415" lon="15.549215">
<ele>717.0</ele>
<desc>Speed 108 km/h Distance 102 km</desc>
<time>2012-09-18T17:06:44.74</time>
<name>4965</name>
<sym>Dot</sym>
</trkpt>
<trkpt lat="47.822673" lon="15.549345">
<ele>718.0</ele>
<desc>Speed 110 km/h Distance 102 km</desc>
<time>2012-09-18T17:06:45.74</time>
<name>4966</name>
<sym>Dot</sym>
</trkpt>
<trkpt lat="47.822930" lon="15.549472">
<ele>717.0</ele>
<desc>Speed 109 km/h Distance 102 km</desc>
<time>2012-09-18T17:06:46.74</time>
<name>4967</name>
<sym>Dot</sym>
</trkpt>
<trkpt lat="47.823195" lon="15.549587">
<ele>716.0</ele>
<desc>Speed 111 km/h Distance 102 km</desc>
<time>2012-09-18T17:06:47.73</time>
<name>4968</name>
<sym>Dot</sym>
</trkpt>
<trkpt lat="47.823467" lon="15.549690">
<ele>715.5</ele>
<desc>Speed 113 km/h Distance 102 km</desc>
<time>2012-09-18T17:06:48.72</time>
<name>4969</name>
<sym>Dot</sym>
</trkpt>
<trkpt lat="47.823737" lon="15.549783">
<ele>714.5</ele>
<desc>Speed 112 km/h Distance 102 km</desc>
<time>2012-09-18T17:06:49.73</time>
<name>4970</name>
<sym>Dot</sym>
</trkpt>
<trkpt lat="47.824000" lon="15.549863">
<ele>713.5</ele>
<desc>Speed 109 km/h Distance 102 km</desc>
<time>2012-09-18T17:06:50.72</time>
<name>4971</name>
<sym>Dot</sym>
</trkpt>
<trkpt lat="47.824253" lon="15.549908">
<ele>715.0</ele>
<desc>Speed 102 km/h Distance 102 km</desc>
<time>2012-09-18T17:06:51.71</time>
<name>4972</name>
<sym>Dot</sym>
</trkpt>
<trkpt lat="47.824810" lon="15.549930">
<ele>713.0</ele>
<desc>Speed 113 km/h Distance 102 km</desc>
<time>2012-09-18T17:06:53.70</time>
<name>4973</name>
<sym>Dot</sym>
</trkpt>
<trkpt lat="47.825098" lon="15.549913">
<ele>712.0</ele>
<desc>Speed 116 km/h Distance 102 km</desc>
<time>2012-09-18T17:06:54.70</time>
<name>4974</name>
<sym>Dot</sym>
</trkpt>
<trkpt lat="47.825382" lon="15.549902">
<ele>711.0</ele>
<desc>Speed 114 km/h Distance 102 km</desc>
<time>2012-09-18T17:06:55.69</time>
<name>4975</name>
<sym>Dot</sym>
</trkpt>
<trkpt lat="47.825653" lon="15.549887">
<ele>710.5</ele>
<desc>Speed 109 km/h Distance 102 km</desc>
<time>2012-09-18T17:06:56.69</time>
<name>4976</name>
<sym>Dot</sym>
</trkpt>
<trkpt lat="47.825918" lon="15.549858">
<ele>709.5</ele>
<desc>Speed 107 km/h Distance 102 km</desc>
<time>2012-09-18T17:06:57.78</time>
<name>4977</name>
<sym>Dot</sym>
</trkpt>
<trkpt lat="47.826192" lon="15.549792">
<ele>709.0</ele>
<desc>Speed 111 km/h Distance 102 km</desc>
<time>2012-09-18T17:06:58.69</time>
<name>4978</name>
<sym>Dot</sym>
</trkpt>
<trkpt lat="47.826452" lon="15.549692">
<ele>710.5</ele>
<desc>Speed 108 km/h Distance 102 km</desc>
<time>2012-09-18T17:06:59.68</time>
<name>4979</name>
<sym>Dot</sym>
</trkpt>
<trkpt lat="47.826725" lon="15.549567">
<ele>711.0</ele>
<desc>Speed 114 km/h Distance 102 km</desc>
<time>2012-09-18T17:07:00.69</time>
<name>4980</name>
<sym>Dot</sym>
</trkpt>
<trkpt lat="47.827002" lon="15.549422">
<ele>710.5</ele>
<desc>Speed 117 km/h Distance 102 km</desc>
<time>2012-09-18T17:07:01.69</time>
<name>4981</name>
<sym>Dot</sym>
</trkpt>
<trkpt lat="47.827282" lon="15.549263">
<ele>709.5</ele>
<desc>Speed 119 km/h Distance 102 km</desc>
<time>2012-09-18T17:07:02.68</time>
<name>4982</name>
<sym>Dot</sym>
</trkpt>
<trkpt lat="47.827558" lon="15.549107">
<ele>709.0</ele>
<desc>Speed 118 km/h Distance 102 km</desc>
<time>2012-09-18T17:07:03.68</time>
<name>4983</name>
<sym>Dot</sym>
</trkpt>
<trkpt lat="47.827825" lon="15.548958">
<ele>708.0</ele>
<desc>Speed 114 km/h Distance 102 km</desc>
<time>2012-09-18T17:07:04.67</time>
<name>4984</name>
<sym>Dot</sym>
</trkpt>
<trkpt lat="47.828082" lon="15.548822">
<ele>707.5</ele>
<desc>Speed 108 km/h Distance 102 km</desc>
<time>2012-09-18T17:07:05.68</time>
<name>4985</name>
<sym>Dot</sym>
</trkpt>
<trkpt lat="47.828325" lon="15.548697">
<ele>706.5</ele>
<desc>Speed 103 km/h Distance 102 km</desc>
<time>2012-09-18T17:07:06.67</time>
<name>4986</name>
<sym>Dot</sym>
</trkpt>
<trkpt lat="47.828568" lon="15.548585">
<ele>705.0</ele>
<desc>Speed 101 km/h Distance 102 km</desc>
<time>2012-09-18T17:07:07.68</time>
<name>4987</name>
<sym>Dot</sym>
</trkpt>
<trkpt lat="47.828817" lon="15.548487">
<ele>704.0</ele>
<desc>Speed 103 km/h Distance 102 km</desc>
<time>2012-09-18T17:07:08.66</time>
<name>4988</name>
<sym>Dot</sym>
</trkpt>
<trkpt lat="47.829070" lon="15.548407">
<ele>702.5</ele>
<desc>Speed 103 km/h Distance 103 km</desc>
<time>2012-09-18T17:07:09.66</time>
<name>4989</name>
<sym>Dot</sym>
</trkpt>
<trkpt lat="47.829323" lon="15.548347">
<ele>701.5</ele>
<desc>Speed 102 km/h Distance 103 km</desc>
<time>2012-09-18T17:07:10.66</time>
<name>4990</name>
<sym>Dot</sym>
</trkpt>
<trkpt lat="47.829575" lon="15.548312">
<ele>699.5</ele>
<desc>Speed 101 km/h Distance 103 km</desc>
<time>2012-09-18T17:07:11.65</time>
<name>4991</name>
<sym>Dot</sym>
</trkpt>
<trkpt lat="47.829828" lon="15.548295">
<ele>698.0</ele>
<desc>Speed 101 km/h Distance 103 km</desc>
<time>2012-09-18T17:07:12.65</time>
<name>4992</name>
<sym>Dot</sym>
</trkpt>
<trkpt lat="47.830087" lon="15.548302">
<ele>696.5</ele>
<desc>Speed 103 km/h Distance 103 km</desc>
<time>2012-09-18T17:07:13.64</time>
<name>4993</name>
<sym>Dot</sym>
</trkpt>
<trkpt lat="47.830337" lon="15.548335">
<ele>697.5</ele>
<desc>Speed 100 km/h Distance 103 km</desc>
<time>2012-09-18T17:07:14.64</time>
<name>4994</name>
<sym>Dot</sym>
</trkpt>
<trkpt lat="47.830877" lon="15.548475">
<ele>696.0</ele>
<desc>Speed 110 km/h Distance 103 km</desc>
<time>2012-09-18T17:07:16.64</time>
<name>4995</name>
<sym>Dot</sym>
</trkpt>
<trkpt lat="47.831148" lon="15.548545">
<ele>695.0</ele>
<desc>Speed 111 km/h Distance 103 km</desc>
<time>2012-09-18T17:07:17.63</time>
<name>4996</name>
<sym>Dot</sym>
</trkpt>
<trkpt lat="47.831423" lon="15.548593">
<ele>694.5</ele>
<desc>Speed 110 km/h Distance 103 km</desc>
<time>2012-09-18T17:07:18.63</time>
<name>4997</name>
<sym>Dot</sym>
</trkpt>
<trkpt lat="47.831707" lon="15.548598">
<ele>693.5</ele>
<desc>Speed 113 km/h Distance 103 km</desc>
<time>2012-09-18T17:07:19.63</time>
<name>4998</name>
<sym>Dot</sym>
</trkpt>
<trkpt lat="47.831973" lon="15.548570">
<ele>695.0</ele>
<desc>Speed 106 km/h Distance 103 km</desc>
<time>2012-09-18T17:07:20.62</time>
<name>4999</name>
<sym>Dot</sym>
</trkpt>
<trkpt lat="47.832247" lon="15.548533">
<ele>694.5</ele>
<desc>Speed 109 km/h Distance 103 km</desc>
<time>2012-09-18T17:07:21.62</time>
<name>5000</name>
<sym>Dot</sym>
</trkpt>
<trkpt lat="47.832515" lon="15.548503">
<ele>694.5</ele>
<desc>Speed 107 km/h Distance 103 km</desc>
<time>2012-09-18T17:07:22.61</time>
<name>5001</name>
<sym>Dot</sym>
</trkpt>
<trkpt lat="47.832783" lon="15.548498">
<ele>694.5</ele>
<desc>Speed 107 km/h Distance 103 km</desc>
<time>2012-09-18T17:07:23.60</time>
<name>5002</name>
<sym>Dot</sym>
</trkpt>
<trkpt lat="47.833052" lon="15.548523">
<ele>694.5</ele>
<desc>Speed 107 km/h Distance 103 km</desc>
<time>2012-09-18T17:07:24.60</time>
<name>5003</name>
<sym>Dot</sym>
</trkpt>
<trkpt lat="47.833330" lon="15.548582">
<ele>694.0</ele>
<desc>Speed 111 km/h Distance 103 km</desc>
<time>2012-09-18T17:07:25.59</time>
<name>5004</name>
<sym>Dot</sym>
</trkpt>
<trkpt lat="47.833605" lon="15.548662">
<ele>693.5</ele>
<desc>Speed 112 km/h Distance 103 km</desc>
<time>2012-09-18T17:07:26.59</time>
<name>5005</name>
<sym>Dot</sym>
</trkpt>
<trkpt lat="47.833878" lon="15.548765">
<ele>693.0</ele>
<desc>Speed 113 km/h Distance 103 km</desc>
<time>2012-09-18T17:07:27.58</time>
<name>5006</name>
<sym>Dot</sym>
</trkpt>
<trkpt lat="47.834152" lon="15.548885">
<ele>691.5</ele>
<desc>Speed 114 km/h Distance 103 km</desc>
<time>2012-09-18T17:07:28.58</time>
<name>5007</name>
<sym>Dot</sym>
</trkpt>
<trkpt lat="47.834420" lon="15.549007">
<ele>690.5</ele>
<desc>Speed 112 km/h Distance 103 km</desc>
<time>2012-09-18T17:07:29.57</time>
<name>5008</name>
<sym>Dot</sym>
</trkpt>
<trkpt lat="47.834695" lon="15.549108">
<ele>689.0</ele>
<desc>Speed 112 km/h Distance 103 km</desc>
<time>2012-09-18T17:07:30.57</time>
<name>5009</name>
<sym>Dot</sym>
</trkpt>
<trkpt lat="47.834983" lon="15.549170">
<ele>687.5</ele>
<desc>Speed 116 km/h Distance 103 km</desc>
<time>2012-09-18T17:07:31.56</time>
<name>5010</name>
<sym>Dot</sym>
</trkpt>
<trkpt lat="47.835270" lon="15.549213">
<ele>686.5</ele>
<desc>Speed 115 km/h Distance 103 km</desc>
<time>2012-09-18T17:07:32.56</time>
<name>5011</name>
<sym>Dot</sym>
</trkpt>
<trkpt lat="47.835567" lon="15.549225">
<ele>685.5</ele>
<desc>Speed 118 km/h Distance 103 km</desc>
<time>2012-09-18T17:07:33.55</time>
<name>5012</name>
<sym>Dot</sym>
</trkpt>
<trkpt lat="47.835865" lon="15.549212">
<ele>684.5</ele>
<desc>Speed 119 km/h Distance 103 km</desc>
<time>2012-09-18T17:07:34.55</time>
<name>5013</name>
<sym>Dot</sym>
</trkpt>
<trkpt lat="47.836162" lon="15.549187">
<ele>683.5</ele>
<desc>Speed 119 km/h Distance 103 km</desc>
<time>2012-09-18T17:07:35.55</time>
<name>5014</name>
<sym>Dot</sym>
</trkpt>
<trkpt lat="47.836455" lon="15.549160">
<ele>683.0</ele>
<desc>Speed 117 km/h Distance 103 km</desc>
<time>2012-09-18T17:07:36.54</time>
<name>5015</name>
<sym>Dot</sym>
</trkpt>
<trkpt lat="47.836742" lon="15.549132">
<ele>682.5</ele>
<desc>Speed 115 km/h Distance 103 km</desc>
<time>2012-09-18T17:07:37.54</time>
<name>5016</name>
<sym>Dot</sym>
</trkpt>
<trkpt lat="47.837022" lon="15.549107">
<ele>682.0</ele>
<desc>Speed 112 km/h Distance 103 km</desc>
<time>2012-09-18T17:07:38.53</time>
<name>5017</name>
<sym>Dot</sym>
</trkpt>
<trkpt lat="47.837290" lon="15.549090">
<ele>681.0</ele>
<desc>Speed 107 km/h Distance 103 km</desc>
<time>2012-09-18T17:07:39.52</time>
<name>5018</name>
<sym>Dot</sym>
</trkpt>
<trkpt lat="47.837543" lon="15.549105">
<ele>681.5</ele>
<desc>Speed 102 km/h Distance 103 km</desc>
<time>2012-09-18T17:07:40.51</time>
<name>5019</name>
<sym>Dot</sym>
</trkpt>
<trkpt lat="47.837795" lon="15.549168">
<ele>682.0</ele>
<desc>Speed 102 km/h Distance 103 km</desc>
<time>2012-09-18T17:07:41.51</time>
<name>5020</name>
<sym>Dot</sym>
</trkpt>
<trkpt lat="47.838052" lon="15.549275">
<ele>681.0</ele>
<desc>Speed 107 km/h Distance 104 km</desc>
<time>2012-09-18T17:07:42.51</time>
<name>5021</name>
<sym>Dot</sym>
</trkpt>
<trkpt lat="47.838310" lon="15.549398">
<ele>680.5</ele>
<desc>Speed 108 km/h Distance 104 km</desc>
<time>2012-09-18T17:07:43.51</time>
<name>5022</name>
<sym>Dot</sym>
</trkpt>
<trkpt lat="47.838572" lon="15.549503">
<ele>679.5</ele>
<desc>Speed 109 km/h Distance 104 km</desc>
<time>2012-09-18T17:07:44.50</time>
<name>5023</name>
<sym>Dot</sym>
</trkpt>
<trkpt lat="47.838832" lon="15.549562">
<ele>680.5</ele>
<desc>Speed 104 km/h Distance 104 km</desc>
<time>2012-09-18T17:07:45.50</time>
<name>5024</name>
<sym>Dot</sym>
</trkpt>
<trkpt lat="47.839088" lon="15.549563">
<ele>680.5</ele>
<desc>Speed 102 km/h Distance 104 km</desc>
<time>2012-09-18T17:07:46.48</time>
<name>5025</name>
<sym>Dot</sym>
</trkpt>
<trkpt lat="47.839340" lon="15.549520">
<ele>678.5</ele>
<desc>Speed 101 km/h Distance 104 km</desc>
<time>2012-09-18T17:07:47.47</time>
<name>5026</name>
<sym>Dot</sym>
</trkpt>
<trkpt lat="47.839585" lon="15.549430">
<ele>678.5</ele>
<desc>Speed 99.6 km/h Distance 104 km</desc>
<time>2012-09-18T17:07:48.48</time>
<name>5027</name>
<sym>Dot</sym>
</trkpt>
<trkpt lat="47.839825" lon="15.549277">
<ele>678.0</ele>
<desc>Speed 104 km/h Distance 104 km</desc>
<time>2012-09-18T17:07:49.47</time>
<name>5028</name>
<sym>Dot</sym>
</trkpt>
<trkpt lat="47.840057" lon="15.549105">
<ele>677.5</ele>
<desc>Speed 103 km/h Distance 104 km</desc>
<time>2012-09-18T17:07:50.46</time>
<name>5029</name>
<sym>Dot</sym>
</trkpt>
<trkpt lat="47.840285" lon="15.548938">
<ele>676.5</ele>
<desc>Speed 101 km/h Distance 104 km</desc>
<time>2012-09-18T17:07:51.53</time>
<name>5030</name>
<sym>Dot</sym>
</trkpt>
<trkpt lat="47.840522" lon="15.548793">
<ele>675.5</ele>
<desc>Speed 102 km/h Distance 104 km</desc>
<time>2012-09-18T17:07:52.45</time>
<name>5031</name>
<sym>Dot</sym>
</trkpt>
<trkpt lat="47.840772" lon="15.548690">
<ele>674.5</ele>
<desc>Speed 104 km/h Distance 104 km</desc>
<time>2012-09-18T17:07:53.45</time>
<name>5032</name>
<sym>Dot</sym>
</trkpt>
<trkpt lat="47.841318" lon="15.548615">
<ele>671.0</ele>
<desc>Speed 109 km/h Distance 104 km</desc>
<time>2012-09-18T17:07:55.44</time>
<name>5033</name>
<sym>Dot</sym>
</trkpt>
<trkpt lat="47.841577" lon="15.548617">
<ele>672.0</ele>
<desc>Speed 103 km/h Distance 104 km</desc>
<time>2012-09-18T17:07:56.56</time>
<name>5034</name>
<sym>Dot</sym>
</trkpt>
<trkpt lat="47.841830" lon="15.548655">
<ele>673.0</ele>
<desc>Speed 101 km/h Distance 104 km</desc>
<time>2012-09-18T17:07:57.43</time>
<name>5035</name>
<sym>Dot</sym>
</trkpt>
<trkpt lat="47.842082" lon="15.548728">
<ele>674.0</ele>
<desc>Speed 102 km/h Distance 104 km</desc>
<time>2012-09-18T17:07:58.43</time>
<name>5036</name>
<sym>Dot</sym>
</trkpt>
<trkpt lat="47.842322" lon="15.548840">
<ele>675.0</ele>
<desc>Speed 101 km/h Distance 104 km</desc>
<time>2012-09-18T17:07:59.42</time>
<name>5037</name>
<sym>Dot</sym>
</trkpt>
<trkpt lat="47.842540" lon="15.548987">
<ele>675.0</ele>
<desc>Speed 95.3 km/h Distance 104 km</desc>
<time>2012-09-18T17:08:00.42</time>
<name>5038</name>
<sym>Dot</sym>
</trkpt>
<trkpt lat="47.842755" lon="15.549163">
<ele>676.0</ele>
<desc>Speed 97.3 km/h Distance 104 km</desc>
<time>2012-09-18T17:08:01.41</time>
<name>5039</name>
<sym>Dot</sym>
</trkpt>
<trkpt lat="47.842968" lon="15.549367">
<ele>675.0</ele>
<desc>Speed 101 km/h Distance 104 km</desc>
<time>2012-09-18T17:08:02.43</time>
<name>5040</name>
<sym>Dot</sym>
</trkpt>
<trkpt lat="47.843170" lon="15.549613">
<ele>674.0</ele>
<desc>Speed 103 km/h Distance 104 km</desc>
<time>2012-09-18T17:08:03.43</time>
<name>5041</name>
<sym>Dot</sym>
</trkpt>
<trkpt lat="47.843362" lon="15.549885">
<ele>673.0</ele>
<desc>Speed 104 km/h Distance 104 km</desc>
<time>2012-09-18T17:08:04.41</time>
<name>5042</name>
<sym>Dot</sym>
</trkpt>
<trkpt lat="47.843533" lon="15.550177">
<ele>672.0</ele>
<desc>Speed 103 km/h Distance 104 km</desc>
<time>2012-09-18T17:08:05.39</time>
<name>5043</name>
<sym>Dot</sym>
</trkpt>
<trkpt lat="47.843693" lon="15.550483">
<ele>671.0</ele>
<desc>Speed 104 km/h Distance 104 km</desc>
<time>2012-09-18T17:08:06.39</time>
<name>5044</name>
<sym>Dot</sym>
</trkpt>
<trkpt lat="47.843830" lon="15.550835">
<ele>671.0</ele>
<desc>Speed 110 km/h Distance 104 km</desc>
<time>2012-09-18T17:08:07.40</time>
<name>5045</name>
<sym>Dot</sym>
</trkpt>
<trkpt lat="47.843977" lon="15.551187">
<ele>670.5</ele>
<desc>Speed 111 km/h Distance 104 km</desc>
<time>2012-09-18T17:08:08.40</time>
<name>5046</name>
<sym>Dot</sym>
</trkpt>
<trkpt lat="47.844127" lon="15.551540">
<ele>669.5</ele>
<desc>Speed 113 km/h Distance 104 km</desc>
<time>2012-09-18T17:08:09.39</time>
<name>5047</name>
<sym>Dot</sym>
</trkpt>
<trkpt lat="47.844287" lon="15.551882">
<ele>668.5</ele>
<desc>Speed 112 km/h Distance 104 km</desc>
<time>2012-09-18T17:08:10.39</time>
<name>5048</name>
<sym>Dot</sym>
</trkpt>
<trkpt lat="47.844458" lon="15.552205">
<ele>667.5</ele>
<desc>Speed 111 km/h Distance 104 km</desc>
<time>2012-09-18T17:08:11.38</time>
<name>5049</name>
<sym>Dot</sym>
</trkpt>
<trkpt lat="47.844643" lon="15.552513">
<ele>666.5</ele>
<desc>Speed 111 km/h Distance 104 km</desc>
<time>2012-09-18T17:08:12.37</time>
<name>5050</name>
<sym>Dot</sym>
</trkpt>
<trkpt lat="47.844840" lon="15.552805">
<ele>665.0</ele>
<desc>Speed 110 km/h Distance 104 km</desc>
<time>2012-09-18T17:08:13.42</time>
<name>5051</name>
<sym>Dot</sym>
</trkpt>
<trkpt lat="47.845045" lon="15.553050">
<ele>664.0</ele>
<desc>Speed 105 km/h Distance 104 km</desc>
<time>2012-09-18T17:08:14.37</time>
<name>5052</name>
<sym>Dot</sym>
</trkpt>
<trkpt lat="47.845247" lon="15.553282">
<ele>663.5</ele>
<desc>Speed 99.8 km/h Distance 104 km</desc>
<time>2012-09-18T17:08:15.37</time>
<name>5053</name>
<sym>Dot</sym>
</trkpt>
<trkpt lat="47.845438" lon="15.553498">
<ele>662.0</ele>
<desc>Speed 96.7 km/h Distance 105 km</desc>
<time>2012-09-18T17:08:16.36</time>
<name>5054</name>
<sym>Dot</sym>
</trkpt>
<trkpt lat="47.845632" lon="15.553703">
<ele>660.5</ele>
<desc>Speed 93.1 km/h Distance 105 km</desc>
<time>2012-09-18T17:08:17.35</time>
<name>5055</name>
<sym>Dot</sym>
</trkpt>
<trkpt lat="47.845815" lon="15.553880">
<ele>660.5</ele>
<desc>Speed 87.4 km/h Distance 105 km</desc>
<time>2012-09-18T17:08:18.34</time>
<name>5056</name>
<sym>Dot</sym>
</trkpt>
<trkpt lat="47.846142" lon="15.554158">
<ele>659.5</ele>
<desc>Speed 76.0 km/h Distance 105 km</desc>
<time>2012-09-18T17:08:20.34</time>
<name>5057</name>
<sym>Dot</sym>
</trkpt>
<trkpt lat="47.846433" lon="15.554383">
<ele>659.0</ele>
<desc>Speed 65.6 km/h Distance 105 km</desc>
<time>2012-09-18T17:08:22.36</time>
<name>5058</name>
<sym>Dot</sym>
</trkpt>
<trkpt lat="47.846685" lon="15.554557">
<ele>658.5</ele>
<desc>Speed 55.2 km/h Distance 105 km</desc>
<time>2012-09-18T17:08:24.35</time>
<name>5059</name>
<sym>Dot</sym>
</trkpt>
<trkpt lat="47.846808" lon="15.554637">
<ele>657.5</ele>
<desc>Speed 53.4 km/h Distance 105 km</desc>
<time>2012-09-18T17:08:25.34</time>
<name>5060</name>
<sym>Dot</sym>
</trkpt>
<trkpt lat="47.846930" lon="15.554715">
<ele>657.0</ele>
<desc>Speed 52.9 km/h Distance 105 km</desc>
<time>2012-09-18T17:08:26.34</time>
<name>5061</name>
<sym>Dot</sym>
</trkpt>
<trkpt lat="47.847055" lon="15.554795">
<ele>656.5</ele>
<desc>Speed 54.1 km/h Distance 105 km</desc>
<time>2012-09-18T17:08:27.57</time>
<name>5062</name>
<sym>Dot</sym>
</trkpt>
<trkpt lat="47.847183" lon="15.554880">
<ele>656.5</ele>
<desc>Speed 55.1 km/h Distance 105 km</desc>
<time>2012-09-18T17:08:28.33</time>
<name>5063</name>
<sym>Dot</sym>
</trkpt>
<trkpt lat="47.847310" lon="15.554967">
<ele>656.5</ele>
<desc>Speed 55.4 km/h Distance 105 km</desc>
<time>2012-09-18T17:08:29.30</time>
<name>5064</name>
<sym>Dot</sym>
</trkpt>
<trkpt lat="47.847438" lon="15.555053">
<ele>656.0</ele>
<desc>Speed 55.9 km/h Distance 105 km</desc>
<time>2012-09-18T17:08:30.30</time>
<name>5065</name>
<sym>Dot</sym>
</trkpt>
<trkpt lat="47.847568" lon="15.555140">
<ele>655.0</ele>
<desc>Speed 56.3 km/h Distance 105 km</desc>
<time>2012-09-18T17:08:31.30</time>
<name>5066</name>
<sym>Dot</sym>
</trkpt>
<trkpt lat="47.847695" lon="15.555223">
<ele>654.5</ele>
<desc>Speed 55.0 km/h Distance 105 km</desc>
<time>2012-09-18T17:08:32.30</time>
<name>5067</name>
<sym>Dot</sym>
</trkpt>
<trkpt lat="47.847815" lon="15.555303">
<ele>654.5</ele>
<desc>Speed 52.2 km/h Distance 105 km</desc>
<time>2012-09-18T17:08:33.29</time>
<name>5068</name>
<sym>Dot</sym>
</trkpt>
<trkpt lat="47.847932" lon="15.555387">
<ele>654.0</ele>
<desc>Speed 51.1 km/h Distance 105 km</desc>
<time>2012-09-18T17:08:34.28</time>
<name>5069</name>
<sym>Dot</sym>
</trkpt>
<trkpt lat="47.848030" lon="15.555488">
<ele>654.0</ele>
<desc>Speed 47.6 km/h Distance 105 km</desc>
<time>2012-09-18T17:08:35.28</time>
<name>5070</name>
<sym>Dot</sym>
</trkpt>
<trkpt lat="47.848127" lon="15.555597">
<ele>654.0</ele>
<desc>Speed 48.3 km/h Distance 105 km</desc>
<time>2012-09-18T17:08:36.29</time>
<name>5071</name>
<sym>Dot</sym>
</trkpt>
<trkpt lat="47.848218" lon="15.555723">
<ele>653.0</ele>
<desc>Speed 49.7 km/h Distance 105 km</desc>
<time>2012-09-18T17:08:37.28</time>
<name>5072</name>
<sym>Dot</sym>
</trkpt>
<trkpt lat="47.848303" lon="15.555865">
<ele>651.0</ele>
<desc>Speed 50.5 km/h Distance 105 km</desc>
<time>2012-09-18T17:08:38.27</time>
<name>5073</name>
<sym>Dot</sym>
</trkpt>
<trkpt lat="47.848483" lon="15.556517">
<ele>648.5</ele>
<desc>Speed 64.9 km/h Distance 105 km</desc>
<time>2012-09-18T17:08:41.81</time>
<name>5074</name>
<sym>Dot</sym>
</trkpt>
<trkpt lat="47.848515" lon="15.556745">
<ele>647.5</ele>
<desc>Speed 62.2 km/h Distance 105 km</desc>
<time>2012-09-18T17:08:42.88</time>
<name>5075</name>
<sym>Dot</sym>
</trkpt>
<trkpt lat="47.848547" lon="15.556967">
<ele>646.5</ele>
<desc>Speed 60.0 km/h Distance 105 km</desc>
<time>2012-09-18T17:08:43.82</time>
<name>5076</name>
<sym>Dot</sym>
</trkpt>
<trkpt lat="47.848578" lon="15.557175">
<ele>645.5</ele>
<desc>Speed 57.7 km/h Distance 105 km</desc>
<time>2012-09-18T17:08:44.82</time>
<name>5077</name>
<sym>Dot</sym>
</trkpt>
<trkpt lat="47.848612" lon="15.557378">
<ele>645.0</ele>
<desc>Speed 55.5 km/h Distance 105 km</desc>
<time>2012-09-18T17:08:45.81</time>
<name>5078</name>
<sym>Dot</sym>
</trkpt>
<trkpt lat="47.848655" lon="15.557568">
<ele>644.5</ele>
<desc>Speed 53.5 km/h Distance 105 km</desc>
<time>2012-09-18T17:08:46.81</time>
<name>5079</name>
<sym>Dot</sym>
</trkpt>
<trkpt lat="47.848710" lon="15.557745">
<ele>644.0</ele>
<desc>Speed 51.6 km/h Distance 105 km</desc>
<time>2012-09-18T17:08:47.80</time>
<name>5080</name>
<sym>Dot</sym>
</trkpt>
<trkpt lat="47.848775" lon="15.557910">
<ele>642.5</ele>
<desc>Speed 50.9 km/h Distance 105 km</desc>
<time>2012-09-18T17:08:48.79</time>
<name>5081</name>
<sym>Dot</sym>
</trkpt>
<trkpt lat="47.848848" lon="15.558065">
<ele>642.0</ele>
<desc>Speed 50.9 km/h Distance 105 km</desc>
<time>2012-09-18T17:08:49.78</time>
<name>5082</name>
<sym>Dot</sym>
</trkpt>
<trkpt lat="47.848932" lon="15.558212">
<ele>641.5</ele>
<desc>Speed 51.5 km/h Distance 105 km</desc>
<time>2012-09-18T17:08:50.77</time>
<name>5083</name>
<sym>Dot</sym>
</trkpt>
<trkpt lat="47.849023" lon="15.558350">
<ele>641.5</ele>
<desc>Speed 52.7 km/h Distance 105 km</desc>
<time>2012-09-18T17:08:51.78</time>
<name>5084</name>
<sym>Dot</sym>
</trkpt>
<trkpt lat="47.849122" lon="15.558483">
<ele>641.0</ele>
<desc>Speed 52.8 km/h Distance 105 km</desc>
<time>2012-09-18T17:08:52.78</time>
<name>5085</name>
<sym>Dot</sym>
</trkpt>
<trkpt lat="47.849220" lon="15.558612">
<ele>640.5</ele>
<desc>Speed 52.5 km/h Distance 105 km</desc>
<time>2012-09-18T17:08:53.76</time>
<name>5086</name>
<sym>Dot</sym>
</trkpt>
<trkpt lat="47.849317" lon="15.558740">
<ele>640.0</ele>
<desc>Speed 51.5 km/h Distance 105 km</desc>
<time>2012-09-18T17:08:54.76</time>
<name>5087</name>
<sym>Dot</sym>
</trkpt>
<trkpt lat="47.849410" lon="15.558867">
<ele>639.5</ele>
<desc>Speed 50.8 km/h Distance 105 km</desc>
<time>2012-09-18T17:08:55.77</time>
<name>5088</name>
<sym>Dot</sym>
</trkpt>
<trkpt lat="47.849505" lon="15.558992">
<ele>639.5</ele>
<desc>Speed 50.3 km/h Distance 105 km</desc>
<time>2012-09-18T17:08:56.75</time>
<name>5089</name>
<sym>Dot</sym>
</trkpt>
<trkpt lat="47.849600" lon="15.559117">
<ele>639.0</ele>
<desc>Speed 50.4 km/h Distance 105 km</desc>
<time>2012-09-18T17:08:57.75</time>
<name>5090</name>
<sym>Dot</sym>
</trkpt>
<trkpt lat="47.849697" lon="15.559242">
<ele>638.5</ele>
<desc>Speed 51.0 km/h Distance 105 km</desc>
<time>2012-09-18T17:08:58.74</time>
<name>5091</name>
<sym>Dot</sym>
</trkpt>
<trkpt lat="47.849795" lon="15.559367">
<ele>638.0</ele>
<desc>Speed 51.7 km/h Distance 105 km</desc>
<time>2012-09-18T17:08:59.73</time>
<name>5092</name>
<sym>Dot</sym>
</trkpt>
<trkpt lat="47.849893" lon="15.559488">
<ele>637.5</ele>
<desc>Speed 51.0 km/h Distance 105 km</desc>
<time>2012-09-18T17:09:00.73</time>
<name>5093</name>
<sym>Dot</sym>
</trkpt>
<trkpt lat="47.849997" lon="15.559603">
<ele>637.0</ele>
<desc>Speed 51.0 km/h Distance 105 km</desc>
<time>2012-09-18T17:09:01.72</time>
<name>5094</name>
<sym>Dot</sym>
</trkpt>
<trkpt lat="47.850102" lon="15.559710">
<ele>636.5</ele>
<desc>Speed 50.5 km/h Distance 105 km</desc>
<time>2012-09-18T17:09:02.71</time>
<name>5095</name>
<sym>Dot</sym>
</trkpt>
<trkpt lat="47.850210" lon="15.559807">
<ele>636.0</ele>
<desc>Speed 49.8 km/h Distance 105 km</desc>
<time>2012-09-18T17:09:03.72</time>
<name>5096</name>
<sym>Dot</sym>
</trkpt>
<trkpt lat="47.850320" lon="15.559895">
<ele>635.5</ele>
<desc>Speed 49.5 km/h Distance 105 km</desc>
<time>2012-09-18T17:09:04.69</time>
<name>5097</name>
<sym>Dot</sym>
</trkpt>
<trkpt lat="47.850432" lon="15.559972">
<ele>634.5</ele>
<desc>Speed 49.0 km/h Distance 105 km</desc>
<time>2012-09-18T17:09:05.69</time>
<name>5098</name>
<sym>Dot</sym>
</trkpt>
<trkpt lat="47.850553" lon="15.560043">
<ele>633.5</ele>
<desc>Speed 51.9 km/h Distance 105 km</desc>
<time>2012-09-18T17:09:06.68</time>
<name>5099</name>
<sym>Dot</sym>
</trkpt>
<trkpt lat="47.850687" lon="15.560108">
<ele>632.5</ele>
<desc>Speed 56.4 km/h Distance 105 km</desc>
<time>2012-09-18T17:09:07.68</time>
<name>5100</name>
<sym>Dot</sym>
</trkpt>
<trkpt lat="47.850823" lon="15.560163">
<ele>632.0</ele>
<desc>Speed 56.3 km/h Distance 105 km</desc>
<time>2012-09-18T17:09:08.67</time>
<name>5101</name>
<sym>Dot</sym>
</trkpt>
<trkpt lat="47.850955" lon="15.560212">
<ele>631.5</ele>
<desc>Speed 54.3 km/h Distance 105 km</desc>
<time>2012-09-18T17:09:09.67</time>
<name>5102</name>
<sym>Dot</sym>
</trkpt>
<trkpt lat="47.851083" lon="15.560260">
<ele>631.5</ele>
<desc>Speed 52.2 km/h Distance 105 km</desc>
<time>2012-09-18T17:09:10.66</time>
<name>5103</name>
<sym>Dot</sym>
</trkpt>
<trkpt lat="47.851205" lon="15.560307">
<ele>631.5</ele>
<desc>Speed 49.9 km/h Distance 105 km</desc>
<time>2012-09-18T17:09:11.67</time>
<name>5104</name>
<sym>Dot</sym>
</trkpt>
<trkpt lat="47.851325" lon="15.560347">
<ele>631.5</ele>
<desc>Speed 48.8 km/h Distance 105 km</desc>
<time>2012-09-18T17:09:12.65</time>
<name>5105</name>
<sym>Dot</sym>
</trkpt>
<trkpt lat="47.851443" lon="15.560380">
<ele>631.5</ele>
<desc>Speed 47.8 km/h Distance 105 km</desc>
<time>2012-09-18T17:09:13.66</time>
<name>5106</name>
<sym>Dot</sym>
</trkpt>
<trkpt lat="47.851562" lon="15.560415">
<ele>631.0</ele>
<desc>Speed 47.9 km/h Distance 105 km</desc>
<time>2012-09-18T17:09:14.67</time>
<name>5107</name>
<sym>Dot</sym>
</trkpt>
<trkpt lat="47.851677" lon="15.560460">
<ele>630.5</ele>
<desc>Speed 47.4 km/h Distance 105 km</desc>
<time>2012-09-18T17:09:15.65</time>
<name>5108</name>
<sym>Dot</sym>
</trkpt>
<trkpt lat="47.851792" lon="15.560503">
<ele>630.5</ele>
<desc>Speed 47.3 km/h Distance 105 km</desc>
<time>2012-09-18T17:09:16.64</time>
<name>5109</name>
<sym>Dot</sym>
</trkpt>
<trkpt lat="47.851908" lon="15.560540">
<ele>630.0</ele>
<desc>Speed 47.2 km/h Distance 105 km</desc>
<time>2012-09-18T17:09:17.63</time>
<name>5110</name>
<sym>Dot</sym>
</trkpt>
<trkpt lat="47.852022" lon="15.560580">
<ele>630.5</ele>
<desc>Speed 46.3 km/h Distance 105 km</desc>
<time>2012-09-18T17:09:18.63</time>
<name>5111</name>
<sym>Dot</sym>
</trkpt>
<trkpt lat="47.852133" lon="15.560625">
<ele>630.0</ele>
<desc>Speed 46.3 km/h Distance 105 km</desc>
<time>2012-09-18T17:09:19.63</time>
<name>5112</name>
<sym>Dot</sym>
</trkpt>
<trkpt lat="47.852245" lon="15.560672">
<ele>630.0</ele>
<desc>Speed 45.9 km/h Distance 105 km</desc>
<time>2012-09-18T17:09:20.61</time>
<name>5113</name>
<sym>Dot</sym>
</trkpt>
<trkpt lat="47.852355" lon="15.560718">
<ele>629.5</ele>
<desc>Speed 45.5 km/h Distance 105 km</desc>
<time>2012-09-18T17:09:21.61</time>
<name>5114</name>
<sym>Dot</sym>
</trkpt>
<trkpt lat="47.852467" lon="15.560763">
<ele>629.0</ele>
<desc>Speed 45.6 km/h Distance 106 km</desc>
<time>2012-09-18T17:09:22.61</time>
<name>5115</name>
<sym>Dot</sym>
</trkpt>
<trkpt lat="47.852577" lon="15.560803">
<ele>629.0</ele>
<desc>Speed 45.2 km/h Distance 106 km</desc>
<time>2012-09-18T17:09:23.60</time>
<name>5116</name>
<sym>Dot</sym>
</trkpt>
<trkpt lat="47.852682" lon="15.560847">
<ele>629.0</ele>
<desc>Speed 43.1 km/h Distance 106 km</desc>
<time>2012-09-18T17:09:24.61</time>
<name>5117</name>
<sym>Dot</sym>
</trkpt>
<trkpt lat="47.852782" lon="15.560893">
<ele>628.5</ele>
<desc>Speed 41.4 km/h Distance 106 km</desc>
<time>2012-09-18T17:09:25.59</time>
<name>5118</name>
<sym>Dot</sym>
</trkpt>
<trkpt lat="47.852880" lon="15.560938">
<ele>628.0</ele>
<desc>Speed 40.2 km/h Distance 106 km</desc>
<time>2012-09-18T17:09:26.59</time>
<name>5119</name>
<sym>Dot</sym>
</trkpt>
<trkpt lat="47.852973" lon="15.560987">
<ele>627.5</ele>
<desc>Speed 39.1 km/h Distance 106 km</desc>
<time>2012-09-18T17:09:27.58</time>
<name>5120</name>
<sym>Dot</sym>
</trkpt>
<trkpt lat="47.853060" lon="15.561047">
<ele>627.5</ele>
<desc>Speed 38.3 km/h Distance 106 km</desc>
<time>2012-09-18T17:09:28.56</time>
<name>5121</name>
<sym>Dot</sym>
</trkpt>
<trkpt lat="47.853142" lon="15.561130">
<ele>628.5</ele>
<desc>Speed 39.0 km/h Distance 106 km</desc>
<time>2012-09-18T17:09:29.57</time>
<name>5122</name>
<sym>Dot</sym>
</trkpt>
<trkpt lat="47.853217" lon="15.561243">
<ele>629.5</ele>
<desc>Speed 41.6 km/h Distance 106 km</desc>
<time>2012-09-18T17:09:30.56</time>
<name>5123</name>
<sym>Dot</sym>
</trkpt>
<trkpt lat="47.853272" lon="15.561385">
<ele>631.0</ele>
<desc>Speed 44.1 km/h Distance 106 km</desc>
<time>2012-09-18T17:09:31.55</time>
<name>5124</name>
<sym>Dot</sym>
</trkpt>
<trkpt lat="47.853327" lon="15.561538">
<ele>630.0</ele>
<desc>Speed 46.4 km/h Distance 106 km</desc>
<time>2012-09-18T17:09:32.56</time>
<name>5125</name>
<sym>Dot</sym>
</trkpt>
<trkpt lat="47.853377" lon="15.561690">
<ele>629.5</ele>
<desc>Speed 45.0 km/h Distance 106 km</desc>
<time>2012-09-18T17:09:33.55</time>
<name>5126</name>
<sym>Dot</sym>
</trkpt>
<trkpt lat="47.853417" lon="15.561842">
<ele>628.5</ele>
<desc>Speed 42.8 km/h Distance 106 km</desc>
<time>2012-09-18T17:09:34.54</time>
<name>5127</name>
<sym>Dot</sym>
</trkpt>
<trkpt lat="47.853452" lon="15.561990">
<ele>627.5</ele>
<desc>Speed 41.4 km/h Distance 106 km</desc>
<time>2012-09-18T17:09:35.58</time>
<name>5128</name>
<sym>Dot</sym>
</trkpt>
<trkpt lat="47.853485" lon="15.562133">
<ele>627.0</ele>
<desc>Speed 40.2 km/h Distance 106 km</desc>
<time>2012-09-18T17:09:36.53</time>
<name>5129</name>
<sym>Dot</sym>
</trkpt>
<trkpt lat="47.853518" lon="15.562275">
<ele>626.5</ele>
<desc>Speed 40.1 km/h Distance 106 km</desc>
<time>2012-09-18T17:09:37.52</time>
<name>5130</name>
<sym>Dot</sym>
</trkpt>
<trkpt lat="47.853538" lon="15.562418">
<ele>626.0</ele>
<desc>Speed 38.3 km/h Distance 106 km</desc>
<time>2012-09-18T17:09:38.52</time>
<name>5131</name>
<sym>Dot</sym>
</trkpt>
<trkpt lat="47.853568" lon="15.562563">
<ele>626.5</ele>
<desc>Speed 40.7 km/h Distance 106 km</desc>
<time>2012-09-18T17:09:39.51</time>
<name>5132</name>
<sym>Dot</sym>
</trkpt>
<trkpt lat="47.853600" lon="15.562705">
<ele>626.0</ele>
<desc>Speed 39.6 km/h Distance 106 km</desc>
<time>2012-09-18T17:09:40.49</time>
<name>5133</name>
<sym>Dot</sym>
</trkpt>
<trkpt lat="47.853632" lon="15.562847">
<ele>626.0</ele>
<desc>Speed 39.9 km/h Distance 106 km</desc>
<time>2012-09-18T17:09:41.47</time>
<name>5134</name>
<sym>Dot</sym>
</trkpt>
<trkpt lat="47.853665" lon="15.562987">
<ele>626.0</ele>
<desc>Speed 40.0 km/h Distance 106 km</desc>
<time>2012-09-18T17:09:42.47</time>
<name>5135</name>
<sym>Dot</sym>
</trkpt>
<trkpt lat="47.853697" lon="15.563128">
<ele>625.5</ele>
<desc>Speed 40.0 km/h Distance 106 km</desc>
<time>2012-09-18T17:09:43.46</time>
<name>5136</name>
<sym>Dot</sym>
</trkpt>
<trkpt lat="47.853727" lon="15.563268">
<ele>625.5</ele>
<desc>Speed 39.5 km/h Distance 106 km</desc>
<time>2012-09-18T17:09:44.46</time>
<name>5137</name>
<sym>Dot</sym>
</trkpt>
<trkpt lat="47.853758" lon="15.563405">
<ele>625.5</ele>
<desc>Speed 38.5 km/h Distance 106 km</desc>
<time>2012-09-18T17:09:45.47</time>
<name>5138</name>
<sym>Dot</sym>
</trkpt>
<trkpt lat="47.853782" lon="15.563538">
<ele>625.0</ele>
<desc>Speed 37.1 km/h Distance 106 km</desc>
<time>2012-09-18T17:09:46.45</time>
<name>5139</name>
<sym>Dot</sym>
</trkpt>
<trkpt lat="47.853798" lon="15.563668">
<ele>625.0</ele>
<desc>Speed 35.7 km/h Distance 106 km</desc>
<time>2012-09-18T17:09:47.45</time>
<name>5140</name>
<sym>Dot</sym>
</trkpt>
<trkpt lat="47.853805" lon="15.563802">
<ele>625.0</ele>
<desc>Speed 35.9 km/h Distance 106 km</desc>
<time>2012-09-18T17:09:48.44</time>
<name>5141</name>
<sym>Dot</sym>
</trkpt>
<trkpt lat="47.853800" lon="15.563940">
<ele>625.0</ele>
<desc>Speed 37.5 km/h Distance 106 km</desc>
<time>2012-09-18T17:09:49.44</time>
<name>5142</name>
<sym>Dot</sym>
</trkpt>
<trkpt lat="47.853787" lon="15.564082">
<ele>625.0</ele>
<desc>Speed 38.7 km/h Distance 106 km</desc>
<time>2012-09-18T17:09:50.44</time>
<name>5143</name>
<sym>Dot</sym>
</trkpt>
<trkpt lat="47.853773" lon="15.564228">
<ele>625.5</ele>
<desc>Speed 40.0 km/h Distance 106 km</desc>
<time>2012-09-18T17:09:51.43</time>
<name>5144</name>
<sym>Dot</sym>
</trkpt>
<trkpt lat="47.853758" lon="15.564385">
<ele>625.5</ele>
<desc>Speed 42.5 km/h Distance 106 km</desc>
<time>2012-09-18T17:09:52.43</time>
<name>5145</name>
<sym>Dot</sym>
</trkpt>
<trkpt lat="47.853747" lon="15.564548">
<ele>625.5</ele>
<desc>Speed 44.7 km/h Distance 106 km</desc>
<time>2012-09-18T17:09:53.43</time>
<name>5146</name>
<sym>Dot</sym>
</trkpt>
<trkpt lat="47.853738" lon="15.564707">
<ele>625.5</ele>
<desc>Speed 42.4 km/h Distance 106 km</desc>
<time>2012-09-18T17:09:54.44</time>
<name>5147</name>
<sym>Dot</sym>
</trkpt>
<trkpt lat="47.853737" lon="15.564857">
<ele>625.5</ele>
<desc>Speed 40.2 km/h Distance 106 km</desc>
<time>2012-09-18T17:09:55.43</time>
<name>5148</name>
<sym>Dot</sym>
</trkpt>
<trkpt lat="47.853737" lon="15.565000">
<ele>625.5</ele>
<desc>Speed 38.3 km/h Distance 106 km</desc>
<time>2012-09-18T17:09:56.42</time>
<name>5149</name>
<sym>Dot</sym>
</trkpt>
<trkpt lat="47.853738" lon="15.565138">
<ele>625.5</ele>
<desc>Speed 36.6 km/h Distance 106 km</desc>
<time>2012-09-18T17:09:57.40</time>
<name>5150</name>
<sym>Dot</sym>
</trkpt>
<trkpt lat="47.853742" lon="15.565268">
<ele>625.5</ele>
<desc>Speed 34.9 km/h Distance 106 km</desc>
<time>2012-09-18T17:09:58.41</time>
<name>5151</name>
<sym>Dot</sym>
</trkpt>
<trkpt lat="47.853747" lon="15.565393">
<ele>625.5</ele>
<desc>Speed 33.5 km/h Distance 106 km</desc>
<time>2012-09-18T17:09:59.40</time>
<name>5152</name>
<sym>Dot</sym>
</trkpt>
<trkpt lat="47.853753" lon="15.565510">
<ele>625.0</ele>
<desc>Speed 31.2 km/h Distance 106 km</desc>
<time>2012-09-18T17:10:00.39</time>
<name>5153</name>
<sym>Dot</sym>
</trkpt>
<trkpt lat="47.853762" lon="15.565620">
<ele>625.0</ele>
<desc>Speed 29.4 km/h Distance 106 km</desc>
<time>2012-09-18T17:10:01.39</time>
<name>5154</name>
<sym>Dot</sym>
</trkpt>
<trkpt lat="47.853772" lon="15.565745">
<ele>624.5</ele>
<desc>Speed 34.1 km/h Distance 106 km</desc>
<time>2012-09-18T17:10:02.39</time>
<name>5155</name>
<sym>Dot</sym>
</trkpt>
<trkpt lat="47.853783" lon="15.565888">
<ele>624.0</ele>
<desc>Speed 38.4 km/h Distance 106 km</desc>
<time>2012-09-18T17:10:03.39</time>
<name>5156</name>
<sym>Dot</sym>
</trkpt>
<trkpt lat="47.853810" lon="15.566480">
<ele>623.5</ele>
<desc>Speed 54.4 km/h Distance 106 km</desc>
<time>2012-09-18T17:10:06.82</time>
<name>5157</name>
<sym>Dot</sym>
</trkpt>
<trkpt lat="47.853818" lon="15.566680">
<ele>623.0</ele>
<desc>Speed 53.7 km/h Distance 106 km</desc>
<time>2012-09-18T17:10:07.84</time>
<name>5158</name>
<sym>Dot</sym>
</trkpt>
<trkpt lat="47.853822" lon="15.566887">
<ele>622.5</ele>
<desc>Speed 55.8 km/h Distance 106 km</desc>
<time>2012-09-18T17:10:08.81</time>
<name>5159</name>
<sym>Dot</sym>
</trkpt>
<trkpt lat="47.853823" lon="15.567093">
<ele>622.0</ele>
<desc>Speed 55.9 km/h Distance 106 km</desc>
<time>2012-09-18T17:10:09.81</time>
<name>5160</name>
<sym>Dot</sym>
</trkpt>
<trkpt lat="47.853820" lon="15.567295">
<ele>622.0</ele>
<desc>Speed 54.6 km/h Distance 106 km</desc>
<time>2012-09-18T17:10:10.81</time>
<name>5161</name>
<sym>Dot</sym>
</trkpt>
<trkpt lat="47.853815" lon="15.567492">
<ele>622.5</ele>
<desc>Speed 53.0 km/h Distance 106 km</desc>
<time>2012-09-18T17:10:11.79</time>
<name>5162</name>
<sym>Dot</sym>
</trkpt>
<trkpt lat="47.853805" lon="15.567683">
<ele>622.5</ele>
<desc>Speed 52.3 km/h Distance 106 km</desc>
<time>2012-09-18T17:10:12.79</time>
<name>5163</name>
<sym>Dot</sym>
</trkpt>
<trkpt lat="47.853792" lon="15.567875">
<ele>622.5</ele>
<desc>Speed 51.9 km/h Distance 106 km</desc>
<time>2012-09-18T17:10:13.78</time>
<name>5164</name>
<sym>Dot</sym>
</trkpt>
<trkpt lat="47.853778" lon="15.568063">
<ele>622.0</ele>
<desc>Speed 51.1 km/h Distance 106 km</desc>
<time>2012-09-18T17:10:14.77</time>
<name>5165</name>
<sym>Dot</sym>
</trkpt>
<trkpt lat="47.853765" lon="15.568247">
<ele>622.0</ele>
<desc>Speed 49.6 km/h Distance 106 km</desc>
<time>2012-09-18T17:10:15.76</time>
<name>5166</name>
<sym>Dot</sym>
</trkpt>
<trkpt lat="47.853748" lon="15.568423">
<ele>621.5</ele>
<desc>Speed 48.2 km/h Distance 106 km</desc>
<time>2012-09-18T17:10:16.75</time>
<name>5167</name>
<sym>Dot</sym>
</trkpt>
<trkpt lat="47.853735" lon="15.568595">
<ele>622.0</ele>
<desc>Speed 46.9 km/h Distance 106 km</desc>
<time>2012-09-18T17:10:17.75</time>
<name>5168</name>
<sym>Dot</sym>
</trkpt>
<trkpt lat="47.853722" lon="15.568765">
<ele>623.0</ele>
<desc>Speed 46.3 km/h Distance 106 km</desc>
<time>2012-09-18T17:10:18.75</time>
<name>5169</name>
<sym>Dot</sym>
</trkpt>
<trkpt lat="47.853707" lon="15.568935">
<ele>622.5</ele>
<desc>Speed 46.3 km/h Distance 106 km</desc>
<time>2012-09-18T17:10:19.74</time>
<name>5170</name>
<sym>Dot</sym>
</trkpt>
<trkpt lat="47.853700" lon="15.569108">
<ele>622.0</ele>
<desc>Speed 47.1 km/h Distance 106 km</desc>
<time>2012-09-18T17:10:20.75</time>
<name>5171</name>
<sym>Dot</sym>
</trkpt>
<trkpt lat="47.853702" lon="15.569287">
<ele>621.5</ele>
<desc>Speed 48.2 km/h Distance 106 km</desc>
<time>2012-09-18T17:10:21.73</time>
<name>5172</name>
<sym>Dot</sym>
</trkpt>
<trkpt lat="47.853707" lon="15.569470">
<ele>620.5</ele>
<desc>Speed 49.1 km/h Distance 106 km</desc>
<time>2012-09-18T17:10:22.74</time>
<name>5173</name>
<sym>Dot</sym>
</trkpt>
<trkpt lat="47.853713" lon="15.569655">
<ele>619.0</ele>
<desc>Speed 49.7 km/h Distance 106 km</desc>
<time>2012-09-18T17:10:23.72</time>
<name>5174</name>
<sym>Dot</sym>
</trkpt>
<trkpt lat="47.853718" lon="15.569843">
<ele>618.5</ele>
<desc>Speed 50.9 km/h Distance 106 km</desc>
<time>2012-09-18T17:10:24.71</time>
<name>5175</name>
<sym>Dot</sym>
</trkpt>
<trkpt lat="47.853725" lon="15.570035">
<ele>618.5</ele>
<desc>Speed 51.9 km/h Distance 106 km</desc>
<time>2012-09-18T17:10:25.69</time>
<name>5176</name>
<sym>Dot</sym>
</trkpt>
<trkpt lat="47.853733" lon="15.570230">
<ele>618.5</ele>
<desc>Speed 52.7 km/h Distance 106 km</desc>
<time>2012-09-18T17:10:26.69</time>
<name>5177</name>
<sym>Dot</sym>
</trkpt>
<trkpt lat="47.853745" lon="15.570425">
<ele>618.5</ele>
<desc>Speed 53.2 km/h Distance 106 km</desc>
<time>2012-09-18T17:10:27.68</time>
<name>5178</name>
<sym>Dot</sym>
</trkpt>
<trkpt lat="47.853757" lon="15.570625">
<ele>618.5</ele>
<desc>Speed 53.9 km/h Distance 106 km</desc>
<time>2012-09-18T17:10:28.68</time>
<name>5179</name>
<sym>Dot</sym>
</trkpt>
<trkpt lat="47.853768" lon="15.570827">
<ele>618.5</ele>
<desc>Speed 54.4 km/h Distance 106 km</desc>
<time>2012-09-18T17:10:29.67</time>
<name>5180</name>
<sym>Dot</sym>
</trkpt>
<trkpt lat="47.853780" lon="15.571028">
<ele>619.0</ele>
<desc>Speed 54.9 km/h Distance 106 km</desc>
<time>2012-09-18T17:10:30.67</time>
<name>5181</name>
<sym>Dot</sym>
</trkpt>
<trkpt lat="47.853792" lon="15.571228">
<ele>619.5</ele>
<desc>Speed 54.4 km/h Distance 106 km</desc>
<time>2012-09-18T17:10:31.66</time>
<name>5182</name>
<sym>Dot</sym>
</trkpt>
<trkpt lat="47.853803" lon="15.571422">
<ele>619.5</ele>
<desc>Speed 52.6 km/h Distance 106 km</desc>
<time>2012-09-18T17:10:32.65</time>
<name>5183</name>
<sym>Dot</sym>
</trkpt>
<trkpt lat="47.853822" lon="15.571608">
<ele>620.0</ele>
<desc>Speed 50.5 km/h Distance 106 km</desc>
<time>2012-09-18T17:10:33.65</time>
<name>5184</name>
<sym>Dot</sym>
</trkpt>
<trkpt lat="47.853845" lon="15.571783">
<ele>620.0</ele>
<desc>Speed 48.5 km/h Distance 106 km</desc>
<time>2012-09-18T17:10:34.65</time>
<name>5185</name>
<sym>Dot</sym>
</trkpt>
<trkpt lat="47.853873" lon="15.571950">
<ele>620.5</ele>
<desc>Speed 46.9 km/h Distance 106 km</desc>
<time>2012-09-18T17:10:35.64</time>
<name>5186</name>
<sym>Dot</sym>
</trkpt>
<trkpt lat="47.853910" lon="15.572117">
<ele>621.0</ele>
<desc>Speed 47.6 km/h Distance 106 km</desc>
<time>2012-09-18T17:10:36.65</time>
<name>5187</name>
<sym>Dot</sym>
</trkpt>
<trkpt lat="47.854042" lon="15.572490">
<ele>623.0</ele>
<desc>Speed 57.8 km/h Distance 106 km</desc>
<time>2012-09-18T17:10:38.64</time>
<name>5188</name>
<sym>Dot</sym>
</trkpt>
<trkpt lat="47.854117" lon="15.572673">
<ele>623.0</ele>
<desc>Speed 57.7 km/h Distance 106 km</desc>
<time>2012-09-18T17:10:39.64</time>
<name>5189</name>
<sym>Dot</sym>
</trkpt>
<trkpt lat="47.854193" lon="15.572845">
<ele>623.0</ele>
<desc>Speed 55.5 km/h Distance 106 km</desc>
<time>2012-09-18T17:10:40.63</time>
<name>5190</name>
<sym>Dot</sym>
</trkpt>
<trkpt lat="47.854272" lon="15.573008">
<ele>623.5</ele>
<desc>Speed 53.3 km/h Distance 107 km</desc>
<time>2012-09-18T17:10:41.62</time>
<name>5191</name>
<sym>Dot</sym>
</trkpt>
<trkpt lat="47.854343" lon="15.573172">
<ele>623.5</ele>
<desc>Speed 52.8 km/h Distance 107 km</desc>
<time>2012-09-18T17:10:42.62</time>
<name>5192</name>
<sym>Dot</sym>
</trkpt>
<trkpt lat="47.854413" lon="15.573340">
<ele>623.5</ele>
<desc>Speed 52.8 km/h Distance 107 km</desc>
<time>2012-09-18T17:10:43.61</time>
<name>5193</name>
<sym>Dot</sym>
</trkpt>
<trkpt lat="47.854480" lon="15.573510">
<ele>623.5</ele>
<desc>Speed 53.0 km/h Distance 107 km</desc>
<time>2012-09-18T17:10:44.61</time>
<name>5194</name>
<sym>Dot</sym>
</trkpt>
<trkpt lat="47.854547" lon="15.573678">
<ele>623.5</ele>
<desc>Speed 52.6 km/h Distance 107 km</desc>
<time>2012-09-18T17:10:45.60</time>
<name>5195</name>
<sym>Dot</sym>
</trkpt>
<trkpt lat="47.854613" lon="15.573843">
<ele>623.0</ele>
<desc>Speed 51.6 km/h Distance 107 km</desc>
<time>2012-09-18T17:10:46.59</time>
<name>5196</name>
<sym>Dot</sym>
</trkpt>
<trkpt lat="47.854677" lon="15.574010">
<ele>623.0</ele>
<desc>Speed 51.6 km/h Distance 107 km</desc>
<time>2012-09-18T17:10:47.57</time>
<name>5197</name>
<sym>Dot</sym>
</trkpt>
<trkpt lat="47.854738" lon="15.574177">
<ele>623.0</ele>
<desc>Speed 51.2 km/h Distance 107 km</desc>
<time>2012-09-18T17:10:48.57</time>
<name>5198</name>
<sym>Dot</sym>
</trkpt>
<trkpt lat="47.854800" lon="15.574342">
<ele>623.0</ele>
<desc>Speed 50.3 km/h Distance 107 km</desc>
<time>2012-09-18T17:10:49.57</time>
<name>5199</name>
<sym>Dot</sym>
</trkpt>
<trkpt lat="47.854863" lon="15.574502">
<ele>623.0</ele>
<desc>Speed 50.0 km/h Distance 107 km</desc>
<time>2012-09-18T17:10:50.56</time>
<name>5200</name>
<sym>Dot</sym>
</trkpt>
<trkpt lat="47.854930" lon="15.574660">
<ele>623.0</ele>
<desc>Speed 49.9 km/h Distance 107 km</desc>
<time>2012-09-18T17:10:51.58</time>
<name>5201</name>
<sym>Dot</sym>
</trkpt>
<trkpt lat="47.854998" lon="15.574815">
<ele>623.0</ele>
<desc>Speed 49.8 km/h Distance 107 km</desc>
<time>2012-09-18T17:10:52.56</time>
<name>5202</name>
<sym>Dot</sym>
</trkpt>
<trkpt lat="47.855068" lon="15.574967">
<ele>623.0</ele>
<desc>Speed 49.4 km/h Distance 107 km</desc>
<time>2012-09-18T17:10:53.56</time>
<name>5203</name>
<sym>Dot</sym>
</trkpt>
<trkpt lat="47.855140" lon="15.575113">
<ele>623.0</ele>
<desc>Speed 49.4 km/h Distance 107 km</desc>
<time>2012-09-18T17:10:54.55</time>
<name>5204</name>
<sym>Dot</sym>
</trkpt>
<trkpt lat="47.855218" lon="15.575265">
<ele>623.0</ele>
<desc>Speed 51.5 km/h Distance 107 km</desc>
<time>2012-09-18T17:10:55.55</time>
<name>5205</name>
<sym>Dot</sym>
</trkpt>
<trkpt lat="47.855302" lon="15.575422">
<ele>622.5</ele>
<desc>Speed 53.6 km/h Distance 107 km</desc>
<time>2012-09-18T17:10:56.55</time>
<name>5206</name>
<sym>Dot</sym>
</trkpt>
<trkpt lat="47.855385" lon="15.575573">
<ele>622.5</ele>
<desc>Speed 52.8 km/h Distance 107 km</desc>
<time>2012-09-18T17:10:57.54</time>
<name>5207</name>
<sym>Dot</sym>
</trkpt>
<trkpt lat="47.855470" lon="15.575713">
<ele>622.5</ele>
<desc>Speed 51.1 km/h Distance 107 km</desc>
<time>2012-09-18T17:10:58.54</time>
<name>5208</name>
<sym>Dot</sym>
</trkpt>
<trkpt lat="47.855555" lon="15.575835">
<ele>622.0</ele>
<desc>Speed 47.6 km/h Distance 107 km</desc>
<time>2012-09-18T17:10:59.53</time>
<name>5209</name>
<sym>Dot</sym>
</trkpt>
<trkpt lat="47.855648" lon="15.575942">
<ele>621.5</ele>
<desc>Speed 47.0 km/h Distance 107 km</desc>
<time>2012-09-18T17:11:00.53</time>
<name>5210</name>
<sym>Dot</sym>
</trkpt>
<trkpt lat="47.855750" lon="15.576033">
<ele>621.5</ele>
<desc>Speed 48.0 km/h Distance 107 km</desc>
<time>2012-09-18T17:11:01.53</time>
<name>5211</name>
<sym>Dot</sym>
</trkpt>
<trkpt lat="47.855863" lon="15.576107">
<ele>621.0</ele>
<desc>Speed 49.1 km/h Distance 107 km</desc>
<time>2012-09-18T17:11:02.52</time>
<name>5212</name>
<sym>Dot</sym>
</trkpt>
<trkpt lat="47.855993" lon="15.576148">
<ele>620.5</ele>
<desc>Speed 53.4 km/h Distance 107 km</desc>
<time>2012-09-18T17:11:03.53</time>
<name>5213</name>
<sym>Dot</sym>
</trkpt>
<trkpt lat="47.856128" lon="15.576183">
<ele>620.0</ele>
<desc>Speed 54.8 km/h Distance 107 km</desc>
<time>2012-09-18T17:11:04.51</time>
<name>5214</name>
<sym>Dot</sym>
</trkpt>
<trkpt lat="47.856262" lon="15.576203">
<ele>619.5</ele>
<desc>Speed 53.5 km/h Distance 107 km</desc>
<time>2012-09-18T17:11:05.51</time>
<name>5215</name>
<sym>Dot</sym>
</trkpt>
<trkpt lat="47.856393" lon="15.576213">
<ele>619.0</ele>
<desc>Speed 52.7 km/h Distance 107 km</desc>
<time>2012-09-18T17:11:06.50</time>
<name>5216</name>
<sym>Dot</sym>
</trkpt>
<trkpt lat="47.856525" lon="15.576217">
<ele>619.0</ele>
<desc>Speed 53.0 km/h Distance 107 km</desc>
<time>2012-09-18T17:11:07.52</time>
<name>5217</name>
<sym>Dot</sym>
</trkpt>
<trkpt lat="47.856660" lon="15.576222">
<ele>619.0</ele>
<desc>Speed 53.4 km/h Distance 107 km</desc>
<time>2012-09-18T17:11:08.49</time>
<name>5218</name>
<sym>Dot</sym>
</trkpt>
<trkpt lat="47.856795" lon="15.576225">
<ele>619.0</ele>
<desc>Speed 54.1 km/h Distance 107 km</desc>
<time>2012-09-18T17:11:09.49</time>
<name>5219</name>
<sym>Dot</sym>
</trkpt>
<trkpt lat="47.856932" lon="15.576228">
<ele>619.0</ele>
<desc>Speed 54.4 km/h Distance 107 km</desc>
<time>2012-09-18T17:11:10.48</time>
<name>5220</name>
<sym>Dot</sym>
</trkpt>
<trkpt lat="47.857068" lon="15.576227">
<ele>619.0</ele>
<desc>Speed 54.5 km/h Distance 107 km</desc>
<time>2012-09-18T17:11:11.47</time>
<name>5221</name>
<sym>Dot</sym>
</trkpt>
<trkpt lat="47.857205" lon="15.576228">
<ele>619.0</ele>
<desc>Speed 54.4 km/h Distance 107 km</desc>
<time>2012-09-18T17:11:12.47</time>
<name>5222</name>
<sym>Dot</sym>
</trkpt>
<trkpt lat="47.857342" lon="15.576227">
<ele>618.5</ele>
<desc>Speed 53.9 km/h Distance 107 km</desc>
<time>2012-09-18T17:11:13.47</time>
<name>5223</name>
<sym>Dot</sym>
</trkpt>
<trkpt lat="47.857472" lon="15.576227">
<ele>618.5</ele>
<desc>Speed 52.3 km/h Distance 107 km</desc>
<time>2012-09-18T17:11:14.46</time>
<name>5224</name>
<sym>Dot</sym>
</trkpt>
<trkpt lat="47.857600" lon="15.576227">
<ele>618.5</ele>
<desc>Speed 50.6 km/h Distance 107 km</desc>
<time>2012-09-18T17:11:15.46</time>
<name>5225</name>
<sym>Dot</sym>
</trkpt>
<trkpt lat="47.857722" lon="15.576225">
<ele>619.0</ele>
<desc>Speed 48.5 km/h Distance 107 km</desc>
<time>2012-09-18T17:11:16.45</time>
<name>5226</name>
<sym>Dot</sym>
</trkpt>
<trkpt lat="47.857838" lon="15.576227">
<ele>618.5</ele>
<desc>Speed 46.9 km/h Distance 107 km</desc>
<time>2012-09-18T17:11:17.45</time>
<name>5227</name>
<sym>Dot</sym>
</trkpt>
<trkpt lat="47.857952" lon="15.576237">
<ele>618.5</ele>
<desc>Speed 45.0 km/h Distance 107 km</desc>
<time>2012-09-18T17:11:18.45</time>
<name>5228</name>
<sym>Dot</sym>
</trkpt>
<trkpt lat="47.858058" lon="15.576257">
<ele>618.5</ele>
<desc>Speed 42.6 km/h Distance 107 km</desc>
<time>2012-09-18T17:11:19.44</time>
<name>5229</name>
<sym>Dot</sym>
</trkpt>
<trkpt lat="47.858158" lon="15.576288">
<ele>618.5</ele>
<desc>Speed 41.1 km/h Distance 107 km</desc>
<time>2012-09-18T17:11:20.43</time>
<name>5230</name>
<sym>Dot</sym>
</trkpt>
<trkpt lat="47.858260" lon="15.576342">
<ele>618.5</ele>
<desc>Speed 42.5 km/h Distance 107 km</desc>
<time>2012-09-18T17:11:21.43</time>
<name>5231</name>
<sym>Dot</sym>
</trkpt>
<trkpt lat="47.858362" lon="15.576427">
<ele>618.5</ele>
<desc>Speed 46.7 km/h Distance 107 km</desc>
<time>2012-09-18T17:11:22.42</time>
<name>5232</name>
<sym>Dot</sym>
</trkpt>
<trkpt lat="47.858470" lon="15.576542">
<ele>618.0</ele>
<desc>Speed 53.3 km/h Distance 107 km</desc>
<time>2012-09-18T17:11:23.42</time>
<name>5233</name>
<sym>Dot</sym>
</trkpt>
<trkpt lat="47.858572" lon="15.576672">
<ele>617.5</ele>
<desc>Speed 53.6 km/h Distance 107 km</desc>
<time>2012-09-18T17:11:24.41</time>
<name>5234</name>
<sym>Dot</sym>
</trkpt>
<trkpt lat="47.858665" lon="15.576800">
<ele>617.5</ele>
<desc>Speed 50.9 km/h Distance 107 km</desc>
<time>2012-09-18T17:11:25.41</time>
<name>5235</name>
<sym>Dot</sym>
</trkpt>
<trkpt lat="47.858752" lon="15.576928">
<ele>617.0</ele>
<desc>Speed 48.7 km/h Distance 107 km</desc>
<time>2012-09-18T17:11:26.40</time>
<name>5236</name>
<sym>Dot</sym>
</trkpt>
<trkpt lat="47.858833" lon="15.577070">
<ele>617.0</ele>
<desc>Speed 50.1 km/h Distance 107 km</desc>
<time>2012-09-18T17:11:27.39</time>
<name>5237</name>
<sym>Dot</sym>
</trkpt>
<trkpt lat="47.858912" lon="15.577230">
<ele>616.5</ele>
<desc>Speed 53.4 km/h Distance 107 km</desc>
<time>2012-09-18T17:11:28.39</time>
<name>5238</name>
<sym>Dot</sym>
</trkpt>
<trkpt lat="47.858978" lon="15.577423">
<ele>618.0</ele>
<desc>Speed 58.6 km/h Distance 107 km</desc>
<time>2012-09-18T17:11:29.38</time>
<name>5239</name>
<sym>Dot</sym>
</trkpt>
<trkpt lat="47.859055" lon="15.577632">
<ele>617.5</ele>
<desc>Speed 63.1 km/h Distance 107 km</desc>
<time>2012-09-18T17:11:30.38</time>
<name>5240</name>
<sym>Dot</sym>
</trkpt>
<trkpt lat="47.859125" lon="15.577840">
<ele>617.5</ele>
<desc>Speed 62.2 km/h Distance 107 km</desc>
<time>2012-09-18T17:11:31.37</time>
<name>5241</name>
<sym>Dot</sym>
</trkpt>
<trkpt lat="47.859190" lon="15.578045">
<ele>617.0</ele>
<desc>Speed 60.2 km/h Distance 107 km</desc>
<time>2012-09-18T17:11:32.37</time>
<name>5242</name>
<sym>Dot</sym>
</trkpt>
<trkpt lat="47.859252" lon="15.578248">
<ele>616.5</ele>
<desc>Speed 59.8 km/h Distance 107 km</desc>
<time>2012-09-18T17:11:33.37</time>
<name>5243</name>
<sym>Dot</sym>
</trkpt>
<trkpt lat="47.859315" lon="15.578453">
<ele>616.5</ele>
<desc>Speed 60.2 km/h Distance 107 km</desc>
<time>2012-09-18T17:11:34.37</time>
<name>5244</name>
<sym>Dot</sym>
</trkpt>
<trkpt lat="47.859377" lon="15.578657">
<ele>615.5</ele>
<desc>Speed 59.4 km/h Distance 107 km</desc>
<time>2012-09-18T17:11:35.36</time>
<name>5245</name>
<sym>Dot</sym>
</trkpt>
<trkpt lat="47.859433" lon="15.578863">
<ele>614.5</ele>
<desc>Speed 59.8 km/h Distance 107 km</desc>
<time>2012-09-18T17:11:36.36</time>
<name>5246</name>
<sym>Dot</sym>
</trkpt>
<trkpt lat="47.859522" lon="15.579332">
<ele>614.0</ele>
<desc>Speed 64.6 km/h Distance 107 km</desc>
<time>2012-09-18T17:11:38.35</time>
<name>5247</name>
<sym>Dot</sym>
</trkpt>
<trkpt lat="47.859565" lon="15.579552">
<ele>613.5</ele>
<desc>Speed 61.7 km/h Distance 107 km</desc>
<time>2012-09-18T17:11:39.34</time>
<name>5248</name>
<sym>Dot</sym>
</trkpt>
<trkpt lat="47.859615" lon="15.579758">
<ele>613.0</ele>
<desc>Speed 58.9 km/h Distance 107 km</desc>
<time>2012-09-18T17:11:40.34</time>
<name>5249</name>
<sym>Dot</sym>
</trkpt>
<trkpt lat="47.859673" lon="15.579955">
<ele>612.5</ele>
<desc>Speed 57.7 km/h Distance 107 km</desc>
<time>2012-09-18T17:11:41.33</time>
<name>5250</name>
<sym>Dot</sym>
</trkpt>
<trkpt lat="47.859742" lon="15.580145">
<ele>612.0</ele>
<desc>Speed 57.7 km/h Distance 107 km</desc>
<time>2012-09-18T17:11:42.33</time>
<name>5251</name>
<sym>Dot</sym>
</trkpt>
<trkpt lat="47.859817" lon="15.580330">
<ele>612.0</ele>
<desc>Speed 58.2 km/h Distance 107 km</desc>
<time>2012-09-18T17:11:43.32</time>
<name>5252</name>
<sym>Dot</sym>
</trkpt>
<trkpt lat="47.859897" lon="15.580512">
<ele>611.5</ele>
<desc>Speed 58.0 km/h Distance 107 km</desc>
<time>2012-09-18T17:11:44.33</time>
<name>5253</name>
<sym>Dot</sym>
</trkpt>
<trkpt lat="47.859975" lon="15.580692">
<ele>611.5</ele>
<desc>Speed 57.5 km/h Distance 107 km</desc>
<time>2012-09-18T17:11:45.31</time>
<name>5254</name>
<sym>Dot</sym>
</trkpt>
<trkpt lat="47.860055" lon="15.580872">
<ele>611.5</ele>
<desc>Speed 57.6 km/h Distance 107 km</desc>
<time>2012-09-18T17:11:46.32</time>
<name>5255</name>
<sym>Dot</sym>
</trkpt>
<trkpt lat="47.860137" lon="15.581052">
<ele>611.0</ele>
<desc>Speed 57.7 km/h Distance 107 km</desc>
<time>2012-09-18T17:11:47.31</time>
<name>5256</name>
<sym>Dot</sym>
</trkpt>
<trkpt lat="47.860217" lon="15.581233">
<ele>611.0</ele>
<desc>Speed 58.2 km/h Distance 108 km</desc>
<time>2012-09-18T17:11:48.31</time>
<name>5257</name>
<sym>Dot</sym>
</trkpt>
<trkpt lat="47.860295" lon="15.581418">
<ele>611.0</ele>
<desc>Speed 58.6 km/h Distance 108 km</desc>
<time>2012-09-18T17:11:49.30</time>
<name>5258</name>
<sym>Dot</sym>
</trkpt>
<trkpt lat="47.860373" lon="15.581605">
<ele>611.0</ele>
<desc>Speed 58.8 km/h Distance 108 km</desc>
<time>2012-09-18T17:11:50.30</time>
<name>5259</name>
<sym>Dot</sym>
</trkpt>
<trkpt lat="47.860448" lon="15.581788">
<ele>610.5</ele>
<desc>Speed 57.9 km/h Distance 108 km</desc>
<time>2012-09-18T17:11:51.29</time>
<name>5260</name>
<sym>Dot</sym>
</trkpt>
<trkpt lat="47.860527" lon="15.581973">
<ele>610.0</ele>
<desc>Speed 58.7 km/h Distance 108 km</desc>
<time>2012-09-18T17:11:52.29</time>
<name>5261</name>
<sym>Dot</sym>
</trkpt>
<trkpt lat="47.860610" lon="15.582165">
<ele>610.0</ele>
<desc>Speed 60.9 km/h Distance 108 km</desc>
<time>2012-09-18T17:11:53.27</time>
<name>5262</name>
<sym>Dot</sym>
</trkpt>
<trkpt lat="47.860692" lon="15.582362">
<ele>610.0</ele>
<desc>Speed 62.5 km/h Distance 108 km</desc>
<time>2012-09-18T17:11:54.28</time>
<name>5263</name>
<sym>Dot</sym>
</trkpt>
<trkpt lat="47.860775" lon="15.582563">
<ele>609.5</ele>
<desc>Speed 63.1 km/h Distance 108 km</desc>
<time>2012-09-18T17:11:55.26</time>
<name>5264</name>
<sym>Dot</sym>
</trkpt>
<trkpt lat="47.860858" lon="15.582758">
<ele>609.0</ele>
<desc>Speed 62.1 km/h Distance 108 km</desc>
<time>2012-09-18T17:11:56.26</time>
<name>5265</name>
<sym>Dot</sym>
</trkpt>
<trkpt lat="47.860943" lon="15.582950">
<ele>608.5</ele>
<desc>Speed 61.7 km/h Distance 108 km</desc>
<time>2012-09-18T17:11:57.25</time>
<name>5266</name>
<sym>Dot</sym>
</trkpt>
<trkpt lat="47.861028" lon="15.583142">
<ele>609.0</ele>
<desc>Speed 61.2 km/h Distance 108 km</desc>
<time>2012-09-18T17:11:58.25</time>
<name>5267</name>
<sym>Dot</sym>
</trkpt>
<trkpt lat="47.861112" lon="15.583335">
<ele>609.0</ele>
<desc>Speed 61.4 km/h Distance 108 km</desc>
<time>2012-09-18T17:11:59.24</time>
<name>5268</name>
<sym>Dot</sym>
</trkpt>
<trkpt lat="47.861195" lon="15.583530">
<ele>609.5</ele>
<desc>Speed 61.6 km/h Distance 108 km</desc>
<time>2012-09-18T17:12:00.24</time>
<name>5269</name>
<sym>Dot</sym>
</trkpt>
<trkpt lat="47.861278" lon="15.583725">
<ele>609.5</ele>
<desc>Speed 61.9 km/h Distance 108 km</desc>
<time>2012-09-18T17:12:01.22</time>
<name>5270</name>
<sym>Dot</sym>
</trkpt>
<trkpt lat="47.861365" lon="15.583922">
<ele>610.0</ele>
<desc>Speed 62.5 km/h Distance 108 km</desc>
<time>2012-09-18T17:12:02.23</time>
<name>5271</name>
<sym>Dot</sym>
</trkpt>
<trkpt lat="47.861457" lon="15.584133">
<ele>610.0</ele>
<desc>Speed 67.1 km/h Distance 108 km</desc>
<time>2012-09-18T17:12:03.22</time>
<name>5272</name>
<sym>Dot</sym>
</trkpt>
<trkpt lat="47.861550" lon="15.584355">
<ele>610.5</ele>
<desc>Speed 70.3 km/h Distance 108 km</desc>
<time>2012-09-18T17:12:04.22</time>
<name>5273</name>
<sym>Dot</sym>
</trkpt>
<trkpt lat="47.861642" lon="15.584572">
<ele>610.5</ele>
<desc>Speed 68.7 km/h Distance 108 km</desc>
<time>2012-09-18T17:12:05.21</time>
<name>5274</name>
<sym>Dot</sym>
</trkpt>
<trkpt lat="47.861725" lon="15.584783">
<ele>610.5</ele>
<desc>Speed 65.8 km/h Distance 108 km</desc>
<time>2012-09-18T17:12:06.21</time>
<name>5275</name>
<sym>Dot</sym>
</trkpt>
<trkpt lat="47.861807" lon="15.584993">
<ele>610.5</ele>
<desc>Speed 65.5 km/h Distance 108 km</desc>
<time>2012-09-18T17:12:07.21</time>
<name>5276</name>
<sym>Dot</sym>
</trkpt>
<trkpt lat="47.861887" lon="15.585205">
<ele>610.0</ele>
<desc>Speed 65.8 km/h Distance 108 km</desc>
<time>2012-09-18T17:12:08.20</time>
<name>5277</name>
<sym>Dot</sym>
</trkpt>
<trkpt lat="47.861967" lon="15.585420">
<ele>610.0</ele>
<desc>Speed 65.6 km/h Distance 108 km</desc>
<time>2012-09-18T17:12:09.19</time>
<name>5278</name>
<sym>Dot</sym>
</trkpt>
<trkpt lat="47.862040" lon="15.585630">
<ele>610.0</ele>
<desc>Speed 63.7 km/h Distance 108 km</desc>
<time>2012-09-18T17:12:10.20</time>
<name>5279</name>
<sym>Dot</sym>
</trkpt>
<trkpt lat="47.862108" lon="15.585833">
<ele>609.5</ele>
<desc>Speed 61.2 km/h Distance 108 km</desc>
<time>2012-09-18T17:12:11.19</time>
<name>5280</name>
<sym>Dot</sym>
</trkpt>
<trkpt lat="47.862172" lon="15.586035">
<ele>609.5</ele>
<desc>Speed 59.9 km/h Distance 108 km</desc>
<time>2012-09-18T17:12:12.19</time>
<name>5281</name>
<sym>Dot</sym>
</trkpt>
<trkpt lat="47.862230" lon="15.586238">
<ele>609.5</ele>
<desc>Speed 59.7 km/h Distance 108 km</desc>
<time>2012-09-18T17:12:13.18</time>
<name>5282</name>
<sym>Dot</sym>
</trkpt>
<trkpt lat="47.862287" lon="15.586442">
<ele>609.0</ele>
<desc>Speed 59.2 km/h Distance 108 km</desc>
<time>2012-09-18T17:12:14.18</time>
<name>5283</name>
<sym>Dot</sym>
</trkpt>
<trkpt lat="47.862337" lon="15.586650">
<ele>608.5</ele>
<desc>Speed 59.6 km/h Distance 108 km</desc>
<time>2012-09-18T17:12:15.17</time>
<name>5284</name>
<sym>Dot</sym>
</trkpt>
<trkpt lat="47.862377" lon="15.586862">
<ele>608.5</ele>
<desc>Speed 59.2 km/h Distance 108 km</desc>
<time>2012-09-18T17:12:16.17</time>
<name>5285</name>
<sym>Dot</sym>
</trkpt>
<trkpt lat="47.862408" lon="15.587073">
<ele>608.5</ele>
<desc>Speed 58.4 km/h Distance 108 km</desc>
<time>2012-09-18T17:12:17.15</time>
<name>5286</name>
<sym>Dot</sym>
</trkpt>
<trkpt lat="47.862433" lon="15.587295">
<ele>608.0</ele>
<desc>Speed 60.7 km/h Distance 108 km</desc>
<time>2012-09-18T17:12:18.16</time>
<name>5287</name>
<sym>Dot</sym>
</trkpt>
<trkpt lat="47.862450" lon="15.587528">
<ele>608.0</ele>
<desc>Speed 63.5 km/h Distance 108 km</desc>
<time>2012-09-18T17:12:19.15</time>
<name>5288</name>
<sym>Dot</sym>
</trkpt>
<trkpt lat="47.862457" lon="15.587778">
<ele>608.0</ele>
<desc>Speed 67.3 km/h Distance 108 km</desc>
<time>2012-09-18T17:12:20.15</time>
<name>5289</name>
<sym>Dot</sym>
</trkpt>
<trkpt lat="47.862452" lon="15.588033">
<ele>607.5</ele>
<desc>Speed 69.2 km/h Distance 108 km</desc>
<time>2012-09-18T17:12:21.15</time>
<name>5290</name>
<sym>Dot</sym>
</trkpt>
<trkpt lat="47.862440" lon="15.588283">
<ele>606.5</ele>
<desc>Speed 67.7 km/h Distance 108 km</desc>
<time>2012-09-18T17:12:22.14</time>
<name>5291</name>
<sym>Dot</sym>
</trkpt>
<trkpt lat="47.862422" lon="15.588522">
<ele>606.0</ele>
<desc>Speed 65.1 km/h Distance 108 km</desc>
<time>2012-09-18T17:12:23.13</time>
<name>5292</name>
<sym>Dot</sym>
</trkpt>
<trkpt lat="47.862397" lon="15.588747">
<ele>605.5</ele>
<desc>Speed 62.0 km/h Distance 108 km</desc>
<time>2012-09-18T17:12:24.13</time>
<name>5293</name>
<sym>Dot</sym>
</trkpt>
<trkpt lat="47.862375" lon="15.588968">
<ele>605.0</ele>
<desc>Speed 60.4 km/h Distance 108 km</desc>
<time>2012-09-18T17:12:25.12</time>
<name>5294</name>
<sym>Dot</sym>
</trkpt>
<trkpt lat="47.862357" lon="15.589185">
<ele>604.5</ele>
<desc>Speed 59.2 km/h Distance 108 km</desc>
<time>2012-09-18T17:12:26.13</time>
<name>5295</name>
<sym>Dot</sym>
</trkpt>
<trkpt lat="47.862350" lon="15.589398">
<ele>604.0</ele>
<desc>Speed 57.9 km/h Distance 108 km</desc>
<time>2012-09-18T17:12:27.12</time>
<name>5296</name>
<sym>Dot</sym>
</trkpt>
<trkpt lat="47.862357" lon="15.589612">
<ele>603.5</ele>
<desc>Speed 57.5 km/h Distance 108 km</desc>
<time>2012-09-18T17:12:28.12</time>
<name>5297</name>
<sym>Dot</sym>
</trkpt>
<trkpt lat="47.862390" lon="15.589828">
<ele>605.0</ele>
<desc>Speed 60.2 km/h Distance 108 km</desc>
<time>2012-09-18T17:12:29.11</time>
<name>5298</name>
<sym>Dot</sym>
</trkpt>
<trkpt lat="47.862447" lon="15.590055">
<ele>605.5</ele>
<desc>Speed 65.2 km/h Distance 108 km</desc>
<time>2012-09-18T17:12:30.11</time>
<name>5299</name>
<sym>Dot</sym>
</trkpt>
<trkpt lat="47.862527" lon="15.590288">
<ele>606.0</ele>
<desc>Speed 70.4 km/h Distance 108 km</desc>
<time>2012-09-18T17:12:31.10</time>
<name>5300</name>
<sym>Dot</sym>
</trkpt>
<trkpt lat="47.862622" lon="15.590522">
<ele>605.5</ele>
<desc>Speed 73.6 km/h Distance 108 km</desc>
<time>2012-09-18T17:12:32.10</time>
<name>5301</name>
<sym>Dot</sym>
</trkpt>
<trkpt lat="47.862727" lon="15.590738">
<ele>604.5</ele>
<desc>Speed 72.1 km/h Distance 108 km</desc>
<time>2012-09-18T17:12:33.09</time>
<name>5302</name>
<sym>Dot</sym>
</trkpt>
<trkpt lat="47.862837" lon="15.590935">
<ele>604.0</ele>
<desc>Speed 68.9 km/h Distance 108 km</desc>
<time>2012-09-18T17:12:34.10</time>
<name>5303</name>
<sym>Dot</sym>
</trkpt>
<trkpt lat="47.862952" lon="15.591117">
<ele>603.5</ele>
<desc>Speed 67.6 km/h Distance 108 km</desc>
<time>2012-09-18T17:12:35.09</time>
<name>5304</name>
<sym>Dot</sym>
</trkpt>
<trkpt lat="47.863077" lon="15.591293">
<ele>603.5</ele>
<desc>Speed 69.2 km/h Distance 108 km</desc>
<time>2012-09-18T17:12:36.09</time>
<name>5305</name>
<sym>Dot</sym>
</trkpt>
<trkpt lat="47.863208" lon="15.591458">
<ele>603.5</ele>
<desc>Speed 69.8 km/h Distance 108 km</desc>
<time>2012-09-18T17:12:37.08</time>
<name>5306</name>
<sym>Dot</sym>
</trkpt>
<trkpt lat="47.863347" lon="15.591607">
<ele>603.0</ele>
<desc>Speed 68.9 km/h Distance 108 km</desc>
<time>2012-09-18T17:12:38.08</time>
<name>5307</name>
<sym>Dot</sym>
</trkpt>
<trkpt lat="47.863485" lon="15.591722">
<ele>603.0</ele>
<desc>Speed 63.7 km/h Distance 108 km</desc>
<time>2012-09-18T17:12:39.06</time>
<name>5308</name>
<sym>Dot</sym>
</trkpt>
<trkpt lat="47.863632" lon="15.591823">
<ele>602.5</ele>
<desc>Speed 64.6 km/h Distance 108 km</desc>
<time>2012-09-18T17:12:40.05</time>
<name>5309</name>
<sym>Dot</sym>
</trkpt>
<trkpt lat="47.863783" lon="15.591908">
<ele>602.0</ele>
<desc>Speed 64.7 km/h Distance 108 km</desc>
<time>2012-09-18T17:12:41.05</time>
<name>5310</name>
<sym>Dot</sym>
</trkpt>
<trkpt lat="47.863937" lon="15.591978">
<ele>601.5</ele>
<desc>Speed 64.5 km/h Distance 108 km</desc>
<time>2012-09-18T17:12:42.04</time>
<name>5311</name>
<sym>Dot</sym>
</trkpt>
<trkpt lat="47.864092" lon="15.592033">
<ele>600.5</ele>
<desc>Speed 63.5 km/h Distance 108 km</desc>
<time>2012-09-18T17:12:43.04</time>
<name>5312</name>
<sym>Dot</sym>
</trkpt>
<trkpt lat="47.864242" lon="15.592068">
<ele>599.5</ele>
<desc>Speed 61.0 km/h Distance 108 km</desc>
<time>2012-09-18T17:12:44.03</time>
<name>5313</name>
<sym>Dot</sym>
</trkpt>
<trkpt lat="47.864387" lon="15.592088">
<ele>599.0</ele>
<desc>Speed 58.3 km/h Distance 109 km</desc>
<time>2012-09-18T17:12:45.03</time>
<name>5314</name>
<sym>Dot</sym>
</trkpt>
<trkpt lat="47.864527" lon="15.592097">
<ele>599.0</ele>
<desc>Speed 56.0 km/h Distance 109 km</desc>
<time>2012-09-18T17:12:46.03</time>
<name>5315</name>
<sym>Dot</sym>
</trkpt>
<trkpt lat="47.864660" lon="15.592103">
<ele>598.5</ele>
<desc>Speed 53.6 km/h Distance 109 km</desc>
<time>2012-09-18T17:12:47.01</time>
<name>5316</name>
<sym>Dot</sym>
</trkpt>
<trkpt lat="47.864787" lon="15.592110">
<ele>599.0</ele>
<desc>Speed 51.6 km/h Distance 109 km</desc>
<time>2012-09-18T17:12:48.01</time>
<name>5317</name>
<sym>Dot</sym>
</trkpt>
<trkpt lat="47.864910" lon="15.592128">
<ele>600.0</ele>
<desc>Speed 49.6 km/h Distance 109 km</desc>
<time>2012-09-18T17:12:49.02</time>
<name>5318</name>
<sym>Dot</sym>
</trkpt>
<trkpt lat="47.865032" lon="15.592160">
<ele>599.5</ele>
<desc>Speed 49.7 km/h Distance 109 km</desc>
<time>2012-09-18T17:12:50.02</time>
<name>5319</name>
<sym>Dot</sym>
</trkpt>
<trkpt lat="47.865158" lon="15.592197">
<ele>599.0</ele>
<desc>Speed 51.5 km/h Distance 109 km</desc>
<time>2012-09-18T17:12:51.02</time>
<name>5320</name>
<sym>Dot</sym>
</trkpt>
<trkpt lat="47.865287" lon="15.592238">
<ele>599.0</ele>
<desc>Speed 53.0 km/h Distance 109 km</desc>
<time>2012-09-18T17:12:52.01</time>
<name>5321</name>
<sym>Dot</sym>
</trkpt>
<trkpt lat="47.865418" lon="15.592285">
<ele>599.5</ele>
<desc>Speed 54.2 km/h Distance 109 km</desc>
<time>2012-09-18T17:12:53.01</time>
<name>5322</name>
<sym>Dot</sym>
</trkpt>
<trkpt lat="47.865552" lon="15.592333">
<ele>599.5</ele>
<desc>Speed 55.8 km/h Distance 109 km</desc>
<time>2012-09-18T17:12:54.01</time>
<name>5323</name>
<sym>Dot</sym>
</trkpt>
<trkpt lat="47.865692" lon="15.592385">
<ele>599.0</ele>
<desc>Speed 57.5 km/h Distance 109 km</desc>
<time>2012-09-18T17:12:55.01</time>
<name>5324</name>
<sym>Dot</sym>
</trkpt>
<trkpt lat="47.865835" lon="15.592438">
<ele>598.5</ele>
<desc>Speed 59.2 km/h Distance 109 km</desc>
<time>2012-09-18T17:12:55.99</time>
<name>5325</name>
<sym>Dot</sym>
</trkpt>
<trkpt lat="47.865978" lon="15.592493">
<ele>598.0</ele>
<desc>Speed 59.4 km/h Distance 109 km</desc>
<time>2012-09-18T17:12:56.97</time>
<name>5326</name>
<sym>Dot</sym>
</trkpt>
<trkpt lat="47.866122" lon="15.592547">
<ele>597.5</ele>
<desc>Speed 59.0 km/h Distance 109 km</desc>
<time>2012-09-18T17:12:57.97</time>
<name>5327</name>
<sym>Dot</sym>
</trkpt>
<trkpt lat="47.866263" lon="15.592602">
<ele>597.5</ele>
<desc>Speed 58.9 km/h Distance 109 km</desc>
<time>2012-09-18T17:12:58.97</time>
<name>5328</name>
<sym>Dot</sym>
</trkpt>
<trkpt lat="47.866407" lon="15.592655">
<ele>597.0</ele>
<desc>Speed 58.8 km/h Distance 109 km</desc>
<time>2012-09-18T17:12:59.95</time>
<name>5329</name>
<sym>Dot</sym>
</trkpt>
<trkpt lat="47.866548" lon="15.592707">
<ele>597.0</ele>
<desc>Speed 58.6 km/h Distance 109 km</desc>
<time>2012-09-18T17:13:00.95</time>
<name>5330</name>
<sym>Dot</sym>
</trkpt>
<trkpt lat="47.866693" lon="15.592757">
<ele>597.0</ele>
<desc>Speed 59.2 km/h Distance 109 km</desc>
<time>2012-09-18T17:13:01.96</time>
<name>5331</name>
<sym>Dot</sym>
</trkpt>
<trkpt lat="47.866838" lon="15.592807">
<ele>597.0</ele>
<desc>Speed 59.8 km/h Distance 109 km</desc>
<time>2012-09-18T17:13:02.95</time>
<name>5332</name>
<sym>Dot</sym>
</trkpt>
<trkpt lat="47.866983" lon="15.592860">
<ele>597.0</ele>
<desc>Speed 60.1 km/h Distance 109 km</desc>
<time>2012-09-18T17:13:03.95</time>
<name>5333</name>
<sym>Dot</sym>
</trkpt>
<trkpt lat="47.867128" lon="15.592913">
<ele>597.0</ele>
<desc>Speed 60.4 km/h Distance 109 km</desc>
<time>2012-09-18T17:13:04.95</time>
<name>5334</name>
<sym>Dot</sym>
</trkpt>
<trkpt lat="47.867275" lon="15.592970">
<ele>597.0</ele>
<desc>Speed 60.5 km/h Distance 109 km</desc>
<time>2012-09-18T17:13:05.94</time>
<name>5335</name>
<sym>Dot</sym>
</trkpt>
<trkpt lat="47.867418" lon="15.593025">
<ele>597.0</ele>
<desc>Speed 59.9 km/h Distance 109 km</desc>
<time>2012-09-18T17:13:06.95</time>
<name>5336</name>
<sym>Dot</sym>
</trkpt>
<trkpt lat="47.867562" lon="15.593080">
<ele>597.0</ele>
<desc>Speed 59.5 km/h Distance 109 km</desc>
<time>2012-09-18T17:13:07.93</time>
<name>5337</name>
<sym>Dot</sym>
</trkpt>
<trkpt lat="47.867705" lon="15.593133">
<ele>597.0</ele>
<desc>Speed 59.1 km/h Distance 109 km</desc>
<time>2012-09-18T17:13:08.93</time>
<name>5338</name>
<sym>Dot</sym>
</trkpt>
<trkpt lat="47.867847" lon="15.593188">
<ele>597.0</ele>
<desc>Speed 58.7 km/h Distance 109 km</desc>
<time>2012-09-18T17:13:09.93</time>
<name>5339</name>
<sym>Dot</sym>
</trkpt>
<trkpt lat="47.867987" lon="15.593245">
<ele>596.5</ele>
<desc>Speed 58.5 km/h Distance 109 km</desc>
<time>2012-09-18T17:13:10.92</time>
<name>5340</name>
<sym>Dot</sym>
</trkpt>
<trkpt lat="47.868125" lon="15.593308">
<ele>596.5</ele>
<desc>Speed 58.0 km/h Distance 109 km</desc>
<time>2012-09-18T17:13:11.91</time>
<name>5341</name>
<sym>Dot</sym>
</trkpt>
<trkpt lat="47.868258" lon="15.593385">
<ele>596.5</ele>
<desc>Speed 57.3 km/h Distance 109 km</desc>
<time>2012-09-18T17:13:12.91</time>
<name>5342</name>
<sym>Dot</sym>
</trkpt>
<trkpt lat="47.868383" lon="15.593478">
<ele>596.5</ele>
<desc>Speed 56.7 km/h Distance 109 km</desc>
<time>2012-09-18T17:13:13.90</time>
<name>5343</name>
<sym>Dot</sym>
</trkpt>
<trkpt lat="47.868503" lon="15.593587">
<ele>596.0</ele>
<desc>Speed 56.5 km/h Distance 109 km</desc>
<time>2012-09-18T17:13:14.88</time>
<name>5344</name>
<sym>Dot</sym>
</trkpt>
<trkpt lat="47.868622" lon="15.593708">
<ele>596.0</ele>
<desc>Speed 57.5 km/h Distance 109 km</desc>
<time>2012-09-18T17:13:15.87</time>
<name>5345</name>
<sym>Dot</sym>
</trkpt>
<trkpt lat="47.868737" lon="15.593843">
<ele>596.0</ele>
<desc>Speed 58.9 km/h Distance 109 km</desc>
<time>2012-09-18T17:13:16.87</time>
<name>5346</name>
<sym>Dot</sym>
</trkpt>
<trkpt lat="47.868848" lon="15.593997">
<ele>596.0</ele>
<desc>Speed 60.7 km/h Distance 109 km</desc>
<time>2012-09-18T17:13:17.86</time>
<name>5347</name>
<sym>Dot</sym>
</trkpt>
<trkpt lat="47.868952" lon="15.594157">
<ele>595.5</ele>
<desc>Speed 60.4 km/h Distance 109 km</desc>
<time>2012-09-18T17:13:18.86</time>
<name>5348</name>
<sym>Dot</sym>
</trkpt>
<trkpt lat="47.869052" lon="15.594320">
<ele>596.0</ele>
<desc>Speed 59.2 km/h Distance 109 km</desc>
<time>2012-09-18T17:13:19.85</time>
<name>5349</name>
<sym>Dot</sym>
</trkpt>
<trkpt lat="47.869155" lon="15.594477">
<ele>596.0</ele>
<desc>Speed 58.8 km/h Distance 109 km</desc>
<time>2012-09-18T17:13:20.85</time>
<name>5350</name>
<sym>Dot</sym>
</trkpt>
<trkpt lat="47.869257" lon="15.594635">
<ele>595.5</ele>
<desc>Speed 58.9 km/h Distance 109 km</desc>
<time>2012-09-18T17:13:21.85</time>
<name>5351</name>
<sym>Dot</sym>
</trkpt>
<trkpt lat="47.869362" lon="15.594788">
<ele>595.5</ele>
<desc>Speed 59.1 km/h Distance 109 km</desc>
<time>2012-09-18T17:13:22.84</time>
<name>5352</name>
<sym>Dot</sym>
</trkpt>
<trkpt lat="47.869473" lon="15.594940">
<ele>595.5</ele>
<desc>Speed 60.3 km/h Distance 109 km</desc>
<time>2012-09-18T17:13:23.84</time>
<name>5353</name>
<sym>Dot</sym>
</trkpt>
<trkpt lat="47.869590" lon="15.595090">
<ele>595.5</ele>
<desc>Speed 61.6 km/h Distance 109 km</desc>
<time>2012-09-18T17:13:24.84</time>
<name>5354</name>
<sym>Dot</sym>
</trkpt>
<trkpt lat="47.869712" lon="15.595232">
<ele>595.0</ele>
<desc>Speed 61.6 km/h Distance 109 km</desc>
<time>2012-09-18T17:13:25.85</time>
<name>5355</name>
<sym>Dot</sym>
</trkpt>
<trkpt lat="47.869830" lon="15.595365">
<ele>595.0</ele>
<desc>Speed 59.5 km/h Distance 109 km</desc>
<time>2012-09-18T17:13:26.85</time>
<name>5356</name>
<sym>Dot</sym>
</trkpt>
<trkpt lat="47.869948" lon="15.595487">
<ele>595.0</ele>
<desc>Speed 57.5 km/h Distance 109 km</desc>
<time>2012-09-18T17:13:27.84</time>
<name>5357</name>
<sym>Dot</sym>
</trkpt>
<trkpt lat="47.870062" lon="15.595603">
<ele>595.0</ele>
<desc>Speed 55.1 km/h Distance 109 km</desc>
<time>2012-09-18T17:13:28.84</time>
<name>5358</name>
<sym>Dot</sym>
</trkpt>
<trkpt lat="47.870170" lon="15.595713">
<ele>595.0</ele>
<desc>Speed 52.6 km/h Distance 109 km</desc>
<time>2012-09-18T17:13:29.83</time>
<name>5359</name>
<sym>Dot</sym>
</trkpt>
<trkpt lat="47.870268" lon="15.595817">
<ele>595.0</ele>
<desc>Speed 48.4 km/h Distance 109 km</desc>
<time>2012-09-18T17:13:30.83</time>
<name>5360</name>
<sym>Dot</sym>
</trkpt>
<trkpt lat="47.870352" lon="15.595915">
<ele>594.5</ele>
<desc>Speed 42.9 km/h Distance 109 km</desc>
<time>2012-09-18T17:13:31.82</time>
<name>5361</name>
<sym>Dot</sym>
</trkpt>
<trkpt lat="47.870423" lon="15.596005">
<ele>594.0</ele>
<desc>Speed 37.6 km/h Distance 109 km</desc>
<time>2012-09-18T17:13:32.81</time>
<name>5362</name>
<sym>Dot</sym>
</trkpt>
<trkpt lat="47.870525" lon="15.596200">
<ele>594.0</ele>
<desc>Speed 18.3 km/h Distance 109 km</desc>
<time>2012-09-18T17:13:36.80</time>
<name>5363</name>
<sym>Dot</sym>
</trkpt>
<trkpt lat="47.870547" lon="15.596237">
<ele>594.0</ele>
<desc>Speed 13.2 km/h Distance 109 km</desc>
<time>2012-09-18T17:13:37.80</time>
<name>5364</name>
<sym>Dot</sym>
</trkpt>
<trkpt lat="47.870565" lon="15.596265">
<ele>594.0</ele>
<desc>Speed 10.6 km/h Distance 109 km</desc>
<time>2012-09-18T17:13:38.80</time>
<name>5365</name>
<sym>Dot</sym>
</trkpt>
<trkpt lat="47.870578" lon="15.596287">
<ele>594.0</ele>
<desc>Speed 7.8 km/h Distance 109 km</desc>
<time>2012-09-18T17:13:39.79</time>
<name>5366</name>
<sym>Dot</sym>
</trkpt>
<trkpt lat="47.870575" lon="15.596292">
<ele>595.5</ele>
<desc>Speed 1.4 km/h Distance 109 km</desc>
<time>2012-09-18T17:13:40.79</time>
<name>5367</name>
<sym>Dot</sym>
</trkpt>
<trkpt lat="47.870575" lon="15.596292">
<ele>595.5</ele>
<desc>Speed 0.4 km/h Distance 109 km</desc>
<time>2012-09-18T17:13:41.79</time>
<name>5368</name>
<sym>Dot</sym>
</trkpt>
<trkpt lat="47.870575" lon="15.596292">
<ele>595.5</ele>
<desc>Speed 0.3 km/h Distance 109 km</desc>
<time>2012-09-18T17:13:42.80</time>
<name>5369</name>
<sym>Dot</sym>
</trkpt>
<trkpt lat="47.870575" lon="15.596292">
<ele>595.5</ele>
<desc>Speed 0.1 km/h Distance 109 km</desc>
<time>2012-09-18T17:13:43.79</time>
<name>5370</name>
<sym>Dot</sym>
</trkpt>
<trkpt lat="47.870575" lon="15.596292">
<ele>595.5</ele>
<desc>Speed 0.1 km/h Distance 109 km</desc>
<time>2012-09-18T17:13:44.77</time>
<name>5371</name>
<sym>Dot</sym>
</trkpt>
<trkpt lat="47.870575" lon="15.596292">
<ele>595.5</ele>
<desc>Speed 0.3 km/h Distance 109 km</desc>
<time>2012-09-18T17:13:45.78</time>
<name>5372</name>
<sym>Dot</sym>
</trkpt>
<trkpt lat="47.870577" lon="15.596292">
<ele>595.5</ele>
<desc>Speed 0.2 km/h Distance 109 km</desc>
<time>2012-09-18T17:13:46.79</time>
<name>5373</name>
<sym>Dot</sym>
</trkpt>
<trkpt lat="47.870577" lon="15.596292">
<ele>595.5</ele>
<desc>Speed 0.2 km/h Distance 109 km</desc>
<time>2012-09-18T17:13:47.78</time>
<name>5374</name>
<sym>Dot</sym>
</trkpt>
<trkpt lat="47.870577" lon="15.596292">
<ele>595.5</ele>
<desc>Speed 0.3 km/h Distance 109 km</desc>
<time>2012-09-18T17:13:48.78</time>
<name>5375</name>
<sym>Dot</sym>
</trkpt>
<trkpt lat="47.870577" lon="15.596293">
<ele>595.5</ele>
<desc>Speed 0.1 km/h Distance 109 km</desc>
<time>2012-09-18T17:13:49.77</time>
<name>5376</name>
<sym>Dot</sym>
</trkpt>
<trkpt lat="47.870577" lon="15.596293">
<ele>595.5</ele>
<desc>Speed 0.3 km/h Distance 109 km</desc>
<time>2012-09-18T17:13:50.77</time>
<name>5377</name>
<sym>Dot</sym>
</trkpt>
<trkpt lat="47.870577" lon="15.596292">
<ele>595.5</ele>
<desc>Speed 0.3 km/h Distance 109 km</desc>
<time>2012-09-18T17:13:51.77</time>
<name>5378</name>
<sym>Dot</sym>
</trkpt>
<trkpt lat="47.870577" lon="15.596293">
<ele>595.0</ele>
<desc>Speed 0.2 km/h Distance 109 km</desc>
<time>2012-09-18T17:13:52.76</time>
<name>5379</name>
<sym>Dot</sym>
</trkpt>
<trkpt lat="47.870577" lon="15.596292">
<ele>595.0</ele>
<desc>Speed 0.3 km/h Distance 109 km</desc>
<time>2012-09-18T17:13:53.76</time>
<name>5380</name>
<sym>Dot</sym>
</trkpt>
<trkpt lat="47.870577" lon="15.596292">
<ele>595.0</ele>
<desc>Speed 0.2 km/h Distance 109 km</desc>
<time>2012-09-18T17:13:54.76</time>
<name>5381</name>
<sym>Dot</sym>
</trkpt>
<trkpt lat="47.870577" lon="15.596292">
<ele>595.0</ele>
<desc>Speed 0.3 km/h Distance 109 km</desc>
<time>2012-09-18T17:13:55.75</time>
<name>5382</name>
<sym>Dot</sym>
</trkpt>
<trkpt lat="47.870577" lon="15.596292">
<ele>595.0</ele>
<desc>Speed 0.2 km/h Distance 109 km</desc>
<time>2012-09-18T17:13:56.75</time>
<name>5383</name>
<sym>Dot</sym>
</trkpt>
<trkpt lat="47.870578" lon="15.596292">
<ele>595.0</ele>
<desc>Speed 0.2 km/h Distance 109 km</desc>
<time>2012-09-18T17:13:57.75</time>
<name>5384</name>
<sym>Dot</sym>
</trkpt>
<trkpt lat="47.870578" lon="15.596292">
<ele>595.0</ele>
<desc>Speed 0.1 km/h Distance 109 km</desc>
<time>2012-09-18T17:13:58.74</time>
<name>5385</name>
<sym>Dot</sym>
</trkpt>
<trkpt lat="47.870578" lon="15.596292">
<ele>595.0</ele>
<desc>Speed 0.1 km/h Distance 109 km</desc>
<time>2012-09-18T17:13:59.74</time>
<name>5386</name>
<sym>Dot</sym>
</trkpt>
<trkpt lat="47.870578" lon="15.596292">
<ele>595.0</ele>
<desc>Speed 0.4 km/h Distance 109 km</desc>
<time>2012-09-18T17:14:00.74</time>
<name>5387</name>
<sym>Dot</sym>
</trkpt>
<trkpt lat="47.870578" lon="15.596292">
<ele>595.0</ele>
<desc>Speed 0.1 km/h Distance 109 km</desc>
<time>2012-09-18T17:14:01.74</time>
<name>5388</name>
<sym>Dot</sym>
</trkpt>
<trkpt lat="47.870578" lon="15.596292">
<ele>595.0</ele>
<desc>Speed 0.4 km/h Distance 109 km</desc>
<time>2012-09-18T17:14:02.74</time>
<name>5389</name>
<sym>Dot</sym>
</trkpt>
<trkpt lat="47.870577" lon="15.596292">
<ele>595.0</ele>
<desc>Speed 0.3 km/h Distance 109 km</desc>
<time>2012-09-18T17:14:03.74</time>
<name>5390</name>
<sym>Dot</sym>
</trkpt>
<trkpt lat="47.870577" lon="15.596292">
<ele>595.0</ele>
<desc>Speed 0.3 km/h Distance 109 km</desc>
<time>2012-09-18T17:14:04.74</time>
<name>5391</name>
<sym>Dot</sym>
</trkpt>
<trkpt lat="47.870577" lon="15.596292">
<ele>595.0</ele>
<desc>Speed 0.2 km/h Distance 109 km</desc>
<time>2012-09-18T17:14:05.73</time>
<name>5392</name>
<sym>Dot</sym>
</trkpt>
<trkpt lat="47.870577" lon="15.596292">
<ele>594.5</ele>
<desc>Speed 0.2 km/h Distance 109 km</desc>
<time>2012-09-18T17:14:06.73</time>
<name>5393</name>
<sym>Dot</sym>
</trkpt>
<trkpt lat="47.870577" lon="15.596292">
<ele>594.5</ele>
<desc>Speed 0.2 km/h Distance 109 km</desc>
<time>2012-09-18T17:14:07.73</time>
<name>5394</name>
<sym>Dot</sym>
</trkpt>
<trkpt lat="47.870577" lon="15.596292">
<ele>594.5</ele>
<desc>Speed 0.2 km/h Distance 109 km</desc>
<time>2012-09-18T17:14:08.72</time>
<name>5395</name>
<sym>Dot</sym>
</trkpt>
<trkpt lat="47.870577" lon="15.596292">
<ele>594.5</ele>
<desc>Speed 0.3 km/h Distance 109 km</desc>
<time>2012-09-18T17:14:09.72</time>
<name>5396</name>
<sym>Dot</sym>
</trkpt>
<trkpt lat="47.870577" lon="15.596293">
<ele>594.5</ele>
<desc>Speed 0.3 km/h Distance 109 km</desc>
<time>2012-09-18T17:14:10.72</time>
<name>5397</name>
<sym>Dot</sym>
</trkpt>
<trkpt lat="47.870575" lon="15.596293">
<ele>594.5</ele>
<desc>Speed 0.2 km/h Distance 109 km</desc>
<time>2012-09-18T17:14:11.71</time>
<name>5398</name>
<sym>Dot</sym>
</trkpt>
<trkpt lat="47.870575" lon="15.596293">
<ele>594.5</ele>
<desc>Speed 0.1 km/h Distance 109 km</desc>
<time>2012-09-18T17:14:12.70</time>
<name>5399</name>
<sym>Dot</sym>
</trkpt>
<trkpt lat="47.870575" lon="15.596293">
<ele>594.5</ele>
<desc>Speed 0.4 km/h Distance 109 km</desc>
<time>2012-09-18T17:14:13.71</time>
<name>5400</name>
<sym>Dot</sym>
</trkpt>
<trkpt lat="47.870575" lon="15.596293">
<ele>594.5</ele>
<desc>Speed 0.2 km/h Distance 109 km</desc>
<time>2012-09-18T17:14:14.71</time>
<name>5401</name>
<sym>Dot</sym>
</trkpt>
<trkpt lat="47.870575" lon="15.596293">
<ele>594.5</ele>
<desc>Speed 0.2 km/h Distance 109 km</desc>
<time>2012-09-18T17:14:15.71</time>
<name>5402</name>
<sym>Dot</sym>
</trkpt>
<trkpt lat="47.870575" lon="15.596293">
<ele>594.5</ele>
<desc>Speed 0.2 km/h Distance 109 km</desc>
<time>2012-09-18T17:14:16.71</time>
<name>5403</name>
<sym>Dot</sym>
</trkpt>
<trkpt lat="47.870575" lon="15.596295">
<ele>594.5</ele>
<desc>Speed 0.2 km/h Distance 109 km</desc>
<time>2012-09-18T17:14:17.70</time>
<name>5404</name>
<sym>Dot</sym>
</trkpt>
<trkpt lat="47.870575" lon="15.596295">
<ele>594.0</ele>
<desc>Speed 0.2 km/h Distance 109 km</desc>
<time>2012-09-18T17:14:18.69</time>
<name>5405</name>
<sym>Dot</sym>
</trkpt>
<trkpt lat="47.870575" lon="15.596295">
<ele>594.0</ele>
<desc>Speed 0.1 km/h Distance 109 km</desc>
<time>2012-09-18T17:14:19.69</time>
<name>5406</name>
<sym>Dot</sym>
</trkpt>
<trkpt lat="47.870575" lon="15.596293">
<ele>594.0</ele>
<desc>Speed 0.2 km/h Distance 109 km</desc>
<time>2012-09-18T17:14:20.69</time>
<name>5407</name>
<sym>Dot</sym>
</trkpt>
<trkpt lat="47.870575" lon="15.596293">
<ele>594.0</ele>
<desc>Speed 0.3 km/h Distance 109 km</desc>
<time>2012-09-18T17:14:21.67</time>
<name>5408</name>
<sym>Dot</sym>
</trkpt>
<trkpt lat="47.870575" lon="15.596293">
<ele>594.0</ele>
<desc>Speed 0.2 km/h Distance 109 km</desc>
<time>2012-09-18T17:14:22.68</time>
<name>5409</name>
<sym>Dot</sym>
</trkpt>
<trkpt lat="47.870575" lon="15.596295">
<ele>594.0</ele>
<desc>Speed 0.2 km/h Distance 109 km</desc>
<time>2012-09-18T17:14:23.67</time>
<name>5410</name>
<sym>Dot</sym>
</trkpt>
<trkpt lat="47.870575" lon="15.596295">
<ele>594.0</ele>
<desc>Speed 0.3 km/h Distance 109 km</desc>
<time>2012-09-18T17:14:24.67</time>
<name>5411</name>
<sym>Dot</sym>
</trkpt>
<trkpt lat="47.870575" lon="15.596295">
<ele>594.0</ele>
<desc>Speed 0.3 km/h Distance 109 km</desc>
<time>2012-09-18T17:14:25.66</time>
<name>5412</name>
<sym>Dot</sym>
</trkpt>
<trkpt lat="47.870575" lon="15.596295">
<ele>594.0</ele>
<desc>Speed 0.2 km/h Distance 109 km</desc>
<time>2012-09-18T17:14:26.66</time>
<name>5413</name>
<sym>Dot</sym>
</trkpt>
<trkpt lat="47.870575" lon="15.596295">
<ele>594.0</ele>
<desc>Speed 0.1 km/h Distance 109 km</desc>
<time>2012-09-18T17:14:27.66</time>
<name>5414</name>
<sym>Dot</sym>
</trkpt>
<trkpt lat="47.870575" lon="15.596295">
<ele>594.0</ele>
<desc>Speed 0.0 km/h Distance 109 km</desc>
<time>2012-09-18T17:14:28.65</time>
<name>5415</name>
<sym>Dot</sym>
</trkpt>
<trkpt lat="47.870575" lon="15.596295">
<ele>594.0</ele>
<desc>Speed 0.2 km/h Distance 109 km</desc>
<time>2012-09-18T17:14:29.65</time>
<name>5416</name>
<sym>Dot</sym>
</trkpt>
<trkpt lat="47.870575" lon="15.596295">
<ele>594.0</ele>
<desc>Speed 0.2 km/h Distance 109 km</desc>
<time>2012-09-18T17:14:30.64</time>
<name>5417</name>
<sym>Dot</sym>
</trkpt>
<trkpt lat="47.870575" lon="15.596295">
<ele>594.0</ele>
<desc>Speed 0.1 km/h Distance 109 km</desc>
<time>2012-09-18T17:14:31.64</time>
<name>5418</name>
<sym>Dot</sym>
</trkpt>
<trkpt lat="47.870573" lon="15.596295">
<ele>594.0</ele>
<desc>Speed 0.0 km/h Distance 109 km</desc>
<time>2012-09-18T17:14:32.65</time>
<name>5419</name>
<sym>Dot</sym>
</trkpt>
<trkpt lat="47.870573" lon="15.596297">
<ele>594.0</ele>
<desc>Speed 0.1 km/h Distance 109 km</desc>
<time>2012-09-18T17:14:33.64</time>
<name>5420</name>
<sym>Dot</sym>
</trkpt>
<trkpt lat="47.870573" lon="15.596297">
<ele>594.0</ele>
<desc>Speed 0.2 km/h Distance 109 km</desc>
<time>2012-09-18T17:14:34.63</time>
<name>5421</name>
<sym>Dot</sym>
</trkpt>
<trkpt lat="47.870573" lon="15.596297">
<ele>594.0</ele>
<desc>Speed 0.2 km/h Distance 109 km</desc>
<time>2012-09-18T17:14:35.63</time>
<name>5422</name>
<sym>Dot</sym>
</trkpt>
<trkpt lat="47.870573" lon="15.596297">
<ele>594.0</ele>
<desc>Speed 0.2 km/h Distance 109 km</desc>
<time>2012-09-18T17:14:36.63</time>
<name>5423</name>
<sym>Dot</sym>
</trkpt>
<trkpt lat="47.870573" lon="15.596298">
<ele>594.0</ele>
<desc>Speed 0.3 km/h Distance 109 km</desc>
<time>2012-09-18T17:14:37.62</time>
<name>5424</name>
<sym>Dot</sym>
</trkpt>
<trkpt lat="47.870573" lon="15.596297">
<ele>594.0</ele>
<desc>Speed 0.1 km/h Distance 109 km</desc>
<time>2012-09-18T17:14:38.62</time>
<name>5425</name>
<sym>Dot</sym>
</trkpt>
<trkpt lat="47.870573" lon="15.596297">
<ele>594.0</ele>
<desc>Speed 0.2 km/h Distance 109 km</desc>
<time>2012-09-18T17:14:39.61</time>
<name>5426</name>
<sym>Dot</sym>
</trkpt>
<trkpt lat="47.870573" lon="15.596297">
<ele>594.0</ele>
<desc>Speed 0.1 km/h Distance 109 km</desc>
<time>2012-09-18T17:14:40.61</time>
<name>5427</name>
<sym>Dot</sym>
</trkpt>
<trkpt lat="47.870573" lon="15.596297">
<ele>594.0</ele>
<desc>Speed 0.3 km/h Distance 109 km</desc>
<time>2012-09-18T17:14:41.60</time>
<name>5428</name>
<sym>Dot</sym>
</trkpt>
<trkpt lat="47.870573" lon="15.596297">
<ele>594.0</ele>
<desc>Speed 0.2 km/h Distance 109 km</desc>
<time>2012-09-18T17:14:42.60</time>
<name>5429</name>
<sym>Dot</sym>
</trkpt>
<trkpt lat="47.870573" lon="15.596297">
<ele>594.0</ele>
<desc>Speed 0.2 km/h Distance 109 km</desc>
<time>2012-09-18T17:14:43.60</time>
<name>5430</name>
<sym>Dot</sym>
</trkpt>
<trkpt lat="47.870573" lon="15.596297">
<ele>594.0</ele>
<desc>Speed 0.0 km/h Distance 109 km</desc>
<time>2012-09-18T17:14:44.59</time>
<name>5431</name>
<sym>Dot</sym>
</trkpt>
<trkpt lat="47.870573" lon="15.596297">
<ele>594.0</ele>
<desc>Speed 0.3 km/h Distance 109 km</desc>
<time>2012-09-18T17:14:45.58</time>
<name>5432</name>
<sym>Dot</sym>
</trkpt>
<trkpt lat="47.870573" lon="15.596295">
<ele>594.0</ele>
<desc>Speed 0.2 km/h Distance 109 km</desc>
<time>2012-09-18T17:14:46.58</time>
<name>5433</name>
<sym>Dot</sym>
</trkpt>
<trkpt lat="47.870573" lon="15.596297">
<ele>594.0</ele>
<desc>Speed 0.0 km/h Distance 109 km</desc>
<time>2012-09-18T17:14:47.57</time>
<name>5434</name>
<sym>Dot</sym>
</trkpt>
<trkpt lat="47.870573" lon="15.596297">
<ele>594.0</ele>
<desc>Speed 0.3 km/h Distance 109 km</desc>
<time>2012-09-18T17:14:48.57</time>
<name>5435</name>
<sym>Dot</sym>
</trkpt>
<trkpt lat="47.870573" lon="15.596297">
<ele>594.0</ele>
<desc>Speed 0.2 km/h Distance 109 km</desc>
<time>2012-09-18T17:14:49.57</time>
<name>5436</name>
<sym>Dot</sym>
</trkpt>
<trkpt lat="47.870573" lon="15.596295">
<ele>594.0</ele>
<desc>Speed 0.2 km/h Distance 109 km</desc>
<time>2012-09-18T17:14:50.56</time>
<name>5437</name>
<sym>Dot</sym>
</trkpt>
<trkpt lat="47.870572" lon="15.596295">
<ele>594.0</ele>
<desc>Speed 0.2 km/h Distance 109 km</desc>
<time>2012-09-18T17:14:51.56</time>
<name>5438</name>
<sym>Dot</sym>
</trkpt>
<trkpt lat="47.870572" lon="15.596295">
<ele>594.0</ele>
<desc>Speed 0.3 km/h Distance 109 km</desc>
<time>2012-09-18T17:14:52.54</time>
<name>5439</name>
<sym>Dot</sym>
</trkpt>
<trkpt lat="47.870572" lon="15.596295">
<ele>594.0</ele>
<desc>Speed 0.1 km/h Distance 109 km</desc>
<time>2012-09-18T17:14:53.55</time>
<name>5440</name>
<sym>Dot</sym>
</trkpt>
<trkpt lat="47.870572" lon="15.596295">
<ele>594.0</ele>
<desc>Speed 0.1 km/h Distance 109 km</desc>
<time>2012-09-18T17:14:54.53</time>
<name>5441</name>
<sym>Dot</sym>
</trkpt>
<trkpt lat="47.870572" lon="15.596295">
<ele>594.0</ele>
<desc>Speed 0.0 km/h Distance 109 km</desc>
<time>2012-09-18T17:14:55.54</time>
<name>5442</name>
<sym>Dot</sym>
</trkpt>
<trkpt lat="47.870572" lon="15.596295">
<ele>593.5</ele>
<desc>Speed 0.1 km/h Distance 109 km</desc>
<time>2012-09-18T17:14:56.53</time>
<name>5443</name>
<sym>Dot</sym>
</trkpt>
<trkpt lat="47.870572" lon="15.596297">
<ele>593.5</ele>
<desc>Speed 0.1 km/h Distance 109 km</desc>
<time>2012-09-18T17:14:57.53</time>
<name>5444</name>
<sym>Dot</sym>
</trkpt>
<trkpt lat="47.870572" lon="15.596297">
<ele>593.5</ele>
<desc>Speed 0.1 km/h Distance 109 km</desc>
<time>2012-09-18T17:14:58.52</time>
<name>5445</name>
<sym>Dot</sym>
</trkpt>
<trkpt lat="47.870572" lon="15.596297">
<ele>593.5</ele>
<desc>Speed 0.2 km/h Distance 109 km</desc>
<time>2012-09-18T17:14:59.53</time>
<name>5446</name>
<sym>Dot</sym>
</trkpt>
<trkpt lat="47.870572" lon="15.596297">
<ele>593.5</ele>
<desc>Speed 0.3 km/h Distance 109 km</desc>
<time>2012-09-18T17:15:00.52</time>
<name>5447</name>
<sym>Dot</sym>
</trkpt>
<trkpt lat="47.870570" lon="15.596297">
<ele>593.5</ele>
<desc>Speed 0.0 km/h Distance 109 km</desc>
<time>2012-09-18T17:15:01.50</time>
<name>5448</name>
<sym>Dot</sym>
</trkpt>
<trkpt lat="47.870570" lon="15.596297">
<ele>593.5</ele>
<desc>Speed 0.1 km/h Distance 109 km</desc>
<time>2012-09-18T17:15:02.50</time>
<name>5449</name>
<sym>Dot</sym>
</trkpt>
<trkpt lat="47.870570" lon="15.596297">
<ele>593.5</ele>
<desc>Speed 0.1 km/h Distance 109 km</desc>
<time>2012-09-18T17:15:03.49</time>
<name>5450</name>
<sym>Dot</sym>
</trkpt>
<trkpt lat="47.870570" lon="15.596297">
<ele>593.5</ele>
<desc>Speed 0.2 km/h Distance 109 km</desc>
<time>2012-09-18T17:15:04.48</time>
<name>5451</name>
<sym>Dot</sym>
</trkpt>
<trkpt lat="47.870570" lon="15.596297">
<ele>593.5</ele>
<desc>Speed 0.2 km/h Distance 109 km</desc>
<time>2012-09-18T17:15:05.49</time>
<name>5452</name>
<sym>Dot</sym>
</trkpt>
<trkpt lat="47.870570" lon="15.596297">
<ele>593.5</ele>
<desc>Speed 0.1 km/h Distance 109 km</desc>
<time>2012-09-18T17:15:06.48</time>
<name>5453</name>
<sym>Dot</sym>
</trkpt>
<trkpt lat="47.870568" lon="15.596297">
<ele>593.5</ele>
<desc>Speed 0.1 km/h Distance 109 km</desc>
<time>2012-09-18T17:15:07.48</time>
<name>5454</name>
<sym>Dot</sym>
</trkpt>
<trkpt lat="47.870568" lon="15.596297">
<ele>593.0</ele>
<desc>Speed 0.2 km/h Distance 109 km</desc>
<time>2012-09-18T17:15:08.47</time>
<name>5455</name>
<sym>Dot</sym>
</trkpt>
<trkpt lat="47.870568" lon="15.596297">
<ele>593.0</ele>
<desc>Speed 0.2 km/h Distance 109 km</desc>
<time>2012-09-18T17:15:09.46</time>
<name>5456</name>
<sym>Dot</sym>
</trkpt>
<trkpt lat="47.870568" lon="15.596298">
<ele>593.0</ele>
<desc>Speed 0.2 km/h Distance 109 km</desc>
<time>2012-09-18T17:15:10.45</time>
<name>5457</name>
<sym>Dot</sym>
</trkpt>
<trkpt lat="47.870568" lon="15.596298">
<ele>593.0</ele>
<desc>Speed 0.1 km/h Distance 109 km</desc>
<time>2012-09-18T17:15:11.45</time>
<name>5458</name>
<sym>Dot</sym>
</trkpt>
<trkpt lat="47.870568" lon="15.596298">
<ele>593.0</ele>
<desc>Speed 0.1 km/h Distance 109 km</desc>
<time>2012-09-18T17:15:12.44</time>
<name>5459</name>
<sym>Dot</sym>
</trkpt>
<trkpt lat="47.870568" lon="15.596297">
<ele>593.0</ele>
<desc>Speed 0.1 km/h Distance 109 km</desc>
<time>2012-09-18T17:15:13.44</time>
<name>5460</name>
<sym>Dot</sym>
</trkpt>
<trkpt lat="47.870568" lon="15.596297">
<ele>593.0</ele>
<desc>Speed 0.2 km/h Distance 109 km</desc>
<time>2012-09-18T17:15:14.43</time>
<name>5461</name>
<sym>Dot</sym>
</trkpt>
<trkpt lat="47.870568" lon="15.596297">
<ele>593.0</ele>
<desc>Speed 0.1 km/h Distance 109 km</desc>
<time>2012-09-18T17:15:15.43</time>
<name>5462</name>
<sym>Dot</sym>
</trkpt>
<trkpt lat="47.870568" lon="15.596297">
<ele>593.0</ele>
<desc>Speed 0.1 km/h Distance 109 km</desc>
<time>2012-09-18T17:15:16.44</time>
<name>5463</name>
<sym>Dot</sym>
</trkpt>
<trkpt lat="47.870568" lon="15.596297">
<ele>593.0</ele>
<desc>Speed 0.1 km/h Distance 109 km</desc>
<time>2012-09-18T17:15:17.43</time>
<name>5464</name>
<sym>Dot</sym>
</trkpt>
<trkpt lat="47.870568" lon="15.596297">
<ele>593.0</ele>
<desc>Speed 0.2 km/h Distance 109 km</desc>
<time>2012-09-18T17:15:18.43</time>
<name>5465</name>
<sym>Dot</sym>
</trkpt>
<trkpt lat="47.870568" lon="15.596297">
<ele>593.0</ele>
<desc>Speed 0.2 km/h Distance 109 km</desc>
<time>2012-09-18T17:15:19.43</time>
<name>5466</name>
<sym>Dot</sym>
</trkpt>
<trkpt lat="47.870568" lon="15.596297">
<ele>593.0</ele>
<desc>Speed 0.1 km/h Distance 109 km</desc>
<time>2012-09-18T17:15:20.42</time>
<name>5467</name>
<sym>Dot</sym>
</trkpt>
<trkpt lat="47.870568" lon="15.596297">
<ele>593.0</ele>
<desc>Speed 0.1 km/h Distance 109 km</desc>
<time>2012-09-18T17:15:21.42</time>
<name>5468</name>
<sym>Dot</sym>
</trkpt>
<trkpt lat="47.870568" lon="15.596297">
<ele>593.0</ele>
<desc>Speed 0.2 km/h Distance 109 km</desc>
<time>2012-09-18T17:15:22.42</time>
<name>5469</name>
<sym>Dot</sym>
</trkpt>
<trkpt lat="47.870568" lon="15.596297">
<ele>593.0</ele>
<desc>Speed 0.1 km/h Distance 109 km</desc>
<time>2012-09-18T17:15:23.41</time>
<name>5470</name>
<sym>Dot</sym>
</trkpt>
<trkpt lat="47.870568" lon="15.596297">
<ele>593.0</ele>
<desc>Speed 0.2 km/h Distance 109 km</desc>
<time>2012-09-18T17:15:24.41</time>
<name>5471</name>
<sym>Dot</sym>
</trkpt>
<trkpt lat="47.870568" lon="15.596297">
<ele>593.0</ele>
<desc>Speed 0.2 km/h Distance 109 km</desc>
<time>2012-09-18T17:15:25.40</time>
<name>5472</name>
<sym>Dot</sym>
</trkpt>
<trkpt lat="47.870568" lon="15.596295">
<ele>593.0</ele>
<desc>Speed 0.0 km/h Distance 109 km</desc>
<time>2012-09-18T17:15:26.39</time>
<name>5473</name>
<sym>Dot</sym>
</trkpt>
<trkpt lat="47.870568" lon="15.596295">
<ele>593.0</ele>
<desc>Speed 0.2 km/h Distance 109 km</desc>
<time>2012-09-18T17:15:27.39</time>
<name>5474</name>
<sym>Dot</sym>
</trkpt>
<trkpt lat="47.870568" lon="15.596295">
<ele>593.0</ele>
<desc>Speed 0.2 km/h Distance 109 km</desc>
<time>2012-09-18T17:15:28.38</time>
<name>5475</name>
<sym>Dot</sym>
</trkpt>
<trkpt lat="47.870568" lon="15.596295">
<ele>593.0</ele>
<desc>Speed 0.1 km/h Distance 109 km</desc>
<time>2012-09-18T17:15:29.38</time>
<name>5476</name>
<sym>Dot</sym>
</trkpt>
<trkpt lat="47.870568" lon="15.596295">
<ele>593.0</ele>
<desc>Speed 0.2 km/h Distance 109 km</desc>
<time>2012-09-18T17:15:30.38</time>
<name>5477</name>
<sym>Dot</sym>
</trkpt>
<trkpt lat="47.870568" lon="15.596295">
<ele>593.0</ele>
<desc>Speed 0.1 km/h Distance 109 km</desc>
<time>2012-09-18T17:15:31.38</time>
<name>5478</name>
<sym>Dot</sym>
</trkpt>
<trkpt lat="47.870568" lon="15.596295">
<ele>593.0</ele>
<desc>Speed 0.2 km/h Distance 109 km</desc>
<time>2012-09-18T17:15:32.37</time>
<name>5479</name>
<sym>Dot</sym>
</trkpt>
<trkpt lat="47.870568" lon="15.596295">
<ele>593.0</ele>
<desc>Speed 0.2 km/h Distance 109 km</desc>
<time>2012-09-18T17:15:33.37</time>
<name>5480</name>
<sym>Dot</sym>
</trkpt>
<trkpt lat="47.870568" lon="15.596293">
<ele>593.0</ele>
<desc>Speed 0.2 km/h Distance 109 km</desc>
<time>2012-09-18T17:15:34.36</time>
<name>5481</name>
<sym>Dot</sym>
</trkpt>
<trkpt lat="47.870568" lon="15.596293">
<ele>592.5</ele>
<desc>Speed 0.1 km/h Distance 109 km</desc>
<time>2012-09-18T17:15:35.35</time>
<name>5482</name>
<sym>Dot</sym>
</trkpt>
<trkpt lat="47.870568" lon="15.596293">
<ele>592.5</ele>
<desc>Speed 0.2 km/h Distance 109 km</desc>
<time>2012-09-18T17:15:36.34</time>
<name>5483</name>
<sym>Dot</sym>
</trkpt>
<trkpt lat="47.870568" lon="15.596293">
<ele>592.5</ele>
<desc>Speed 0.1 km/h Distance 109 km</desc>
<time>2012-09-18T17:15:37.33</time>
<name>5484</name>
<sym>Dot</sym>
</trkpt>
<trkpt lat="47.870568" lon="15.596293">
<ele>592.5</ele>
<desc>Speed 0.1 km/h Distance 109 km</desc>
<time>2012-09-18T17:15:38.33</time>
<name>5485</name>
<sym>Dot</sym>
</trkpt>
<trkpt lat="47.870568" lon="15.596293">
<ele>592.5</ele>
<desc>Speed 0.2 km/h Distance 109 km</desc>
<time>2012-09-18T17:15:39.33</time>
<name>5486</name>
<sym>Dot</sym>
</trkpt>
<trkpt lat="47.870568" lon="15.596293">
<ele>592.5</ele>
<desc>Speed 0.1 km/h Distance 109 km</desc>
<time>2012-09-18T17:15:40.32</time>
<name>5487</name>
<sym>Dot</sym>
</trkpt>
<trkpt lat="47.870568" lon="15.596293">
<ele>592.5</ele>
<desc>Speed 0.1 km/h Distance 109 km</desc>
<time>2012-09-18T17:15:41.32</time>
<name>5488</name>
<sym>Dot</sym>
</trkpt>
<trkpt lat="47.870568" lon="15.596293">
<ele>592.5</ele>
<desc>Speed 0.2 km/h Distance 109 km</desc>
<time>2012-09-18T17:15:42.32</time>
<name>5489</name>
<sym>Dot</sym>
</trkpt>
<trkpt lat="47.870568" lon="15.596293">
<ele>592.5</ele>
<desc>Speed 0.2 km/h Distance 109 km</desc>
<time>2012-09-18T17:15:43.31</time>
<name>5490</name>
<sym>Dot</sym>
</trkpt>
<trkpt lat="47.870568" lon="15.596295">
<ele>592.5</ele>
<desc>Speed 0.1 km/h Distance 109 km</desc>
<time>2012-09-18T17:15:44.30</time>
<name>5491</name>
<sym>Dot</sym>
</trkpt>
<trkpt lat="47.870568" lon="15.596295">
<ele>592.5</ele>
<desc>Speed 0.2 km/h Distance 109 km</desc>
<time>2012-09-18T17:15:45.29</time>
<name>5492</name>
<sym>Dot</sym>
</trkpt>
<trkpt lat="47.870568" lon="15.596295">
<ele>592.5</ele>
<desc>Speed 0.3 km/h Distance 109 km</desc>
<time>2012-09-18T17:15:46.30</time>
<name>5493</name>
<sym>Dot</sym>
</trkpt>
<trkpt lat="47.870568" lon="15.596295">
<ele>592.5</ele>
<desc>Speed 0.1 km/h Distance 109 km</desc>
<time>2012-09-18T17:15:47.29</time>
<name>5494</name>
<sym>Dot</sym>
</trkpt>
<trkpt lat="47.870568" lon="15.596295">
<ele>592.5</ele>
<desc>Speed 0.1 km/h Distance 109 km</desc>
<time>2012-09-18T17:15:48.29</time>
<name>5495</name>
<sym>Dot</sym>
</trkpt>
<trkpt lat="47.870567" lon="15.596295">
<ele>592.5</ele>
<desc>Speed 0.3 km/h Distance 109 km</desc>
<time>2012-09-18T17:15:49.29</time>
<name>5496</name>
<sym>Dot</sym>
</trkpt>
<trkpt lat="47.870567" lon="15.596295">
<ele>592.5</ele>
<desc>Speed 0.0 km/h Distance 109 km</desc>
<time>2012-09-18T17:15:50.28</time>
<name>5497</name>
<sym>Dot</sym>
</trkpt>
<trkpt lat="47.870567" lon="15.596295">
<ele>592.5</ele>
<desc>Speed 0.2 km/h Distance 109 km</desc>
<time>2012-09-18T17:15:51.27</time>
<name>5498</name>
<sym>Dot</sym>
</trkpt>
<trkpt lat="47.870567" lon="15.596295">
<ele>592.5</ele>
<desc>Speed 0.0 km/h Distance 109 km</desc>
<time>2012-09-18T17:15:52.26</time>
<name>5499</name>
<sym>Dot</sym>
</trkpt>
<trkpt lat="47.870567" lon="15.596295">
<ele>592.5</ele>
<desc>Speed 0.1 km/h Distance 109 km</desc>
<time>2012-09-18T17:15:53.26</time>
<name>5500</name>
<sym>Dot</sym>
</trkpt>
<trkpt lat="47.870568" lon="15.596295">
<ele>592.5</ele>
<desc>Speed 0.2 km/h Distance 109 km</desc>
<time>2012-09-18T17:15:54.26</time>
<name>5501</name>
<sym>Dot</sym>
</trkpt>
<trkpt lat="47.870568" lon="15.596295">
<ele>592.5</ele>
<desc>Speed 0.1 km/h Distance 109 km</desc>
<time>2012-09-18T17:15:55.26</time>
<name>5502</name>
<sym>Dot</sym>
</trkpt>
<trkpt lat="47.870565" lon="15.596327">
<ele>593.0</ele>
<desc>Speed 0.0 km/h Distance 109 km</desc>
<time>2012-09-18T17:20:54.23</time>
<name>5503</name>
<sym>Dot</sym>
</trkpt>
<trkpt lat="47.870567" lon="15.596327">
<ele>593.0</ele>
<desc>Speed 0.3 km/h Distance 109 km</desc>
<time>2012-09-18T17:20:55.23</time>
<name>5504</name>
<sym>Dot</sym>
</trkpt>
<trkpt lat="47.870567" lon="15.596327">
<ele>593.0</ele>
<desc>Speed 0.3 km/h Distance 109 km</desc>
<time>2012-09-18T17:20:56.22</time>
<name>5505</name>
<sym>Dot</sym>
</trkpt>
<trkpt lat="47.870567" lon="15.596327">
<ele>593.0</ele>
<desc>Speed 0.1 km/h Distance 109 km</desc>
<time>2012-09-18T17:20:57.22</time>
<name>5506</name>
<sym>Dot</sym>
</trkpt>
<trkpt lat="47.870565" lon="15.596327">
<ele>593.0</ele>
<desc>Speed 0.1 km/h Distance 109 km</desc>
<time>2012-09-18T17:20:58.21</time>
<name>5507</name>
<sym>Dot</sym>
</trkpt>
<trkpt lat="47.870565" lon="15.596327">
<ele>593.0</ele>
<desc>Speed 0.1 km/h Distance 109 km</desc>
<time>2012-09-18T17:20:59.26</time>
<name>5508</name>
<sym>Dot</sym>
</trkpt>
<trkpt lat="47.870565" lon="15.596327">
<ele>593.0</ele>
<desc>Speed 0.3 km/h Distance 109 km</desc>
<time>2012-09-18T17:21:00.21</time>
<name>5509</name>
<sym>Dot</sym>
</trkpt>
<trkpt lat="47.870565" lon="15.596327">
<ele>593.5</ele>
<desc>Speed 0.2 km/h Distance 109 km</desc>
<time>2012-09-18T17:21:01.20</time>
<name>5510</name>
<sym>Dot</sym>
</trkpt>
<trkpt lat="47.870565" lon="15.596327">
<ele>593.5</ele>
<desc>Speed 0.2 km/h Distance 109 km</desc>
<time>2012-09-18T17:21:02.19</time>
<name>5511</name>
<sym>Dot</sym>
</trkpt>
<trkpt lat="47.870565" lon="15.596328">
<ele>593.5</ele>
<desc>Speed 0.1 km/h Distance 109 km</desc>
<time>2012-09-18T17:21:03.18</time>
<name>5512</name>
<sym>Dot</sym>
</trkpt>
<trkpt lat="47.870565" lon="15.596328">
<ele>593.5</ele>
<desc>Speed 0.6 km/h Distance 109 km</desc>
<time>2012-09-18T17:21:04.18</time>
<name>5513</name>
<sym>Dot</sym>
</trkpt>
<trkpt lat="47.870565" lon="15.596328">
<ele>593.5</ele>
<desc>Speed 0.3 km/h Distance 109 km</desc>
<time>2012-09-18T17:21:05.17</time>
<name>5514</name>
<sym>Dot</sym>
</trkpt>
<trkpt lat="47.870565" lon="15.596328">
<ele>593.5</ele>
<desc>Speed 0.1 km/h Distance 109 km</desc>
<time>2012-09-18T17:21:06.17</time>
<name>5515</name>
<sym>Dot</sym>
</trkpt>
<trkpt lat="47.870565" lon="15.596328">
<ele>593.5</ele>
<desc>Speed 0.2 km/h Distance 109 km</desc>
<time>2012-09-18T17:21:07.16</time>
<name>5516</name>
<sym>Dot</sym>
</trkpt>
<trkpt lat="47.870565" lon="15.596330">
<ele>593.5</ele>
<desc>Speed 0.2 km/h Distance 109 km</desc>
<time>2012-09-18T17:21:08.15</time>
<name>5517</name>
<sym>Dot</sym>
</trkpt>
<trkpt lat="47.870565" lon="15.596330">
<ele>593.5</ele>
<desc>Speed 0.1 km/h Distance 109 km</desc>
<time>2012-09-18T17:21:09.17</time>
<name>5518</name>
<sym>Dot</sym>
</trkpt>
<trkpt lat="47.870565" lon="15.596330">
<ele>593.5</ele>
<desc>Speed 0.3 km/h Distance 109 km</desc>
<time>2012-09-18T17:21:10.15</time>
<name>5519</name>
<sym>Dot</sym>
</trkpt>
<trkpt lat="47.870565" lon="15.596330">
<ele>593.5</ele>
<desc>Speed 0.5 km/h Distance 109 km</desc>
<time>2012-09-18T17:21:11.14</time>
<name>5520</name>
<sym>Dot</sym>
</trkpt>
<trkpt lat="47.870565" lon="15.596330">
<ele>593.5</ele>
<desc>Speed 0.5 km/h Distance 109 km</desc>
<time>2012-09-18T17:21:12.13</time>
<name>5521</name>
<sym>Dot</sym>
</trkpt>
<trkpt lat="47.870563" lon="15.596332">
<ele>593.5</ele>
<desc>Speed 0.3 km/h Distance 109 km</desc>
<time>2012-09-18T17:21:13.13</time>
<name>5522</name>
<sym>Dot</sym>
</trkpt>
<trkpt lat="47.870563" lon="15.596332">
<ele>593.5</ele>
<desc>Speed 0.2 km/h Distance 109 km</desc>
<time>2012-09-18T17:21:14.13</time>
<name>5523</name>
<sym>Dot</sym>
</trkpt>
<trkpt lat="47.870563" lon="15.596332">
<ele>593.5</ele>
<desc>Speed 0.1 km/h Distance 109 km</desc>
<time>2012-09-18T17:21:15.11</time>
<name>5524</name>
<sym>Dot</sym>
</trkpt>
<trkpt lat="47.870563" lon="15.596332">
<ele>593.5</ele>
<desc>Speed 0.4 km/h Distance 109 km</desc>
<time>2012-09-18T17:21:16.11</time>
<name>5525</name>
<sym>Dot</sym>
</trkpt>
<trkpt lat="47.870568" lon="15.596333">
<ele>593.5</ele>
<desc>Speed 1.4 km/h Distance 109 km</desc>
<time>2012-09-18T17:21:17.11</time>
<name>5526</name>
<sym>Dot</sym>
</trkpt>
<trkpt lat="47.870577" lon="15.596342">
<ele>593.5</ele>
<desc>Speed 4.1 km/h Distance 109 km</desc>
<time>2012-09-18T17:21:18.09</time>
<name>5527</name>
<sym>Dot</sym>
</trkpt>
<trkpt lat="47.870888" lon="15.596878">
<ele>594.5</ele>
<desc>Speed 59.4 km/h Distance 109 km</desc>
<time>2012-09-18T17:21:23.76</time>
<name>5528</name>
<sym>Dot</sym>
</trkpt>
<trkpt lat="47.870980" lon="15.597060">
<ele>594.0</ele>
<desc>Speed 60.8 km/h Distance 109 km</desc>
<time>2012-09-18T17:21:24.75</time>
<name>5529</name>
<sym>Dot</sym>
</trkpt>
<trkpt lat="47.871212" lon="15.597440">
<ele>595.0</ele>
<desc>Speed 68.8 km/h Distance 109 km</desc>
<time>2012-09-18T17:21:26.75</time>
<name>5530</name>
<sym>Dot</sym>
</trkpt>
<trkpt lat="47.871328" lon="15.597615">
<ele>594.5</ele>
<desc>Speed 66.5 km/h Distance 109 km</desc>
<time>2012-09-18T17:21:27.73</time>
<name>5531</name>
<sym>Dot</sym>
</trkpt>
<trkpt lat="47.871448" lon="15.597782">
<ele>594.5</ele>
<desc>Speed 64.9 km/h Distance 109 km</desc>
<time>2012-09-18T17:21:28.73</time>
<name>5532</name>
<sym>Dot</sym>
</trkpt>
<trkpt lat="47.871573" lon="15.597948">
<ele>594.5</ele>
<desc>Speed 67.3 km/h Distance 109 km</desc>
<time>2012-09-18T17:21:29.73</time>
<name>5533</name>
<sym>Dot</sym>
</trkpt>
<trkpt lat="47.871710" lon="15.598112">
<ele>594.0</ele>
<desc>Speed 70.1 km/h Distance 109 km</desc>
<time>2012-09-18T17:21:30.71</time>
<name>5534</name>
<sym>Dot</sym>
</trkpt>
<trkpt lat="47.871850" lon="15.598263">
<ele>594.0</ele>
<desc>Speed 69.2 km/h Distance 110 km</desc>
<time>2012-09-18T17:21:31.79</time>
<name>5535</name>
<sym>Dot</sym>
</trkpt>
<trkpt lat="47.871973" lon="15.598415">
<ele>594.5</ele>
<desc>Speed 63.6 km/h Distance 110 km</desc>
<time>2012-09-18T17:21:32.71</time>
<name>5536</name>
<sym>Dot</sym>
</trkpt>
<trkpt lat="47.872105" lon="15.598548">
<ele>594.5</ele>
<desc>Speed 63.0 km/h Distance 110 km</desc>
<time>2012-09-18T17:21:33.70</time>
<name>5537</name>
<sym>Dot</sym>
</trkpt>
<trkpt lat="47.872240" lon="15.598672">
<ele>594.5</ele>
<desc>Speed 62.8 km/h Distance 110 km</desc>
<time>2012-09-18T17:21:34.70</time>
<name>5538</name>
<sym>Dot</sym>
</trkpt>
<trkpt lat="47.872377" lon="15.598782">
<ele>594.0</ele>
<desc>Speed 62.2 km/h Distance 110 km</desc>
<time>2012-09-18T17:21:35.70</time>
<name>5539</name>
<sym>Dot</sym>
</trkpt>
<trkpt lat="47.872508" lon="15.598878">
<ele>594.0</ele>
<desc>Speed 58.7 km/h Distance 110 km</desc>
<time>2012-09-18T17:21:36.70</time>
<name>5540</name>
<sym>Dot</sym>
</trkpt>
<trkpt lat="47.872628" lon="15.598968">
<ele>594.0</ele>
<desc>Speed 54.4 km/h Distance 110 km</desc>
<time>2012-09-18T17:21:37.69</time>
<name>5541</name>
<sym>Dot</sym>
</trkpt>
<trkpt lat="47.872745" lon="15.599045">
<ele>593.5</ele>
<desc>Speed 50.8 km/h Distance 110 km</desc>
<time>2012-09-18T17:21:38.69</time>
<name>5542</name>
<sym>Dot</sym>
</trkpt>
<trkpt lat="47.872853" lon="15.599112">
<ele>594.0</ele>
<desc>Speed 46.9 km/h Distance 110 km</desc>
<time>2012-09-18T17:21:39.68</time>
<name>5543</name>
<sym>Dot</sym>
</trkpt>
<trkpt lat="47.873023" lon="15.599245">
<ele>594.5</ele>
<desc>Speed 38.1 km/h Distance 110 km</desc>
<time>2012-09-18T17:21:41.67</time>
<name>5544</name>
<sym>Dot</sym>
</trkpt>
<trkpt lat="47.873105" lon="15.599330">
<ele>594.0</ele>
<desc>Speed 39.5 km/h Distance 110 km</desc>
<time>2012-09-18T17:21:42.74</time>
<name>5545</name>
<sym>Dot</sym>
</trkpt>
<trkpt lat="47.873180" lon="15.599433">
<ele>594.0</ele>
<desc>Speed 41.0 km/h Distance 110 km</desc>
<time>2012-09-18T17:21:43.67</time>
<name>5546</name>
<sym>Dot</sym>
</trkpt>
<trkpt lat="47.873255" lon="15.599547">
<ele>593.5</ele>
<desc>Speed 42.9 km/h Distance 110 km</desc>
<time>2012-09-18T17:21:44.67</time>
<name>5547</name>
<sym>Dot</sym>
</trkpt>
<trkpt lat="47.873333" lon="15.599663">
<ele>593.5</ele>
<desc>Speed 44.7 km/h Distance 110 km</desc>
<time>2012-09-18T17:21:45.65</time>
<name>5548</name>
<sym>Dot</sym>
</trkpt>
<trkpt lat="47.873418" lon="15.599788">
<ele>593.5</ele>
<desc>Speed 47.7 km/h Distance 110 km</desc>
<time>2012-09-18T17:21:46.65</time>
<name>5549</name>
<sym>Dot</sym>
</trkpt>
<trkpt lat="47.873495" lon="15.599923">
<ele>593.0</ele>
<desc>Speed 48.2 km/h Distance 110 km</desc>
<time>2012-09-18T17:21:47.66</time>
<name>5550</name>
<sym>Dot</sym>
</trkpt>
<trkpt lat="47.873565" lon="15.600067">
<ele>593.0</ele>
<desc>Speed 47.7 km/h Distance 110 km</desc>
<time>2012-09-18T17:21:48.64</time>
<name>5551</name>
<sym>Dot</sym>
</trkpt>
<trkpt lat="47.873627" lon="15.600227">
<ele>593.5</ele>
<desc>Speed 50.0 km/h Distance 110 km</desc>
<time>2012-09-18T17:21:49.64</time>
<name>5552</name>
<sym>Dot</sym>
</trkpt>
<trkpt lat="47.873688" lon="15.600403">
<ele>594.0</ele>
<desc>Speed 54.2 km/h Distance 110 km</desc>
<time>2012-09-18T17:21:50.64</time>
<name>5553</name>
<sym>Dot</sym>
</trkpt>
<trkpt lat="47.873742" lon="15.600595">
<ele>595.5</ele>
<desc>Speed 56.2 km/h Distance 110 km</desc>
<time>2012-09-18T17:21:51.63</time>
<name>5554</name>
<sym>Dot</sym>
</trkpt>
<trkpt lat="47.873787" lon="15.600790">
<ele>596.5</ele>
<desc>Speed 55.0 km/h Distance 110 km</desc>
<time>2012-09-18T17:21:52.65</time>
<name>5555</name>
<sym>Dot</sym>
</trkpt>
<trkpt lat="47.873827" lon="15.600963">
<ele>596.5</ele>
<desc>Speed 50.4 km/h Distance 110 km</desc>
<time>2012-09-18T17:21:53.62</time>
<name>5556</name>
<sym>Dot</sym>
</trkpt>
<trkpt lat="47.873865" lon="15.601128">
<ele>597.0</ele>
<desc>Speed 48.1 km/h Distance 110 km</desc>
<time>2012-09-18T17:21:54.63</time>
<name>5557</name>
<sym>Dot</sym>
</trkpt>
<trkpt lat="47.873897" lon="15.601307">
<ele>597.5</ele>
<desc>Speed 50.8 km/h Distance 110 km</desc>
<time>2012-09-18T17:21:55.61</time>
<name>5558</name>
<sym>Dot</sym>
</trkpt>
<trkpt lat="47.873933" lon="15.601505">
<ele>597.5</ele>
<desc>Speed 55.5 km/h Distance 110 km</desc>
<time>2012-09-18T17:21:56.62</time>
<name>5559</name>
<sym>Dot</sym>
</trkpt>
<trkpt lat="47.873982" lon="15.601707">
<ele>597.5</ele>
<desc>Speed 57.7 km/h Distance 110 km</desc>
<time>2012-09-18T17:21:57.62</time>
<name>5560</name>
<sym>Dot</sym>
</trkpt>
<trkpt lat="47.874042" lon="15.601910">
<ele>597.5</ele>
<desc>Speed 59.4 km/h Distance 110 km</desc>
<time>2012-09-18T17:21:58.61</time>
<name>5561</name>
<sym>Dot</sym>
</trkpt>
<trkpt lat="47.874117" lon="15.602112">
<ele>597.0</ele>
<desc>Speed 62.2 km/h Distance 110 km</desc>
<time>2012-09-18T17:21:59.60</time>
<name>5562</name>
<sym>Dot</sym>
</trkpt>
<trkpt lat="47.874222" lon="15.602307">
<ele>598.0</ele>
<desc>Speed 67.5 km/h Distance 110 km</desc>
<time>2012-09-18T17:22:00.60</time>
<name>5563</name>
<sym>Dot</sym>
</trkpt>
<trkpt lat="47.874335" lon="15.602482">
<ele>598.0</ele>
<desc>Speed 65.1 km/h Distance 110 km</desc>
<time>2012-09-18T17:22:01.59</time>
<name>5564</name>
<sym>Dot</sym>
</trkpt>
<trkpt lat="47.874460" lon="15.602640">
<ele>598.0</ele>
<desc>Speed 66.1 km/h Distance 110 km</desc>
<time>2012-09-18T17:22:02.60</time>
<name>5565</name>
<sym>Dot</sym>
</trkpt>
<trkpt lat="47.874593" lon="15.602767">
<ele>597.5</ele>
<desc>Speed 63.0 km/h Distance 110 km</desc>
<time>2012-09-18T17:22:03.61</time>
<name>5566</name>
<sym>Dot</sym>
</trkpt>
<trkpt lat="47.874742" lon="15.602895">
<ele>597.5</ele>
<desc>Speed 68.0 km/h Distance 110 km</desc>
<time>2012-09-18T17:22:04.59</time>
<name>5567</name>
<sym>Dot</sym>
</trkpt>
<trkpt lat="47.874888" lon="15.603022">
<ele>597.5</ele>
<desc>Speed 67.9 km/h Distance 110 km</desc>
<time>2012-09-18T17:22:05.58</time>
<name>5568</name>
<sym>Dot</sym>
</trkpt>
<trkpt lat="47.875037" lon="15.603138">
<ele>597.5</ele>
<desc>Speed 67.2 km/h Distance 110 km</desc>
<time>2012-09-18T17:22:06.59</time>
<name>5569</name>
<sym>Dot</sym>
</trkpt>
<trkpt lat="47.875182" lon="15.603255">
<ele>597.0</ele>
<desc>Speed 66.2 km/h Distance 110 km</desc>
<time>2012-09-18T17:22:07.59</time>
<name>5570</name>
<sym>Dot</sym>
</trkpt>
<trkpt lat="47.875330" lon="15.603377">
<ele>597.0</ele>
<desc>Speed 67.1 km/h Distance 110 km</desc>
<time>2012-09-18T17:22:08.57</time>
<name>5571</name>
<sym>Dot</sym>
</trkpt>
<trkpt lat="47.875482" lon="15.603498">
<ele>597.0</ele>
<desc>Speed 69.1 km/h Distance 110 km</desc>
<time>2012-09-18T17:22:09.57</time>
<name>5572</name>
<sym>Dot</sym>
</trkpt>
<trkpt lat="47.875635" lon="15.603625">
<ele>597.0</ele>
<desc>Speed 70.0 km/h Distance 110 km</desc>
<time>2012-09-18T17:22:10.57</time>
<name>5573</name>
<sym>Dot</sym>
</trkpt>
<trkpt lat="47.875790" lon="15.603730">
<ele>598.0</ele>
<desc>Speed 68.3 km/h Distance 110 km</desc>
<time>2012-09-18T17:22:11.55</time>
<name>5574</name>
<sym>Dot</sym>
</trkpt>
<trkpt lat="47.875960" lon="15.603800">
<ele>598.5</ele>
<desc>Speed 69.8 km/h Distance 110 km</desc>
<time>2012-09-18T17:22:12.55</time>
<name>5575</name>
<sym>Dot</sym>
</trkpt>
<trkpt lat="47.876133" lon="15.603852">
<ele>599.0</ele>
<desc>Speed 70.0 km/h Distance 110 km</desc>
<time>2012-09-18T17:22:13.54</time>
<name>5576</name>
<sym>Dot</sym>
</trkpt>
<trkpt lat="47.876308" lon="15.603872">
<ele>599.0</ele>
<desc>Speed 70.1 km/h Distance 110 km</desc>
<time>2012-09-18T17:22:14.58</time>
<name>5577</name>
<sym>Dot</sym>
</trkpt>
<trkpt lat="47.876698" lon="15.603913">
<ele>600.5</ele>
<desc>Speed 78.4 km/h Distance 110 km</desc>
<time>2012-09-18T17:22:16.54</time>
<name>5578</name>
<sym>Dot</sym>
</trkpt>
<trkpt lat="47.876887" lon="15.603943">
<ele>602.5</ele>
<desc>Speed 75.8 km/h Distance 110 km</desc>
<time>2012-09-18T17:22:17.54</time>
<name>5579</name>
<sym>Dot</sym>
</trkpt>
<trkpt lat="47.877065" lon="15.604025">
<ele>603.5</ele>
<desc>Speed 74.7 km/h Distance 110 km</desc>
<time>2012-09-18T17:22:18.54</time>
<name>5580</name>
<sym>Dot</sym>
</trkpt>
<trkpt lat="47.877248" lon="15.604110">
<ele>605.5</ele>
<desc>Speed 76.2 km/h Distance 110 km</desc>
<time>2012-09-18T17:22:19.52</time>
<name>5581</name>
<sym>Dot</sym>
</trkpt>
<trkpt lat="47.877430" lon="15.604207">
<ele>606.5</ele>
<desc>Speed 77.2 km/h Distance 110 km</desc>
<time>2012-09-18T17:22:20.53</time>
<name>5582</name>
<sym>Dot</sym>
</trkpt>
<trkpt lat="47.877620" lon="15.604295">
<ele>607.5</ele>
<desc>Speed 79.0 km/h Distance 110 km</desc>
<time>2012-09-18T17:22:21.53</time>
<name>5583</name>
<sym>Dot</sym>
</trkpt>
<trkpt lat="47.878047" lon="15.604455">
<ele>611.0</ele>
<desc>Speed 89.5 km/h Distance 110 km</desc>
<time>2012-09-18T17:22:23.52</time>
<name>5584</name>
<sym>Dot</sym>
</trkpt>
<trkpt lat="47.878430" lon="15.604633">
<ele>613.0</ele>
<desc>Speed 80.5 km/h Distance 110 km</desc>
<time>2012-09-18T17:22:25.51</time>
<name>5585</name>
<sym>Dot</sym>
</trkpt>
<trkpt lat="47.878612" lon="15.604767">
<ele>615.5</ele>
<desc>Speed 79.7 km/h Distance 110 km</desc>
<time>2012-09-18T17:22:26.52</time>
<name>5586</name>
<sym>Dot</sym>
</trkpt>
<trkpt lat="47.878775" lon="15.604897">
<ele>617.0</ele>
<desc>Speed 74.2 km/h Distance 110 km</desc>
<time>2012-09-18T17:22:27.50</time>
<name>5587</name>
<sym>Dot</sym>
</trkpt>
<trkpt lat="47.878943" lon="15.605012">
<ele>618.0</ele>
<desc>Speed 73.6 km/h Distance 110 km</desc>
<time>2012-09-18T17:22:28.51</time>
<name>5588</name>
<sym>Dot</sym>
</trkpt>
<trkpt lat="47.879103" lon="15.605088">
<ele>619.5</ele>
<desc>Speed 67.0 km/h Distance 111 km</desc>
<time>2012-09-18T17:22:29.51</time>
<name>5589</name>
<sym>Dot</sym>
</trkpt>
<trkpt lat="47.879540" lon="15.605397">
<ele>622.5</ele>
<desc>Speed 29.3 km/h Distance 111 km</desc>
<time>2012-09-18T17:22:35.75</time>
<name>5590</name>
<sym>Dot</sym>
</trkpt>
<trkpt lat="47.879508" lon="15.605508">
<ele>625.0</ele>
<desc>Speed 32.8 km/h Distance 111 km</desc>
<time>2012-09-18T17:22:36.76</time>
<name>5591</name>
<sym>Dot</sym>
</trkpt>
<trkpt lat="47.879447" lon="15.605580">
<ele>626.5</ele>
<desc>Speed 32.3 km/h Distance 111 km</desc>
<time>2012-09-18T17:22:37.75</time>
<name>5592</name>
<sym>Dot</sym>
</trkpt>
<trkpt lat="47.878910" lon="15.606208">
<ele>631.5</ele>
<desc>Speed 58.0 km/h Distance 111 km</desc>
<time>2012-09-18T17:22:42.77</time>
<name>5593</name>
<sym>Dot</sym>
</trkpt>
<trkpt lat="47.878773" lon="15.606310">
<ele>633.5</ele>
<desc>Speed 61.7 km/h Distance 111 km</desc>
<time>2012-09-18T17:22:43.76</time>
<name>5594</name>
<sym>Dot</sym>
</trkpt>
<trkpt lat="47.878612" lon="15.606395">
<ele>635.5</ele>
<desc>Speed 68.9 km/h Distance 111 km</desc>
<time>2012-09-18T17:22:44.76</time>
<name>5595</name>
<sym>Dot</sym>
</trkpt>
<trkpt lat="47.878458" lon="15.606502">
<ele>636.5</ele>
<desc>Speed 68.5 km/h Distance 111 km</desc>
<time>2012-09-18T17:22:45.75</time>
<name>5596</name>
<sym>Dot</sym>
</trkpt>
<trkpt lat="47.878313" lon="15.606640">
<ele>637.5</ele>
<desc>Speed 69.0 km/h Distance 111 km</desc>
<time>2012-09-18T17:22:46.75</time>
<name>5597</name>
<sym>Dot</sym>
</trkpt>
<trkpt lat="47.878043" lon="15.607073">
<ele>638.0</ele>
<desc>Speed 81.2 km/h Distance 111 km</desc>
<time>2012-09-18T17:22:48.75</time>
<name>5598</name>
<sym>Dot</sym>
</trkpt>
<trkpt lat="47.877748" lon="15.607565">
<ele>641.5</ele>
<desc>Speed 89.5 km/h Distance 111 km</desc>
<time>2012-09-18T17:22:50.74</time>
<name>5599</name>
<sym>Dot</sym>
</trkpt>
<trkpt lat="47.877598" lon="15.607797">
<ele>643.5</ele>
<desc>Speed 86.8 km/h Distance 111 km</desc>
<time>2012-09-18T17:22:51.73</time>
<name>5600</name>
<sym>Dot</sym>
</trkpt>
<trkpt lat="47.877162" lon="15.608270">
<ele>648.0</ele>
<desc>Speed 68.8 km/h Distance 111 km</desc>
<time>2012-09-18T17:22:54.75</time>
<name>5601</name>
<sym>Dot</sym>
</trkpt>
<trkpt lat="47.876995" lon="15.608373">
<ele>650.0</ele>
<desc>Speed 72.4 km/h Distance 111 km</desc>
<time>2012-09-18T17:22:55.75</time>
<name>5602</name>
<sym>Dot</sym>
</trkpt>
<trkpt lat="47.876675" lon="15.608727">
<ele>651.5</ele>
<desc>Speed 81.2 km/h Distance 111 km</desc>
<time>2012-09-18T17:22:57.75</time>
<name>5603</name>
<sym>Dot</sym>
</trkpt>
<trkpt lat="47.876540" lon="15.608935">
<ele>651.5</ele>
<desc>Speed 79.0 km/h Distance 111 km</desc>
<time>2012-09-18T17:22:58.74</time>
<name>5604</name>
<sym>Dot</sym>
</trkpt>
<trkpt lat="47.876420" lon="15.609153">
<ele>653.0</ele>
<desc>Speed 76.6 km/h Distance 111 km</desc>
<time>2012-09-18T17:22:59.74</time>
<name>5605</name>
<sym>Dot</sym>
</trkpt>
<trkpt lat="47.876327" lon="15.609402">
<ele>654.0</ele>
<desc>Speed 77.3 km/h Distance 111 km</desc>
<time>2012-09-18T17:23:00.74</time>
<name>5606</name>
<sym>Dot</sym>
</trkpt>
<trkpt lat="47.876253" lon="15.609663">
<ele>654.0</ele>
<desc>Speed 77.2 km/h Distance 111 km</desc>
<time>2012-09-18T17:23:01.74</time>
<name>5607</name>
<sym>Dot</sym>
</trkpt>
<trkpt lat="47.876220" lon="15.610488">
<ele>655.5</ele>
<desc>Speed 51.3 km/h Distance 111 km</desc>
<time>2012-09-18T17:23:05.76</time>
<name>5608</name>
<sym>Dot</sym>
</trkpt>
<trkpt lat="47.876280" lon="15.610680">
<ele>656.5</ele>
<desc>Speed 57.8 km/h Distance 111 km</desc>
<time>2012-09-18T17:23:06.76</time>
<name>5609</name>
<sym>Dot</sym>
</trkpt>
<trkpt lat="47.876300" lon="15.610897">
<ele>657.0</ele>
<desc>Speed 60.1 km/h Distance 111 km</desc>
<time>2012-09-18T17:23:07.75</time>
<name>5610</name>
<sym>Dot</sym>
</trkpt>
<trkpt lat="47.876288" lon="15.611135">
<ele>657.0</ele>
<desc>Speed 64.6 km/h Distance 111 km</desc>
<time>2012-09-18T17:23:08.75</time>
<name>5611</name>
<sym>Dot</sym>
</trkpt>
<trkpt lat="47.876317" lon="15.611365">
<ele>657.5</ele>
<desc>Speed 63.7 km/h Distance 111 km</desc>
<time>2012-09-18T17:23:09.73</time>
<name>5612</name>
<sym>Dot</sym>
</trkpt>
<trkpt lat="47.876470" lon="15.611820">
<ele>658.0</ele>
<desc>Speed 65.5 km/h Distance 111 km</desc>
<time>2012-09-18T17:23:11.73</time>
<name>5613</name>
<sym>Dot</sym>
</trkpt>
<trkpt lat="47.876503" lon="15.612082">
<ele>658.0</ele>
<desc>Speed 72.2 km/h Distance 111 km</desc>
<time>2012-09-18T17:23:12.73</time>
<name>5614</name>
<sym>Dot</sym>
</trkpt>
<trkpt lat="47.876523" lon="15.612363">
<ele>658.0</ele>
<desc>Speed 76.9 km/h Distance 111 km</desc>
<time>2012-09-18T17:23:13.72</time>
<name>5615</name>
<sym>Dot</sym>
</trkpt>
<trkpt lat="47.876515" lon="15.612645">
<ele>659.5</ele>
<desc>Speed 76.7 km/h Distance 111 km</desc>
<time>2012-09-18T17:23:14.71</time>
<name>5616</name>
<sym>Dot</sym>
</trkpt>
<trkpt lat="47.876502" lon="15.612915">
<ele>660.5</ele>
<desc>Speed 74.2 km/h Distance 111 km</desc>
<time>2012-09-18T17:23:15.70</time>
<name>5617</name>
<sym>Dot</sym>
</trkpt>
<trkpt lat="47.876573" lon="15.613543">
<ele>665.0</ele>
<desc>Speed 53.2 km/h Distance 111 km</desc>
<time>2012-09-18T17:23:18.77</time>
<name>5618</name>
<sym>Dot</sym>
</trkpt>
<trkpt lat="47.876665" lon="15.613692">
<ele>664.5</ele>
<desc>Speed 54.3 km/h Distance 111 km</desc>
<time>2012-09-18T17:23:19.74</time>
<name>5619</name>
<sym>Dot</sym>
</trkpt>
<trkpt lat="47.876932" lon="15.613955">
<ele>665.5</ele>
<desc>Speed 65.4 km/h Distance 111 km</desc>
<time>2012-09-18T17:23:21.74</time>
<name>5620</name>
<sym>Dot</sym>
</trkpt>
<trkpt lat="47.877050" lon="15.614122">
<ele>666.5</ele>
<desc>Speed 65.4 km/h Distance 111 km</desc>
<time>2012-09-18T17:23:22.74</time>
<name>5621</name>
<sym>Dot</sym>
</trkpt>
<trkpt lat="47.877180" lon="15.614237">
<ele>667.0</ele>
<desc>Speed 60.7 km/h Distance 111 km</desc>
<time>2012-09-18T17:23:23.73</time>
<name>5622</name>
<sym>Dot</sym>
</trkpt>
<trkpt lat="47.877485" lon="15.614513">
<ele>667.5</ele>
<desc>Speed 69.7 km/h Distance 111 km</desc>
<time>2012-09-18T17:23:25.73</time>
<name>5623</name>
<sym>Dot</sym>
</trkpt>
<trkpt lat="47.877753" lon="15.615002">
<ele>667.0</ele>
<desc>Speed 57.3 km/h Distance 112 km</desc>
<time>2012-09-18T17:23:28.74</time>
<name>5624</name>
<sym>Dot</sym>
</trkpt>
<trkpt lat="47.877815" lon="15.615172">
<ele>668.0</ele>
<desc>Speed 52.1 km/h Distance 112 km</desc>
<time>2012-09-18T17:23:29.75</time>
<name>5625</name>
<sym>Dot</sym>
</trkpt>
<trkpt lat="47.877925" lon="15.615292">
<ele>668.5</ele>
<desc>Speed 55.1 km/h Distance 112 km</desc>
<time>2012-09-18T17:23:30.74</time>
<name>5626</name>
<sym>Dot</sym>
</trkpt>
<trkpt lat="47.878042" lon="15.615387">
<ele>670.0</ele>
<desc>Speed 54.2 km/h Distance 112 km</desc>
<time>2012-09-18T17:23:31.74</time>
<name>5627</name>
<sym>Dot</sym>
</trkpt>
<trkpt lat="47.878147" lon="15.615490">
<ele>672.0</ele>
<desc>Speed 51.8 km/h Distance 112 km</desc>
<time>2012-09-18T17:23:32.73</time>
<name>5628</name>
<sym>Dot</sym>
</trkpt>
<trkpt lat="47.878243" lon="15.615617">
<ele>673.0</ele>
<desc>Speed 52.5 km/h Distance 112 km</desc>
<time>2012-09-18T17:23:33.72</time>
<name>5629</name>
<sym>Dot</sym>
</trkpt>
<trkpt lat="47.878305" lon="15.615803">
<ele>676.0</ele>
<desc>Speed 57.7 km/h Distance 112 km</desc>
<time>2012-09-18T17:23:34.73</time>
<name>5630</name>
<sym>Dot</sym>
</trkpt>
<trkpt lat="47.878378" lon="15.615992">
<ele>679.0</ele>
<desc>Speed 60.0 km/h Distance 112 km</desc>
<time>2012-09-18T17:23:35.71</time>
<name>5631</name>
<sym>Dot</sym>
</trkpt>
<trkpt lat="47.878487" lon="15.616162">
<ele>679.5</ele>
<desc>Speed 63.2 km/h Distance 112 km</desc>
<time>2012-09-18T17:23:36.71</time>
<name>5632</name>
<sym>Dot</sym>
</trkpt>
<trkpt lat="47.878740" lon="15.616435">
<ele>683.5</ele>
<desc>Speed 55.9 km/h Distance 112 km</desc>
<time>2012-09-18T17:23:38.70</time>
<name>5633</name>
<sym>Dot</sym>
</trkpt>
<trkpt lat="47.878893" lon="15.616772">
<ele>688.5</ele>
<desc>Speed 39.7 km/h Distance 112 km</desc>
<time>2012-09-18T17:23:41.74</time>
<name>5634</name>
<sym>Dot</sym>
</trkpt>
<trkpt lat="47.878885" lon="15.616938">
<ele>690.0</ele>
<desc>Speed 44.6 km/h Distance 112 km</desc>
<time>2012-09-18T17:23:42.75</time>
<name>5635</name>
<sym>Dot</sym>
</trkpt>
<trkpt lat="47.878772" lon="15.617272">
<ele>693.5</ele>
<desc>Speed 48.1 km/h Distance 112 km</desc>
<time>2012-09-18T17:23:44.75</time>
<name>5636</name>
<sym>Dot</sym>
</trkpt>
<trkpt lat="47.878683" lon="15.617410">
<ele>694.5</ele>
<desc>Speed 50.9 km/h Distance 112 km</desc>
<time>2012-09-18T17:23:45.74</time>
<name>5637</name>
<sym>Dot</sym>
</trkpt>
<trkpt lat="47.878587" lon="15.617528">
<ele>695.0</ele>
<desc>Speed 50.3 km/h Distance 112 km</desc>
<time>2012-09-18T17:23:46.79</time>
<name>5638</name>
<sym>Dot</sym>
</trkpt>
<trkpt lat="47.878492" lon="15.617635">
<ele>697.5</ele>
<desc>Speed 47.4 km/h Distance 112 km</desc>
<time>2012-09-18T17:23:47.71</time>
<name>5639</name>
<sym>Dot</sym>
</trkpt>
<trkpt lat="47.878430" lon="15.617770">
<ele>698.0</ele>
<desc>Speed 45.3 km/h Distance 112 km</desc>
<time>2012-09-18T17:23:48.70</time>
<name>5640</name>
<sym>Dot</sym>
</trkpt>
<trkpt lat="47.878420" lon="15.617928">
<ele>698.0</ele>
<desc>Speed 43.1 km/h Distance 112 km</desc>
<time>2012-09-18T17:23:49.69</time>
<name>5641</name>
<sym>Dot</sym>
</trkpt>
<trkpt lat="47.878442" lon="15.618062">
<ele>697.5</ele>
<desc>Speed 37.6 km/h Distance 112 km</desc>
<time>2012-09-18T17:23:50.69</time>
<name>5642</name>
<sym>Dot</sym>
</trkpt>
<trkpt lat="47.878608" lon="15.618588">
<ele>703.0</ele>
<desc>Speed 48.9 km/h Distance 112 km</desc>
<time>2012-09-18T17:23:53.76</time>
<name>5643</name>
<sym>Dot</sym>
</trkpt>
<trkpt lat="47.878617" lon="15.618752">
<ele>704.5</ele>
<desc>Speed 45.6 km/h Distance 112 km</desc>
<time>2012-09-18T17:23:54.76</time>
<name>5644</name>
<sym>Dot</sym>
</trkpt>
<trkpt lat="47.878595" lon="15.618933">
<ele>707.0</ele>
<desc>Speed 49.2 km/h Distance 112 km</desc>
<time>2012-09-18T17:23:55.75</time>
<name>5645</name>
<sym>Dot</sym>
</trkpt>
<trkpt lat="47.878548" lon="15.619100">
<ele>706.5</ele>
<desc>Speed 49.6 km/h Distance 112 km</desc>
<time>2012-09-18T17:23:56.73</time>
<name>5646</name>
<sym>Dot</sym>
</trkpt>
<trkpt lat="47.878485" lon="15.619260">
<ele>707.0</ele>
<desc>Speed 50.6 km/h Distance 112 km</desc>
<time>2012-09-18T17:23:57.73</time>
<name>5647</name>
<sym>Dot</sym>
</trkpt>
<trkpt lat="47.878450" lon="15.619455">
<ele>708.0</ele>
<desc>Speed 54.5 km/h Distance 112 km</desc>
<time>2012-09-18T17:23:58.72</time>
<name>5648</name>
<sym>Dot</sym>
</trkpt>
<trkpt lat="47.878442" lon="15.619668">
<ele>709.0</ele>
<desc>Speed 58.5 km/h Distance 112 km</desc>
<time>2012-09-18T17:23:59.72</time>
<name>5649</name>
<sym>Dot</sym>
</trkpt>
<trkpt lat="47.878433" lon="15.619875">
<ele>709.0</ele>
<desc>Speed 56.6 km/h Distance 112 km</desc>
<time>2012-09-18T17:24:00.71</time>
<name>5650</name>
<sym>Dot</sym>
</trkpt>
<trkpt lat="47.878408" lon="15.620065">
<ele>709.5</ele>
<desc>Speed 52.7 km/h Distance 112 km</desc>
<time>2012-09-18T17:24:01.72</time>
<name>5651</name>
<sym>Dot</sym>
</trkpt>
<trkpt lat="47.878378" lon="15.620263">
<ele>709.0</ele>
<desc>Speed 55.9 km/h Distance 112 km</desc>
<time>2012-09-18T17:24:02.71</time>
<name>5652</name>
<sym>Dot</sym>
</trkpt>
<trkpt lat="47.878322" lon="15.620458">
<ele>709.5</ele>
<desc>Speed 57.5 km/h Distance 112 km</desc>
<time>2012-09-18T17:24:03.71</time>
<name>5653</name>
<sym>Dot</sym>
</trkpt>
<trkpt lat="47.878247" lon="15.620618">
<ele>709.5</ele>
<desc>Speed 53.2 km/h Distance 112 km</desc>
<time>2012-09-18T17:24:04.71</time>
<name>5654</name>
<sym>Dot</sym>
</trkpt>
<trkpt lat="47.878175" lon="15.620760">
<ele>709.0</ele>
<desc>Speed 47.4 km/h Distance 112 km</desc>
<time>2012-09-18T17:24:05.70</time>
<name>5655</name>
<sym>Dot</sym>
</trkpt>
<trkpt lat="47.878133" lon="15.620902">
<ele>709.0</ele>
<desc>Speed 42.5 km/h Distance 112 km</desc>
<time>2012-09-18T17:24:06.69</time>
<name>5656</name>
<sym>Dot</sym>
</trkpt>
<trkpt lat="47.878237" lon="15.621158">
<ele>709.5</ele>
<desc>Speed 49.7 km/h Distance 112 km</desc>
<time>2012-09-18T17:24:08.68</time>
<name>5657</name>
<sym>Dot</sym>
</trkpt>
<trkpt lat="47.878342" lon="15.621265">
<ele>709.5</ele>
<desc>Speed 51.0 km/h Distance 112 km</desc>
<time>2012-09-18T17:24:09.69</time>
<name>5658</name>
<sym>Dot</sym>
</trkpt>
<trkpt lat="47.878817" lon="15.621422">
<ele>710.0</ele>
<desc>Speed 70.1 km/h Distance 112 km</desc>
<time>2012-09-18T17:24:12.75</time>
<name>5659</name>
<sym>Dot</sym>
</trkpt>
<trkpt lat="47.878992" lon="15.621412">
<ele>709.5</ele>
<desc>Speed 71.8 km/h Distance 112 km</desc>
<time>2012-09-18T17:24:13.74</time>
<name>5660</name>
<sym>Dot</sym>
</trkpt>
<trkpt lat="47.879305" lon="15.621395">
<ele>712.5</ele>
<desc>Speed 62.9 km/h Distance 112 km</desc>
<time>2012-09-18T17:24:15.74</time>
<name>5661</name>
<sym>Dot</sym>
</trkpt>
<trkpt lat="47.879457" lon="15.621457">
<ele>711.5</ele>
<desc>Speed 63.0 km/h Distance 112 km</desc>
<time>2012-09-18T17:24:16.73</time>
<name>5662</name>
<sym>Dot</sym>
</trkpt>
<trkpt lat="47.879603" lon="15.621560">
<ele>710.5</ele>
<desc>Speed 65.7 km/h Distance 112 km</desc>
<time>2012-09-18T17:24:17.72</time>
<name>5663</name>
<sym>Dot</sym>
</trkpt>
<trkpt lat="47.879907" lon="15.621845">
<ele>711.5</ele>
<desc>Speed 70.9 km/h Distance 112 km</desc>
<time>2012-09-18T17:24:19.71</time>
<name>5664</name>
<sym>Dot</sym>
</trkpt>
<trkpt lat="47.880263" lon="15.622405">
<ele>708.5</ele>
<desc>Speed 33.5 km/h Distance 112 km</desc>
<time>2012-09-18T17:24:24.75</time>
<name>5665</name>
<sym>Dot</sym>
</trkpt>
<trkpt lat="47.880247" lon="15.622508">
<ele>710.5</ele>
<desc>Speed 28.3 km/h Distance 112 km</desc>
<time>2012-09-18T17:24:25.74</time>
<name>5666</name>
<sym>Dot</sym>
</trkpt>
<trkpt lat="47.880178" lon="15.622578">
<ele>714.0</ele>
<desc>Speed 31.9 km/h Distance 112 km</desc>
<time>2012-09-18T17:24:26.74</time>
<name>5667</name>
<sym>Dot</sym>
</trkpt>
<trkpt lat="47.879513" lon="15.623342">
<ele>721.0</ele>
<desc>Speed 72.0 km/h Distance 112 km</desc>
<time>2012-09-18T17:24:31.76</time>
<name>5668</name>
<sym>Dot</sym>
</trkpt>
<trkpt lat="47.879388" lon="15.623497">
<ele>721.0</ele>
<desc>Speed 64.9 km/h Distance 112 km</desc>
<time>2012-09-18T17:24:32.74</time>
<name>5669</name>
<sym>Dot</sym>
</trkpt>
<trkpt lat="47.879107" lon="15.623645">
<ele>718.0</ele>
<desc>Speed 64.5 km/h Distance 113 km</desc>
<time>2012-09-18T17:24:34.73</time>
<name>5670</name>
<sym>Dot</sym>
</trkpt>
<trkpt lat="47.878953" lon="15.623693">
<ele>719.5</ele>
<desc>Speed 61.6 km/h Distance 113 km</desc>
<time>2012-09-18T17:24:35.73</time>
<name>5671</name>
<sym>Dot</sym>
</trkpt>
<trkpt lat="47.878713" lon="15.623857">
<ele>721.0</ele>
<desc>Speed 50.9 km/h Distance 113 km</desc>
<time>2012-09-18T17:24:37.72</time>
<name>5672</name>
<sym>Dot</sym>
</trkpt>
<trkpt lat="47.878635" lon="15.623997">
<ele>723.5</ele>
<desc>Speed 49.4 km/h Distance 113 km</desc>
<time>2012-09-18T17:24:38.72</time>
<name>5673</name>
<sym>Dot</sym>
</trkpt>
<trkpt lat="47.878560" lon="15.624163">
<ele>724.0</ele>
<desc>Speed 53.9 km/h Distance 113 km</desc>
<time>2012-09-18T17:24:39.72</time>
<name>5674</name>
<sym>Dot</sym>
</trkpt>
<trkpt lat="47.878518" lon="15.624357">
<ele>725.5</ele>
<desc>Speed 54.4 km/h Distance 113 km</desc>
<time>2012-09-18T17:24:40.72</time>
<name>5675</name>
<sym>Dot</sym>
</trkpt>
<trkpt lat="47.878448" lon="15.624538">
<ele>727.0</ele>
<desc>Speed 56.6 km/h Distance 113 km</desc>
<time>2012-09-18T17:24:41.72</time>
<name>5676</name>
<sym>Dot</sym>
</trkpt>
<trkpt lat="47.878345" lon="15.624697">
<ele>727.0</ele>
<desc>Speed 59.1 km/h Distance 113 km</desc>
<time>2012-09-18T17:24:42.73</time>
<name>5677</name>
<sym>Dot</sym>
</trkpt>
<trkpt lat="47.878235" lon="15.624845">
<ele>727.0</ele>
<desc>Speed 59.2 km/h Distance 113 km</desc>
<time>2012-09-18T17:24:43.72</time>
<name>5678</name>
<sym>Dot</sym>
</trkpt>
<trkpt lat="47.878137" lon="15.624997">
<ele>726.5</ele>
<desc>Speed 56.7 km/h Distance 113 km</desc>
<time>2012-09-18T17:24:44.72</time>
<name>5679</name>
<sym>Dot</sym>
</trkpt>
<trkpt lat="47.878073" lon="15.625188">
<ele>728.5</ele>
<desc>Speed 57.1 km/h Distance 113 km</desc>
<time>2012-09-18T17:24:45.71</time>
<name>5680</name>
<sym>Dot</sym>
</trkpt>
<trkpt lat="47.877960" lon="15.625965">
<ele>728.5</ele>
<desc>Speed 74.3 km/h Distance 113 km</desc>
<time>2012-09-18T17:24:48.75</time>
<name>5681</name>
<sym>Dot</sym>
</trkpt>
<trkpt lat="47.877925" lon="15.626218">
<ele>729.0</ele>
<desc>Speed 69.1 km/h Distance 113 km</desc>
<time>2012-09-18T17:24:49.75</time>
<name>5682</name>
<sym>Dot</sym>
</trkpt>
<trkpt lat="47.878013" lon="15.626835">
<ele>729.5</ele>
<desc>Speed 60.5 km/h Distance 113 km</desc>
<time>2012-09-18T17:24:52.75</time>
<name>5683</name>
<sym>Dot</sym>
</trkpt>
<trkpt lat="47.878397" lon="15.626945">
<ele>729.5</ele>
<desc>Speed 49.3 km/h Distance 113 km</desc>
<time>2012-09-18T17:24:56.75</time>
<name>5684</name>
<sym>Dot</sym>
</trkpt>
<trkpt lat="47.878902" lon="15.626768">
<ele>731.5</ele>
<desc>Speed 67.3 km/h Distance 113 km</desc>
<time>2012-09-18T17:24:59.75</time>
<name>5685</name>
<sym>Dot</sym>
</trkpt>
<trkpt lat="47.879228" lon="15.626757">
<ele>732.5</ele>
<desc>Speed 65.0 km/h Distance 113 km</desc>
<time>2012-09-18T17:25:01.74</time>
<name>5686</name>
<sym>Dot</sym>
</trkpt>
<trkpt lat="47.879578" lon="15.626858">
<ele>734.0</ele>
<desc>Speed 67.1 km/h Distance 113 km</desc>
<time>2012-09-18T17:25:03.73</time>
<name>5687</name>
<sym>Dot</sym>
</trkpt>
<trkpt lat="47.879887" lon="15.627180">
<ele>736.5</ele>
<desc>Speed 27.7 km/h Distance 113 km</desc>
<time>2012-09-18T17:25:08.75</time>
<name>5688</name>
<sym>Dot</sym>
</trkpt>
<trkpt lat="47.879483" lon="15.627992">
<ele>742.0</ele>
<desc>Speed 60.7 km/h Distance 113 km</desc>
<time>2012-09-18T17:25:13.75</time>
<name>5689</name>
<sym>Dot</sym>
</trkpt>
<trkpt lat="47.879178" lon="15.628265">
<ele>743.5</ele>
<desc>Speed 73.1 km/h Distance 113 km</desc>
<time>2012-09-18T17:25:15.75</time>
<name>5690</name>
<sym>Dot</sym>
</trkpt>
<trkpt lat="47.879035" lon="15.628413">
<ele>744.5</ele>
<desc>Speed 69.8 km/h Distance 113 km</desc>
<time>2012-09-18T17:25:16.73</time>
<name>5691</name>
<sym>Dot</sym>
</trkpt>
<trkpt lat="47.878913" lon="15.628570">
<ele>745.0</ele>
<desc>Speed 64.6 km/h Distance 113 km</desc>
<time>2012-09-18T17:25:17.74</time>
<name>5692</name>
<sym>Dot</sym>
</trkpt>
<trkpt lat="47.878783" lon="15.628907">
<ele>745.5</ele>
<desc>Speed 50.4 km/h Distance 113 km</desc>
<time>2012-09-18T17:25:19.74</time>
<name>5693</name>
<sym>Dot</sym>
</trkpt>
<trkpt lat="47.878797" lon="15.629220">
<ele>747.5</ele>
<desc>Speed 43.8 km/h Distance 113 km</desc>
<time>2012-09-18T17:25:21.73</time>
<name>5694</name>
<sym>Dot</sym>
</trkpt>
<trkpt lat="47.878800" lon="15.629373">
<ele>748.0</ele>
<desc>Speed 41.8 km/h Distance 113 km</desc>
<time>2012-09-18T17:25:22.71</time>
<name>5695</name>
<sym>Dot</sym>
</trkpt>
<trkpt lat="47.878765" lon="15.629525">
<ele>748.5</ele>
<desc>Speed 43.7 km/h Distance 113 km</desc>
<time>2012-09-18T17:25:23.72</time>
<name>5696</name>
<sym>Dot</sym>
</trkpt>
<trkpt lat="47.878722" lon="15.629655">
<ele>749.0</ele>
<desc>Speed 39.3 km/h Distance 113 km</desc>
<time>2012-09-18T17:25:24.71</time>
<name>5697</name>
<sym>Dot</sym>
</trkpt>
<trkpt lat="47.878668" lon="15.629762">
<ele>750.0</ele>
<desc>Speed 36.4 km/h Distance 113 km</desc>
<time>2012-09-18T17:25:25.70</time>
<name>5698</name>
<sym>Dot</sym>
</trkpt>
<trkpt lat="47.878575" lon="15.629817">
<ele>750.5</ele>
<desc>Speed 36.4 km/h Distance 113 km</desc>
<time>2012-09-18T17:25:26.71</time>
<name>5699</name>
<sym>Dot</sym>
</trkpt>
<trkpt lat="47.878015" lon="15.629875">
<ele>754.0</ele>
<desc>Speed 44.9 km/h Distance 113 km</desc>
<time>2012-09-18T17:25:30.74</time>
<name>5700</name>
<sym>Dot</sym>
</trkpt>
<trkpt lat="47.877927" lon="15.629988">
<ele>754.5</ele>
<desc>Speed 46.6 km/h Distance 113 km</desc>
<time>2012-09-18T17:25:31.75</time>
<name>5701</name>
<sym>Dot</sym>
</trkpt>
<trkpt lat="47.877870" lon="15.630138">
<ele>755.0</ele>
<desc>Speed 46.3 km/h Distance 113 km</desc>
<time>2012-09-18T17:25:32.73</time>
<name>5702</name>
<sym>Dot</sym>
</trkpt>
<trkpt lat="47.877815" lon="15.630313">
<ele>755.0</ele>
<desc>Speed 52.7 km/h Distance 113 km</desc>
<time>2012-09-18T17:25:33.74</time>
<name>5703</name>
<sym>Dot</sym>
</trkpt>
<trkpt lat="47.877745" lon="15.630495">
<ele>755.5</ele>
<desc>Speed 56.8 km/h Distance 113 km</desc>
<time>2012-09-18T17:25:34.72</time>
<name>5704</name>
<sym>Dot</sym>
</trkpt>
<trkpt lat="47.877672" lon="15.630647">
<ele>756.0</ele>
<desc>Speed 50.3 km/h Distance 113 km</desc>
<time>2012-09-18T17:25:35.73</time>
<name>5705</name>
<sym>Dot</sym>
</trkpt>
<trkpt lat="47.877603" lon="15.630770">
<ele>758.5</ele>
<desc>Speed 43.3 km/h Distance 113 km</desc>
<time>2012-09-18T17:25:36.72</time>
<name>5706</name>
<sym>Dot</sym>
</trkpt>
<trkpt lat="47.877567" lon="15.630913">
<ele>759.0</ele>
<desc>Speed 40.6 km/h Distance 113 km</desc>
<time>2012-09-18T17:25:37.72</time>
<name>5707</name>
<sym>Dot</sym>
</trkpt>
<trkpt lat="47.877588" lon="15.631082">
<ele>759.5</ele>
<desc>Speed 44.8 km/h Distance 113 km</desc>
<time>2012-09-18T17:25:38.71</time>
<name>5708</name>
<sym>Dot</sym>
</trkpt>
<trkpt lat="47.877863" lon="15.631635">
<ele>760.0</ele>
<desc>Speed 65.8 km/h Distance 114 km</desc>
<time>2012-09-18T17:25:41.75</time>
<name>5709</name>
<sym>Dot</sym>
</trkpt>
<trkpt lat="47.877995" lon="15.631822">
<ele>763.0</ele>
<desc>Speed 66.4 km/h Distance 114 km</desc>
<time>2012-09-18T17:25:42.74</time>
<name>5710</name>
<sym>Dot</sym>
</trkpt>
<trkpt lat="47.878128" lon="15.631982">
<ele>765.5</ele>
<desc>Speed 64.0 km/h Distance 114 km</desc>
<time>2012-09-18T17:25:43.73</time>
<name>5711</name>
<sym>Dot</sym>
</trkpt>
<trkpt lat="47.878477" lon="15.632220">
<ele>770.5</ele>
<desc>Speed 70.9 km/h Distance 114 km</desc>
<time>2012-09-18T17:25:45.73</time>
<name>5712</name>
<sym>Dot</sym>
</trkpt>
<trkpt lat="47.878807" lon="15.632900">
<ele>783.0</ele>
<desc>Speed 39.3 km/h Distance 114 km</desc>
<time>2012-09-18T17:25:51.75</time>
<name>5713</name>
<sym>Dot</sym>
</trkpt>
<trkpt lat="47.878725" lon="15.633013">
<ele>783.0</ele>
<desc>Speed 45.0 km/h Distance 114 km</desc>
<time>2012-09-18T17:25:52.75</time>
<name>5714</name>
<sym>Dot</sym>
</trkpt>
<trkpt lat="47.878293" lon="15.633718">
<ele>784.5</ele>
<desc>Speed 69.0 km/h Distance 114 km</desc>
<time>2012-09-18T17:25:56.75</time>
<name>5715</name>
<sym>Dot</sym>
</trkpt>
<trkpt lat="47.878207" lon="15.633907">
<ele>785.0</ele>
<desc>Speed 61.9 km/h Distance 114 km</desc>
<time>2012-09-18T17:25:57.74</time>
<name>5716</name>
<sym>Dot</sym>
</trkpt>
<trkpt lat="47.878042" lon="15.634337">
<ele>785.0</ele>
<desc>Speed 44.6 km/h Distance 114 km</desc>
<time>2012-09-18T17:26:00.75</time>
<name>5717</name>
<sym>Dot</sym>
</trkpt>
<trkpt lat="47.878152" lon="15.634627">
<ele>786.5</ele>
<desc>Speed 32.5 km/h Distance 114 km</desc>
<time>2012-09-18T17:26:03.75</time>
<name>5718</name>
<sym>Dot</sym>
</trkpt>
<trkpt lat="47.879222" lon="15.635743">
<ele>802.5</ele>
<desc>Speed 71.4 km/h Distance 114 km</desc>
<time>2012-09-18T17:26:09.74</time>
<name>5719</name>
<sym>Dot</sym>
</trkpt>
<trkpt lat="47.879438" lon="15.636100">
<ele>803.5</ele>
<desc>Speed 60.2 km/h Distance 114 km</desc>
<time>2012-09-18T17:26:11.74</time>
<name>5720</name>
<sym>Dot</sym>
</trkpt>
<trkpt lat="47.879590" lon="15.636583">
<ele>806.0</ele>
<desc>Speed 69.0 km/h Distance 114 km</desc>
<time>2012-09-18T17:26:13.73</time>
<name>5721</name>
<sym>Dot</sym>
</trkpt>
<trkpt lat="47.879962" lon="15.637315">
<ele>810.0</ele>
<desc>Speed 81.4 km/h Distance 114 km</desc>
<time>2012-09-18T17:26:16.72</time>
<name>5722</name>
<sym>Dot</sym>
</trkpt>
<trkpt lat="47.880308" lon="15.637965">
<ele>814.0</ele>
<desc>Speed 94.6 km/h Distance 114 km</desc>
<time>2012-09-18T17:26:19.73</time>
<name>5723</name>
<sym>Dot</sym>
</trkpt>
<trkpt lat="47.880932" lon="15.638248">
<ele>820.0</ele>
<desc>Speed 58.5 km/h Distance 114 km</desc>
<time>2012-09-18T17:26:24.73</time>
<name>5724</name>
<sym>Dot</sym>
</trkpt>
<trkpt lat="47.881262" lon="15.638425">
<ele>823.5</ele>
<desc>Speed 61.0 km/h Distance 114 km</desc>
<time>2012-09-18T17:26:26.73</time>
<name>5725</name>
<sym>Dot</sym>
</trkpt>
<trkpt lat="47.881408" lon="15.638548">
<ele>825.5</ele>
<desc>Speed 63.8 km/h Distance 114 km</desc>
<time>2012-09-18T17:26:27.74</time>
<name>5726</name>
<sym>Dot</sym>
</trkpt>
<trkpt lat="47.881550" lon="15.638680">
<ele>828.0</ele>
<desc>Speed 63.5 km/h Distance 114 km</desc>
<time>2012-09-18T17:26:28.72</time>
<name>5727</name>
<sym>Dot</sym>
</trkpt>
<trkpt lat="47.881688" lon="15.638813">
<ele>829.5</ele>
<desc>Speed 61.6 km/h Distance 114 km</desc>
<time>2012-09-18T17:26:29.72</time>
<name>5728</name>
<sym>Dot</sym>
</trkpt>
<trkpt lat="47.881808" lon="15.638950">
<ele>830.5</ele>
<desc>Speed 57.9 km/h Distance 114 km</desc>
<time>2012-09-18T17:26:30.72</time>
<name>5729</name>
<sym>Dot</sym>
</trkpt>
<trkpt lat="47.881988" lon="15.639193">
<ele>831.0</ele>
<desc>Speed 49.2 km/h Distance 114 km</desc>
<time>2012-09-18T17:26:32.71</time>
<name>5730</name>
<sym>Dot</sym>
</trkpt>
<trkpt lat="47.882397" lon="15.639612">
<ele>832.5</ele>
<desc>Speed 70.6 km/h Distance 114 km</desc>
<time>2012-09-18T17:26:35.74</time>
<name>5731</name>
<sym>Dot</sym>
</trkpt>
<trkpt lat="47.882567" lon="15.639728">
<ele>831.5</ele>
<desc>Speed 73.1 km/h Distance 114 km</desc>
<time>2012-09-18T17:26:36.73</time>
<name>5732</name>
<sym>Dot</sym>
</trkpt>
<trkpt lat="47.882960" lon="15.639930">
<ele>834.5</ele>
<desc>Speed 83.0 km/h Distance 114 km</desc>
<time>2012-09-18T17:26:38.74</time>
<name>5733</name>
<sym>Dot</sym>
</trkpt>
<trkpt lat="47.883150" lon="15.640043">
<ele>836.5</ele>
<desc>Speed 80.0 km/h Distance 115 km</desc>
<time>2012-09-18T17:26:39.73</time>
<name>5734</name>
<sym>Dot</sym>
</trkpt>
<trkpt lat="47.883337" lon="15.640175">
<ele>838.5</ele>
<desc>Speed 80.7 km/h Distance 115 km</desc>
<time>2012-09-18T17:26:40.71</time>
<name>5735</name>
<sym>Dot</sym>
</trkpt>
<trkpt lat="47.883505" lon="15.640340">
<ele>840.0</ele>
<desc>Speed 79.2 km/h Distance 115 km</desc>
<time>2012-09-18T17:26:41.71</time>
<name>5736</name>
<sym>Dot</sym>
</trkpt>
<trkpt lat="47.883637" lon="15.640530">
<ele>839.5</ele>
<desc>Speed 72.6 km/h Distance 115 km</desc>
<time>2012-09-18T17:26:42.71</time>
<name>5737</name>
<sym>Dot</sym>
</trkpt>
<trkpt lat="47.883962" lon="15.641090">
<ele>847.0</ele>
<desc>Speed 47.7 km/h Distance 115 km</desc>
<time>2012-09-18T17:26:46.73</time>
<name>5738</name>
<sym>Dot</sym>
</trkpt>
<trkpt lat="47.883958" lon="15.641283">
<ele>847.0</ele>
<desc>Speed 51.4 km/h Distance 115 km</desc>
<time>2012-09-18T17:26:47.72</time>
<name>5739</name>
<sym>Dot</sym>
</trkpt>
<trkpt lat="47.883942" lon="15.641477">
<ele>848.5</ele>
<desc>Speed 53.2 km/h Distance 115 km</desc>
<time>2012-09-18T17:26:48.73</time>
<name>5740</name>
<sym>Dot</sym>
</trkpt>
<trkpt lat="47.883807" lon="15.641900">
<ele>850.0</ele>
<desc>Speed 65.0 km/h Distance 115 km</desc>
<time>2012-09-18T17:26:50.73</time>
<name>5741</name>
<sym>Dot</sym>
</trkpt>
<trkpt lat="47.883732" lon="15.642118">
<ele>853.0</ele>
<desc>Speed 66.5 km/h Distance 115 km</desc>
<time>2012-09-18T17:26:51.72</time>
<name>5742</name>
<sym>Dot</sym>
</trkpt>
<trkpt lat="47.883685" lon="15.642347">
<ele>853.5</ele>
<desc>Speed 64.8 km/h Distance 115 km</desc>
<time>2012-09-18T17:26:52.71</time>
<name>5743</name>
<sym>Dot</sym>
</trkpt>
<trkpt lat="47.883660" lon="15.642580">
<ele>854.5</ele>
<desc>Speed 62.8 km/h Distance 115 km</desc>
<time>2012-09-18T17:26:53.72</time>
<name>5744</name>
<sym>Dot</sym>
</trkpt>
<trkpt lat="47.883662" lon="15.642817">
<ele>855.5</ele>
<desc>Speed 63.5 km/h Distance 115 km</desc>
<time>2012-09-18T17:26:54.71</time>
<name>5745</name>
<sym>Dot</sym>
</trkpt>
<trkpt lat="47.883697" lon="15.643043">
<ele>856.0</ele>
<desc>Speed 61.9 km/h Distance 115 km</desc>
<time>2012-09-18T17:26:55.71</time>
<name>5746</name>
<sym>Dot</sym>
</trkpt>
<trkpt lat="47.883742" lon="15.643273">
<ele>857.0</ele>
<desc>Speed 64.7 km/h Distance 115 km</desc>
<time>2012-09-18T17:26:56.85</time>
<name>5747</name>
<sym>Dot</sym>
</trkpt>
<trkpt lat="47.883797" lon="15.643497">
<ele>858.5</ele>
<desc>Speed 64.3 km/h Distance 115 km</desc>
<time>2012-09-18T17:26:57.70</time>
<name>5748</name>
<sym>Dot</sym>
</trkpt>
<trkpt lat="47.883860" lon="15.643692">
<ele>859.0</ele>
<desc>Speed 58.6 km/h Distance 115 km</desc>
<time>2012-09-18T17:26:58.69</time>
<name>5749</name>
<sym>Dot</sym>
</trkpt>
<trkpt lat="47.883952" lon="15.643835">
<ele>859.0</ele>
<desc>Speed 52.6 km/h Distance 115 km</desc>
<time>2012-09-18T17:26:59.69</time>
<name>5750</name>
<sym>Dot</sym>
</trkpt>
<trkpt lat="47.884058" lon="15.643935">
<ele>859.5</ele>
<desc>Speed 49.6 km/h Distance 115 km</desc>
<time>2012-09-18T17:27:00.69</time>
<name>5751</name>
<sym>Dot</sym>
</trkpt>
<trkpt lat="47.884172" lon="15.644028">
<ele>860.5</ele>
<desc>Speed 50.9 km/h Distance 115 km</desc>
<time>2012-09-18T17:27:01.68</time>
<name>5752</name>
<sym>Dot</sym>
</trkpt>
<trkpt lat="47.884270" lon="15.644150">
<ele>862.0</ele>
<desc>Speed 50.3 km/h Distance 115 km</desc>
<time>2012-09-18T17:27:02.69</time>
<name>5753</name>
<sym>Dot</sym>
</trkpt>
<trkpt lat="47.884345" lon="15.644303">
<ele>865.0</ele>
<desc>Speed 50.3 km/h Distance 115 km</desc>
<time>2012-09-18T17:27:03.67</time>
<name>5754</name>
<sym>Dot</sym>
</trkpt>
<trkpt lat="47.884400" lon="15.644483">
<ele>865.5</ele>
<desc>Speed 52.4 km/h Distance 115 km</desc>
<time>2012-09-18T17:27:04.67</time>
<name>5755</name>
<sym>Dot</sym>
</trkpt>
<trkpt lat="47.884438" lon="15.644678">
<ele>867.5</ele>
<desc>Speed 55.1 km/h Distance 115 km</desc>
<time>2012-09-18T17:27:05.66</time>
<name>5756</name>
<sym>Dot</sym>
</trkpt>
<trkpt lat="47.884493" lon="15.644873">
<ele>870.0</ele>
<desc>Speed 58.3 km/h Distance 115 km</desc>
<time>2012-09-18T17:27:06.67</time>
<name>5757</name>
<sym>Dot</sym>
</trkpt>
<trkpt lat="47.884570" lon="15.645072">
<ele>872.0</ele>
<desc>Speed 61.4 km/h Distance 115 km</desc>
<time>2012-09-18T17:27:07.66</time>
<name>5758</name>
<sym>Dot</sym>
</trkpt>
<trkpt lat="47.884647" lon="15.645278">
<ele>872.5</ele>
<desc>Speed 63.7 km/h Distance 115 km</desc>
<time>2012-09-18T17:27:08.66</time>
<name>5759</name>
<sym>Dot</sym>
</trkpt>
<trkpt lat="47.884717" lon="15.645497">
<ele>873.5</ele>
<desc>Speed 65.8 km/h Distance 115 km</desc>
<time>2012-09-18T17:27:09.66</time>
<name>5760</name>
<sym>Dot</sym>
</trkpt>
<trkpt lat="47.884783" lon="15.645720">
<ele>874.0</ele>
<desc>Speed 66.4 km/h Distance 115 km</desc>
<time>2012-09-18T17:27:10.65</time>
<name>5761</name>
<sym>Dot</sym>
</trkpt>
<trkpt lat="47.884860" lon="15.645940">
<ele>874.0</ele>
<desc>Speed 66.9 km/h Distance 115 km</desc>
<time>2012-09-18T17:27:11.65</time>
<name>5762</name>
<sym>Dot</sym>
</trkpt>
<trkpt lat="47.884937" lon="15.646138">
<ele>874.5</ele>
<desc>Speed 62.5 km/h Distance 115 km</desc>
<time>2012-09-18T17:27:12.66</time>
<name>5763</name>
<sym>Dot</sym>
</trkpt>
<trkpt lat="47.885010" lon="15.646480">
<ele>875.5</ele>
<desc>Speed 48.5 km/h Distance 115 km</desc>
<time>2012-09-18T17:27:14.65</time>
<name>5764</name>
<sym>Dot</sym>
</trkpt>
<trkpt lat="47.884992" lon="15.646683">
<ele>877.0</ele>
<desc>Speed 54.8 km/h Distance 115 km</desc>
<time>2012-09-18T17:27:15.64</time>
<name>5765</name>
<sym>Dot</sym>
</trkpt>
<trkpt lat="47.884970" lon="15.646900">
<ele>878.5</ele>
<desc>Speed 58.7 km/h Distance 115 km</desc>
<time>2012-09-18T17:27:16.64</time>
<name>5766</name>
<sym>Dot</sym>
</trkpt>
<trkpt lat="47.884932" lon="15.647130">
<ele>880.5</ele>
<desc>Speed 64.1 km/h Distance 115 km</desc>
<time>2012-09-18T17:27:17.64</time>
<name>5767</name>
<sym>Dot</sym>
</trkpt>
<trkpt lat="47.884880" lon="15.647358">
<ele>882.0</ele>
<desc>Speed 64.8 km/h Distance 115 km</desc>
<time>2012-09-18T17:27:18.63</time>
<name>5768</name>
<sym>Dot</sym>
</trkpt>
<trkpt lat="47.884820" lon="15.647565">
<ele>882.5</ele>
<desc>Speed 61.0 km/h Distance 115 km</desc>
<time>2012-09-18T17:27:19.63</time>
<name>5769</name>
<sym>Dot</sym>
</trkpt>
<trkpt lat="47.884775" lon="15.647770">
<ele>883.0</ele>
<desc>Speed 58.1 km/h Distance 115 km</desc>
<time>2012-09-18T17:27:20.62</time>
<name>5770</name>
<sym>Dot</sym>
</trkpt>
<trkpt lat="47.884775" lon="15.648162">
<ele>881.5</ele>
<desc>Speed 55.4 km/h Distance 115 km</desc>
<time>2012-09-18T17:27:22.62</time>
<name>5771</name>
<sym>Dot</sym>
</trkpt>
<trkpt lat="47.884820" lon="15.648363">
<ele>882.5</ele>
<desc>Speed 57.3 km/h Distance 115 km</desc>
<time>2012-09-18T17:27:23.62</time>
<name>5772</name>
<sym>Dot</sym>
</trkpt>
<trkpt lat="47.884857" lon="15.648548">
<ele>883.5</ele>
<desc>Speed 52.8 km/h Distance 115 km</desc>
<time>2012-09-18T17:27:24.61</time>
<name>5773</name>
<sym>Dot</sym>
</trkpt>
<trkpt lat="47.884858" lon="15.648753">
<ele>882.5</ele>
<desc>Speed 55.7 km/h Distance 115 km</desc>
<time>2012-09-18T17:27:25.59</time>
<name>5774</name>
<sym>Dot</sym>
</trkpt>
<trkpt lat="47.884713" lon="15.649833">
<ele>883.5</ele>
<desc>Speed 82.9 km/h Distance 115 km</desc>
<time>2012-09-18T17:27:29.75</time>
<name>5775</name>
<sym>Dot</sym>
</trkpt>
<trkpt lat="47.884670" lon="15.650118">
<ele>884.0</ele>
<desc>Speed 78.7 km/h Distance 115 km</desc>
<time>2012-09-18T17:27:30.73</time>
<name>5776</name>
<sym>Dot</sym>
</trkpt>
<trkpt lat="47.884633" lon="15.650385">
<ele>884.0</ele>
<desc>Speed 73.3 km/h Distance 115 km</desc>
<time>2012-09-18T17:27:31.74</time>
<name>5777</name>
<sym>Dot</sym>
</trkpt>
<trkpt lat="47.884615" lon="15.650630">
<ele>884.5</ele>
<desc>Speed 66.5 km/h Distance 115 km</desc>
<time>2012-09-18T17:27:32.73</time>
<name>5778</name>
<sym>Dot</sym>
</trkpt>
<trkpt lat="47.884645" lon="15.650860">
<ele>885.0</ele>
<desc>Speed 62.6 km/h Distance 115 km</desc>
<time>2012-09-18T17:27:33.71</time>
<name>5779</name>
<sym>Dot</sym>
</trkpt>
<trkpt lat="47.884702" lon="15.651080">
<ele>884.5</ele>
<desc>Speed 63.2 km/h Distance 115 km</desc>
<time>2012-09-18T17:27:34.71</time>
<name>5780</name>
<sym>Dot</sym>
</trkpt>
<trkpt lat="47.884787" lon="15.651287">
<ele>885.0</ele>
<desc>Speed 64.9 km/h Distance 115 km</desc>
<time>2012-09-18T17:27:35.71</time>
<name>5781</name>
<sym>Dot</sym>
</trkpt>
<trkpt lat="47.884895" lon="15.651452">
<ele>885.5</ele>
<desc>Speed 60.8 km/h Distance 115 km</desc>
<time>2012-09-18T17:27:36.70</time>
<name>5782</name>
<sym>Dot</sym>
</trkpt>
<trkpt lat="47.885418" lon="15.651732">
<ele>886.5</ele>
<desc>Speed 74.7 km/h Distance 116 km</desc>
<time>2012-09-18T17:27:39.73</time>
<name>5783</name>
<sym>Dot</sym>
</trkpt>
<trkpt lat="47.885585" lon="15.651813">
<ele>886.5</ele>
<desc>Speed 69.2 km/h Distance 116 km</desc>
<time>2012-09-18T17:27:40.73</time>
<name>5784</name>
<sym>Dot</sym>
</trkpt>
<trkpt lat="47.885725" lon="15.651927">
<ele>887.5</ele>
<desc>Speed 62.9 km/h Distance 116 km</desc>
<time>2012-09-18T17:27:41.72</time>
<name>5785</name>
<sym>Dot</sym>
</trkpt>
<trkpt lat="47.886145" lon="15.652525">
<ele>889.5</ele>
<desc>Speed 84.2 km/h Distance 116 km</desc>
<time>2012-09-18T17:27:44.73</time>
<name>5786</name>
<sym>Dot</sym>
</trkpt>
<trkpt lat="47.886487" lon="15.652947">
<ele>890.0</ele>
<desc>Speed 97.3 km/h Distance 116 km</desc>
<time>2012-09-18T17:27:46.74</time>
<name>5787</name>
<sym>Dot</sym>
</trkpt>
<trkpt lat="47.887068" lon="15.654070">
<ele>888.0</ele>
<desc>Speed 62.0 km/h Distance 116 km</desc>
<time>2012-09-18T17:27:52.72</time>
<name>5788</name>
<sym>Dot</sym>
</trkpt>
<trkpt lat="47.887110" lon="15.654270">
<ele>887.0</ele>
<desc>Speed 56.8 km/h Distance 116 km</desc>
<time>2012-09-18T17:27:53.71</time>
<name>5789</name>
<sym>Dot</sym>
</trkpt>
<trkpt lat="47.887160" lon="15.654445">
<ele>886.0</ele>
<desc>Speed 50.9 km/h Distance 116 km</desc>
<time>2012-09-18T17:27:54.71</time>
<name>5790</name>
<sym>Dot</sym>
</trkpt>
<trkpt lat="47.887227" lon="15.654738">
<ele>883.0</ele>
<desc>Speed 41.0 km/h Distance 116 km</desc>
<time>2012-09-18T17:27:56.71</time>
<name>5791</name>
<sym>Dot</sym>
</trkpt>
<trkpt lat="47.887220" lon="15.654910">
<ele>882.0</ele>
<desc>Speed 46.7 km/h Distance 116 km</desc>
<time>2012-09-18T17:27:57.70</time>
<name>5792</name>
<sym>Dot</sym>
</trkpt>
<trkpt lat="47.887187" lon="15.655103">
<ele>882.5</ele>
<desc>Speed 53.3 km/h Distance 116 km</desc>
<time>2012-09-18T17:27:58.71</time>
<name>5793</name>
<sym>Dot</sym>
</trkpt>
<trkpt lat="47.887070" lon="15.655517">
<ele>885.0</ele>
<desc>Speed 60.7 km/h Distance 116 km</desc>
<time>2012-09-18T17:28:00.71</time>
<name>5794</name>
<sym>Dot</sym>
</trkpt>
<trkpt lat="47.886978" lon="15.655695">
<ele>886.0</ele>
<desc>Speed 61.0 km/h Distance 116 km</desc>
<time>2012-09-18T17:28:01.70</time>
<name>5795</name>
<sym>Dot</sym>
</trkpt>
<trkpt lat="47.886895" lon="15.655865">
<ele>886.0</ele>
<desc>Speed 56.6 km/h Distance 116 km</desc>
<time>2012-09-18T17:28:02.70</time>
<name>5796</name>
<sym>Dot</sym>
</trkpt>
<trkpt lat="47.886835" lon="15.656037">
<ele>887.5</ele>
<desc>Speed 52.3 km/h Distance 116 km</desc>
<time>2012-09-18T17:28:03.69</time>
<name>5797</name>
<sym>Dot</sym>
</trkpt>
<trkpt lat="47.886805" lon="15.656237">
<ele>885.5</ele>
<desc>Speed 55.8 km/h Distance 116 km</desc>
<time>2012-09-18T17:28:04.68</time>
<name>5798</name>
<sym>Dot</sym>
</trkpt>
<trkpt lat="47.886792" lon="15.656428">
<ele>884.5</ele>
<desc>Speed 52.7 km/h Distance 116 km</desc>
<time>2012-09-18T17:28:05.68</time>
<name>5799</name>
<sym>Dot</sym>
</trkpt>
<trkpt lat="47.886843" lon="15.656883">
<ele>882.5</ele>
<desc>Speed 64.7 km/h Distance 116 km</desc>
<time>2012-09-18T17:28:07.70</time>
<name>5800</name>
<sym>Dot</sym>
</trkpt>
<trkpt lat="47.886877" lon="15.657117">
<ele>881.5</ele>
<desc>Speed 64.9 km/h Distance 116 km</desc>
<time>2012-09-18T17:28:08.66</time>
<name>5801</name>
<sym>Dot</sym>
</trkpt>
<trkpt lat="47.886907" lon="15.657342">
<ele>881.0</ele>
<desc>Speed 62.8 km/h Distance 116 km</desc>
<time>2012-09-18T17:28:09.65</time>
<name>5802</name>
<sym>Dot</sym>
</trkpt>
<trkpt lat="47.887047" lon="15.657860">
<ele>880.5</ele>
<desc>Speed 52.4 km/h Distance 116 km</desc>
<time>2012-09-18T17:28:12.73</time>
<name>5803</name>
<sym>Dot</sym>
</trkpt>
<trkpt lat="47.887127" lon="15.658018">
<ele>879.5</ele>
<desc>Speed 52.8 km/h Distance 116 km</desc>
<time>2012-09-18T17:28:13.72</time>
<name>5804</name>
<sym>Dot</sym>
</trkpt>
<trkpt lat="47.887212" lon="15.658295">
<ele>878.5</ele>
<desc>Speed 38.8 km/h Distance 116 km</desc>
<time>2012-09-18T17:28:15.72</time>
<name>5805</name>
<sym>Dot</sym>
</trkpt>
<trkpt lat="47.887222" lon="15.658432">
<ele>878.5</ele>
<desc>Speed 36.9 km/h Distance 116 km</desc>
<time>2012-09-18T17:28:16.71</time>
<name>5806</name>
<sym>Dot</sym>
</trkpt>
<trkpt lat="47.887202" lon="15.658550">
<ele>878.0</ele>
<desc>Speed 32.6 km/h Distance 116 km</desc>
<time>2012-09-18T17:28:17.70</time>
<name>5807</name>
<sym>Dot</sym>
</trkpt>
<trkpt lat="47.887147" lon="15.658667">
<ele>878.0</ele>
<desc>Speed 38.4 km/h Distance 116 km</desc>
<time>2012-09-18T17:28:18.69</time>
<name>5808</name>
<sym>Dot</sym>
</trkpt>
<trkpt lat="47.886662" lon="15.659078">
<ele>876.5</ele>
<desc>Speed 58.6 km/h Distance 116 km</desc>
<time>2012-09-18T17:28:22.72</time>
<name>5809</name>
<sym>Dot</sym>
</trkpt>
<trkpt lat="47.886453" lon="15.659257">
<ele>876.0</ele>
<desc>Speed 46.2 km/h Distance 116 km</desc>
<time>2012-09-18T17:28:24.71</time>
<name>5810</name>
<sym>Dot</sym>
</trkpt>
<trkpt lat="47.886382" lon="15.659395">
<ele>875.0</ele>
<desc>Speed 47.6 km/h Distance 116 km</desc>
<time>2012-09-18T17:28:25.70</time>
<name>5811</name>
<sym>Dot</sym>
</trkpt>
<trkpt lat="47.886335" lon="15.659568">
<ele>873.5</ele>
<desc>Speed 50.5 km/h Distance 116 km</desc>
<time>2012-09-18T17:28:26.70</time>
<name>5812</name>
<sym>Dot</sym>
</trkpt>
<trkpt lat="47.886310" lon="15.659738">
<ele>872.5</ele>
<desc>Speed 47.0 km/h Distance 116 km</desc>
<time>2012-09-18T17:28:27.70</time>
<name>5813</name>
<sym>Dot</sym>
</trkpt>
<trkpt lat="47.886310" lon="15.659888">
<ele>871.0</ele>
<desc>Speed 40.2 km/h Distance 116 km</desc>
<time>2012-09-18T17:28:28.69</time>
<name>5814</name>
<sym>Dot</sym>
</trkpt>
<trkpt lat="47.886333" lon="15.660018">
<ele>869.5</ele>
<desc>Speed 35.9 km/h Distance 116 km</desc>
<time>2012-09-18T17:28:29.70</time>
<name>5815</name>
<sym>Dot</sym>
</trkpt>
<trkpt lat="47.886393" lon="15.660143">
<ele>869.5</ele>
<desc>Speed 40.2 km/h Distance 116 km</desc>
<time>2012-09-18T17:28:30.69</time>
<name>5816</name>
<sym>Dot</sym>
</trkpt>
<trkpt lat="47.886567" lon="15.660403">
<ele>867.5</ele>
<desc>Speed 49.1 km/h Distance 116 km</desc>
<time>2012-09-18T17:28:32.69</time>
<name>5817</name>
<sym>Dot</sym>
</trkpt>
<trkpt lat="47.886703" lon="15.660793">
<ele>865.0</ele>
<desc>Speed 60.5 km/h Distance 116 km</desc>
<time>2012-09-18T17:28:34.69</time>
<name>5818</name>
<sym>Dot</sym>
</trkpt>
<trkpt lat="47.886750" lon="15.661008">
<ele>864.0</ele>
<desc>Speed 59.8 km/h Distance 116 km</desc>
<time>2012-09-18T17:28:35.67</time>
<name>5819</name>
<sym>Dot</sym>
</trkpt>
<trkpt lat="47.886778" lon="15.661218">
<ele>862.5</ele>
<desc>Speed 57.2 km/h Distance 116 km</desc>
<time>2012-09-18T17:28:36.67</time>
<name>5820</name>
<sym>Dot</sym>
</trkpt>
<trkpt lat="47.886795" lon="15.661427">
<ele>860.5</ele>
<desc>Speed 55.4 km/h Distance 116 km</desc>
<time>2012-09-18T17:28:37.65</time>
<name>5821</name>
<sym>Dot</sym>
</trkpt>
<trkpt lat="47.886835" lon="15.661625">
<ele>859.5</ele>
<desc>Speed 54.3 km/h Distance 116 km</desc>
<time>2012-09-18T17:28:38.65</time>
<name>5822</name>
<sym>Dot</sym>
</trkpt>
<trkpt lat="47.886910" lon="15.661803">
<ele>858.5</ele>
<desc>Speed 55.3 km/h Distance 116 km</desc>
<time>2012-09-18T17:28:39.66</time>
<name>5823</name>
<sym>Dot</sym>
</trkpt>
<trkpt lat="47.887000" lon="15.661967">
<ele>857.0</ele>
<desc>Speed 55.7 km/h Distance 116 km</desc>
<time>2012-09-18T17:28:40.65</time>
<name>5824</name>
<sym>Dot</sym>
</trkpt>
<trkpt lat="47.887085" lon="15.662108">
<ele>856.5</ele>
<desc>Speed 50.9 km/h Distance 117 km</desc>
<time>2012-09-18T17:28:41.64</time>
<name>5825</name>
<sym>Dot</sym>
</trkpt>
<trkpt lat="47.887153" lon="15.662258">
<ele>856.0</ele>
<desc>Speed 45.4 km/h Distance 117 km</desc>
<time>2012-09-18T17:28:42.63</time>
<name>5826</name>
<sym>Dot</sym>
</trkpt>
<trkpt lat="47.887180" lon="15.662433">
<ele>855.5</ele>
<desc>Speed 47.3 km/h Distance 117 km</desc>
<time>2012-09-18T17:28:43.63</time>
<name>5827</name>
<sym>Dot</sym>
</trkpt>
<trkpt lat="47.887177" lon="15.662612">
<ele>855.5</ele>
<desc>Speed 47.6 km/h Distance 117 km</desc>
<time>2012-09-18T17:28:44.63</time>
<name>5828</name>
<sym>Dot</sym>
</trkpt>
<trkpt lat="47.887155" lon="15.662768">
<ele>855.5</ele>
<desc>Speed 42.6 km/h Distance 117 km</desc>
<time>2012-09-18T17:28:45.64</time>
<name>5829</name>
<sym>Dot</sym>
</trkpt>
<trkpt lat="47.887137" lon="15.662907">
<ele>855.0</ele>
<desc>Speed 37.8 km/h Distance 117 km</desc>
<time>2012-09-18T17:28:46.63</time>
<name>5830</name>
<sym>Dot</sym>
</trkpt>
<trkpt lat="47.887125" lon="15.663032">
<ele>853.5</ele>
<desc>Speed 33.3 km/h Distance 117 km</desc>
<time>2012-09-18T17:28:47.61</time>
<name>5831</name>
<sym>Dot</sym>
</trkpt>
<trkpt lat="47.887167" lon="15.663118">
<ele>853.0</ele>
<desc>Speed 28.3 km/h Distance 117 km</desc>
<time>2012-09-18T17:28:48.63</time>
<name>5832</name>
<sym>Dot</sym>
</trkpt>
<trkpt lat="47.887238" lon="15.663185">
<ele>851.5</ele>
<desc>Speed 33.6 km/h Distance 117 km</desc>
<time>2012-09-18T17:28:49.63</time>
<name>5833</name>
<sym>Dot</sym>
</trkpt>
<trkpt lat="47.887325" lon="15.663177">
<ele>851.5</ele>
<desc>Speed 34.1 km/h Distance 117 km</desc>
<time>2012-09-18T17:28:50.62</time>
<name>5834</name>
<sym>Dot</sym>
</trkpt>
<trkpt lat="47.887518" lon="15.663045">
<ele>853.0</ele>
<desc>Speed 41.9 km/h Distance 117 km</desc>
<time>2012-09-18T17:28:52.61</time>
<name>5835</name>
<sym>Dot</sym>
</trkpt>
<trkpt lat="47.888022" lon="15.662033">
<ele>850.5</ele>
<desc>Speed 70.0 km/h Distance 117 km</desc>
<time>2012-09-18T17:28:57.73</time>
<name>5836</name>
<sym>Dot</sym>
</trkpt>
<trkpt lat="47.888112" lon="15.661828">
<ele>849.0</ele>
<desc>Speed 67.4 km/h Distance 117 km</desc>
<time>2012-09-18T17:28:58.72</time>
<name>5837</name>
<sym>Dot</sym>
</trkpt>
<trkpt lat="47.888210" lon="15.661642">
<ele>849.0</ele>
<desc>Speed 64.8 km/h Distance 117 km</desc>
<time>2012-09-18T17:28:59.71</time>
<name>5838</name>
<sym>Dot</sym>
</trkpt>
<trkpt lat="47.888443" lon="15.661235">
<ele>849.0</ele>
<desc>Speed 44.5 km/h Distance 117 km</desc>
<time>2012-09-18T17:29:02.71</time>
<name>5839</name>
<sym>Dot</sym>
</trkpt>
<trkpt lat="47.888598" lon="15.661160">
<ele>850.0</ele>
<desc>Speed 32.4 km/h Distance 117 km</desc>
<time>2012-09-18T17:29:04.71</time>
<name>5840</name>
<sym>Dot</sym>
</trkpt>
<trkpt lat="47.888692" lon="15.661187">
<ele>850.5</ele>
<desc>Speed 38.8 km/h Distance 117 km</desc>
<time>2012-09-18T17:29:05.71</time>
<name>5841</name>
<sym>Dot</sym>
</trkpt>
<trkpt lat="47.888810" lon="15.661317">
<ele>851.0</ele>
<desc>Speed 34.7 km/h Distance 117 km</desc>
<time>2012-09-18T17:29:07.72</time>
<name>5842</name>
<sym>Dot</sym>
</trkpt>
<trkpt lat="47.888857" lon="15.661400">
<ele>850.5</ele>
<desc>Speed 30.5 km/h Distance 117 km</desc>
<time>2012-09-18T17:29:08.71</time>
<name>5843</name>
<sym>Dot</sym>
</trkpt>
<trkpt lat="47.888877" lon="15.661510">
<ele>849.0</ele>
<desc>Speed 29.6 km/h Distance 117 km</desc>
<time>2012-09-18T17:29:09.70</time>
<name>5844</name>
<sym>Dot</sym>
</trkpt>
<trkpt lat="47.888867" lon="15.661623">
<ele>848.5</ele>
<desc>Speed 29.8 km/h Distance 117 km</desc>
<time>2012-09-18T17:29:10.70</time>
<name>5845</name>
<sym>Dot</sym>
</trkpt>
<trkpt lat="47.888420" lon="15.663007">
<ele>838.5</ele>
<desc>Speed 80.6 km/h Distance 117 km</desc>
<time>2012-09-18T17:29:16.71</time>
<name>5846</name>
<sym>Dot</sym>
</trkpt>
<trkpt lat="47.888328" lon="15.663273">
<ele>838.0</ele>
<desc>Speed 79.1 km/h Distance 117 km</desc>
<time>2012-09-18T17:29:17.71</time>
<name>5847</name>
<sym>Dot</sym>
</trkpt>
<trkpt lat="47.888237" lon="15.663535">
<ele>836.5</ele>
<desc>Speed 78.9 km/h Distance 117 km</desc>
<time>2012-09-18T17:29:18.70</time>
<name>5848</name>
<sym>Dot</sym>
</trkpt>
<trkpt lat="47.888140" lon="15.663795">
<ele>834.0</ele>
<desc>Speed 79.5 km/h Distance 117 km</desc>
<time>2012-09-18T17:29:19.70</time>
<name>5849</name>
<sym>Dot</sym>
</trkpt>
<trkpt lat="47.888042" lon="15.664050">
<ele>833.5</ele>
<desc>Speed 78.7 km/h Distance 117 km</desc>
<time>2012-09-18T17:29:20.69</time>
<name>5850</name>
<sym>Dot</sym>
</trkpt>
<trkpt lat="47.887947" lon="15.664303">
<ele>833.0</ele>
<desc>Speed 77.3 km/h Distance 117 km</desc>
<time>2012-09-18T17:29:21.68</time>
<name>5851</name>
<sym>Dot</sym>
</trkpt>
<trkpt lat="47.887853" lon="15.664550">
<ele>832.0</ele>
<desc>Speed 75.7 km/h Distance 117 km</desc>
<time>2012-09-18T17:29:22.68</time>
<name>5852</name>
<sym>Dot</sym>
</trkpt>
<trkpt lat="47.887760" lon="15.664792">
<ele>829.5</ele>
<desc>Speed 74.2 km/h Distance 117 km</desc>
<time>2012-09-18T17:29:23.67</time>
<name>5853</name>
<sym>Dot</sym>
</trkpt>
<trkpt lat="47.887672" lon="15.665033">
<ele>829.5</ele>
<desc>Speed 74.1 km/h Distance 117 km</desc>
<time>2012-09-18T17:29:24.66</time>
<name>5854</name>
<sym>Dot</sym>
</trkpt>
<trkpt lat="47.887607" lon="15.665272">
<ele>829.0</ele>
<desc>Speed 68.8 km/h Distance 117 km</desc>
<time>2012-09-18T17:29:25.67</time>
<name>5855</name>
<sym>Dot</sym>
</trkpt>
<trkpt lat="47.887545" lon="15.665493">
<ele>827.5</ele>
<desc>Speed 64.2 km/h Distance 117 km</desc>
<time>2012-09-18T17:29:26.66</time>
<name>5856</name>
<sym>Dot</sym>
</trkpt>
<trkpt lat="47.887497" lon="15.665708">
<ele>826.0</ele>
<desc>Speed 60.4 km/h Distance 117 km</desc>
<time>2012-09-18T17:29:27.65</time>
<name>5857</name>
<sym>Dot</sym>
</trkpt>
<trkpt lat="47.887473" lon="15.665927">
<ele>826.0</ele>
<desc>Speed 58.5 km/h Distance 117 km</desc>
<time>2012-09-18T17:29:28.65</time>
<name>5858</name>
<sym>Dot</sym>
</trkpt>
<trkpt lat="47.887480" lon="15.666150">
<ele>824.0</ele>
<desc>Speed 58.9 km/h Distance 117 km</desc>
<time>2012-09-18T17:29:29.64</time>
<name>5859</name>
<sym>Dot</sym>
</trkpt>
<trkpt lat="47.887505" lon="15.666367">
<ele>823.5</ele>
<desc>Speed 59.5 km/h Distance 117 km</desc>
<time>2012-09-18T17:29:30.63</time>
<name>5860</name>
<sym>Dot</sym>
</trkpt>
<trkpt lat="47.887552" lon="15.666583">
<ele>824.0</ele>
<desc>Speed 61.4 km/h Distance 117 km</desc>
<time>2012-09-18T17:29:31.64</time>
<name>5861</name>
<sym>Dot</sym>
</trkpt>
<trkpt lat="47.887813" lon="15.667675">
<ele>820.0</ele>
<desc>Speed 74.5 km/h Distance 117 km</desc>
<time>2012-09-18T17:29:35.72</time>
<name>5862</name>
<sym>Dot</sym>
</trkpt>
<trkpt lat="47.887857" lon="15.667938">
<ele>817.5</ele>
<desc>Speed 71.6 km/h Distance 117 km</desc>
<time>2012-09-18T17:29:36.72</time>
<name>5863</name>
<sym>Dot</sym>
</trkpt>
<trkpt lat="47.887945" lon="15.668380">
<ele>817.0</ele>
<desc>Speed 58.8 km/h Distance 117 km</desc>
<time>2012-09-18T17:29:38.72</time>
<name>5864</name>
<sym>Dot</sym>
</trkpt>
<trkpt lat="47.888020" lon="15.668537">
<ele>815.5</ele>
<desc>Speed 51.8 km/h Distance 117 km</desc>
<time>2012-09-18T17:29:39.71</time>
<name>5865</name>
<sym>Dot</sym>
</trkpt>
<trkpt lat="47.888282" lon="15.668787">
<ele>814.0</ele>
<desc>Speed 64.6 km/h Distance 117 km</desc>
<time>2012-09-18T17:29:41.70</time>
<name>5866</name>
<sym>Dot</sym>
</trkpt>
<trkpt lat="47.888450" lon="15.668857">
<ele>811.5</ele>
<desc>Speed 69.7 km/h Distance 117 km</desc>
<time>2012-09-18T17:29:42.69</time>
<name>5867</name>
<sym>Dot</sym>
</trkpt>
<trkpt lat="47.888605" lon="15.668897">
<ele>810.0</ele>
<desc>Speed 63.0 km/h Distance 117 km</desc>
<time>2012-09-18T17:29:44.03</time>
<name>5868</name>
<sym>Dot</sym>
</trkpt>
<trkpt lat="47.888880" lon="15.668815">
<ele>808.0</ele>
<desc>Speed 57.1 km/h Distance 118 km</desc>
<time>2012-09-18T17:29:45.67</time>
<name>5869</name>
<sym>Dot</sym>
</trkpt>
<trkpt lat="47.889012" lon="15.668778">
<ele>809.5</ele>
<desc>Speed 54.8 km/h Distance 118 km</desc>
<time>2012-09-18T17:29:46.67</time>
<name>5870</name>
<sym>Dot</sym>
</trkpt>
<trkpt lat="47.889332" lon="15.668842">
<ele>809.0</ele>
<desc>Speed 67.0 km/h Distance 118 km</desc>
<time>2012-09-18T17:29:48.66</time>
<name>5871</name>
<sym>Dot</sym>
</trkpt>
<trkpt lat="47.889492" lon="15.668902">
<ele>809.0</ele>
<desc>Speed 66.3 km/h Distance 118 km</desc>
<time>2012-09-18T17:29:49.99</time>
<name>5872</name>
<sym>Dot</sym>
</trkpt>
<trkpt lat="47.889845" lon="15.669433">
<ele>809.5</ele>
<desc>Speed 36.0 km/h Distance 118 km</desc>
<time>2012-09-18T17:29:54.72</time>
<name>5873</name>
<sym>Dot</sym>
</trkpt>
<trkpt lat="47.889828" lon="15.670038">
<ele>809.5</ele>
<desc>Speed 55.0 km/h Distance 118 km</desc>
<time>2012-09-18T17:29:57.71</time>
<name>5874</name>
<sym>Dot</sym>
</trkpt>
<trkpt lat="47.889882" lon="15.670210">
<ele>809.0</ele>
<desc>Speed 50.0 km/h Distance 118 km</desc>
<time>2012-09-18T17:29:58.73</time>
<name>5875</name>
<sym>Dot</sym>
</trkpt>
<trkpt lat="47.889943" lon="15.670395">
<ele>809.5</ele>
<desc>Speed 55.2 km/h Distance 118 km</desc>
<time>2012-09-18T17:29:59.71</time>
<name>5876</name>
<sym>Dot</sym>
</trkpt>
<trkpt lat="47.890045" lon="15.670562">
<ele>808.5</ele>
<desc>Speed 59.9 km/h Distance 118 km</desc>
<time>2012-09-18T17:30:00.71</time>
<name>5877</name>
<sym>Dot</sym>
</trkpt>
<trkpt lat="47.890280" lon="15.670872">
<ele>810.5</ele>
<desc>Speed 56.9 km/h Distance 118 km</desc>
<time>2012-09-18T17:30:02.70</time>
<name>5878</name>
<sym>Dot</sym>
</trkpt>
<trkpt lat="47.890428" lon="15.671220">
<ele>811.0</ele>
<desc>Speed 35.4 km/h Distance 118 km</desc>
<time>2012-09-18T17:30:05.71</time>
<name>5879</name>
<sym>Dot</sym>
</trkpt>
<trkpt lat="47.890417" lon="15.671365">
<ele>813.0</ele>
<desc>Speed 38.2 km/h Distance 118 km</desc>
<time>2012-09-18T17:30:06.72</time>
<name>5880</name>
<sym>Dot</sym>
</trkpt>
<trkpt lat="47.890357" lon="15.671677">
<ele>814.5</ele>
<desc>Speed 39.7 km/h Distance 118 km</desc>
<time>2012-09-18T17:30:08.70</time>
<name>5881</name>
<sym>Dot</sym>
</trkpt>
<trkpt lat="47.890388" lon="15.671798">
<ele>814.0</ele>
<desc>Speed 34.4 km/h Distance 118 km</desc>
<time>2012-09-18T17:30:09.73</time>
<name>5882</name>
<sym>Dot</sym>
</trkpt>
<trkpt lat="47.890442" lon="15.671913">
<ele>814.0</ele>
<desc>Speed 37.1 km/h Distance 118 km</desc>
<time>2012-09-18T17:30:10.71</time>
<name>5883</name>
<sym>Dot</sym>
</trkpt>
<trkpt lat="47.890513" lon="15.671980">
<ele>814.5</ele>
<desc>Speed 33.2 km/h Distance 118 km</desc>
<time>2012-09-18T17:30:11.70</time>
<name>5884</name>
<sym>Dot</sym>
</trkpt>
<trkpt lat="47.891498" lon="15.672177">
<ele>815.0</ele>
<desc>Speed 71.6 km/h Distance 118 km</desc>
<time>2012-09-18T17:30:17.72</time>
<name>5885</name>
<sym>Dot</sym>
</trkpt>
<trkpt lat="47.891678" lon="15.672288">
<ele>814.0</ele>
<desc>Speed 77.9 km/h Distance 118 km</desc>
<time>2012-09-18T17:30:18.71</time>
<name>5886</name>
<sym>Dot</sym>
</trkpt>
<trkpt lat="47.892228" lon="15.672800">
<ele>814.0</ele>
<desc>Speed 38.3 km/h Distance 118 km</desc>
<time>2012-09-18T17:30:23.72</time>
<name>5887</name>
<sym>Dot</sym>
</trkpt>
<trkpt lat="47.892253" lon="15.672940">
<ele>813.5</ele>
<desc>Speed 38.7 km/h Distance 118 km</desc>
<time>2012-09-18T17:30:24.72</time>
<name>5888</name>
<sym>Dot</sym>
</trkpt>
<trkpt lat="47.892167" lon="15.673558">
<ele>817.0</ele>
<desc>Speed 58.6 km/h Distance 118 km</desc>
<time>2012-09-18T17:30:27.72</time>
<name>5889</name>
<sym>Dot</sym>
</trkpt>
<trkpt lat="47.892117" lon="15.673770">
<ele>817.0</ele>
<desc>Speed 59.5 km/h Distance 118 km</desc>
<time>2012-09-18T17:30:28.72</time>
<name>5890</name>
<sym>Dot</sym>
</trkpt>
<trkpt lat="47.891907" lon="15.674128">
<ele>817.5</ele>
<desc>Speed 68.9 km/h Distance 118 km</desc>
<time>2012-09-18T17:30:30.71</time>
<name>5891</name>
<sym>Dot</sym>
</trkpt>
<trkpt lat="47.891697" lon="15.674540">
<ele>819.5</ele>
<desc>Speed 77.6 km/h Distance 118 km</desc>
<time>2012-09-18T17:30:32.71</time>
<name>5892</name>
<sym>Dot</sym>
</trkpt>
<trkpt lat="47.891432" lon="15.675055">
<ele>821.0</ele>
<desc>Speed 80.2 km/h Distance 118 km</desc>
<time>2012-09-18T17:30:34.71</time>
<name>5893</name>
<sym>Dot</sym>
</trkpt>
<trkpt lat="47.891323" lon="15.675290">
<ele>824.5</ele>
<desc>Speed 75.2 km/h Distance 118 km</desc>
<time>2012-09-18T17:30:35.71</time>
<name>5894</name>
<sym>Dot</sym>
</trkpt>
<trkpt lat="47.891012" lon="15.675782">
<ele>827.5</ele>
<desc>Speed 58.5 km/h Distance 118 km</desc>
<time>2012-09-18T17:30:38.72</time>
<name>5895</name>
<sym>Dot</sym>
</trkpt>
<trkpt lat="47.890875" lon="15.675907">
<ele>828.0</ele>
<desc>Speed 62.8 km/h Distance 118 km</desc>
<time>2012-09-18T17:30:39.72</time>
<name>5896</name>
<sym>Dot</sym>
</trkpt>
<trkpt lat="47.890733" lon="15.676002">
<ele>828.0</ele>
<desc>Speed 61.3 km/h Distance 118 km</desc>
<time>2012-09-18T17:30:40.72</time>
<name>5897</name>
<sym>Dot</sym>
</trkpt>
<trkpt lat="47.890497" lon="15.676137">
<ele>828.5</ele>
<desc>Speed 48.3 km/h Distance 118 km</desc>
<time>2012-09-18T17:30:42.70</time>
<name>5898</name>
<sym>Dot</sym>
</trkpt>
<trkpt lat="47.890408" lon="15.676225">
<ele>829.5</ele>
<desc>Speed 42.4 km/h Distance 118 km</desc>
<time>2012-09-18T17:30:43.70</time>
<name>5899</name>
<sym>Dot</sym>
</trkpt>
<trkpt lat="47.890342" lon="15.676340">
<ele>829.5</ele>
<desc>Speed 40.2 km/h Distance 118 km</desc>
<time>2012-09-18T17:30:44.71</time>
<name>5900</name>
<sym>Dot</sym>
</trkpt>
<trkpt lat="47.890298" lon="15.676485">
<ele>829.5</ele>
<desc>Speed 42.3 km/h Distance 118 km</desc>
<time>2012-09-18T17:30:45.70</time>
<name>5901</name>
<sym>Dot</sym>
</trkpt>
<trkpt lat="47.890120" lon="15.677410">
<ele>828.0</ele>
<desc>Speed 68.4 km/h Distance 119 km</desc>
<time>2012-09-18T17:30:49.73</time>
<name>5902</name>
<sym>Dot</sym>
</trkpt>
<trkpt lat="47.890067" lon="15.677653">
<ele>827.5</ele>
<desc>Speed 68.3 km/h Distance 119 km</desc>
<time>2012-09-18T17:30:50.73</time>
<name>5903</name>
<sym>Dot</sym>
</trkpt>
<trkpt lat="47.889983" lon="15.677872">
<ele>827.5</ele>
<desc>Speed 67.5 km/h Distance 119 km</desc>
<time>2012-09-18T17:30:51.73</time>
<name>5904</name>
<sym>Dot</sym>
</trkpt>
<trkpt lat="47.889903" lon="15.678098">
<ele>826.5</ele>
<desc>Speed 68.3 km/h Distance 119 km</desc>
<time>2012-09-18T17:30:52.71</time>
<name>5905</name>
<sym>Dot</sym>
</trkpt>
<trkpt lat="47.889832" lon="15.678325">
<ele>827.0</ele>
<desc>Speed 67.4 km/h Distance 119 km</desc>
<time>2012-09-18T17:30:53.71</time>
<name>5906</name>
<sym>Dot</sym>
</trkpt>
<trkpt lat="47.889783" lon="15.678558">
<ele>826.5</ele>
<desc>Speed 65.0 km/h Distance 119 km</desc>
<time>2012-09-18T17:30:54.70</time>
<name>5907</name>
<sym>Dot</sym>
</trkpt>
<trkpt lat="47.889740" lon="15.678805">
<ele>825.0</ele>
<desc>Speed 68.1 km/h Distance 119 km</desc>
<time>2012-09-18T17:30:55.70</time>
<name>5908</name>
<sym>Dot</sym>
</trkpt>
<trkpt lat="47.889695" lon="15.679350">
<ele>823.5</ele>
<desc>Speed 71.1 km/h Distance 119 km</desc>
<time>2012-09-18T17:30:57.69</time>
<name>5909</name>
<sym>Dot</sym>
</trkpt>
<trkpt lat="47.889675" lon="15.679602">
<ele>823.0</ele>
<desc>Speed 67.7 km/h Distance 119 km</desc>
<time>2012-09-18T17:30:58.68</time>
<name>5910</name>
<sym>Dot</sym>
</trkpt>
<trkpt lat="47.889663" lon="15.679860">
<ele>821.5</ele>
<desc>Speed 69.1 km/h Distance 119 km</desc>
<time>2012-09-18T17:30:59.69</time>
<name>5911</name>
<sym>Dot</sym>
</trkpt>
<trkpt lat="47.889658" lon="15.680115">
<ele>819.5</ele>
<desc>Speed 68.5 km/h Distance 119 km</desc>
<time>2012-09-18T17:31:00.67</time>
<name>5912</name>
<sym>Dot</sym>
</trkpt>
<trkpt lat="47.889665" lon="15.680370">
<ele>818.0</ele>
<desc>Speed 68.2 km/h Distance 119 km</desc>
<time>2012-09-18T17:31:01.69</time>
<name>5913</name>
<sym>Dot</sym>
</trkpt>
<trkpt lat="47.889670" lon="15.680620">
<ele>817.0</ele>
<desc>Speed 67.1 km/h Distance 119 km</desc>
<time>2012-09-18T17:31:02.69</time>
<name>5914</name>
<sym>Dot</sym>
</trkpt>
<trkpt lat="47.889665" lon="15.680863">
<ele>816.0</ele>
<desc>Speed 65.2 km/h Distance 119 km</desc>
<time>2012-09-18T17:31:03.69</time>
<name>5915</name>
<sym>Dot</sym>
</trkpt>
<trkpt lat="47.889653" lon="15.681105">
<ele>815.0</ele>
<desc>Speed 64.4 km/h Distance 119 km</desc>
<time>2012-09-18T17:31:04.68</time>
<name>5916</name>
<sym>Dot</sym>
</trkpt>
<trkpt lat="47.889640" lon="15.681338">
<ele>813.5</ele>
<desc>Speed 62.3 km/h Distance 119 km</desc>
<time>2012-09-18T17:31:05.68</time>
<name>5917</name>
<sym>Dot</sym>
</trkpt>
<trkpt lat="47.889640" lon="15.681553">
<ele>812.5</ele>
<desc>Speed 57.3 km/h Distance 119 km</desc>
<time>2012-09-18T17:31:06.66</time>
<name>5918</name>
<sym>Dot</sym>
</trkpt>
<trkpt lat="47.889660" lon="15.681755">
<ele>811.5</ele>
<desc>Speed 53.7 km/h Distance 119 km</desc>
<time>2012-09-18T17:31:07.69</time>
<name>5919</name>
<sym>Dot</sym>
</trkpt>
<trkpt lat="47.889692" lon="15.681935">
<ele>811.0</ele>
<desc>Speed 49.4 km/h Distance 119 km</desc>
<time>2012-09-18T17:31:08.66</time>
<name>5920</name>
<sym>Dot</sym>
</trkpt>
<trkpt lat="47.889722" lon="15.682087">
<ele>811.0</ele>
<desc>Speed 42.3 km/h Distance 119 km</desc>
<time>2012-09-18T17:31:09.66</time>
<name>5921</name>
<sym>Dot</sym>
</trkpt>
<trkpt lat="47.889757" lon="15.682223">
<ele>809.5</ele>
<desc>Speed 38.9 km/h Distance 119 km</desc>
<time>2012-09-18T17:31:10.65</time>
<name>5922</name>
<sym>Dot</sym>
</trkpt>
<trkpt lat="47.889868" lon="15.682367">
<ele>809.0</ele>
<desc>Speed 30.4 km/h Distance 119 km</desc>
<time>2012-09-18T17:31:12.65</time>
<name>5923</name>
<sym>Dot</sym>
</trkpt>
<trkpt lat="47.890167" lon="15.682250">
<ele>805.0</ele>
<desc>Speed 40.5 km/h Distance 119 km</desc>
<time>2012-09-18T17:31:15.72</time>
<name>5924</name>
<sym>Dot</sym>
</trkpt>
<trkpt lat="47.890258" lon="15.682220">
<ele>804.0</ele>
<desc>Speed 38.4 km/h Distance 119 km</desc>
<time>2012-09-18T17:31:16.72</time>
<name>5925</name>
<sym>Dot</sym>
</trkpt>
<trkpt lat="47.890367" lon="15.682240">
<ele>804.5</ele>
<desc>Speed 44.0 km/h Distance 119 km</desc>
<time>2012-09-18T17:31:17.72</time>
<name>5926</name>
<sym>Dot</sym>
</trkpt>
<trkpt lat="47.890500" lon="15.682472">
<ele>801.0</ele>
<desc>Speed 24.7 km/h Distance 119 km</desc>
<time>2012-09-18T17:31:20.71</time>
<name>5927</name>
<sym>Dot</sym>
</trkpt>
<trkpt lat="47.890483" lon="15.682567">
<ele>800.0</ele>
<desc>Speed 25.7 km/h Distance 119 km</desc>
<time>2012-09-18T17:31:21.71</time>
<name>5928</name>
<sym>Dot</sym>
</trkpt>
<trkpt lat="47.890433" lon="15.682633">
<ele>800.5</ele>
<desc>Speed 26.1 km/h Distance 119 km</desc>
<time>2012-09-18T17:31:22.71</time>
<name>5929</name>
<sym>Dot</sym>
</trkpt>
<trkpt lat="47.890147" lon="15.682800">
<ele>797.0</ele>
<desc>Speed 41.6 km/h Distance 119 km</desc>
<time>2012-09-18T17:31:25.72</time>
<name>5930</name>
<sym>Dot</sym>
</trkpt>
<trkpt lat="47.890068" lon="15.682898">
<ele>794.5</ele>
<desc>Speed 39.0 km/h Distance 119 km</desc>
<time>2012-09-18T17:31:26.70</time>
<name>5931</name>
<sym>Dot</sym>
</trkpt>
<trkpt lat="47.889898" lon="15.683145">
<ele>794.5</ele>
<desc>Speed 42.9 km/h Distance 119 km</desc>
<time>2012-09-18T17:31:28.70</time>
<name>5932</name>
<sym>Dot</sym>
</trkpt>
<trkpt lat="47.889812" lon="15.683217">
<ele>794.5</ele>
<desc>Speed 38.1 km/h Distance 119 km</desc>
<time>2012-09-18T17:31:29.70</time>
<name>5933</name>
<sym>Dot</sym>
</trkpt>
<trkpt lat="47.889715" lon="15.683245">
<ele>794.5</ele>
<desc>Speed 39.5 km/h Distance 119 km</desc>
<time>2012-09-18T17:31:30.69</time>
<name>5934</name>
<sym>Dot</sym>
</trkpt>
<trkpt lat="47.889613" lon="15.683238">
<ele>796.5</ele>
<desc>Speed 44.1 km/h Distance 119 km</desc>
<time>2012-09-18T17:31:31.69</time>
<name>5935</name>
<sym>Dot</sym>
</trkpt>
<trkpt lat="47.889495" lon="15.683187">
<ele>795.5</ele>
<desc>Speed 49.7 km/h Distance 119 km</desc>
<time>2012-09-18T17:31:32.69</time>
<name>5936</name>
<sym>Dot</sym>
</trkpt>
<trkpt lat="47.889398" lon="15.683088">
<ele>795.5</ele>
<desc>Speed 47.8 km/h Distance 119 km</desc>
<time>2012-09-18T17:31:33.69</time>
<name>5937</name>
<sym>Dot</sym>
</trkpt>
<trkpt lat="47.889308" lon="15.682972">
<ele>795.5</ele>
<desc>Speed 47.3 km/h Distance 119 km</desc>
<time>2012-09-18T17:31:34.69</time>
<name>5938</name>
<sym>Dot</sym>
</trkpt>
<trkpt lat="47.889240" lon="15.682847">
<ele>795.0</ele>
<desc>Speed 43.6 km/h Distance 119 km</desc>
<time>2012-09-18T17:31:35.68</time>
<name>5939</name>
<sym>Dot</sym>
</trkpt>
<trkpt lat="47.889178" lon="15.682690">
<ele>795.0</ele>
<desc>Speed 49.1 km/h Distance 119 km</desc>
<time>2012-09-18T17:31:36.68</time>
<name>5940</name>
<sym>Dot</sym>
</trkpt>
<trkpt lat="47.889117" lon="15.682548">
<ele>794.0</ele>
<desc>Speed 45.5 km/h Distance 119 km</desc>
<time>2012-09-18T17:31:37.68</time>
<name>5941</name>
<sym>Dot</sym>
</trkpt>
<trkpt lat="47.889048" lon="15.682418">
<ele>793.0</ele>
<desc>Speed 44.5 km/h Distance 119 km</desc>
<time>2012-09-18T17:31:38.66</time>
<name>5942</name>
<sym>Dot</sym>
</trkpt>
<trkpt lat="47.888957" lon="15.682320">
<ele>792.5</ele>
<desc>Speed 45.2 km/h Distance 119 km</desc>
<time>2012-09-18T17:31:39.67</time>
<name>5943</name>
<sym>Dot</sym>
</trkpt>
<trkpt lat="47.888843" lon="15.682253">
<ele>793.0</ele>
<desc>Speed 49.2 km/h Distance 119 km</desc>
<time>2012-09-18T17:31:40.66</time>
<name>5944</name>
<sym>Dot</sym>
</trkpt>
<trkpt lat="47.888743" lon="15.682187">
<ele>792.5</ele>
<desc>Speed 44.3 km/h Distance 119 km</desc>
<time>2012-09-18T17:31:41.67</time>
<name>5945</name>
<sym>Dot</sym>
</trkpt>
<trkpt lat="47.888650" lon="15.682122">
<ele>792.0</ele>
<desc>Speed 41.7 km/h Distance 119 km</desc>
<time>2012-09-18T17:31:42.64</time>
<name>5946</name>
<sym>Dot</sym>
</trkpt>
<trkpt lat="47.888565" lon="15.682047">
<ele>792.0</ele>
<desc>Speed 40.0 km/h Distance 119 km</desc>
<time>2012-09-18T17:31:43.63</time>
<name>5947</name>
<sym>Dot</sym>
</trkpt>
<trkpt lat="47.888478" lon="15.681947">
<ele>791.5</ele>
<desc>Speed 44.2 km/h Distance 119 km</desc>
<time>2012-09-18T17:31:44.63</time>
<name>5948</name>
<sym>Dot</sym>
</trkpt>
<trkpt lat="47.888385" lon="15.681840">
<ele>791.5</ele>
<desc>Speed 47.6 km/h Distance 119 km</desc>
<time>2012-09-18T17:31:45.61</time>
<name>5949</name>
<sym>Dot</sym>
</trkpt>
<trkpt lat="47.888295" lon="15.681733">
<ele>790.5</ele>
<desc>Speed 46.9 km/h Distance 119 km</desc>
<time>2012-09-18T17:31:46.61</time>
<name>5950</name>
<sym>Dot</sym>
</trkpt>
<trkpt lat="47.888212" lon="15.681633">
<ele>790.5</ele>
<desc>Speed 43.1 km/h Distance 119 km</desc>
<time>2012-09-18T17:31:47.62</time>
<name>5951</name>
<sym>Dot</sym>
</trkpt>
<trkpt lat="47.888133" lon="15.681543">
<ele>790.5</ele>
<desc>Speed 40.5 km/h Distance 119 km</desc>
<time>2012-09-18T17:31:48.60</time>
<name>5952</name>
<sym>Dot</sym>
</trkpt>
<trkpt lat="47.888052" lon="15.681502">
<ele>791.0</ele>
<desc>Speed 35.0 km/h Distance 119 km</desc>
<time>2012-09-18T17:31:49.60</time>
<name>5953</name>
<sym>Dot</sym>
</trkpt>
<trkpt lat="47.887973" lon="15.681525">
<ele>790.5</ele>
<desc>Speed 32.3 km/h Distance 119 km</desc>
<time>2012-09-18T17:31:50.61</time>
<name>5954</name>
<sym>Dot</sym>
</trkpt>
<trkpt lat="47.887715" lon="15.681763">
<ele>790.5</ele>
<desc>Speed 36.8 km/h Distance 119 km</desc>
<time>2012-09-18T17:31:53.78</time>
<name>5955</name>
<sym>Dot</sym>
</trkpt>
<trkpt lat="47.887548" lon="15.682317">
<ele>788.5</ele>
<desc>Speed 52.2 km/h Distance 119 km</desc>
<time>2012-09-18T17:31:56.72</time>
<name>5956</name>
<sym>Dot</sym>
</trkpt>
<trkpt lat="47.887487" lon="15.682487">
<ele>788.0</ele>
<desc>Speed 52.3 km/h Distance 119 km</desc>
<time>2012-09-18T17:31:57.72</time>
<name>5957</name>
<sym>Dot</sym>
</trkpt>
<trkpt lat="47.887425" lon="15.682657">
<ele>787.5</ele>
<desc>Speed 52.4 km/h Distance 119 km</desc>
<time>2012-09-18T17:31:58.71</time>
<name>5958</name>
<sym>Dot</sym>
</trkpt>
<trkpt lat="47.887363" lon="15.682828">
<ele>786.5</ele>
<desc>Speed 52.4 km/h Distance 119 km</desc>
<time>2012-09-18T17:31:59.70</time>
<name>5959</name>
<sym>Dot</sym>
</trkpt>
<trkpt lat="47.887305" lon="15.682997">
<ele>786.0</ele>
<desc>Speed 51.5 km/h Distance 119 km</desc>
<time>2012-09-18T17:32:00.70</time>
<name>5960</name>
<sym>Dot</sym>
</trkpt>
<trkpt lat="47.887250" lon="15.683162">
<ele>785.0</ele>
<desc>Speed 50.3 km/h Distance 119 km</desc>
<time>2012-09-18T17:32:01.69</time>
<name>5961</name>
<sym>Dot</sym>
</trkpt>
<trkpt lat="47.887197" lon="15.683317">
<ele>784.5</ele>
<desc>Speed 48.3 km/h Distance 120 km</desc>
<time>2012-09-18T17:32:02.68</time>
<name>5962</name>
<sym>Dot</sym>
</trkpt>
<trkpt lat="47.887140" lon="15.683465">
<ele>784.0</ele>
<desc>Speed 45.8 km/h Distance 120 km</desc>
<time>2012-09-18T17:32:03.68</time>
<name>5963</name>
<sym>Dot</sym>
</trkpt>
<trkpt lat="47.887015" lon="15.683758">
<ele>783.5</ele>
<desc>Speed 27.8 km/h Distance 120 km</desc>
<time>2012-09-18T17:32:06.70</time>
<name>5964</name>
<sym>Dot</sym>
</trkpt>
<trkpt lat="47.886973" lon="15.683838">
<ele>783.0</ele>
<desc>Speed 27.5 km/h Distance 120 km</desc>
<time>2012-09-18T17:32:07.71</time>
<name>5965</name>
<sym>Dot</sym>
</trkpt>
<trkpt lat="47.886922" lon="15.683930">
<ele>781.5</ele>
<desc>Speed 32.7 km/h Distance 120 km</desc>
<time>2012-09-18T17:32:08.70</time>
<name>5966</name>
<sym>Dot</sym>
</trkpt>
<trkpt lat="47.886775" lon="15.684187">
<ele>779.5</ele>
<desc>Speed 45.6 km/h Distance 120 km</desc>
<time>2012-09-18T17:32:10.69</time>
<name>5967</name>
<sym>Dot</sym>
</trkpt>
<trkpt lat="47.886572" lon="15.684488">
<ele>779.0</ele>
<desc>Speed 57.2 km/h Distance 120 km</desc>
<time>2012-09-18T17:32:12.70</time>
<name>5968</name>
<sym>Dot</sym>
</trkpt>
<trkpt lat="47.886455" lon="15.684638">
<ele>781.0</ele>
<desc>Speed 60.2 km/h Distance 120 km</desc>
<time>2012-09-18T17:32:13.69</time>
<name>5969</name>
<sym>Dot</sym>
</trkpt>
<trkpt lat="47.886037" lon="15.685220">
<ele>781.0</ele>
<desc>Speed 79.6 km/h Distance 120 km</desc>
<time>2012-09-18T17:32:16.71</time>
<name>5970</name>
<sym>Dot</sym>
</trkpt>
<trkpt lat="47.885877" lon="15.685425">
<ele>779.5</ele>
<desc>Speed 85.5 km/h Distance 120 km</desc>
<time>2012-09-18T17:32:17.71</time>
<name>5971</name>
<sym>Dot</sym>
</trkpt>
<trkpt lat="47.885713" lon="15.685632">
<ele>777.5</ele>
<desc>Speed 86.5 km/h Distance 120 km</desc>
<time>2012-09-18T17:32:18.70</time>
<name>5972</name>
<sym>Dot</sym>
</trkpt>
<trkpt lat="47.885550" lon="15.685835">
<ele>776.0</ele>
<desc>Speed 85.7 km/h Distance 120 km</desc>
<time>2012-09-18T17:32:19.69</time>
<name>5973</name>
<sym>Dot</sym>
</trkpt>
<trkpt lat="47.885383" lon="15.686042">
<ele>776.0</ele>
<desc>Speed 87.8 km/h Distance 120 km</desc>
<time>2012-09-18T17:32:20.68</time>
<name>5974</name>
<sym>Dot</sym>
</trkpt>
<trkpt lat="47.885212" lon="15.686253">
<ele>774.5</ele>
<desc>Speed 89.7 km/h Distance 120 km</desc>
<time>2012-09-18T17:32:21.68</time>
<name>5975</name>
<sym>Dot</sym>
</trkpt>
<trkpt lat="47.885040" lon="15.686470">
<ele>773.0</ele>
<desc>Speed 91.3 km/h Distance 120 km</desc>
<time>2012-09-18T17:32:22.66</time>
<name>5976</name>
<sym>Dot</sym>
</trkpt>
<trkpt lat="47.884863" lon="15.686690">
<ele>772.5</ele>
<desc>Speed 92.5 km/h Distance 120 km</desc>
<time>2012-09-18T17:32:23.66</time>
<name>5977</name>
<sym>Dot</sym>
</trkpt>
<trkpt lat="47.884682" lon="15.686913">
<ele>772.5</ele>
<desc>Speed 94.9 km/h Distance 120 km</desc>
<time>2012-09-18T17:32:24.67</time>
<name>5978</name>
<sym>Dot</sym>
</trkpt>
<trkpt lat="47.884495" lon="15.687142">
<ele>772.5</ele>
<desc>Speed 97.5 km/h Distance 120 km</desc>
<time>2012-09-18T17:32:25.66</time>
<name>5979</name>
<sym>Dot</sym>
</trkpt>
<trkpt lat="47.884302" lon="15.687373">
<ele>772.0</ele>
<desc>Speed 99.7 km/h Distance 120 km</desc>
<time>2012-09-18T17:32:26.68</time>
<name>5980</name>
<sym>Dot</sym>
</trkpt>
<trkpt lat="47.883920" lon="15.687852">
<ele>768.0</ele>
<desc>Speed 101 km/h Distance 120 km</desc>
<time>2012-09-18T17:32:28.65</time>
<name>5981</name>
<sym>Dot</sym>
</trkpt>
<trkpt lat="47.883725" lon="15.688098">
<ele>766.0</ele>
<desc>Speed 103 km/h Distance 120 km</desc>
<time>2012-09-18T17:32:29.64</time>
<name>5982</name>
<sym>Dot</sym>
</trkpt>
<trkpt lat="47.883527" lon="15.688347">
<ele>764.5</ele>
<desc>Speed 104 km/h Distance 120 km</desc>
<time>2012-09-18T17:32:30.64</time>
<name>5983</name>
<sym>Dot</sym>
</trkpt>
<trkpt lat="47.883327" lon="15.688598">
<ele>762.5</ele>
<desc>Speed 105 km/h Distance 120 km</desc>
<time>2012-09-18T17:32:31.64</time>
<name>5984</name>
<sym>Dot</sym>
</trkpt>
<trkpt lat="47.883123" lon="15.688842">
<ele>762.5</ele>
<desc>Speed 105 km/h Distance 120 km</desc>
<time>2012-09-18T17:32:32.64</time>
<name>5985</name>
<sym>Dot</sym>
</trkpt>
<trkpt lat="47.882920" lon="15.689088">
<ele>762.0</ele>
<desc>Speed 105 km/h Distance 120 km</desc>
<time>2012-09-18T17:32:33.63</time>
<name>5986</name>
<sym>Dot</sym>
</trkpt>
<trkpt lat="47.882722" lon="15.689337">
<ele>761.5</ele>
<desc>Speed 104 km/h Distance 120 km</desc>
<time>2012-09-18T17:32:34.63</time>
<name>5987</name>
<sym>Dot</sym>
</trkpt>
<trkpt lat="47.882535" lon="15.689595">
<ele>760.0</ele>
<desc>Speed 103 km/h Distance 120 km</desc>
<time>2012-09-18T17:32:35.62</time>
<name>5988</name>
<sym>Dot</sym>
</trkpt>
<trkpt lat="47.882358" lon="15.689867">
<ele>758.0</ele>
<desc>Speed 102 km/h Distance 120 km</desc>
<time>2012-09-18T17:32:36.61</time>
<name>5989</name>
<sym>Dot</sym>
</trkpt>
<trkpt lat="47.882188" lon="15.690143">
<ele>756.0</ele>
<desc>Speed 102 km/h Distance 120 km</desc>
<time>2012-09-18T17:32:37.62</time>
<name>5990</name>
<sym>Dot</sym>
</trkpt>
<trkpt lat="47.882027" lon="15.690440">
<ele>753.5</ele>
<desc>Speed 103 km/h Distance 120 km</desc>
<time>2012-09-18T17:32:38.60</time>
<name>5991</name>
<sym>Dot</sym>
</trkpt>
<trkpt lat="47.881867" lon="15.690742">
<ele>751.5</ele>
<desc>Speed 104 km/h Distance 120 km</desc>
<time>2012-09-18T17:32:39.60</time>
<name>5992</name>
<sym>Dot</sym>
</trkpt>
<trkpt lat="47.881715" lon="15.691057">
<ele>749.5</ele>
<desc>Speed 104 km/h Distance 120 km</desc>
<time>2012-09-18T17:32:40.60</time>
<name>5993</name>
<sym>Dot</sym>
</trkpt>
<trkpt lat="47.881575" lon="15.691373">
<ele>747.5</ele>
<desc>Speed 102 km/h Distance 120 km</desc>
<time>2012-09-18T17:32:41.59</time>
<name>5994</name>
<sym>Dot</sym>
</trkpt>
<trkpt lat="47.881442" lon="15.691685">
<ele>746.0</ele>
<desc>Speed 99.5 km/h Distance 120 km</desc>
<time>2012-09-18T17:32:42.59</time>
<name>5995</name>
<sym>Dot</sym>
</trkpt>
<trkpt lat="47.881305" lon="15.691985">
<ele>744.0</ele>
<desc>Speed 97.7 km/h Distance 120 km</desc>
<time>2012-09-18T17:32:43.58</time>
<name>5996</name>
<sym>Dot</sym>
</trkpt>
<trkpt lat="47.881147" lon="15.692270">
<ele>743.5</ele>
<desc>Speed 99.8 km/h Distance 120 km</desc>
<time>2012-09-18T17:32:44.58</time>
<name>5997</name>
<sym>Dot</sym>
</trkpt>
<trkpt lat="47.880990" lon="15.692545">
<ele>741.5</ele>
<desc>Speed 97.0 km/h Distance 120 km</desc>
<time>2012-09-18T17:32:45.57</time>
<name>5998</name>
<sym>Dot</sym>
</trkpt>
<trkpt lat="47.880803" lon="15.692770">
<ele>741.0</ele>
<desc>Speed 96.5 km/h Distance 121 km</desc>
<time>2012-09-18T17:32:46.57</time>
<name>5999</name>
<sym>Dot</sym>
</trkpt>
<trkpt lat="47.880622" lon="15.693007">
<ele>739.0</ele>
<desc>Speed 96.5 km/h Distance 121 km</desc>
<time>2012-09-18T17:32:47.56</time>
<name>6000</name>
<sym>Dot</sym>
</trkpt>
<trkpt lat="47.880417" lon="15.693210">
<ele>737.0</ele>
<desc>Speed 99.1 km/h Distance 121 km</desc>
<time>2012-09-18T17:32:48.58</time>
<name>6001</name>
<sym>Dot</sym>
</trkpt>
<trkpt lat="47.880188" lon="15.693375">
<ele>736.5</ele>
<desc>Speed 102 km/h Distance 121 km</desc>
<time>2012-09-18T17:32:49.55</time>
<name>6002</name>
<sym>Dot</sym>
</trkpt>
<trkpt lat="47.879945" lon="15.693515">
<ele>736.5</ele>
<desc>Speed 105 km/h Distance 121 km</desc>
<time>2012-09-18T17:32:50.55</time>
<name>6003</name>
<sym>Dot</sym>
</trkpt>
<trkpt lat="47.879702" lon="15.693650">
<ele>735.5</ele>
<desc>Speed 104 km/h Distance 121 km</desc>
<time>2012-09-18T17:32:51.53</time>
<name>6004</name>
<sym>Dot</sym>
</trkpt>
<trkpt lat="47.879457" lon="15.693788">
<ele>734.5</ele>
<desc>Speed 106 km/h Distance 121 km</desc>
<time>2012-09-18T17:32:52.53</time>
<name>6005</name>
<sym>Dot</sym>
</trkpt>
<trkpt lat="47.879212" lon="15.693942">
<ele>733.5</ele>
<desc>Speed 107 km/h Distance 121 km</desc>
<time>2012-09-18T17:32:53.52</time>
<name>6006</name>
<sym>Dot</sym>
</trkpt>
<trkpt lat="47.878975" lon="15.694127">
<ele>733.5</ele>
<desc>Speed 107 km/h Distance 121 km</desc>
<time>2012-09-18T17:32:54.53</time>
<name>6007</name>
<sym>Dot</sym>
</trkpt>
<trkpt lat="47.878738" lon="15.694320">
<ele>733.5</ele>
<desc>Speed 108 km/h Distance 121 km</desc>
<time>2012-09-18T17:32:55.52</time>
<name>6008</name>
<sym>Dot</sym>
</trkpt>
<trkpt lat="47.878513" lon="15.694537">
<ele>733.0</ele>
<desc>Speed 108 km/h Distance 121 km</desc>
<time>2012-09-18T17:32:56.51</time>
<name>6009</name>
<sym>Dot</sym>
</trkpt>
<trkpt lat="47.878290" lon="15.694758">
<ele>732.0</ele>
<desc>Speed 108 km/h Distance 121 km</desc>
<time>2012-09-18T17:32:57.50</time>
<name>6010</name>
<sym>Dot</sym>
</trkpt>
<trkpt lat="47.878068" lon="15.694982">
<ele>731.0</ele>
<desc>Speed 107 km/h Distance 121 km</desc>
<time>2012-09-18T17:32:58.50</time>
<name>6011</name>
<sym>Dot</sym>
</trkpt>
<trkpt lat="47.877845" lon="15.695193">
<ele>731.0</ele>
<desc>Speed 107 km/h Distance 121 km</desc>
<time>2012-09-18T17:32:59.52</time>
<name>6012</name>
<sym>Dot</sym>
</trkpt>
<trkpt lat="47.877613" lon="15.695382">
<ele>730.5</ele>
<desc>Speed 106 km/h Distance 121 km</desc>
<time>2012-09-18T17:33:00.49</time>
<name>6013</name>
<sym>Dot</sym>
</trkpt>
<trkpt lat="47.877385" lon="15.695568">
<ele>730.5</ele>
<desc>Speed 105 km/h Distance 121 km</desc>
<time>2012-09-18T17:33:01.48</time>
<name>6014</name>
<sym>Dot</sym>
</trkpt>
<trkpt lat="47.877148" lon="15.695733">
<ele>730.0</ele>
<desc>Speed 105 km/h Distance 121 km</desc>
<time>2012-09-18T17:33:02.49</time>
<name>6015</name>
<sym>Dot</sym>
</trkpt>
<trkpt lat="47.876910" lon="15.695885">
<ele>730.0</ele>
<desc>Speed 104 km/h Distance 121 km</desc>
<time>2012-09-18T17:33:03.49</time>
<name>6016</name>
<sym>Dot</sym>
</trkpt>
<trkpt lat="47.876657" lon="15.696005">
<ele>729.5</ele>
<desc>Speed 107 km/h Distance 121 km</desc>
<time>2012-09-18T17:33:04.48</time>
<name>6017</name>
<sym>Dot</sym>
</trkpt>
<trkpt lat="47.876407" lon="15.696113">
<ele>729.5</ele>
<desc>Speed 105 km/h Distance 121 km</desc>
<time>2012-09-18T17:33:05.48</time>
<name>6018</name>
<sym>Dot</sym>
</trkpt>
<trkpt lat="47.876153" lon="15.696205">
<ele>729.0</ele>
<desc>Speed 105 km/h Distance 121 km</desc>
<time>2012-09-18T17:33:06.48</time>
<name>6019</name>
<sym>Dot</sym>
</trkpt>
<trkpt lat="47.875900" lon="15.696287">
<ele>728.0</ele>
<desc>Speed 105 km/h Distance 121 km</desc>
<time>2012-09-18T17:33:07.48</time>
<name>6020</name>
<sym>Dot</sym>
</trkpt>
<trkpt lat="47.875648" lon="15.696363">
<ele>727.5</ele>
<desc>Speed 104 km/h Distance 121 km</desc>
<time>2012-09-18T17:33:08.46</time>
<name>6021</name>
<sym>Dot</sym>
</trkpt>
<trkpt lat="47.875398" lon="15.696437">
<ele>726.5</ele>
<desc>Speed 103 km/h Distance 121 km</desc>
<time>2012-09-18T17:33:09.46</time>
<name>6022</name>
<sym>Dot</sym>
</trkpt>
<trkpt lat="47.875143" lon="15.696507">
<ele>726.0</ele>
<desc>Speed 104 km/h Distance 121 km</desc>
<time>2012-09-18T17:33:10.53</time>
<name>6023</name>
<sym>Dot</sym>
</trkpt>
<trkpt lat="47.874895" lon="15.696588">
<ele>725.5</ele>
<desc>Speed 103 km/h Distance 121 km</desc>
<time>2012-09-18T17:33:11.50</time>
<name>6024</name>
<sym>Dot</sym>
</trkpt>
<trkpt lat="47.874650" lon="15.696683">
<ele>724.5</ele>
<desc>Speed 102 km/h Distance 121 km</desc>
<time>2012-09-18T17:33:12.43</time>
<name>6025</name>
<sym>Dot</sym>
</trkpt>
<trkpt lat="47.874408" lon="15.696785">
<ele>723.5</ele>
<desc>Speed 101 km/h Distance 121 km</desc>
<time>2012-09-18T17:33:13.42</time>
<name>6026</name>
<sym>Dot</sym>
</trkpt>
<trkpt lat="47.874170" lon="15.696887">
<ele>723.0</ele>
<desc>Speed 99.4 km/h Distance 121 km</desc>
<time>2012-09-18T17:33:14.42</time>
<name>6027</name>
<sym>Dot</sym>
</trkpt>
<trkpt lat="47.873935" lon="15.696992">
<ele>722.5</ele>
<desc>Speed 98.5 km/h Distance 121 km</desc>
<time>2012-09-18T17:33:15.41</time>
<name>6028</name>
<sym>Dot</sym>
</trkpt>
<trkpt lat="47.873702" lon="15.697098">
<ele>721.0</ele>
<desc>Speed 98.2 km/h Distance 121 km</desc>
<time>2012-09-18T17:33:16.41</time>
<name>6029</name>
<sym>Dot</sym>
</trkpt>
<trkpt lat="47.873465" lon="15.697207">
<ele>720.5</ele>
<desc>Speed 99.4 km/h Distance 121 km</desc>
<time>2012-09-18T17:33:17.40</time>
<name>6030</name>
<sym>Dot</sym>
</trkpt>
<trkpt lat="47.873225" lon="15.697317">
<ele>719.5</ele>
<desc>Speed 101 km/h Distance 121 km</desc>
<time>2012-09-18T17:33:18.39</time>
<name>6031</name>
<sym>Dot</sym>
</trkpt>
<trkpt lat="47.872983" lon="15.697428">
<ele>719.0</ele>
<desc>Speed 101 km/h Distance 121 km</desc>
<time>2012-09-18T17:33:19.38</time>
<name>6032</name>
<sym>Dot</sym>
</trkpt>
<trkpt lat="47.872745" lon="15.697545">
<ele>718.0</ele>
<desc>Speed 101 km/h Distance 121 km</desc>
<time>2012-09-18T17:33:20.38</time>
<name>6033</name>
<sym>Dot</sym>
</trkpt>
<trkpt lat="47.872507" lon="15.697663">
<ele>717.0</ele>
<desc>Speed 101 km/h Distance 122 km</desc>
<time>2012-09-18T17:33:21.37</time>
<name>6034</name>
<sym>Dot</sym>
</trkpt>
<trkpt lat="47.872270" lon="15.697783">
<ele>715.5</ele>
<desc>Speed 100 km/h Distance 122 km</desc>
<time>2012-09-18T17:33:22.36</time>
<name>6035</name>
<sym>Dot</sym>
</trkpt>
<trkpt lat="47.872037" lon="15.697902">
<ele>714.5</ele>
<desc>Speed 99.1 km/h Distance 122 km</desc>
<time>2012-09-18T17:33:23.36</time>
<name>6036</name>
<sym>Dot</sym>
</trkpt>
<trkpt lat="47.871813" lon="15.698018">
<ele>713.5</ele>
<desc>Speed 94.9 km/h Distance 122 km</desc>
<time>2012-09-18T17:33:24.38</time>
<name>6037</name>
<sym>Dot</sym>
</trkpt>
<trkpt lat="47.871600" lon="15.698133">
<ele>712.5</ele>
<desc>Speed 91.3 km/h Distance 122 km</desc>
<time>2012-09-18T17:33:25.37</time>
<name>6038</name>
<sym>Dot</sym>
</trkpt>
<trkpt lat="47.871397" lon="15.698250">
<ele>711.5</ele>
<desc>Speed 87.8 km/h Distance 122 km</desc>
<time>2012-09-18T17:33:26.37</time>
<name>6039</name>
<sym>Dot</sym>
</trkpt>
<trkpt lat="47.871203" lon="15.698370">
<ele>710.0</ele>
<desc>Speed 84.1 km/h Distance 122 km</desc>
<time>2012-09-18T17:33:27.35</time>
<name>6040</name>
<sym>Dot</sym>
</trkpt>
<trkpt lat="47.871020" lon="15.698503">
<ele>708.5</ele>
<desc>Speed 82.1 km/h Distance 122 km</desc>
<time>2012-09-18T17:33:28.34</time>
<name>6041</name>
<sym>Dot</sym>
</trkpt>
<trkpt lat="47.870837" lon="15.698647">
<ele>708.0</ele>
<desc>Speed 83.4 km/h Distance 122 km</desc>
<time>2012-09-18T17:33:29.34</time>
<name>6042</name>
<sym>Dot</sym>
</trkpt>
<trkpt lat="47.870667" lon="15.698818">
<ele>707.5</ele>
<desc>Speed 82.9 km/h Distance 122 km</desc>
<time>2012-09-18T17:33:30.34</time>
<name>6043</name>
<sym>Dot</sym>
</trkpt>
<trkpt lat="47.870493" lon="15.698987">
<ele>707.0</ele>
<desc>Speed 82.9 km/h Distance 122 km</desc>
<time>2012-09-18T17:33:31.33</time>
<name>6044</name>
<sym>Dot</sym>
</trkpt>
<trkpt lat="47.870330" lon="15.699153">
<ele>707.5</ele>
<desc>Speed 80.2 km/h Distance 122 km</desc>
<time>2012-09-18T17:33:32.33</time>
<name>6045</name>
<sym>Dot</sym>
</trkpt>
<trkpt lat="47.870173" lon="15.699320">
<ele>707.5</ele>
<desc>Speed 77.1 km/h Distance 122 km</desc>
<time>2012-09-18T17:33:33.32</time>
<name>6046</name>
<sym>Dot</sym>
</trkpt>
<trkpt lat="47.869912" lon="15.699670">
<ele>709.0</ele>
<desc>Speed 69.7 km/h Distance 122 km</desc>
<time>2012-09-18T17:33:35.34</time>
<name>6047</name>
<sym>Dot</sym>
</trkpt>
<trkpt lat="47.869803" lon="15.699858">
<ele>709.0</ele>
<desc>Speed 67.3 km/h Distance 122 km</desc>
<time>2012-09-18T17:33:36.34</time>
<name>6048</name>
<sym>Dot</sym>
</trkpt>
<trkpt lat="47.869727" lon="15.700083">
<ele>709.0</ele>
<desc>Speed 68.3 km/h Distance 122 km</desc>
<time>2012-09-18T17:33:37.33</time>
<name>6049</name>
<sym>Dot</sym>
</trkpt>
<trkpt lat="47.869663" lon="15.700310">
<ele>710.5</ele>
<desc>Speed 66.1 km/h Distance 122 km</desc>
<time>2012-09-18T17:33:38.33</time>
<name>6050</name>
<sym>Dot</sym>
</trkpt>
<trkpt lat="47.869625" lon="15.700548">
<ele>711.0</ele>
<desc>Speed 66.5 km/h Distance 122 km</desc>
<time>2012-09-18T17:33:39.31</time>
<name>6051</name>
<sym>Dot</sym>
</trkpt>
<trkpt lat="47.869597" lon="15.700790">
<ele>711.0</ele>
<desc>Speed 66.2 km/h Distance 122 km</desc>
<time>2012-09-18T17:33:40.32</time>
<name>6052</name>
<sym>Dot</sym>
</trkpt>
<trkpt lat="47.869587" lon="15.701025">
<ele>710.5</ele>
<desc>Speed 63.4 km/h Distance 122 km</desc>
<time>2012-09-18T17:33:41.31</time>
<name>6053</name>
<sym>Dot</sym>
</trkpt>
<trkpt lat="47.869592" lon="15.701247">
<ele>710.0</ele>
<desc>Speed 59.8 km/h Distance 122 km</desc>
<time>2012-09-18T17:33:42.32</time>
<name>6054</name>
<sym>Dot</sym>
</trkpt>
<trkpt lat="47.869612" lon="15.701465">
<ele>710.0</ele>
<desc>Speed 59.5 km/h Distance 122 km</desc>
<time>2012-09-18T17:33:43.31</time>
<name>6055</name>
<sym>Dot</sym>
</trkpt>
<trkpt lat="47.869642" lon="15.701677">
<ele>709.5</ele>
<desc>Speed 58.1 km/h Distance 122 km</desc>
<time>2012-09-18T17:33:44.29</time>
<name>6056</name>
<sym>Dot</sym>
</trkpt>
<trkpt lat="47.869683" lon="15.701873">
<ele>709.0</ele>
<desc>Speed 55.5 km/h Distance 122 km</desc>
<time>2012-09-18T17:33:45.29</time>
<name>6057</name>
<sym>Dot</sym>
</trkpt>
<trkpt lat="47.869733" lon="15.702050">
<ele>708.5</ele>
<desc>Speed 51.6 km/h Distance 122 km</desc>
<time>2012-09-18T17:33:46.28</time>
<name>6058</name>
<sym>Dot</sym>
</trkpt>
<trkpt lat="47.869788" lon="15.702208">
<ele>708.0</ele>
<desc>Speed 48.3 km/h Distance 122 km</desc>
<time>2012-09-18T17:33:47.27</time>
<name>6059</name>
<sym>Dot</sym>
</trkpt>
<trkpt lat="47.869845" lon="15.702352">
<ele>707.5</ele>
<desc>Speed 44.9 km/h Distance 122 km</desc>
<time>2012-09-18T17:33:48.27</time>
<name>6060</name>
<sym>Dot</sym>
</trkpt>
<trkpt lat="47.869898" lon="15.702473">
<ele>707.5</ele>
<desc>Speed 39.2 km/h Distance 122 km</desc>
<time>2012-09-18T17:33:49.27</time>
<name>6061</name>
<sym>Dot</sym>
</trkpt>
<trkpt lat="47.869943" lon="15.702665">
<ele>706.5</ele>
<desc>Speed 28.6 km/h Distance 122 km</desc>
<time>2012-09-18T17:33:51.26</time>
<name>6062</name>
<sym>Dot</sym>
</trkpt>
<trkpt lat="47.869945" lon="15.702775">
<ele>707.5</ele>
<desc>Speed 28.9 km/h Distance 122 km</desc>
<time>2012-09-18T17:33:52.27</time>
<name>6063</name>
<sym>Dot</sym>
</trkpt>
<trkpt lat="47.869925" lon="15.702885">
<ele>707.5</ele>
<desc>Speed 30.4 km/h Distance 122 km</desc>
<time>2012-09-18T17:33:53.27</time>
<name>6064</name>
<sym>Dot</sym>
</trkpt>
<trkpt lat="47.869877" lon="15.702985">
<ele>708.0</ele>
<desc>Speed 33.7 km/h Distance 122 km</desc>
<time>2012-09-18T17:33:54.26</time>
<name>6065</name>
<sym>Dot</sym>
</trkpt>
<trkpt lat="47.869818" lon="15.703072">
<ele>707.0</ele>
<desc>Speed 33.4 km/h Distance 122 km</desc>
<time>2012-09-18T17:33:55.34</time>
<name>6066</name>
<sym>Dot</sym>
</trkpt>
<trkpt lat="47.869735" lon="15.703120">
<ele>705.5</ele>
<desc>Speed 35.3 km/h Distance 122 km</desc>
<time>2012-09-18T17:33:56.23</time>
<name>6067</name>
<sym>Dot</sym>
</trkpt>
<trkpt lat="47.869648" lon="15.703137">
<ele>706.5</ele>
<desc>Speed 34.8 km/h Distance 122 km</desc>
<time>2012-09-18T17:33:57.22</time>
<name>6068</name>
<sym>Dot</sym>
</trkpt>
<trkpt lat="47.868717" lon="15.702783">
<ele>704.5</ele>
<desc>Speed 77.2 km/h Distance 122 km</desc>
<time>2012-09-18T17:34:03.69</time>
<name>6069</name>
<sym>Dot</sym>
</trkpt>
<trkpt lat="47.868530" lon="15.702687">
<ele>704.5</ele>
<desc>Speed 79.7 km/h Distance 122 km</desc>
<time>2012-09-18T17:34:04.70</time>
<name>6070</name>
<sym>Dot</sym>
</trkpt>
<trkpt lat="47.868338" lon="15.702578">
<ele>704.5</ele>
<desc>Speed 82.5 km/h Distance 122 km</desc>
<time>2012-09-18T17:34:05.70</time>
<name>6071</name>
<sym>Dot</sym>
</trkpt>
<trkpt lat="47.868157" lon="15.702463">
<ele>706.0</ele>
<desc>Speed 79.2 km/h Distance 122 km</desc>
<time>2012-09-18T17:34:06.69</time>
<name>6072</name>
<sym>Dot</sym>
</trkpt>
<trkpt lat="47.867973" lon="15.702338">
<ele>706.5</ele>
<desc>Speed 81.9 km/h Distance 122 km</desc>
<time>2012-09-18T17:34:07.68</time>
<name>6073</name>
<sym>Dot</sym>
</trkpt>
<trkpt lat="47.867787" lon="15.702207">
<ele>706.5</ele>
<desc>Speed 82.8 km/h Distance 122 km</desc>
<time>2012-09-18T17:34:08.66</time>
<name>6074</name>
<sym>Dot</sym>
</trkpt>
<trkpt lat="47.867602" lon="15.702068">
<ele>707.0</ele>
<desc>Speed 83.5 km/h Distance 122 km</desc>
<time>2012-09-18T17:34:09.66</time>
<name>6075</name>
<sym>Dot</sym>
</trkpt>
<trkpt lat="47.867418" lon="15.701922">
<ele>706.5</ele>
<desc>Speed 84.2 km/h Distance 122 km</desc>
<time>2012-09-18T17:34:10.66</time>
<name>6076</name>
<sym>Dot</sym>
</trkpt>
<trkpt lat="47.867247" lon="15.701775">
<ele>706.5</ele>
<desc>Speed 79.7 km/h Distance 122 km</desc>
<time>2012-09-18T17:34:11.66</time>
<name>6077</name>
<sym>Dot</sym>
</trkpt>
<trkpt lat="47.867090" lon="15.701623">
<ele>706.5</ele>
<desc>Speed 75.7 km/h Distance 122 km</desc>
<time>2012-09-18T17:34:12.65</time>
<name>6078</name>
<sym>Dot</sym>
</trkpt>
<trkpt lat="47.866945" lon="15.701453">
<ele>706.5</ele>
<desc>Speed 74.8 km/h Distance 122 km</desc>
<time>2012-09-18T17:34:13.64</time>
<name>6079</name>
<sym>Dot</sym>
</trkpt>
<trkpt lat="47.866818" lon="15.701255">
<ele>706.5</ele>
<desc>Speed 74.7 km/h Distance 122 km</desc>
<time>2012-09-18T17:34:14.65</time>
<name>6080</name>
<sym>Dot</sym>
</trkpt>
<trkpt lat="47.866710" lon="15.701033">
<ele>706.5</ele>
<desc>Speed 74.5 km/h Distance 123 km</desc>
<time>2012-09-18T17:34:15.65</time>
<name>6081</name>
<sym>Dot</sym>
</trkpt>
<trkpt lat="47.866633" lon="15.700797">
<ele>707.5</ele>
<desc>Speed 71.5 km/h Distance 123 km</desc>
<time>2012-09-18T17:34:16.66</time>
<name>6082</name>
<sym>Dot</sym>
</trkpt>
<trkpt lat="47.866580" lon="15.700552">
<ele>709.0</ele>
<desc>Speed 69.7 km/h Distance 123 km</desc>
<time>2012-09-18T17:34:17.64</time>
<name>6083</name>
<sym>Dot</sym>
</trkpt>
<trkpt lat="47.866530" lon="15.700310">
<ele>709.0</ele>
<desc>Speed 68.1 km/h Distance 123 km</desc>
<time>2012-09-18T17:34:18.64</time>
<name>6084</name>
<sym>Dot</sym>
</trkpt>
<trkpt lat="47.866478" lon="15.700075">
<ele>708.5</ele>
<desc>Speed 66.7 km/h Distance 123 km</desc>
<time>2012-09-18T17:34:19.62</time>
<name>6085</name>
<sym>Dot</sym>
</trkpt>
<trkpt lat="47.866412" lon="15.699862">
<ele>708.5</ele>
<desc>Speed 63.8 km/h Distance 123 km</desc>
<time>2012-09-18T17:34:20.62</time>
<name>6086</name>
<sym>Dot</sym>
</trkpt>
<trkpt lat="47.866327" lon="15.699662">
<ele>707.5</ele>
<desc>Speed 63.5 km/h Distance 123 km</desc>
<time>2012-09-18T17:34:21.62</time>
<name>6087</name>
<sym>Dot</sym>
</trkpt>
<trkpt lat="47.866213" lon="15.699497">
<ele>708.0</ele>
<desc>Speed 63.8 km/h Distance 123 km</desc>
<time>2012-09-18T17:34:22.61</time>
<name>6088</name>
<sym>Dot</sym>
</trkpt>
<trkpt lat="47.866068" lon="15.699355">
<ele>706.5</ele>
<desc>Speed 69.4 km/h Distance 123 km</desc>
<time>2012-09-18T17:34:23.61</time>
<name>6089</name>
<sym>Dot</sym>
</trkpt>
<trkpt lat="47.865908" lon="15.699247">
<ele>705.5</ele>
<desc>Speed 71.2 km/h Distance 123 km</desc>
<time>2012-09-18T17:34:24.61</time>
<name>6090</name>
<sym>Dot</sym>
</trkpt>
<trkpt lat="47.865507" lon="15.699092">
<ele>703.5</ele>
<desc>Speed 82.7 km/h Distance 123 km</desc>
<time>2012-09-18T17:34:26.59</time>
<name>6091</name>
<sym>Dot</sym>
</trkpt>
<trkpt lat="47.865298" lon="15.699022">
<ele>703.0</ele>
<desc>Speed 86.3 km/h Distance 123 km</desc>
<time>2012-09-18T17:34:27.58</time>
<name>6092</name>
<sym>Dot</sym>
</trkpt>
<trkpt lat="47.865077" lon="15.698963">
<ele>702.5</ele>
<desc>Speed 89.7 km/h Distance 123 km</desc>
<time>2012-09-18T17:34:28.59</time>
<name>6093</name>
<sym>Dot</sym>
</trkpt>
<trkpt lat="47.864843" lon="15.698917">
<ele>701.5</ele>
<desc>Speed 94.7 km/h Distance 123 km</desc>
<time>2012-09-18T17:34:29.58</time>
<name>6094</name>
<sym>Dot</sym>
</trkpt>
<trkpt lat="47.864598" lon="15.698878">
<ele>701.0</ele>
<desc>Speed 98.9 km/h Distance 123 km</desc>
<time>2012-09-18T17:34:30.57</time>
<name>6095</name>
<sym>Dot</sym>
</trkpt>
<trkpt lat="47.864353" lon="15.698858">
<ele>701.0</ele>
<desc>Speed 98.8 km/h Distance 123 km</desc>
<time>2012-09-18T17:34:31.57</time>
<name>6096</name>
<sym>Dot</sym>
</trkpt>
<trkpt lat="47.864120" lon="15.698865">
<ele>700.0</ele>
<desc>Speed 93.7 km/h Distance 123 km</desc>
<time>2012-09-18T17:34:32.56</time>
<name>6097</name>
<sym>Dot</sym>
</trkpt>
<trkpt lat="47.863892" lon="15.698875">
<ele>699.0</ele>
<desc>Speed 91.8 km/h Distance 123 km</desc>
<time>2012-09-18T17:34:33.55</time>
<name>6098</name>
<sym>Dot</sym>
</trkpt>
<trkpt lat="47.863478" lon="15.698885">
<ele>698.0</ele>
<desc>Speed 82.5 km/h Distance 123 km</desc>
<time>2012-09-18T17:34:35.54</time>
<name>6099</name>
<sym>Dot</sym>
</trkpt>
<trkpt lat="47.863108" lon="15.698745">
<ele>698.5</ele>
<desc>Speed 79.1 km/h Distance 123 km</desc>
<time>2012-09-18T17:34:37.54</time>
<name>6100</name>
<sym>Dot</sym>
</trkpt>
<trkpt lat="47.862910" lon="15.698632">
<ele>698.5</ele>
<desc>Speed 86.0 km/h Distance 123 km</desc>
<time>2012-09-18T17:34:38.54</time>
<name>6101</name>
<sym>Dot</sym>
</trkpt>
<trkpt lat="47.862720" lon="15.698458">
<ele>698.5</ele>
<desc>Speed 89.0 km/h Distance 123 km</desc>
<time>2012-09-18T17:34:39.54</time>
<name>6102</name>
<sym>Dot</sym>
</trkpt>
<trkpt lat="47.862522" lon="15.698287">
<ele>699.0</ele>
<desc>Speed 92.1 km/h Distance 123 km</desc>
<time>2012-09-18T17:34:40.54</time>
<name>6103</name>
<sym>Dot</sym>
</trkpt>
<trkpt lat="47.862317" lon="15.698102">
<ele>700.5</ele>
<desc>Speed 96.2 km/h Distance 123 km</desc>
<time>2012-09-18T17:34:41.54</time>
<name>6104</name>
<sym>Dot</sym>
</trkpt>
<trkpt lat="47.862105" lon="15.697893">
<ele>701.5</ele>
<desc>Speed 102 km/h Distance 123 km</desc>
<time>2012-09-18T17:34:42.52</time>
<name>6105</name>
<sym>Dot</sym>
</trkpt>
<trkpt lat="47.861892" lon="15.697673">
<ele>703.0</ele>
<desc>Speed 104 km/h Distance 123 km</desc>
<time>2012-09-18T17:34:43.51</time>
<name>6106</name>
<sym>Dot</sym>
</trkpt>
<trkpt lat="47.861692" lon="15.697450">
<ele>704.5</ele>
<desc>Speed 100 km/h Distance 123 km</desc>
<time>2012-09-18T17:34:44.51</time>
<name>6107</name>
<sym>Dot</sym>
</trkpt>
<trkpt lat="47.861492" lon="15.697230">
<ele>704.0</ele>
<desc>Speed 99.7 km/h Distance 123 km</desc>
<time>2012-09-18T17:34:45.51</time>
<name>6108</name>
<sym>Dot</sym>
</trkpt>
<trkpt lat="47.861308" lon="15.697010">
<ele>704.0</ele>
<desc>Speed 94.9 km/h Distance 123 km</desc>
<time>2012-09-18T17:34:46.51</time>
<name>6109</name>
<sym>Dot</sym>
</trkpt>
<trkpt lat="47.860712" lon="15.696395">
<ele>707.0</ele>
<desc>Speed 68.7 km/h Distance 123 km</desc>
<time>2012-09-18T17:34:50.68</time>
<name>6110</name>
<sym>Dot</sym>
</trkpt>
<trkpt lat="47.860577" lon="15.696277">
<ele>708.0</ele>
<desc>Speed 64.1 km/h Distance 123 km</desc>
<time>2012-09-18T17:34:51.68</time>
<name>6111</name>
<sym>Dot</sym>
</trkpt>
<trkpt lat="47.860448" lon="15.696133">
<ele>708.0</ele>
<desc>Speed 64.6 km/h Distance 123 km</desc>
<time>2012-09-18T17:34:52.67</time>
<name>6112</name>
<sym>Dot</sym>
</trkpt>
<trkpt lat="47.860330" lon="15.695967">
<ele>707.5</ele>
<desc>Speed 65.5 km/h Distance 123 km</desc>
<time>2012-09-18T17:34:53.68</time>
<name>6113</name>
<sym>Dot</sym>
</trkpt>
<trkpt lat="47.860237" lon="15.695763">
<ele>707.5</ele>
<desc>Speed 66.9 km/h Distance 123 km</desc>
<time>2012-09-18T17:34:54.67</time>
<name>6114</name>
<sym>Dot</sym>
</trkpt>
<trkpt lat="47.860167" lon="15.695532">
<ele>709.0</ele>
<desc>Speed 68.8 km/h Distance 123 km</desc>
<time>2012-09-18T17:34:55.67</time>
<name>6115</name>
<sym>Dot</sym>
</trkpt>
<trkpt lat="47.860097" lon="15.695303">
<ele>709.0</ele>
<desc>Speed 67.3 km/h Distance 123 km</desc>
<time>2012-09-18T17:34:56.66</time>
<name>6116</name>
<sym>Dot</sym>
</trkpt>
<trkpt lat="47.860028" lon="15.695078">
<ele>709.0</ele>
<desc>Speed 66.7 km/h Distance 123 km</desc>
<time>2012-09-18T17:34:57.65</time>
<name>6117</name>
<sym>Dot</sym>
</trkpt>
<trkpt lat="47.859943" lon="15.694853">
<ele>708.5</ele>
<desc>Speed 69.1 km/h Distance 123 km</desc>
<time>2012-09-18T17:34:58.65</time>
<name>6118</name>
<sym>Dot</sym>
</trkpt>
<trkpt lat="47.859847" lon="15.694635">
<ele>706.5</ele>
<desc>Speed 70.8 km/h Distance 123 km</desc>
<time>2012-09-18T17:34:59.66</time>
<name>6119</name>
<sym>Dot</sym>
</trkpt>
<trkpt lat="47.859752" lon="15.694433">
<ele>706.5</ele>
<desc>Speed 65.9 km/h Distance 123 km</desc>
<time>2012-09-18T17:35:00.64</time>
<name>6120</name>
<sym>Dot</sym>
</trkpt>
<trkpt lat="47.859647" lon="15.694238">
<ele>706.5</ele>
<desc>Speed 67.6 km/h Distance 124 km</desc>
<time>2012-09-18T17:35:01.63</time>
<name>6121</name>
<sym>Dot</sym>
</trkpt>
<trkpt lat="47.859532" lon="15.694053">
<ele>707.0</ele>
<desc>Speed 67.8 km/h Distance 124 km</desc>
<time>2012-09-18T17:35:02.62</time>
<name>6122</name>
<sym>Dot</sym>
</trkpt>
<trkpt lat="47.859415" lon="15.693872">
<ele>706.5</ele>
<desc>Speed 67.5 km/h Distance 124 km</desc>
<time>2012-09-18T17:35:03.62</time>
<name>6123</name>
<sym>Dot</sym>
</trkpt>
<trkpt lat="47.859305" lon="15.693688">
<ele>706.5</ele>
<desc>Speed 66.2 km/h Distance 124 km</desc>
<time>2012-09-18T17:35:04.61</time>
<name>6124</name>
<sym>Dot</sym>
</trkpt>
<trkpt lat="47.859203" lon="15.693502">
<ele>706.5</ele>
<desc>Speed 65.2 km/h Distance 124 km</desc>
<time>2012-09-18T17:35:05.59</time>
<name>6125</name>
<sym>Dot</sym>
</trkpt>
<trkpt lat="47.859103" lon="15.693318">
<ele>706.5</ele>
<desc>Speed 63.6 km/h Distance 124 km</desc>
<time>2012-09-18T17:35:06.61</time>
<name>6126</name>
<sym>Dot</sym>
</trkpt>
<trkpt lat="47.859005" lon="15.693148">
<ele>707.0</ele>
<desc>Speed 60.7 km/h Distance 124 km</desc>
<time>2012-09-18T17:35:07.61</time>
<name>6127</name>
<sym>Dot</sym>
</trkpt>
<trkpt lat="47.858898" lon="15.693025">
<ele>708.5</ele>
<desc>Speed 57.6 km/h Distance 124 km</desc>
<time>2012-09-18T17:35:08.60</time>
<name>6128</name>
<sym>Dot</sym>
</trkpt>
<trkpt lat="47.858778" lon="15.692943">
<ele>711.5</ele>
<desc>Speed 56.9 km/h Distance 124 km</desc>
<time>2012-09-18T17:35:09.60</time>
<name>6129</name>
<sym>Dot</sym>
</trkpt>
<trkpt lat="47.858652" lon="15.692892">
<ele>715.0</ele>
<desc>Speed 57.7 km/h Distance 124 km</desc>
<time>2012-09-18T17:35:10.60</time>
<name>6130</name>
<sym>Dot</sym>
</trkpt>
<trkpt lat="47.858497" lon="15.692860">
<ele>715.5</ele>
<desc>Speed 62.8 km/h Distance 124 km</desc>
<time>2012-09-18T17:35:11.60</time>
<name>6131</name>
<sym>Dot</sym>
</trkpt>
<trkpt lat="47.858342" lon="15.692865">
<ele>719.5</ele>
<desc>Speed 68.2 km/h Distance 124 km</desc>
<time>2012-09-18T17:35:12.58</time>
<name>6132</name>
<sym>Dot</sym>
</trkpt>
<trkpt lat="47.858157" lon="15.692852">
<ele>719.5</ele>
<desc>Speed 75.4 km/h Distance 124 km</desc>
<time>2012-09-18T17:35:13.58</time>
<name>6133</name>
<sym>Dot</sym>
</trkpt>
<trkpt lat="47.857978" lon="15.692842">
<ele>720.0</ele>
<desc>Speed 73.9 km/h Distance 124 km</desc>
<time>2012-09-18T17:35:14.58</time>
<name>6134</name>
<sym>Dot</sym>
</trkpt>
<trkpt lat="47.857808" lon="15.692840">
<ele>721.0</ele>
<desc>Speed 71.2 km/h Distance 124 km</desc>
<time>2012-09-18T17:35:15.55</time>
<name>6135</name>
<sym>Dot</sym>
</trkpt>
<trkpt lat="47.857638" lon="15.692853">
<ele>721.5</ele>
<desc>Speed 70.6 km/h Distance 124 km</desc>
<time>2012-09-18T17:35:16.54</time>
<name>6136</name>
<sym>Dot</sym>
</trkpt>
<trkpt lat="47.857468" lon="15.692868">
<ele>722.5</ele>
<desc>Speed 71.0 km/h Distance 124 km</desc>
<time>2012-09-18T17:35:17.54</time>
<name>6137</name>
<sym>Dot</sym>
</trkpt>
<trkpt lat="47.857310" lon="15.692900">
<ele>723.0</ele>
<desc>Speed 66.5 km/h Distance 124 km</desc>
<time>2012-09-18T17:35:18.53</time>
<name>6138</name>
<sym>Dot</sym>
</trkpt>
<trkpt lat="47.857160" lon="15.692975">
<ele>724.5</ele>
<desc>Speed 64.5 km/h Distance 124 km</desc>
<time>2012-09-18T17:35:19.53</time>
<name>6139</name>
<sym>Dot</sym>
</trkpt>
<trkpt lat="47.857000" lon="15.693063">
<ele>723.5</ele>
<desc>Speed 69.6 km/h Distance 124 km</desc>
<time>2012-09-18T17:35:20.53</time>
<name>6140</name>
<sym>Dot</sym>
</trkpt>
<trkpt lat="47.856842" lon="15.693163">
<ele>722.0</ele>
<desc>Speed 70.1 km/h Distance 124 km</desc>
<time>2012-09-18T17:35:21.53</time>
<name>6141</name>
<sym>Dot</sym>
</trkpt>
<trkpt lat="47.856685" lon="15.693267">
<ele>721.0</ele>
<desc>Speed 69.9 km/h Distance 124 km</desc>
<time>2012-09-18T17:35:22.52</time>
<name>6142</name>
<sym>Dot</sym>
</trkpt>
<trkpt lat="47.856530" lon="15.693367">
<ele>719.0</ele>
<desc>Speed 68.3 km/h Distance 124 km</desc>
<time>2012-09-18T17:35:23.53</time>
<name>6143</name>
<sym>Dot</sym>
</trkpt>
<trkpt lat="47.856378" lon="15.693470">
<ele>719.0</ele>
<desc>Speed 67.3 km/h Distance 124 km</desc>
<time>2012-09-18T17:35:24.52</time>
<name>6144</name>
<sym>Dot</sym>
</trkpt>
<trkpt lat="47.856230" lon="15.693572">
<ele>718.0</ele>
<desc>Speed 66.1 km/h Distance 124 km</desc>
<time>2012-09-18T17:35:25.51</time>
<name>6145</name>
<sym>Dot</sym>
</trkpt>
<trkpt lat="47.856097" lon="15.693703">
<ele>718.0</ele>
<desc>Speed 65.2 km/h Distance 124 km</desc>
<time>2012-09-18T17:35:26.50</time>
<name>6146</name>
<sym>Dot</sym>
</trkpt>
<trkpt lat="47.855973" lon="15.693848">
<ele>719.0</ele>
<desc>Speed 63.5 km/h Distance 124 km</desc>
<time>2012-09-18T17:35:27.50</time>
<name>6147</name>
<sym>Dot</sym>
</trkpt>
<trkpt lat="47.855855" lon="15.694017">
<ele>718.5</ele>
<desc>Speed 66.1 km/h Distance 124 km</desc>
<time>2012-09-18T17:35:28.50</time>
<name>6148</name>
<sym>Dot</sym>
</trkpt>
<trkpt lat="47.855740" lon="15.694193">
<ele>717.0</ele>
<desc>Speed 66.3 km/h Distance 124 km</desc>
<time>2012-09-18T17:35:29.49</time>
<name>6149</name>
<sym>Dot</sym>
</trkpt>
<trkpt lat="47.855632" lon="15.694372">
<ele>716.5</ele>
<desc>Speed 65.5 km/h Distance 124 km</desc>
<time>2012-09-18T17:35:30.49</time>
<name>6150</name>
<sym>Dot</sym>
</trkpt>
<trkpt lat="47.855528" lon="15.694545">
<ele>714.5</ele>
<desc>Speed 63.4 km/h Distance 124 km</desc>
<time>2012-09-18T17:35:31.48</time>
<name>6151</name>
<sym>Dot</sym>
</trkpt>
<trkpt lat="47.855423" lon="15.694710">
<ele>714.0</ele>
<desc>Speed 61.6 km/h Distance 124 km</desc>
<time>2012-09-18T17:35:32.47</time>
<name>6152</name>
<sym>Dot</sym>
</trkpt>
<trkpt lat="47.855313" lon="15.694858">
<ele>712.5</ele>
<desc>Speed 60.4 km/h Distance 124 km</desc>
<time>2012-09-18T17:35:33.47</time>
<name>6153</name>
<sym>Dot</sym>
</trkpt>
<trkpt lat="47.855197" lon="15.694993">
<ele>712.0</ele>
<desc>Speed 60.2 km/h Distance 124 km</desc>
<time>2012-09-18T17:35:34.46</time>
<name>6154</name>
<sym>Dot</sym>
</trkpt>
<trkpt lat="47.855075" lon="15.695123">
<ele>711.0</ele>
<desc>Speed 61.0 km/h Distance 124 km</desc>
<time>2012-09-18T17:35:35.46</time>
<name>6155</name>
<sym>Dot</sym>
</trkpt>
<trkpt lat="47.854947" lon="15.695250">
<ele>710.5</ele>
<desc>Speed 61.7 km/h Distance 124 km</desc>
<time>2012-09-18T17:35:36.45</time>
<name>6156</name>
<sym>Dot</sym>
</trkpt>
<trkpt lat="47.854803" lon="15.695362">
<ele>710.0</ele>
<desc>Speed 65.2 km/h Distance 124 km</desc>
<time>2012-09-18T17:35:37.46</time>
<name>6157</name>
<sym>Dot</sym>
</trkpt>
<trkpt lat="47.854642" lon="15.695442">
<ele>709.5</ele>
<desc>Speed 69.2 km/h Distance 124 km</desc>
<time>2012-09-18T17:35:38.45</time>
<name>6158</name>
<sym>Dot</sym>
</trkpt>
<trkpt lat="47.854490" lon="15.695520">
<ele>709.0</ele>
<desc>Speed 65.7 km/h Distance 124 km</desc>
<time>2012-09-18T17:35:39.45</time>
<name>6159</name>
<sym>Dot</sym>
</trkpt>
<trkpt lat="47.854333" lon="15.695583">
<ele>708.5</ele>
<desc>Speed 66.1 km/h Distance 124 km</desc>
<time>2012-09-18T17:35:40.45</time>
<name>6160</name>
<sym>Dot</sym>
</trkpt>
<trkpt lat="47.854180" lon="15.695633">
<ele>710.0</ele>
<desc>Speed 62.9 km/h Distance 124 km</desc>
<time>2012-09-18T17:35:41.44</time>
<name>6161</name>
<sym>Dot</sym>
</trkpt>
<trkpt lat="47.853833" lon="15.695670">
<ele>709.5</ele>
<desc>Speed 67.4 km/h Distance 124 km</desc>
<time>2012-09-18T17:35:43.41</time>
<name>6162</name>
<sym>Dot</sym>
</trkpt>
<trkpt lat="47.853665" lon="15.695688">
<ele>709.5</ele>
<desc>Speed 68.7 km/h Distance 124 km</desc>
<time>2012-09-18T17:35:44.41</time>
<name>6163</name>
<sym>Dot</sym>
</trkpt>
<trkpt lat="47.853490" lon="15.695708">
<ele>709.0</ele>
<desc>Speed 71.2 km/h Distance 124 km</desc>
<time>2012-09-18T17:35:45.49</time>
<name>6164</name>
<sym>Dot</sym>
</trkpt>
<trkpt lat="47.853310" lon="15.695730">
<ele>708.0</ele>
<desc>Speed 72.9 km/h Distance 124 km</desc>
<time>2012-09-18T17:35:47.34</time>
<name>6165</name>
<sym>Dot</sym>
</trkpt>
<trkpt lat="47.852952" lon="15.695783">
<ele>706.5</ele>
<desc>Speed 72.1 km/h Distance 124 km</desc>
<time>2012-09-18T17:35:48.53</time>
<name>6166</name>
<sym>Dot</sym>
</trkpt>
<trkpt lat="47.852777" lon="15.695810">
<ele>705.5</ele>
<desc>Speed 70.7 km/h Distance 124 km</desc>
<time>2012-09-18T17:35:49.41</time>
<name>6167</name>
<sym>Dot</sym>
</trkpt>
<trkpt lat="47.852607" lon="15.695843">
<ele>705.5</ele>
<desc>Speed 69.6 km/h Distance 124 km</desc>
<time>2012-09-18T17:35:50.38</time>
<name>6168</name>
<sym>Dot</sym>
</trkpt>
<trkpt lat="47.852437" lon="15.695877">
<ele>704.5</ele>
<desc>Speed 68.5 km/h Distance 124 km</desc>
<time>2012-09-18T17:35:51.39</time>
<name>6169</name>
<sym>Dot</sym>
</trkpt>
<trkpt lat="47.852272" lon="15.695915">
<ele>703.5</ele>
<desc>Speed 67.1 km/h Distance 124 km</desc>
<time>2012-09-18T17:35:52.38</time>
<name>6170</name>
<sym>Dot</sym>
</trkpt>
<trkpt lat="47.852108" lon="15.695957">
<ele>702.5</ele>
<desc>Speed 66.5 km/h Distance 124 km</desc>
<time>2012-09-18T17:35:53.36</time>
<name>6171</name>
<sym>Dot</sym>
</trkpt>
<trkpt lat="47.851948" lon="15.695998">
<ele>702.0</ele>
<desc>Speed 65.8 km/h Distance 124 km</desc>
<time>2012-09-18T17:35:54.35</time>
<name>6172</name>
<sym>Dot</sym>
</trkpt>
<trkpt lat="47.851790" lon="15.696043">
<ele>701.5</ele>
<desc>Speed 64.8 km/h Distance 124 km</desc>
<time>2012-09-18T17:35:55.37</time>
<name>6173</name>
<sym>Dot</sym>
</trkpt>
<trkpt lat="47.851630" lon="15.696092">
<ele>701.0</ele>
<desc>Speed 65.6 km/h Distance 125 km</desc>
<time>2012-09-18T17:35:56.34</time>
<name>6174</name>
<sym>Dot</sym>
</trkpt>
<trkpt lat="47.851473" lon="15.696142">
<ele>700.5</ele>
<desc>Speed 65.3 km/h Distance 125 km</desc>
<time>2012-09-18T17:35:57.34</time>
<name>6175</name>
<sym>Dot</sym>
</trkpt>
<trkpt lat="47.851315" lon="15.696197">
<ele>700.0</ele>
<desc>Speed 65.5 km/h Distance 125 km</desc>
<time>2012-09-18T17:35:58.39</time>
<name>6176</name>
<sym>Dot</sym>
</trkpt>
<trkpt lat="47.851153" lon="15.696258">
<ele>700.0</ele>
<desc>Speed 67.2 km/h Distance 125 km</desc>
<time>2012-09-18T17:35:59.33</time>
<name>6177</name>
<sym>Dot</sym>
</trkpt>
<trkpt lat="47.850993" lon="15.696328">
<ele>700.0</ele>
<desc>Speed 68.4 km/h Distance 125 km</desc>
<time>2012-09-18T17:36:00.33</time>
<name>6178</name>
<sym>Dot</sym>
</trkpt>
<trkpt lat="47.850832" lon="15.696402">
<ele>700.5</ele>
<desc>Speed 69.0 km/h Distance 125 km</desc>
<time>2012-09-18T17:36:01.32</time>
<name>6179</name>
<sym>Dot</sym>
</trkpt>
<trkpt lat="47.850668" lon="15.696477">
<ele>700.5</ele>
<desc>Speed 69.6 km/h Distance 125 km</desc>
<time>2012-09-18T17:36:02.31</time>
<name>6180</name>
<sym>Dot</sym>
</trkpt>
<trkpt lat="47.850507" lon="15.696550">
<ele>700.0</ele>
<desc>Speed 68.2 km/h Distance 125 km</desc>
<time>2012-09-18T17:36:03.31</time>
<name>6181</name>
<sym>Dot</sym>
</trkpt>
<trkpt lat="47.850352" lon="15.696617">
<ele>700.0</ele>
<desc>Speed 65.6 km/h Distance 125 km</desc>
<time>2012-09-18T17:36:04.30</time>
<name>6182</name>
<sym>Dot</sym>
</trkpt>
<trkpt lat="47.850198" lon="15.696673">
<ele>699.5</ele>
<desc>Speed 63.3 km/h Distance 125 km</desc>
<time>2012-09-18T17:36:05.30</time>
<name>6183</name>
<sym>Dot</sym>
</trkpt>
<trkpt lat="47.850045" lon="15.696723">
<ele>699.0</ele>
<desc>Speed 63.4 km/h Distance 125 km</desc>
<time>2012-09-18T17:36:06.29</time>
<name>6184</name>
<sym>Dot</sym>
</trkpt>
<trkpt lat="47.849885" lon="15.696767">
<ele>698.0</ele>
<desc>Speed 65.3 km/h Distance 125 km</desc>
<time>2012-09-18T17:36:07.30</time>
<name>6185</name>
<sym>Dot</sym>
</trkpt>
<trkpt lat="47.849718" lon="15.696802">
<ele>697.0</ele>
<desc>Speed 68.3 km/h Distance 125 km</desc>
<time>2012-09-18T17:36:08.28</time>
<name>6186</name>
<sym>Dot</sym>
</trkpt>
<trkpt lat="47.849347" lon="15.696817">
<ele>693.0</ele>
<desc>Speed 73.7 km/h Distance 125 km</desc>
<time>2012-09-18T17:36:10.29</time>
<name>6187</name>
<sym>Dot</sym>
</trkpt>
<trkpt lat="47.849173" lon="15.696813">
<ele>692.0</ele>
<desc>Speed 70.4 km/h Distance 125 km</desc>
<time>2012-09-18T17:36:11.29</time>
<name>6188</name>
<sym>Dot</sym>
</trkpt>
<trkpt lat="47.849005" lon="15.696795">
<ele>690.5</ele>
<desc>Speed 68.8 km/h Distance 125 km</desc>
<time>2012-09-18T17:36:12.32</time>
<name>6189</name>
<sym>Dot</sym>
</trkpt>
<trkpt lat="47.848837" lon="15.696768">
<ele>690.5</ele>
<desc>Speed 70.3 km/h Distance 125 km</desc>
<time>2012-09-18T17:36:13.28</time>
<name>6190</name>
<sym>Dot</sym>
</trkpt>
<trkpt lat="47.848670" lon="15.696722">
<ele>690.5</ele>
<desc>Speed 70.3 km/h Distance 125 km</desc>
<time>2012-09-18T17:36:14.26</time>
<name>6191</name>
<sym>Dot</sym>
</trkpt>
<trkpt lat="47.848507" lon="15.696650">
<ele>689.5</ele>
<desc>Speed 69.4 km/h Distance 125 km</desc>
<time>2012-09-18T17:36:15.27</time>
<name>6192</name>
<sym>Dot</sym>
</trkpt>
<trkpt lat="47.848345" lon="15.696555">
<ele>689.0</ele>
<desc>Speed 70.6 km/h Distance 125 km</desc>
<time>2012-09-18T17:36:16.26</time>
<name>6193</name>
<sym>Dot</sym>
</trkpt>
<trkpt lat="47.848187" lon="15.696443">
<ele>688.5</ele>
<desc>Speed 70.8 km/h Distance 125 km</desc>
<time>2012-09-18T17:36:17.26</time>
<name>6194</name>
<sym>Dot</sym>
</trkpt>
<trkpt lat="47.848030" lon="15.696325">
<ele>688.5</ele>
<desc>Speed 71.2 km/h Distance 125 km</desc>
<time>2012-09-18T17:36:18.25</time>
<name>6195</name>
<sym>Dot</sym>
</trkpt>
<trkpt lat="47.847875" lon="15.696200">
<ele>688.5</ele>
<desc>Speed 71.5 km/h Distance 125 km</desc>
<time>2012-09-18T17:36:19.25</time>
<name>6196</name>
<sym>Dot</sym>
</trkpt>
<trkpt lat="47.847718" lon="15.696073">
<ele>688.0</ele>
<desc>Speed 72.3 km/h Distance 125 km</desc>
<time>2012-09-18T17:36:20.24</time>
<name>6197</name>
<sym>Dot</sym>
</trkpt>
<trkpt lat="47.847560" lon="15.695948">
<ele>687.5</ele>
<desc>Speed 72.1 km/h Distance 125 km</desc>
<time>2012-09-18T17:36:21.24</time>
<name>6198</name>
<sym>Dot</sym>
</trkpt>
<trkpt lat="47.847407" lon="15.695817">
<ele>687.5</ele>
<desc>Speed 71.4 km/h Distance 125 km</desc>
<time>2012-09-18T17:36:22.24</time>
<name>6199</name>
<sym>Dot</sym>
</trkpt>
<trkpt lat="47.847255" lon="15.695683">
<ele>687.0</ele>
<desc>Speed 71.2 km/h Distance 125 km</desc>
<time>2012-09-18T17:36:23.24</time>
<name>6200</name>
<sym>Dot</sym>
</trkpt>
<trkpt lat="47.847105" lon="15.695543">
<ele>687.0</ele>
<desc>Speed 71.2 km/h Distance 125 km</desc>
<time>2012-09-18T17:36:24.23</time>
<name>6201</name>
<sym>Dot</sym>
</trkpt>
<trkpt lat="47.846957" lon="15.695403">
<ele>687.0</ele>
<desc>Speed 71.1 km/h Distance 125 km</desc>
<time>2012-09-18T17:36:25.29</time>
<name>6202</name>
<sym>Dot</sym>
</trkpt>
<trkpt lat="47.846807" lon="15.695270">
<ele>686.5</ele>
<desc>Speed 71.0 km/h Distance 125 km</desc>
<time>2012-09-18T17:36:26.22</time>
<name>6203</name>
<sym>Dot</sym>
</trkpt>
<trkpt lat="47.846652" lon="15.695145">
<ele>686.5</ele>
<desc>Speed 70.8 km/h Distance 125 km</desc>
<time>2012-09-18T17:36:27.22</time>
<name>6204</name>
<sym>Dot</sym>
</trkpt>
<trkpt lat="47.846492" lon="15.695038">
<ele>686.0</ele>
<desc>Speed 70.7 km/h Distance 125 km</desc>
<time>2012-09-18T17:36:28.21</time>
<name>6205</name>
<sym>Dot</sym>
</trkpt>
<trkpt lat="47.846327" lon="15.694948">
<ele>686.5</ele>
<desc>Speed 71.1 km/h Distance 125 km</desc>
<time>2012-09-18T17:36:29.21</time>
<name>6206</name>
<sym>Dot</sym>
</trkpt>
<trkpt lat="47.846157" lon="15.694878">
<ele>686.0</ele>
<desc>Speed 71.2 km/h Distance 125 km</desc>
<time>2012-09-18T17:36:30.20</time>
<name>6207</name>
<sym>Dot</sym>
</trkpt>
<trkpt lat="47.845982" lon="15.694827">
<ele>686.0</ele>
<desc>Speed 72.4 km/h Distance 125 km</desc>
<time>2012-09-18T17:36:31.20</time>
<name>6208</name>
<sym>Dot</sym>
</trkpt>
<trkpt lat="47.845798" lon="15.694787">
<ele>684.5</ele>
<desc>Speed 75.1 km/h Distance 125 km</desc>
<time>2012-09-18T17:36:32.19</time>
<name>6209</name>
<sym>Dot</sym>
</trkpt>
<trkpt lat="47.845612" lon="15.694760">
<ele>684.0</ele>
<desc>Speed 75.1 km/h Distance 125 km</desc>
<time>2012-09-18T17:36:33.19</time>
<name>6210</name>
<sym>Dot</sym>
</trkpt>
<trkpt lat="47.845420" lon="15.694780">
<ele>685.0</ele>
<desc>Speed 77.5 km/h Distance 125 km</desc>
<time>2012-09-18T17:36:34.19</time>
<name>6211</name>
<sym>Dot</sym>
</trkpt>
<trkpt lat="47.845240" lon="15.694775">
<ele>685.5</ele>
<desc>Speed 73.4 km/h Distance 125 km</desc>
<time>2012-09-18T17:36:35.18</time>
<name>6212</name>
<sym>Dot</sym>
</trkpt>
<trkpt lat="47.845058" lon="15.694757">
<ele>685.5</ele>
<desc>Speed 73.2 km/h Distance 125 km</desc>
<time>2012-09-18T17:36:36.17</time>
<name>6213</name>
<sym>Dot</sym>
</trkpt>
<trkpt lat="47.844875" lon="15.694723">
<ele>685.5</ele>
<desc>Speed 74.9 km/h Distance 125 km</desc>
<time>2012-09-18T17:36:37.17</time>
<name>6214</name>
<sym>Dot</sym>
</trkpt>
<trkpt lat="47.844703" lon="15.694645">
<ele>685.5</ele>
<desc>Speed 72.0 km/h Distance 125 km</desc>
<time>2012-09-18T17:36:38.18</time>
<name>6215</name>
<sym>Dot</sym>
</trkpt>
<trkpt lat="47.844525" lon="15.694565">
<ele>685.5</ele>
<desc>Speed 75.1 km/h Distance 125 km</desc>
<time>2012-09-18T17:36:39.16</time>
<name>6216</name>
<sym>Dot</sym>
</trkpt>
<trkpt lat="47.844350" lon="15.694470">
<ele>685.5</ele>
<desc>Speed 75.8 km/h Distance 125 km</desc>
<time>2012-09-18T17:36:40.15</time>
<name>6217</name>
<sym>Dot</sym>
</trkpt>
<trkpt lat="47.844182" lon="15.694357">
<ele>685.5</ele>
<desc>Speed 75.2 km/h Distance 125 km</desc>
<time>2012-09-18T17:36:41.15</time>
<name>6218</name>
<sym>Dot</sym>
</trkpt>
<trkpt lat="47.844022" lon="15.694228">
<ele>686.0</ele>
<desc>Speed 74.3 km/h Distance 125 km</desc>
<time>2012-09-18T17:36:42.15</time>
<name>6219</name>
<sym>Dot</sym>
</trkpt>
<trkpt lat="47.843867" lon="15.694095">
<ele>686.5</ele>
<desc>Speed 73.7 km/h Distance 125 km</desc>
<time>2012-09-18T17:36:43.14</time>
<name>6220</name>
<sym>Dot</sym>
</trkpt>
<trkpt lat="47.843712" lon="15.693962">
<ele>687.0</ele>
<desc>Speed 73.1 km/h Distance 125 km</desc>
<time>2012-09-18T17:36:44.13</time>
<name>6221</name>
<sym>Dot</sym>
</trkpt>
<trkpt lat="47.843552" lon="15.693842">
<ele>687.0</ele>
<desc>Speed 72.3 km/h Distance 125 km</desc>
<time>2012-09-18T17:36:45.13</time>
<name>6222</name>
<sym>Dot</sym>
</trkpt>
<trkpt lat="47.843385" lon="15.693742">
<ele>687.0</ele>
<desc>Speed 72.4 km/h Distance 125 km</desc>
<time>2012-09-18T17:36:46.13</time>
<name>6223</name>
<sym>Dot</sym>
</trkpt>
<trkpt lat="47.843213" lon="15.693665">
<ele>687.0</ele>
<desc>Speed 71.8 km/h Distance 126 km</desc>
<time>2012-09-18T17:36:47.13</time>
<name>6224</name>
<sym>Dot</sym>
</trkpt>
<trkpt lat="47.843040" lon="15.693610">
<ele>687.0</ele>
<desc>Speed 72.0 km/h Distance 126 km</desc>
<time>2012-09-18T17:36:48.12</time>
<name>6225</name>
<sym>Dot</sym>
</trkpt>
<trkpt lat="47.842863" lon="15.693577">
<ele>687.0</ele>
<desc>Speed 71.4 km/h Distance 126 km</desc>
<time>2012-09-18T17:36:49.12</time>
<name>6226</name>
<sym>Dot</sym>
</trkpt>
<trkpt lat="47.842683" lon="15.693570">
<ele>687.0</ele>
<desc>Speed 72.0 km/h Distance 126 km</desc>
<time>2012-09-18T17:36:50.20</time>
<name>6227</name>
<sym>Dot</sym>
</trkpt>
<trkpt lat="47.842512" lon="15.693592">
<ele>688.0</ele>
<desc>Speed 69.4 km/h Distance 126 km</desc>
<time>2012-09-18T17:36:51.11</time>
<name>6228</name>
<sym>Dot</sym>
</trkpt>
<trkpt lat="47.842332" lon="15.693673">
<ele>688.0</ele>
<desc>Speed 75.4 km/h Distance 126 km</desc>
<time>2012-09-18T17:36:52.11</time>
<name>6229</name>
<sym>Dot</sym>
</trkpt>
<trkpt lat="47.842160" lon="15.693743">
<ele>688.0</ele>
<desc>Speed 71.8 km/h Distance 126 km</desc>
<time>2012-09-18T17:36:53.11</time>
<name>6230</name>
<sym>Dot</sym>
</trkpt>
<trkpt lat="47.841987" lon="15.693828">
<ele>687.5</ele>
<desc>Speed 72.8 km/h Distance 126 km</desc>
<time>2012-09-18T17:36:54.11</time>
<name>6231</name>
<sym>Dot</sym>
</trkpt>
<trkpt lat="47.841815" lon="15.693913">
<ele>687.5</ele>
<desc>Speed 73.0 km/h Distance 126 km</desc>
<time>2012-09-18T17:36:55.11</time>
<name>6232</name>
<sym>Dot</sym>
</trkpt>
<trkpt lat="47.841640" lon="15.693967">
<ele>687.5</ele>
<desc>Speed 71.5 km/h Distance 126 km</desc>
<time>2012-09-18T17:36:56.10</time>
<name>6233</name>
<sym>Dot</sym>
</trkpt>
<trkpt lat="47.841455" lon="15.694000">
<ele>686.5</ele>
<desc>Speed 74.5 km/h Distance 126 km</desc>
<time>2012-09-18T17:36:57.09</time>
<name>6234</name>
<sym>Dot</sym>
</trkpt>
<trkpt lat="47.841270" lon="15.694022">
<ele>686.5</ele>
<desc>Speed 74.5 km/h Distance 126 km</desc>
<time>2012-09-18T17:36:58.08</time>
<name>6235</name>
<sym>Dot</sym>
</trkpt>
<trkpt lat="47.841083" lon="15.694037">
<ele>686.5</ele>
<desc>Speed 75.0 km/h Distance 126 km</desc>
<time>2012-09-18T17:36:59.07</time>
<name>6236</name>
<sym>Dot</sym>
</trkpt>
<trkpt lat="47.840895" lon="15.694047">
<ele>686.5</ele>
<desc>Speed 75.4 km/h Distance 126 km</desc>
<time>2012-09-18T17:37:00.06</time>
<name>6237</name>
<sym>Dot</sym>
</trkpt>
<trkpt lat="47.840710" lon="15.694053">
<ele>687.0</ele>
<desc>Speed 74.9 km/h Distance 126 km</desc>
<time>2012-09-18T17:37:01.07</time>
<name>6238</name>
<sym>Dot</sym>
</trkpt>
<trkpt lat="47.840525" lon="15.694057">
<ele>687.5</ele>
<desc>Speed 74.2 km/h Distance 126 km</desc>
<time>2012-09-18T17:37:02.11</time>
<name>6239</name>
<sym>Dot</sym>
</trkpt>
<trkpt lat="47.840343" lon="15.694057">
<ele>687.5</ele>
<desc>Speed 73.2 km/h Distance 126 km</desc>
<time>2012-09-18T17:37:03.05</time>
<name>6240</name>
<sym>Dot</sym>
</trkpt>
<trkpt lat="47.840163" lon="15.694055">
<ele>688.0</ele>
<desc>Speed 73.3 km/h Distance 126 km</desc>
<time>2012-09-18T17:37:04.04</time>
<name>6241</name>
<sym>Dot</sym>
</trkpt>
<trkpt lat="47.839975" lon="15.694053">
<ele>688.0</ele>
<desc>Speed 75.5 km/h Distance 126 km</desc>
<time>2012-09-18T17:37:05.04</time>
<name>6242</name>
<sym>Dot</sym>
</trkpt>
<trkpt lat="47.839797" lon="15.694020">
<ele>688.0</ele>
<desc>Speed 72.1 km/h Distance 126 km</desc>
<time>2012-09-18T17:37:06.03</time>
<name>6243</name>
<sym>Dot</sym>
</trkpt>
<trkpt lat="47.839613" lon="15.694000">
<ele>687.5</ele>
<desc>Speed 74.7 km/h Distance 126 km</desc>
<time>2012-09-18T17:37:07.04</time>
<name>6244</name>
<sym>Dot</sym>
</trkpt>
<trkpt lat="47.839433" lon="15.693973">
<ele>687.5</ele>
<desc>Speed 73.0 km/h Distance 126 km</desc>
<time>2012-09-18T17:37:08.03</time>
<name>6245</name>
<sym>Dot</sym>
</trkpt>
<trkpt lat="47.839255" lon="15.693950">
<ele>686.5</ele>
<desc>Speed 72.7 km/h Distance 126 km</desc>
<time>2012-09-18T17:37:09.02</time>
<name>6246</name>
<sym>Dot</sym>
</trkpt>
<trkpt lat="47.839082" lon="15.693905">
<ele>687.0</ele>
<desc>Speed 71.6 km/h Distance 126 km</desc>
<time>2012-09-18T17:37:10.01</time>
<name>6247</name>
<sym>Dot</sym>
</trkpt>
<trkpt lat="47.838923" lon="15.693822">
<ele>687.0</ele>
<desc>Speed 68.1 km/h Distance 126 km</desc>
<time>2012-09-18T17:37:11.01</time>
<name>6248</name>
<sym>Dot</sym>
</trkpt>
<trkpt lat="47.838778" lon="15.693727">
<ele>687.0</ele>
<desc>Speed 63.9 km/h Distance 126 km</desc>
<time>2012-09-18T17:37:11.99</time>
<name>6249</name>
<sym>Dot</sym>
</trkpt>
<trkpt lat="47.838468" lon="15.693465">
<ele>685.5</ele>
<desc>Speed 70.8 km/h Distance 126 km</desc>
<time>2012-09-18T17:37:13.99</time>
<name>6250</name>
<sym>Dot</sym>
</trkpt>
<trkpt lat="47.838318" lon="15.693318">
<ele>685.5</ele>
<desc>Speed 71.9 km/h Distance 126 km</desc>
<time>2012-09-18T17:37:15.04</time>
<name>6251</name>
<sym>Dot</sym>
</trkpt>
<trkpt lat="47.838172" lon="15.693177">
<ele>686.0</ele>
<desc>Speed 70.5 km/h Distance 126 km</desc>
<time>2012-09-18T17:37:15.97</time>
<name>6252</name>
<sym>Dot</sym>
</trkpt>
<trkpt lat="47.838032" lon="15.693045">
<ele>686.0</ele>
<desc>Speed 67.5 km/h Distance 126 km</desc>
<time>2012-09-18T17:37:16.97</time>
<name>6253</name>
<sym>Dot</sym>
</trkpt>
<trkpt lat="47.837885" lon="15.692928">
<ele>686.0</ele>
<desc>Speed 66.7 km/h Distance 126 km</desc>
<time>2012-09-18T17:37:17.97</time>
<name>6254</name>
<sym>Dot</sym>
</trkpt>
<trkpt lat="47.837720" lon="15.692858">
<ele>685.5</ele>
<desc>Speed 68.9 km/h Distance 126 km</desc>
<time>2012-09-18T17:37:18.96</time>
<name>6255</name>
<sym>Dot</sym>
</trkpt>
<trkpt lat="47.837547" lon="15.692830">
<ele>684.5</ele>
<desc>Speed 70.4 km/h Distance 126 km</desc>
<time>2012-09-18T17:37:19.96</time>
<name>6256</name>
<sym>Dot</sym>
</trkpt>
<trkpt lat="47.837365" lon="15.692845">
<ele>683.5</ele>
<desc>Speed 73.6 km/h Distance 126 km</desc>
<time>2012-09-18T17:37:20.95</time>
<name>6257</name>
<sym>Dot</sym>
</trkpt>
<trkpt lat="47.837183" lon="15.692880">
<ele>682.5</ele>
<desc>Speed 74.3 km/h Distance 126 km</desc>
<time>2012-09-18T17:37:21.94</time>
<name>6258</name>
<sym>Dot</sym>
</trkpt>
<trkpt lat="47.836995" lon="15.692923">
<ele>681.0</ele>
<desc>Speed 76.5 km/h Distance 126 km</desc>
<time>2012-09-18T17:37:22.94</time>
<name>6259</name>
<sym>Dot</sym>
</trkpt>
<trkpt lat="47.836813" lon="15.692967">
<ele>681.0</ele>
<desc>Speed 74.8 km/h Distance 126 km</desc>
<time>2012-09-18T17:37:23.93</time>
<name>6260</name>
<sym>Dot</sym>
</trkpt>
<trkpt lat="47.836635" lon="15.693005">
<ele>681.0</ele>
<desc>Speed 72.6 km/h Distance 126 km</desc>
<time>2012-09-18T17:37:24.93</time>
<name>6261</name>
<sym>Dot</sym>
</trkpt>
<trkpt lat="47.836455" lon="15.693045">
<ele>680.5</ele>
<desc>Speed 73.7 km/h Distance 126 km</desc>
<time>2012-09-18T17:37:25.92</time>
<name>6262</name>
<sym>Dot</sym>
</trkpt>
<trkpt lat="47.836275" lon="15.693087">
<ele>680.0</ele>
<desc>Speed 74.0 km/h Distance 126 km</desc>
<time>2012-09-18T17:37:26.93</time>
<name>6263</name>
<sym>Dot</sym>
</trkpt>
<trkpt lat="47.836093" lon="15.693127">
<ele>679.5</ele>
<desc>Speed 74.0 km/h Distance 126 km</desc>
<time>2012-09-18T17:37:27.91</time>
<name>6264</name>
<sym>Dot</sym>
</trkpt>
<trkpt lat="47.835912" lon="15.693167">
<ele>679.5</ele>
<desc>Speed 73.8 km/h Distance 126 km</desc>
<time>2012-09-18T17:37:28.91</time>
<name>6265</name>
<sym>Dot</sym>
</trkpt>
<trkpt lat="47.835733" lon="15.693208">
<ele>679.5</ele>
<desc>Speed 73.3 km/h Distance 126 km</desc>
<time>2012-09-18T17:37:29.90</time>
<name>6266</name>
<sym>Dot</sym>
</trkpt>
<trkpt lat="47.835557" lon="15.693247">
<ele>679.5</ele>
<desc>Speed 72.6 km/h Distance 126 km</desc>
<time>2012-09-18T17:37:30.90</time>
<name>6267</name>
<sym>Dot</sym>
</trkpt>
<trkpt lat="47.835380" lon="15.693287">
<ele>680.0</ele>
<desc>Speed 72.2 km/h Distance 126 km</desc>
<time>2012-09-18T17:37:31.89</time>
<name>6268</name>
<sym>Dot</sym>
</trkpt>
<trkpt lat="47.835207" lon="15.693328">
<ele>679.5</ele>
<desc>Speed 71.7 km/h Distance 126 km</desc>
<time>2012-09-18T17:37:32.89</time>
<name>6269</name>
<sym>Dot</sym>
</trkpt>
<trkpt lat="47.835033" lon="15.693363">
<ele>679.0</ele>
<desc>Speed 71.4 km/h Distance 126 km</desc>
<time>2012-09-18T17:37:33.88</time>
<name>6270</name>
<sym>Dot</sym>
</trkpt>
<trkpt lat="47.834860" lon="15.693380">
<ele>679.0</ele>
<desc>Speed 70.6 km/h Distance 126 km</desc>
<time>2012-09-18T17:37:34.88</time>
<name>6271</name>
<sym>Dot</sym>
</trkpt>
<trkpt lat="47.834683" lon="15.693365">
<ele>680.0</ele>
<desc>Speed 72.4 km/h Distance 126 km</desc>
<time>2012-09-18T17:37:35.87</time>
<name>6272</name>
<sym>Dot</sym>
</trkpt>
<trkpt lat="47.834510" lon="15.693325">
<ele>679.5</ele>
<desc>Speed 71.1 km/h Distance 127 km</desc>
<time>2012-09-18T17:37:36.87</time>
<name>6273</name>
<sym>Dot</sym>
</trkpt>
<trkpt lat="47.834335" lon="15.693265">
<ele>679.0</ele>
<desc>Speed 72.3 km/h Distance 127 km</desc>
<time>2012-09-18T17:37:37.86</time>
<name>6274</name>
<sym>Dot</sym>
</trkpt>
<trkpt lat="47.834162" lon="15.693187">
<ele>679.0</ele>
<desc>Speed 73.1 km/h Distance 127 km</desc>
<time>2012-09-18T17:37:38.86</time>
<name>6275</name>
<sym>Dot</sym>
</trkpt>
<trkpt lat="47.833990" lon="15.693070">
<ele>679.5</ele>
<desc>Speed 76.0 km/h Distance 127 km</desc>
<time>2012-09-18T17:37:39.86</time>
<name>6276</name>
<sym>Dot</sym>
</trkpt>
<trkpt lat="47.833822" lon="15.692945">
<ele>678.5</ele>
<desc>Speed 76.2 km/h Distance 127 km</desc>
<time>2012-09-18T17:37:40.85</time>
<name>6277</name>
<sym>Dot</sym>
</trkpt>
<trkpt lat="47.833655" lon="15.692812">
<ele>677.5</ele>
<desc>Speed 76.5 km/h Distance 127 km</desc>
<time>2012-09-18T17:37:41.84</time>
<name>6278</name>
<sym>Dot</sym>
</trkpt>
<trkpt lat="47.833490" lon="15.692680">
<ele>677.0</ele>
<desc>Speed 75.9 km/h Distance 127 km</desc>
<time>2012-09-18T17:37:42.84</time>
<name>6279</name>
<sym>Dot</sym>
</trkpt>
<trkpt lat="47.833325" lon="15.692547">
<ele>677.0</ele>
<desc>Speed 75.5 km/h Distance 127 km</desc>
<time>2012-09-18T17:37:43.84</time>
<name>6280</name>
<sym>Dot</sym>
</trkpt>
<trkpt lat="47.833160" lon="15.692420">
<ele>676.5</ele>
<desc>Speed 74.5 km/h Distance 127 km</desc>
<time>2012-09-18T17:37:44.85</time>
<name>6281</name>
<sym>Dot</sym>
</trkpt>
<trkpt lat="47.833002" lon="15.692297">
<ele>677.0</ele>
<desc>Speed 72.9 km/h Distance 127 km</desc>
<time>2012-09-18T17:37:45.83</time>
<name>6282</name>
<sym>Dot</sym>
</trkpt>
<trkpt lat="47.832843" lon="15.692177">
<ele>677.0</ele>
<desc>Speed 71.5 km/h Distance 127 km</desc>
<time>2012-09-18T17:37:46.83</time>
<name>6283</name>
<sym>Dot</sym>
</trkpt>
<trkpt lat="47.832690" lon="15.692072">
<ele>677.0</ele>
<desc>Speed 68.9 km/h Distance 127 km</desc>
<time>2012-09-18T17:37:47.82</time>
<name>6284</name>
<sym>Dot</sym>
</trkpt>
<trkpt lat="47.832538" lon="15.691995">
<ele>678.5</ele>
<desc>Speed 67.3 km/h Distance 127 km</desc>
<time>2012-09-18T17:37:48.81</time>
<name>6285</name>
<sym>Dot</sym>
</trkpt>
<trkpt lat="47.832365" lon="15.691953">
<ele>678.0</ele>
<desc>Speed 71.4 km/h Distance 127 km</desc>
<time>2012-09-18T17:37:49.82</time>
<name>6286</name>
<sym>Dot</sym>
</trkpt>
<trkpt lat="47.832192" lon="15.691913">
<ele>677.5</ele>
<desc>Speed 71.9 km/h Distance 127 km</desc>
<time>2012-09-18T17:37:50.82</time>
<name>6287</name>
<sym>Dot</sym>
</trkpt>
<trkpt lat="47.832017" lon="15.691877">
<ele>678.0</ele>
<desc>Speed 73.0 km/h Distance 127 km</desc>
<time>2012-09-18T17:37:51.81</time>
<name>6288</name>
<sym>Dot</sym>
</trkpt>
<trkpt lat="47.831840" lon="15.691838">
<ele>679.0</ele>
<desc>Speed 74.0 km/h Distance 127 km</desc>
<time>2012-09-18T17:37:52.81</time>
<name>6289</name>
<sym>Dot</sym>
</trkpt>
<trkpt lat="47.831657" lon="15.691795">
<ele>678.5</ele>
<desc>Speed 74.5 km/h Distance 127 km</desc>
<time>2012-09-18T17:37:53.81</time>
<name>6290</name>
<sym>Dot</sym>
</trkpt>
<trkpt lat="47.831473" lon="15.691753">
<ele>678.5</ele>
<desc>Speed 74.5 km/h Distance 127 km</desc>
<time>2012-09-18T17:37:54.81</time>
<name>6291</name>
<sym>Dot</sym>
</trkpt>
<trkpt lat="47.831292" lon="15.691710">
<ele>678.0</ele>
<desc>Speed 74.6 km/h Distance 127 km</desc>
<time>2012-09-18T17:37:55.78</time>
<name>6292</name>
<sym>Dot</sym>
</trkpt>
<trkpt lat="47.831110" lon="15.691668">
<ele>678.0</ele>
<desc>Speed 74.2 km/h Distance 127 km</desc>
<time>2012-09-18T17:37:56.78</time>
<name>6293</name>
<sym>Dot</sym>
</trkpt>
<trkpt lat="47.830932" lon="15.691628">
<ele>678.5</ele>
<desc>Speed 72.9 km/h Distance 127 km</desc>
<time>2012-09-18T17:37:57.77</time>
<name>6294</name>
<sym>Dot</sym>
</trkpt>
<trkpt lat="47.830752" lon="15.691587">
<ele>678.0</ele>
<desc>Speed 73.4 km/h Distance 127 km</desc>
<time>2012-09-18T17:37:58.77</time>
<name>6295</name>
<sym>Dot</sym>
</trkpt>
<trkpt lat="47.830572" lon="15.691547">
<ele>678.0</ele>
<desc>Speed 73.9 km/h Distance 127 km</desc>
<time>2012-09-18T17:37:59.94</time>
<name>6296</name>
<sym>Dot</sym>
</trkpt>
<trkpt lat="47.830390" lon="15.691508">
<ele>677.0</ele>
<desc>Speed 73.2 km/h Distance 127 km</desc>
<time>2012-09-18T17:38:00.77</time>
<name>6297</name>
<sym>Dot</sym>
</trkpt>
<trkpt lat="47.830210" lon="15.691468">
<ele>677.0</ele>
<desc>Speed 73.3 km/h Distance 127 km</desc>
<time>2012-09-18T17:38:01.76</time>
<name>6298</name>
<sym>Dot</sym>
</trkpt>
<trkpt lat="47.830028" lon="15.691428">
<ele>676.5</ele>
<desc>Speed 73.7 km/h Distance 127 km</desc>
<time>2012-09-18T17:38:02.76</time>
<name>6299</name>
<sym>Dot</sym>
</trkpt>
<trkpt lat="47.829845" lon="15.691390">
<ele>676.0</ele>
<desc>Speed 73.7 km/h Distance 127 km</desc>
<time>2012-09-18T17:38:03.75</time>
<name>6300</name>
<sym>Dot</sym>
</trkpt>
<trkpt lat="47.829663" lon="15.691352">
<ele>676.0</ele>
<desc>Speed 73.7 km/h Distance 127 km</desc>
<time>2012-09-18T17:38:04.75</time>
<name>6301</name>
<sym>Dot</sym>
</trkpt>
<trkpt lat="47.829483" lon="15.691315">
<ele>676.5</ele>
<desc>Speed 73.3 km/h Distance 127 km</desc>
<time>2012-09-18T17:38:05.74</time>
<name>6302</name>
<sym>Dot</sym>
</trkpt>
<trkpt lat="47.829302" lon="15.691288">
<ele>676.5</ele>
<desc>Speed 72.8 km/h Distance 127 km</desc>
<time>2012-09-18T17:38:06.74</time>
<name>6303</name>
<sym>Dot</sym>
</trkpt>
<trkpt lat="47.829123" lon="15.691275">
<ele>677.0</ele>
<desc>Speed 71.9 km/h Distance 127 km</desc>
<time>2012-09-18T17:38:07.73</time>
<name>6304</name>
<sym>Dot</sym>
</trkpt>
<trkpt lat="47.828948" lon="15.691282">
<ele>677.0</ele>
<desc>Speed 70.3 km/h Distance 127 km</desc>
<time>2012-09-18T17:38:08.73</time>
<name>6305</name>
<sym>Dot</sym>
</trkpt>
<trkpt lat="47.828777" lon="15.691303">
<ele>677.0</ele>
<desc>Speed 69.5 km/h Distance 127 km</desc>
<time>2012-09-18T17:38:09.73</time>
<name>6306</name>
<sym>Dot</sym>
</trkpt>
<trkpt lat="47.828610" lon="15.691335">
<ele>677.0</ele>
<desc>Speed 67.7 km/h Distance 127 km</desc>
<time>2012-09-18T17:38:10.73</time>
<name>6307</name>
<sym>Dot</sym>
</trkpt>
<trkpt lat="47.828445" lon="15.691377">
<ele>676.5</ele>
<desc>Speed 66.8 km/h Distance 127 km</desc>
<time>2012-09-18T17:38:11.72</time>
<name>6308</name>
<sym>Dot</sym>
</trkpt>
<trkpt lat="47.828285" lon="15.691430">
<ele>676.5</ele>
<desc>Speed 66.3 km/h Distance 127 km</desc>
<time>2012-09-18T17:38:12.71</time>
<name>6309</name>
<sym>Dot</sym>
</trkpt>
<trkpt lat="47.828125" lon="15.691495">
<ele>676.5</ele>
<desc>Speed 67.1 km/h Distance 127 km</desc>
<time>2012-09-18T17:38:13.70</time>
<name>6310</name>
<sym>Dot</sym>
</trkpt>
<trkpt lat="47.827968" lon="15.691577">
<ele>677.0</ele>
<desc>Speed 66.9 km/h Distance 127 km</desc>
<time>2012-09-18T17:38:14.70</time>
<name>6311</name>
<sym>Dot</sym>
</trkpt>
<trkpt lat="47.827820" lon="15.691672">
<ele>677.5</ele>
<desc>Speed 65.6 km/h Distance 127 km</desc>
<time>2012-09-18T17:38:15.69</time>
<name>6312</name>
<sym>Dot</sym>
</trkpt>
<trkpt lat="47.827565" lon="15.691880">
<ele>678.0</ele>
<desc>Speed 58.7 km/h Distance 127 km</desc>
<time>2012-09-18T17:38:17.68</time>
<name>6313</name>
<sym>Dot</sym>
</trkpt>
<trkpt lat="47.827437" lon="15.691975">
<ele>679.0</ele>
<desc>Speed 57.5 km/h Distance 127 km</desc>
<time>2012-09-18T17:38:18.68</time>
<name>6314</name>
<sym>Dot</sym>
</trkpt>
<trkpt lat="47.827188" lon="15.692065">
<ele>679.0</ele>
<desc>Speed 55.1 km/h Distance 127 km</desc>
<time>2012-09-18T17:38:20.67</time>
<name>6315</name>
<sym>Dot</sym>
</trkpt>
<trkpt lat="47.827050" lon="15.692055">
<ele>679.0</ele>
<desc>Speed 56.1 km/h Distance 127 km</desc>
<time>2012-09-18T17:38:21.67</time>
<name>6316</name>
<sym>Dot</sym>
</trkpt>
<trkpt lat="47.826897" lon="15.692010">
<ele>679.0</ele>
<desc>Speed 62.3 km/h Distance 127 km</desc>
<time>2012-09-18T17:38:22.66</time>
<name>6317</name>
<sym>Dot</sym>
</trkpt>
<trkpt lat="47.826758" lon="15.691977">
<ele>677.5</ele>
<desc>Speed 56.4 km/h Distance 127 km</desc>
<time>2012-09-18T17:38:23.66</time>
<name>6318</name>
<sym>Dot</sym>
</trkpt>
<trkpt lat="47.826627" lon="15.692008">
<ele>676.5</ele>
<desc>Speed 53.9 km/h Distance 127 km</desc>
<time>2012-09-18T17:38:24.66</time>
<name>6319</name>
<sym>Dot</sym>
</trkpt>
<trkpt lat="47.826498" lon="15.692083">
<ele>676.5</ele>
<desc>Speed 55.0 km/h Distance 127 km</desc>
<time>2012-09-18T17:38:25.66</time>
<name>6320</name>
<sym>Dot</sym>
</trkpt>
<trkpt lat="47.826373" lon="15.692120">
<ele>676.5</ele>
<desc>Speed 51.0 km/h Distance 127 km</desc>
<time>2012-09-18T17:38:26.65</time>
<name>6321</name>
<sym>Dot</sym>
</trkpt>
<trkpt lat="47.826082" lon="15.692092">
<ele>673.5</ele>
<desc>Speed 57.1 km/h Distance 127 km</desc>
<time>2012-09-18T17:38:28.65</time>
<name>6322</name>
<sym>Dot</sym>
</trkpt>
<trkpt lat="47.825763" lon="15.691997">
<ele>672.0</ele>
<desc>Speed 64.2 km/h Distance 128 km</desc>
<time>2012-09-18T17:38:30.64</time>
<name>6323</name>
<sym>Dot</sym>
</trkpt>
<trkpt lat="47.825613" lon="15.691938">
<ele>671.0</ele>
<desc>Speed 62.5 km/h Distance 128 km</desc>
<time>2012-09-18T17:38:31.64</time>
<name>6324</name>
<sym>Dot</sym>
</trkpt>
<trkpt lat="47.825468" lon="15.691878">
<ele>671.0</ele>
<desc>Speed 60.4 km/h Distance 128 km</desc>
<time>2012-09-18T17:38:32.63</time>
<name>6325</name>
<sym>Dot</sym>
</trkpt>
<trkpt lat="47.825330" lon="15.691820">
<ele>671.0</ele>
<desc>Speed 58.1 km/h Distance 128 km</desc>
<time>2012-09-18T17:38:33.64</time>
<name>6326</name>
<sym>Dot</sym>
</trkpt>
<trkpt lat="47.825192" lon="15.691753">
<ele>670.5</ele>
<desc>Speed 58.9 km/h Distance 128 km</desc>
<time>2012-09-18T17:38:34.63</time>
<name>6327</name>
<sym>Dot</sym>
</trkpt>
<trkpt lat="47.825067" lon="15.691688">
<ele>670.5</ele>
<desc>Speed 53.8 km/h Distance 128 km</desc>
<time>2012-09-18T17:38:35.63</time>
<name>6328</name>
<sym>Dot</sym>
</trkpt>
<trkpt lat="47.824937" lon="15.691620">
<ele>671.0</ele>
<desc>Speed 55.4 km/h Distance 128 km</desc>
<time>2012-09-18T17:38:36.62</time>
<name>6329</name>
<sym>Dot</sym>
</trkpt>
<trkpt lat="47.824805" lon="15.691553">
<ele>671.0</ele>
<desc>Speed 55.9 km/h Distance 128 km</desc>
<time>2012-09-18T17:38:37.62</time>
<name>6330</name>
<sym>Dot</sym>
</trkpt>
<trkpt lat="47.824673" lon="15.691485">
<ele>671.0</ele>
<desc>Speed 56.4 km/h Distance 128 km</desc>
<time>2012-09-18T17:38:38.61</time>
<name>6331</name>
<sym>Dot</sym>
</trkpt>
<trkpt lat="47.824542" lon="15.691422">
<ele>670.5</ele>
<desc>Speed 55.4 km/h Distance 128 km</desc>
<time>2012-09-18T17:38:39.61</time>
<name>6332</name>
<sym>Dot</sym>
</trkpt>
<trkpt lat="47.824412" lon="15.691365">
<ele>670.0</ele>
<desc>Speed 54.5 km/h Distance 128 km</desc>
<time>2012-09-18T17:38:40.60</time>
<name>6333</name>
<sym>Dot</sym>
</trkpt>
<trkpt lat="47.824278" lon="15.691328">
<ele>669.5</ele>
<desc>Speed 54.6 km/h Distance 128 km</desc>
<time>2012-09-18T17:38:41.60</time>
<name>6334</name>
<sym>Dot</sym>
</trkpt>
<trkpt lat="47.824140" lon="15.691318">
<ele>669.0</ele>
<desc>Speed 55.4 km/h Distance 128 km</desc>
<time>2012-09-18T17:38:42.59</time>
<name>6335</name>
<sym>Dot</sym>
</trkpt>
<trkpt lat="47.824012" lon="15.691353">
<ele>668.5</ele>
<desc>Speed 52.7 km/h Distance 128 km</desc>
<time>2012-09-18T17:38:43.59</time>
<name>6336</name>
<sym>Dot</sym>
</trkpt>
<trkpt lat="47.823885" lon="15.691430">
<ele>669.0</ele>
<desc>Speed 54.8 km/h Distance 128 km</desc>
<time>2012-09-18T17:38:44.58</time>
<name>6337</name>
<sym>Dot</sym>
</trkpt>
<trkpt lat="47.823772" lon="15.691533">
<ele>668.5</ele>
<desc>Speed 53.7 km/h Distance 128 km</desc>
<time>2012-09-18T17:38:45.58</time>
<name>6338</name>
<sym>Dot</sym>
</trkpt>
<trkpt lat="47.823650" lon="15.691642">
<ele>668.0</ele>
<desc>Speed 57.1 km/h Distance 128 km</desc>
<time>2012-09-18T17:38:46.58</time>
<name>6339</name>
<sym>Dot</sym>
</trkpt>
<trkpt lat="47.823522" lon="15.691745">
<ele>668.0</ele>
<desc>Speed 59.7 km/h Distance 128 km</desc>
<time>2012-09-18T17:38:47.57</time>
<name>6340</name>
<sym>Dot</sym>
</trkpt>
<trkpt lat="47.823385" lon="15.691842">
<ele>668.5</ele>
<desc>Speed 61.0 km/h Distance 128 km</desc>
<time>2012-09-18T17:38:48.57</time>
<name>6341</name>
<sym>Dot</sym>
</trkpt>
<trkpt lat="47.823252" lon="15.691932">
<ele>668.5</ele>
<desc>Speed 59.3 km/h Distance 128 km</desc>
<time>2012-09-18T17:38:49.56</time>
<name>6342</name>
<sym>Dot</sym>
</trkpt>
<trkpt lat="47.823125" lon="15.692038">
<ele>668.5</ele>
<desc>Speed 58.9 km/h Distance 128 km</desc>
<time>2012-09-18T17:38:50.56</time>
<name>6343</name>
<sym>Dot</sym>
</trkpt>
<trkpt lat="47.823017" lon="15.692185">
<ele>668.5</ele>
<desc>Speed 59.0 km/h Distance 128 km</desc>
<time>2012-09-18T17:38:51.55</time>
<name>6344</name>
<sym>Dot</sym>
</trkpt>
<trkpt lat="47.822902" lon="15.692350">
<ele>668.5</ele>
<desc>Speed 64.3 km/h Distance 128 km</desc>
<time>2012-09-18T17:38:52.55</time>
<name>6345</name>
<sym>Dot</sym>
</trkpt>
<trkpt lat="47.822785" lon="15.692538">
<ele>668.5</ele>
<desc>Speed 69.7 km/h Distance 128 km</desc>
<time>2012-09-18T17:38:53.54</time>
<name>6346</name>
<sym>Dot</sym>
</trkpt>
<trkpt lat="47.822663" lon="15.692737">
<ele>668.0</ele>
<desc>Speed 73.1 km/h Distance 128 km</desc>
<time>2012-09-18T17:38:54.54</time>
<name>6347</name>
<sym>Dot</sym>
</trkpt>
<trkpt lat="47.822538" lon="15.692940">
<ele>667.5</ele>
<desc>Speed 74.5 km/h Distance 128 km</desc>
<time>2012-09-18T17:38:55.53</time>
<name>6348</name>
<sym>Dot</sym>
</trkpt>
<trkpt lat="47.822413" lon="15.693145">
<ele>667.0</ele>
<desc>Speed 74.5 km/h Distance 128 km</desc>
<time>2012-09-18T17:38:56.53</time>
<name>6349</name>
<sym>Dot</sym>
</trkpt>
<trkpt lat="47.822297" lon="15.693343">
<ele>667.0</ele>
<desc>Speed 71.9 km/h Distance 128 km</desc>
<time>2012-09-18T17:38:57.52</time>
<name>6350</name>
<sym>Dot</sym>
</trkpt>
<trkpt lat="47.822187" lon="15.693545">
<ele>666.0</ele>
<desc>Speed 70.3 km/h Distance 128 km</desc>
<time>2012-09-18T17:38:58.53</time>
<name>6351</name>
<sym>Dot</sym>
</trkpt>
<trkpt lat="47.822092" lon="15.693762">
<ele>665.5</ele>
<desc>Speed 69.7 km/h Distance 128 km</desc>
<time>2012-09-18T17:38:59.52</time>
<name>6352</name>
<sym>Dot</sym>
</trkpt>
<trkpt lat="47.822023" lon="15.693998">
<ele>665.0</ele>
<desc>Speed 69.9 km/h Distance 128 km</desc>
<time>2012-09-18T17:39:00.52</time>
<name>6353</name>
<sym>Dot</sym>
</trkpt>
<trkpt lat="47.821987" lon="15.694258">
<ele>665.0</ele>
<desc>Speed 71.7 km/h Distance 128 km</desc>
<time>2012-09-18T17:39:01.51</time>
<name>6354</name>
<sym>Dot</sym>
</trkpt>
<trkpt lat="47.821947" lon="15.694505">
<ele>664.5</ele>
<desc>Speed 68.5 km/h Distance 128 km</desc>
<time>2012-09-18T17:39:02.54</time>
<name>6355</name>
<sym>Dot</sym>
</trkpt>
<trkpt lat="47.821883" lon="15.694735">
<ele>664.5</ele>
<desc>Speed 67.4 km/h Distance 128 km</desc>
<time>2012-09-18T17:39:03.51</time>
<name>6356</name>
<sym>Dot</sym>
</trkpt>
<trkpt lat="47.821802" lon="15.694950">
<ele>664.0</ele>
<desc>Speed 66.7 km/h Distance 128 km</desc>
<time>2012-09-18T17:39:04.51</time>
<name>6357</name>
<sym>Dot</sym>
</trkpt>
<trkpt lat="47.821697" lon="15.695145">
<ele>665.0</ele>
<desc>Speed 67.7 km/h Distance 128 km</desc>
<time>2012-09-18T17:39:05.50</time>
<name>6358</name>
<sym>Dot</sym>
</trkpt>
<trkpt lat="47.821570" lon="15.695333">
<ele>664.5</ele>
<desc>Speed 72.0 km/h Distance 128 km</desc>
<time>2012-09-18T17:39:06.50</time>
<name>6359</name>
<sym>Dot</sym>
</trkpt>
<trkpt lat="47.821447" lon="15.695500">
<ele>665.0</ele>
<desc>Speed 67.1 km/h Distance 128 km</desc>
<time>2012-09-18T17:39:07.49</time>
<name>6360</name>
<sym>Dot</sym>
</trkpt>
<trkpt lat="47.821323" lon="15.695647">
<ele>665.0</ele>
<desc>Speed 63.8 km/h Distance 128 km</desc>
<time>2012-09-18T17:39:08.49</time>
<name>6361</name>
<sym>Dot</sym>
</trkpt>
<trkpt lat="47.821178" lon="15.695757">
<ele>665.0</ele>
<desc>Speed 66.2 km/h Distance 128 km</desc>
<time>2012-09-18T17:39:09.48</time>
<name>6362</name>
<sym>Dot</sym>
</trkpt>
<trkpt lat="47.821008" lon="15.695842">
<ele>665.0</ele>
<desc>Speed 71.9 km/h Distance 128 km</desc>
<time>2012-09-18T17:39:10.48</time>
<name>6363</name>
<sym>Dot</sym>
</trkpt>
<trkpt lat="47.820825" lon="15.695917">
<ele>665.0</ele>
<desc>Speed 77.0 km/h Distance 128 km</desc>
<time>2012-09-18T17:39:11.48</time>
<name>6364</name>
<sym>Dot</sym>
</trkpt>
<trkpt lat="47.820640" lon="15.695993">
<ele>665.0</ele>
<desc>Speed 77.3 km/h Distance 128 km</desc>
<time>2012-09-18T17:39:12.47</time>
<name>6365</name>
<sym>Dot</sym>
</trkpt>
<trkpt lat="47.820458" lon="15.696065">
<ele>665.0</ele>
<desc>Speed 75.5 km/h Distance 128 km</desc>
<time>2012-09-18T17:39:13.46</time>
<name>6366</name>
<sym>Dot</sym>
</trkpt>
<trkpt lat="47.820277" lon="15.696123">
<ele>665.0</ele>
<desc>Speed 74.2 km/h Distance 128 km</desc>
<time>2012-09-18T17:39:14.47</time>
<name>6367</name>
<sym>Dot</sym>
</trkpt>
<trkpt lat="47.820097" lon="15.696153">
<ele>665.0</ele>
<desc>Speed 72.9 km/h Distance 128 km</desc>
<time>2012-09-18T17:39:15.47</time>
<name>6368</name>
<sym>Dot</sym>
</trkpt>
<trkpt lat="47.819703" lon="15.696133">
<ele>665.0</ele>
<desc>Speed 77.0 km/h Distance 128 km</desc>
<time>2012-09-18T17:39:17.46</time>
<name>6369</name>
<sym>Dot</sym>
</trkpt>
<trkpt lat="47.819517" lon="15.696135">
<ele>664.0</ele>
<desc>Speed 74.9 km/h Distance 128 km</desc>
<time>2012-09-18T17:39:18.46</time>
<name>6370</name>
<sym>Dot</sym>
</trkpt>
<trkpt lat="47.819337" lon="15.696167">
<ele>666.0</ele>
<desc>Speed 71.8 km/h Distance 128 km</desc>
<time>2012-09-18T17:39:19.45</time>
<name>6371</name>
<sym>Dot</sym>
</trkpt>
<trkpt lat="47.819163" lon="15.696272">
<ele>667.0</ele>
<desc>Speed 74.3 km/h Distance 128 km</desc>
<time>2012-09-18T17:39:20.45</time>
<name>6372</name>
<sym>Dot</sym>
</trkpt>
<trkpt lat="47.819008" lon="15.696395">
<ele>667.0</ele>
<desc>Speed 71.0 km/h Distance 128 km</desc>
<time>2012-09-18T17:39:21.45</time>
<name>6373</name>
<sym>Dot</sym>
</trkpt>
<trkpt lat="47.818872" lon="15.696562">
<ele>667.5</ele>
<desc>Speed 71.6 km/h Distance 128 km</desc>
<time>2012-09-18T17:39:22.44</time>
<name>6374</name>
<sym>Dot</sym>
</trkpt>
<trkpt lat="47.818737" lon="15.696757">
<ele>667.0</ele>
<desc>Speed 75.6 km/h Distance 128 km</desc>
<time>2012-09-18T17:39:23.43</time>
<name>6375</name>
<sym>Dot</sym>
</trkpt>
<trkpt lat="47.818600" lon="15.696963">
<ele>667.0</ele>
<desc>Speed 78.4 km/h Distance 129 km</desc>
<time>2012-09-18T17:39:24.42</time>
<name>6376</name>
<sym>Dot</sym>
</trkpt>
<trkpt lat="47.818458" lon="15.697177">
<ele>666.5</ele>
<desc>Speed 81.2 km/h Distance 129 km</desc>
<time>2012-09-18T17:39:25.42</time>
<name>6377</name>
<sym>Dot</sym>
</trkpt>
<trkpt lat="47.818312" lon="15.697390">
<ele>666.0</ele>
<desc>Speed 82.0 km/h Distance 129 km</desc>
<time>2012-09-18T17:39:26.41</time>
<name>6378</name>
<sym>Dot</sym>
</trkpt>
<trkpt lat="47.818167" lon="15.697590">
<ele>665.5</ele>
<desc>Speed 79.1 km/h Distance 129 km</desc>
<time>2012-09-18T17:39:27.40</time>
<name>6379</name>
<sym>Dot</sym>
</trkpt>
<trkpt lat="47.818025" lon="15.697775">
<ele>665.0</ele>
<desc>Speed 75.5 km/h Distance 129 km</desc>
<time>2012-09-18T17:39:28.40</time>
<name>6380</name>
<sym>Dot</sym>
</trkpt>
<trkpt lat="47.817887" lon="15.697945">
<ele>665.0</ele>
<desc>Speed 72.4 km/h Distance 129 km</desc>
<time>2012-09-18T17:39:29.40</time>
<name>6381</name>
<sym>Dot</sym>
</trkpt>
<trkpt lat="47.817745" lon="15.698108">
<ele>664.5</ele>
<desc>Speed 71.7 km/h Distance 129 km</desc>
<time>2012-09-18T17:39:30.39</time>
<name>6382</name>
<sym>Dot</sym>
</trkpt>
<trkpt lat="47.817598" lon="15.698270">
<ele>664.5</ele>
<desc>Speed 73.3 km/h Distance 129 km</desc>
<time>2012-09-18T17:39:31.39</time>
<name>6383</name>
<sym>Dot</sym>
</trkpt>
<trkpt lat="47.817447" lon="15.698427">
<ele>664.0</ele>
<desc>Speed 74.2 km/h Distance 129 km</desc>
<time>2012-09-18T17:39:32.38</time>
<name>6384</name>
<sym>Dot</sym>
</trkpt>
<trkpt lat="47.817290" lon="15.698578">
<ele>664.0</ele>
<desc>Speed 74.6 km/h Distance 129 km</desc>
<time>2012-09-18T17:39:33.38</time>
<name>6385</name>
<sym>Dot</sym>
</trkpt>
<trkpt lat="47.817130" lon="15.698723">
<ele>664.0</ele>
<desc>Speed 75.0 km/h Distance 129 km</desc>
<time>2012-09-18T17:39:34.38</time>
<name>6386</name>
<sym>Dot</sym>
</trkpt>
<trkpt lat="47.816970" lon="15.698865">
<ele>663.5</ele>
<desc>Speed 74.8 km/h Distance 129 km</desc>
<time>2012-09-18T17:39:35.38</time>
<name>6387</name>
<sym>Dot</sym>
</trkpt>
<trkpt lat="47.816810" lon="15.699000">
<ele>663.5</ele>
<desc>Speed 73.9 km/h Distance 129 km</desc>
<time>2012-09-18T17:39:36.38</time>
<name>6388</name>
<sym>Dot</sym>
</trkpt>
<trkpt lat="47.816652" lon="15.699137">
<ele>663.0</ele>
<desc>Speed 73.4 km/h Distance 129 km</desc>
<time>2012-09-18T17:39:37.36</time>
<name>6389</name>
<sym>Dot</sym>
</trkpt>
<trkpt lat="47.816498" lon="15.699280">
<ele>663.5</ele>
<desc>Speed 72.5 km/h Distance 129 km</desc>
<time>2012-09-18T17:39:38.35</time>
<name>6390</name>
<sym>Dot</sym>
</trkpt>
<trkpt lat="47.816360" lon="15.699448">
<ele>663.5</ele>
<desc>Speed 72.4 km/h Distance 129 km</desc>
<time>2012-09-18T17:39:39.35</time>
<name>6391</name>
<sym>Dot</sym>
</trkpt>
<trkpt lat="47.816230" lon="15.699630">
<ele>663.5</ele>
<desc>Speed 71.5 km/h Distance 129 km</desc>
<time>2012-09-18T17:39:40.34</time>
<name>6392</name>
<sym>Dot</sym>
</trkpt>
<trkpt lat="47.816123" lon="15.699832">
<ele>663.5</ele>
<desc>Speed 69.2 km/h Distance 129 km</desc>
<time>2012-09-18T17:39:41.34</time>
<name>6393</name>
<sym>Dot</sym>
</trkpt>
<trkpt lat="47.816035" lon="15.700030">
<ele>665.0</ele>
<desc>Speed 64.8 km/h Distance 129 km</desc>
<time>2012-09-18T17:39:42.34</time>
<name>6394</name>
<sym>Dot</sym>
</trkpt>
<trkpt lat="47.815973" lon="15.700245">
<ele>665.5</ele>
<desc>Speed 63.2 km/h Distance 129 km</desc>
<time>2012-09-18T17:39:43.33</time>
<name>6395</name>
<sym>Dot</sym>
</trkpt>
<trkpt lat="47.815918" lon="15.700448">
<ele>665.0</ele>
<desc>Speed 59.6 km/h Distance 129 km</desc>
<time>2012-09-18T17:39:44.32</time>
<name>6396</name>
<sym>Dot</sym>
</trkpt>
<trkpt lat="47.815872" lon="15.700645">
<ele>665.0</ele>
<desc>Speed 56.5 km/h Distance 129 km</desc>
<time>2012-09-18T17:39:45.32</time>
<name>6397</name>
<sym>Dot</sym>
</trkpt>
<trkpt lat="47.815828" lon="15.700832">
<ele>665.0</ele>
<desc>Speed 53.7 km/h Distance 129 km</desc>
<time>2012-09-18T17:39:46.31</time>
<name>6398</name>
<sym>Dot</sym>
</trkpt>
<trkpt lat="47.815785" lon="15.701008">
<ele>665.0</ele>
<desc>Speed 51.4 km/h Distance 129 km</desc>
<time>2012-09-18T17:39:47.31</time>
<name>6399</name>
<sym>Dot</sym>
</trkpt>
<trkpt lat="47.815738" lon="15.701177">
<ele>664.5</ele>
<desc>Speed 49.3 km/h Distance 129 km</desc>
<time>2012-09-18T17:39:48.30</time>
<name>6400</name>
<sym>Dot</sym>
</trkpt>
<trkpt lat="47.815685" lon="15.701335">
<ele>664.5</ele>
<desc>Speed 47.8 km/h Distance 129 km</desc>
<time>2012-09-18T17:39:49.30</time>
<name>6401</name>
<sym>Dot</sym>
</trkpt>
<trkpt lat="47.815625" lon="15.701485">
<ele>664.0</ele>
<desc>Speed 47.5 km/h Distance 129 km</desc>
<time>2012-09-18T17:39:50.29</time>
<name>6402</name>
<sym>Dot</sym>
</trkpt>
<trkpt lat="47.815558" lon="15.701632">
<ele>664.0</ele>
<desc>Speed 47.7 km/h Distance 129 km</desc>
<time>2012-09-18T17:39:51.29</time>
<name>6403</name>
<sym>Dot</sym>
</trkpt>
<trkpt lat="47.815485" lon="15.701775">
<ele>664.0</ele>
<desc>Speed 48.7 km/h Distance 129 km</desc>
<time>2012-09-18T17:39:52.28</time>
<name>6404</name>
<sym>Dot</sym>
</trkpt>
<trkpt lat="47.815410" lon="15.701920">
<ele>663.5</ele>
<desc>Speed 49.9 km/h Distance 129 km</desc>
<time>2012-09-18T17:39:53.28</time>
<name>6405</name>
<sym>Dot</sym>
</trkpt>
<trkpt lat="47.815332" lon="15.702072">
<ele>663.0</ele>
<desc>Speed 51.4 km/h Distance 129 km</desc>
<time>2012-09-18T17:39:54.28</time>
<name>6406</name>
<sym>Dot</sym>
</trkpt>
<trkpt lat="47.815248" lon="15.702225">
<ele>663.0</ele>
<desc>Speed 53.3 km/h Distance 129 km</desc>
<time>2012-09-18T17:39:55.27</time>
<name>6407</name>
<sym>Dot</sym>
</trkpt>
<trkpt lat="47.815158" lon="15.702373">
<ele>662.5</ele>
<desc>Speed 54.1 km/h Distance 129 km</desc>
<time>2012-09-18T17:39:56.27</time>
<name>6408</name>
<sym>Dot</sym>
</trkpt>
<trkpt lat="47.815065" lon="15.702517">
<ele>662.5</ele>
<desc>Speed 54.1 km/h Distance 129 km</desc>
<time>2012-09-18T17:39:57.27</time>
<name>6409</name>
<sym>Dot</sym>
</trkpt>
<trkpt lat="47.814967" lon="15.702653">
<ele>662.0</ele>
<desc>Speed 54.0 km/h Distance 129 km</desc>
<time>2012-09-18T17:39:58.27</time>
<name>6410</name>
<sym>Dot</sym>
</trkpt>
<trkpt lat="47.814867" lon="15.702785">
<ele>662.0</ele>
<desc>Speed 53.7 km/h Distance 129 km</desc>
<time>2012-09-18T17:39:59.27</time>
<name>6411</name>
<sym>Dot</sym>
</trkpt>
<trkpt lat="47.814767" lon="15.702913">
<ele>661.5</ele>
<desc>Speed 53.1 km/h Distance 129 km</desc>
<time>2012-09-18T17:40:00.26</time>
<name>6412</name>
<sym>Dot</sym>
</trkpt>
<trkpt lat="47.814668" lon="15.703037">
<ele>661.0</ele>
<desc>Speed 52.0 km/h Distance 129 km</desc>
<time>2012-09-18T17:40:01.26</time>
<name>6413</name>
<sym>Dot</sym>
</trkpt>
<trkpt lat="47.814568" lon="15.703153">
<ele>660.5</ele>
<desc>Speed 50.9 km/h Distance 129 km</desc>
<time>2012-09-18T17:40:02.26</time>
<name>6414</name>
<sym>Dot</sym>
</trkpt>
<trkpt lat="47.814470" lon="15.703263">
<ele>660.0</ele>
<desc>Speed 49.9 km/h Distance 129 km</desc>
<time>2012-09-18T17:40:03.25</time>
<name>6415</name>
<sym>Dot</sym>
</trkpt>
<trkpt lat="47.814368" lon="15.703365">
<ele>660.0</ele>
<desc>Speed 49.0 km/h Distance 129 km</desc>
<time>2012-09-18T17:40:04.24</time>
<name>6416</name>
<sym>Dot</sym>
</trkpt>
<trkpt lat="47.814163" lon="15.703550">
<ele>659.5</ele>
<desc>Speed 47.9 km/h Distance 129 km</desc>
<time>2012-09-18T17:40:06.25</time>
<name>6417</name>
<sym>Dot</sym>
</trkpt>
<trkpt lat="47.814058" lon="15.703635">
<ele>659.0</ele>
<desc>Speed 47.6 km/h Distance 129 km</desc>
<time>2012-09-18T17:40:07.24</time>
<name>6418</name>
<sym>Dot</sym>
</trkpt>
<trkpt lat="47.813953" lon="15.703720">
<ele>659.0</ele>
<desc>Speed 47.6 km/h Distance 129 km</desc>
<time>2012-09-18T17:40:08.23</time>
<name>6419</name>
<sym>Dot</sym>
</trkpt>
<trkpt lat="47.813848" lon="15.703802">
<ele>658.5</ele>
<desc>Speed 47.6 km/h Distance 129 km</desc>
<time>2012-09-18T17:40:09.24</time>
<name>6420</name>
<sym>Dot</sym>
</trkpt>
<trkpt lat="47.813743" lon="15.703878">
<ele>658.5</ele>
<desc>Speed 46.7 km/h Distance 129 km</desc>
<time>2012-09-18T17:40:10.33</time>
<name>6421</name>
<sym>Dot</sym>
</trkpt>
<trkpt lat="47.813640" lon="15.703953">
<ele>658.5</ele>
<desc>Speed 46.3 km/h Distance 129 km</desc>
<time>2012-09-18T17:40:11.21</time>
<name>6422</name>
<sym>Dot</sym>
</trkpt>
<trkpt lat="47.813535" lon="15.704027">
<ele>658.5</ele>
<desc>Speed 46.1 km/h Distance 129 km</desc>
<time>2012-09-18T17:40:12.21</time>
<name>6423</name>
<sym>Dot</sym>
</trkpt>
<trkpt lat="47.813432" lon="15.704102">
<ele>658.0</ele>
<desc>Speed 46.3 km/h Distance 129 km</desc>
<time>2012-09-18T17:40:13.20</time>
<name>6424</name>
<sym>Dot</sym>
</trkpt>
<trkpt lat="47.813327" lon="15.704180">
<ele>657.5</ele>
<desc>Speed 46.8 km/h Distance 129 km</desc>
<time>2012-09-18T17:40:14.19</time>
<name>6425</name>
<sym>Dot</sym>
</trkpt>
<trkpt lat="47.813223" lon="15.704258">
<ele>657.5</ele>
<desc>Speed 46.9 km/h Distance 129 km</desc>
<time>2012-09-18T17:40:15.20</time>
<name>6426</name>
<sym>Dot</sym>
</trkpt>
<trkpt lat="47.813115" lon="15.704340">
<ele>657.5</ele>
<desc>Speed 48.7 km/h Distance 129 km</desc>
<time>2012-09-18T17:40:16.19</time>
<name>6427</name>
<sym>Dot</sym>
</trkpt>
<trkpt lat="47.813003" lon="15.704433">
<ele>657.0</ele>
<desc>Speed 51.3 km/h Distance 129 km</desc>
<time>2012-09-18T17:40:18.13</time>
<name>6428</name>
<sym>Dot</sym>
</trkpt>
<trkpt lat="47.812780" lon="15.704648">
<ele>656.5</ele>
<desc>Speed 54.1 km/h Distance 129 km</desc>
<time>2012-09-18T17:40:19.21</time>
<name>6429</name>
<sym>Dot</sym>
</trkpt>
<trkpt lat="47.812672" lon="15.704763">
<ele>656.0</ele>
<desc>Speed 53.6 km/h Distance 129 km</desc>
<time>2012-09-18T17:40:20.66</time>
<name>6430</name>
<sym>Dot</sym>
</trkpt>
<trkpt lat="47.812572" lon="15.704888">
<ele>655.5</ele>
<desc>Speed 52.7 km/h Distance 129 km</desc>
<time>2012-09-18T17:40:21.19</time>
<name>6431</name>
<sym>Dot</sym>
</trkpt>
<trkpt lat="47.812475" lon="15.705018">
<ele>655.5</ele>
<desc>Speed 52.5 km/h Distance 129 km</desc>
<time>2012-09-18T17:40:22.19</time>
<name>6432</name>
<sym>Dot</sym>
</trkpt>
<trkpt lat="47.812383" lon="15.705152">
<ele>655.0</ele>
<desc>Speed 51.8 km/h Distance 129 km</desc>
<time>2012-09-18T17:40:23.17</time>
<name>6433</name>
<sym>Dot</sym>
</trkpt>
<trkpt lat="47.812293" lon="15.705285">
<ele>654.5</ele>
<desc>Speed 51.6 km/h Distance 129 km</desc>
<time>2012-09-18T17:40:24.17</time>
<name>6434</name>
<sym>Dot</sym>
</trkpt>
<trkpt lat="47.812205" lon="15.705415">
<ele>654.5</ele>
<desc>Speed 49.9 km/h Distance 129 km</desc>
<time>2012-09-18T17:40:25.16</time>
<name>6435</name>
<sym>Dot</sym>
</trkpt>
<trkpt lat="47.812113" lon="15.705537">
<ele>654.0</ele>
<desc>Speed 49.6 km/h Distance 129 km</desc>
<time>2012-09-18T17:40:26.16</time>
<name>6436</name>
<sym>Dot</sym>
</trkpt>
<trkpt lat="47.812025" lon="15.705653">
<ele>654.5</ele>
<desc>Speed 47.3 km/h Distance 130 km</desc>
<time>2012-09-18T17:40:27.15</time>
<name>6437</name>
<sym>Dot</sym>
</trkpt>
<trkpt lat="47.811922" lon="15.705757">
<ele>653.5</ele>
<desc>Speed 50.0 km/h Distance 130 km</desc>
<time>2012-09-18T17:40:28.15</time>
<name>6438</name>
<sym>Dot</sym>
</trkpt>
<trkpt lat="47.811817" lon="15.705848">
<ele>653.5</ele>
<desc>Speed 49.1 km/h Distance 130 km</desc>
<time>2012-09-18T17:40:29.14</time>
<name>6439</name>
<sym>Dot</sym>
</trkpt>
<trkpt lat="47.811708" lon="15.705923">
<ele>653.0</ele>
<desc>Speed 47.7 km/h Distance 130 km</desc>
<time>2012-09-18T17:40:30.14</time>
<name>6440</name>
<sym>Dot</sym>
</trkpt>
<trkpt lat="47.811602" lon="15.705980">
<ele>653.5</ele>
<desc>Speed 46.0 km/h Distance 130 km</desc>
<time>2012-09-18T17:40:31.14</time>
<name>6441</name>
<sym>Dot</sym>
</trkpt>
<trkpt lat="47.811492" lon="15.706023">
<ele>654.0</ele>
<desc>Speed 45.8 km/h Distance 130 km</desc>
<time>2012-09-18T17:40:32.13</time>
<name>6442</name>
<sym>Dot</sym>
</trkpt>
<trkpt lat="47.811382" lon="15.706057">
<ele>654.5</ele>
<desc>Speed 45.1 km/h Distance 130 km</desc>
<time>2012-09-18T17:40:33.12</time>
<name>6443</name>
<sym>Dot</sym>
</trkpt>
<trkpt lat="47.811272" lon="15.706088">
<ele>654.5</ele>
<desc>Speed 45.2 km/h Distance 130 km</desc>
<time>2012-09-18T17:40:34.12</time>
<name>6444</name>
<sym>Dot</sym>
</trkpt>
<trkpt lat="47.811160" lon="15.706120">
<ele>654.5</ele>
<desc>Speed 45.9 km/h Distance 130 km</desc>
<time>2012-09-18T17:40:35.11</time>
<name>6445</name>
<sym>Dot</sym>
</trkpt>
<trkpt lat="47.811047" lon="15.706148">
<ele>654.5</ele>
<desc>Speed 46.4 km/h Distance 130 km</desc>
<time>2012-09-18T17:40:36.11</time>
<name>6446</name>
<sym>Dot</sym>
</trkpt>
<trkpt lat="47.810927" lon="15.706180">
<ele>654.0</ele>
<desc>Speed 48.6 km/h Distance 130 km</desc>
<time>2012-09-18T17:40:37.11</time>
<name>6447</name>
<sym>Dot</sym>
</trkpt>
<trkpt lat="47.810810" lon="15.706212">
<ele>654.0</ele>
<desc>Speed 48.3 km/h Distance 130 km</desc>
<time>2012-09-18T17:40:38.11</time>
<name>6448</name>
<sym>Dot</sym>
</trkpt>
<trkpt lat="47.810697" lon="15.706243">
<ele>654.0</ele>
<desc>Speed 46.3 km/h Distance 130 km</desc>
<time>2012-09-18T17:40:39.10</time>
<name>6449</name>
<sym>Dot</sym>
</trkpt>
<trkpt lat="47.810587" lon="15.706270">
<ele>653.5</ele>
<desc>Speed 44.9 km/h Distance 130 km</desc>
<time>2012-09-18T17:40:40.13</time>
<name>6450</name>
<sym>Dot</sym>
</trkpt>
<trkpt lat="47.810480" lon="15.706295">
<ele>653.5</ele>
<desc>Speed 43.5 km/h Distance 130 km</desc>
<time>2012-09-18T17:40:41.09</time>
<name>6451</name>
<sym>Dot</sym>
</trkpt>
<trkpt lat="47.810373" lon="15.706313">
<ele>654.5</ele>
<desc>Speed 43.1 km/h Distance 130 km</desc>
<time>2012-09-18T17:40:42.09</time>
<name>6452</name>
<sym>Dot</sym>
</trkpt>
<trkpt lat="47.810258" lon="15.706327">
<ele>654.5</ele>
<desc>Speed 46.4 km/h Distance 130 km</desc>
<time>2012-09-18T17:40:43.09</time>
<name>6453</name>
<sym>Dot</sym>
</trkpt>
<trkpt lat="47.810140" lon="15.706340">
<ele>654.5</ele>
<desc>Speed 48.2 km/h Distance 130 km</desc>
<time>2012-09-18T17:40:44.08</time>
<name>6454</name>
<sym>Dot</sym>
</trkpt>
<trkpt lat="47.810020" lon="15.706353">
<ele>654.5</ele>
<desc>Speed 48.7 km/h Distance 130 km</desc>
<time>2012-09-18T17:40:45.08</time>
<name>6455</name>
<sym>Dot</sym>
</trkpt>
<trkpt lat="47.809900" lon="15.706367">
<ele>654.5</ele>
<desc>Speed 48.5 km/h Distance 130 km</desc>
<time>2012-09-18T17:40:46.07</time>
<name>6456</name>
<sym>Dot</sym>
</trkpt>
<trkpt lat="47.809783" lon="15.706385">
<ele>655.5</ele>
<desc>Speed 47.7 km/h Distance 130 km</desc>
<time>2012-09-18T17:40:47.07</time>
<name>6457</name>
<sym>Dot</sym>
</trkpt>
<trkpt lat="47.809667" lon="15.706403">
<ele>655.5</ele>
<desc>Speed 47.0 km/h Distance 130 km</desc>
<time>2012-09-18T17:40:48.05</time>
<name>6458</name>
<sym>Dot</sym>
</trkpt>
<trkpt lat="47.809555" lon="15.706423">
<ele>655.5</ele>
<desc>Speed 45.8 km/h Distance 130 km</desc>
<time>2012-09-18T17:40:49.05</time>
<name>6459</name>
<sym>Dot</sym>
</trkpt>
<trkpt lat="47.809442" lon="15.706442">
<ele>655.5</ele>
<desc>Speed 45.5 km/h Distance 130 km</desc>
<time>2012-09-18T17:40:50.05</time>
<name>6460</name>
<sym>Dot</sym>
</trkpt>
<trkpt lat="47.809332" lon="15.706457">
<ele>655.5</ele>
<desc>Speed 45.0 km/h Distance 130 km</desc>
<time>2012-09-18T17:40:51.05</time>
<name>6461</name>
<sym>Dot</sym>
</trkpt>
<trkpt lat="47.809220" lon="15.706472">
<ele>655.5</ele>
<desc>Speed 45.0 km/h Distance 130 km</desc>
<time>2012-09-18T17:40:52.08</time>
<name>6462</name>
<sym>Dot</sym>
</trkpt>
<trkpt lat="47.809108" lon="15.706487">
<ele>655.0</ele>
<desc>Speed 45.3 km/h Distance 130 km</desc>
<time>2012-09-18T17:40:53.04</time>
<name>6463</name>
<sym>Dot</sym>
</trkpt>
<trkpt lat="47.808978" lon="15.706497">
<ele>655.0</ele>
<desc>Speed 52.3 km/h Distance 130 km</desc>
<time>2012-09-18T17:40:54.03</time>
<name>6464</name>
<sym>Dot</sym>
</trkpt>
<trkpt lat="47.808855" lon="15.706510">
<ele>655.0</ele>
<desc>Speed 49.6 km/h Distance 130 km</desc>
<time>2012-09-18T17:40:55.02</time>
<name>6465</name>
<sym>Dot</sym>
</trkpt>
<trkpt lat="47.808735" lon="15.706525">
<ele>653.5</ele>
<desc>Speed 48.5 km/h Distance 130 km</desc>
<time>2012-09-18T17:40:56.01</time>
<name>6466</name>
<sym>Dot</sym>
</trkpt>
<trkpt lat="47.808620" lon="15.706543">
<ele>653.0</ele>
<desc>Speed 47.0 km/h Distance 130 km</desc>
<time>2012-09-18T17:40:57.00</time>
<name>6467</name>
<sym>Dot</sym>
</trkpt>
<trkpt lat="47.808507" lon="15.706562">
<ele>653.0</ele>
<desc>Speed 46.5 km/h Distance 130 km</desc>
<time>2012-09-18T17:40:57.99</time>
<name>6468</name>
<sym>Dot</sym>
</trkpt>
<trkpt lat="47.808392" lon="15.706583">
<ele>652.5</ele>
<desc>Speed 46.9 km/h Distance 130 km</desc>
<time>2012-09-18T17:40:58.99</time>
<name>6469</name>
<sym>Dot</sym>
</trkpt>
<trkpt lat="47.808277" lon="15.706605">
<ele>652.5</ele>
<desc>Speed 46.4 km/h Distance 130 km</desc>
<time>2012-09-18T17:40:59.99</time>
<name>6470</name>
<sym>Dot</sym>
</trkpt>
<trkpt lat="47.808148" lon="15.706650">
<ele>652.5</ele>
<desc>Speed 52.8 km/h Distance 130 km</desc>
<time>2012-09-18T17:41:00.99</time>
<name>6471</name>
<sym>Dot</sym>
</trkpt>
<trkpt lat="47.808030" lon="15.706687">
<ele>652.5</ele>
<desc>Speed 48.7 km/h Distance 130 km</desc>
<time>2012-09-18T17:41:01.98</time>
<name>6472</name>
<sym>Dot</sym>
</trkpt>
<trkpt lat="47.807910" lon="15.706732">
<ele>652.5</ele>
<desc>Speed 50.1 km/h Distance 130 km</desc>
<time>2012-09-18T17:41:02.97</time>
<name>6473</name>
<sym>Dot</sym>
</trkpt>
<trkpt lat="47.807787" lon="15.706790">
<ele>652.0</ele>
<desc>Speed 52.3 km/h Distance 130 km</desc>
<time>2012-09-18T17:41:03.96</time>
<name>6474</name>
<sym>Dot</sym>
</trkpt>
<trkpt lat="47.807660" lon="15.706858">
<ele>652.0</ele>
<desc>Speed 54.4 km/h Distance 130 km</desc>
<time>2012-09-18T17:41:05.01</time>
<name>6475</name>
<sym>Dot</sym>
</trkpt>
<trkpt lat="47.807537" lon="15.706933">
<ele>652.0</ele>
<desc>Speed 53.7 km/h Distance 130 km</desc>
<time>2012-09-18T17:41:05.97</time>
<name>6476</name>
<sym>Dot</sym>
</trkpt>
<trkpt lat="47.807422" lon="15.707015">
<ele>652.0</ele>
<desc>Speed 51.8 km/h Distance 130 km</desc>
<time>2012-09-18T17:41:06.95</time>
<name>6477</name>
<sym>Dot</sym>
</trkpt>
<trkpt lat="47.807313" lon="15.707103">
<ele>652.0</ele>
<desc>Speed 50.0 km/h Distance 130 km</desc>
<time>2012-09-18T17:41:07.95</time>
<name>6478</name>
<sym>Dot</sym>
</trkpt>
<trkpt lat="47.807210" lon="15.707193">
<ele>652.0</ele>
<desc>Speed 48.0 km/h Distance 130 km</desc>
<time>2012-09-18T17:41:08.95</time>
<name>6479</name>
<sym>Dot</sym>
</trkpt>
<trkpt lat="47.807112" lon="15.707282">
<ele>652.0</ele>
<desc>Speed 46.5 km/h Distance 130 km</desc>
<time>2012-09-18T17:41:09.93</time>
<name>6480</name>
<sym>Dot</sym>
</trkpt>
<trkpt lat="47.807012" lon="15.707368">
<ele>652.0</ele>
<desc>Speed 46.5 km/h Distance 130 km</desc>
<time>2012-09-18T17:41:10.93</time>
<name>6481</name>
<sym>Dot</sym>
</trkpt>
<trkpt lat="47.806907" lon="15.707438">
<ele>652.5</ele>
<desc>Speed 46.5 km/h Distance 130 km</desc>
<time>2012-09-18T17:41:11.93</time>
<name>6482</name>
<sym>Dot</sym>
</trkpt>
<trkpt lat="47.806792" lon="15.707490">
<ele>652.5</ele>
<desc>Speed 48.1 km/h Distance 130 km</desc>
<time>2012-09-18T17:41:12.93</time>
<name>6483</name>
<sym>Dot</sym>
</trkpt>
<trkpt lat="47.806678" lon="15.707527">
<ele>652.0</ele>
<desc>Speed 46.8 km/h Distance 130 km</desc>
<time>2012-09-18T17:41:13.92</time>
<name>6484</name>
<sym>Dot</sym>
</trkpt>
<trkpt lat="47.806560" lon="15.707547">
<ele>652.5</ele>
<desc>Speed 48.7 km/h Distance 130 km</desc>
<time>2012-09-18T17:41:14.92</time>
<name>6485</name>
<sym>Dot</sym>
</trkpt>
<trkpt lat="47.806427" lon="15.707550">
<ele>652.5</ele>
<desc>Speed 53.9 km/h Distance 130 km</desc>
<time>2012-09-18T17:41:15.96</time>
<name>6486</name>
<sym>Dot</sym>
</trkpt>
<trkpt lat="47.806300" lon="15.707570">
<ele>652.5</ele>
<desc>Speed 51.7 km/h Distance 130 km</desc>
<time>2012-09-18T17:41:16.90</time>
<name>6487</name>
<sym>Dot</sym>
</trkpt>
<trkpt lat="47.806172" lon="15.707592">
<ele>652.0</ele>
<desc>Speed 52.1 km/h Distance 130 km</desc>
<time>2012-09-18T17:41:17.91</time>
<name>6488</name>
<sym>Dot</sym>
</trkpt>
<trkpt lat="47.806055" lon="15.707622">
<ele>652.0</ele>
<desc>Speed 48.7 km/h Distance 130 km</desc>
<time>2012-09-18T17:41:18.89</time>
<name>6489</name>
<sym>Dot</sym>
</trkpt>
<trkpt lat="47.805940" lon="15.707660">
<ele>651.5</ele>
<desc>Speed 47.6 km/h Distance 130 km</desc>
<time>2012-09-18T17:41:19.89</time>
<name>6490</name>
<sym>Dot</sym>
</trkpt>
<trkpt lat="47.805827" lon="15.707702">
<ele>651.5</ele>
<desc>Speed 47.8 km/h Distance 130 km</desc>
<time>2012-09-18T17:41:20.89</time>
<name>6491</name>
<sym>Dot</sym>
</trkpt>
<trkpt lat="47.805715" lon="15.707747">
<ele>651.0</ele>
<desc>Speed 47.1 km/h Distance 130 km</desc>
<time>2012-09-18T17:41:21.88</time>
<name>6492</name>
<sym>Dot</sym>
</trkpt>
<trkpt lat="47.805605" lon="15.707795">
<ele>651.5</ele>
<desc>Speed 46.7 km/h Distance 130 km</desc>
<time>2012-09-18T17:41:22.87</time>
<name>6493</name>
<sym>Dot</sym>
</trkpt>
<trkpt lat="47.805497" lon="15.707848">
<ele>651.5</ele>
<desc>Speed 46.6 km/h Distance 130 km</desc>
<time>2012-09-18T17:41:23.87</time>
<name>6494</name>
<sym>Dot</sym>
</trkpt>
<trkpt lat="47.805390" lon="15.707908">
<ele>651.5</ele>
<desc>Speed 45.9 km/h Distance 130 km</desc>
<time>2012-09-18T17:41:24.85</time>
<name>6495</name>
<sym>Dot</sym>
</trkpt>
<trkpt lat="47.805288" lon="15.707978">
<ele>651.5</ele>
<desc>Speed 45.6 km/h Distance 130 km</desc>
<time>2012-09-18T17:41:25.86</time>
<name>6496</name>
<sym>Dot</sym>
</trkpt>
<trkpt lat="47.805190" lon="15.708055">
<ele>652.0</ele>
<desc>Speed 45.1 km/h Distance 130 km</desc>
<time>2012-09-18T17:41:26.88</time>
<name>6497</name>
<sym>Dot</sym>
</trkpt>
<trkpt lat="47.805098" lon="15.708118">
<ele>650.5</ele>
<desc>Speed 41.0 km/h Distance 130 km</desc>
<time>2012-09-18T17:41:27.86</time>
<name>6498</name>
<sym>Dot</sym>
</trkpt>
<trkpt lat="47.804993" lon="15.708155">
<ele>650.5</ele>
<desc>Speed 43.6 km/h Distance 130 km</desc>
<time>2012-09-18T17:41:28.84</time>
<name>6499</name>
<sym>Dot</sym>
</trkpt>
<trkpt lat="47.804887" lon="15.708173">
<ele>651.5</ele>
<desc>Speed 43.3 km/h Distance 130 km</desc>
<time>2012-09-18T17:41:29.84</time>
<name>6500</name>
<sym>Dot</sym>
</trkpt>
<trkpt lat="47.804772" lon="15.708192">
<ele>651.0</ele>
<desc>Speed 46.7 km/h Distance 130 km</desc>
<time>2012-09-18T17:41:30.84</time>
<name>6501</name>
<sym>Dot</sym>
</trkpt>
<trkpt lat="47.804652" lon="15.708217">
<ele>651.0</ele>
<desc>Speed 48.8 km/h Distance 130 km</desc>
<time>2012-09-18T17:41:31.84</time>
<name>6502</name>
<sym>Dot</sym>
</trkpt>
<trkpt lat="47.804535" lon="15.708252">
<ele>651.0</ele>
<desc>Speed 48.0 km/h Distance 130 km</desc>
<time>2012-09-18T17:41:32.82</time>
<name>6503</name>
<sym>Dot</sym>
</trkpt>
<trkpt lat="47.804420" lon="15.708293">
<ele>651.5</ele>
<desc>Speed 47.6 km/h Distance 130 km</desc>
<time>2012-09-18T17:41:33.82</time>
<name>6504</name>
<sym>Dot</sym>
</trkpt>
<trkpt lat="47.804305" lon="15.708348">
<ele>651.5</ele>
<desc>Speed 49.1 km/h Distance 130 km</desc>
<time>2012-09-18T17:41:34.81</time>
<name>6505</name>
<sym>Dot</sym>
</trkpt>
<trkpt lat="47.804187" lon="15.708415">
<ele>652.0</ele>
<desc>Speed 51.0 km/h Distance 130 km</desc>
<time>2012-09-18T17:41:35.80</time>
<name>6506</name>
<sym>Dot</sym>
</trkpt>
<trkpt lat="47.804067" lon="15.708498">
<ele>652.5</ele>
<desc>Speed 53.5 km/h Distance 130 km</desc>
<time>2012-09-18T17:41:36.84</time>
<name>6507</name>
<sym>Dot</sym>
</trkpt>
<trkpt lat="47.803950" lon="15.708585">
<ele>652.0</ele>
<desc>Speed 52.9 km/h Distance 130 km</desc>
<time>2012-09-18T17:41:37.81</time>
<name>6508</name>
<sym>Dot</sym>
</trkpt>
<trkpt lat="47.803840" lon="15.708675">
<ele>652.0</ele>
<desc>Speed 51.2 km/h Distance 130 km</desc>
<time>2012-09-18T17:41:38.80</time>
<name>6509</name>
<sym>Dot</sym>
</trkpt>
<trkpt lat="47.803735" lon="15.708767">
<ele>652.5</ele>
<desc>Speed 49.1 km/h Distance 130 km</desc>
<time>2012-09-18T17:41:39.80</time>
<name>6510</name>
<sym>Dot</sym>
</trkpt>
<trkpt lat="47.803637" lon="15.708860">
<ele>652.5</ele>
<desc>Speed 47.3 km/h Distance 130 km</desc>
<time>2012-09-18T17:41:40.78</time>
<name>6511</name>
<sym>Dot</sym>
</trkpt>
<trkpt lat="47.803538" lon="15.708948">
<ele>653.0</ele>
<desc>Speed 46.1 km/h Distance 130 km</desc>
<time>2012-09-18T17:41:41.79</time>
<name>6512</name>
<sym>Dot</sym>
</trkpt>
<trkpt lat="47.803440" lon="15.709033">
<ele>652.5</ele>
<desc>Speed 46.0 km/h Distance 131 km</desc>
<time>2012-09-18T17:41:42.79</time>
<name>6513</name>
<sym>Dot</sym>
</trkpt>
<trkpt lat="47.803332" lon="15.709102">
<ele>653.0</ele>
<desc>Speed 47.6 km/h Distance 131 km</desc>
<time>2012-09-18T17:41:43.79</time>
<name>6514</name>
<sym>Dot</sym>
</trkpt>
<trkpt lat="47.803222" lon="15.709162">
<ele>653.0</ele>
<desc>Speed 47.6 km/h Distance 131 km</desc>
<time>2012-09-18T17:41:44.78</time>
<name>6515</name>
<sym>Dot</sym>
</trkpt>
<trkpt lat="47.803100" lon="15.709212">
<ele>653.5</ele>
<desc>Speed 50.7 km/h Distance 131 km</desc>
<time>2012-09-18T17:41:45.77</time>
<name>6516</name>
<sym>Dot</sym>
</trkpt>
<trkpt lat="47.802970" lon="15.709255">
<ele>653.0</ele>
<desc>Speed 53.6 km/h Distance 131 km</desc>
<time>2012-09-18T17:41:46.80</time>
<name>6517</name>
<sym>Dot</sym>
</trkpt>
<trkpt lat="47.802828" lon="15.709295">
<ele>653.0</ele>
<desc>Speed 58.0 km/h Distance 131 km</desc>
<time>2012-09-18T17:41:47.76</time>
<name>6518</name>
<sym>Dot</sym>
</trkpt>
<trkpt lat="47.802680" lon="15.709327">
<ele>652.5</ele>
<desc>Speed 60.1 km/h Distance 131 km</desc>
<time>2012-09-18T17:41:48.76</time>
<name>6519</name>
<sym>Dot</sym>
</trkpt>
<trkpt lat="47.802537" lon="15.709350">
<ele>652.5</ele>
<desc>Speed 58.3 km/h Distance 131 km</desc>
<time>2012-09-18T17:41:49.76</time>
<name>6520</name>
<sym>Dot</sym>
</trkpt>
<trkpt lat="47.802392" lon="15.709360">
<ele>652.0</ele>
<desc>Speed 58.3 km/h Distance 131 km</desc>
<time>2012-09-18T17:41:50.75</time>
<name>6521</name>
<sym>Dot</sym>
</trkpt>
<trkpt lat="47.802247" lon="15.709360">
<ele>652.0</ele>
<desc>Speed 58.6 km/h Distance 131 km</desc>
<time>2012-09-18T17:41:51.76</time>
<name>6522</name>
<sym>Dot</sym>
</trkpt>
<trkpt lat="47.802098" lon="15.709350">
<ele>651.5</ele>
<desc>Speed 60.0 km/h Distance 131 km</desc>
<time>2012-09-18T17:41:52.75</time>
<name>6523</name>
<sym>Dot</sym>
</trkpt>
<trkpt lat="47.801947" lon="15.709343">
<ele>651.5</ele>
<desc>Speed 61.5 km/h Distance 131 km</desc>
<time>2012-09-18T17:41:53.74</time>
<name>6524</name>
<sym>Dot</sym>
</trkpt>
<trkpt lat="47.801792" lon="15.709340">
<ele>651.0</ele>
<desc>Speed 63.1 km/h Distance 131 km</desc>
<time>2012-09-18T17:41:54.74</time>
<name>6525</name>
<sym>Dot</sym>
</trkpt>
<trkpt lat="47.801630" lon="15.709352">
<ele>651.0</ele>
<desc>Speed 64.6 km/h Distance 131 km</desc>
<time>2012-09-18T17:41:55.74</time>
<name>6526</name>
<sym>Dot</sym>
</trkpt>
<trkpt lat="47.801468" lon="15.709392">
<ele>651.0</ele>
<desc>Speed 66.1 km/h Distance 131 km</desc>
<time>2012-09-18T17:41:56.73</time>
<name>6527</name>
<sym>Dot</sym>
</trkpt>
<trkpt lat="47.801305" lon="15.709452">
<ele>650.5</ele>
<desc>Speed 67.1 km/h Distance 131 km</desc>
<time>2012-09-18T17:41:57.74</time>
<name>6528</name>
<sym>Dot</sym>
</trkpt>
<trkpt lat="47.801143" lon="15.709520">
<ele>650.5</ele>
<desc>Speed 67.4 km/h Distance 131 km</desc>
<time>2012-09-18T17:41:58.72</time>
<name>6529</name>
<sym>Dot</sym>
</trkpt>
<trkpt lat="47.800985" lon="15.709593">
<ele>650.0</ele>
<desc>Speed 67.0 km/h Distance 131 km</desc>
<time>2012-09-18T17:41:59.71</time>
<name>6530</name>
<sym>Dot</sym>
</trkpt>
<trkpt lat="47.800830" lon="15.709672">
<ele>649.5</ele>
<desc>Speed 66.1 km/h Distance 131 km</desc>
<time>2012-09-18T17:42:00.70</time>
<name>6531</name>
<sym>Dot</sym>
</trkpt>
<trkpt lat="47.800678" lon="15.709758">
<ele>649.5</ele>
<desc>Speed 65.4 km/h Distance 131 km</desc>
<time>2012-09-18T17:42:01.70</time>
<name>6532</name>
<sym>Dot</sym>
</trkpt>
<trkpt lat="47.800532" lon="15.709863">
<ele>649.5</ele>
<desc>Speed 65.2 km/h Distance 131 km</desc>
<time>2012-09-18T17:42:02.69</time>
<name>6533</name>
<sym>Dot</sym>
</trkpt>
<trkpt lat="47.800392" lon="15.709990">
<ele>649.0</ele>
<desc>Speed 65.8 km/h Distance 131 km</desc>
<time>2012-09-18T17:42:03.69</time>
<name>6534</name>
<sym>Dot</sym>
</trkpt>
<trkpt lat="47.800260" lon="15.710138">
<ele>649.0</ele>
<desc>Speed 66.2 km/h Distance 131 km</desc>
<time>2012-09-18T17:42:04.75</time>
<name>6535</name>
<sym>Dot</sym>
</trkpt>
<trkpt lat="47.800137" lon="15.710303">
<ele>649.0</ele>
<desc>Speed 66.9 km/h Distance 131 km</desc>
<time>2012-09-18T17:42:05.68</time>
<name>6536</name>
<sym>Dot</sym>
</trkpt>
<trkpt lat="47.800015" lon="15.710478">
<ele>648.5</ele>
<desc>Speed 67.8 km/h Distance 131 km</desc>
<time>2012-09-18T17:42:06.68</time>
<name>6537</name>
<sym>Dot</sym>
</trkpt>
<trkpt lat="47.799895" lon="15.710655">
<ele>648.5</ele>
<desc>Speed 68.1 km/h Distance 131 km</desc>
<time>2012-09-18T17:42:07.69</time>
<name>6538</name>
<sym>Dot</sym>
</trkpt>
<trkpt lat="47.799777" lon="15.710832">
<ele>648.0</ele>
<desc>Speed 67.9 km/h Distance 131 km</desc>
<time>2012-09-18T17:42:08.67</time>
<name>6539</name>
<sym>Dot</sym>
</trkpt>
<trkpt lat="47.799657" lon="15.711012">
<ele>648.0</ele>
<desc>Speed 68.5 km/h Distance 131 km</desc>
<time>2012-09-18T17:42:09.67</time>
<name>6540</name>
<sym>Dot</sym>
</trkpt>
<trkpt lat="47.799547" lon="15.711210">
<ele>648.0</ele>
<desc>Speed 69.2 km/h Distance 131 km</desc>
<time>2012-09-18T17:42:10.66</time>
<name>6541</name>
<sym>Dot</sym>
</trkpt>
<trkpt lat="47.799450" lon="15.711427">
<ele>647.5</ele>
<desc>Speed 70.4 km/h Distance 131 km</desc>
<time>2012-09-18T17:42:11.66</time>
<name>6542</name>
<sym>Dot</sym>
</trkpt>
<trkpt lat="47.799377" lon="15.711673">
<ele>647.5</ele>
<desc>Speed 73.1 km/h Distance 131 km</desc>
<time>2012-09-18T17:42:12.66</time>
<name>6543</name>
<sym>Dot</sym>
</trkpt>
<trkpt lat="47.799323" lon="15.711922">
<ele>649.0</ele>
<desc>Speed 70.1 km/h Distance 131 km</desc>
<time>2012-09-18T17:42:13.66</time>
<name>6544</name>
<sym>Dot</sym>
</trkpt>
<trkpt lat="47.799277" lon="15.712155">
<ele>649.5</ele>
<desc>Speed 65.9 km/h Distance 131 km</desc>
<time>2012-09-18T17:42:14.65</time>
<name>6545</name>
<sym>Dot</sym>
</trkpt>
<trkpt lat="47.799230" lon="15.712378">
<ele>649.5</ele>
<desc>Speed 62.8 km/h Distance 131 km</desc>
<time>2012-09-18T17:42:15.64</time>
<name>6546</name>
<sym>Dot</sym>
</trkpt>
<trkpt lat="47.799177" lon="15.712588">
<ele>649.5</ele>
<desc>Speed 60.6 km/h Distance 131 km</desc>
<time>2012-09-18T17:42:16.70</time>
<name>6547</name>
<sym>Dot</sym>
</trkpt>
<trkpt lat="47.799098" lon="15.712767">
<ele>650.5</ele>
<desc>Speed 57.4 km/h Distance 131 km</desc>
<time>2012-09-18T17:42:17.63</time>
<name>6548</name>
<sym>Dot</sym>
</trkpt>
<trkpt lat="47.799013" lon="15.712943">
<ele>650.0</ele>
<desc>Speed 58.4 km/h Distance 131 km</desc>
<time>2012-09-18T17:42:18.61</time>
<name>6549</name>
<sym>Dot</sym>
</trkpt>
<trkpt lat="47.798935" lon="15.713122">
<ele>650.0</ele>
<desc>Speed 57.8 km/h Distance 131 km</desc>
<time>2012-09-18T17:42:19.62</time>
<name>6550</name>
<sym>Dot</sym>
</trkpt>
<trkpt lat="47.798852" lon="15.713303">
<ele>650.0</ele>
<desc>Speed 59.0 km/h Distance 131 km</desc>
<time>2012-09-18T17:42:20.61</time>
<name>6551</name>
<sym>Dot</sym>
</trkpt>
<trkpt lat="47.798768" lon="15.713485">
<ele>650.5</ele>
<desc>Speed 59.0 km/h Distance 131 km</desc>
<time>2012-09-18T17:42:21.62</time>
<name>6552</name>
<sym>Dot</sym>
</trkpt>
<trkpt lat="47.798688" lon="15.713653">
<ele>651.5</ele>
<desc>Speed 55.9 km/h Distance 131 km</desc>
<time>2012-09-18T17:42:22.62</time>
<name>6553</name>
<sym>Dot</sym>
</trkpt>
<trkpt lat="47.798587" lon="15.713788">
<ele>651.0</ele>
<desc>Speed 54.8 km/h Distance 131 km</desc>
<time>2012-09-18T17:42:23.62</time>
<name>6554</name>
<sym>Dot</sym>
</trkpt>
<trkpt lat="47.798467" lon="15.713910">
<ele>651.5</ele>
<desc>Speed 58.0 km/h Distance 131 km</desc>
<time>2012-09-18T17:42:24.60</time>
<name>6555</name>
<sym>Dot</sym>
</trkpt>
<trkpt lat="47.798328" lon="15.714010">
<ele>652.5</ele>
<desc>Speed 61.5 km/h Distance 131 km</desc>
<time>2012-09-18T17:42:25.60</time>
<name>6556</name>
<sym>Dot</sym>
</trkpt>
<trkpt lat="47.798175" lon="15.714088">
<ele>652.0</ele>
<desc>Speed 65.2 km/h Distance 131 km</desc>
<time>2012-09-18T17:42:26.59</time>
<name>6557</name>
<sym>Dot</sym>
</trkpt>
<trkpt lat="47.798013" lon="15.714157">
<ele>652.0</ele>
<desc>Speed 67.6 km/h Distance 131 km</desc>
<time>2012-09-18T17:42:27.66</time>
<name>6558</name>
<sym>Dot</sym>
</trkpt>
<trkpt lat="47.797848" lon="15.714223">
<ele>652.0</ele>
<desc>Speed 68.3 km/h Distance 131 km</desc>
<time>2012-09-18T17:42:28.59</time>
<name>6559</name>
<sym>Dot</sym>
</trkpt>
<trkpt lat="47.797667" lon="15.714267">
<ele>652.5</ele>
<desc>Speed 73.7 km/h Distance 131 km</desc>
<time>2012-09-18T17:42:29.58</time>
<name>6560</name>
<sym>Dot</sym>
</trkpt>
<trkpt lat="47.797493" lon="15.714320">
<ele>652.5</ele>
<desc>Speed 71.5 km/h Distance 131 km</desc>
<time>2012-09-18T17:42:30.57</time>
<name>6561</name>
<sym>Dot</sym>
</trkpt>
<trkpt lat="47.797322" lon="15.714373">
<ele>653.0</ele>
<desc>Speed 70.8 km/h Distance 131 km</desc>
<time>2012-09-18T17:42:31.58</time>
<name>6562</name>
<sym>Dot</sym>
</trkpt>
<trkpt lat="47.797152" lon="15.714427">
<ele>653.0</ele>
<desc>Speed 70.2 km/h Distance 131 km</desc>
<time>2012-09-18T17:42:32.57</time>
<name>6563</name>
<sym>Dot</sym>
</trkpt>
<trkpt lat="47.796983" lon="15.714480">
<ele>653.0</ele>
<desc>Speed 69.8 km/h Distance 131 km</desc>
<time>2012-09-18T17:42:33.57</time>
<name>6564</name>
<sym>Dot</sym>
</trkpt>
<trkpt lat="47.796813" lon="15.714533">
<ele>652.0</ele>
<desc>Speed 70.1 km/h Distance 131 km</desc>
<time>2012-09-18T17:42:34.57</time>
<name>6565</name>
<sym>Dot</sym>
</trkpt>
<trkpt lat="47.796642" lon="15.714592">
<ele>652.0</ele>
<desc>Speed 70.7 km/h Distance 131 km</desc>
<time>2012-09-18T17:42:35.57</time>
<name>6566</name>
<sym>Dot</sym>
</trkpt>
<trkpt lat="47.796470" lon="15.714653">
<ele>651.0</ele>
<desc>Speed 70.9 km/h Distance 131 km</desc>
<time>2012-09-18T17:42:36.55</time>
<name>6567</name>
<sym>Dot</sym>
</trkpt>
<trkpt lat="47.796305" lon="15.714722">
<ele>650.5</ele>
<desc>Speed 69.4 km/h Distance 131 km</desc>
<time>2012-09-18T17:42:37.58</time>
<name>6568</name>
<sym>Dot</sym>
</trkpt>
<trkpt lat="47.796137" lon="15.714793">
<ele>651.0</ele>
<desc>Speed 70.3 km/h Distance 132 km</desc>
<time>2012-09-18T17:42:38.55</time>
<name>6569</name>
<sym>Dot</sym>
</trkpt>
<trkpt lat="47.795972" lon="15.714867">
<ele>650.5</ele>
<desc>Speed 70.1 km/h Distance 132 km</desc>
<time>2012-09-18T17:42:39.55</time>
<name>6570</name>
<sym>Dot</sym>
</trkpt>
<trkpt lat="47.795803" lon="15.714945">
<ele>650.5</ele>
<desc>Speed 70.5 km/h Distance 132 km</desc>
<time>2012-09-18T17:42:40.54</time>
<name>6571</name>
<sym>Dot</sym>
</trkpt>
<trkpt lat="47.795642" lon="15.715038">
<ele>650.0</ele>
<desc>Speed 70.1 km/h Distance 132 km</desc>
<time>2012-09-18T17:42:41.54</time>
<name>6572</name>
<sym>Dot</sym>
</trkpt>
<trkpt lat="47.795490" lon="15.715167">
<ele>650.0</ele>
<desc>Speed 70.6 km/h Distance 132 km</desc>
<time>2012-09-18T17:42:42.54</time>
<name>6573</name>
<sym>Dot</sym>
</trkpt>
<trkpt lat="47.795348" lon="15.715313">
<ele>651.5</ele>
<desc>Speed 69.3 km/h Distance 132 km</desc>
<time>2012-09-18T17:42:43.53</time>
<name>6574</name>
<sym>Dot</sym>
</trkpt>
<trkpt lat="47.795208" lon="15.715470">
<ele>651.5</ele>
<desc>Speed 70.5 km/h Distance 132 km</desc>
<time>2012-09-18T17:42:44.52</time>
<name>6575</name>
<sym>Dot</sym>
</trkpt>
<trkpt lat="47.795068" lon="15.715613">
<ele>651.5</ele>
<desc>Speed 68.5 km/h Distance 132 km</desc>
<time>2012-09-18T17:42:45.53</time>
<name>6576</name>
<sym>Dot</sym>
</trkpt>
<trkpt lat="47.794912" lon="15.715708">
<ele>651.5</ele>
<desc>Speed 68.0 km/h Distance 132 km</desc>
<time>2012-09-18T17:42:46.53</time>
<name>6577</name>
<sym>Dot</sym>
</trkpt>
<trkpt lat="47.794745" lon="15.715765">
<ele>651.5</ele>
<desc>Speed 68.4 km/h Distance 132 km</desc>
<time>2012-09-18T17:42:47.53</time>
<name>6578</name>
<sym>Dot</sym>
</trkpt>
<trkpt lat="47.794588" lon="15.715833">
<ele>651.5</ele>
<desc>Speed 65.4 km/h Distance 132 km</desc>
<time>2012-09-18T17:42:48.52</time>
<name>6579</name>
<sym>Dot</sym>
</trkpt>
<trkpt lat="47.794427" lon="15.715918">
<ele>651.5</ele>
<desc>Speed 69.0 km/h Distance 132 km</desc>
<time>2012-09-18T17:42:49.52</time>
<name>6580</name>
<sym>Dot</sym>
</trkpt>
<trkpt lat="47.794268" lon="15.716038">
<ele>651.5</ele>
<desc>Speed 71.1 km/h Distance 132 km</desc>
<time>2012-09-18T17:42:50.50</time>
<name>6581</name>
<sym>Dot</sym>
</trkpt>
<trkpt lat="47.794120" lon="15.716190">
<ele>651.0</ele>
<desc>Speed 72.5 km/h Distance 132 km</desc>
<time>2012-09-18T17:42:51.51</time>
<name>6582</name>
<sym>Dot</sym>
</trkpt>
<trkpt lat="47.793983" lon="15.716367">
<ele>651.5</ele>
<desc>Speed 72.8 km/h Distance 132 km</desc>
<time>2012-09-18T17:42:52.49</time>
<name>6583</name>
<sym>Dot</sym>
</trkpt>
<trkpt lat="47.793862" lon="15.716563">
<ele>651.5</ele>
<desc>Speed 72.0 km/h Distance 132 km</desc>
<time>2012-09-18T17:42:53.49</time>
<name>6584</name>
<sym>Dot</sym>
</trkpt>
<trkpt lat="47.793755" lon="15.716770">
<ele>651.0</ele>
<desc>Speed 70.2 km/h Distance 132 km</desc>
<time>2012-09-18T17:42:54.49</time>
<name>6585</name>
<sym>Dot</sym>
</trkpt>
<trkpt lat="47.793670" lon="15.716997">
<ele>651.0</ele>
<desc>Speed 69.9 km/h Distance 132 km</desc>
<time>2012-09-18T17:42:55.48</time>
<name>6586</name>
<sym>Dot</sym>
</trkpt>
<trkpt lat="47.793607" lon="15.717238">
<ele>651.0</ele>
<desc>Speed 70.1 km/h Distance 132 km</desc>
<time>2012-09-18T17:42:56.46</time>
<name>6587</name>
<sym>Dot</sym>
</trkpt>
<trkpt lat="47.793547" lon="15.717490">
<ele>651.0</ele>
<desc>Speed 71.5 km/h Distance 132 km</desc>
<time>2012-09-18T17:42:57.47</time>
<name>6588</name>
<sym>Dot</sym>
</trkpt>
<trkpt lat="47.793493" lon="15.717747">
<ele>651.0</ele>
<desc>Speed 72.2 km/h Distance 132 km</desc>
<time>2012-09-18T17:42:58.47</time>
<name>6589</name>
<sym>Dot</sym>
</trkpt>
<trkpt lat="47.793447" lon="15.718005">
<ele>650.5</ele>
<desc>Speed 71.2 km/h Distance 132 km</desc>
<time>2012-09-18T17:42:59.46</time>
<name>6590</name>
<sym>Dot</sym>
</trkpt>
<trkpt lat="47.793403" lon="15.718263">
<ele>650.0</ele>
<desc>Speed 70.9 km/h Distance 132 km</desc>
<time>2012-09-18T17:43:00.44</time>
<name>6591</name>
<sym>Dot</sym>
</trkpt>
<trkpt lat="47.793362" lon="15.718513">
<ele>650.0</ele>
<desc>Speed 69.7 km/h Distance 132 km</desc>
<time>2012-09-18T17:43:01.44</time>
<name>6592</name>
<sym>Dot</sym>
</trkpt>
<trkpt lat="47.793317" lon="15.718752">
<ele>650.0</ele>
<desc>Speed 66.7 km/h Distance 132 km</desc>
<time>2012-09-18T17:43:02.43</time>
<name>6593</name>
<sym>Dot</sym>
</trkpt>
<trkpt lat="47.793263" lon="15.718985">
<ele>650.0</ele>
<desc>Speed 66.4 km/h Distance 132 km</desc>
<time>2012-09-18T17:43:03.44</time>
<name>6594</name>
<sym>Dot</sym>
</trkpt>
<trkpt lat="47.793188" lon="15.719197">
<ele>649.5</ele>
<desc>Speed 64.5 km/h Distance 132 km</desc>
<time>2012-09-18T17:43:04.43</time>
<name>6595</name>
<sym>Dot</sym>
</trkpt>
<trkpt lat="47.793107" lon="15.719403">
<ele>649.5</ele>
<desc>Speed 64.6 km/h Distance 132 km</desc>
<time>2012-09-18T17:43:05.44</time>
<name>6596</name>
<sym>Dot</sym>
</trkpt>
<trkpt lat="47.793000" lon="15.719580">
<ele>649.5</ele>
<desc>Speed 64.0 km/h Distance 132 km</desc>
<time>2012-09-18T17:43:06.43</time>
<name>6597</name>
<sym>Dot</sym>
</trkpt>
<trkpt lat="47.792878" lon="15.719728">
<ele>649.5</ele>
<desc>Speed 63.6 km/h Distance 132 km</desc>
<time>2012-09-18T17:43:07.42</time>
<name>6598</name>
<sym>Dot</sym>
</trkpt>
<trkpt lat="47.792738" lon="15.719857">
<ele>649.5</ele>
<desc>Speed 66.1 km/h Distance 132 km</desc>
<time>2012-09-18T17:43:08.42</time>
<name>6599</name>
<sym>Dot</sym>
</trkpt>
<trkpt lat="47.792595" lon="15.719980">
<ele>649.5</ele>
<desc>Speed 66.9 km/h Distance 132 km</desc>
<time>2012-09-18T17:43:09.43</time>
<name>6600</name>
<sym>Dot</sym>
</trkpt>
<trkpt lat="47.792452" lon="15.720100">
<ele>649.5</ele>
<desc>Speed 66.2 km/h Distance 132 km</desc>
<time>2012-09-18T17:43:10.43</time>
<name>6601</name>
<sym>Dot</sym>
</trkpt>
<trkpt lat="47.792315" lon="15.720210">
<ele>649.5</ele>
<desc>Speed 62.6 km/h Distance 132 km</desc>
<time>2012-09-18T17:43:11.41</time>
<name>6602</name>
<sym>Dot</sym>
</trkpt>
<trkpt lat="47.792185" lon="15.720320">
<ele>649.5</ele>
<desc>Speed 60.2 km/h Distance 132 km</desc>
<time>2012-09-18T17:43:12.41</time>
<name>6603</name>
<sym>Dot</sym>
</trkpt>
<trkpt lat="47.792057" lon="15.720428">
<ele>649.5</ele>
<desc>Speed 59.1 km/h Distance 132 km</desc>
<time>2012-09-18T17:43:13.42</time>
<name>6604</name>
<sym>Dot</sym>
</trkpt>
<trkpt lat="47.791933" lon="15.720542">
<ele>649.5</ele>
<desc>Speed 58.0 km/h Distance 132 km</desc>
<time>2012-09-18T17:43:14.39</time>
<name>6605</name>
<sym>Dot</sym>
</trkpt>
<trkpt lat="47.791817" lon="15.720667">
<ele>649.0</ele>
<desc>Speed 57.6 km/h Distance 132 km</desc>
<time>2012-09-18T17:43:15.37</time>
<name>6606</name>
<sym>Dot</sym>
</trkpt>
<trkpt lat="47.791707" lon="15.720803">
<ele>649.0</ele>
<desc>Speed 57.6 km/h Distance 132 km</desc>
<time>2012-09-18T17:43:16.37</time>
<name>6607</name>
<sym>Dot</sym>
</trkpt>
<trkpt lat="47.791605" lon="15.720960">
<ele>649.0</ele>
<desc>Speed 59.1 km/h Distance 132 km</desc>
<time>2012-09-18T17:43:17.37</time>
<name>6608</name>
<sym>Dot</sym>
</trkpt>
<trkpt lat="47.791503" lon="15.721132">
<ele>648.5</ele>
<desc>Speed 61.5 km/h Distance 132 km</desc>
<time>2012-09-18T17:43:18.36</time>
<name>6609</name>
<sym>Dot</sym>
</trkpt>
<trkpt lat="47.791405" lon="15.721317">
<ele>648.5</ele>
<desc>Speed 63.9 km/h Distance 132 km</desc>
<time>2012-09-18T17:43:19.35</time>
<name>6610</name>
<sym>Dot</sym>
</trkpt>
<trkpt lat="47.791298" lon="15.721508">
<ele>648.5</ele>
<desc>Speed 66.9 km/h Distance 132 km</desc>
<time>2012-09-18T17:43:20.36</time>
<name>6611</name>
<sym>Dot</sym>
</trkpt>
<trkpt lat="47.791192" lon="15.721718">
<ele>648.5</ele>
<desc>Speed 70.6 km/h Distance 132 km</desc>
<time>2012-09-18T17:43:21.35</time>
<name>6612</name>
<sym>Dot</sym>
</trkpt>
<trkpt lat="47.791075" lon="15.721927">
<ele>648.5</ele>
<desc>Speed 73.7 km/h Distance 132 km</desc>
<time>2012-09-18T17:43:22.35</time>
<name>6613</name>
<sym>Dot</sym>
</trkpt>
<trkpt lat="47.790957" lon="15.722135">
<ele>648.0</ele>
<desc>Speed 73.6 km/h Distance 132 km</desc>
<time>2012-09-18T17:43:23.34</time>
<name>6614</name>
<sym>Dot</sym>
</trkpt>
<trkpt lat="47.790738" lon="15.722517">
<ele>648.0</ele>
<desc>Speed 66.1 km/h Distance 132 km</desc>
<time>2012-09-18T17:43:25.34</time>
<name>6615</name>
<sym>Dot</sym>
</trkpt>
<trkpt lat="47.790635" lon="15.722688">
<ele>648.0</ele>
<desc>Speed 62.3 km/h Distance 132 km</desc>
<time>2012-09-18T17:43:26.35</time>
<name>6616</name>
<sym>Dot</sym>
</trkpt>
<trkpt lat="47.790533" lon="15.722843">
<ele>648.0</ele>
<desc>Speed 58.9 km/h Distance 132 km</desc>
<time>2012-09-18T17:43:27.33</time>
<name>6617</name>
<sym>Dot</sym>
</trkpt>
<trkpt lat="47.790427" lon="15.722980">
<ele>648.0</ele>
<desc>Speed 57.0 km/h Distance 132 km</desc>
<time>2012-09-18T17:43:28.33</time>
<name>6618</name>
<sym>Dot</sym>
</trkpt>
<trkpt lat="47.790283" lon="15.723070">
<ele>648.0</ele>
<desc>Speed 63.0 km/h Distance 132 km</desc>
<time>2012-09-18T17:43:29.34</time>
<name>6619</name>
<sym>Dot</sym>
</trkpt>
<trkpt lat="47.789917" lon="15.723095">
<ele>648.0</ele>
<desc>Speed 66.5 km/h Distance 132 km</desc>
<time>2012-09-18T17:43:31.32</time>
<name>6620</name>
<sym>Dot</sym>
</trkpt>
<trkpt lat="47.789662" lon="15.723290">
<ele>648.0</ele>
<desc>Speed 56.3 km/h Distance 133 km</desc>
<time>2012-09-18T17:43:33.32</time>
<name>6621</name>
<sym>Dot</sym>
</trkpt>
<trkpt lat="47.789555" lon="15.723435">
<ele>648.0</ele>
<desc>Speed 58.3 km/h Distance 133 km</desc>
<time>2012-09-18T17:43:34.31</time>
<name>6622</name>
<sym>Dot</sym>
</trkpt>
<trkpt lat="47.789462" lon="15.723602">
<ele>648.0</ele>
<desc>Speed 58.7 km/h Distance 133 km</desc>
<time>2012-09-18T17:43:35.31</time>
<name>6623</name>
<sym>Dot</sym>
</trkpt>
<trkpt lat="47.789398" lon="15.723802">
<ele>648.0</ele>
<desc>Speed 59.1 km/h Distance 133 km</desc>
<time>2012-09-18T17:43:36.30</time>
<name>6624</name>
<sym>Dot</sym>
</trkpt>
<trkpt lat="47.789358" lon="15.724005">
<ele>648.0</ele>
<desc>Speed 56.3 km/h Distance 133 km</desc>
<time>2012-09-18T17:43:37.29</time>
<name>6625</name>
<sym>Dot</sym>
</trkpt>
<trkpt lat="47.789402" lon="15.724442">
<ele>647.5</ele>
<desc>Speed 58.6 km/h Distance 133 km</desc>
<time>2012-09-18T17:43:39.29</time>
<name>6626</name>
<sym>Dot</sym>
</trkpt>
<trkpt lat="47.789532" lon="15.725217">
<ele>646.5</ele>
<desc>Speed 69.4 km/h Distance 133 km</desc>
<time>2012-09-18T17:43:44.63</time>
<name>6627</name>
<sym>Dot</sym>
</trkpt>
<trkpt lat="47.789580" lon="15.725465">
<ele>646.5</ele>
<desc>Speed 68.4 km/h Distance 133 km</desc>
<time>2012-09-18T17:43:45.63</time>
<name>6628</name>
<sym>Dot</sym>
</trkpt>
<trkpt lat="47.789635" lon="15.725702">
<ele>646.5</ele>
<desc>Speed 67.6 km/h Distance 133 km</desc>
<time>2012-09-18T17:43:46.61</time>
<name>6629</name>
<sym>Dot</sym>
</trkpt>
<trkpt lat="47.789700" lon="15.725928">
<ele>646.5</ele>
<desc>Speed 66.5 km/h Distance 133 km</desc>
<time>2012-09-18T17:43:47.63</time>
<name>6630</name>
<sym>Dot</sym>
</trkpt>
<trkpt lat="47.789780" lon="15.726160">
<ele>646.5</ele>
<desc>Speed 70.3 km/h Distance 133 km</desc>
<time>2012-09-18T17:43:48.62</time>
<name>6631</name>
<sym>Dot</sym>
</trkpt>
<trkpt lat="47.789865" lon="15.726593">
<ele>646.0</ele>
<desc>Speed 61.5 km/h Distance 133 km</desc>
<time>2012-09-18T17:43:50.61</time>
<name>6632</name>
<sym>Dot</sym>
</trkpt>
<trkpt lat="47.789842" lon="15.726820">
<ele>646.0</ele>
<desc>Speed 62.5 km/h Distance 133 km</desc>
<time>2012-09-18T17:43:51.60</time>
<name>6633</name>
<sym>Dot</sym>
</trkpt>
<trkpt lat="47.789838" lon="15.727355">
<ele>646.0</ele>
<desc>Speed 67.9 km/h Distance 133 km</desc>
<time>2012-09-18T17:43:53.59</time>
<name>6634</name>
<sym>Dot</sym>
</trkpt>
<trkpt lat="47.789827" lon="15.727593">
<ele>646.0</ele>
<desc>Speed 64.4 km/h Distance 133 km</desc>
<time>2012-09-18T17:43:54.59</time>
<name>6635</name>
<sym>Dot</sym>
</trkpt>
<trkpt lat="47.789800" lon="15.727825">
<ele>646.0</ele>
<desc>Speed 63.1 km/h Distance 133 km</desc>
<time>2012-09-18T17:43:55.59</time>
<name>6636</name>
<sym>Dot</sym>
</trkpt>
<trkpt lat="47.789732" lon="15.728028">
<ele>646.0</ele>
<desc>Speed 61.2 km/h Distance 133 km</desc>
<time>2012-09-18T17:43:56.59</time>
<name>6637</name>
<sym>Dot</sym>
</trkpt>
<trkpt lat="47.789663" lon="15.728213">
<ele>646.0</ele>
<desc>Speed 57.1 km/h Distance 133 km</desc>
<time>2012-09-18T17:43:57.57</time>
<name>6638</name>
<sym>Dot</sym>
</trkpt>
<trkpt lat="47.789578" lon="15.728367">
<ele>646.0</ele>
<desc>Speed 53.2 km/h Distance 133 km</desc>
<time>2012-09-18T17:43:58.58</time>
<name>6639</name>
<sym>Dot</sym>
</trkpt>
<trkpt lat="47.789480" lon="15.728485">
<ele>646.0</ele>
<desc>Speed 50.9 km/h Distance 133 km</desc>
<time>2012-09-18T17:43:59.59</time>
<name>6640</name>
<sym>Dot</sym>
</trkpt>
<trkpt lat="47.789363" lon="15.728562">
<ele>646.0</ele>
<desc>Speed 51.1 km/h Distance 133 km</desc>
<time>2012-09-18T17:44:00.58</time>
<name>6641</name>
<sym>Dot</sym>
</trkpt>
<trkpt lat="47.789247" lon="15.728607">
<ele>646.0</ele>
<desc>Speed 48.7 km/h Distance 133 km</desc>
<time>2012-09-18T17:44:01.57</time>
<name>6642</name>
<sym>Dot</sym>
</trkpt>
<trkpt lat="47.789125" lon="15.728630">
<ele>646.0</ele>
<desc>Speed 50.3 km/h Distance 133 km</desc>
<time>2012-09-18T17:44:02.54</time>
<name>6643</name>
<sym>Dot</sym>
</trkpt>
<trkpt lat="47.788627" lon="15.728663">
<ele>646.0</ele>
<desc>Speed 64.3 km/h Distance 133 km</desc>
<time>2012-09-18T17:44:05.64</time>
<name>6644</name>
<sym>Dot</sym>
</trkpt>
<trkpt lat="47.788477" lon="15.728728">
<ele>646.0</ele>
<desc>Speed 63.9 km/h Distance 133 km</desc>
<time>2012-09-18T17:44:06.64</time>
<name>6645</name>
<sym>Dot</sym>
</trkpt>
<trkpt lat="47.788330" lon="15.728798">
<ele>646.0</ele>
<desc>Speed 62.6 km/h Distance 133 km</desc>
<time>2012-09-18T17:44:07.64</time>
<name>6646</name>
<sym>Dot</sym>
</trkpt>
<trkpt lat="47.788185" lon="15.728872">
<ele>646.0</ele>
<desc>Speed 61.2 km/h Distance 133 km</desc>
<time>2012-09-18T17:44:08.62</time>
<name>6647</name>
<sym>Dot</sym>
</trkpt>
<trkpt lat="47.788047" lon="15.728960">
<ele>646.0</ele>
<desc>Speed 60.6 km/h Distance 133 km</desc>
<time>2012-09-18T17:44:09.61</time>
<name>6648</name>
<sym>Dot</sym>
</trkpt>
<trkpt lat="47.787923" lon="15.729083">
<ele>646.0</ele>
<desc>Speed 59.4 km/h Distance 133 km</desc>
<time>2012-09-18T17:44:10.60</time>
<name>6649</name>
<sym>Dot</sym>
</trkpt>
<trkpt lat="47.787815" lon="15.729232">
<ele>646.0</ele>
<desc>Speed 59.4 km/h Distance 133 km</desc>
<time>2012-09-18T17:44:11.61</time>
<name>6650</name>
<sym>Dot</sym>
</trkpt>
<trkpt lat="47.787727" lon="15.729402">
<ele>646.0</ele>
<desc>Speed 58.9 km/h Distance 133 km</desc>
<time>2012-09-18T17:44:12.61</time>
<name>6651</name>
<sym>Dot</sym>
</trkpt>
<trkpt lat="47.787652" lon="15.729595">
<ele>646.0</ele>
<desc>Speed 61.0 km/h Distance 133 km</desc>
<time>2012-09-18T17:44:13.59</time>
<name>6652</name>
<sym>Dot</sym>
</trkpt>
<trkpt lat="47.787600" lon="15.729818">
<ele>646.0</ele>
<desc>Speed 64.3 km/h Distance 133 km</desc>
<time>2012-09-18T17:44:14.66</time>
<name>6653</name>
<sym>Dot</sym>
</trkpt>
<trkpt lat="47.787542" lon="15.730040">
<ele>646.0</ele>
<desc>Speed 65.2 km/h Distance 133 km</desc>
<time>2012-09-18T17:44:15.58</time>
<name>6654</name>
<sym>Dot</sym>
</trkpt>
<trkpt lat="47.787490" lon="15.730267">
<ele>646.0</ele>
<desc>Speed 65.8 km/h Distance 133 km</desc>
<time>2012-09-18T17:44:16.57</time>
<name>6655</name>
<sym>Dot</sym>
</trkpt>
<trkpt lat="47.787467" lon="15.730525">
<ele>646.0</ele>
<desc>Speed 70.7 km/h Distance 133 km</desc>
<time>2012-09-18T17:44:17.58</time>
<name>6656</name>
<sym>Dot</sym>
</trkpt>
<trkpt lat="47.787450" lon="15.730775">
<ele>646.0</ele>
<desc>Speed 67.3 km/h Distance 133 km</desc>
<time>2012-09-18T17:44:18.56</time>
<name>6657</name>
<sym>Dot</sym>
</trkpt>
<trkpt lat="47.787437" lon="15.731022">
<ele>646.0</ele>
<desc>Speed 65.5 km/h Distance 133 km</desc>
<time>2012-09-18T17:44:19.56</time>
<name>6658</name>
<sym>Dot</sym>
</trkpt>
<trkpt lat="47.787428" lon="15.731257">
<ele>646.0</ele>
<desc>Speed 61.7 km/h Distance 133 km</desc>
<time>2012-09-18T17:44:20.53</time>
<name>6659</name>
<sym>Dot</sym>
</trkpt>
<trkpt lat="47.787393" lon="15.731662">
<ele>646.0</ele>
<desc>Speed 50.5 km/h Distance 133 km</desc>
<time>2012-09-18T17:44:22.53</time>
<name>6660</name>
<sym>Dot</sym>
</trkpt>
<trkpt lat="47.787417" lon="15.731858">
<ele>646.0</ele>
<desc>Speed 53.3 km/h Distance 133 km</desc>
<time>2012-09-18T17:44:23.53</time>
<name>6661</name>
<sym>Dot</sym>
</trkpt>
<trkpt lat="47.787470" lon="15.732047">
<ele>646.0</ele>
<desc>Speed 53.8 km/h Distance 133 km</desc>
<time>2012-09-18T17:44:24.52</time>
<name>6662</name>
<sym>Dot</sym>
</trkpt>
<trkpt lat="47.787543" lon="15.732235">
<ele>646.0</ele>
<desc>Speed 56.8 km/h Distance 133 km</desc>
<time>2012-09-18T17:44:25.52</time>
<name>6663</name>
<sym>Dot</sym>
</trkpt>
<trkpt lat="47.787622" lon="15.732413">
<ele>646.0</ele>
<desc>Speed 55.3 km/h Distance 133 km</desc>
<time>2012-09-18T17:44:26.52</time>
<name>6664</name>
<sym>Dot</sym>
</trkpt>
<trkpt lat="47.787757" lon="15.732757">
<ele>646.0</ele>
<desc>Speed 51.2 km/h Distance 133 km</desc>
<time>2012-09-18T17:44:28.51</time>
<name>6665</name>
<sym>Dot</sym>
</trkpt>
<trkpt lat="47.787812" lon="15.732915">
<ele>646.0</ele>
<desc>Speed 47.2 km/h Distance 133 km</desc>
<time>2012-09-18T17:44:29.50</time>
<name>6666</name>
<sym>Dot</sym>
</trkpt>
<trkpt lat="47.787828" lon="15.733188">
<ele>646.0</ele>
<desc>Speed 37.9 km/h Distance 133 km</desc>
<time>2012-09-18T17:44:31.49</time>
<name>6667</name>
<sym>Dot</sym>
</trkpt>
<trkpt lat="47.787803" lon="15.733313">
<ele>646.0</ele>
<desc>Speed 35.4 km/h Distance 133 km</desc>
<time>2012-09-18T17:44:32.49</time>
<name>6668</name>
<sym>Dot</sym>
</trkpt>
<trkpt lat="47.787757" lon="15.733407">
<ele>646.0</ele>
<desc>Speed 31.9 km/h Distance 133 km</desc>
<time>2012-09-18T17:44:33.49</time>
<name>6669</name>
<sym>Dot</sym>
</trkpt>
<trkpt lat="47.787688" lon="15.733467">
<ele>646.0</ele>
<desc>Speed 32.5 km/h Distance 133 km</desc>
<time>2012-09-18T17:44:34.49</time>
<name>6670</name>
<sym>Dot</sym>
</trkpt>
<trkpt lat="47.787633" lon="15.733515">
<ele>646.0</ele>
<desc>Speed 32.5 km/h Distance 133 km</desc>
<time>2012-09-18T17:44:35.49</time>
<name>6671</name>
<sym>Dot</sym>
</trkpt>
<trkpt lat="47.786898" lon="15.733388">
<ele>646.0</ele>
<desc>Speed 62.2 km/h Distance 134 km</desc>
<time>2012-09-18T17:44:40.63</time>
<name>6672</name>
<sym>Dot</sym>
</trkpt>
<trkpt lat="47.786575" lon="15.733123">
<ele>646.0</ele>
<desc>Speed 67.0 km/h Distance 134 km</desc>
<time>2012-09-18T17:44:42.62</time>
<name>6673</name>
<sym>Dot</sym>
</trkpt>
<trkpt lat="47.786425" lon="15.732990">
<ele>645.0</ele>
<desc>Speed 64.7 km/h Distance 134 km</desc>
<time>2012-09-18T17:44:43.61</time>
<name>6674</name>
<sym>Dot</sym>
</trkpt>
<trkpt lat="47.786292" lon="15.732860">
<ele>644.5</ele>
<desc>Speed 61.1 km/h Distance 134 km</desc>
<time>2012-09-18T17:44:44.61</time>
<name>6675</name>
<sym>Dot</sym>
</trkpt>
<trkpt lat="47.786170" lon="15.732732">
<ele>644.5</ele>
<desc>Speed 58.3 km/h Distance 134 km</desc>
<time>2012-09-18T17:44:45.60</time>
<name>6676</name>
<sym>Dot</sym>
</trkpt>
<trkpt lat="47.785930" lon="15.732590">
<ele>644.5</ele>
<desc>Speed 54.2 km/h Distance 134 km</desc>
<time>2012-09-18T17:44:47.58</time>
<name>6677</name>
<sym>Dot</sym>
</trkpt>
<trkpt lat="47.785780" lon="15.732560">
<ele>644.5</ele>
<desc>Speed 59.4 km/h Distance 134 km</desc>
<time>2012-09-18T17:44:48.60</time>
<name>6678</name>
<sym>Dot</sym>
</trkpt>
<trkpt lat="47.785523" lon="15.732628">
<ele>644.5</ele>
<desc>Speed 55.8 km/h Distance 134 km</desc>
<time>2012-09-18T17:44:50.61</time>
<name>6679</name>
<sym>Dot</sym>
</trkpt>
<trkpt lat="47.785415" lon="15.732727">
<ele>644.5</ele>
<desc>Speed 50.7 km/h Distance 134 km</desc>
<time>2012-09-18T17:44:51.61</time>
<name>6680</name>
<sym>Dot</sym>
</trkpt>
<trkpt lat="47.785317" lon="15.732867">
<ele>644.5</ele>
<desc>Speed 54.1 km/h Distance 134 km</desc>
<time>2012-09-18T17:44:52.57</time>
<name>6681</name>
<sym>Dot</sym>
</trkpt>
<trkpt lat="47.785215" lon="15.733032">
<ele>644.5</ele>
<desc>Speed 60.6 km/h Distance 134 km</desc>
<time>2012-09-18T17:44:53.57</time>
<name>6682</name>
<sym>Dot</sym>
</trkpt>
<trkpt lat="47.785107" lon="15.733207">
<ele>644.5</ele>
<desc>Speed 64.0 km/h Distance 134 km</desc>
<time>2012-09-18T17:44:54.56</time>
<name>6683</name>
<sym>Dot</sym>
</trkpt>
<trkpt lat="47.785002" lon="15.733388">
<ele>644.5</ele>
<desc>Speed 64.3 km/h Distance 134 km</desc>
<time>2012-09-18T17:44:55.56</time>
<name>6684</name>
<sym>Dot</sym>
</trkpt>
<trkpt lat="47.784893" lon="15.733583">
<ele>644.5</ele>
<desc>Speed 68.3 km/h Distance 134 km</desc>
<time>2012-09-18T17:44:56.56</time>
<name>6685</name>
<sym>Dot</sym>
</trkpt>
<trkpt lat="47.784777" lon="15.733790">
<ele>644.5</ele>
<desc>Speed 72.4 km/h Distance 134 km</desc>
<time>2012-09-18T17:44:57.55</time>
<name>6686</name>
<sym>Dot</sym>
</trkpt>
<trkpt lat="47.784532" lon="15.734180">
<ele>645.5</ele>
<desc>Speed 70.4 km/h Distance 134 km</desc>
<time>2012-09-18T17:44:59.55</time>
<name>6687</name>
<sym>Dot</sym>
</trkpt>
<trkpt lat="47.784420" lon="15.734347">
<ele>645.5</ele>
<desc>Speed 64.2 km/h Distance 134 km</desc>
<time>2012-09-18T17:45:00.55</time>
<name>6688</name>
<sym>Dot</sym>
</trkpt>
<trkpt lat="47.784163" lon="15.734745">
<ele>647.5</ele>
<desc>Speed 46.7 km/h Distance 134 km</desc>
<time>2012-09-18T17:45:03.61</time>
<name>6689</name>
<sym>Dot</sym>
</trkpt>
<trkpt lat="47.784090" lon="15.734857">
<ele>648.5</ele>
<desc>Speed 42.9 km/h Distance 134 km</desc>
<time>2012-09-18T17:45:04.60</time>
<name>6690</name>
<sym>Dot</sym>
</trkpt>
<trkpt lat="47.784020" lon="15.734955">
<ele>649.5</ele>
<desc>Speed 39.4 km/h Distance 134 km</desc>
<time>2012-09-18T17:45:05.60</time>
<name>6691</name>
<sym>Dot</sym>
</trkpt>
<trkpt lat="47.783952" lon="15.735037">
<ele>649.5</ele>
<desc>Speed 35.8 km/h Distance 134 km</desc>
<time>2012-09-18T17:45:06.59</time>
<name>6692</name>
<sym>Dot</sym>
</trkpt>
<trkpt lat="47.783877" lon="15.735085">
<ele>650.0</ele>
<desc>Speed 33.9 km/h Distance 134 km</desc>
<time>2012-09-18T17:45:07.60</time>
<name>6693</name>
<sym>Dot</sym>
</trkpt>
<trkpt lat="47.783797" lon="15.735143">
<ele>652.0</ele>
<desc>Speed 35.9 km/h Distance 134 km</desc>
<time>2012-09-18T17:45:08.58</time>
<name>6694</name>
<sym>Dot</sym>
</trkpt>
<trkpt lat="47.783702" lon="15.735185">
<ele>652.0</ele>
<desc>Speed 39.8 km/h Distance 134 km</desc>
<time>2012-09-18T17:45:09.57</time>
<name>6695</name>
<sym>Dot</sym>
</trkpt>
<trkpt lat="47.783617" lon="15.735223">
<ele>652.0</ele>
<desc>Speed 36.2 km/h Distance 134 km</desc>
<time>2012-09-18T17:45:10.57</time>
<name>6696</name>
<sym>Dot</sym>
</trkpt>
<trkpt lat="47.783522" lon="15.735253">
<ele>651.5</ele>
<desc>Speed 39.1 km/h Distance 134 km</desc>
<time>2012-09-18T17:45:11.57</time>
<name>6697</name>
<sym>Dot</sym>
</trkpt>
<trkpt lat="47.783133" lon="15.735202">
<ele>651.0</ele>
<desc>Speed 55.2 km/h Distance 134 km</desc>
<time>2012-09-18T17:45:14.61</time>
<name>6698</name>
<sym>Dot</sym>
</trkpt>
<trkpt lat="47.783002" lon="15.735183">
<ele>650.5</ele>
<desc>Speed 53.2 km/h Distance 134 km</desc>
<time>2012-09-18T17:45:15.61</time>
<name>6699</name>
<sym>Dot</sym>
</trkpt>
<trkpt lat="47.782768" lon="15.735192">
<ele>650.5</ele>
<desc>Speed 50.6 km/h Distance 134 km</desc>
<time>2012-09-18T17:45:17.61</time>
<name>6700</name>
<sym>Dot</sym>
</trkpt>
<trkpt lat="47.782637" lon="15.735190">
<ele>649.0</ele>
<desc>Speed 52.7 km/h Distance 134 km</desc>
<time>2012-09-18T17:45:18.62</time>
<name>6701</name>
<sym>Dot</sym>
</trkpt>
<trkpt lat="47.782508" lon="15.735188">
<ele>649.5</ele>
<desc>Speed 50.0 km/h Distance 134 km</desc>
<time>2012-09-18T17:45:19.60</time>
<name>6702</name>
<sym>Dot</sym>
</trkpt>
<trkpt lat="47.782238" lon="15.735103">
<ele>641.5</ele>
<desc>Speed 50.7 km/h Distance 134 km</desc>
<time>2012-09-18T17:45:21.59</time>
<name>6703</name>
<sym>Dot</sym>
</trkpt>
<trkpt lat="47.782115" lon="15.735018">
<ele>640.0</ele>
<desc>Speed 52.5 km/h Distance 134 km</desc>
<time>2012-09-18T17:45:22.58</time>
<name>6704</name>
<sym>Dot</sym>
</trkpt>
<trkpt lat="47.782012" lon="15.734885">
<ele>638.0</ele>
<desc>Speed 53.0 km/h Distance 134 km</desc>
<time>2012-09-18T17:45:23.57</time>
<name>6705</name>
<sym>Dot</sym>
</trkpt>
<trkpt lat="47.781352" lon="15.733850">
<ele>636.5</ele>
<desc>Speed 77.6 km/h Distance 134 km</desc>
<time>2012-09-18T17:45:28.61</time>
<name>6706</name>
<sym>Dot</sym>
</trkpt>
<trkpt lat="47.781207" lon="15.733668">
<ele>634.5</ele>
<desc>Speed 76.9 km/h Distance 134 km</desc>
<time>2012-09-18T17:45:29.61</time>
<name>6707</name>
<sym>Dot</sym>
</trkpt>
<trkpt lat="47.781063" lon="15.733512">
<ele>634.0</ele>
<desc>Speed 72.7 km/h Distance 134 km</desc>
<time>2012-09-18T17:45:30.61</time>
<name>6708</name>
<sym>Dot</sym>
</trkpt>
<trkpt lat="47.780910" lon="15.733375">
<ele>633.0</ele>
<desc>Speed 72.6 km/h Distance 134 km</desc>
<time>2012-09-18T17:45:31.60</time>
<name>6709</name>
<sym>Dot</sym>
</trkpt>
<trkpt lat="47.780747" lon="15.733255">
<ele>633.0</ele>
<desc>Speed 73.6 km/h Distance 134 km</desc>
<time>2012-09-18T17:45:32.60</time>
<name>6710</name>
<sym>Dot</sym>
</trkpt>
<trkpt lat="47.780582" lon="15.733140">
<ele>633.5</ele>
<desc>Speed 74.0 km/h Distance 134 km</desc>
<time>2012-09-18T17:45:33.59</time>
<name>6711</name>
<sym>Dot</sym>
</trkpt>
<trkpt lat="47.780418" lon="15.733017">
<ele>633.0</ele>
<desc>Speed 73.9 km/h Distance 134 km</desc>
<time>2012-09-18T17:45:34.60</time>
<name>6712</name>
<sym>Dot</sym>
</trkpt>
<trkpt lat="47.780257" lon="15.732882">
<ele>633.5</ele>
<desc>Speed 74.1 km/h Distance 134 km</desc>
<time>2012-09-18T17:45:35.59</time>
<name>6713</name>
<sym>Dot</sym>
</trkpt>
<trkpt lat="47.780102" lon="15.732732">
<ele>633.5</ele>
<desc>Speed 74.7 km/h Distance 134 km</desc>
<time>2012-09-18T17:45:36.60</time>
<name>6714</name>
<sym>Dot</sym>
</trkpt>
<trkpt lat="47.779948" lon="15.732577">
<ele>633.5</ele>
<desc>Speed 73.9 km/h Distance 135 km</desc>
<time>2012-09-18T17:45:37.60</time>
<name>6715</name>
<sym>Dot</sym>
</trkpt>
<trkpt lat="47.779798" lon="15.732425">
<ele>633.5</ele>
<desc>Speed 73.2 km/h Distance 135 km</desc>
<time>2012-09-18T17:45:38.58</time>
<name>6716</name>
<sym>Dot</sym>
</trkpt>
<trkpt lat="47.779648" lon="15.732275">
<ele>633.0</ele>
<desc>Speed 73.1 km/h Distance 135 km</desc>
<time>2012-09-18T17:45:39.57</time>
<name>6717</name>
<sym>Dot</sym>
</trkpt>
<trkpt lat="47.779497" lon="15.732125">
<ele>632.0</ele>
<desc>Speed 73.0 km/h Distance 135 km</desc>
<time>2012-09-18T17:45:40.57</time>
<name>6718</name>
<sym>Dot</sym>
</trkpt>
<trkpt lat="47.779343" lon="15.731990">
<ele>632.0</ele>
<desc>Speed 72.1 km/h Distance 135 km</desc>
<time>2012-09-18T17:45:41.56</time>
<name>6719</name>
<sym>Dot</sym>
</trkpt>
<trkpt lat="47.779180" lon="15.731885">
<ele>632.0</ele>
<desc>Speed 72.2 km/h Distance 135 km</desc>
<time>2012-09-18T17:45:42.56</time>
<name>6720</name>
<sym>Dot</sym>
</trkpt>
<trkpt lat="47.778998" lon="15.731825">
<ele>632.0</ele>
<desc>Speed 75.1 km/h Distance 135 km</desc>
<time>2012-09-18T17:45:43.55</time>
<name>6721</name>
<sym>Dot</sym>
</trkpt>
<trkpt lat="47.778813" lon="15.731772">
<ele>632.5</ele>
<desc>Speed 75.3 km/h Distance 135 km</desc>
<time>2012-09-18T17:45:44.55</time>
<name>6722</name>
<sym>Dot</sym>
</trkpt>
<trkpt lat="47.778635" lon="15.731717">
<ele>632.5</ele>
<desc>Speed 72.8 km/h Distance 135 km</desc>
<time>2012-09-18T17:45:45.54</time>
<name>6723</name>
<sym>Dot</sym>
</trkpt>
<trkpt lat="47.778460" lon="15.731668">
<ele>632.5</ele>
<desc>Speed 71.2 km/h Distance 135 km</desc>
<time>2012-09-18T17:45:46.54</time>
<name>6724</name>
<sym>Dot</sym>
</trkpt>
<trkpt lat="47.778302" lon="15.731613">
<ele>632.5</ele>
<desc>Speed 65.8 km/h Distance 135 km</desc>
<time>2012-09-18T17:45:47.54</time>
<name>6725</name>
<sym>Dot</sym>
</trkpt>
<trkpt lat="47.778150" lon="15.731553">
<ele>632.5</ele>
<desc>Speed 62.5 km/h Distance 135 km</desc>
<time>2012-09-18T17:45:48.53</time>
<name>6726</name>
<sym>Dot</sym>
</trkpt>
<trkpt lat="47.778003" lon="15.731505">
<ele>632.5</ele>
<desc>Speed 60.4 km/h Distance 135 km</desc>
<time>2012-09-18T17:45:49.53</time>
<name>6727</name>
<sym>Dot</sym>
</trkpt>
<trkpt lat="47.777867" lon="15.731500">
<ele>632.5</ele>
<desc>Speed 54.7 km/h Distance 135 km</desc>
<time>2012-09-18T17:45:50.54</time>
<name>6728</name>
<sym>Dot</sym>
</trkpt>
<trkpt lat="47.777558" lon="15.731658">
<ele>632.0</ele>
<desc>Speed 60.3 km/h Distance 135 km</desc>
<time>2012-09-18T17:45:52.52</time>
<name>6729</name>
<sym>Dot</sym>
</trkpt>
<trkpt lat="47.777443" lon="15.731790">
<ele>632.0</ele>
<desc>Speed 59.8 km/h Distance 135 km</desc>
<time>2012-09-18T17:45:53.52</time>
<name>6730</name>
<sym>Dot</sym>
</trkpt>
<trkpt lat="47.777135" lon="15.732040">
<ele>631.5</ele>
<desc>Speed 72.7 km/h Distance 135 km</desc>
<time>2012-09-18T17:45:55.51</time>
<name>6731</name>
<sym>Dot</sym>
</trkpt>
<trkpt lat="47.776990" lon="15.732167">
<ele>631.5</ele>
<desc>Speed 68.0 km/h Distance 135 km</desc>
<time>2012-09-18T17:45:56.51</time>
<name>6732</name>
<sym>Dot</sym>
</trkpt>
<trkpt lat="47.776848" lon="15.732287">
<ele>631.5</ele>
<desc>Speed 66.1 km/h Distance 135 km</desc>
<time>2012-09-18T17:45:57.51</time>
<name>6733</name>
<sym>Dot</sym>
</trkpt>
<trkpt lat="47.776710" lon="15.732400">
<ele>631.5</ele>
<desc>Speed 64.1 km/h Distance 135 km</desc>
<time>2012-09-18T17:45:58.50</time>
<name>6734</name>
<sym>Dot</sym>
</trkpt>
<trkpt lat="47.776572" lon="15.732502">
<ele>631.5</ele>
<desc>Speed 62.9 km/h Distance 135 km</desc>
<time>2012-09-18T17:45:59.50</time>
<name>6735</name>
<sym>Dot</sym>
</trkpt>
<trkpt lat="47.776428" lon="15.732585">
<ele>632.0</ele>
<desc>Speed 63.6 km/h Distance 135 km</desc>
<time>2012-09-18T17:46:00.50</time>
<name>6736</name>
<sym>Dot</sym>
</trkpt>
<trkpt lat="47.776265" lon="15.732630">
<ele>632.0</ele>
<desc>Speed 67.3 km/h Distance 135 km</desc>
<time>2012-09-18T17:46:01.49</time>
<name>6737</name>
<sym>Dot</sym>
</trkpt>
<trkpt lat="47.776087" lon="15.732637">
<ele>632.0</ele>
<desc>Speed 71.6 km/h Distance 135 km</desc>
<time>2012-09-18T17:46:02.49</time>
<name>6738</name>
<sym>Dot</sym>
</trkpt>
<trkpt lat="47.775907" lon="15.732610">
<ele>632.0</ele>
<desc>Speed 73.4 km/h Distance 135 km</desc>
<time>2012-09-18T17:46:03.48</time>
<name>6739</name>
<sym>Dot</sym>
</trkpt>
<trkpt lat="47.775730" lon="15.732537">
<ele>634.0</ele>
<desc>Speed 72.4 km/h Distance 135 km</desc>
<time>2012-09-18T17:46:04.48</time>
<name>6740</name>
<sym>Dot</sym>
</trkpt>
<trkpt lat="47.775552" lon="15.732445">
<ele>634.0</ele>
<desc>Speed 75.8 km/h Distance 135 km</desc>
<time>2012-09-18T17:46:05.48</time>
<name>6741</name>
<sym>Dot</sym>
</trkpt>
<trkpt lat="47.775372" lon="15.732333">
<ele>634.0</ele>
<desc>Speed 78.6 km/h Distance 135 km</desc>
<time>2012-09-18T17:46:06.48</time>
<name>6742</name>
<sym>Dot</sym>
</trkpt>
<trkpt lat="47.775197" lon="15.732207">
<ele>633.5</ele>
<desc>Speed 78.2 km/h Distance 135 km</desc>
<time>2012-09-18T17:46:07.47</time>
<name>6743</name>
<sym>Dot</sym>
</trkpt>
<trkpt lat="47.775030" lon="15.732078">
<ele>633.0</ele>
<desc>Speed 75.5 km/h Distance 135 km</desc>
<time>2012-09-18T17:46:08.47</time>
<name>6744</name>
<sym>Dot</sym>
</trkpt>
<trkpt lat="47.774890" lon="15.731925">
<ele>633.0</ele>
<desc>Speed 69.6 km/h Distance 135 km</desc>
<time>2012-09-18T17:46:09.46</time>
<name>6745</name>
<sym>Dot</sym>
</trkpt>
<trkpt lat="47.774743" lon="15.731783">
<ele>633.0</ele>
<desc>Speed 70.0 km/h Distance 135 km</desc>
<time>2012-09-18T17:46:10.45</time>
<name>6746</name>
<sym>Dot</sym>
</trkpt>
<trkpt lat="47.774605" lon="15.731635">
<ele>633.0</ele>
<desc>Speed 68.3 km/h Distance 135 km</desc>
<time>2012-09-18T17:46:11.45</time>
<name>6747</name>
<sym>Dot</sym>
</trkpt>
<trkpt lat="47.774477" lon="15.731488">
<ele>633.0</ele>
<desc>Speed 64.6 km/h Distance 135 km</desc>
<time>2012-09-18T17:46:12.45</time>
<name>6748</name>
<sym>Dot</sym>
</trkpt>
<trkpt lat="47.774365" lon="15.731327">
<ele>632.0</ele>
<desc>Speed 62.7 km/h Distance 135 km</desc>
<time>2012-09-18T17:46:13.45</time>
<name>6749</name>
<sym>Dot</sym>
</trkpt>
<trkpt lat="47.774290" lon="15.731118">
<ele>634.0</ele>
<desc>Speed 63.2 km/h Distance 135 km</desc>
<time>2012-09-18T17:46:14.43</time>
<name>6750</name>
<sym>Dot</sym>
</trkpt>
<trkpt lat="47.774223" lon="15.730893">
<ele>634.0</ele>
<desc>Speed 66.6 km/h Distance 135 km</desc>
<time>2012-09-18T17:46:15.43</time>
<name>6751</name>
<sym>Dot</sym>
</trkpt>
<trkpt lat="47.774157" lon="15.730667">
<ele>633.5</ele>
<desc>Speed 66.5 km/h Distance 135 km</desc>
<time>2012-09-18T17:46:16.42</time>
<name>6752</name>
<sym>Dot</sym>
</trkpt>
<trkpt lat="47.774088" lon="15.730435">
<ele>633.5</ele>
<desc>Speed 67.4 km/h Distance 135 km</desc>
<time>2012-09-18T17:46:17.42</time>
<name>6753</name>
<sym>Dot</sym>
</trkpt>
<trkpt lat="47.774022" lon="15.730217">
<ele>632.5</ele>
<desc>Speed 64.2 km/h Distance 135 km</desc>
<time>2012-09-18T17:46:18.41</time>
<name>6754</name>
<sym>Dot</sym>
</trkpt>
<trkpt lat="47.773957" lon="15.730023">
<ele>632.5</ele>
<desc>Speed 58.2 km/h Distance 135 km</desc>
<time>2012-09-18T17:46:19.42</time>
<name>6755</name>
<sym>Dot</sym>
</trkpt>
<trkpt lat="47.773858" lon="15.729885">
<ele>633.0</ele>
<desc>Speed 54.4 km/h Distance 135 km</desc>
<time>2012-09-18T17:46:20.41</time>
<name>6756</name>
<sym>Dot</sym>
</trkpt>
<trkpt lat="47.773763" lon="15.729777">
<ele>633.0</ele>
<desc>Speed 48.3 km/h Distance 135 km</desc>
<time>2012-09-18T17:46:21.40</time>
<name>6757</name>
<sym>Dot</sym>
</trkpt>
<trkpt lat="47.773580" lon="15.729672">
<ele>632.5</ele>
<desc>Speed 38.3 km/h Distance 135 km</desc>
<time>2012-09-18T17:46:23.39</time>
<name>6758</name>
<sym>Dot</sym>
</trkpt>
<trkpt lat="47.773477" lon="15.729712">
<ele>632.5</ele>
<desc>Speed 43.3 km/h Distance 135 km</desc>
<time>2012-09-18T17:46:24.39</time>
<name>6759</name>
<sym>Dot</sym>
</trkpt>
<trkpt lat="47.773372" lon="15.729772">
<ele>632.5</ele>
<desc>Speed 45.6 km/h Distance 135 km</desc>
<time>2012-09-18T17:46:25.38</time>
<name>6760</name>
<sym>Dot</sym>
</trkpt>
<trkpt lat="47.773223" lon="15.729995">
<ele>632.0</ele>
<desc>Speed 51.8 km/h Distance 135 km</desc>
<time>2012-09-18T17:46:27.37</time>
<name>6761</name>
<sym>Dot</sym>
</trkpt>
<trkpt lat="47.772988" lon="15.730675">
<ele>631.5</ele>
<desc>Speed 67.2 km/h Distance 135 km</desc>
<time>2012-09-18T17:46:30.60</time>
<name>6762</name>
<sym>Dot</sym>
</trkpt>
<trkpt lat="47.772855" lon="15.731182">
<ele>632.5</ele>
<desc>Speed 69.6 km/h Distance 135 km</desc>
<time>2012-09-18T17:46:32.60</time>
<name>6763</name>
<sym>Dot</sym>
</trkpt>
<trkpt lat="47.772793" lon="15.731415">
<ele>632.5</ele>
<desc>Speed 64.8 km/h Distance 136 km</desc>
<time>2012-09-18T17:46:33.59</time>
<name>6764</name>
<sym>Dot</sym>
</trkpt>
<trkpt lat="47.772740" lon="15.731625">
<ele>633.0</ele>
<desc>Speed 60.1 km/h Distance 136 km</desc>
<time>2012-09-18T17:46:34.59</time>
<name>6765</name>
<sym>Dot</sym>
</trkpt>
<trkpt lat="47.772682" lon="15.731827">
<ele>633.5</ele>
<desc>Speed 56.9 km/h Distance 136 km</desc>
<time>2012-09-18T17:46:35.59</time>
<name>6766</name>
<sym>Dot</sym>
</trkpt>
<trkpt lat="47.772590" lon="15.732015">
<ele>634.5</ele>
<desc>Speed 59.4 km/h Distance 136 km</desc>
<time>2012-09-18T17:46:36.57</time>
<name>6767</name>
<sym>Dot</sym>
</trkpt>
<trkpt lat="47.772372" lon="15.732428">
<ele>636.5</ele>
<desc>Speed 69.1 km/h Distance 136 km</desc>
<time>2012-09-18T17:46:38.57</time>
<name>6768</name>
<sym>Dot</sym>
</trkpt>
<trkpt lat="47.772253" lon="15.732635">
<ele>636.0</ele>
<desc>Speed 71.7 km/h Distance 136 km</desc>
<time>2012-09-18T17:46:39.56</time>
<name>6769</name>
<sym>Dot</sym>
</trkpt>
<trkpt lat="47.772145" lon="15.732837">
<ele>638.0</ele>
<desc>Speed 68.3 km/h Distance 136 km</desc>
<time>2012-09-18T17:46:40.55</time>
<name>6770</name>
<sym>Dot</sym>
</trkpt>
<trkpt lat="47.772040" lon="15.733022">
<ele>639.5</ele>
<desc>Speed 63.5 km/h Distance 136 km</desc>
<time>2012-09-18T17:46:41.55</time>
<name>6771</name>
<sym>Dot</sym>
</trkpt>
<trkpt lat="47.771930" lon="15.733198">
<ele>640.5</ele>
<desc>Speed 63.7 km/h Distance 136 km</desc>
<time>2012-09-18T17:46:42.55</time>
<name>6772</name>
<sym>Dot</sym>
</trkpt>
<trkpt lat="47.771788" lon="15.733350">
<ele>641.0</ele>
<desc>Speed 68.9 km/h Distance 136 km</desc>
<time>2012-09-18T17:46:43.55</time>
<name>6773</name>
<sym>Dot</sym>
</trkpt>
<trkpt lat="47.771653" lon="15.733498">
<ele>641.0</ele>
<desc>Speed 66.2 km/h Distance 136 km</desc>
<time>2012-09-18T17:46:44.54</time>
<name>6774</name>
<sym>Dot</sym>
</trkpt>
<trkpt lat="47.771512" lon="15.733600">
<ele>641.0</ele>
<desc>Speed 63.0 km/h Distance 136 km</desc>
<time>2012-09-18T17:46:45.53</time>
<name>6775</name>
<sym>Dot</sym>
</trkpt>
<trkpt lat="47.771365" lon="15.733667">
<ele>641.0</ele>
<desc>Speed 61.3 km/h Distance 136 km</desc>
<time>2012-09-18T17:46:46.52</time>
<name>6776</name>
<sym>Dot</sym>
</trkpt>
<trkpt lat="47.771202" lon="15.733700">
<ele>640.5</ele>
<desc>Speed 66.3 km/h Distance 136 km</desc>
<time>2012-09-18T17:46:47.52</time>
<name>6777</name>
<sym>Dot</sym>
</trkpt>
<trkpt lat="47.770612" lon="15.733745">
<ele>640.5</ele>
<desc>Speed 79.9 km/h Distance 136 km</desc>
<time>2012-09-18T17:46:50.61</time>
<name>6778</name>
<sym>Dot</sym>
</trkpt>
<trkpt lat="47.770407" lon="15.733775">
<ele>641.5</ele>
<desc>Speed 82.1 km/h Distance 136 km</desc>
<time>2012-09-18T17:46:51.61</time>
<name>6779</name>
<sym>Dot</sym>
</trkpt>
<trkpt lat="47.770205" lon="15.733802">
<ele>641.0</ele>
<desc>Speed 80.8 km/h Distance 136 km</desc>
<time>2012-09-18T17:46:52.60</time>
<name>6780</name>
<sym>Dot</sym>
</trkpt>
<trkpt lat="47.770018" lon="15.733837">
<ele>642.0</ele>
<desc>Speed 74.3 km/h Distance 136 km</desc>
<time>2012-09-18T17:46:53.59</time>
<name>6781</name>
<sym>Dot</sym>
</trkpt>
<trkpt lat="47.769852" lon="15.733870">
<ele>643.0</ele>
<desc>Speed 67.6 km/h Distance 136 km</desc>
<time>2012-09-18T17:46:54.58</time>
<name>6782</name>
<sym>Dot</sym>
</trkpt>
<trkpt lat="47.769707" lon="15.733935">
<ele>643.0</ele>
<desc>Speed 61.0 km/h Distance 136 km</desc>
<time>2012-09-18T17:46:55.57</time>
<name>6783</name>
<sym>Dot</sym>
</trkpt>
<trkpt lat="47.769567" lon="15.734038">
<ele>643.0</ele>
<desc>Speed 63.0 km/h Distance 136 km</desc>
<time>2012-09-18T17:46:56.58</time>
<name>6784</name>
<sym>Dot</sym>
</trkpt>
<trkpt lat="47.769353" lon="15.734248">
<ele>643.0</ele>
<desc>Speed 53.3 km/h Distance 136 km</desc>
<time>2012-09-18T17:46:58.57</time>
<name>6785</name>
<sym>Dot</sym>
</trkpt>
<trkpt lat="47.769005" lon="15.734283">
<ele>644.0</ele>
<desc>Speed 41.8 km/h Distance 136 km</desc>
<time>2012-09-18T17:47:02.61</time>
<name>6786</name>
<sym>Dot</sym>
</trkpt>
<trkpt lat="47.768662" lon="15.733902">
<ele>642.5</ele>
<desc>Speed 61.0 km/h Distance 136 km</desc>
<time>2012-09-18T17:47:05.60</time>
<name>6787</name>
<sym>Dot</sym>
</trkpt>
<trkpt lat="47.768523" lon="15.733788">
<ele>641.0</ele>
<desc>Speed 64.3 km/h Distance 136 km</desc>
<time>2012-09-18T17:47:06.59</time>
<name>6788</name>
<sym>Dot</sym>
</trkpt>
<trkpt lat="47.768367" lon="15.733725">
<ele>642.5</ele>
<desc>Speed 68.2 km/h Distance 136 km</desc>
<time>2012-09-18T17:47:07.59</time>
<name>6789</name>
<sym>Dot</sym>
</trkpt>
<trkpt lat="47.768212" lon="15.733660">
<ele>644.0</ele>
<desc>Speed 67.0 km/h Distance 136 km</desc>
<time>2012-09-18T17:47:08.58</time>
<name>6790</name>
<sym>Dot</sym>
</trkpt>
<trkpt lat="47.768033" lon="15.733633">
<ele>644.0</ele>
<desc>Speed 71.9 km/h Distance 136 km</desc>
<time>2012-09-18T17:47:09.58</time>
<name>6791</name>
<sym>Dot</sym>
</trkpt>
<trkpt lat="47.767865" lon="15.733600">
<ele>644.5</ele>
<desc>Speed 68.4 km/h Distance 136 km</desc>
<time>2012-09-18T17:47:10.57</time>
<name>6792</name>
<sym>Dot</sym>
</trkpt>
<trkpt lat="47.767695" lon="15.733587">
<ele>645.5</ele>
<desc>Speed 69.0 km/h Distance 136 km</desc>
<time>2012-09-18T17:47:11.56</time>
<name>6793</name>
<sym>Dot</sym>
</trkpt>
<trkpt lat="47.767530" lon="15.733575">
<ele>645.5</ele>
<desc>Speed 67.2 km/h Distance 136 km</desc>
<time>2012-09-18T17:47:12.57</time>
<name>6794</name>
<sym>Dot</sym>
</trkpt>
<trkpt lat="47.767357" lon="15.733547">
<ele>645.5</ele>
<desc>Speed 69.7 km/h Distance 136 km</desc>
<time>2012-09-18T17:47:13.56</time>
<name>6795</name>
<sym>Dot</sym>
</trkpt>
<trkpt lat="47.767205" lon="15.733478">
<ele>645.5</ele>
<desc>Speed 64.0 km/h Distance 136 km</desc>
<time>2012-09-18T17:47:14.56</time>
<name>6796</name>
<sym>Dot</sym>
</trkpt>
<trkpt lat="47.767048" lon="15.733418">
<ele>645.5</ele>
<desc>Speed 64.6 km/h Distance 136 km</desc>
<time>2012-09-18T17:47:15.57</time>
<name>6797</name>
<sym>Dot</sym>
</trkpt>
<trkpt lat="47.766560" lon="15.733367">
<ele>645.5</ele>
<desc>Speed 66.2 km/h Distance 136 km</desc>
<time>2012-09-18T17:47:18.62</time>
<name>6798</name>
<sym>Dot</sym>
</trkpt>
<trkpt lat="47.766388" lon="15.733442">
<ele>645.5</ele>
<desc>Speed 71.7 km/h Distance 136 km</desc>
<time>2012-09-18T17:47:19.60</time>
<name>6799</name>
<sym>Dot</sym>
</trkpt>
<trkpt lat="47.766098" lon="15.733628">
<ele>645.0</ele>
<desc>Speed 65.1 km/h Distance 136 km</desc>
<time>2012-09-18T17:47:21.61</time>
<name>6800</name>
<sym>Dot</sym>
</trkpt>
<trkpt lat="47.765967" lon="15.733770">
<ele>645.0</ele>
<desc>Speed 65.0 km/h Distance 136 km</desc>
<time>2012-09-18T17:47:22.60</time>
<name>6801</name>
<sym>Dot</sym>
</trkpt>
<trkpt lat="47.765847" lon="15.733942">
<ele>645.0</ele>
<desc>Speed 66.9 km/h Distance 136 km</desc>
<time>2012-09-18T17:47:23.60</time>
<name>6802</name>
<sym>Dot</sym>
</trkpt>
<trkpt lat="47.765743" lon="15.734132">
<ele>645.0</ele>
<desc>Speed 66.7 km/h Distance 136 km</desc>
<time>2012-09-18T17:47:24.59</time>
<name>6803</name>
<sym>Dot</sym>
</trkpt>
<trkpt lat="47.765648" lon="15.734325">
<ele>645.0</ele>
<desc>Speed 65.4 km/h Distance 136 km</desc>
<time>2012-09-18T17:47:25.59</time>
<name>6804</name>
<sym>Dot</sym>
</trkpt>
<trkpt lat="47.765582" lon="15.734545">
<ele>644.5</ele>
<desc>Speed 65.5 km/h Distance 136 km</desc>
<time>2012-09-18T17:47:26.59</time>
<name>6805</name>
<sym>Dot</sym>
</trkpt>
<trkpt lat="47.765540" lon="15.734780">
<ele>644.5</ele>
<desc>Speed 66.7 km/h Distance 136 km</desc>
<time>2012-09-18T17:47:27.57</time>
<name>6806</name>
<sym>Dot</sym>
</trkpt>
<trkpt lat="47.765533" lon="15.735033">
<ele>644.5</ele>
<desc>Speed 69.2 km/h Distance 136 km</desc>
<time>2012-09-18T17:47:28.56</time>
<name>6807</name>
<sym>Dot</sym>
</trkpt>
<trkpt lat="47.765543" lon="15.735277">
<ele>644.5</ele>
<desc>Speed 66.7 km/h Distance 137 km</desc>
<time>2012-09-18T17:47:29.56</time>
<name>6808</name>
<sym>Dot</sym>
</trkpt>
<trkpt lat="47.765595" lon="15.735530">
<ele>644.5</ele>
<desc>Speed 71.9 km/h Distance 137 km</desc>
<time>2012-09-18T17:47:30.57</time>
<name>6809</name>
<sym>Dot</sym>
</trkpt>
<trkpt lat="47.765672" lon="15.735793">
<ele>644.5</ele>
<desc>Speed 78.1 km/h Distance 137 km</desc>
<time>2012-09-18T17:47:31.55</time>
<name>6810</name>
<sym>Dot</sym>
</trkpt>
<trkpt lat="47.765747" lon="15.736042">
<ele>644.0</ele>
<desc>Speed 74.5 km/h Distance 137 km</desc>
<time>2012-09-18T17:47:32.55</time>
<name>6811</name>
<sym>Dot</sym>
</trkpt>
<trkpt lat="47.765832" lon="15.736297">
<ele>644.0</ele>
<desc>Speed 77.8 km/h Distance 137 km</desc>
<time>2012-09-18T17:47:33.54</time>
<name>6812</name>
<sym>Dot</sym>
</trkpt>
<trkpt lat="47.765925" lon="15.736553">
<ele>644.0</ele>
<desc>Speed 79.3 km/h Distance 137 km</desc>
<time>2012-09-18T17:47:34.54</time>
<name>6813</name>
<sym>Dot</sym>
</trkpt>
<trkpt lat="47.766015" lon="15.736820">
<ele>644.0</ele>
<desc>Speed 80.4 km/h Distance 137 km</desc>
<time>2012-09-18T17:47:35.53</time>
<name>6814</name>
<sym>Dot</sym>
</trkpt>
<trkpt lat="47.766098" lon="15.737103">
<ele>644.0</ele>
<desc>Speed 83.6 km/h Distance 137 km</desc>
<time>2012-09-18T17:47:36.52</time>
<name>6815</name>
<sym>Dot</sym>
</trkpt>
<trkpt lat="47.766172" lon="15.737387">
<ele>644.0</ele>
<desc>Speed 82.6 km/h Distance 137 km</desc>
<time>2012-09-18T17:47:37.53</time>
<name>6816</name>
<sym>Dot</sym>
</trkpt>
<trkpt lat="47.766233" lon="15.737665">
<ele>644.0</ele>
<desc>Speed 79.7 km/h Distance 137 km</desc>
<time>2012-09-18T17:47:38.53</time>
<name>6817</name>
<sym>Dot</sym>
</trkpt>
<trkpt lat="47.766283" lon="15.737937">
<ele>644.0</ele>
<desc>Speed 76.9 km/h Distance 137 km</desc>
<time>2012-09-18T17:47:39.51</time>
<name>6818</name>
<sym>Dot</sym>
</trkpt>
<trkpt lat="47.766323" lon="15.738198">
<ele>644.0</ele>
<desc>Speed 73.4 km/h Distance 137 km</desc>
<time>2012-09-18T17:47:40.51</time>
<name>6819</name>
<sym>Dot</sym>
</trkpt>
<trkpt lat="47.766318" lon="15.738847">
<ele>644.0</ele>
<desc>Speed 56.2 km/h Distance 137 km</desc>
<time>2012-09-18T17:47:43.61</time>
<name>6820</name>
<sym>Dot</sym>
</trkpt>
<trkpt lat="47.766297" lon="15.739060">
<ele>644.0</ele>
<desc>Speed 58.2 km/h Distance 137 km</desc>
<time>2012-09-18T17:47:44.62</time>
<name>6821</name>
<sym>Dot</sym>
</trkpt>
<trkpt lat="47.766257" lon="15.739275">
<ele>644.0</ele>
<desc>Speed 60.1 km/h Distance 137 km</desc>
<time>2012-09-18T17:47:45.61</time>
<name>6822</name>
<sym>Dot</sym>
</trkpt>
<trkpt lat="47.766185" lon="15.739467">
<ele>644.0</ele>
<desc>Speed 59.2 km/h Distance 137 km</desc>
<time>2012-09-18T17:47:46.61</time>
<name>6823</name>
<sym>Dot</sym>
</trkpt>
<trkpt lat="47.765992" lon="15.739888">
<ele>644.0</ele>
<desc>Speed 71.5 km/h Distance 137 km</desc>
<time>2012-09-18T17:47:48.59</time>
<name>6824</name>
<sym>Dot</sym>
</trkpt>
<trkpt lat="47.765873" lon="15.740098">
<ele>644.0</ele>
<desc>Speed 73.1 km/h Distance 137 km</desc>
<time>2012-09-18T17:47:49.58</time>
<name>6825</name>
<sym>Dot</sym>
</trkpt>
<trkpt lat="47.765750" lon="15.740312">
<ele>644.0</ele>
<desc>Speed 75.4 km/h Distance 137 km</desc>
<time>2012-09-18T17:47:50.58</time>
<name>6826</name>
<sym>Dot</sym>
</trkpt>
<trkpt lat="47.765633" lon="15.740532">
<ele>644.0</ele>
<desc>Speed 75.9 km/h Distance 137 km</desc>
<time>2012-09-18T17:47:51.58</time>
<name>6827</name>
<sym>Dot</sym>
</trkpt>
<trkpt lat="47.765552" lon="15.740773">
<ele>644.0</ele>
<desc>Speed 73.5 km/h Distance 137 km</desc>
<time>2012-09-18T17:47:52.57</time>
<name>6828</name>
<sym>Dot</sym>
</trkpt>
<trkpt lat="47.765467" lon="15.741027">
<ele>644.0</ele>
<desc>Speed 76.3 km/h Distance 137 km</desc>
<time>2012-09-18T17:47:53.58</time>
<name>6829</name>
<sym>Dot</sym>
</trkpt>
<trkpt lat="47.765392" lon="15.741290">
<ele>644.0</ele>
<desc>Speed 77.7 km/h Distance 137 km</desc>
<time>2012-09-18T17:47:54.58</time>
<name>6830</name>
<sym>Dot</sym>
</trkpt>
<trkpt lat="47.765332" lon="15.741563">
<ele>644.0</ele>
<desc>Speed 77.8 km/h Distance 137 km</desc>
<time>2012-09-18T17:47:55.57</time>
<name>6831</name>
<sym>Dot</sym>
</trkpt>
<trkpt lat="47.765293" lon="15.741855">
<ele>644.0</ele>
<desc>Speed 80.2 km/h Distance 137 km</desc>
<time>2012-09-18T17:47:56.56</time>
<name>6832</name>
<sym>Dot</sym>
</trkpt>
<trkpt lat="47.765263" lon="15.742145">
<ele>644.0</ele>
<desc>Speed 79.2 km/h Distance 137 km</desc>
<time>2012-09-18T17:47:57.55</time>
<name>6833</name>
<sym>Dot</sym>
</trkpt>
<trkpt lat="47.765243" lon="15.742433">
<ele>644.0</ele>
<desc>Speed 78.4 km/h Distance 137 km</desc>
<time>2012-09-18T17:47:58.55</time>
<name>6834</name>
<sym>Dot</sym>
</trkpt>
<trkpt lat="47.765252" lon="15.742720">
<ele>644.0</ele>
<desc>Speed 77.5 km/h Distance 137 km</desc>
<time>2012-09-18T17:47:59.55</time>
<name>6835</name>
<sym>Dot</sym>
</trkpt>
<trkpt lat="47.765267" lon="15.743002">
<ele>644.0</ele>
<desc>Speed 76.0 km/h Distance 137 km</desc>
<time>2012-09-18T17:48:00.54</time>
<name>6836</name>
<sym>Dot</sym>
</trkpt>
<trkpt lat="47.765295" lon="15.743272">
<ele>644.0</ele>
<desc>Speed 74.1 km/h Distance 137 km</desc>
<time>2012-09-18T17:48:01.53</time>
<name>6837</name>
<sym>Dot</sym>
</trkpt>
<trkpt lat="47.765338" lon="15.743532">
<ele>644.0</ele>
<desc>Speed 72.5 km/h Distance 137 km</desc>
<time>2012-09-18T17:48:02.53</time>
<name>6838</name>
<sym>Dot</sym>
</trkpt>
<trkpt lat="47.765395" lon="15.743777">
<ele>644.0</ele>
<desc>Speed 70.3 km/h Distance 137 km</desc>
<time>2012-09-18T17:48:03.52</time>
<name>6839</name>
<sym>Dot</sym>
</trkpt>
<trkpt lat="47.765452" lon="15.744003">
<ele>644.0</ele>
<desc>Speed 65.2 km/h Distance 137 km</desc>
<time>2012-09-18T17:48:04.53</time>
<name>6840</name>
<sym>Dot</sym>
</trkpt>
<trkpt lat="47.765500" lon="15.744218">
<ele>644.0</ele>
<desc>Speed 60.8 km/h Distance 137 km</desc>
<time>2012-09-18T17:48:05.51</time>
<name>6841</name>
<sym>Dot</sym>
</trkpt>
<trkpt lat="47.765530" lon="15.744427">
<ele>644.0</ele>
<desc>Speed 57.2 km/h Distance 137 km</desc>
<time>2012-09-18T17:48:06.51</time>
<name>6842</name>
<sym>Dot</sym>
</trkpt>
<trkpt lat="47.765525" lon="15.744618">
<ele>644.0</ele>
<desc>Speed 51.5 km/h Distance 137 km</desc>
<time>2012-09-18T17:48:07.52</time>
<name>6843</name>
<sym>Dot</sym>
</trkpt>
<trkpt lat="47.765485" lon="15.744795">
<ele>644.0</ele>
<desc>Speed 50.3 km/h Distance 137 km</desc>
<time>2012-09-18T17:48:08.49</time>
<name>6844</name>
<sym>Dot</sym>
</trkpt>
<trkpt lat="47.765415" lon="15.744953">
<ele>644.0</ele>
<desc>Speed 51.5 km/h Distance 137 km</desc>
<time>2012-09-18T17:48:09.49</time>
<name>6845</name>
<sym>Dot</sym>
</trkpt>
<trkpt lat="47.765300" lon="15.745078">
<ele>644.0</ele>
<desc>Speed 56.6 km/h Distance 137 km</desc>
<time>2012-09-18T17:48:10.50</time>
<name>6846</name>
<sym>Dot</sym>
</trkpt>
<trkpt lat="47.765177" lon="15.745188">
<ele>644.0</ele>
<desc>Speed 57.6 km/h Distance 137 km</desc>
<time>2012-09-18T17:48:11.48</time>
<name>6847</name>
<sym>Dot</sym>
</trkpt>
<trkpt lat="47.765033" lon="15.745273">
<ele>644.0</ele>
<desc>Speed 61.4 km/h Distance 137 km</desc>
<time>2012-09-18T17:48:12.49</time>
<name>6848</name>
<sym>Dot</sym>
</trkpt>
<trkpt lat="47.764875" lon="15.745335">
<ele>644.0</ele>
<desc>Speed 66.1 km/h Distance 137 km</desc>
<time>2012-09-18T17:48:13.49</time>
<name>6849</name>
<sym>Dot</sym>
</trkpt>
<trkpt lat="47.764702" lon="15.745380">
<ele>644.0</ele>
<desc>Speed 70.3 km/h Distance 137 km</desc>
<time>2012-09-18T17:48:14.47</time>
<name>6850</name>
<sym>Dot</sym>
</trkpt>
<trkpt lat="47.764523" lon="15.745413">
<ele>644.0</ele>
<desc>Speed 71.6 km/h Distance 137 km</desc>
<time>2012-09-18T17:48:15.45</time>
<name>6851</name>
<sym>Dot</sym>
</trkpt>
<trkpt lat="47.764108" lon="15.745398">
<ele>644.0</ele>
<desc>Speed 78.2 km/h Distance 137 km</desc>
<time>2012-09-18T17:48:17.46</time>
<name>6852</name>
<sym>Dot</sym>
</trkpt>
<trkpt lat="47.763920" lon="15.745388">
<ele>644.0</ele>
<desc>Speed 73.3 km/h Distance 137 km</desc>
<time>2012-09-18T17:48:18.47</time>
<name>6853</name>
<sym>Dot</sym>
</trkpt>
<trkpt lat="47.763733" lon="15.745387">
<ele>644.0</ele>
<desc>Speed 73.9 km/h Distance 137 km</desc>
<time>2012-09-18T17:48:19.46</time>
<name>6854</name>
<sym>Dot</sym>
</trkpt>
<trkpt lat="47.763542" lon="15.745407">
<ele>644.0</ele>
<desc>Speed 75.6 km/h Distance 138 km</desc>
<time>2012-09-18T17:48:20.45</time>
<name>6855</name>
<sym>Dot</sym>
</trkpt>
<trkpt lat="47.763358" lon="15.745462">
<ele>644.0</ele>
<desc>Speed 73.0 km/h Distance 138 km</desc>
<time>2012-09-18T17:48:21.45</time>
<name>6856</name>
<sym>Dot</sym>
</trkpt>
<trkpt lat="47.763200" lon="15.745555">
<ele>644.0</ele>
<desc>Speed 67.3 km/h Distance 138 km</desc>
<time>2012-09-18T17:48:22.45</time>
<name>6857</name>
<sym>Dot</sym>
</trkpt>
<trkpt lat="47.763065" lon="15.745688">
<ele>644.0</ele>
<desc>Speed 64.6 km/h Distance 138 km</desc>
<time>2012-09-18T17:48:23.43</time>
<name>6858</name>
<sym>Dot</sym>
</trkpt>
<trkpt lat="47.762950" lon="15.745855">
<ele>644.0</ele>
<desc>Speed 64.6 km/h Distance 138 km</desc>
<time>2012-09-18T17:48:24.44</time>
<name>6859</name>
<sym>Dot</sym>
</trkpt>
<trkpt lat="47.762867" lon="15.746053">
<ele>644.0</ele>
<desc>Speed 63.5 km/h Distance 138 km</desc>
<time>2012-09-18T17:48:25.43</time>
<name>6860</name>
<sym>Dot</sym>
</trkpt>
<trkpt lat="47.762810" lon="15.746275">
<ele>644.0</ele>
<desc>Speed 64.4 km/h Distance 138 km</desc>
<time>2012-09-18T17:48:26.43</time>
<name>6861</name>
<sym>Dot</sym>
</trkpt>
<trkpt lat="47.762787" lon="15.746520">
<ele>644.0</ele>
<desc>Speed 66.7 km/h Distance 138 km</desc>
<time>2012-09-18T17:48:27.43</time>
<name>6862</name>
<sym>Dot</sym>
</trkpt>
<trkpt lat="47.762780" lon="15.746752">
<ele>644.0</ele>
<desc>Speed 62.8 km/h Distance 138 km</desc>
<time>2012-09-18T17:48:28.43</time>
<name>6863</name>
<sym>Dot</sym>
</trkpt>
<trkpt lat="47.762828" lon="15.746990">
<ele>644.0</ele>
<desc>Speed 67.8 km/h Distance 138 km</desc>
<time>2012-09-18T17:48:29.42</time>
<name>6864</name>
<sym>Dot</sym>
</trkpt>
<trkpt lat="47.762887" lon="15.747202">
<ele>644.0</ele>
<desc>Speed 62.6 km/h Distance 138 km</desc>
<time>2012-09-18T17:48:30.41</time>
<name>6865</name>
<sym>Dot</sym>
</trkpt>
<trkpt lat="47.762968" lon="15.747395">
<ele>644.0</ele>
<desc>Speed 62.2 km/h Distance 138 km</desc>
<time>2012-09-18T17:48:31.39</time>
<name>6866</name>
<sym>Dot</sym>
</trkpt>
<trkpt lat="47.763048" lon="15.747565">
<ele>644.5</ele>
<desc>Speed 58.4 km/h Distance 138 km</desc>
<time>2012-09-18T17:48:32.39</time>
<name>6867</name>
<sym>Dot</sym>
</trkpt>
<trkpt lat="47.763115" lon="15.747730">
<ele>644.5</ele>
<desc>Speed 55.4 km/h Distance 138 km</desc>
<time>2012-09-18T17:48:33.38</time>
<name>6868</name>
<sym>Dot</sym>
</trkpt>
<trkpt lat="47.763143" lon="15.748097">
<ele>644.0</ele>
<desc>Speed 56.3 km/h Distance 138 km</desc>
<time>2012-09-18T17:48:35.38</time>
<name>6869</name>
<sym>Dot</sym>
</trkpt>
<trkpt lat="47.763072" lon="15.748445">
<ele>644.0</ele>
<desc>Speed 51.7 km/h Distance 138 km</desc>
<time>2012-09-18T17:48:37.37</time>
<name>6870</name>
<sym>Dot</sym>
</trkpt>
<trkpt lat="47.763017" lon="15.748612">
<ele>644.0</ele>
<desc>Speed 49.8 km/h Distance 138 km</desc>
<time>2012-09-18T17:48:38.37</time>
<name>6871</name>
<sym>Dot</sym>
</trkpt>
<trkpt lat="47.762958" lon="15.748762">
<ele>644.0</ele>
<desc>Speed 46.9 km/h Distance 138 km</desc>
<time>2012-09-18T17:48:39.36</time>
<name>6872</name>
<sym>Dot</sym>
</trkpt>
<trkpt lat="47.762880" lon="15.748877">
<ele>644.0</ele>
<desc>Speed 43.5 km/h Distance 138 km</desc>
<time>2012-09-18T17:48:40.36</time>
<name>6873</name>
<sym>Dot</sym>
</trkpt>
<trkpt lat="47.762787" lon="15.748973">
<ele>644.0</ele>
<desc>Speed 45.8 km/h Distance 138 km</desc>
<time>2012-09-18T17:48:41.36</time>
<name>6874</name>
<sym>Dot</sym>
</trkpt>
<trkpt lat="47.762670" lon="15.749032">
<ele>644.0</ele>
<desc>Speed 49.7 km/h Distance 138 km</desc>
<time>2012-09-18T17:48:42.36</time>
<name>6875</name>
<sym>Dot</sym>
</trkpt>
<trkpt lat="47.762373" lon="15.749057">
<ele>644.0</ele>
<desc>Speed 61.7 km/h Distance 138 km</desc>
<time>2012-09-18T17:48:44.35</time>
<name>6876</name>
<sym>Dot</sym>
</trkpt>
<trkpt lat="47.762202" lon="15.749047">
<ele>644.0</ele>
<desc>Speed 66.9 km/h Distance 138 km</desc>
<time>2012-09-18T17:48:45.36</time>
<name>6877</name>
<sym>Dot</sym>
</trkpt>
<trkpt lat="47.761820" lon="15.748947">
<ele>643.5</ele>
<desc>Speed 77.7 km/h Distance 138 km</desc>
<time>2012-09-18T17:48:47.34</time>
<name>6878</name>
<sym>Dot</sym>
</trkpt>
<trkpt lat="47.761642" lon="15.748833">
<ele>643.5</ele>
<desc>Speed 76.6 km/h Distance 138 km</desc>
<time>2012-09-18T17:48:48.34</time>
<name>6879</name>
<sym>Dot</sym>
</trkpt>
<trkpt lat="47.761462" lon="15.748718">
<ele>643.5</ele>
<desc>Speed 77.1 km/h Distance 138 km</desc>
<time>2012-09-18T17:48:49.32</time>
<name>6880</name>
<sym>Dot</sym>
</trkpt>
<trkpt lat="47.760930" lon="15.748427">
<ele>643.5</ele>
<desc>Speed 59.9 km/h Distance 138 km</desc>
<time>2012-09-18T17:48:53.61</time>
<name>6881</name>
<sym>Dot</sym>
</trkpt>
<trkpt lat="47.760607" lon="15.748510">
<ele>643.5</ele>
<desc>Speed 73.1 km/h Distance 138 km</desc>
<time>2012-09-18T17:48:55.60</time>
<name>6882</name>
<sym>Dot</sym>
</trkpt>
<trkpt lat="47.760427" lon="15.749150">
<ele>643.0</ele>
<desc>Speed 63.6 km/h Distance 138 km</desc>
<time>2012-09-18T17:48:58.61</time>
<name>6883</name>
<sym>Dot</sym>
</trkpt>
<trkpt lat="47.760287" lon="15.749573">
<ele>643.0</ele>
<desc>Speed 62.2 km/h Distance 138 km</desc>
<time>2012-09-18T17:49:00.61</time>
<name>6884</name>
<sym>Dot</sym>
</trkpt>
<trkpt lat="47.760197" lon="15.749770">
<ele>643.0</ele>
<desc>Speed 63.2 km/h Distance 138 km</desc>
<time>2012-09-18T17:49:01.61</time>
<name>6885</name>
<sym>Dot</sym>
</trkpt>
<trkpt lat="47.760078" lon="15.749938">
<ele>643.0</ele>
<desc>Speed 66.2 km/h Distance 138 km</desc>
<time>2012-09-18T17:49:02.60</time>
<name>6886</name>
<sym>Dot</sym>
</trkpt>
<trkpt lat="47.759945" lon="15.750107">
<ele>643.0</ele>
<desc>Speed 70.2 km/h Distance 138 km</desc>
<time>2012-09-18T17:49:03.60</time>
<name>6887</name>
<sym>Dot</sym>
</trkpt>
<trkpt lat="47.759795" lon="15.750243">
<ele>643.0</ele>
<desc>Speed 71.6 km/h Distance 138 km</desc>
<time>2012-09-18T17:49:04.60</time>
<name>6888</name>
<sym>Dot</sym>
</trkpt>
<trkpt lat="47.759655" lon="15.750370">
<ele>643.0</ele>
<desc>Speed 66.4 km/h Distance 138 km</desc>
<time>2012-09-18T17:49:05.60</time>
<name>6889</name>
<sym>Dot</sym>
</trkpt>
<trkpt lat="47.759495" lon="15.750458">
<ele>643.0</ele>
<desc>Speed 69.7 km/h Distance 138 km</desc>
<time>2012-09-18T17:49:06.59</time>
<name>6890</name>
<sym>Dot</sym>
</trkpt>
<trkpt lat="47.759347" lon="15.750543">
<ele>643.0</ele>
<desc>Speed 64.2 km/h Distance 138 km</desc>
<time>2012-09-18T17:49:07.60</time>
<name>6891</name>
<sym>Dot</sym>
</trkpt>
<trkpt lat="47.759192" lon="15.750590">
<ele>643.0</ele>
<desc>Speed 65.3 km/h Distance 138 km</desc>
<time>2012-09-18T17:49:08.58</time>
<name>6892</name>
<sym>Dot</sym>
</trkpt>
<trkpt lat="47.758915" lon="15.750620">
<ele>643.5</ele>
<desc>Speed 55.0 km/h Distance 138 km</desc>
<time>2012-09-18T17:49:10.57</time>
<name>6893</name>
<sym>Dot</sym>
</trkpt>
<trkpt lat="47.758780" lon="15.750580">
<ele>644.5</ele>
<desc>Speed 56.0 km/h Distance 138 km</desc>
<time>2012-09-18T17:49:11.57</time>
<name>6894</name>
<sym>Dot</sym>
</trkpt>
<trkpt lat="47.758662" lon="15.750480">
<ele>646.0</ele>
<desc>Speed 56.2 km/h Distance 138 km</desc>
<time>2012-09-18T17:49:12.57</time>
<name>6895</name>
<sym>Dot</sym>
</trkpt>
<trkpt lat="47.758567" lon="15.750338">
<ele>646.0</ele>
<desc>Speed 55.5 km/h Distance 138 km</desc>
<time>2012-09-18T17:49:13.57</time>
<name>6896</name>
<sym>Dot</sym>
</trkpt>
<trkpt lat="47.758482" lon="15.750183">
<ele>646.0</ele>
<desc>Speed 53.5 km/h Distance 138 km</desc>
<time>2012-09-18T17:49:14.57</time>
<name>6897</name>
<sym>Dot</sym>
</trkpt>
<trkpt lat="47.758420" lon="15.749990">
<ele>645.5</ele>
<desc>Speed 58.4 km/h Distance 138 km</desc>
<time>2012-09-18T17:49:15.56</time>
<name>6898</name>
<sym>Dot</sym>
</trkpt>
<trkpt lat="47.758360" lon="15.749777">
<ele>644.0</ele>
<desc>Speed 64.2 km/h Distance 138 km</desc>
<time>2012-09-18T17:49:16.55</time>
<name>6899</name>
<sym>Dot</sym>
</trkpt>
<trkpt lat="47.758270" lon="15.749260">
<ele>642.5</ele>
<desc>Speed 72.5 km/h Distance 139 km</desc>
<time>2012-09-18T17:49:18.55</time>
<name>6900</name>
<sym>Dot</sym>
</trkpt>
<trkpt lat="47.758110" lon="15.748815">
<ele>640.5</ele>
<desc>Speed 70.0 km/h Distance 139 km</desc>
<time>2012-09-18T17:49:20.54</time>
<name>6901</name>
<sym>Dot</sym>
</trkpt>
<trkpt lat="47.758007" lon="15.748612">
<ele>639.5</ele>
<desc>Speed 67.0 km/h Distance 139 km</desc>
<time>2012-09-18T17:49:21.53</time>
<name>6902</name>
<sym>Dot</sym>
</trkpt>
<trkpt lat="47.757900" lon="15.748432">
<ele>639.5</ele>
<desc>Speed 64.6 km/h Distance 139 km</desc>
<time>2012-09-18T17:49:22.53</time>
<name>6903</name>
<sym>Dot</sym>
</trkpt>
<trkpt lat="47.757760" lon="15.748313">
<ele>639.0</ele>
<desc>Speed 64.8 km/h Distance 139 km</desc>
<time>2012-09-18T17:49:23.51</time>
<name>6904</name>
<sym>Dot</sym>
</trkpt>
<trkpt lat="47.757515" lon="15.748172">
<ele>639.0</ele>
<desc>Speed 52.8 km/h Distance 139 km</desc>
<time>2012-09-18T17:49:25.60</time>
<name>6905</name>
<sym>Dot</sym>
</trkpt>
<trkpt lat="47.757370" lon="15.748188">
<ele>639.0</ele>
<desc>Speed 57.8 km/h Distance 139 km</desc>
<time>2012-09-18T17:49:26.51</time>
<name>6906</name>
<sym>Dot</sym>
</trkpt>
<trkpt lat="47.756873" lon="15.748537">
<ele>638.5</ele>
<desc>Speed 72.9 km/h Distance 139 km</desc>
<time>2012-09-18T17:49:29.58</time>
<name>6907</name>
<sym>Dot</sym>
</trkpt>
<trkpt lat="47.756715" lon="15.748665">
<ele>638.5</ele>
<desc>Speed 72.2 km/h Distance 139 km</desc>
<time>2012-09-18T17:49:30.57</time>
<name>6908</name>
<sym>Dot</sym>
</trkpt>
<trkpt lat="47.756565" lon="15.748815">
<ele>638.5</ele>
<desc>Speed 72.5 km/h Distance 139 km</desc>
<time>2012-09-18T17:49:31.59</time>
<name>6909</name>
<sym>Dot</sym>
</trkpt>
<trkpt lat="47.756442" lon="15.748990">
<ele>638.5</ele>
<desc>Speed 68.8 km/h Distance 139 km</desc>
<time>2012-09-18T17:49:32.58</time>
<name>6910</name>
<sym>Dot</sym>
</trkpt>
<trkpt lat="47.756315" lon="15.749155">
<ele>638.5</ele>
<desc>Speed 67.4 km/h Distance 139 km</desc>
<time>2012-09-18T17:49:33.57</time>
<name>6911</name>
<sym>Dot</sym>
</trkpt>
<trkpt lat="47.756078" lon="15.749400">
<ele>638.5</ele>
<desc>Speed 57.7 km/h Distance 139 km</desc>
<time>2012-09-18T17:49:35.58</time>
<name>6912</name>
<sym>Dot</sym>
</trkpt>
<trkpt lat="47.755957" lon="15.749473">
<ele>638.5</ele>
<desc>Speed 54.4 km/h Distance 139 km</desc>
<time>2012-09-18T17:49:36.58</time>
<name>6913</name>
<sym>Dot</sym>
</trkpt>
<trkpt lat="47.755817" lon="15.749442">
<ele>638.5</ele>
<desc>Speed 58.1 km/h Distance 139 km</desc>
<time>2012-09-18T17:49:37.58</time>
<name>6914</name>
<sym>Dot</sym>
</trkpt>
<trkpt lat="47.755588" lon="15.749267">
<ele>636.5</ele>
<desc>Speed 55.8 km/h Distance 139 km</desc>
<time>2012-09-18T17:49:39.57</time>
<name>6915</name>
<sym>Dot</sym>
</trkpt>
<trkpt lat="47.755475" lon="15.749110">
<ele>638.0</ele>
<desc>Speed 62.8 km/h Distance 139 km</desc>
<time>2012-09-18T17:49:40.57</time>
<name>6916</name>
<sym>Dot</sym>
</trkpt>
<trkpt lat="47.755345" lon="15.748962">
<ele>638.0</ele>
<desc>Speed 65.7 km/h Distance 139 km</desc>
<time>2012-09-18T17:49:41.56</time>
<name>6917</name>
<sym>Dot</sym>
</trkpt>
<trkpt lat="47.755188" lon="15.748825">
<ele>638.0</ele>
<desc>Speed 72.2 km/h Distance 139 km</desc>
<time>2012-09-18T17:49:42.56</time>
<name>6918</name>
<sym>Dot</sym>
</trkpt>
<trkpt lat="47.755030" lon="15.748727">
<ele>639.5</ele>
<desc>Speed 69.3 km/h Distance 139 km</desc>
<time>2012-09-18T17:49:43.56</time>
<name>6919</name>
<sym>Dot</sym>
</trkpt>
<trkpt lat="47.754730" lon="15.748680">
<ele>639.5</ele>
<desc>Speed 65.2 km/h Distance 139 km</desc>
<time>2012-09-18T17:49:45.55</time>
<name>6920</name>
<sym>Dot</sym>
</trkpt>
<trkpt lat="47.754565" lon="15.748688">
<ele>639.5</ele>
<desc>Speed 66.8 km/h Distance 139 km</desc>
<time>2012-09-18T17:49:46.54</time>
<name>6921</name>
<sym>Dot</sym>
</trkpt>
<trkpt lat="47.754177" lon="15.748720">
<ele>639.5</ele>
<desc>Speed 76.6 km/h Distance 139 km</desc>
<time>2012-09-18T17:49:48.54</time>
<name>6922</name>
<sym>Dot</sym>
</trkpt>
<trkpt lat="47.753820" lon="15.748678">
<ele>639.0</ele>
<desc>Speed 75.1 km/h Distance 139 km</desc>
<time>2012-09-18T17:49:50.53</time>
<name>6923</name>
<sym>Dot</sym>
</trkpt>
<trkpt lat="47.753638" lon="15.748685">
<ele>639.0</ele>
<desc>Speed 73.1 km/h Distance 139 km</desc>
<time>2012-09-18T17:49:51.52</time>
<name>6924</name>
<sym>Dot</sym>
</trkpt>
<trkpt lat="47.753453" lon="15.748710">
<ele>639.0</ele>
<desc>Speed 74.2 km/h Distance 139 km</desc>
<time>2012-09-18T17:49:52.51</time>
<name>6925</name>
<sym>Dot</sym>
</trkpt>
<trkpt lat="47.753135" lon="15.748792">
<ele>639.0</ele>
<desc>Speed 65.3 km/h Distance 139 km</desc>
<time>2012-09-18T17:49:54.51</time>
<name>6926</name>
<sym>Dot</sym>
</trkpt>
<trkpt lat="47.752957" lon="15.748790">
<ele>639.0</ele>
<desc>Speed 71.1 km/h Distance 139 km</desc>
<time>2012-09-18T17:49:55.51</time>
<name>6927</name>
<sym>Dot</sym>
</trkpt>
<trkpt lat="47.752785" lon="15.748768">
<ele>639.0</ele>
<desc>Speed 69.0 km/h Distance 139 km</desc>
<time>2012-09-18T17:49:56.51</time>
<name>6928</name>
<sym>Dot</sym>
</trkpt>
<trkpt lat="47.752622" lon="15.748737">
<ele>639.0</ele>
<desc>Speed 66.1 km/h Distance 139 km</desc>
<time>2012-09-18T17:49:57.50</time>
<name>6929</name>
<sym>Dot</sym>
</trkpt>
<trkpt lat="47.752463" lon="15.748717">
<ele>638.5</ele>
<desc>Speed 63.4 km/h Distance 139 km</desc>
<time>2012-09-18T17:49:58.50</time>
<name>6930</name>
<sym>Dot</sym>
</trkpt>
<trkpt lat="47.752318" lon="15.748728">
<ele>637.5</ele>
<desc>Speed 57.0 km/h Distance 139 km</desc>
<time>2012-09-18T17:49:59.50</time>
<name>6931</name>
<sym>Dot</sym>
</trkpt>
<trkpt lat="47.751990" lon="15.748873">
<ele>637.0</ele>
<desc>Speed 67.1 km/h Distance 139 km</desc>
<time>2012-09-18T17:50:01.48</time>
<name>6932</name>
<sym>Dot</sym>
</trkpt>
<trkpt lat="47.751847" lon="15.748995">
<ele>637.0</ele>
<desc>Speed 66.5 km/h Distance 139 km</desc>
<time>2012-09-18T17:50:02.48</time>
<name>6933</name>
<sym>Dot</sym>
</trkpt>
<trkpt lat="47.751735" lon="15.749158">
<ele>637.0</ele>
<desc>Speed 63.2 km/h Distance 139 km</desc>
<time>2012-09-18T17:50:03.48</time>
<name>6934</name>
<sym>Dot</sym>
</trkpt>
<trkpt lat="47.751640" lon="15.749347">
<ele>637.0</ele>
<desc>Speed 63.8 km/h Distance 139 km</desc>
<time>2012-09-18T17:50:04.47</time>
<name>6935</name>
<sym>Dot</sym>
</trkpt>
<trkpt lat="47.751565" lon="15.749552">
<ele>637.0</ele>
<desc>Speed 63.4 km/h Distance 139 km</desc>
<time>2012-09-18T17:50:05.46</time>
<name>6936</name>
<sym>Dot</sym>
</trkpt>
<trkpt lat="47.751515" lon="15.749773">
<ele>636.5</ele>
<desc>Speed 63.6 km/h Distance 139 km</desc>
<time>2012-09-18T17:50:06.45</time>
<name>6937</name>
<sym>Dot</sym>
</trkpt>
<trkpt lat="47.751483" lon="15.750023">
<ele>636.5</ele>
<desc>Speed 68.8 km/h Distance 139 km</desc>
<time>2012-09-18T17:50:07.45</time>
<name>6938</name>
<sym>Dot</sym>
</trkpt>
<trkpt lat="47.751447" lon="15.750558">
<ele>636.5</ele>
<desc>Speed 69.7 km/h Distance 139 km</desc>
<time>2012-09-18T17:50:09.43</time>
<name>6939</name>
<sym>Dot</sym>
</trkpt>
<trkpt lat="47.751420" lon="15.750798">
<ele>636.5</ele>
<desc>Speed 65.8 km/h Distance 139 km</desc>
<time>2012-09-18T17:50:10.44</time>
<name>6940</name>
<sym>Dot</sym>
</trkpt>
<trkpt lat="47.751370" lon="15.751010">
<ele>636.5</ele>
<desc>Speed 60.6 km/h Distance 139 km</desc>
<time>2012-09-18T17:50:11.43</time>
<name>6941</name>
<sym>Dot</sym>
</trkpt>
<trkpt lat="47.751312" lon="15.751212">
<ele>636.5</ele>
<desc>Speed 59.2 km/h Distance 139 km</desc>
<time>2012-09-18T17:50:12.43</time>
<name>6942</name>
<sym>Dot</sym>
</trkpt>
<trkpt lat="47.751247" lon="15.751413">
<ele>636.5</ele>
<desc>Speed 60.7 km/h Distance 140 km</desc>
<time>2012-09-18T17:50:13.42</time>
<name>6943</name>
<sym>Dot</sym>
</trkpt>
<trkpt lat="47.751163" lon="15.751587">
<ele>636.5</ele>
<desc>Speed 57.5 km/h Distance 140 km</desc>
<time>2012-09-18T17:50:14.41</time>
<name>6944</name>
<sym>Dot</sym>
</trkpt>
<trkpt lat="47.751065" lon="15.751745">
<ele>636.5</ele>
<desc>Speed 58.5 km/h Distance 140 km</desc>
<time>2012-09-18T17:50:15.41</time>
<name>6945</name>
<sym>Dot</sym>
</trkpt>
<trkpt lat="47.750942" lon="15.751888">
<ele>636.5</ele>
<desc>Speed 62.8 km/h Distance 140 km</desc>
<time>2012-09-18T17:50:16.40</time>
<name>6946</name>
<sym>Dot</sym>
</trkpt>
<trkpt lat="47.750820" lon="15.752018">
<ele>636.5</ele>
<desc>Speed 60.2 km/h Distance 140 km</desc>
<time>2012-09-18T17:50:17.39</time>
<name>6947</name>
<sym>Dot</sym>
</trkpt>
<trkpt lat="47.750687" lon="15.752112">
<ele>636.5</ele>
<desc>Speed 59.5 km/h Distance 140 km</desc>
<time>2012-09-18T17:50:18.41</time>
<name>6948</name>
<sym>Dot</sym>
</trkpt>
<trkpt lat="47.750545" lon="15.752178">
<ele>636.5</ele>
<desc>Speed 59.9 km/h Distance 140 km</desc>
<time>2012-09-18T17:50:19.39</time>
<name>6949</name>
<sym>Dot</sym>
</trkpt>
<trkpt lat="47.750383" lon="15.752223">
<ele>636.5</ele>
<desc>Speed 66.4 km/h Distance 140 km</desc>
<time>2012-09-18T17:50:20.39</time>
<name>6950</name>
<sym>Dot</sym>
</trkpt>
<trkpt lat="47.750222" lon="15.752267">
<ele>636.5</ele>
<desc>Speed 66.7 km/h Distance 140 km</desc>
<time>2012-09-18T17:50:21.39</time>
<name>6951</name>
<sym>Dot</sym>
</trkpt>
<trkpt lat="47.750065" lon="15.752305">
<ele>636.5</ele>
<desc>Speed 64.5 km/h Distance 140 km</desc>
<time>2012-09-18T17:50:22.38</time>
<name>6952</name>
<sym>Dot</sym>
</trkpt>
<trkpt lat="47.749908" lon="15.752350">
<ele>636.5</ele>
<desc>Speed 64.2 km/h Distance 140 km</desc>
<time>2012-09-18T17:50:23.37</time>
<name>6953</name>
<sym>Dot</sym>
</trkpt>
<trkpt lat="47.749772" lon="15.752425">
<ele>636.5</ele>
<desc>Speed 58.9 km/h Distance 140 km</desc>
<time>2012-09-18T17:50:24.37</time>
<name>6954</name>
<sym>Dot</sym>
</trkpt>
<trkpt lat="47.749642" lon="15.752527">
<ele>636.5</ele>
<desc>Speed 58.8 km/h Distance 140 km</desc>
<time>2012-09-18T17:50:25.35</time>
<name>6955</name>
<sym>Dot</sym>
</trkpt>
<trkpt lat="47.749533" lon="15.752658">
<ele>636.5</ele>
<desc>Speed 56.9 km/h Distance 140 km</desc>
<time>2012-09-18T17:50:26.36</time>
<name>6956</name>
<sym>Dot</sym>
</trkpt>
<trkpt lat="47.749440" lon="15.752822">
<ele>636.5</ele>
<desc>Speed 58.3 km/h Distance 140 km</desc>
<time>2012-09-18T17:50:27.35</time>
<name>6957</name>
<sym>Dot</sym>
</trkpt>
<trkpt lat="47.749370" lon="15.753005">
<ele>636.5</ele>
<desc>Speed 56.7 km/h Distance 140 km</desc>
<time>2012-09-18T17:50:28.35</time>
<name>6958</name>
<sym>Dot</sym>
</trkpt>
<trkpt lat="47.749298" lon="15.753175">
<ele>636.5</ele>
<desc>Speed 54.2 km/h Distance 140 km</desc>
<time>2012-09-18T17:50:29.34</time>
<name>6959</name>
<sym>Dot</sym>
</trkpt>
<trkpt lat="47.749260" lon="15.753363">
<ele>636.5</ele>
<desc>Speed 53.2 km/h Distance 140 km</desc>
<time>2012-09-18T17:50:30.34</time>
<name>6960</name>
<sym>Dot</sym>
</trkpt>
<trkpt lat="47.749242" lon="15.753578">
<ele>636.5</ele>
<desc>Speed 58.1 km/h Distance 140 km</desc>
<time>2012-09-18T17:50:31.34</time>
<name>6961</name>
<sym>Dot</sym>
</trkpt>
<trkpt lat="47.749237" lon="15.753818">
<ele>636.5</ele>
<desc>Speed 64.4 km/h Distance 140 km</desc>
<time>2012-09-18T17:50:32.33</time>
<name>6962</name>
<sym>Dot</sym>
</trkpt>
<trkpt lat="47.749228" lon="15.754065">
<ele>636.5</ele>
<desc>Speed 66.7 km/h Distance 140 km</desc>
<time>2012-09-18T17:50:33.31</time>
<name>6963</name>
<sym>Dot</sym>
</trkpt>
<trkpt lat="47.749222" lon="15.754315">
<ele>636.5</ele>
<desc>Speed 67.0 km/h Distance 140 km</desc>
<time>2012-09-18T17:50:34.32</time>
<name>6964</name>
<sym>Dot</sym>
</trkpt>
<trkpt lat="47.749213" lon="15.754573">
<ele>636.5</ele>
<desc>Speed 69.7 km/h Distance 140 km</desc>
<time>2012-09-18T17:50:35.31</time>
<name>6965</name>
<sym>Dot</sym>
</trkpt>
<trkpt lat="47.749195" lon="15.754842">
<ele>636.5</ele>
<desc>Speed 72.5 km/h Distance 140 km</desc>
<time>2012-09-18T17:50:36.31</time>
<name>6966</name>
<sym>Dot</sym>
</trkpt>
<trkpt lat="47.749162" lon="15.755125">
<ele>636.5</ele>
<desc>Speed 77.0 km/h Distance 140 km</desc>
<time>2012-09-18T17:50:37.30</time>
<name>6967</name>
<sym>Dot</sym>
</trkpt>
<trkpt lat="47.749117" lon="15.755415">
<ele>636.5</ele>
<desc>Speed 80.2 km/h Distance 140 km</desc>
<time>2012-09-18T17:50:38.30</time>
<name>6968</name>
<sym>Dot</sym>
</trkpt>
<trkpt lat="47.749073" lon="15.755697">
<ele>636.5</ele>
<desc>Speed 77.5 km/h Distance 140 km</desc>
<time>2012-09-18T17:50:39.30</time>
<name>6969</name>
<sym>Dot</sym>
</trkpt>
<trkpt lat="47.749042" lon="15.755980">
<ele>636.5</ele>
<desc>Speed 77.7 km/h Distance 140 km</desc>
<time>2012-09-18T17:50:40.30</time>
<name>6970</name>
<sym>Dot</sym>
</trkpt>
<trkpt lat="47.749020" lon="15.756275">
<ele>636.5</ele>
<desc>Speed 79.6 km/h Distance 140 km</desc>
<time>2012-09-18T17:50:41.29</time>
<name>6971</name>
<sym>Dot</sym>
</trkpt>
<trkpt lat="47.749025" lon="15.756585">
<ele>636.5</ele>
<desc>Speed 83.9 km/h Distance 140 km</desc>
<time>2012-09-18T17:50:42.30</time>
<name>6972</name>
<sym>Dot</sym>
</trkpt>
<trkpt lat="47.748998" lon="15.757127">
<ele>636.5</ele>
<desc>Speed 72.8 km/h Distance 140 km</desc>
<time>2012-09-18T17:50:44.28</time>
<name>6973</name>
<sym>Dot</sym>
</trkpt>
<trkpt lat="47.748973" lon="15.757393">
<ele>636.5</ele>
<desc>Speed 72.4 km/h Distance 140 km</desc>
<time>2012-09-18T17:50:45.28</time>
<name>6974</name>
<sym>Dot</sym>
</trkpt>
<trkpt lat="47.748947" lon="15.757660">
<ele>636.5</ele>
<desc>Speed 73.2 km/h Distance 140 km</desc>
<time>2012-09-18T17:50:46.28</time>
<name>6975</name>
<sym>Dot</sym>
</trkpt>
<trkpt lat="47.748928" lon="15.757927">
<ele>636.5</ele>
<desc>Speed 72.4 km/h Distance 140 km</desc>
<time>2012-09-18T17:50:47.28</time>
<name>6976</name>
<sym>Dot</sym>
</trkpt>
<trkpt lat="47.748918" lon="15.758185">
<ele>636.5</ele>
<desc>Speed 70.0 km/h Distance 140 km</desc>
<time>2012-09-18T17:50:48.27</time>
<name>6977</name>
<sym>Dot</sym>
</trkpt>
<trkpt lat="47.748908" lon="15.758425">
<ele>636.5</ele>
<desc>Speed 64.9 km/h Distance 140 km</desc>
<time>2012-09-18T17:50:49.26</time>
<name>6978</name>
<sym>Dot</sym>
</trkpt>
<trkpt lat="47.748838" lon="15.758853">
<ele>636.5</ele>
<desc>Speed 61.2 km/h Distance 140 km</desc>
<time>2012-09-18T17:50:51.26</time>
<name>6979</name>
<sym>Dot</sym>
</trkpt>
<trkpt lat="47.748767" lon="15.759053">
<ele>636.5</ele>
<desc>Speed 61.1 km/h Distance 140 km</desc>
<time>2012-09-18T17:50:52.25</time>
<name>6980</name>
<sym>Dot</sym>
</trkpt>
<trkpt lat="47.748677" lon="15.759243">
<ele>636.5</ele>
<desc>Speed 62.9 km/h Distance 140 km</desc>
<time>2012-09-18T17:50:53.25</time>
<name>6981</name>
<sym>Dot</sym>
</trkpt>
<trkpt lat="47.748560" lon="15.759415">
<ele>636.5</ele>
<desc>Speed 65.6 km/h Distance 140 km</desc>
<time>2012-09-18T17:50:54.24</time>
<name>6982</name>
<sym>Dot</sym>
</trkpt>
<trkpt lat="47.748413" lon="15.759565">
<ele>636.5</ele>
<desc>Speed 71.5 km/h Distance 140 km</desc>
<time>2012-09-18T17:50:55.24</time>
<name>6983</name>
<sym>Dot</sym>
</trkpt>
<trkpt lat="47.748270" lon="15.759715">
<ele>636.5</ele>
<desc>Speed 70.6 km/h Distance 140 km</desc>
<time>2012-09-18T17:50:56.22</time>
<name>6984</name>
<sym>Dot</sym>
</trkpt>
<trkpt lat="47.747947" lon="15.760038">
<ele>636.5</ele>
<desc>Speed 76.4 km/h Distance 140 km</desc>
<time>2012-09-18T17:50:58.21</time>
<name>6985</name>
<sym>Dot</sym>
</trkpt>
<trkpt lat="47.747812" lon="15.760230">
<ele>636.5</ele>
<desc>Speed 75.3 km/h Distance 140 km</desc>
<time>2012-09-18T17:50:59.22</time>
<name>6986</name>
<sym>Dot</sym>
</trkpt>
<trkpt lat="47.747682" lon="15.760440">
<ele>636.5</ele>
<desc>Speed 76.9 km/h Distance 140 km</desc>
<time>2012-09-18T17:51:00.21</time>
<name>6987</name>
<sym>Dot</sym>
</trkpt>
<trkpt lat="47.747550" lon="15.760650">
<ele>636.5</ele>
<desc>Speed 77.8 km/h Distance 140 km</desc>
<time>2012-09-18T17:51:01.21</time>
<name>6988</name>
<sym>Dot</sym>
</trkpt>
<trkpt lat="47.747423" lon="15.760850">
<ele>636.5</ele>
<desc>Speed 73.9 km/h Distance 140 km</desc>
<time>2012-09-18T17:51:02.21</time>
<name>6989</name>
<sym>Dot</sym>
</trkpt>
<trkpt lat="47.747290" lon="15.761017">
<ele>636.5</ele>
<desc>Speed 69.9 km/h Distance 140 km</desc>
<time>2012-09-18T17:51:03.20</time>
<name>6990</name>
<sym>Dot</sym>
</trkpt>
<trkpt lat="47.747165" lon="15.761170">
<ele>636.5</ele>
<desc>Speed 64.3 km/h Distance 140 km</desc>
<time>2012-09-18T17:51:04.19</time>
<name>6991</name>
<sym>Dot</sym>
</trkpt>
<trkpt lat="47.747028" lon="15.761288">
<ele>636.5</ele>
<desc>Speed 63.0 km/h Distance 140 km</desc>
<time>2012-09-18T17:51:05.20</time>
<name>6992</name>
<sym>Dot</sym>
</trkpt>
<trkpt lat="47.746900" lon="15.761413">
<ele>636.5</ele>
<desc>Speed 61.0 km/h Distance 140 km</desc>
<time>2012-09-18T17:51:06.19</time>
<name>6993</name>
<sym>Dot</sym>
</trkpt>
<trkpt lat="47.746645" lon="15.761728">
<ele>636.5</ele>
<desc>Speed 61.5 km/h Distance 141 km</desc>
<time>2012-09-18T17:51:08.18</time>
<name>6994</name>
<sym>Dot</sym>
</trkpt>
<trkpt lat="47.746423" lon="15.762032">
<ele>636.5</ele>
<desc>Speed 61.5 km/h Distance 141 km</desc>
<time>2012-09-18T17:51:11.59</time>
<name>6995</name>
<sym>Dot</sym>
</trkpt>
<trkpt lat="47.746478" lon="15.762565">
<ele>636.5</ele>
<desc>Speed 61.5 km/h Distance 141 km</desc>
<time>2012-09-18T17:51:17.59</time>
<name>6996</name>
<sym>Dot</sym>
</trkpt>
<trkpt lat="47.746952" lon="15.764280">
<ele>636.0</ele>
<desc>Speed 68.5 km/h Distance 141 km</desc>
<time>2012-09-18T17:51:22.60</time>
<name>6997</name>
<sym>Dot</sym>
</trkpt>
<trkpt lat="47.747673" lon="15.766407">
<ele>636.0</ele>
<desc>Speed 63.1 km/h Distance 141 km</desc>
<time>2012-09-18T17:51:31.60</time>
<name>6998</name>
<sym>Dot</sym>
</trkpt>
<trkpt lat="47.747710" lon="15.766655">
<ele>636.0</ele>
<desc>Speed 60.9 km/h Distance 141 km</desc>
<time>2012-09-18T17:51:32.58</time>
<name>6999</name>
<sym>Dot</sym>
</trkpt>
<trkpt lat="47.747733" lon="15.766890">
<ele>636.0</ele>
<desc>Speed 59.0 km/h Distance 141 km</desc>
<time>2012-09-18T17:51:33.58</time>
<name>7000</name>
<sym>Dot</sym>
</trkpt>
<trkpt lat="47.747735" lon="15.767098">
<ele>636.0</ele>
<desc>Speed 52.8 km/h Distance 141 km</desc>
<time>2012-09-18T17:51:34.59</time>
<name>7001</name>
<sym>Dot</sym>
</trkpt>
<trkpt lat="47.747712" lon="15.767288">
<ele>636.0</ele>
<desc>Speed 51.9 km/h Distance 141 km</desc>
<time>2012-09-18T17:51:35.58</time>
<name>7002</name>
<sym>Dot</sym>
</trkpt>
<trkpt lat="47.747475" lon="15.767968">
<ele>636.0</ele>
<desc>Speed 71.0 km/h Distance 141 km</desc>
<time>2012-09-18T17:51:38.58</time>
<name>7003</name>
<sym>Dot</sym>
</trkpt>
<trkpt lat="47.747030" lon="15.768653">
<ele>633.0</ele>
<desc>Speed 82.9 km/h Distance 141 km</desc>
<time>2012-09-18T17:51:41.57</time>
<name>7004</name>
<sym>Dot</sym>
</trkpt>
<trkpt lat="47.746897" lon="15.768892">
<ele>632.0</ele>
<desc>Speed 81.3 km/h Distance 141 km</desc>
<time>2012-09-18T17:51:42.57</time>
<name>7005</name>
<sym>Dot</sym>
</trkpt>
<trkpt lat="47.746747" lon="15.769095">
<ele>631.0</ele>
<desc>Speed 79.9 km/h Distance 141 km</desc>
<time>2012-09-18T17:51:43.56</time>
<name>7006</name>
<sym>Dot</sym>
</trkpt>
<trkpt lat="47.746603" lon="15.769307">
<ele>630.0</ele>
<desc>Speed 78.4 km/h Distance 141 km</desc>
<time>2012-09-18T17:51:44.56</time>
<name>7007</name>
<sym>Dot</sym>
</trkpt>
<trkpt lat="47.746468" lon="15.769530">
<ele>628.5</ele>
<desc>Speed 77.8 km/h Distance 141 km</desc>
<time>2012-09-18T17:51:45.56</time>
<name>7008</name>
<sym>Dot</sym>
</trkpt>
<trkpt lat="47.746345" lon="15.769767">
<ele>627.5</ele>
<desc>Speed 77.6 km/h Distance 141 km</desc>
<time>2012-09-18T17:51:46.55</time>
<name>7009</name>
<sym>Dot</sym>
</trkpt>
<trkpt lat="47.746257" lon="15.770025">
<ele>626.5</ele>
<desc>Speed 77.7 km/h Distance 141 km</desc>
<time>2012-09-18T17:51:47.57</time>
<name>7010</name>
<sym>Dot</sym>
</trkpt>
<trkpt lat="47.746165" lon="15.770278">
<ele>626.0</ele>
<desc>Speed 76.6 km/h Distance 141 km</desc>
<time>2012-09-18T17:51:48.56</time>
<name>7011</name>
<sym>Dot</sym>
</trkpt>
<trkpt lat="47.746087" lon="15.770533">
<ele>625.5</ele>
<desc>Speed 75.7 km/h Distance 141 km</desc>
<time>2012-09-18T17:51:49.55</time>
<name>7012</name>
<sym>Dot</sym>
</trkpt>
<trkpt lat="47.746038" lon="15.770808">
<ele>625.5</ele>
<desc>Speed 77.1 km/h Distance 141 km</desc>
<time>2012-09-18T17:51:50.54</time>
<name>7013</name>
<sym>Dot</sym>
</trkpt>
<trkpt lat="47.745995" lon="15.771075">
<ele>625.5</ele>
<desc>Speed 75.5 km/h Distance 141 km</desc>
<time>2012-09-18T17:51:51.54</time>
<name>7014</name>
<sym>Dot</sym>
</trkpt>
<trkpt lat="47.745965" lon="15.771338">
<ele>625.0</ele>
<desc>Speed 72.8 km/h Distance 141 km</desc>
<time>2012-09-18T17:51:52.54</time>
<name>7015</name>
<sym>Dot</sym>
</trkpt>
<trkpt lat="47.745942" lon="15.771593">
<ele>624.5</ele>
<desc>Speed 70.6 km/h Distance 141 km</desc>
<time>2012-09-18T17:51:53.53</time>
<name>7016</name>
<sym>Dot</sym>
</trkpt>
<trkpt lat="47.745913" lon="15.771833">
<ele>624.5</ele>
<desc>Speed 66.7 km/h Distance 141 km</desc>
<time>2012-09-18T17:51:54.53</time>
<name>7017</name>
<sym>Dot</sym>
</trkpt>
<trkpt lat="47.745873" lon="15.772052">
<ele>624.0</ele>
<desc>Speed 61.3 km/h Distance 141 km</desc>
<time>2012-09-18T17:51:55.52</time>
<name>7018</name>
<sym>Dot</sym>
</trkpt>
<trkpt lat="47.745807" lon="15.772263">
<ele>624.0</ele>
<desc>Speed 62.7 km/h Distance 141 km</desc>
<time>2012-09-18T17:51:56.52</time>
<name>7019</name>
<sym>Dot</sym>
</trkpt>
<trkpt lat="47.745723" lon="15.772467">
<ele>623.5</ele>
<desc>Speed 63.7 km/h Distance 141 km</desc>
<time>2012-09-18T17:51:57.51</time>
<name>7020</name>
<sym>Dot</sym>
</trkpt>
<trkpt lat="47.745633" lon="15.772662">
<ele>623.5</ele>
<desc>Speed 64.3 km/h Distance 141 km</desc>
<time>2012-09-18T17:51:58.51</time>
<name>7021</name>
<sym>Dot</sym>
</trkpt>
<trkpt lat="47.745533" lon="15.772842">
<ele>623.5</ele>
<desc>Speed 63.2 km/h Distance 141 km</desc>
<time>2012-09-18T17:51:59.50</time>
<name>7022</name>
<sym>Dot</sym>
</trkpt>
<trkpt lat="47.745423" lon="15.773002">
<ele>623.5</ele>
<desc>Speed 62.4 km/h Distance 141 km</desc>
<time>2012-09-18T17:52:00.51</time>
<name>7023</name>
<sym>Dot</sym>
</trkpt>
<trkpt lat="47.745302" lon="15.773150">
<ele>623.5</ele>
<desc>Speed 63.3 km/h Distance 142 km</desc>
<time>2012-09-18T17:52:01.50</time>
<name>7024</name>
<sym>Dot</sym>
</trkpt>
<trkpt lat="47.745177" lon="15.773298">
<ele>623.0</ele>
<desc>Speed 65.0 km/h Distance 142 km</desc>
<time>2012-09-18T17:52:02.51</time>
<name>7025</name>
<sym>Dot</sym>
</trkpt>
<trkpt lat="47.745052" lon="15.773458">
<ele>623.0</ele>
<desc>Speed 66.3 km/h Distance 142 km</desc>
<time>2012-09-18T17:52:03.49</time>
<name>7026</name>
<sym>Dot</sym>
</trkpt>
<trkpt lat="47.744937" lon="15.773632">
<ele>623.0</ele>
<desc>Speed 66.3 km/h Distance 142 km</desc>
<time>2012-09-18T17:52:04.49</time>
<name>7027</name>
<sym>Dot</sym>
</trkpt>
<trkpt lat="47.744830" lon="15.773805">
<ele>623.0</ele>
<desc>Speed 63.7 km/h Distance 142 km</desc>
<time>2012-09-18T17:52:05.49</time>
<name>7028</name>
<sym>Dot</sym>
</trkpt>
<trkpt lat="47.744720" lon="15.773953">
<ele>623.0</ele>
<desc>Speed 59.7 km/h Distance 142 km</desc>
<time>2012-09-18T17:52:06.48</time>
<name>7029</name>
<sym>Dot</sym>
</trkpt>
<trkpt lat="47.744608" lon="15.774067">
<ele>623.0</ele>
<desc>Speed 55.4 km/h Distance 142 km</desc>
<time>2012-09-18T17:52:07.48</time>
<name>7030</name>
<sym>Dot</sym>
</trkpt>
<trkpt lat="47.744362" lon="15.774148">
<ele>623.0</ele>
<desc>Speed 61.8 km/h Distance 142 km</desc>
<time>2012-09-18T17:52:09.47</time>
<name>7031</name>
<sym>Dot</sym>
</trkpt>
<trkpt lat="47.744223" lon="15.774200">
<ele>622.5</ele>
<desc>Speed 57.8 km/h Distance 142 km</desc>
<time>2012-09-18T17:52:10.47</time>
<name>7032</name>
<sym>Dot</sym>
</trkpt>
<trkpt lat="47.744085" lon="15.774268">
<ele>622.5</ele>
<desc>Speed 59.0 km/h Distance 142 km</desc>
<time>2012-09-18T17:52:11.46</time>
<name>7033</name>
<sym>Dot</sym>
</trkpt>
<trkpt lat="47.743910" lon="15.774540">
<ele>622.5</ele>
<desc>Speed 51.6 km/h Distance 142 km</desc>
<time>2012-09-18T17:52:13.46</time>
<name>7034</name>
<sym>Dot</sym>
</trkpt>
<trkpt lat="47.743795" lon="15.774765">
<ele>622.5</ele>
<desc>Speed 51.6 km/h Distance 142 km</desc>
<time>2012-09-18T17:52:15.46</time>
<name>7035</name>
<sym>Dot</sym>
</trkpt>
<trkpt lat="47.743405" lon="15.775712">
<ele>622.0</ele>
<desc>Speed 73.3 km/h Distance 142 km</desc>
<time>2012-09-18T17:52:19.59</time>
<name>7036</name>
<sym>Dot</sym>
</trkpt>
<trkpt lat="47.743315" lon="15.775958">
<ele>622.0</ele>
<desc>Speed 74.5 km/h Distance 142 km</desc>
<time>2012-09-18T17:52:20.58</time>
<name>7037</name>
<sym>Dot</sym>
</trkpt>
<trkpt lat="47.743237" lon="15.776212">
<ele>622.0</ele>
<desc>Speed 75.1 km/h Distance 142 km</desc>
<time>2012-09-18T17:52:21.58</time>
<name>7038</name>
<sym>Dot</sym>
</trkpt>
<trkpt lat="47.743187" lon="15.776470">
<ele>623.0</ele>
<desc>Speed 71.3 km/h Distance 142 km</desc>
<time>2012-09-18T17:52:22.58</time>
<name>7039</name>
<sym>Dot</sym>
</trkpt>
<trkpt lat="47.743122" lon="15.776713">
<ele>623.5</ele>
<desc>Speed 69.4 km/h Distance 142 km</desc>
<time>2012-09-18T17:52:23.56</time>
<name>7040</name>
<sym>Dot</sym>
</trkpt>
<trkpt lat="47.743048" lon="15.776938">
<ele>622.5</ele>
<desc>Speed 65.5 km/h Distance 142 km</desc>
<time>2012-09-18T17:52:24.55</time>
<name>7041</name>
<sym>Dot</sym>
</trkpt>
<trkpt lat="47.742948" lon="15.777137">
<ele>621.0</ele>
<desc>Speed 64.1 km/h Distance 142 km</desc>
<time>2012-09-18T17:52:25.54</time>
<name>7042</name>
<sym>Dot</sym>
</trkpt>
<trkpt lat="47.742828" lon="15.777322">
<ele>620.5</ele>
<desc>Speed 66.9 km/h Distance 142 km</desc>
<time>2012-09-18T17:52:26.65</time>
<name>7043</name>
<sym>Dot</sym>
</trkpt>
<trkpt lat="47.742702" lon="15.777508">
<ele>619.5</ele>
<desc>Speed 68.3 km/h Distance 142 km</desc>
<time>2012-09-18T17:52:27.52</time>
<name>7044</name>
<sym>Dot</sym>
</trkpt>
<trkpt lat="47.742593" lon="15.777723">
<ele>618.0</ele>
<desc>Speed 70.5 km/h Distance 142 km</desc>
<time>2012-09-18T17:52:28.52</time>
<name>7045</name>
<sym>Dot</sym>
</trkpt>
<trkpt lat="47.742487" lon="15.777952">
<ele>618.0</ele>
<desc>Speed 74.4 km/h Distance 142 km</desc>
<time>2012-09-18T17:52:29.51</time>
<name>7046</name>
<sym>Dot</sym>
</trkpt>
<trkpt lat="47.742403" lon="15.778202">
<ele>618.0</ele>
<desc>Speed 75.4 km/h Distance 142 km</desc>
<time>2012-09-18T17:52:30.51</time>
<name>7047</name>
<sym>Dot</sym>
</trkpt>
<trkpt lat="47.742318" lon="15.778442">
<ele>618.0</ele>
<desc>Speed 73.4 km/h Distance 142 km</desc>
<time>2012-09-18T17:52:31.50</time>
<name>7048</name>
<sym>Dot</sym>
</trkpt>
<trkpt lat="47.742223" lon="15.778660">
<ele>617.5</ele>
<desc>Speed 70.0 km/h Distance 142 km</desc>
<time>2012-09-18T17:52:32.49</time>
<name>7049</name>
<sym>Dot</sym>
</trkpt>
<trkpt lat="47.742153" lon="15.778887">
<ele>617.5</ele>
<desc>Speed 67.1 km/h Distance 142 km</desc>
<time>2012-09-18T17:52:33.49</time>
<name>7050</name>
<sym>Dot</sym>
</trkpt>
<trkpt lat="47.742087" lon="15.779113">
<ele>617.0</ele>
<desc>Speed 66.3 km/h Distance 142 km</desc>
<time>2012-09-18T17:52:34.48</time>
<name>7051</name>
<sym>Dot</sym>
</trkpt>
<trkpt lat="47.742030" lon="15.779348">
<ele>617.0</ele>
<desc>Speed 66.3 km/h Distance 142 km</desc>
<time>2012-09-18T17:52:35.48</time>
<name>7052</name>
<sym>Dot</sym>
</trkpt>
<trkpt lat="47.741998" lon="15.779608">
<ele>615.0</ele>
<desc>Speed 69.9 km/h Distance 142 km</desc>
<time>2012-09-18T17:52:36.48</time>
<name>7053</name>
<sym>Dot</sym>
</trkpt>
<trkpt lat="47.742010" lon="15.779882">
<ele>615.5</ele>
<desc>Speed 72.8 km/h Distance 142 km</desc>
<time>2012-09-18T17:52:37.49</time>
<name>7054</name>
<sym>Dot</sym>
</trkpt>
<trkpt lat="47.742027" lon="15.780362">
<ele>613.0</ele>
<desc>Speed 66.4 km/h Distance 142 km</desc>
<time>2012-09-18T17:52:39.48</time>
<name>7055</name>
<sym>Dot</sym>
</trkpt>
<trkpt lat="47.742015" lon="15.780598">
<ele>613.0</ele>
<desc>Speed 64.0 km/h Distance 142 km</desc>
<time>2012-09-18T17:52:40.49</time>
<name>7056</name>
<sym>Dot</sym>
</trkpt>
<trkpt lat="47.742002" lon="15.780852">
<ele>613.0</ele>
<desc>Speed 68.4 km/h Distance 142 km</desc>
<time>2012-09-18T17:52:41.48</time>
<name>7057</name>
<sym>Dot</sym>
</trkpt>
<trkpt lat="47.741915" lon="15.781058">
<ele>612.5</ele>
<desc>Speed 65.7 km/h Distance 142 km</desc>
<time>2012-09-18T17:52:42.47</time>
<name>7058</name>
<sym>Dot</sym>
</trkpt>
<trkpt lat="47.741692" lon="15.781500">
<ele>612.0</ele>
<desc>Speed 73.0 km/h Distance 142 km</desc>
<time>2012-09-18T17:52:44.47</time>
<name>7059</name>
<sym>Dot</sym>
</trkpt>
<trkpt lat="47.741563" lon="15.781693">
<ele>612.0</ele>
<desc>Speed 73.7 km/h Distance 142 km</desc>
<time>2012-09-18T17:52:45.47</time>
<name>7060</name>
<sym>Dot</sym>
</trkpt>
<trkpt lat="47.741425" lon="15.781867">
<ele>612.0</ele>
<desc>Speed 72.4 km/h Distance 142 km</desc>
<time>2012-09-18T17:52:46.47</time>
<name>7061</name>
<sym>Dot</sym>
</trkpt>
<trkpt lat="47.741293" lon="15.782020">
<ele>612.0</ele>
<desc>Speed 67.8 km/h Distance 142 km</desc>
<time>2012-09-18T17:52:47.46</time>
<name>7062</name>
<sym>Dot</sym>
</trkpt>
<trkpt lat="47.740940" lon="15.782218">
<ele>612.0</ele>
<desc>Speed 49.1 km/h Distance 142 km</desc>
<time>2012-09-18T17:52:50.58</time>
<name>7063</name>
<sym>Dot</sym>
</trkpt>
<trkpt lat="47.740807" lon="15.782242">
<ele>612.0</ele>
<desc>Speed 54.0 km/h Distance 142 km</desc>
<time>2012-09-18T17:52:51.58</time>
<name>7064</name>
<sym>Dot</sym>
</trkpt>
<trkpt lat="47.740685" lon="15.782305">
<ele>612.0</ele>
<desc>Speed 51.6 km/h Distance 142 km</desc>
<time>2012-09-18T17:52:52.58</time>
<name>7065</name>
<sym>Dot</sym>
</trkpt>
<trkpt lat="47.740563" lon="15.782402">
<ele>612.0</ele>
<desc>Speed 54.2 km/h Distance 142 km</desc>
<time>2012-09-18T17:52:53.57</time>
<name>7066</name>
<sym>Dot</sym>
</trkpt>
<trkpt lat="47.740265" lon="15.782605">
<ele>612.0</ele>
<desc>Speed 62.9 km/h Distance 142 km</desc>
<time>2012-09-18T17:52:55.55</time>
<name>7067</name>
<sym>Dot</sym>
</trkpt>
<trkpt lat="47.740110" lon="15.782667">
<ele>612.0</ele>
<desc>Speed 64.6 km/h Distance 142 km</desc>
<time>2012-09-18T17:52:56.56</time>
<name>7068</name>
<sym>Dot</sym>
</trkpt>
<trkpt lat="47.739960" lon="15.782733">
<ele>612.0</ele>
<desc>Speed 62.9 km/h Distance 143 km</desc>
<time>2012-09-18T17:52:57.55</time>
<name>7069</name>
<sym>Dot</sym>
</trkpt>
<trkpt lat="47.739633" lon="15.782818">
<ele>612.0</ele>
<desc>Speed 63.7 km/h Distance 143 km</desc>
<time>2012-09-18T17:52:59.54</time>
<name>7070</name>
<sym>Dot</sym>
</trkpt>
<trkpt lat="47.739480" lon="15.782855">
<ele>612.0</ele>
<desc>Speed 62.0 km/h Distance 143 km</desc>
<time>2012-09-18T17:53:00.54</time>
<name>7071</name>
<sym>Dot</sym>
</trkpt>
<trkpt lat="47.739328" lon="15.782867">
<ele>612.0</ele>
<desc>Speed 61.6 km/h Distance 143 km</desc>
<time>2012-09-18T17:53:01.55</time>
<name>7072</name>
<sym>Dot</sym>
</trkpt>
<trkpt lat="47.739182" lon="15.782815">
<ele>612.0</ele>
<desc>Speed 60.9 km/h Distance 143 km</desc>
<time>2012-09-18T17:53:02.54</time>
<name>7073</name>
<sym>Dot</sym>
</trkpt>
<trkpt lat="47.739025" lon="15.782758">
<ele>611.5</ele>
<desc>Speed 64.6 km/h Distance 143 km</desc>
<time>2012-09-18T17:53:03.54</time>
<name>7074</name>
<sym>Dot</sym>
</trkpt>
<trkpt lat="47.738868" lon="15.782718">
<ele>611.5</ele>
<desc>Speed 63.1 km/h Distance 143 km</desc>
<time>2012-09-18T17:53:04.53</time>
<name>7075</name>
<sym>Dot</sym>
</trkpt>
<trkpt lat="47.738697" lon="15.782728">
<ele>609.5</ele>
<desc>Speed 66.7 km/h Distance 143 km</desc>
<time>2012-09-18T17:53:05.53</time>
<name>7076</name>
<sym>Dot</sym>
</trkpt>
<trkpt lat="47.738530" lon="15.782777">
<ele>608.0</ele>
<desc>Speed 69.5 km/h Distance 143 km</desc>
<time>2012-09-18T17:53:06.51</time>
<name>7077</name>
<sym>Dot</sym>
</trkpt>
<trkpt lat="47.738192" lon="15.782802">
<ele>607.0</ele>
<desc>Speed 73.1 km/h Distance 143 km</desc>
<time>2012-09-18T17:53:08.51</time>
<name>7078</name>
<sym>Dot</sym>
</trkpt>
<trkpt lat="47.738015" lon="15.782808">
<ele>604.0</ele>
<desc>Speed 69.5 km/h Distance 143 km</desc>
<time>2012-09-18T17:53:09.50</time>
<name>7079</name>
<sym>Dot</sym>
</trkpt>
<trkpt lat="47.737848" lon="15.782865">
<ele>604.0</ele>
<desc>Speed 68.3 km/h Distance 143 km</desc>
<time>2012-09-18T17:53:10.49</time>
<name>7080</name>
<sym>Dot</sym>
</trkpt>
<trkpt lat="47.737698" lon="15.782963">
<ele>603.5</ele>
<desc>Speed 66.4 km/h Distance 143 km</desc>
<time>2012-09-18T17:53:11.49</time>
<name>7081</name>
<sym>Dot</sym>
</trkpt>
<trkpt lat="47.737553" lon="15.783102">
<ele>603.5</ele>
<desc>Speed 70.3 km/h Distance 143 km</desc>
<time>2012-09-18T17:53:12.49</time>
<name>7082</name>
<sym>Dot</sym>
</trkpt>
<trkpt lat="47.737388" lon="15.783245">
<ele>603.5</ele>
<desc>Speed 76.8 km/h Distance 143 km</desc>
<time>2012-09-18T17:53:13.48</time>
<name>7083</name>
<sym>Dot</sym>
</trkpt>
<trkpt lat="47.737235" lon="15.783425">
<ele>603.0</ele>
<desc>Speed 77.5 km/h Distance 143 km</desc>
<time>2012-09-18T17:53:14.46</time>
<name>7084</name>
<sym>Dot</sym>
</trkpt>
<trkpt lat="47.737105" lon="15.783643">
<ele>602.0</ele>
<desc>Speed 78.8 km/h Distance 143 km</desc>
<time>2012-09-18T17:53:15.46</time>
<name>7085</name>
<sym>Dot</sym>
</trkpt>
<trkpt lat="47.736970" lon="15.783860">
<ele>601.0</ele>
<desc>Speed 78.7 km/h Distance 143 km</desc>
<time>2012-09-18T17:53:16.46</time>
<name>7086</name>
<sym>Dot</sym>
</trkpt>
<trkpt lat="47.736857" lon="15.784083">
<ele>600.5</ele>
<desc>Speed 75.3 km/h Distance 143 km</desc>
<time>2012-09-18T17:53:17.46</time>
<name>7087</name>
<sym>Dot</sym>
</trkpt>
<trkpt lat="47.736752" lon="15.784317">
<ele>600.5</ele>
<desc>Speed 76.2 km/h Distance 143 km</desc>
<time>2012-09-18T17:53:18.45</time>
<name>7088</name>
<sym>Dot</sym>
</trkpt>
<trkpt lat="47.736677" lon="15.784577">
<ele>600.5</ele>
<desc>Speed 77.2 km/h Distance 143 km</desc>
<time>2012-09-18T17:53:19.44</time>
<name>7089</name>
<sym>Dot</sym>
</trkpt>
<trkpt lat="47.736603" lon="15.784843">
<ele>600.0</ele>
<desc>Speed 78.3 km/h Distance 143 km</desc>
<time>2012-09-18T17:53:20.44</time>
<name>7090</name>
<sym>Dot</sym>
</trkpt>
<trkpt lat="47.736538" lon="15.785117">
<ele>600.0</ele>
<desc>Speed 79.1 km/h Distance 143 km</desc>
<time>2012-09-18T17:53:21.45</time>
<name>7091</name>
<sym>Dot</sym>
</trkpt>
<trkpt lat="47.736482" lon="15.785393">
<ele>600.0</ele>
<desc>Speed 78.7 km/h Distance 143 km</desc>
<time>2012-09-18T17:53:22.44</time>
<name>7092</name>
<sym>Dot</sym>
</trkpt>
<trkpt lat="47.736440" lon="15.785672">
<ele>600.0</ele>
<desc>Speed 77.3 km/h Distance 143 km</desc>
<time>2012-09-18T17:53:23.43</time>
<name>7093</name>
<sym>Dot</sym>
</trkpt>
<trkpt lat="47.736405" lon="15.785950">
<ele>600.0</ele>
<desc>Speed 76.6 km/h Distance 143 km</desc>
<time>2012-09-18T17:53:24.43</time>
<name>7094</name>
<sym>Dot</sym>
</trkpt>
<trkpt lat="47.736373" lon="15.786225">
<ele>599.5</ele>
<desc>Speed 76.0 km/h Distance 143 km</desc>
<time>2012-09-18T17:53:25.43</time>
<name>7095</name>
<sym>Dot</sym>
</trkpt>
<trkpt lat="47.736343" lon="15.786500">
<ele>599.5</ele>
<desc>Speed 75.5 km/h Distance 143 km</desc>
<time>2012-09-18T17:53:26.42</time>
<name>7096</name>
<sym>Dot</sym>
</trkpt>
<trkpt lat="47.736308" lon="15.786778">
<ele>599.5</ele>
<desc>Speed 76.6 km/h Distance 143 km</desc>
<time>2012-09-18T17:53:27.42</time>
<name>7097</name>
<sym>Dot</sym>
</trkpt>
<trkpt lat="47.736275" lon="15.787057">
<ele>599.5</ele>
<desc>Speed 76.4 km/h Distance 143 km</desc>
<time>2012-09-18T17:53:28.40</time>
<name>7098</name>
<sym>Dot</sym>
</trkpt>
<trkpt lat="47.736240" lon="15.787322">
<ele>599.5</ele>
<desc>Speed 72.9 km/h Distance 143 km</desc>
<time>2012-09-18T17:53:29.40</time>
<name>7099</name>
<sym>Dot</sym>
</trkpt>
<trkpt lat="47.736210" lon="15.787572">
<ele>599.5</ele>
<desc>Speed 68.8 km/h Distance 143 km</desc>
<time>2012-09-18T17:53:30.40</time>
<name>7100</name>
<sym>Dot</sym>
</trkpt>
<trkpt lat="47.736183" lon="15.787808">
<ele>599.5</ele>
<desc>Speed 64.7 km/h Distance 143 km</desc>
<time>2012-09-18T17:53:31.39</time>
<name>7101</name>
<sym>Dot</sym>
</trkpt>
<trkpt lat="47.736185" lon="15.788373">
<ele>599.5</ele>
<desc>Speed 47.0 km/h Distance 143 km</desc>
<time>2012-09-18T17:53:34.58</time>
<name>7102</name>
<sym>Dot</sym>
</trkpt>
<trkpt lat="47.736258" lon="15.788502">
<ele>599.5</ele>
<desc>Speed 45.4 km/h Distance 143 km</desc>
<time>2012-09-18T17:53:35.57</time>
<name>7103</name>
<sym>Dot</sym>
</trkpt>
<trkpt lat="47.736348" lon="15.788618">
<ele>599.5</ele>
<desc>Speed 48.6 km/h Distance 143 km</desc>
<time>2012-09-18T17:53:36.56</time>
<name>7104</name>
<sym>Dot</sym>
</trkpt>
<trkpt lat="47.736452" lon="15.788725">
<ele>599.0</ele>
<desc>Speed 50.3 km/h Distance 143 km</desc>
<time>2012-09-18T17:53:37.56</time>
<name>7105</name>
<sym>Dot</sym>
</trkpt>
<trkpt lat="47.736555" lon="15.788830">
<ele>599.0</ele>
<desc>Speed 50.3 km/h Distance 143 km</desc>
<time>2012-09-18T17:53:38.57</time>
<name>7106</name>
<sym>Dot</sym>
</trkpt>
<trkpt lat="47.736630" lon="15.788977">
<ele>599.0</ele>
<desc>Speed 49.6 km/h Distance 143 km</desc>
<time>2012-09-18T17:53:39.55</time>
<name>7107</name>
<sym>Dot</sym>
</trkpt>
<trkpt lat="47.736677" lon="15.789153">
<ele>599.0</ele>
<desc>Speed 51.6 km/h Distance 143 km</desc>
<time>2012-09-18T17:53:40.54</time>
<name>7108</name>
<sym>Dot</sym>
</trkpt>
<trkpt lat="47.736705" lon="15.789340">
<ele>599.0</ele>
<desc>Speed 51.7 km/h Distance 143 km</desc>
<time>2012-09-18T17:53:41.54</time>
<name>7109</name>
<sym>Dot</sym>
</trkpt>
<trkpt lat="47.736720" lon="15.789545">
<ele>599.0</ele>
<desc>Speed 56.0 km/h Distance 143 km</desc>
<time>2012-09-18T17:53:42.53</time>
<name>7110</name>
<sym>Dot</sym>
</trkpt>
<trkpt lat="47.736668" lon="15.790033">
<ele>599.0</ele>
<desc>Speed 65.8 km/h Distance 143 km</desc>
<time>2012-09-18T17:53:44.52</time>
<name>7111</name>
<sym>Dot</sym>
</trkpt>
<trkpt lat="47.736630" lon="15.790282">
<ele>599.0</ele>
<desc>Speed 69.1 km/h Distance 143 km</desc>
<time>2012-09-18T17:53:45.52</time>
<name>7112</name>
<sym>Dot</sym>
</trkpt>
<trkpt lat="47.736587" lon="15.790528">
<ele>599.0</ele>
<desc>Speed 68.6 km/h Distance 143 km</desc>
<time>2012-09-18T17:53:46.51</time>
<name>7113</name>
<sym>Dot</sym>
</trkpt>
<trkpt lat="47.736525" lon="15.790740">
<ele>599.0</ele>
<desc>Speed 62.6 km/h Distance 143 km</desc>
<time>2012-09-18T17:53:47.51</time>
<name>7114</name>
<sym>Dot</sym>
</trkpt>
<trkpt lat="47.736455" lon="15.790962">
<ele>599.0</ele>
<desc>Speed 65.9 km/h Distance 143 km</desc>
<time>2012-09-18T17:53:48.51</time>
<name>7115</name>
<sym>Dot</sym>
</trkpt>
<trkpt lat="47.736362" lon="15.791153">
<ele>599.0</ele>
<desc>Speed 62.5 km/h Distance 143 km</desc>
<time>2012-09-18T17:53:49.51</time>
<name>7116</name>
<sym>Dot</sym>
</trkpt>
<trkpt lat="47.736257" lon="15.791318">
<ele>599.0</ele>
<desc>Speed 61.1 km/h Distance 143 km</desc>
<time>2012-09-18T17:53:50.50</time>
<name>7117</name>
<sym>Dot</sym>
</trkpt>
<trkpt lat="47.736158" lon="15.791470">
<ele>599.0</ele>
<desc>Speed 57.1 km/h Distance 144 km</desc>
<time>2012-09-18T17:53:51.50</time>
<name>7118</name>
<sym>Dot</sym>
</trkpt>
<trkpt lat="47.736048" lon="15.791583">
<ele>599.0</ele>
<desc>Speed 53.5 km/h Distance 144 km</desc>
<time>2012-09-18T17:53:52.49</time>
<name>7119</name>
<sym>Dot</sym>
</trkpt>
<trkpt lat="47.735928" lon="15.791660">
<ele>599.0</ele>
<desc>Speed 53.0 km/h Distance 144 km</desc>
<time>2012-09-18T17:53:53.49</time>
<name>7120</name>
<sym>Dot</sym>
</trkpt>
<trkpt lat="47.735820" lon="15.791727">
<ele>599.0</ele>
<desc>Speed 47.6 km/h Distance 144 km</desc>
<time>2012-09-18T17:53:54.50</time>
<name>7121</name>
<sym>Dot</sym>
</trkpt>
<trkpt lat="47.735698" lon="15.791763">
<ele>599.0</ele>
<desc>Speed 49.6 km/h Distance 144 km</desc>
<time>2012-09-18T17:53:55.48</time>
<name>7122</name>
<sym>Dot</sym>
</trkpt>
<trkpt lat="47.735590" lon="15.791802">
<ele>599.0</ele>
<desc>Speed 45.5 km/h Distance 144 km</desc>
<time>2012-09-18T17:53:56.48</time>
<name>7123</name>
<sym>Dot</sym>
</trkpt>
<trkpt lat="47.735478" lon="15.791842">
<ele>599.0</ele>
<desc>Speed 45.8 km/h Distance 144 km</desc>
<time>2012-09-18T17:53:57.46</time>
<name>7124</name>
<sym>Dot</sym>
</trkpt>
<trkpt lat="47.735368" lon="15.791885">
<ele>599.0</ele>
<desc>Speed 46.1 km/h Distance 144 km</desc>
<time>2012-09-18T17:53:58.46</time>
<name>7125</name>
<sym>Dot</sym>
</trkpt>
<trkpt lat="47.735258" lon="15.791927">
<ele>599.0</ele>
<desc>Speed 46.2 km/h Distance 144 km</desc>
<time>2012-09-18T17:53:59.46</time>
<name>7126</name>
<sym>Dot</sym>
</trkpt>
<trkpt lat="47.735148" lon="15.791972">
<ele>599.0</ele>
<desc>Speed 46.0 km/h Distance 144 km</desc>
<time>2012-09-18T17:54:00.46</time>
<name>7127</name>
<sym>Dot</sym>
</trkpt>
<trkpt lat="47.735037" lon="15.792015">
<ele>599.0</ele>
<desc>Speed 46.7 km/h Distance 144 km</desc>
<time>2012-09-18T17:54:01.46</time>
<name>7128</name>
<sym>Dot</sym>
</trkpt>
<trkpt lat="47.734918" lon="15.792057">
<ele>599.0</ele>
<desc>Speed 49.1 km/h Distance 144 km</desc>
<time>2012-09-18T17:54:02.46</time>
<name>7129</name>
<sym>Dot</sym>
</trkpt>
<trkpt lat="47.734790" lon="15.792090">
<ele>599.0</ele>
<desc>Speed 52.3 km/h Distance 144 km</desc>
<time>2012-09-18T17:54:03.45</time>
<name>7130</name>
<sym>Dot</sym>
</trkpt>
<trkpt lat="47.734665" lon="15.792115">
<ele>599.0</ele>
<desc>Speed 51.4 km/h Distance 144 km</desc>
<time>2012-09-18T17:54:04.45</time>
<name>7131</name>
<sym>Dot</sym>
</trkpt>
<trkpt lat="47.734540" lon="15.792133">
<ele>599.0</ele>
<desc>Speed 50.9 km/h Distance 144 km</desc>
<time>2012-09-18T17:54:05.44</time>
<name>7132</name>
<sym>Dot</sym>
</trkpt>
<trkpt lat="47.734417" lon="15.792145">
<ele>599.0</ele>
<desc>Speed 50.0 km/h Distance 144 km</desc>
<time>2012-09-18T17:54:06.44</time>
<name>7133</name>
<sym>Dot</sym>
</trkpt>
<trkpt lat="47.734298" lon="15.792158">
<ele>599.0</ele>
<desc>Speed 47.9 km/h Distance 144 km</desc>
<time>2012-09-18T17:54:07.44</time>
<name>7134</name>
<sym>Dot</sym>
</trkpt>
<trkpt lat="47.734187" lon="15.792180">
<ele>599.0</ele>
<desc>Speed 46.0 km/h Distance 144 km</desc>
<time>2012-09-18T17:54:08.42</time>
<name>7135</name>
<sym>Dot</sym>
</trkpt>
<trkpt lat="47.734058" lon="15.792210">
<ele>599.0</ele>
<desc>Speed 52.3 km/h Distance 144 km</desc>
<time>2012-09-18T17:54:09.43</time>
<name>7136</name>
<sym>Dot</sym>
</trkpt>
<trkpt lat="47.733333" lon="15.792405">
<ele>599.0</ele>
<desc>Speed 79.2 km/h Distance 144 km</desc>
<time>2012-09-18T17:54:13.56</time>
<name>7137</name>
<sym>Dot</sym>
</trkpt>
<trkpt lat="47.733133" lon="15.792465">
<ele>599.0</ele>
<desc>Speed 82.2 km/h Distance 144 km</desc>
<time>2012-09-18T17:54:14.57</time>
<name>7138</name>
<sym>Dot</sym>
</trkpt>
<trkpt lat="47.732932" lon="15.792528">
<ele>599.0</ele>
<desc>Speed 82.3 km/h Distance 144 km</desc>
<time>2012-09-18T17:54:15.56</time>
<name>7139</name>
<sym>Dot</sym>
</trkpt>
<trkpt lat="47.732740" lon="15.792593">
<ele>599.0</ele>
<desc>Speed 79.1 km/h Distance 144 km</desc>
<time>2012-09-18T17:54:16.56</time>
<name>7140</name>
<sym>Dot</sym>
</trkpt>
<trkpt lat="47.732408" lon="15.792792">
<ele>599.0</ele>
<desc>Speed 72.3 km/h Distance 144 km</desc>
<time>2012-09-18T17:54:18.55</time>
<name>7141</name>
<sym>Dot</sym>
</trkpt>
<trkpt lat="47.732248" lon="15.792922">
<ele>599.0</ele>
<desc>Speed 73.2 km/h Distance 144 km</desc>
<time>2012-09-18T17:54:19.55</time>
<name>7142</name>
<sym>Dot</sym>
</trkpt>
<trkpt lat="47.732102" lon="15.793085">
<ele>599.0</ele>
<desc>Speed 73.3 km/h Distance 144 km</desc>
<time>2012-09-18T17:54:20.54</time>
<name>7143</name>
<sym>Dot</sym>
</trkpt>
<trkpt lat="47.731972" lon="15.793275">
<ele>599.0</ele>
<desc>Speed 73.6 km/h Distance 144 km</desc>
<time>2012-09-18T17:54:21.54</time>
<name>7144</name>
<sym>Dot</sym>
</trkpt>
<trkpt lat="47.731865" lon="15.793487">
<ele>599.0</ele>
<desc>Speed 71.8 km/h Distance 144 km</desc>
<time>2012-09-18T17:54:22.53</time>
<name>7145</name>
<sym>Dot</sym>
</trkpt>
<trkpt lat="47.731785" lon="15.793715">
<ele>599.0</ele>
<desc>Speed 69.8 km/h Distance 144 km</desc>
<time>2012-09-18T17:54:23.52</time>
<name>7146</name>
<sym>Dot</sym>
</trkpt>
<trkpt lat="47.731727" lon="15.793975">
<ele>599.0</ele>
<desc>Speed 73.9 km/h Distance 144 km</desc>
<time>2012-09-18T17:54:24.52</time>
<name>7147</name>
<sym>Dot</sym>
</trkpt>
<trkpt lat="47.731695" lon="15.794267">
<ele>599.0</ele>
<desc>Speed 79.2 km/h Distance 144 km</desc>
<time>2012-09-18T17:54:25.52</time>
<name>7148</name>
<sym>Dot</sym>
</trkpt>
<trkpt lat="47.731663" lon="15.794538">
<ele>599.0</ele>
<desc>Speed 74.4 km/h Distance 144 km</desc>
<time>2012-09-18T17:54:26.51</time>
<name>7149</name>
<sym>Dot</sym>
</trkpt>
<trkpt lat="47.731628" lon="15.794795">
<ele>599.0</ele>
<desc>Speed 70.5 km/h Distance 144 km</desc>
<time>2012-09-18T17:54:27.51</time>
<name>7150</name>
<sym>Dot</sym>
</trkpt>
<trkpt lat="47.731580" lon="15.795038">
<ele>599.0</ele>
<desc>Speed 68.8 km/h Distance 144 km</desc>
<time>2012-09-18T17:54:28.50</time>
<name>7151</name>
<sym>Dot</sym>
</trkpt>
<trkpt lat="47.731508" lon="15.795272">
<ele>599.0</ele>
<desc>Speed 68.9 km/h Distance 144 km</desc>
<time>2012-09-18T17:54:29.50</time>
<name>7152</name>
<sym>Dot</sym>
</trkpt>
<trkpt lat="47.731415" lon="15.795487">
<ele>599.0</ele>
<desc>Speed 69.3 km/h Distance 144 km</desc>
<time>2012-09-18T17:54:30.49</time>
<name>7153</name>
<sym>Dot</sym>
</trkpt>
<trkpt lat="47.731273" lon="15.795662">
<ele>599.0</ele>
<desc>Speed 73.7 km/h Distance 144 km</desc>
<time>2012-09-18T17:54:31.49</time>
<name>7154</name>
<sym>Dot</sym>
</trkpt>
<trkpt lat="47.731127" lon="15.795790">
<ele>599.0</ele>
<desc>Speed 66.5 km/h Distance 144 km</desc>
<time>2012-09-18T17:54:32.49</time>
<name>7155</name>
<sym>Dot</sym>
</trkpt>
<trkpt lat="47.730973" lon="15.795892">
<ele>599.0</ele>
<desc>Speed 65.8 km/h Distance 144 km</desc>
<time>2012-09-18T17:54:33.48</time>
<name>7156</name>
<sym>Dot</sym>
</trkpt>
<trkpt lat="47.730792" lon="15.795910">
<ele>599.0</ele>
<desc>Speed 72.2 km/h Distance 144 km</desc>
<time>2012-09-18T17:54:34.48</time>
<name>7157</name>
<sym>Dot</sym>
</trkpt>
<trkpt lat="47.730627" lon="15.795940">
<ele>599.0</ele>
<desc>Speed 66.4 km/h Distance 144 km</desc>
<time>2012-09-18T17:54:35.46</time>
<name>7158</name>
<sym>Dot</sym>
</trkpt>
<trkpt lat="47.730445" lon="15.795945">
<ele>599.0</ele>
<desc>Speed 73.4 km/h Distance 144 km</desc>
<time>2012-09-18T17:54:36.46</time>
<name>7159</name>
<sym>Dot</sym>
</trkpt>
<trkpt lat="47.730252" lon="15.795928">
<ele>599.0</ele>
<desc>Speed 78.6 km/h Distance 144 km</desc>
<time>2012-09-18T17:54:37.46</time>
<name>7160</name>
<sym>Dot</sym>
</trkpt>
<trkpt lat="47.730057" lon="15.795900">
<ele>599.0</ele>
<desc>Speed 78.6 km/h Distance 144 km</desc>
<time>2012-09-18T17:54:38.45</time>
<name>7161</name>
<sym>Dot</sym>
</trkpt>
<trkpt lat="47.729720" lon="15.795803">
<ele>599.0</ele>
<desc>Speed 71.3 km/h Distance 144 km</desc>
<time>2012-09-18T17:54:40.45</time>
<name>7162</name>
<sym>Dot</sym>
</trkpt>
<trkpt lat="47.729390" lon="15.795893">
<ele>599.0</ele>
<desc>Speed 74.1 km/h Distance 144 km</desc>
<time>2012-09-18T17:54:42.44</time>
<name>7163</name>
<sym>Dot</sym>
</trkpt>
<trkpt lat="47.729210" lon="15.795998">
<ele>599.0</ele>
<desc>Speed 78.8 km/h Distance 144 km</desc>
<time>2012-09-18T17:54:43.43</time>
<name>7164</name>
<sym>Dot</sym>
</trkpt>
<trkpt lat="47.729045" lon="15.796163">
<ele>599.0</ele>
<desc>Speed 79.9 km/h Distance 144 km</desc>
<time>2012-09-18T17:54:44.43</time>
<name>7165</name>
<sym>Dot</sym>
</trkpt>
<trkpt lat="47.728805" lon="15.796527">
<ele>599.0</ele>
<desc>Speed 72.0 km/h Distance 144 km</desc>
<time>2012-09-18T17:54:46.42</time>
<name>7166</name>
<sym>Dot</sym>
</trkpt>
<trkpt lat="47.728658" lon="15.796705">
<ele>598.5</ele>
<desc>Speed 76.7 km/h Distance 145 km</desc>
<time>2012-09-18T17:54:47.41</time>
<name>7167</name>
<sym>Dot</sym>
</trkpt>
<trkpt lat="47.728525" lon="15.796875">
<ele>598.5</ele>
<desc>Speed 71.2 km/h Distance 145 km</desc>
<time>2012-09-18T17:54:48.41</time>
<name>7168</name>
<sym>Dot</sym>
</trkpt>
<trkpt lat="47.728395" lon="15.797047">
<ele>598.5</ele>
<desc>Speed 70.4 km/h Distance 145 km</desc>
<time>2012-09-18T17:54:49.40</time>
<name>7169</name>
<sym>Dot</sym>
</trkpt>
<trkpt lat="47.728265" lon="15.797217">
<ele>598.5</ele>
<desc>Speed 70.1 km/h Distance 145 km</desc>
<time>2012-09-18T17:54:50.40</time>
<name>7170</name>
<sym>Dot</sym>
</trkpt>
<trkpt lat="47.728162" lon="15.797407">
<ele>598.5</ele>
<desc>Speed 66.1 km/h Distance 145 km</desc>
<time>2012-09-18T17:54:51.37</time>
<name>7171</name>
<sym>Dot</sym>
</trkpt>
<trkpt lat="47.728083" lon="15.797610">
<ele>598.5</ele>
<desc>Speed 64.1 km/h Distance 145 km</desc>
<time>2012-09-18T17:54:52.37</time>
<name>7172</name>
<sym>Dot</sym>
</trkpt>
<trkpt lat="47.728022" lon="15.797825">
<ele>598.5</ele>
<desc>Speed 64.0 km/h Distance 145 km</desc>
<time>2012-09-18T17:54:53.36</time>
<name>7173</name>
<sym>Dot</sym>
</trkpt>
<trkpt lat="47.727987" lon="15.798058">
<ele>598.5</ele>
<desc>Speed 65.1 km/h Distance 145 km</desc>
<time>2012-09-18T17:54:54.36</time>
<name>7174</name>
<sym>Dot</sym>
</trkpt>
<trkpt lat="47.727977" lon="15.798312">
<ele>598.5</ele>
<desc>Speed 68.9 km/h Distance 145 km</desc>
<time>2012-09-18T17:54:55.35</time>
<name>7175</name>
<sym>Dot</sym>
</trkpt>
<trkpt lat="47.727985" lon="15.798582">
<ele>598.5</ele>
<desc>Speed 72.2 km/h Distance 145 km</desc>
<time>2012-09-18T17:54:56.35</time>
<name>7176</name>
<sym>Dot</sym>
</trkpt>
<trkpt lat="47.728018" lon="15.798865">
<ele>598.5</ele>
<desc>Speed 76.2 km/h Distance 145 km</desc>
<time>2012-09-18T17:54:57.34</time>
<name>7177</name>
<sym>Dot</sym>
</trkpt>
<trkpt lat="47.728062" lon="15.799132">
<ele>598.5</ele>
<desc>Speed 73.3 km/h Distance 145 km</desc>
<time>2012-09-18T17:54:58.34</time>
<name>7178</name>
<sym>Dot</sym>
</trkpt>
<trkpt lat="47.728122" lon="15.799383">
<ele>598.5</ele>
<desc>Speed 72.4 km/h Distance 145 km</desc>
<time>2012-09-18T17:54:59.34</time>
<name>7179</name>
<sym>Dot</sym>
</trkpt>
<trkpt lat="47.728193" lon="15.799632">
<ele>598.5</ele>
<desc>Speed 73.2 km/h Distance 145 km</desc>
<time>2012-09-18T17:55:00.34</time>
<name>7180</name>
<sym>Dot</sym>
</trkpt>
<trkpt lat="47.728272" lon="15.799872">
<ele>598.5</ele>
<desc>Speed 72.3 km/h Distance 145 km</desc>
<time>2012-09-18T17:55:01.34</time>
<name>7181</name>
<sym>Dot</sym>
</trkpt>
<trkpt lat="47.728348" lon="15.800100">
<ele>598.5</ele>
<desc>Speed 69.3 km/h Distance 145 km</desc>
<time>2012-09-18T17:55:02.33</time>
<name>7182</name>
<sym>Dot</sym>
</trkpt>
<trkpt lat="47.728412" lon="15.800323">
<ele>598.5</ele>
<desc>Speed 65.6 km/h Distance 145 km</desc>
<time>2012-09-18T17:55:03.32</time>
<name>7183</name>
<sym>Dot</sym>
</trkpt>
<trkpt lat="47.728432" lon="15.800540">
<ele>598.5</ele>
<desc>Speed 59.2 km/h Distance 145 km</desc>
<time>2012-09-18T17:55:04.32</time>
<name>7184</name>
<sym>Dot</sym>
</trkpt>
<trkpt lat="47.728447" lon="15.800763">
<ele>598.5</ele>
<desc>Speed 60.9 km/h Distance 145 km</desc>
<time>2012-09-18T17:55:05.32</time>
<name>7185</name>
<sym>Dot</sym>
</trkpt>
<trkpt lat="47.728452" lon="15.801298">
<ele>598.5</ele>
<desc>Speed 66.4 km/h Distance 145 km</desc>
<time>2012-09-18T17:55:07.34</time>
<name>7186</name>
<sym>Dot</sym>
</trkpt>
<trkpt lat="47.728345" lon="15.801448">
<ele>598.5</ele>
<desc>Speed 60.0 km/h Distance 145 km</desc>
<time>2012-09-18T17:55:08.32</time>
<name>7187</name>
<sym>Dot</sym>
</trkpt>
<trkpt lat="47.728247" lon="15.801597">
<ele>598.5</ele>
<desc>Speed 57.6 km/h Distance 145 km</desc>
<time>2012-09-18T17:55:09.32</time>
<name>7188</name>
<sym>Dot</sym>
</trkpt>
<trkpt lat="47.728132" lon="15.801707">
<ele>598.5</ele>
<desc>Speed 54.3 km/h Distance 145 km</desc>
<time>2012-09-18T17:55:10.31</time>
<name>7189</name>
<sym>Dot</sym>
</trkpt>
<trkpt lat="47.727995" lon="15.801763">
<ele>598.5</ele>
<desc>Speed 57.2 km/h Distance 145 km</desc>
<time>2012-09-18T17:55:11.31</time>
<name>7190</name>
<sym>Dot</sym>
</trkpt>
<trkpt lat="47.727837" lon="15.801775">
<ele>598.5</ele>
<desc>Speed 63.6 km/h Distance 145 km</desc>
<time>2012-09-18T17:55:12.30</time>
<name>7191</name>
<sym>Dot</sym>
</trkpt>
<trkpt lat="47.727252" lon="15.801670">
<ele>598.0</ele>
<desc>Speed 81.2 km/h Distance 145 km</desc>
<time>2012-09-18T17:55:15.55</time>
<name>7192</name>
<sym>Dot</sym>
</trkpt>
<trkpt lat="47.727047" lon="15.801627">
<ele>598.0</ele>
<desc>Speed 82.5 km/h Distance 145 km</desc>
<time>2012-09-18T17:55:16.56</time>
<name>7193</name>
<sym>Dot</sym>
</trkpt>
<trkpt lat="47.726842" lon="15.801585">
<ele>598.0</ele>
<desc>Speed 82.6 km/h Distance 145 km</desc>
<time>2012-09-18T17:55:17.55</time>
<name>7194</name>
<sym>Dot</sym>
</trkpt>
<trkpt lat="47.726647" lon="15.801535">
<ele>598.0</ele>
<desc>Speed 78.6 km/h Distance 145 km</desc>
<time>2012-09-18T17:55:18.55</time>
<name>7195</name>
<sym>Dot</sym>
</trkpt>
<trkpt lat="47.726460" lon="15.801482">
<ele>598.0</ele>
<desc>Speed 74.8 km/h Distance 145 km</desc>
<time>2012-09-18T17:55:19.54</time>
<name>7196</name>
<sym>Dot</sym>
</trkpt>
<trkpt lat="47.725945" lon="15.801538">
<ele>598.0</ele>
<desc>Speed 80.9 km/h Distance 145 km</desc>
<time>2012-09-18T17:55:22.56</time>
<name>7197</name>
<sym>Dot</sym>
</trkpt>
<trkpt lat="47.725765" lon="15.801645">
<ele>598.0</ele>
<desc>Speed 77.5 km/h Distance 145 km</desc>
<time>2012-09-18T17:55:23.56</time>
<name>7198</name>
<sym>Dot</sym>
</trkpt>
<trkpt lat="47.725585" lon="15.801748">
<ele>598.0</ele>
<desc>Speed 76.9 km/h Distance 145 km</desc>
<time>2012-09-18T17:55:24.57</time>
<name>7199</name>
<sym>Dot</sym>
</trkpt>
<trkpt lat="47.725413" lon="15.801823">
<ele>598.0</ele>
<desc>Speed 71.9 km/h Distance 145 km</desc>
<time>2012-09-18T17:55:25.56</time>
<name>7200</name>
<sym>Dot</sym>
</trkpt>
<trkpt lat="47.725097" lon="15.801852">
<ele>597.5</ele>
<desc>Speed 71.2 km/h Distance 145 km</desc>
<time>2012-09-18T17:55:27.54</time>
<name>7201</name>
<sym>Dot</sym>
</trkpt>
<trkpt lat="47.724920" lon="15.801830">
<ele>597.5</ele>
<desc>Speed 70.4 km/h Distance 145 km</desc>
<time>2012-09-18T17:55:28.54</time>
<name>7202</name>
<sym>Dot</sym>
</trkpt>
<trkpt lat="47.724762" lon="15.801817">
<ele>597.5</ele>
<desc>Speed 63.4 km/h Distance 145 km</desc>
<time>2012-09-18T17:55:29.53</time>
<name>7203</name>
<sym>Dot</sym>
</trkpt>
<trkpt lat="47.724593" lon="15.801825">
<ele>597.5</ele>
<desc>Speed 66.8 km/h Distance 145 km</desc>
<time>2012-09-18T17:55:30.53</time>
<name>7204</name>
<sym>Dot</sym>
</trkpt>
<trkpt lat="47.724432" lon="15.801860">
<ele>597.5</ele>
<desc>Speed 64.5 km/h Distance 145 km</desc>
<time>2012-09-18T17:55:31.52</time>
<name>7205</name>
<sym>Dot</sym>
</trkpt>
<trkpt lat="47.724268" lon="15.801867">
<ele>597.5</ele>
<desc>Speed 63.7 km/h Distance 145 km</desc>
<time>2012-09-18T17:55:32.53</time>
<name>7206</name>
<sym>Dot</sym>
</trkpt>
<trkpt lat="47.724103" lon="15.801847">
<ele>597.5</ele>
<desc>Speed 64.7 km/h Distance 145 km</desc>
<time>2012-09-18T17:55:33.52</time>
<name>7207</name>
<sym>Dot</sym>
</trkpt>
<trkpt lat="47.723842" lon="15.801845">
<ele>597.5</ele>
<desc>Speed 52.7 km/h Distance 145 km</desc>
<time>2012-09-18T17:55:35.52</time>
<name>7208</name>
<sym>Dot</sym>
</trkpt>
<trkpt lat="47.723562" lon="15.802028">
<ele>597.5</ele>
<desc>Speed 65.2 km/h Distance 145 km</desc>
<time>2012-09-18T17:55:37.51</time>
<name>7209</name>
<sym>Dot</sym>
</trkpt>
<trkpt lat="47.723482" lon="15.802220">
<ele>597.5</ele>
<desc>Speed 61.3 km/h Distance 145 km</desc>
<time>2012-09-18T17:55:38.51</time>
<name>7210</name>
<sym>Dot</sym>
</trkpt>
<trkpt lat="47.723403" lon="15.802393">
<ele>597.5</ele>
<desc>Speed 56.5 km/h Distance 145 km</desc>
<time>2012-09-18T17:55:39.50</time>
<name>7211</name>
<sym>Dot</sym>
</trkpt>
<trkpt lat="47.723347" lon="15.802580">
<ele>597.5</ele>
<desc>Speed 55.0 km/h Distance 146 km</desc>
<time>2012-09-18T17:55:40.50</time>
<name>7212</name>
<sym>Dot</sym>
</trkpt>
<trkpt lat="47.723317" lon="15.802797">
<ele>597.5</ele>
<desc>Speed 59.8 km/h Distance 146 km</desc>
<time>2012-09-18T17:55:41.50</time>
<name>7213</name>
<sym>Dot</sym>
</trkpt>
<trkpt lat="47.723297" lon="15.803013">
<ele>597.5</ele>
<desc>Speed 58.9 km/h Distance 146 km</desc>
<time>2012-09-18T17:55:42.51</time>
<name>7214</name>
<sym>Dot</sym>
</trkpt>
<trkpt lat="47.723253" lon="15.803207">
<ele>597.5</ele>
<desc>Speed 54.8 km/h Distance 146 km</desc>
<time>2012-09-18T17:55:43.50</time>
<name>7215</name>
<sym>Dot</sym>
</trkpt>
<trkpt lat="47.723173" lon="15.803382">
<ele>597.5</ele>
<desc>Speed 57.3 km/h Distance 146 km</desc>
<time>2012-09-18T17:55:44.50</time>
<name>7216</name>
<sym>Dot</sym>
</trkpt>
<trkpt lat="47.723083" lon="15.803550">
<ele>597.5</ele>
<desc>Speed 58.0 km/h Distance 146 km</desc>
<time>2012-09-18T17:55:45.49</time>
<name>7217</name>
<sym>Dot</sym>
</trkpt>
<trkpt lat="47.722990" lon="15.803712">
<ele>597.5</ele>
<desc>Speed 58.0 km/h Distance 146 km</desc>
<time>2012-09-18T17:55:46.48</time>
<name>7218</name>
<sym>Dot</sym>
</trkpt>
<trkpt lat="47.722938" lon="15.803892">
<ele>597.5</ele>
<desc>Speed 52.7 km/h Distance 146 km</desc>
<time>2012-09-18T17:55:47.47</time>
<name>7219</name>
<sym>Dot</sym>
</trkpt>
<trkpt lat="47.722882" lon="15.804347">
<ele>597.5</ele>
<desc>Speed 63.1 km/h Distance 146 km</desc>
<time>2012-09-18T17:55:49.47</time>
<name>7220</name>
<sym>Dot</sym>
</trkpt>
<trkpt lat="47.722838" lon="15.804865">
<ele>597.5</ele>
<desc>Speed 60.8 km/h Distance 146 km</desc>
<time>2012-09-18T17:55:51.47</time>
<name>7221</name>
<sym>Dot</sym>
</trkpt>
<trkpt lat="47.722687" lon="15.805147">
<ele>597.5</ele>
<desc>Speed 48.5 km/h Distance 146 km</desc>
<time>2012-09-18T17:55:53.47</time>
<name>7222</name>
<sym>Dot</sym>
</trkpt>
<trkpt lat="47.722570" lon="15.805213">
<ele>597.5</ele>
<desc>Speed 51.1 km/h Distance 146 km</desc>
<time>2012-09-18T17:55:54.47</time>
<name>7223</name>
<sym>Dot</sym>
</trkpt>
<trkpt lat="47.722435" lon="15.805230">
<ele>597.5</ele>
<desc>Speed 54.2 km/h Distance 146 km</desc>
<time>2012-09-18T17:55:55.45</time>
<name>7224</name>
<sym>Dot</sym>
</trkpt>
<trkpt lat="47.722108" lon="15.805097">
<ele>597.5</ele>
<desc>Speed 67.0 km/h Distance 146 km</desc>
<time>2012-09-18T17:55:57.45</time>
<name>7225</name>
<sym>Dot</sym>
</trkpt>
<trkpt lat="47.721960" lon="15.804975">
<ele>597.5</ele>
<desc>Speed 67.1 km/h Distance 146 km</desc>
<time>2012-09-18T17:55:58.45</time>
<name>7226</name>
<sym>Dot</sym>
</trkpt>
<trkpt lat="47.721815" lon="15.804843">
<ele>597.5</ele>
<desc>Speed 68.8 km/h Distance 146 km</desc>
<time>2012-09-18T17:55:59.45</time>
<name>7227</name>
<sym>Dot</sym>
</trkpt>
<trkpt lat="47.721700" lon="15.804670">
<ele>597.5</ele>
<desc>Speed 65.8 km/h Distance 146 km</desc>
<time>2012-09-18T17:56:00.44</time>
<name>7228</name>
<sym>Dot</sym>
</trkpt>
<trkpt lat="47.721598" lon="15.804485">
<ele>597.5</ele>
<desc>Speed 65.2 km/h Distance 146 km</desc>
<time>2012-09-18T17:56:01.43</time>
<name>7229</name>
<sym>Dot</sym>
</trkpt>
<trkpt lat="47.721432" lon="15.804030">
<ele>597.5</ele>
<desc>Speed 66.5 km/h Distance 146 km</desc>
<time>2012-09-18T17:56:03.42</time>
<name>7230</name>
<sym>Dot</sym>
</trkpt>
<trkpt lat="47.721343" lon="15.803797">
<ele>597.5</ele>
<desc>Speed 72.4 km/h Distance 146 km</desc>
<time>2012-09-18T17:56:04.42</time>
<name>7231</name>
<sym>Dot</sym>
</trkpt>
<trkpt lat="47.720927" lon="15.803447">
<ele>597.5</ele>
<desc>Speed 52.1 km/h Distance 146 km</desc>
<time>2012-09-18T17:56:08.56</time>
<name>7232</name>
<sym>Dot</sym>
</trkpt>
<trkpt lat="47.720792" lon="15.803462">
<ele>597.5</ele>
<desc>Speed 57.3 km/h Distance 146 km</desc>
<time>2012-09-18T17:56:09.56</time>
<name>7233</name>
<sym>Dot</sym>
</trkpt>
<trkpt lat="47.720640" lon="15.803500">
<ele>597.5</ele>
<desc>Speed 63.8 km/h Distance 146 km</desc>
<time>2012-09-18T17:56:10.55</time>
<name>7234</name>
<sym>Dot</sym>
</trkpt>
<trkpt lat="47.720493" lon="15.803577">
<ele>597.5</ele>
<desc>Speed 62.6 km/h Distance 146 km</desc>
<time>2012-09-18T17:56:11.55</time>
<name>7235</name>
<sym>Dot</sym>
</trkpt>
<trkpt lat="47.720348" lon="15.803703">
<ele>597.5</ele>
<desc>Speed 68.2 km/h Distance 146 km</desc>
<time>2012-09-18T17:56:12.53</time>
<name>7236</name>
<sym>Dot</sym>
</trkpt>
<trkpt lat="47.720220" lon="15.803867">
<ele>597.5</ele>
<desc>Speed 68.0 km/h Distance 146 km</desc>
<time>2012-09-18T17:56:13.54</time>
<name>7237</name>
<sym>Dot</sym>
</trkpt>
<trkpt lat="47.720088" lon="15.804053">
<ele>597.5</ele>
<desc>Speed 73.3 km/h Distance 146 km</desc>
<time>2012-09-18T17:56:14.53</time>
<name>7238</name>
<sym>Dot</sym>
</trkpt>
<trkpt lat="47.719952" lon="15.804242">
<ele>597.5</ele>
<desc>Speed 75.4 km/h Distance 146 km</desc>
<time>2012-09-18T17:56:15.52</time>
<name>7239</name>
<sym>Dot</sym>
</trkpt>
<trkpt lat="47.719800" lon="15.804395">
<ele>597.0</ele>
<desc>Speed 74.2 km/h Distance 146 km</desc>
<time>2012-09-18T17:56:16.52</time>
<name>7240</name>
<sym>Dot</sym>
</trkpt>
<trkpt lat="47.719670" lon="15.804560">
<ele>597.0</ele>
<desc>Speed 69.4 km/h Distance 146 km</desc>
<time>2012-09-18T17:56:17.52</time>
<name>7241</name>
<sym>Dot</sym>
</trkpt>
<trkpt lat="47.719567" lon="15.804758">
<ele>597.0</ele>
<desc>Speed 68.6 km/h Distance 146 km</desc>
<time>2012-09-18T17:56:18.52</time>
<name>7242</name>
<sym>Dot</sym>
</trkpt>
<trkpt lat="47.719485" lon="15.804982">
<ele>597.0</ele>
<desc>Speed 69.3 km/h Distance 146 km</desc>
<time>2012-09-18T17:56:19.51</time>
<name>7243</name>
<sym>Dot</sym>
</trkpt>
<trkpt lat="47.719400" lon="15.805192">
<ele>597.0</ele>
<desc>Speed 66.3 km/h Distance 146 km</desc>
<time>2012-09-18T17:56:20.51</time>
<name>7244</name>
<sym>Dot</sym>
</trkpt>
<trkpt lat="47.719295" lon="15.805395">
<ele>597.0</ele>
<desc>Speed 70.4 km/h Distance 146 km</desc>
<time>2012-09-18T17:56:21.51</time>
<name>7245</name>
<sym>Dot</sym>
</trkpt>
<trkpt lat="47.719177" lon="15.805607">
<ele>597.0</ele>
<desc>Speed 75.5 km/h Distance 146 km</desc>
<time>2012-09-18T17:56:22.51</time>
<name>7246</name>
<sym>Dot</sym>
</trkpt>
<trkpt lat="47.719058" lon="15.805822">
<ele>597.0</ele>
<desc>Speed 75.7 km/h Distance 146 km</desc>
<time>2012-09-18T17:56:23.50</time>
<name>7247</name>
<sym>Dot</sym>
</trkpt>
<trkpt lat="47.718948" lon="15.806027">
<ele>597.0</ele>
<desc>Speed 71.8 km/h Distance 146 km</desc>
<time>2012-09-18T17:56:24.49</time>
<name>7248</name>
<sym>Dot</sym>
</trkpt>
<trkpt lat="47.718843" lon="15.806218">
<ele>597.0</ele>
<desc>Speed 67.9 km/h Distance 146 km</desc>
<time>2012-09-18T17:56:25.49</time>
<name>7249</name>
<sym>Dot</sym>
</trkpt>
<trkpt lat="47.718745" lon="15.806400">
<ele>597.0</ele>
<desc>Speed 64.3 km/h Distance 146 km</desc>
<time>2012-09-18T17:56:26.49</time>
<name>7250</name>
<sym>Dot</sym>
</trkpt>
<trkpt lat="47.718632" lon="15.806545">
<ele>597.0</ele>
<desc>Speed 62.0 km/h Distance 146 km</desc>
<time>2012-09-18T17:56:27.48</time>
<name>7251</name>
<sym>Dot</sym>
</trkpt>
<trkpt lat="47.718503" lon="15.806668">
<ele>597.0</ele>
<desc>Speed 63.0 km/h Distance 146 km</desc>
<time>2012-09-18T17:56:28.48</time>
<name>7252</name>
<sym>Dot</sym>
</trkpt>
<trkpt lat="47.718365" lon="15.806753">
<ele>597.0</ele>
<desc>Speed 61.6 km/h Distance 146 km</desc>
<time>2012-09-18T17:56:29.47</time>
<name>7253</name>
<sym>Dot</sym>
</trkpt>
<trkpt lat="47.718102" lon="15.806788">
<ele>597.0</ele>
<desc>Speed 63.4 km/h Distance 146 km</desc>
<time>2012-09-18T17:56:31.46</time>
<name>7254</name>
<sym>Dot</sym>
</trkpt>
<trkpt lat="47.717933" lon="15.806728">
<ele>597.0</ele>
<desc>Speed 67.7 km/h Distance 146 km</desc>
<time>2012-09-18T17:56:32.45</time>
<name>7255</name>
<sym>Dot</sym>
</trkpt>
<trkpt lat="47.717557" lon="15.806555">
<ele>595.0</ele>
<desc>Speed 76.5 km/h Distance 146 km</desc>
<time>2012-09-18T17:56:34.44</time>
<name>7256</name>
<sym>Dot</sym>
</trkpt>
<trkpt lat="47.717385" lon="15.806427">
<ele>593.5</ele>
<desc>Speed 76.0 km/h Distance 146 km</desc>
<time>2012-09-18T17:56:35.44</time>
<name>7257</name>
<sym>Dot</sym>
</trkpt>
<trkpt lat="47.717217" lon="15.806252">
<ele>594.5</ele>
<desc>Speed 81.9 km/h Distance 146 km</desc>
<time>2012-09-18T17:56:36.43</time>
<name>7258</name>
<sym>Dot</sym>
</trkpt>
<trkpt lat="47.717048" lon="15.806075">
<ele>593.5</ele>
<desc>Speed 81.6 km/h Distance 147 km</desc>
<time>2012-09-18T17:56:37.42</time>
<name>7259</name>
<sym>Dot</sym>
</trkpt>
<trkpt lat="47.716878" lon="15.805900">
<ele>593.5</ele>
<desc>Speed 81.8 km/h Distance 147 km</desc>
<time>2012-09-18T17:56:38.40</time>
<name>7260</name>
<sym>Dot</sym>
</trkpt>
<trkpt lat="47.716717" lon="15.805730">
<ele>593.0</ele>
<desc>Speed 79.0 km/h Distance 147 km</desc>
<time>2012-09-18T17:56:39.40</time>
<name>7261</name>
<sym>Dot</sym>
</trkpt>
<trkpt lat="47.716562" lon="15.805567">
<ele>592.5</ele>
<desc>Speed 75.4 km/h Distance 147 km</desc>
<time>2012-09-18T17:56:40.39</time>
<name>7262</name>
<sym>Dot</sym>
</trkpt>
<trkpt lat="47.716418" lon="15.805422">
<ele>593.5</ele>
<desc>Speed 69.3 km/h Distance 147 km</desc>
<time>2012-09-18T17:56:41.39</time>
<name>7263</name>
<sym>Dot</sym>
</trkpt>
<trkpt lat="47.716275" lon="15.805290">
<ele>593.5</ele>
<desc>Speed 68.2 km/h Distance 147 km</desc>
<time>2012-09-18T17:56:42.39</time>
<name>7264</name>
<sym>Dot</sym>
</trkpt>
<trkpt lat="47.716127" lon="15.805168">
<ele>593.0</ele>
<desc>Speed 68.2 km/h Distance 147 km</desc>
<time>2012-09-18T17:56:43.38</time>
<name>7265</name>
<sym>Dot</sym>
</trkpt>
<trkpt lat="47.715963" lon="15.805070">
<ele>591.5</ele>
<desc>Speed 63.5 km/h Distance 147 km</desc>
<time>2012-09-18T17:56:44.38</time>
<name>7266</name>
<sym>Dot</sym>
</trkpt>
<trkpt lat="47.715797" lon="15.804988">
<ele>590.0</ele>
<desc>Speed 64.7 km/h Distance 147 km</desc>
<time>2012-09-18T17:56:45.37</time>
<name>7267</name>
<sym>Dot</sym>
</trkpt>
<trkpt lat="47.715632" lon="15.804948">
<ele>590.5</ele>
<desc>Speed 67.3 km/h Distance 147 km</desc>
<time>2012-09-18T17:56:46.37</time>
<name>7268</name>
<sym>Dot</sym>
</trkpt>
<trkpt lat="47.715473" lon="15.804938">
<ele>588.5</ele>
<desc>Speed 63.7 km/h Distance 147 km</desc>
<time>2012-09-18T17:56:47.36</time>
<name>7269</name>
<sym>Dot</sym>
</trkpt>
<trkpt lat="47.715320" lon="15.804947">
<ele>588.5</ele>
<desc>Speed 61.5 km/h Distance 147 km</desc>
<time>2012-09-18T17:56:48.36</time>
<name>7270</name>
<sym>Dot</sym>
</trkpt>
<trkpt lat="47.715182" lon="15.804980">
<ele>587.0</ele>
<desc>Speed 56.3 km/h Distance 147 km</desc>
<time>2012-09-18T17:56:49.36</time>
<name>7271</name>
<sym>Dot</sym>
</trkpt>
<trkpt lat="47.715047" lon="15.805018">
<ele>586.5</ele>
<desc>Speed 55.1 km/h Distance 147 km</desc>
<time>2012-09-18T17:56:50.36</time>
<name>7272</name>
<sym>Dot</sym>
</trkpt>
<trkpt lat="47.714925" lon="15.805068">
<ele>588.5</ele>
<desc>Speed 50.8 km/h Distance 147 km</desc>
<time>2012-09-18T17:56:51.35</time>
<name>7273</name>
<sym>Dot</sym>
</trkpt>
<trkpt lat="47.714797" lon="15.805112">
<ele>588.0</ele>
<desc>Speed 52.6 km/h Distance 147 km</desc>
<time>2012-09-18T17:56:52.35</time>
<name>7274</name>
<sym>Dot</sym>
</trkpt>
<trkpt lat="47.714667" lon="15.805158">
<ele>588.5</ele>
<desc>Speed 53.5 km/h Distance 147 km</desc>
<time>2012-09-18T17:56:53.35</time>
<name>7275</name>
<sym>Dot</sym>
</trkpt>
<trkpt lat="47.714537" lon="15.805212">
<ele>588.0</ele>
<desc>Speed 53.6 km/h Distance 147 km</desc>
<time>2012-09-18T17:56:54.34</time>
<name>7276</name>
<sym>Dot</sym>
</trkpt>
<trkpt lat="47.714408" lon="15.805270">
<ele>588.5</ele>
<desc>Speed 53.4 km/h Distance 147 km</desc>
<time>2012-09-18T17:56:55.34</time>
<name>7277</name>
<sym>Dot</sym>
</trkpt>
<trkpt lat="47.714283" lon="15.805333">
<ele>588.5</ele>
<desc>Speed 53.1 km/h Distance 147 km</desc>
<time>2012-09-18T17:56:56.33</time>
<name>7278</name>
<sym>Dot</sym>
</trkpt>
<trkpt lat="47.714162" lon="15.805400">
<ele>588.0</ele>
<desc>Speed 51.7 km/h Distance 147 km</desc>
<time>2012-09-18T17:56:57.34</time>
<name>7279</name>
<sym>Dot</sym>
</trkpt>
<trkpt lat="47.714040" lon="15.805465">
<ele>588.0</ele>
<desc>Speed 51.9 km/h Distance 147 km</desc>
<time>2012-09-18T17:56:58.34</time>
<name>7280</name>
<sym>Dot</sym>
</trkpt>
<trkpt lat="47.713910" lon="15.805523">
<ele>588.0</ele>
<desc>Speed 53.9 km/h Distance 147 km</desc>
<time>2012-09-18T17:56:59.33</time>
<name>7281</name>
<sym>Dot</sym>
</trkpt>
<trkpt lat="47.713777" lon="15.805577">
<ele>588.0</ele>
<desc>Speed 55.6 km/h Distance 147 km</desc>
<time>2012-09-18T17:57:00.31</time>
<name>7282</name>
<sym>Dot</sym>
</trkpt>
<trkpt lat="47.713638" lon="15.805627">
<ele>588.0</ele>
<desc>Speed 56.3 km/h Distance 147 km</desc>
<time>2012-09-18T17:57:01.31</time>
<name>7283</name>
<sym>Dot</sym>
</trkpt>
<trkpt lat="47.713505" lon="15.805677">
<ele>588.0</ele>
<desc>Speed 55.5 km/h Distance 147 km</desc>
<time>2012-09-18T17:57:02.30</time>
<name>7284</name>
<sym>Dot</sym>
</trkpt>
<trkpt lat="47.713372" lon="15.805727">
<ele>588.0</ele>
<desc>Speed 55.0 km/h Distance 147 km</desc>
<time>2012-09-18T17:57:03.30</time>
<name>7285</name>
<sym>Dot</sym>
</trkpt>
<trkpt lat="47.713238" lon="15.805775">
<ele>587.5</ele>
<desc>Speed 55.4 km/h Distance 147 km</desc>
<time>2012-09-18T17:57:04.29</time>
<name>7286</name>
<sym>Dot</sym>
</trkpt>
<trkpt lat="47.713102" lon="15.805823">
<ele>587.0</ele>
<desc>Speed 56.0 km/h Distance 147 km</desc>
<time>2012-09-18T17:57:05.29</time>
<name>7287</name>
<sym>Dot</sym>
</trkpt>
<trkpt lat="47.712965" lon="15.805872">
<ele>586.5</ele>
<desc>Speed 56.4 km/h Distance 147 km</desc>
<time>2012-09-18T17:57:06.29</time>
<name>7288</name>
<sym>Dot</sym>
</trkpt>
<trkpt lat="47.712698" lon="15.805963">
<ele>586.0</ele>
<desc>Speed 54.2 km/h Distance 147 km</desc>
<time>2012-09-18T17:57:08.28</time>
<name>7289</name>
<sym>Dot</sym>
</trkpt>
<trkpt lat="47.712568" lon="15.806005">
<ele>586.0</ele>
<desc>Speed 53.7 km/h Distance 147 km</desc>
<time>2012-09-18T17:57:09.28</time>
<name>7290</name>
<sym>Dot</sym>
</trkpt>
<trkpt lat="47.712433" lon="15.806038">
<ele>585.5</ele>
<desc>Speed 54.6 km/h Distance 147 km</desc>
<time>2012-09-18T17:57:10.28</time>
<name>7291</name>
<sym>Dot</sym>
</trkpt>
<trkpt lat="47.712292" lon="15.806062">
<ele>585.5</ele>
<desc>Speed 56.6 km/h Distance 147 km</desc>
<time>2012-09-18T17:57:11.27</time>
<name>7292</name>
<sym>Dot</sym>
</trkpt>
<trkpt lat="47.712147" lon="15.806075">
<ele>585.0</ele>
<desc>Speed 55.7 km/h Distance 147 km</desc>
<time>2012-09-18T17:57:12.26</time>
<name>7293</name>
<sym>Dot</sym>
</trkpt>
<trkpt lat="47.712003" lon="15.806085">
<ele>584.5</ele>
<desc>Speed 55.7 km/h Distance 147 km</desc>
<time>2012-09-18T17:57:13.26</time>
<name>7294</name>
<sym>Dot</sym>
</trkpt>
<trkpt lat="47.711872" lon="15.806098">
<ele>584.0</ele>
<desc>Speed 52.7 km/h Distance 147 km</desc>
<time>2012-09-18T17:57:14.26</time>
<name>7295</name>
<sym>Dot</sym>
</trkpt>
<trkpt lat="47.711742" lon="15.806113">
<ele>584.5</ele>
<desc>Speed 51.9 km/h Distance 147 km</desc>
<time>2012-09-18T17:57:15.27</time>
<name>7296</name>
<sym>Dot</sym>
</trkpt>
<trkpt lat="47.711485" lon="15.806155">
<ele>585.0</ele>
<desc>Speed 52.8 km/h Distance 147 km</desc>
<time>2012-09-18T17:57:17.26</time>
<name>7297</name>
<sym>Dot</sym>
</trkpt>
<trkpt lat="47.711352" lon="15.806188">
<ele>585.0</ele>
<desc>Speed 53.6 km/h Distance 147 km</desc>
<time>2012-09-18T17:57:18.25</time>
<name>7298</name>
<sym>Dot</sym>
</trkpt>
<trkpt lat="47.711220" lon="15.806230">
<ele>585.0</ele>
<desc>Speed 54.0 km/h Distance 147 km</desc>
<time>2012-09-18T17:57:19.25</time>
<name>7299</name>
<sym>Dot</sym>
</trkpt>
<trkpt lat="47.711088" lon="15.806273">
<ele>585.0</ele>
<desc>Speed 53.7 km/h Distance 147 km</desc>
<time>2012-09-18T17:57:20.23</time>
<name>7300</name>
<sym>Dot</sym>
</trkpt>
<trkpt lat="47.710955" lon="15.806317">
<ele>585.0</ele>
<desc>Speed 53.9 km/h Distance 147 km</desc>
<time>2012-09-18T17:57:21.24</time>
<name>7301</name>
<sym>Dot</sym>
</trkpt>
<trkpt lat="47.710823" lon="15.806362">
<ele>585.0</ele>
<desc>Speed 54.2 km/h Distance 147 km</desc>
<time>2012-09-18T17:57:22.23</time>
<name>7302</name>
<sym>Dot</sym>
</trkpt>
<trkpt lat="47.710692" lon="15.806405">
<ele>585.0</ele>
<desc>Speed 54.4 km/h Distance 147 km</desc>
<time>2012-09-18T17:57:23.23</time>
<name>7303</name>
<sym>Dot</sym>
</trkpt>
<trkpt lat="47.710562" lon="15.806450">
<ele>585.0</ele>
<desc>Speed 54.5 km/h Distance 147 km</desc>
<time>2012-09-18T17:57:24.23</time>
<name>7304</name>
<sym>Dot</sym>
</trkpt>
<trkpt lat="47.710427" lon="15.806493">
<ele>584.5</ele>
<desc>Speed 55.1 km/h Distance 147 km</desc>
<time>2012-09-18T17:57:25.22</time>
<name>7305</name>
<sym>Dot</sym>
</trkpt>
<trkpt lat="47.710292" lon="15.806535">
<ele>584.5</ele>
<desc>Speed 55.4 km/h Distance 147 km</desc>
<time>2012-09-18T17:57:26.22</time>
<name>7306</name>
<sym>Dot</sym>
</trkpt>
<trkpt lat="47.710157" lon="15.806575">
<ele>584.5</ele>
<desc>Speed 54.8 km/h Distance 147 km</desc>
<time>2012-09-18T17:57:27.22</time>
<name>7307</name>
<sym>Dot</sym>
</trkpt>
<trkpt lat="47.710028" lon="15.806620">
<ele>584.0</ele>
<desc>Speed 53.0 km/h Distance 147 km</desc>
<time>2012-09-18T17:57:28.21</time>
<name>7308</name>
<sym>Dot</sym>
</trkpt>
<trkpt lat="47.709888" lon="15.806652">
<ele>585.0</ele>
<desc>Speed 56.2 km/h Distance 147 km</desc>
<time>2012-09-18T17:57:29.21</time>
<name>7309</name>
<sym>Dot</sym>
</trkpt>
<trkpt lat="47.709757" lon="15.806687">
<ele>584.5</ele>
<desc>Speed 53.9 km/h Distance 147 km</desc>
<time>2012-09-18T17:57:30.20</time>
<name>7310</name>
<sym>Dot</sym>
</trkpt>
<trkpt lat="47.709625" lon="15.806720">
<ele>584.5</ele>
<desc>Speed 53.4 km/h Distance 147 km</desc>
<time>2012-09-18T17:57:31.20</time>
<name>7311</name>
<sym>Dot</sym>
</trkpt>
<trkpt lat="47.709492" lon="15.806755">
<ele>584.0</ele>
<desc>Speed 53.9 km/h Distance 147 km</desc>
<time>2012-09-18T17:57:32.19</time>
<name>7312</name>
<sym>Dot</sym>
</trkpt>
<trkpt lat="47.709358" lon="15.806792">
<ele>583.0</ele>
<desc>Speed 54.1 km/h Distance 147 km</desc>
<time>2012-09-18T17:57:33.19</time>
<name>7313</name>
<sym>Dot</sym>
</trkpt>
<trkpt lat="47.709228" lon="15.806838">
<ele>582.5</ele>
<desc>Speed 54.3 km/h Distance 147 km</desc>
<time>2012-09-18T17:57:34.19</time>
<name>7314</name>
<sym>Dot</sym>
</trkpt>
<trkpt lat="47.709098" lon="15.806902">
<ele>582.5</ele>
<desc>Speed 54.8 km/h Distance 147 km</desc>
<time>2012-09-18T17:57:35.19</time>
<name>7315</name>
<sym>Dot</sym>
</trkpt>
<trkpt lat="47.708973" lon="15.806977">
<ele>582.0</ele>
<desc>Speed 54.5 km/h Distance 147 km</desc>
<time>2012-09-18T17:57:36.18</time>
<name>7316</name>
<sym>Dot</sym>
</trkpt>
<trkpt lat="47.708843" lon="15.807053">
<ele>580.5</ele>
<desc>Speed 54.4 km/h Distance 147 km</desc>
<time>2012-09-18T17:57:37.18</time>
<name>7317</name>
<sym>Dot</sym>
</trkpt>
<trkpt lat="47.708713" lon="15.807140">
<ele>578.5</ele>
<desc>Speed 54.5 km/h Distance 147 km</desc>
<time>2012-09-18T17:57:38.17</time>
<name>7318</name>
<sym>Dot</sym>
</trkpt>
<trkpt lat="47.708595" lon="15.807237">
<ele>578.5</ele>
<desc>Speed 54.5 km/h Distance 148 km</desc>
<time>2012-09-18T17:57:39.16</time>
<name>7319</name>
<sym>Dot</sym>
</trkpt>
<trkpt lat="47.708475" lon="15.807338">
<ele>578.5</ele>
<desc>Speed 54.9 km/h Distance 148 km</desc>
<time>2012-09-18T17:57:40.15</time>
<name>7320</name>
<sym>Dot</sym>
</trkpt>
<trkpt lat="47.708360" lon="15.807443">
<ele>578.5</ele>
<desc>Speed 54.2 km/h Distance 148 km</desc>
<time>2012-09-18T17:57:41.15</time>
<name>7321</name>
<sym>Dot</sym>
</trkpt>
<trkpt lat="47.708253" lon="15.807562">
<ele>578.0</ele>
<desc>Speed 53.6 km/h Distance 148 km</desc>
<time>2012-09-18T17:57:42.14</time>
<name>7322</name>
<sym>Dot</sym>
</trkpt>
<trkpt lat="47.708153" lon="15.807692">
<ele>578.0</ele>
<desc>Speed 53.9 km/h Distance 148 km</desc>
<time>2012-09-18T17:57:43.14</time>
<name>7323</name>
<sym>Dot</sym>
</trkpt>
<trkpt lat="47.708053" lon="15.807837">
<ele>577.5</ele>
<desc>Speed 55.6 km/h Distance 148 km</desc>
<time>2012-09-18T17:57:44.13</time>
<name>7324</name>
<sym>Dot</sym>
</trkpt>
<trkpt lat="47.707952" lon="15.807995">
<ele>577.0</ele>
<desc>Speed 59.3 km/h Distance 148 km</desc>
<time>2012-09-18T17:57:45.13</time>
<name>7325</name>
<sym>Dot</sym>
</trkpt>
<trkpt lat="47.707852" lon="15.808153">
<ele>577.0</ele>
<desc>Speed 58.6 km/h Distance 148 km</desc>
<time>2012-09-18T17:57:46.12</time>
<name>7326</name>
<sym>Dot</sym>
</trkpt>
<trkpt lat="47.707757" lon="15.808300">
<ele>577.0</ele>
<desc>Speed 54.4 km/h Distance 148 km</desc>
<time>2012-09-18T17:57:47.12</time>
<name>7327</name>
<sym>Dot</sym>
</trkpt>
<trkpt lat="47.707665" lon="15.808445">
<ele>577.0</ele>
<desc>Speed 53.9 km/h Distance 148 km</desc>
<time>2012-09-18T17:57:48.11</time>
<name>7328</name>
<sym>Dot</sym>
</trkpt>
<trkpt lat="47.707573" lon="15.808587">
<ele>577.0</ele>
<desc>Speed 52.7 km/h Distance 148 km</desc>
<time>2012-09-18T17:57:49.11</time>
<name>7329</name>
<sym>Dot</sym>
</trkpt>
<trkpt lat="47.707480" lon="15.808730">
<ele>577.0</ele>
<desc>Speed 53.5 km/h Distance 148 km</desc>
<time>2012-09-18T17:57:50.10</time>
<name>7330</name>
<sym>Dot</sym>
</trkpt>
<trkpt lat="47.707385" lon="15.808873">
<ele>577.0</ele>
<desc>Speed 54.1 km/h Distance 148 km</desc>
<time>2012-09-18T17:57:51.10</time>
<name>7331</name>
<sym>Dot</sym>
</trkpt>
<trkpt lat="47.707290" lon="15.809017">
<ele>577.0</ele>
<desc>Speed 54.1 km/h Distance 148 km</desc>
<time>2012-09-18T17:57:52.09</time>
<name>7332</name>
<sym>Dot</sym>
</trkpt>
<trkpt lat="47.707193" lon="15.809162">
<ele>577.0</ele>
<desc>Speed 55.3 km/h Distance 148 km</desc>
<time>2012-09-18T17:57:53.09</time>
<name>7333</name>
<sym>Dot</sym>
</trkpt>
<trkpt lat="47.707093" lon="15.809312">
<ele>577.0</ele>
<desc>Speed 56.9 km/h Distance 148 km</desc>
<time>2012-09-18T17:57:54.08</time>
<name>7334</name>
<sym>Dot</sym>
</trkpt>
<trkpt lat="47.706985" lon="15.809465">
<ele>575.5</ele>
<desc>Speed 58.6 km/h Distance 148 km</desc>
<time>2012-09-18T17:57:55.08</time>
<name>7335</name>
<sym>Dot</sym>
</trkpt>
<trkpt lat="47.706882" lon="15.809613">
<ele>575.5</ele>
<desc>Speed 57.3 km/h Distance 148 km</desc>
<time>2012-09-18T17:57:56.07</time>
<name>7336</name>
<sym>Dot</sym>
</trkpt>
<trkpt lat="47.706783" lon="15.809750">
<ele>575.5</ele>
<desc>Speed 54.3 km/h Distance 148 km</desc>
<time>2012-09-18T17:57:57.07</time>
<name>7337</name>
<sym>Dot</sym>
</trkpt>
<trkpt lat="47.706688" lon="15.809883">
<ele>575.5</ele>
<desc>Speed 52.3 km/h Distance 148 km</desc>
<time>2012-09-18T17:57:58.06</time>
<name>7338</name>
<sym>Dot</sym>
</trkpt>
<trkpt lat="47.706592" lon="15.810013">
<ele>575.5</ele>
<desc>Speed 52.6 km/h Distance 148 km</desc>
<time>2012-09-18T17:57:59.06</time>
<name>7339</name>
<sym>Dot</sym>
</trkpt>
<trkpt lat="47.706490" lon="15.810153">
<ele>575.5</ele>
<desc>Speed 55.4 km/h Distance 148 km</desc>
<time>2012-09-18T17:58:00.05</time>
<name>7340</name>
<sym>Dot</sym>
</trkpt>
<trkpt lat="47.706383" lon="15.810295">
<ele>575.0</ele>
<desc>Speed 57.7 km/h Distance 148 km</desc>
<time>2012-09-18T17:58:01.04</time>
<name>7341</name>
<sym>Dot</sym>
</trkpt>
<trkpt lat="47.706272" lon="15.810442">
<ele>575.0</ele>
<desc>Speed 59.6 km/h Distance 148 km</desc>
<time>2012-09-18T17:58:02.04</time>
<name>7342</name>
<sym>Dot</sym>
</trkpt>
<trkpt lat="47.706163" lon="15.810580">
<ele>575.0</ele>
<desc>Speed 57.6 km/h Distance 148 km</desc>
<time>2012-09-18T17:58:03.04</time>
<name>7343</name>
<sym>Dot</sym>
</trkpt>
<trkpt lat="47.706057" lon="15.810712">
<ele>574.5</ele>
<desc>Speed 55.4 km/h Distance 148 km</desc>
<time>2012-09-18T17:58:04.04</time>
<name>7344</name>
<sym>Dot</sym>
</trkpt>
<trkpt lat="47.705952" lon="15.810842">
<ele>574.0</ele>
<desc>Speed 54.5 km/h Distance 148 km</desc>
<time>2012-09-18T17:58:05.02</time>
<name>7345</name>
<sym>Dot</sym>
</trkpt>
<trkpt lat="47.705848" lon="15.810972">
<ele>574.0</ele>
<desc>Speed 55.1 km/h Distance 148 km</desc>
<time>2012-09-18T17:58:06.02</time>
<name>7346</name>
<sym>Dot</sym>
</trkpt>
<trkpt lat="47.705743" lon="15.811103">
<ele>573.5</ele>
<desc>Speed 55.6 km/h Distance 148 km</desc>
<time>2012-09-18T17:58:07.02</time>
<name>7347</name>
<sym>Dot</sym>
</trkpt>
<trkpt lat="47.705635" lon="15.811233">
<ele>573.5</ele>
<desc>Speed 55.7 km/h Distance 148 km</desc>
<time>2012-09-18T17:58:08.01</time>
<name>7348</name>
<sym>Dot</sym>
</trkpt>
<trkpt lat="47.705528" lon="15.811363">
<ele>573.0</ele>
<desc>Speed 55.7 km/h Distance 148 km</desc>
<time>2012-09-18T17:58:09.00</time>
<name>7349</name>
<sym>Dot</sym>
</trkpt>
<trkpt lat="47.705418" lon="15.811493">
<ele>573.0</ele>
<desc>Speed 56.2 km/h Distance 148 km</desc>
<time>2012-09-18T17:58:09.99</time>
<name>7350</name>
<sym>Dot</sym>
</trkpt>
<trkpt lat="47.705308" lon="15.811620">
<ele>572.5</ele>
<desc>Speed 56.6 km/h Distance 148 km</desc>
<time>2012-09-18T17:58:10.99</time>
<name>7351</name>
<sym>Dot</sym>
</trkpt>
<trkpt lat="47.705195" lon="15.811747">
<ele>572.0</ele>
<desc>Speed 56.9 km/h Distance 148 km</desc>
<time>2012-09-18T17:58:11.98</time>
<name>7352</name>
<sym>Dot</sym>
</trkpt>
<trkpt lat="47.705078" lon="15.811870">
<ele>571.5</ele>
<desc>Speed 57.2 km/h Distance 148 km</desc>
<time>2012-09-18T17:58:12.99</time>
<name>7353</name>
<sym>Dot</sym>
</trkpt>
<trkpt lat="47.704962" lon="15.811993">
<ele>571.5</ele>
<desc>Speed 57.5 km/h Distance 148 km</desc>
<time>2012-09-18T17:58:13.98</time>
<name>7354</name>
<sym>Dot</sym>
</trkpt>
<trkpt lat="47.704847" lon="15.812120">
<ele>571.5</ele>
<desc>Speed 57.2 km/h Distance 148 km</desc>
<time>2012-09-18T17:58:14.98</time>
<name>7355</name>
<sym>Dot</sym>
</trkpt>
<trkpt lat="47.704733" lon="15.812247">
<ele>570.0</ele>
<desc>Speed 57.1 km/h Distance 148 km</desc>
<time>2012-09-18T17:58:15.98</time>
<name>7356</name>
<sym>Dot</sym>
</trkpt>
<trkpt lat="47.704625" lon="15.812383">
<ele>569.5</ele>
<desc>Speed 56.3 km/h Distance 148 km</desc>
<time>2012-09-18T17:58:16.97</time>
<name>7357</name>
<sym>Dot</sym>
</trkpt>
<trkpt lat="47.704530" lon="15.812528">
<ele>570.0</ele>
<desc>Speed 54.8 km/h Distance 148 km</desc>
<time>2012-09-18T17:58:17.96</time>
<name>7358</name>
<sym>Dot</sym>
</trkpt>
<trkpt lat="47.704438" lon="15.812678">
<ele>570.0</ele>
<desc>Speed 54.5 km/h Distance 148 km</desc>
<time>2012-09-18T17:58:18.97</time>
<name>7359</name>
<sym>Dot</sym>
</trkpt>
<trkpt lat="47.704347" lon="15.812827">
<ele>570.0</ele>
<desc>Speed 54.5 km/h Distance 148 km</desc>
<time>2012-09-18T17:58:19.96</time>
<name>7360</name>
<sym>Dot</sym>
</trkpt>
<trkpt lat="47.704250" lon="15.812968">
<ele>568.5</ele>
<desc>Speed 54.9 km/h Distance 148 km</desc>
<time>2012-09-18T17:58:20.96</time>
<name>7361</name>
<sym>Dot</sym>
</trkpt>
<trkpt lat="47.704160" lon="15.813123">
<ele>568.0</ele>
<desc>Speed 55.0 km/h Distance 148 km</desc>
<time>2012-09-18T17:58:21.95</time>
<name>7362</name>
<sym>Dot</sym>
</trkpt>
<trkpt lat="47.704083" lon="15.813283">
<ele>568.0</ele>
<desc>Speed 53.6 km/h Distance 148 km</desc>
<time>2012-09-18T17:58:22.95</time>
<name>7363</name>
<sym>Dot</sym>
</trkpt>
<trkpt lat="47.704013" lon="15.813453">
<ele>567.5</ele>
<desc>Speed 53.9 km/h Distance 148 km</desc>
<time>2012-09-18T17:58:23.94</time>
<name>7364</name>
<sym>Dot</sym>
</trkpt>
<trkpt lat="47.703952" lon="15.813632">
<ele>567.0</ele>
<desc>Speed 54.4 km/h Distance 148 km</desc>
<time>2012-09-18T17:58:24.93</time>
<name>7365</name>
<sym>Dot</sym>
</trkpt>
<trkpt lat="47.703898" lon="15.813817">
<ele>566.0</ele>
<desc>Speed 54.3 km/h Distance 148 km</desc>
<time>2012-09-18T17:58:25.92</time>
<name>7366</name>
<sym>Dot</sym>
</trkpt>
<trkpt lat="47.703853" lon="15.814007">
<ele>564.5</ele>
<desc>Speed 55.1 km/h Distance 148 km</desc>
<time>2012-09-18T17:58:26.92</time>
<name>7367</name>
<sym>Dot</sym>
</trkpt>
<trkpt lat="47.703818" lon="15.814210">
<ele>564.0</ele>
<desc>Speed 56.6 km/h Distance 148 km</desc>
<time>2012-09-18T17:58:27.91</time>
<name>7368</name>
<sym>Dot</sym>
</trkpt>
<trkpt lat="47.703797" lon="15.814420">
<ele>563.5</ele>
<desc>Speed 57.7 km/h Distance 148 km</desc>
<time>2012-09-18T17:58:28.92</time>
<name>7369</name>
<sym>Dot</sym>
</trkpt>
<trkpt lat="47.703782" lon="15.814632">
<ele>563.0</ele>
<desc>Speed 57.7 km/h Distance 148 km</desc>
<time>2012-09-18T17:58:29.90</time>
<name>7370</name>
<sym>Dot</sym>
</trkpt>
<trkpt lat="47.703777" lon="15.814847">
<ele>562.5</ele>
<desc>Speed 58.0 km/h Distance 148 km</desc>
<time>2012-09-18T17:58:30.90</time>
<name>7371</name>
<sym>Dot</sym>
</trkpt>
<trkpt lat="47.703783" lon="15.815062">
<ele>562.0</ele>
<desc>Speed 58.2 km/h Distance 148 km</desc>
<time>2012-09-18T17:58:31.90</time>
<name>7372</name>
<sym>Dot</sym>
</trkpt>
<trkpt lat="47.703797" lon="15.815267">
<ele>561.0</ele>
<desc>Speed 56.2 km/h Distance 148 km</desc>
<time>2012-09-18T17:58:32.89</time>
<name>7373</name>
<sym>Dot</sym>
</trkpt>
<trkpt lat="47.703817" lon="15.815467">
<ele>560.5</ele>
<desc>Speed 54.6 km/h Distance 148 km</desc>
<time>2012-09-18T17:58:33.88</time>
<name>7374</name>
<sym>Dot</sym>
</trkpt>
<trkpt lat="47.703833" lon="15.815658">
<ele>559.5</ele>
<desc>Speed 52.7 km/h Distance 148 km</desc>
<time>2012-09-18T17:58:34.89</time>
<name>7375</name>
<sym>Dot</sym>
</trkpt>
<trkpt lat="47.703852" lon="15.815843">
<ele>559.5</ele>
<desc>Speed 50.8 km/h Distance 148 km</desc>
<time>2012-09-18T17:58:35.88</time>
<name>7376</name>
<sym>Dot</sym>
</trkpt>
<trkpt lat="47.703870" lon="15.816028">
<ele>559.0</ele>
<desc>Speed 51.2 km/h Distance 148 km</desc>
<time>2012-09-18T17:58:36.88</time>
<name>7377</name>
<sym>Dot</sym>
</trkpt>
<trkpt lat="47.703885" lon="15.816220">
<ele>559.0</ele>
<desc>Speed 52.2 km/h Distance 148 km</desc>
<time>2012-09-18T17:58:37.88</time>
<name>7378</name>
<sym>Dot</sym>
</trkpt>
<trkpt lat="47.703895" lon="15.816417">
<ele>558.5</ele>
<desc>Speed 53.1 km/h Distance 148 km</desc>
<time>2012-09-18T17:58:38.88</time>
<name>7379</name>
<sym>Dot</sym>
</trkpt>
<trkpt lat="47.703900" lon="15.816613">
<ele>558.5</ele>
<desc>Speed 53.7 km/h Distance 148 km</desc>
<time>2012-09-18T17:58:39.87</time>
<name>7380</name>
<sym>Dot</sym>
</trkpt>
<trkpt lat="47.703897" lon="15.816803">
<ele>558.0</ele>
<desc>Speed 51.8 km/h Distance 148 km</desc>
<time>2012-09-18T17:58:40.87</time>
<name>7381</name>
<sym>Dot</sym>
</trkpt>
<trkpt lat="47.703878" lon="15.816982">
<ele>559.0</ele>
<desc>Speed 49.1 km/h Distance 148 km</desc>
<time>2012-09-18T17:58:41.86</time>
<name>7382</name>
<sym>Dot</sym>
</trkpt>
<trkpt lat="47.703855" lon="15.817158">
<ele>558.5</ele>
<desc>Speed 49.5 km/h Distance 148 km</desc>
<time>2012-09-18T17:58:42.86</time>
<name>7383</name>
<sym>Dot</sym>
</trkpt>
<trkpt lat="47.703823" lon="15.817337">
<ele>558.5</ele>
<desc>Speed 50.0 km/h Distance 148 km</desc>
<time>2012-09-18T17:58:43.86</time>
<name>7384</name>
<sym>Dot</sym>
</trkpt>
<trkpt lat="47.703773" lon="15.817502">
<ele>559.0</ele>
<desc>Speed 49.2 km/h Distance 149 km</desc>
<time>2012-09-18T17:58:44.85</time>
<name>7385</name>
<sym>Dot</sym>
</trkpt>
<trkpt lat="47.703713" lon="15.817665">
<ele>558.5</ele>
<desc>Speed 50.6 km/h Distance 149 km</desc>
<time>2012-09-18T17:58:45.85</time>
<name>7386</name>
<sym>Dot</sym>
</trkpt>
<trkpt lat="47.703642" lon="15.817823">
<ele>558.5</ele>
<desc>Speed 51.5 km/h Distance 149 km</desc>
<time>2012-09-18T17:58:46.84</time>
<name>7387</name>
<sym>Dot</sym>
</trkpt>
<trkpt lat="47.703563" lon="15.817970">
<ele>559.0</ele>
<desc>Speed 50.9 km/h Distance 149 km</desc>
<time>2012-09-18T17:58:47.83</time>
<name>7388</name>
<sym>Dot</sym>
</trkpt>
<trkpt lat="47.703478" lon="15.818107">
<ele>559.0</ele>
<desc>Speed 50.3 km/h Distance 149 km</desc>
<time>2012-09-18T17:58:48.83</time>
<name>7389</name>
<sym>Dot</sym>
</trkpt>
<trkpt lat="47.703382" lon="15.818230">
<ele>559.0</ele>
<desc>Speed 51.1 km/h Distance 149 km</desc>
<time>2012-09-18T17:58:49.82</time>
<name>7390</name>
<sym>Dot</sym>
</trkpt>
<trkpt lat="47.703278" lon="15.818335">
<ele>558.5</ele>
<desc>Speed 50.3 km/h Distance 149 km</desc>
<time>2012-09-18T17:58:50.83</time>
<name>7391</name>
<sym>Dot</sym>
</trkpt>
<trkpt lat="47.703170" lon="15.818427">
<ele>558.5</ele>
<desc>Speed 50.0 km/h Distance 149 km</desc>
<time>2012-09-18T17:58:51.82</time>
<name>7392</name>
<sym>Dot</sym>
</trkpt>
<trkpt lat="47.703055" lon="15.818505">
<ele>559.0</ele>
<desc>Speed 50.5 km/h Distance 149 km</desc>
<time>2012-09-18T17:58:52.81</time>
<name>7393</name>
<sym>Dot</sym>
</trkpt>
<trkpt lat="47.702932" lon="15.818577">
<ele>559.0</ele>
<desc>Speed 52.6 km/h Distance 149 km</desc>
<time>2012-09-18T17:58:53.82</time>
<name>7394</name>
<sym>Dot</sym>
</trkpt>
<trkpt lat="47.702795" lon="15.818640">
<ele>560.0</ele>
<desc>Speed 56.6 km/h Distance 149 km</desc>
<time>2012-09-18T17:58:54.81</time>
<name>7395</name>
<sym>Dot</sym>
</trkpt>
<trkpt lat="47.702660" lon="15.818690">
<ele>560.0</ele>
<desc>Speed 54.6 km/h Distance 149 km</desc>
<time>2012-09-18T17:58:55.80</time>
<name>7396</name>
<sym>Dot</sym>
</trkpt>
<trkpt lat="47.702535" lon="15.818732">
<ele>559.0</ele>
<desc>Speed 52.1 km/h Distance 149 km</desc>
<time>2012-09-18T17:58:56.81</time>
<name>7397</name>
<sym>Dot</sym>
</trkpt>
<trkpt lat="47.702413" lon="15.818775">
<ele>558.5</ele>
<desc>Speed 51.2 km/h Distance 149 km</desc>
<time>2012-09-18T17:58:57.79</time>
<name>7398</name>
<sym>Dot</sym>
</trkpt>
<trkpt lat="47.702290" lon="15.818827">
<ele>558.5</ele>
<desc>Speed 51.1 km/h Distance 149 km</desc>
<time>2012-09-18T17:58:58.79</time>
<name>7399</name>
<sym>Dot</sym>
</trkpt>
<trkpt lat="47.702168" lon="15.818888">
<ele>558.5</ele>
<desc>Speed 52.1 km/h Distance 149 km</desc>
<time>2012-09-18T17:58:59.80</time>
<name>7400</name>
<sym>Dot</sym>
</trkpt>
<trkpt lat="47.702048" lon="15.818962">
<ele>558.0</ele>
<desc>Speed 52.3 km/h Distance 149 km</desc>
<time>2012-09-18T17:59:00.78</time>
<name>7401</name>
<sym>Dot</sym>
</trkpt>
<trkpt lat="47.701933" lon="15.819047">
<ele>558.5</ele>
<desc>Speed 51.3 km/h Distance 149 km</desc>
<time>2012-09-18T17:59:01.78</time>
<name>7402</name>
<sym>Dot</sym>
</trkpt>
<trkpt lat="47.701822" lon="15.819135">
<ele>559.5</ele>
<desc>Speed 51.0 km/h Distance 149 km</desc>
<time>2012-09-18T17:59:02.78</time>
<name>7403</name>
<sym>Dot</sym>
</trkpt>
<trkpt lat="47.701728" lon="15.819240">
<ele>559.5</ele>
<desc>Speed 47.5 km/h Distance 149 km</desc>
<time>2012-09-18T17:59:03.77</time>
<name>7404</name>
<sym>Dot</sym>
</trkpt>
<trkpt lat="47.701638" lon="15.819352">
<ele>559.0</ele>
<desc>Speed 47.4 km/h Distance 149 km</desc>
<time>2012-09-18T17:59:04.76</time>
<name>7405</name>
<sym>Dot</sym>
</trkpt>
<trkpt lat="47.701555" lon="15.819473">
<ele>558.5</ele>
<desc>Speed 47.5 km/h Distance 149 km</desc>
<time>2012-09-18T17:59:05.76</time>
<name>7406</name>
<sym>Dot</sym>
</trkpt>
<trkpt lat="47.701473" lon="15.819608">
<ele>558.0</ele>
<desc>Speed 49.4 km/h Distance 149 km</desc>
<time>2012-09-18T17:59:06.77</time>
<name>7407</name>
<sym>Dot</sym>
</trkpt>
<trkpt lat="47.701407" lon="15.819757">
<ele>557.5</ele>
<desc>Speed 49.1 km/h Distance 149 km</desc>
<time>2012-09-18T17:59:07.76</time>
<name>7408</name>
<sym>Dot</sym>
</trkpt>
<trkpt lat="47.701352" lon="15.819913">
<ele>557.5</ele>
<desc>Speed 47.9 km/h Distance 149 km</desc>
<time>2012-09-18T17:59:08.75</time>
<name>7409</name>
<sym>Dot</sym>
</trkpt>
<trkpt lat="47.701307" lon="15.820085">
<ele>557.5</ele>
<desc>Speed 49.6 km/h Distance 149 km</desc>
<time>2012-09-18T17:59:09.74</time>
<name>7410</name>
<sym>Dot</sym>
</trkpt>
<trkpt lat="47.701273" lon="15.820268">
<ele>557.5</ele>
<desc>Speed 51.4 km/h Distance 149 km</desc>
<time>2012-09-18T17:59:10.73</time>
<name>7411</name>
<sym>Dot</sym>
</trkpt>
<trkpt lat="47.701250" lon="15.820465">
<ele>557.0</ele>
<desc>Speed 53.6 km/h Distance 149 km</desc>
<time>2012-09-18T17:59:11.73</time>
<name>7412</name>
<sym>Dot</sym>
</trkpt>
<trkpt lat="47.701238" lon="15.820673">
<ele>556.5</ele>
<desc>Speed 56.0 km/h Distance 149 km</desc>
<time>2012-09-18T17:59:12.72</time>
<name>7413</name>
<sym>Dot</sym>
</trkpt>
<trkpt lat="47.701235" lon="15.820883">
<ele>556.5</ele>
<desc>Speed 56.9 km/h Distance 149 km</desc>
<time>2012-09-18T17:59:13.72</time>
<name>7414</name>
<sym>Dot</sym>
</trkpt>
<trkpt lat="47.701237" lon="15.821098">
<ele>556.0</ele>
<desc>Speed 57.8 km/h Distance 149 km</desc>
<time>2012-09-18T17:59:14.71</time>
<name>7415</name>
<sym>Dot</sym>
</trkpt>
<trkpt lat="47.701237" lon="15.821320">
<ele>555.5</ele>
<desc>Speed 59.7 km/h Distance 149 km</desc>
<time>2012-09-18T17:59:15.71</time>
<name>7416</name>
<sym>Dot</sym>
</trkpt>
<trkpt lat="47.701233" lon="15.821547">
<ele>555.0</ele>
<desc>Speed 61.5 km/h Distance 149 km</desc>
<time>2012-09-18T17:59:16.71</time>
<name>7417</name>
<sym>Dot</sym>
</trkpt>
<trkpt lat="47.701228" lon="15.821787">
<ele>554.5</ele>
<desc>Speed 65.0 km/h Distance 149 km</desc>
<time>2012-09-18T17:59:17.71</time>
<name>7418</name>
<sym>Dot</sym>
</trkpt>
<trkpt lat="47.701222" lon="15.822032">
<ele>554.0</ele>
<desc>Speed 66.8 km/h Distance 149 km</desc>
<time>2012-09-18T17:59:18.70</time>
<name>7419</name>
<sym>Dot</sym>
</trkpt>
<trkpt lat="47.701215" lon="15.822285">
<ele>554.0</ele>
<desc>Speed 68.6 km/h Distance 149 km</desc>
<time>2012-09-18T17:59:19.70</time>
<name>7420</name>
<sym>Dot</sym>
</trkpt>
<trkpt lat="47.701165" lon="15.823180">
<ele>551.5</ele>
<desc>Speed 79.7 km/h Distance 149 km</desc>
<time>2012-09-18T17:59:23.55</time>
<name>7421</name>
<sym>Dot</sym>
</trkpt>
<trkpt lat="47.701148" lon="15.823457">
<ele>551.0</ele>
<desc>Speed 75.3 km/h Distance 149 km</desc>
<time>2012-09-18T17:59:24.55</time>
<name>7422</name>
<sym>Dot</sym>
</trkpt>
<trkpt lat="47.701137" lon="15.823720">
<ele>550.5</ele>
<desc>Speed 71.2 km/h Distance 149 km</desc>
<time>2012-09-18T17:59:25.54</time>
<name>7423</name>
<sym>Dot</sym>
</trkpt>
<trkpt lat="47.701125" lon="15.823972">
<ele>550.5</ele>
<desc>Speed 68.2 km/h Distance 149 km</desc>
<time>2012-09-18T17:59:26.54</time>
<name>7424</name>
<sym>Dot</sym>
</trkpt>
<trkpt lat="47.701107" lon="15.824223">
<ele>550.0</ele>
<desc>Speed 68.8 km/h Distance 149 km</desc>
<time>2012-09-18T17:59:27.53</time>
<name>7425</name>
<sym>Dot</sym>
</trkpt>
<trkpt lat="47.701085" lon="15.824473">
<ele>550.0</ele>
<desc>Speed 67.9 km/h Distance 149 km</desc>
<time>2012-09-18T17:59:28.52</time>
<name>7426</name>
<sym>Dot</sym>
</trkpt>
<trkpt lat="47.701057" lon="15.824713">
<ele>549.5</ele>
<desc>Speed 65.9 km/h Distance 149 km</desc>
<time>2012-09-18T17:59:29.51</time>
<name>7427</name>
<sym>Dot</sym>
</trkpt>
<trkpt lat="47.701018" lon="15.824957">
<ele>549.0</ele>
<desc>Speed 67.4 km/h Distance 149 km</desc>
<time>2012-09-18T17:59:30.52</time>
<name>7428</name>
<sym>Dot</sym>
</trkpt>
<trkpt lat="47.700970" lon="15.825203">
<ele>549.0</ele>
<desc>Speed 69.5 km/h Distance 149 km</desc>
<time>2012-09-18T17:59:31.51</time>
<name>7429</name>
<sym>Dot</sym>
</trkpt>
<trkpt lat="47.700912" lon="15.825455">
<ele>548.5</ele>
<desc>Speed 72.4 km/h Distance 149 km</desc>
<time>2012-09-18T17:59:32.51</time>
<name>7430</name>
<sym>Dot</sym>
</trkpt>
<trkpt lat="47.700843" lon="15.825718">
<ele>548.0</ele>
<desc>Speed 76.0 km/h Distance 149 km</desc>
<time>2012-09-18T17:59:33.50</time>
<name>7431</name>
<sym>Dot</sym>
</trkpt>
<trkpt lat="47.700445" lon="15.827007">
<ele>544.5</ele>
<desc>Speed 104 km/h Distance 149 km</desc>
<time>2012-09-18T17:59:37.54</time>
<name>7432</name>
<sym>Dot</sym>
</trkpt>
<trkpt lat="47.700332" lon="15.827373">
<ele>544.0</ele>
<desc>Speed 109 km/h Distance 149 km</desc>
<time>2012-09-18T17:59:38.55</time>
<name>7433</name>
<sym>Dot</sym>
</trkpt>
<trkpt lat="47.700215" lon="15.827743">
<ele>543.0</ele>
<desc>Speed 110 km/h Distance 149 km</desc>
<time>2012-09-18T17:59:39.54</time>
<name>7434</name>
<sym>Dot</sym>
</trkpt>
<trkpt lat="47.700103" lon="15.828098">
<ele>542.5</ele>
<desc>Speed 106 km/h Distance 149 km</desc>
<time>2012-09-18T17:59:40.55</time>
<name>7435</name>
<sym>Dot</sym>
</trkpt>
<trkpt lat="47.699995" lon="15.828438">
<ele>542.0</ele>
<desc>Speed 102 km/h Distance 150 km</desc>
<time>2012-09-18T17:59:41.53</time>
<name>7436</name>
<sym>Dot</sym>
</trkpt>
<trkpt lat="47.699890" lon="15.828763">
<ele>542.0</ele>
<desc>Speed 97.8 km/h Distance 150 km</desc>
<time>2012-09-18T17:59:42.53</time>
<name>7437</name>
<sym>Dot</sym>
</trkpt>
<trkpt lat="47.699552" lon="15.829812">
<ele>540.5</ele>
<desc>Speed 69.8 km/h Distance 150 km</desc>
<time>2012-09-18T17:59:46.55</time>
<name>7438</name>
<sym>Dot</sym>
</trkpt>
<trkpt lat="47.699495" lon="15.830038">
<ele>540.5</ele>
<desc>Speed 65.4 km/h Distance 150 km</desc>
<time>2012-09-18T17:59:47.54</time>
<name>7439</name>
<sym>Dot</sym>
</trkpt>
<trkpt lat="47.699430" lon="15.830255">
<ele>538.5</ele>
<desc>Speed 64.4 km/h Distance 150 km</desc>
<time>2012-09-18T17:59:48.53</time>
<name>7440</name>
<sym>Dot</sym>
</trkpt>
<trkpt lat="47.699372" lon="15.830478">
<ele>538.0</ele>
<desc>Speed 64.5 km/h Distance 150 km</desc>
<time>2012-09-18T17:59:49.52</time>
<name>7441</name>
<sym>Dot</sym>
</trkpt>
<trkpt lat="47.699317" lon="15.830707">
<ele>538.0</ele>
<desc>Speed 65.7 km/h Distance 150 km</desc>
<time>2012-09-18T17:59:50.52</time>
<name>7442</name>
<sym>Dot</sym>
</trkpt>
<trkpt lat="47.699265" lon="15.830942">
<ele>537.5</ele>
<desc>Speed 66.6 km/h Distance 150 km</desc>
<time>2012-09-18T17:59:51.51</time>
<name>7443</name>
<sym>Dot</sym>
</trkpt>
<trkpt lat="47.699217" lon="15.831175">
<ele>537.0</ele>
<desc>Speed 66.1 km/h Distance 150 km</desc>
<time>2012-09-18T17:59:52.50</time>
<name>7444</name>
<sym>Dot</sym>
</trkpt>
<trkpt lat="47.699173" lon="15.831398">
<ele>536.5</ele>
<desc>Speed 62.9 km/h Distance 150 km</desc>
<time>2012-09-18T17:59:53.49</time>
<name>7445</name>
<sym>Dot</sym>
</trkpt>
<trkpt lat="47.699138" lon="15.831613">
<ele>536.5</ele>
<desc>Speed 59.5 km/h Distance 150 km</desc>
<time>2012-09-18T17:59:54.50</time>
<name>7446</name>
<sym>Dot</sym>
</trkpt>
<trkpt lat="47.699107" lon="15.831815">
<ele>535.5</ele>
<desc>Speed 56.9 km/h Distance 150 km</desc>
<time>2012-09-18T17:59:55.50</time>
<name>7447</name>
<sym>Dot</sym>
</trkpt>
<trkpt lat="47.699075" lon="15.832013">
<ele>535.0</ele>
<desc>Speed 55.0 km/h Distance 150 km</desc>
<time>2012-09-18T17:59:56.50</time>
<name>7448</name>
<sym>Dot</sym>
</trkpt>
<trkpt lat="47.699045" lon="15.832202">
<ele>535.0</ele>
<desc>Speed 52.6 km/h Distance 150 km</desc>
<time>2012-09-18T17:59:57.49</time>
<name>7449</name>
<sym>Dot</sym>
</trkpt>
<trkpt lat="47.699017" lon="15.832383">
<ele>534.5</ele>
<desc>Speed 50.6 km/h Distance 150 km</desc>
<time>2012-09-18T17:59:58.49</time>
<name>7450</name>
<sym>Dot</sym>
</trkpt>
<trkpt lat="47.698987" lon="15.832558">
<ele>535.0</ele>
<desc>Speed 49.1 km/h Distance 150 km</desc>
<time>2012-09-18T17:59:59.47</time>
<name>7451</name>
<sym>Dot</sym>
</trkpt>
<trkpt lat="47.698950" lon="15.832718">
<ele>534.5</ele>
<desc>Speed 46.1 km/h Distance 150 km</desc>
<time>2012-09-18T18:00:00.47</time>
<name>7452</name>
<sym>Dot</sym>
</trkpt>
<trkpt lat="47.698913" lon="15.832857">
<ele>534.5</ele>
<desc>Speed 40.7 km/h Distance 150 km</desc>
<time>2012-09-18T18:00:01.45</time>
<name>7453</name>
<sym>Dot</sym>
</trkpt>
<trkpt lat="47.698827" lon="15.833038">
<ele>535.5</ele>
<desc>Speed 28.5 km/h Distance 150 km</desc>
<time>2012-09-18T18:00:03.45</time>
<name>7454</name>
<sym>Dot</sym>
</trkpt>
<trkpt lat="47.698778" lon="15.833105">
<ele>535.5</ele>
<desc>Speed 26.8 km/h Distance 150 km</desc>
<time>2012-09-18T18:00:04.45</time>
<name>7455</name>
<sym>Dot</sym>
</trkpt>
<trkpt lat="47.698738" lon="15.833172">
<ele>535.0</ele>
<desc>Speed 25.2 km/h Distance 150 km</desc>
<time>2012-09-18T18:00:05.43</time>
<name>7456</name>
<sym>Dot</sym>
</trkpt>
<trkpt lat="47.698725" lon="15.833260">
<ele>534.0</ele>
<desc>Speed 24.5 km/h Distance 150 km</desc>
<time>2012-09-18T18:00:06.42</time>
<name>7457</name>
<sym>Dot</sym>
</trkpt>
<trkpt lat="47.698733" lon="15.833365">
<ele>535.0</ele>
<desc>Speed 28.2 km/h Distance 150 km</desc>
<time>2012-09-18T18:00:07.46</time>
<name>7458</name>
<sym>Dot</sym>
</trkpt>
<trkpt lat="47.698738" lon="15.833470">
<ele>535.5</ele>
<desc>Speed 28.7 km/h Distance 150 km</desc>
<time>2012-09-18T18:00:08.41</time>
<name>7459</name>
<sym>Dot</sym>
</trkpt>
<trkpt lat="47.698732" lon="15.833585">
<ele>535.0</ele>
<desc>Speed 31.1 km/h Distance 150 km</desc>
<time>2012-09-18T18:00:09.41</time>
<name>7460</name>
<sym>Dot</sym>
</trkpt>
<trkpt lat="47.698710" lon="15.833707">
<ele>534.5</ele>
<desc>Speed 33.8 km/h Distance 150 km</desc>
<time>2012-09-18T18:00:10.43</time>
<name>7461</name>
<sym>Dot</sym>
</trkpt>
<trkpt lat="47.698673" lon="15.833837">
<ele>534.5</ele>
<desc>Speed 38.0 km/h Distance 150 km</desc>
<time>2012-09-18T18:00:11.39</time>
<name>7462</name>
<sym>Dot</sym>
</trkpt>
<trkpt lat="47.698632" lon="15.833977">
<ele>534.0</ele>
<desc>Speed 40.7 km/h Distance 150 km</desc>
<time>2012-09-18T18:00:12.39</time>
<name>7463</name>
<sym>Dot</sym>
</trkpt>
<trkpt lat="47.698588" lon="15.834128">
<ele>533.5</ele>
<desc>Speed 44.5 km/h Distance 150 km</desc>
<time>2012-09-18T18:00:13.38</time>
<name>7464</name>
<sym>Dot</sym>
</trkpt>
<trkpt lat="47.698540" lon="15.834293">
<ele>533.5</ele>
<desc>Speed 48.2 km/h Distance 150 km</desc>
<time>2012-09-18T18:00:14.38</time>
<name>7465</name>
<sym>Dot</sym>
</trkpt>
<trkpt lat="47.698493" lon="15.834453">
<ele>533.5</ele>
<desc>Speed 47.1 km/h Distance 150 km</desc>
<time>2012-09-18T18:00:15.37</time>
<name>7466</name>
<sym>Dot</sym>
</trkpt>
<trkpt lat="47.698447" lon="15.834612">
<ele>533.5</ele>
<desc>Speed 46.3 km/h Distance 150 km</desc>
<time>2012-09-18T18:00:16.36</time>
<name>7467</name>
<sym>Dot</sym>
</trkpt>
<trkpt lat="47.698397" lon="15.834775">
<ele>533.5</ele>
<desc>Speed 48.5 km/h Distance 150 km</desc>
<time>2012-09-18T18:00:17.35</time>
<name>7468</name>
<sym>Dot</sym>
</trkpt>
<trkpt lat="47.698352" lon="15.834940">
<ele>533.0</ele>
<desc>Speed 47.9 km/h Distance 150 km</desc>
<time>2012-09-18T18:00:18.36</time>
<name>7469</name>
<sym>Dot</sym>
</trkpt>
<trkpt lat="47.698315" lon="15.835110">
<ele>534.0</ele>
<desc>Speed 48.2 km/h Distance 150 km</desc>
<time>2012-09-18T18:00:19.35</time>
<name>7470</name>
<sym>Dot</sym>
</trkpt>
<trkpt lat="47.698270" lon="15.835282">
<ele>534.0</ele>
<desc>Speed 49.3 km/h Distance 150 km</desc>
<time>2012-09-18T18:00:20.35</time>
<name>7471</name>
<sym>Dot</sym>
</trkpt>
<trkpt lat="47.698225" lon="15.835447">
<ele>534.0</ele>
<desc>Speed 47.9 km/h Distance 150 km</desc>
<time>2012-09-18T18:00:21.34</time>
<name>7472</name>
<sym>Dot</sym>
</trkpt>
<trkpt lat="47.698182" lon="15.835605">
<ele>533.5</ele>
<desc>Speed 46.1 km/h Distance 150 km</desc>
<time>2012-09-18T18:00:22.34</time>
<name>7473</name>
<sym>Dot</sym>
</trkpt>
<trkpt lat="47.698137" lon="15.835750">
<ele>532.0</ele>
<desc>Speed 43.4 km/h Distance 150 km</desc>
<time>2012-09-18T18:00:23.34</time>
<name>7474</name>
<sym>Dot</sym>
</trkpt>
<trkpt lat="47.698095" lon="15.835893">
<ele>532.0</ele>
<desc>Speed 41.7 km/h Distance 150 km</desc>
<time>2012-09-18T18:00:24.35</time>
<name>7475</name>
<sym>Dot</sym>
</trkpt>
<trkpt lat="47.698058" lon="15.836032">
<ele>532.0</ele>
<desc>Speed 40.5 km/h Distance 150 km</desc>
<time>2012-09-18T18:00:25.84</time>
<name>7476</name>
<sym>Dot</sym>
</trkpt>
<trkpt lat="47.697987" lon="15.836315">
<ele>532.5</ele>
<desc>Speed 40.9 km/h Distance 150 km</desc>
<time>2012-09-18T18:00:27.33</time>
<name>7477</name>
<sym>Dot</sym>
</trkpt>
<trkpt lat="47.697953" lon="15.836448">
<ele>533.0</ele>
<desc>Speed 38.6 km/h Distance 150 km</desc>
<time>2012-09-18T18:00:28.33</time>
<name>7478</name>
<sym>Dot</sym>
</trkpt>
<trkpt lat="47.697922" lon="15.836578">
<ele>533.0</ele>
<desc>Speed 36.8 km/h Distance 150 km</desc>
<time>2012-09-18T18:00:29.33</time>
<name>7479</name>
<sym>Dot</sym>
</trkpt>
<trkpt lat="47.697893" lon="15.836702">
<ele>533.0</ele>
<desc>Speed 35.3 km/h Distance 150 km</desc>
<time>2012-09-18T18:00:30.31</time>
<name>7480</name>
<sym>Dot</sym>
</trkpt>
<trkpt lat="47.697875" lon="15.836827">
<ele>533.0</ele>
<desc>Speed 34.1 km/h Distance 150 km</desc>
<time>2012-09-18T18:00:31.30</time>
<name>7481</name>
<sym>Dot</sym>
</trkpt>
<trkpt lat="47.697860" lon="15.836948">
<ele>533.0</ele>
<desc>Speed 33.2 km/h Distance 150 km</desc>
<time>2012-09-18T18:00:32.30</time>
<name>7482</name>
<sym>Dot</sym>
</trkpt>
<trkpt lat="47.697855" lon="15.837068">
<ele>533.0</ele>
<desc>Speed 32.4 km/h Distance 150 km</desc>
<time>2012-09-18T18:00:33.29</time>
<name>7483</name>
<sym>Dot</sym>
</trkpt>
<trkpt lat="47.697855" lon="15.837183">
<ele>533.0</ele>
<desc>Speed 31.5 km/h Distance 150 km</desc>
<time>2012-09-18T18:00:34.29</time>
<name>7484</name>
<sym>Dot</sym>
</trkpt>
<trkpt lat="47.697858" lon="15.837300">
<ele>532.5</ele>
<desc>Speed 31.5 km/h Distance 150 km</desc>
<time>2012-09-18T18:00:35.28</time>
<name>7485</name>
<sym>Dot</sym>
</trkpt>
<trkpt lat="47.697867" lon="15.837428">
<ele>533.0</ele>
<desc>Speed 35.2 km/h Distance 150 km</desc>
<time>2012-09-18T18:00:36.27</time>
<name>7486</name>
<sym>Dot</sym>
</trkpt>
<trkpt lat="47.697898" lon="15.837745">
<ele>535.5</ele>
<desc>Speed 44.2 km/h Distance 150 km</desc>
<time>2012-09-18T18:00:38.27</time>
<name>7487</name>
<sym>Dot</sym>
</trkpt>
<trkpt lat="47.697918" lon="15.837900">
<ele>535.5</ele>
<desc>Speed 42.4 km/h Distance 150 km</desc>
<time>2012-09-18T18:00:39.27</time>
<name>7488</name>
<sym>Dot</sym>
</trkpt>
<trkpt lat="47.697937" lon="15.838045">
<ele>536.0</ele>
<desc>Speed 40.0 km/h Distance 150 km</desc>
<time>2012-09-18T18:00:40.26</time>
<name>7489</name>
<sym>Dot</sym>
</trkpt>
<trkpt lat="47.697935" lon="15.838185">
<ele>535.5</ele>
<desc>Speed 37.9 km/h Distance 150 km</desc>
<time>2012-09-18T18:00:41.26</time>
<name>7490</name>
<sym>Dot</sym>
</trkpt>
<trkpt lat="47.697905" lon="15.838305">
<ele>536.0</ele>
<desc>Speed 35.0 km/h Distance 150 km</desc>
<time>2012-09-18T18:00:42.26</time>
<name>7491</name>
<sym>Dot</sym>
</trkpt>
<trkpt lat="47.697860" lon="15.838418">
<ele>535.5</ele>
<desc>Speed 35.3 km/h Distance 150 km</desc>
<time>2012-09-18T18:00:43.25</time>
<name>7492</name>
<sym>Dot</sym>
</trkpt>
<trkpt lat="47.697802" lon="15.838537">
<ele>536.0</ele>
<desc>Speed 39.8 km/h Distance 150 km</desc>
<time>2012-09-18T18:00:44.25</time>
<name>7493</name>
<sym>Dot</sym>
</trkpt>
<trkpt lat="47.697737" lon="15.838662">
<ele>536.0</ele>
<desc>Speed 43.3 km/h Distance 150 km</desc>
<time>2012-09-18T18:00:45.24</time>
<name>7494</name>
<sym>Dot</sym>
</trkpt>
<trkpt lat="47.697670" lon="15.838785">
<ele>536.0</ele>
<desc>Speed 42.9 km/h Distance 150 km</desc>
<time>2012-09-18T18:00:46.24</time>
<name>7495</name>
<sym>Dot</sym>
</trkpt>
<trkpt lat="47.697607" lon="15.838905">
<ele>536.0</ele>
<desc>Speed 41.3 km/h Distance 150 km</desc>
<time>2012-09-18T18:00:47.23</time>
<name>7496</name>
<sym>Dot</sym>
</trkpt>
<trkpt lat="47.697547" lon="15.839018">
<ele>536.0</ele>
<desc>Speed 38.7 km/h Distance 150 km</desc>
<time>2012-09-18T18:00:48.23</time>
<name>7497</name>
<sym>Dot</sym>
</trkpt>
<trkpt lat="47.697490" lon="15.839128">
<ele>535.5</ele>
<desc>Speed 37.3 km/h Distance 150 km</desc>
<time>2012-09-18T18:00:49.23</time>
<name>7498</name>
<sym>Dot</sym>
</trkpt>
<trkpt lat="47.697437" lon="15.839233">
<ele>535.5</ele>
<desc>Speed 35.7 km/h Distance 150 km</desc>
<time>2012-09-18T18:00:50.22</time>
<name>7499</name>
<sym>Dot</sym>
</trkpt>
<trkpt lat="47.697383" lon="15.839337">
<ele>535.5</ele>
<desc>Speed 35.5 km/h Distance 150 km</desc>
<time>2012-09-18T18:00:51.22</time>
<name>7500</name>
<sym>Dot</sym>
</trkpt>
<trkpt lat="47.697327" lon="15.839443">
<ele>535.5</ele>
<desc>Speed 36.3 km/h Distance 150 km</desc>
<time>2012-09-18T18:00:52.22</time>
<name>7501</name>
<sym>Dot</sym>
</trkpt>
<trkpt lat="47.697267" lon="15.839553">
<ele>535.0</ele>
<desc>Speed 38.7 km/h Distance 150 km</desc>
<time>2012-09-18T18:00:53.21</time>
<name>7502</name>
<sym>Dot</sym>
</trkpt>
<trkpt lat="47.697197" lon="15.839687">
<ele>536.0</ele>
<desc>Speed 45.8 km/h Distance 150 km</desc>
<time>2012-09-18T18:00:54.21</time>
<name>7503</name>
<sym>Dot</sym>
</trkpt>
<trkpt lat="47.697123" lon="15.839818">
<ele>535.5</ele>
<desc>Speed 46.1 km/h Distance 150 km</desc>
<time>2012-09-18T18:00:55.20</time>
<name>7504</name>
<sym>Dot</sym>
</trkpt>
<trkpt lat="47.697048" lon="15.839945">
<ele>535.0</ele>
<desc>Speed 45.4 km/h Distance 150 km</desc>
<time>2012-09-18T18:00:56.20</time>
<name>7505</name>
<sym>Dot</sym>
</trkpt>
<trkpt lat="47.696987" lon="15.840068">
<ele>535.5</ele>
<desc>Speed 41.6 km/h Distance 150 km</desc>
<time>2012-09-18T18:00:57.49</time>
<name>7506</name>
<sym>Dot</sym>
</trkpt>
<trkpt lat="47.696935" lon="15.840187">
<ele>535.0</ele>
<desc>Speed 38.4 km/h Distance 150 km</desc>
<time>2012-09-18T18:00:58.28</time>
<name>7507</name>
<sym>Dot</sym>
</trkpt>
<trkpt lat="47.696868" lon="15.840288">
<ele>537.0</ele>
<desc>Speed 38.4 km/h Distance 150 km</desc>
<time>2012-09-18T18:00:59.17</time>
<name>7508</name>
<sym>Dot</sym>
</trkpt>
<trkpt lat="47.696805" lon="15.840395">
<ele>537.0</ele>
<desc>Speed 38.4 km/h Distance 151 km</desc>
<time>2012-09-18T18:01:00.18</time>
<name>7509</name>
<sym>Dot</sym>
</trkpt>
<trkpt lat="47.696747" lon="15.840533">
<ele>536.5</ele>
<desc>Speed 44.0 km/h Distance 151 km</desc>
<time>2012-09-18T18:01:01.17</time>
<name>7510</name>
<sym>Dot</sym>
</trkpt>
<trkpt lat="47.696660" lon="15.840640">
<ele>536.5</ele>
<desc>Speed 44.9 km/h Distance 151 km</desc>
<time>2012-09-18T18:01:02.16</time>
<name>7511</name>
<sym>Dot</sym>
</trkpt>
<trkpt lat="47.696590" lon="15.840778">
<ele>536.5</ele>
<desc>Speed 46.7 km/h Distance 151 km</desc>
<time>2012-09-18T18:01:03.15</time>
<name>7512</name>
<sym>Dot</sym>
</trkpt>
<trkpt lat="47.696540" lon="15.840920">
<ele>536.5</ele>
<desc>Speed 43.4 km/h Distance 151 km</desc>
<time>2012-09-18T18:01:04.15</time>
<name>7513</name>
<sym>Dot</sym>
</trkpt>
<trkpt lat="47.696500" lon="15.841060">
<ele>536.5</ele>
<desc>Speed 41.4 km/h Distance 151 km</desc>
<time>2012-09-18T18:01:05.14</time>
<name>7514</name>
<sym>Dot</sym>
</trkpt>
<trkpt lat="47.696445" lon="15.841173">
<ele>536.5</ele>
<desc>Speed 37.8 km/h Distance 151 km</desc>
<time>2012-09-18T18:01:06.13</time>
<name>7515</name>
<sym>Dot</sym>
</trkpt>
<trkpt lat="47.696407" lon="15.841307">
<ele>537.5</ele>
<desc>Speed 39.9 km/h Distance 151 km</desc>
<time>2012-09-18T18:01:07.14</time>
<name>7516</name>
<sym>Dot</sym>
</trkpt>
<trkpt lat="47.696380" lon="15.841448">
<ele>537.5</ele>
<desc>Speed 39.2 km/h Distance 151 km</desc>
<time>2012-09-18T18:01:08.13</time>
<name>7517</name>
<sym>Dot</sym>
</trkpt>
<trkpt lat="47.696360" lon="15.841575">
<ele>535.5</ele>
<desc>Speed 35.3 km/h Distance 151 km</desc>
<time>2012-09-18T18:01:09.12</time>
<name>7518</name>
<sym>Dot</sym>
</trkpt>
<trkpt lat="47.696317" lon="15.841718">
<ele>537.0</ele>
<desc>Speed 42.1 km/h Distance 151 km</desc>
<time>2012-09-18T18:01:10.12</time>
<name>7519</name>
<sym>Dot</sym>
</trkpt>
<trkpt lat="47.696282" lon="15.841862">
<ele>537.0</ele>
<desc>Speed 41.7 km/h Distance 151 km</desc>
<time>2012-09-18T18:01:11.19</time>
<name>7520</name>
<sym>Dot</sym>
</trkpt>
<trkpt lat="47.696240" lon="15.842008">
<ele>536.5</ele>
<desc>Speed 43.2 km/h Distance 151 km</desc>
<time>2012-09-18T18:01:12.12</time>
<name>7521</name>
<sym>Dot</sym>
</trkpt>
<trkpt lat="47.696197" lon="15.842148">
<ele>536.0</ele>
<desc>Speed 41.7 km/h Distance 151 km</desc>
<time>2012-09-18T18:01:13.11</time>
<name>7522</name>
<sym>Dot</sym>
</trkpt>
<trkpt lat="47.696153" lon="15.842285">
<ele>535.5</ele>
<desc>Speed 40.9 km/h Distance 151 km</desc>
<time>2012-09-18T18:01:14.11</time>
<name>7523</name>
<sym>Dot</sym>
</trkpt>
<trkpt lat="47.696105" lon="15.842427">
<ele>537.0</ele>
<desc>Speed 42.7 km/h Distance 151 km</desc>
<time>2012-09-18T18:01:15.10</time>
<name>7524</name>
<sym>Dot</sym>
</trkpt>
<trkpt lat="47.696063" lon="15.842557">
<ele>537.0</ele>
<desc>Speed 38.3 km/h Distance 151 km</desc>
<time>2012-09-18T18:01:16.09</time>
<name>7525</name>
<sym>Dot</sym>
</trkpt>
<trkpt lat="47.696023" lon="15.842680">
<ele>536.5</ele>
<desc>Speed 37.0 km/h Distance 151 km</desc>
<time>2012-09-18T18:01:17.08</time>
<name>7526</name>
<sym>Dot</sym>
</trkpt>
<trkpt lat="47.695980" lon="15.842810">
<ele>536.0</ele>
<desc>Speed 38.6 km/h Distance 151 km</desc>
<time>2012-09-18T18:01:18.08</time>
<name>7527</name>
<sym>Dot</sym>
</trkpt>
<trkpt lat="47.695938" lon="15.842945">
<ele>535.5</ele>
<desc>Speed 40.0 km/h Distance 151 km</desc>
<time>2012-09-18T18:01:19.07</time>
<name>7528</name>
<sym>Dot</sym>
</trkpt>
<trkpt lat="47.695898" lon="15.843077">
<ele>535.0</ele>
<desc>Speed 39.2 km/h Distance 151 km</desc>
<time>2012-09-18T18:01:20.07</time>
<name>7529</name>
<sym>Dot</sym>
</trkpt>
<trkpt lat="47.695860" lon="15.843203">
<ele>534.5</ele>
<desc>Speed 37.5 km/h Distance 151 km</desc>
<time>2012-09-18T18:01:21.06</time>
<name>7530</name>
<sym>Dot</sym>
</trkpt>
<trkpt lat="47.695832" lon="15.843323">
<ele>535.0</ele>
<desc>Speed 34.3 km/h Distance 151 km</desc>
<time>2012-09-18T18:01:22.12</time>
<name>7531</name>
<sym>Dot</sym>
</trkpt>
<trkpt lat="47.695792" lon="15.843443">
<ele>534.5</ele>
<desc>Speed 36.4 km/h Distance 151 km</desc>
<time>2012-09-18T18:01:23.06</time>
<name>7532</name>
<sym>Dot</sym>
</trkpt>
<trkpt lat="47.695752" lon="15.843562">
<ele>534.0</ele>
<desc>Speed 36.8 km/h Distance 151 km</desc>
<time>2012-09-18T18:01:24.05</time>
<name>7533</name>
<sym>Dot</sym>
</trkpt>
<trkpt lat="47.695710" lon="15.843672">
<ele>533.5</ele>
<desc>Speed 33.8 km/h Distance 151 km</desc>
<time>2012-09-18T18:01:25.05</time>
<name>7534</name>
<sym>Dot</sym>
</trkpt>
<trkpt lat="47.695677" lon="15.843788">
<ele>532.5</ele>
<desc>Speed 35.0 km/h Distance 151 km</desc>
<time>2012-09-18T18:01:26.05</time>
<name>7535</name>
<sym>Dot</sym>
</trkpt>
<trkpt lat="47.695640" lon="15.843902">
<ele>532.5</ele>
<desc>Speed 33.8 km/h Distance 151 km</desc>
<time>2012-09-18T18:01:27.05</time>
<name>7536</name>
<sym>Dot</sym>
</trkpt>
<trkpt lat="47.695607" lon="15.844012">
<ele>532.5</ele>
<desc>Speed 32.6 km/h Distance 151 km</desc>
<time>2012-09-18T18:01:28.04</time>
<name>7537</name>
<sym>Dot</sym>
</trkpt>
<trkpt lat="47.695577" lon="15.844113">
<ele>532.0</ele>
<desc>Speed 29.9 km/h Distance 151 km</desc>
<time>2012-09-18T18:01:29.03</time>
<name>7538</name>
<sym>Dot</sym>
</trkpt>
<trkpt lat="47.695548" lon="15.844200">
<ele>531.5</ele>
<desc>Speed 25.7 km/h Distance 151 km</desc>
<time>2012-09-18T18:01:30.02</time>
<name>7539</name>
<sym>Dot</sym>
</trkpt>
<trkpt lat="47.695518" lon="15.844318">
<ele>531.5</ele>
<desc>Speed 14.8 km/h Distance 151 km</desc>
<time>2012-09-18T18:01:32.02</time>
<name>7540</name>
<sym>Dot</sym>
</trkpt>
<trkpt lat="47.695507" lon="15.844365">
<ele>531.0</ele>
<desc>Speed 13.2 km/h Distance 151 km</desc>
<time>2012-09-18T18:01:33.07</time>
<name>7541</name>
<sym>Dot</sym>
</trkpt>
<trkpt lat="47.695497" lon="15.844403">
<ele>531.0</ele>
<desc>Speed 11.8 km/h Distance 151 km</desc>
<time>2012-09-18T18:01:34.02</time>
<name>7542</name>
<sym>Dot</sym>
</trkpt>
<trkpt lat="47.695487" lon="15.844443">
<ele>531.0</ele>
<desc>Speed 11.4 km/h Distance 151 km</desc>
<time>2012-09-18T18:01:35.01</time>
<name>7543</name>
<sym>Dot</sym>
</trkpt>
<trkpt lat="47.695477" lon="15.844492">
<ele>530.5</ele>
<desc>Speed 13.7 km/h Distance 151 km</desc>
<time>2012-09-18T18:01:36.01</time>
<name>7544</name>
<sym>Dot</sym>
</trkpt>
<trkpt lat="47.695462" lon="15.844558">
<ele>530.0</ele>
<desc>Speed 18.7 km/h Distance 151 km</desc>
<time>2012-09-18T18:01:37.01</time>
<name>7545</name>
<sym>Dot</sym>
</trkpt>
<trkpt lat="47.695445" lon="15.844620">
<ele>530.0</ele>
<desc>Speed 17.7 km/h Distance 151 km</desc>
<time>2012-09-18T18:01:38.00</time>
<name>7546</name>
<sym>Dot</sym>
</trkpt>
<trkpt lat="47.695428" lon="15.844683">
<ele>530.0</ele>
<desc>Speed 18.2 km/h Distance 151 km</desc>
<time>2012-09-18T18:01:39.00</time>
<name>7547</name>
<sym>Dot</sym>
</trkpt>
<trkpt lat="47.695412" lon="15.844760">
<ele>530.0</ele>
<desc>Speed 22.0 km/h Distance 151 km</desc>
<time>2012-09-18T18:01:39.99</time>
<name>7548</name>
<sym>Dot</sym>
</trkpt>
<trkpt lat="47.695392" lon="15.844835">
<ele>530.0</ele>
<desc>Speed 22.0 km/h Distance 151 km</desc>
<time>2012-09-18T18:01:40.98</time>
<name>7549</name>
<sym>Dot</sym>
</trkpt>
<trkpt lat="47.695370" lon="15.844908">
<ele>529.5</ele>
<desc>Speed 21.7 km/h Distance 151 km</desc>
<time>2012-09-18T18:01:41.98</time>
<name>7550</name>
<sym>Dot</sym>
</trkpt>
<trkpt lat="47.695347" lon="15.844988">
<ele>529.0</ele>
<desc>Speed 23.4 km/h Distance 151 km</desc>
<time>2012-09-18T18:01:42.97</time>
<name>7551</name>
<sym>Dot</sym>
</trkpt>
<trkpt lat="47.695322" lon="15.845085">
<ele>529.0</ele>
<desc>Speed 27.9 km/h Distance 151 km</desc>
<time>2012-09-18T18:01:44.03</time>
<name>7552</name>
<sym>Dot</sym>
</trkpt>
<trkpt lat="47.695293" lon="15.845205">
<ele>529.0</ele>
<desc>Speed 34.4 km/h Distance 151 km</desc>
<time>2012-09-18T18:01:44.96</time>
<name>7553</name>
<sym>Dot</sym>
</trkpt>
<trkpt lat="47.695258" lon="15.845337">
<ele>528.0</ele>
<desc>Speed 38.3 km/h Distance 151 km</desc>
<time>2012-09-18T18:01:45.96</time>
<name>7554</name>
<sym>Dot</sym>
</trkpt>
<trkpt lat="47.695223" lon="15.845465">
<ele>527.5</ele>
<desc>Speed 37.2 km/h Distance 151 km</desc>
<time>2012-09-18T18:01:46.95</time>
<name>7555</name>
<sym>Dot</sym>
</trkpt>
<trkpt lat="47.695192" lon="15.845585">
<ele>527.5</ele>
<desc>Speed 34.3 km/h Distance 151 km</desc>
<time>2012-09-18T18:01:47.94</time>
<name>7556</name>
<sym>Dot</sym>
</trkpt>
<trkpt lat="47.695163" lon="15.845698">
<ele>527.0</ele>
<desc>Speed 32.3 km/h Distance 151 km</desc>
<time>2012-09-18T18:01:48.95</time>
<name>7557</name>
<sym>Dot</sym>
</trkpt>
<trkpt lat="47.695133" lon="15.845817">
<ele>526.5</ele>
<desc>Speed 34.3 km/h Distance 151 km</desc>
<time>2012-09-18T18:01:49.95</time>
<name>7558</name>
<sym>Dot</sym>
</trkpt>
<trkpt lat="47.695100" lon="15.845940">
<ele>526.5</ele>
<desc>Speed 35.7 km/h Distance 151 km</desc>
<time>2012-09-18T18:01:50.94</time>
<name>7559</name>
<sym>Dot</sym>
</trkpt>
<trkpt lat="47.695065" lon="15.846063">
<ele>526.5</ele>
<desc>Speed 35.5 km/h Distance 151 km</desc>
<time>2012-09-18T18:01:51.95</time>
<name>7560</name>
<sym>Dot</sym>
</trkpt>
<trkpt lat="47.695027" lon="15.846188">
<ele>526.5</ele>
<desc>Speed 36.6 km/h Distance 151 km</desc>
<time>2012-09-18T18:01:52.93</time>
<name>7561</name>
<sym>Dot</sym>
</trkpt>
<trkpt lat="47.694993" lon="15.846312">
<ele>527.0</ele>
<desc>Speed 35.2 km/h Distance 151 km</desc>
<time>2012-09-18T18:01:53.94</time>
<name>7562</name>
<sym>Dot</sym>
</trkpt>
<trkpt lat="47.694952" lon="15.846430">
<ele>527.0</ele>
<desc>Speed 35.4 km/h Distance 151 km</desc>
<time>2012-09-18T18:01:54.96</time>
<name>7563</name>
<sym>Dot</sym>
</trkpt>
<trkpt lat="47.694902" lon="15.846552">
<ele>527.0</ele>
<desc>Speed 37.8 km/h Distance 151 km</desc>
<time>2012-09-18T18:01:55.92</time>
<name>7564</name>
<sym>Dot</sym>
</trkpt>
<trkpt lat="47.694843" lon="15.846680">
<ele>527.0</ele>
<desc>Speed 41.9 km/h Distance 151 km</desc>
<time>2012-09-18T18:01:56.92</time>
<name>7565</name>
<sym>Dot</sym>
</trkpt>
<trkpt lat="47.694778" lon="15.846805">
<ele>526.5</ele>
<desc>Speed 42.2 km/h Distance 151 km</desc>
<time>2012-09-18T18:01:57.91</time>
<name>7566</name>
<sym>Dot</sym>
</trkpt>
<trkpt lat="47.694702" lon="15.846910">
<ele>528.0</ele>
<desc>Speed 42.0 km/h Distance 151 km</desc>
<time>2012-09-18T18:01:58.91</time>
<name>7567</name>
<sym>Dot</sym>
</trkpt>
<trkpt lat="47.694617" lon="15.847023">
<ele>528.0</ele>
<desc>Speed 45.4 km/h Distance 151 km</desc>
<time>2012-09-18T18:01:59.90</time>
<name>7568</name>
<sym>Dot</sym>
</trkpt>
<trkpt lat="47.694530" lon="15.847130">
<ele>527.5</ele>
<desc>Speed 44.9 km/h Distance 151 km</desc>
<time>2012-09-18T18:02:00.90</time>
<name>7569</name>
<sym>Dot</sym>
</trkpt>
<trkpt lat="47.694445" lon="15.847228">
<ele>527.5</ele>
<desc>Speed 42.9 km/h Distance 151 km</desc>
<time>2012-09-18T18:02:01.90</time>
<name>7570</name>
<sym>Dot</sym>
</trkpt>
<trkpt lat="47.694362" lon="15.847322">
<ele>527.5</ele>
<desc>Speed 41.5 km/h Distance 151 km</desc>
<time>2012-09-18T18:02:02.90</time>
<name>7571</name>
<sym>Dot</sym>
</trkpt>
<trkpt lat="47.694277" lon="15.847418">
<ele>527.5</ele>
<desc>Speed 42.8 km/h Distance 151 km</desc>
<time>2012-09-18T18:02:03.90</time>
<name>7572</name>
<sym>Dot</sym>
</trkpt>
<trkpt lat="47.694193" lon="15.847518">
<ele>527.5</ele>
<desc>Speed 43.0 km/h Distance 151 km</desc>
<time>2012-09-18T18:02:04.88</time>
<name>7573</name>
<sym>Dot</sym>
</trkpt>
<trkpt lat="47.694117" lon="15.847625">
<ele>527.0</ele>
<desc>Speed 41.8 km/h Distance 151 km</desc>
<time>2012-09-18T18:02:05.97</time>
<name>7574</name>
<sym>Dot</sym>
</trkpt>
<trkpt lat="47.694043" lon="15.847752">
<ele>527.0</ele>
<desc>Speed 45.1 km/h Distance 151 km</desc>
<time>2012-09-18T18:02:06.88</time>
<name>7575</name>
<sym>Dot</sym>
</trkpt>
<trkpt lat="47.693970" lon="15.847895">
<ele>527.0</ele>
<desc>Speed 48.3 km/h Distance 151 km</desc>
<time>2012-09-18T18:02:07.88</time>
<name>7576</name>
<sym>Dot</sym>
</trkpt>
<trkpt lat="47.693905" lon="15.848038">
<ele>527.5</ele>
<desc>Speed 46.3 km/h Distance 151 km</desc>
<time>2012-09-18T18:02:08.87</time>
<name>7577</name>
<sym>Dot</sym>
</trkpt>
<trkpt lat="47.693853" lon="15.848180">
<ele>527.5</ele>
<desc>Speed 43.7 km/h Distance 151 km</desc>
<time>2012-09-18T18:02:09.88</time>
<name>7578</name>
<sym>Dot</sym>
</trkpt>
<trkpt lat="47.693808" lon="15.848320">
<ele>527.5</ele>
<desc>Speed 41.5 km/h Distance 151 km</desc>
<time>2012-09-18T18:02:10.86</time>
<name>7579</name>
<sym>Dot</sym>
</trkpt>
<trkpt lat="47.693768" lon="15.848455">
<ele>527.0</ele>
<desc>Speed 39.8 km/h Distance 151 km</desc>
<time>2012-09-18T18:02:11.86</time>
<name>7580</name>
<sym>Dot</sym>
</trkpt>
<trkpt lat="47.693730" lon="15.848585">
<ele>527.5</ele>
<desc>Speed 37.9 km/h Distance 151 km</desc>
<time>2012-09-18T18:02:12.85</time>
<name>7581</name>
<sym>Dot</sym>
</trkpt>
<trkpt lat="47.693692" lon="15.848718">
<ele>527.5</ele>
<desc>Speed 38.9 km/h Distance 151 km</desc>
<time>2012-09-18T18:02:13.85</time>
<name>7582</name>
<sym>Dot</sym>
</trkpt>
<trkpt lat="47.693652" lon="15.848862">
<ele>527.5</ele>
<desc>Speed 41.3 km/h Distance 151 km</desc>
<time>2012-09-18T18:02:14.84</time>
<name>7583</name>
<sym>Dot</sym>
</trkpt>
<trkpt lat="47.693612" lon="15.849012">
<ele>527.5</ele>
<desc>Speed 43.6 km/h Distance 151 km</desc>
<time>2012-09-18T18:02:15.87</time>
<name>7584</name>
<sym>Dot</sym>
</trkpt>
<trkpt lat="47.693568" lon="15.849178">
<ele>527.5</ele>
<desc>Speed 48.0 km/h Distance 151 km</desc>
<time>2012-09-18T18:02:16.83</time>
<name>7585</name>
<sym>Dot</sym>
</trkpt>
<trkpt lat="47.693525" lon="15.849347">
<ele>527.5</ele>
<desc>Speed 49.0 km/h Distance 151 km</desc>
<time>2012-09-18T18:02:17.84</time>
<name>7586</name>
<sym>Dot</sym>
</trkpt>
<trkpt lat="47.693480" lon="15.849507">
<ele>527.5</ele>
<desc>Speed 46.9 km/h Distance 151 km</desc>
<time>2012-09-18T18:02:18.83</time>
<name>7587</name>
<sym>Dot</sym>
</trkpt>
<trkpt lat="47.693433" lon="15.849658">
<ele>527.5</ele>
<desc>Speed 44.7 km/h Distance 151 km</desc>
<time>2012-09-18T18:02:19.82</time>
<name>7588</name>
<sym>Dot</sym>
</trkpt>
<trkpt lat="47.693387" lon="15.849800">
<ele>527.0</ele>
<desc>Speed 42.7 km/h Distance 151 km</desc>
<time>2012-09-18T18:02:20.81</time>
<name>7589</name>
<sym>Dot</sym>
</trkpt>
<trkpt lat="47.693343" lon="15.849937">
<ele>527.5</ele>
<desc>Speed 40.5 km/h Distance 151 km</desc>
<time>2012-09-18T18:02:21.81</time>
<name>7590</name>
<sym>Dot</sym>
</trkpt>
<trkpt lat="47.693298" lon="15.850073">
<ele>527.0</ele>
<desc>Speed 41.0 km/h Distance 151 km</desc>
<time>2012-09-18T18:02:22.80</time>
<name>7591</name>
<sym>Dot</sym>
</trkpt>
<trkpt lat="47.693248" lon="15.850215">
<ele>527.0</ele>
<desc>Speed 43.1 km/h Distance 151 km</desc>
<time>2012-09-18T18:02:23.80</time>
<name>7592</name>
<sym>Dot</sym>
</trkpt>
<trkpt lat="47.693188" lon="15.850365">
<ele>527.0</ele>
<desc>Speed 47.0 km/h Distance 151 km</desc>
<time>2012-09-18T18:02:24.79</time>
<name>7593</name>
<sym>Dot</sym>
</trkpt>
<trkpt lat="47.693045" lon="15.850707">
<ele>527.0</ele>
<desc>Speed 51.9 km/h Distance 151 km</desc>
<time>2012-09-18T18:02:26.80</time>
<name>7594</name>
<sym>Dot</sym>
</trkpt>
<trkpt lat="47.692977" lon="15.850860">
<ele>526.5</ele>
<desc>Speed 49.6 km/h Distance 151 km</desc>
<time>2012-09-18T18:02:27.79</time>
<name>7595</name>
<sym>Dot</sym>
</trkpt>
<trkpt lat="47.692912" lon="15.851008">
<ele>526.5</ele>
<desc>Speed 48.3 km/h Distance 151 km</desc>
<time>2012-09-18T18:02:28.78</time>
<name>7596</name>
<sym>Dot</sym>
</trkpt>
<trkpt lat="47.692847" lon="15.851162">
<ele>526.0</ele>
<desc>Speed 49.3 km/h Distance 151 km</desc>
<time>2012-09-18T18:02:29.78</time>
<name>7597</name>
<sym>Dot</sym>
</trkpt>
<trkpt lat="47.692782" lon="15.851312">
<ele>526.0</ele>
<desc>Speed 48.3 km/h Distance 151 km</desc>
<time>2012-09-18T18:02:30.77</time>
<name>7598</name>
<sym>Dot</sym>
</trkpt>
<trkpt lat="47.692718" lon="15.851462">
<ele>525.5</ele>
<desc>Speed 48.2 km/h Distance 151 km</desc>
<time>2012-09-18T18:02:31.77</time>
<name>7599</name>
<sym>Dot</sym>
</trkpt>
<trkpt lat="47.692655" lon="15.851613">
<ele>525.5</ele>
<desc>Speed 48.2 km/h Distance 151 km</desc>
<time>2012-09-18T18:02:32.76</time>
<name>7600</name>
<sym>Dot</sym>
</trkpt>
<trkpt lat="47.692600" lon="15.851772">
<ele>525.0</ele>
<desc>Speed 48.5 km/h Distance 151 km</desc>
<time>2012-09-18T18:02:33.75</time>
<name>7601</name>
<sym>Dot</sym>
</trkpt>
<trkpt lat="47.692550" lon="15.851948">
<ele>524.0</ele>
<desc>Speed 51.8 km/h Distance 152 km</desc>
<time>2012-09-18T18:02:34.76</time>
<name>7602</name>
<sym>Dot</sym>
</trkpt>
<trkpt lat="47.692507" lon="15.852140">
<ele>525.0</ele>
<desc>Speed 54.9 km/h Distance 152 km</desc>
<time>2012-09-18T18:02:35.75</time>
<name>7603</name>
<sym>Dot</sym>
</trkpt>
<trkpt lat="47.692480" lon="15.852328">
<ele>525.5</ele>
<desc>Speed 52.1 km/h Distance 152 km</desc>
<time>2012-09-18T18:02:36.74</time>
<name>7604</name>
<sym>Dot</sym>
</trkpt>
<trkpt lat="47.692467" lon="15.852510">
<ele>525.0</ele>
<desc>Speed 49.9 km/h Distance 152 km</desc>
<time>2012-09-18T18:02:37.74</time>
<name>7605</name>
<sym>Dot</sym>
</trkpt>
<trkpt lat="47.692467" lon="15.852688">
<ele>525.0</ele>
<desc>Speed 48.5 km/h Distance 152 km</desc>
<time>2012-09-18T18:02:38.73</time>
<name>7606</name>
<sym>Dot</sym>
</trkpt>
<trkpt lat="47.692473" lon="15.852863">
<ele>525.0</ele>
<desc>Speed 47.4 km/h Distance 152 km</desc>
<time>2012-09-18T18:02:39.73</time>
<name>7607</name>
<sym>Dot</sym>
</trkpt>
<trkpt lat="47.692480" lon="15.853038">
<ele>525.0</ele>
<desc>Speed 47.8 km/h Distance 152 km</desc>
<time>2012-09-18T18:02:40.72</time>
<name>7608</name>
<sym>Dot</sym>
</trkpt>
<trkpt lat="47.692485" lon="15.853217">
<ele>525.0</ele>
<desc>Speed 48.1 km/h Distance 152 km</desc>
<time>2012-09-18T18:02:41.72</time>
<name>7609</name>
<sym>Dot</sym>
</trkpt>
<trkpt lat="47.692482" lon="15.853395">
<ele>525.0</ele>
<desc>Speed 48.3 km/h Distance 152 km</desc>
<time>2012-09-18T18:02:42.71</time>
<name>7610</name>
<sym>Dot</sym>
</trkpt>
<trkpt lat="47.692472" lon="15.853583">
<ele>525.5</ele>
<desc>Speed 51.2 km/h Distance 152 km</desc>
<time>2012-09-18T18:02:43.71</time>
<name>7611</name>
<sym>Dot</sym>
</trkpt>
<trkpt lat="47.692455" lon="15.853778">
<ele>525.0</ele>
<desc>Speed 53.3 km/h Distance 152 km</desc>
<time>2012-09-18T18:02:44.71</time>
<name>7612</name>
<sym>Dot</sym>
</trkpt>
<trkpt lat="47.692437" lon="15.853967">
<ele>525.0</ele>
<desc>Speed 51.7 km/h Distance 152 km</desc>
<time>2012-09-18T18:02:45.71</time>
<name>7613</name>
<sym>Dot</sym>
</trkpt>
<trkpt lat="47.692417" lon="15.854147">
<ele>524.5</ele>
<desc>Speed 49.5 km/h Distance 152 km</desc>
<time>2012-09-18T18:02:46.69</time>
<name>7614</name>
<sym>Dot</sym>
</trkpt>
<trkpt lat="47.692393" lon="15.854318">
<ele>524.5</ele>
<desc>Speed 47.4 km/h Distance 152 km</desc>
<time>2012-09-18T18:02:47.69</time>
<name>7615</name>
<sym>Dot</sym>
</trkpt>
<trkpt lat="47.692365" lon="15.854480">
<ele>524.5</ele>
<desc>Speed 45.4 km/h Distance 152 km</desc>
<time>2012-09-18T18:02:48.68</time>
<name>7616</name>
<sym>Dot</sym>
</trkpt>
<trkpt lat="47.692343" lon="15.854637">
<ele>524.5</ele>
<desc>Speed 43.3 km/h Distance 152 km</desc>
<time>2012-09-18T18:02:49.68</time>
<name>7617</name>
<sym>Dot</sym>
</trkpt>
<trkpt lat="47.692317" lon="15.854800">
<ele>524.5</ele>
<desc>Speed 45.6 km/h Distance 152 km</desc>
<time>2012-09-18T18:02:50.68</time>
<name>7618</name>
<sym>Dot</sym>
</trkpt>
<trkpt lat="47.692282" lon="15.854973">
<ele>524.5</ele>
<desc>Speed 48.8 km/h Distance 152 km</desc>
<time>2012-09-18T18:02:51.67</time>
<name>7619</name>
<sym>Dot</sym>
</trkpt>
<trkpt lat="47.692240" lon="15.855153">
<ele>524.0</ele>
<desc>Speed 51.7 km/h Distance 152 km</desc>
<time>2012-09-18T18:02:52.67</time>
<name>7620</name>
<sym>Dot</sym>
</trkpt>
<trkpt lat="47.692197" lon="15.855328">
<ele>523.5</ele>
<desc>Speed 50.2 km/h Distance 152 km</desc>
<time>2012-09-18T18:02:53.67</time>
<name>7621</name>
<sym>Dot</sym>
</trkpt>
<trkpt lat="47.692153" lon="15.855497">
<ele>524.0</ele>
<desc>Speed 48.6 km/h Distance 152 km</desc>
<time>2012-09-18T18:02:54.65</time>
<name>7622</name>
<sym>Dot</sym>
</trkpt>
<trkpt lat="47.692115" lon="15.855660">
<ele>523.0</ele>
<desc>Speed 47.2 km/h Distance 152 km</desc>
<time>2012-09-18T18:02:55.64</time>
<name>7623</name>
<sym>Dot</sym>
</trkpt>
<trkpt lat="47.692082" lon="15.855823">
<ele>523.0</ele>
<desc>Speed 46.2 km/h Distance 152 km</desc>
<time>2012-09-18T18:02:56.63</time>
<name>7624</name>
<sym>Dot</sym>
</trkpt>
<trkpt lat="47.692062" lon="15.855988">
<ele>523.0</ele>
<desc>Speed 45.3 km/h Distance 152 km</desc>
<time>2012-09-18T18:02:57.65</time>
<name>7625</name>
<sym>Dot</sym>
</trkpt>
<trkpt lat="47.692053" lon="15.856157">
<ele>523.5</ele>
<desc>Speed 45.2 km/h Distance 152 km</desc>
<time>2012-09-18T18:02:58.63</time>
<name>7626</name>
<sym>Dot</sym>
</trkpt>
<trkpt lat="47.692058" lon="15.856323">
<ele>524.0</ele>
<desc>Speed 44.5 km/h Distance 152 km</desc>
<time>2012-09-18T18:02:59.62</time>
<name>7627</name>
<sym>Dot</sym>
</trkpt>
<trkpt lat="47.692078" lon="15.856493">
<ele>524.5</ele>
<desc>Speed 45.6 km/h Distance 152 km</desc>
<time>2012-09-18T18:03:00.62</time>
<name>7628</name>
<sym>Dot</sym>
</trkpt>
<trkpt lat="47.692108" lon="15.856657">
<ele>525.0</ele>
<desc>Speed 45.4 km/h Distance 152 km</desc>
<time>2012-09-18T18:03:01.61</time>
<name>7629</name>
<sym>Dot</sym>
</trkpt>
<trkpt lat="47.692150" lon="15.856810">
<ele>523.5</ele>
<desc>Speed 44.7 km/h Distance 152 km</desc>
<time>2012-09-18T18:03:02.60</time>
<name>7630</name>
<sym>Dot</sym>
</trkpt>
<trkpt lat="47.692197" lon="15.856988">
<ele>524.0</ele>
<desc>Speed 51.6 km/h Distance 152 km</desc>
<time>2012-09-18T18:03:03.60</time>
<name>7631</name>
<sym>Dot</sym>
</trkpt>
<trkpt lat="47.692237" lon="15.857160">
<ele>524.5</ele>
<desc>Speed 48.9 km/h Distance 152 km</desc>
<time>2012-09-18T18:03:04.60</time>
<name>7632</name>
<sym>Dot</sym>
</trkpt>
<trkpt lat="47.692330" lon="15.857572">
<ele>525.5</ele>
<desc>Speed 61.0 km/h Distance 152 km</desc>
<time>2012-09-18T18:03:06.61</time>
<name>7633</name>
<sym>Dot</sym>
</trkpt>
<trkpt lat="47.692372" lon="15.857780">
<ele>525.0</ele>
<desc>Speed 58.6 km/h Distance 152 km</desc>
<time>2012-09-18T18:03:07.60</time>
<name>7634</name>
<sym>Dot</sym>
</trkpt>
<trkpt lat="47.692410" lon="15.857980">
<ele>524.5</ele>
<desc>Speed 56.3 km/h Distance 152 km</desc>
<time>2012-09-18T18:03:08.59</time>
<name>7635</name>
<sym>Dot</sym>
</trkpt>
<trkpt lat="47.692447" lon="15.858172">
<ele>524.5</ele>
<desc>Speed 54.4 km/h Distance 152 km</desc>
<time>2012-09-18T18:03:09.59</time>
<name>7636</name>
<sym>Dot</sym>
</trkpt>
<trkpt lat="47.692478" lon="15.858357">
<ele>524.0</ele>
<desc>Speed 52.1 km/h Distance 152 km</desc>
<time>2012-09-18T18:03:10.58</time>
<name>7637</name>
<sym>Dot</sym>
</trkpt>
<trkpt lat="47.692508" lon="15.858537">
<ele>524.0</ele>
<desc>Speed 50.3 km/h Distance 152 km</desc>
<time>2012-09-18T18:03:11.57</time>
<name>7638</name>
<sym>Dot</sym>
</trkpt>
<trkpt lat="47.692532" lon="15.858713">
<ele>523.0</ele>
<desc>Speed 48.7 km/h Distance 152 km</desc>
<time>2012-09-18T18:03:12.57</time>
<name>7639</name>
<sym>Dot</sym>
</trkpt>
<trkpt lat="47.692548" lon="15.858885">
<ele>523.0</ele>
<desc>Speed 47.3 km/h Distance 152 km</desc>
<time>2012-09-18T18:03:13.57</time>
<name>7640</name>
<sym>Dot</sym>
</trkpt>
<trkpt lat="47.692562" lon="15.859060">
<ele>522.5</ele>
<desc>Speed 48.1 km/h Distance 152 km</desc>
<time>2012-09-18T18:03:14.57</time>
<name>7641</name>
<sym>Dot</sym>
</trkpt>
<trkpt lat="47.692572" lon="15.859243">
<ele>522.0</ele>
<desc>Speed 50.0 km/h Distance 152 km</desc>
<time>2012-09-18T18:03:15.56</time>
<name>7642</name>
<sym>Dot</sym>
</trkpt>
<trkpt lat="47.692578" lon="15.859440">
<ele>522.0</ele>
<desc>Speed 53.2 km/h Distance 152 km</desc>
<time>2012-09-18T18:03:16.56</time>
<name>7643</name>
<sym>Dot</sym>
</trkpt>
<trkpt lat="47.692583" lon="15.859642">
<ele>522.0</ele>
<desc>Speed 54.7 km/h Distance 152 km</desc>
<time>2012-09-18T18:03:17.55</time>
<name>7644</name>
<sym>Dot</sym>
</trkpt>
<trkpt lat="47.692587" lon="15.859837">
<ele>522.0</ele>
<desc>Speed 52.4 km/h Distance 152 km</desc>
<time>2012-09-18T18:03:18.55</time>
<name>7645</name>
<sym>Dot</sym>
</trkpt>
<trkpt lat="47.692588" lon="15.860022">
<ele>522.0</ele>
<desc>Speed 50.3 km/h Distance 152 km</desc>
<time>2012-09-18T18:03:19.54</time>
<name>7646</name>
<sym>Dot</sym>
</trkpt>
<trkpt lat="47.692588" lon="15.860207">
<ele>522.0</ele>
<desc>Speed 49.8 km/h Distance 152 km</desc>
<time>2012-09-18T18:03:20.54</time>
<name>7647</name>
<sym>Dot</sym>
</trkpt>
<trkpt lat="47.692590" lon="15.860405">
<ele>521.5</ele>
<desc>Speed 53.5 km/h Distance 152 km</desc>
<time>2012-09-18T18:03:21.53</time>
<name>7648</name>
<sym>Dot</sym>
</trkpt>
<trkpt lat="47.692590" lon="15.860610">
<ele>521.5</ele>
<desc>Speed 55.9 km/h Distance 152 km</desc>
<time>2012-09-18T18:03:22.54</time>
<name>7649</name>
<sym>Dot</sym>
</trkpt>
<trkpt lat="47.692592" lon="15.860810">
<ele>521.5</ele>
<desc>Speed 53.6 km/h Distance 152 km</desc>
<time>2012-09-18T18:03:23.52</time>
<name>7650</name>
<sym>Dot</sym>
</trkpt>
<trkpt lat="47.692593" lon="15.860998">
<ele>521.0</ele>
<desc>Speed 51.0 km/h Distance 152 km</desc>
<time>2012-09-18T18:03:24.52</time>
<name>7651</name>
<sym>Dot</sym>
</trkpt>
<trkpt lat="47.692600" lon="15.861180">
<ele>520.5</ele>
<desc>Speed 48.9 km/h Distance 152 km</desc>
<time>2012-09-18T18:03:25.51</time>
<name>7652</name>
<sym>Dot</sym>
</trkpt>
<trkpt lat="47.692610" lon="15.861352">
<ele>520.5</ele>
<desc>Speed 46.6 km/h Distance 152 km</desc>
<time>2012-09-18T18:03:26.51</time>
<name>7653</name>
<sym>Dot</sym>
</trkpt>
<trkpt lat="47.692627" lon="15.861517">
<ele>520.5</ele>
<desc>Speed 45.1 km/h Distance 152 km</desc>
<time>2012-09-18T18:03:27.50</time>
<name>7654</name>
<sym>Dot</sym>
</trkpt>
<trkpt lat="47.692647" lon="15.861675">
<ele>520.5</ele>
<desc>Speed 43.3 km/h Distance 152 km</desc>
<time>2012-09-18T18:03:28.50</time>
<name>7655</name>
<sym>Dot</sym>
</trkpt>
<trkpt lat="47.692665" lon="15.861828">
<ele>520.5</ele>
<desc>Speed 41.8 km/h Distance 152 km</desc>
<time>2012-09-18T18:03:29.49</time>
<name>7656</name>
<sym>Dot</sym>
</trkpt>
<trkpt lat="47.692680" lon="15.861968">
<ele>520.5</ele>
<desc>Speed 38.4 km/h Distance 152 km</desc>
<time>2012-09-18T18:03:30.49</time>
<name>7657</name>
<sym>Dot</sym>
</trkpt>
<trkpt lat="47.692690" lon="15.862092">
<ele>520.0</ele>
<desc>Speed 33.7 km/h Distance 152 km</desc>
<time>2012-09-18T18:03:31.49</time>
<name>7658</name>
<sym>Dot</sym>
</trkpt>
<trkpt lat="47.692697" lon="15.862195">
<ele>520.0</ele>
<desc>Speed 28.1 km/h Distance 152 km</desc>
<time>2012-09-18T18:03:32.48</time>
<name>7659</name>
<sym>Dot</sym>
</trkpt>
<trkpt lat="47.692713" lon="15.862313">
<ele>521.0</ele>
<desc>Speed 0.3 km/h Distance 152 km</desc>
<time>2012-09-18T18:03:37.50</time>
<name>7660</name>
<sym>Dot</sym>
</trkpt>
<trkpt lat="47.692713" lon="15.862313">
<ele>521.0</ele>
<desc>Speed 0.5 km/h Distance 152 km</desc>
<time>2012-09-18T18:03:38.50</time>
<name>7661</name>
<sym>Dot</sym>
</trkpt>
<trkpt lat="47.692713" lon="15.862313">
<ele>521.0</ele>
<desc>Speed 0.4 km/h Distance 152 km</desc>
<time>2012-09-18T18:03:39.49</time>
<name>7662</name>
<sym>Dot</sym>
</trkpt>
<trkpt lat="47.692712" lon="15.862313">
<ele>521.0</ele>
<desc>Speed 0.4 km/h Distance 152 km</desc>
<time>2012-09-18T18:03:40.48</time>
<name>7663</name>
<sym>Dot</sym>
</trkpt>
<trkpt lat="47.692710" lon="15.862318">
<ele>521.5</ele>
<desc>Speed 1.6 km/h Distance 152 km</desc>
<time>2012-09-18T18:03:41.48</time>
<name>7664</name>
<sym>Dot</sym>
</trkpt>
<trkpt lat="47.692718" lon="15.862407">
<ele>523.0</ele>
<desc>Speed 14.3 km/h Distance 152 km</desc>
<time>2012-09-18T18:03:43.48</time>
<name>7665</name>
<sym>Dot</sym>
</trkpt>
<trkpt lat="47.692725" lon="15.862462">
<ele>523.0</ele>
<desc>Speed 14.9 km/h Distance 152 km</desc>
<time>2012-09-18T18:03:44.47</time>
<name>7666</name>
<sym>Dot</sym>
</trkpt>
<trkpt lat="47.692730" lon="15.862510">
<ele>523.0</ele>
<desc>Speed 13.2 km/h Distance 152 km</desc>
<time>2012-09-18T18:03:45.47</time>
<name>7667</name>
<sym>Dot</sym>
</trkpt>
<trkpt lat="47.692732" lon="15.862542">
<ele>523.0</ele>
<desc>Speed 8.6 km/h Distance 152 km</desc>
<time>2012-09-18T18:03:46.47</time>
<name>7668</name>
<sym>Dot</sym>
</trkpt>
<trkpt lat="47.692732" lon="15.862555">
<ele>523.0</ele>
<desc>Speed 3.4 km/h Distance 152 km</desc>
<time>2012-09-18T18:03:47.47</time>
<name>7669</name>
<sym>Dot</sym>
</trkpt>
<trkpt lat="47.692732" lon="15.862555">
<ele>523.0</ele>
<desc>Speed 0.6 km/h Distance 152 km</desc>
<time>2012-09-18T18:03:48.46</time>
<name>7670</name>
<sym>Dot</sym>
</trkpt>
<trkpt lat="47.692732" lon="15.862555">
<ele>523.0</ele>
<desc>Speed 0.2 km/h Distance 152 km</desc>
<time>2012-09-18T18:03:49.46</time>
<name>7671</name>
<sym>Dot</sym>
</trkpt>
<trkpt lat="47.692732" lon="15.862557">
<ele>523.0</ele>
<desc>Speed 0.2 km/h Distance 152 km</desc>
<time>2012-09-18T18:03:50.45</time>
<name>7672</name>
<sym>Dot</sym>
</trkpt>
<trkpt lat="47.692732" lon="15.862557">
<ele>523.0</ele>
<desc>Speed 0.2 km/h Distance 152 km</desc>
<time>2012-09-18T18:03:51.45</time>
<name>7673</name>
<sym>Dot</sym>
</trkpt>
<trkpt lat="47.692732" lon="15.862557">
<ele>523.0</ele>
<desc>Speed 0.2 km/h Distance 152 km</desc>
<time>2012-09-18T18:03:52.45</time>
<name>7674</name>
<sym>Dot</sym>
</trkpt>
<trkpt lat="47.692732" lon="15.862557">
<ele>523.0</ele>
<desc>Speed 0.1 km/h Distance 152 km</desc>
<time>2012-09-18T18:03:53.45</time>
<name>7675</name>
<sym>Dot</sym>
</trkpt>
<trkpt lat="47.692732" lon="15.862557">
<ele>523.0</ele>
<desc>Speed 0.3 km/h Distance 152 km</desc>
<time>2012-09-18T18:03:54.44</time>
<name>7676</name>
<sym>Dot</sym>
</trkpt>
<trkpt lat="47.692732" lon="15.862558">
<ele>523.0</ele>
<desc>Speed 0.1 km/h Distance 152 km</desc>
<time>2012-09-18T18:03:55.44</time>
<name>7677</name>
<sym>Dot</sym>
</trkpt>
<trkpt lat="47.692733" lon="15.862558">
<ele>522.5</ele>
<desc>Speed 0.3 km/h Distance 152 km</desc>
<time>2012-09-18T18:03:56.44</time>
<name>7678</name>
<sym>Dot</sym>
</trkpt>
<trkpt lat="47.692733" lon="15.862558">
<ele>522.5</ele>
<desc>Speed 0.2 km/h Distance 152 km</desc>
<time>2012-09-18T18:03:57.43</time>
<name>7679</name>
<sym>Dot</sym>
</trkpt>
<trkpt lat="47.692733" lon="15.862560">
<ele>522.5</ele>
<desc>Speed 0.2 km/h Distance 152 km</desc>
<time>2012-09-18T18:03:58.43</time>
<name>7680</name>
<sym>Dot</sym>
</trkpt>
<trkpt lat="47.692733" lon="15.862560">
<ele>522.5</ele>
<desc>Speed 0.1 km/h Distance 152 km</desc>
<time>2012-09-18T18:03:59.42</time>
<name>7681</name>
<sym>Dot</sym>
</trkpt>
<trkpt lat="47.692733" lon="15.862560">
<ele>522.5</ele>
<desc>Speed 0.2 km/h Distance 152 km</desc>
<time>2012-09-18T18:04:00.42</time>
<name>7682</name>
<sym>Dot</sym>
</trkpt>
<trkpt lat="47.692733" lon="15.862560">
<ele>522.5</ele>
<desc>Speed 0.2 km/h Distance 152 km</desc>
<time>2012-09-18T18:04:01.41</time>
<name>7683</name>
<sym>Dot</sym>
</trkpt>
<trkpt lat="47.692733" lon="15.862560">
<ele>522.5</ele>
<desc>Speed 0.2 km/h Distance 152 km</desc>
<time>2012-09-18T18:04:02.41</time>
<name>7684</name>
<sym>Dot</sym>
</trkpt>
<trkpt lat="47.692733" lon="15.862560">
<ele>522.5</ele>
<desc>Speed 0.0 km/h Distance 152 km</desc>
<time>2012-09-18T18:04:03.42</time>
<name>7685</name>
<sym>Dot</sym>
</trkpt>
<trkpt lat="47.692733" lon="15.862562">
<ele>522.5</ele>
<desc>Speed 0.2 km/h Distance 152 km</desc>
<time>2012-09-18T18:04:04.41</time>
<name>7686</name>
<sym>Dot</sym>
</trkpt>
<trkpt lat="47.692733" lon="15.862562">
<ele>522.5</ele>
<desc>Speed 0.2 km/h Distance 152 km</desc>
<time>2012-09-18T18:04:05.41</time>
<name>7687</name>
<sym>Dot</sym>
</trkpt>
<trkpt lat="47.692735" lon="15.862562">
<ele>522.5</ele>
<desc>Speed 0.2 km/h Distance 152 km</desc>
<time>2012-09-18T18:04:06.41</time>
<name>7688</name>
<sym>Dot</sym>
</trkpt>
<trkpt lat="47.692735" lon="15.862562">
<ele>522.5</ele>
<desc>Speed 0.2 km/h Distance 152 km</desc>
<time>2012-09-18T18:04:07.40</time>
<name>7689</name>
<sym>Dot</sym>
</trkpt>
<trkpt lat="47.692735" lon="15.862562">
<ele>522.5</ele>
<desc>Speed 0.2 km/h Distance 152 km</desc>
<time>2012-09-18T18:04:08.39</time>
<name>7690</name>
<sym>Dot</sym>
</trkpt>
<trkpt lat="47.692735" lon="15.862562">
<ele>522.5</ele>
<desc>Speed 0.2 km/h Distance 152 km</desc>
<time>2012-09-18T18:04:09.39</time>
<name>7691</name>
<sym>Dot</sym>
</trkpt>
<trkpt lat="47.692735" lon="15.862562">
<ele>522.5</ele>
<desc>Speed 0.2 km/h Distance 152 km</desc>
<time>2012-09-18T18:04:10.39</time>
<name>7692</name>
<sym>Dot</sym>
</trkpt>
<trkpt lat="47.692735" lon="15.862562">
<ele>522.0</ele>
<desc>Speed 0.0 km/h Distance 152 km</desc>
<time>2012-09-18T18:04:11.38</time>
<name>7693</name>
<sym>Dot</sym>
</trkpt>
<trkpt lat="47.692735" lon="15.862562">
<ele>522.0</ele>
<desc>Speed 0.1 km/h Distance 152 km</desc>
<time>2012-09-18T18:04:12.38</time>
<name>7694</name>
<sym>Dot</sym>
</trkpt>
<trkpt lat="47.692735" lon="15.862562">
<ele>522.0</ele>
<desc>Speed 0.3 km/h Distance 152 km</desc>
<time>2012-09-18T18:04:13.38</time>
<name>7695</name>
<sym>Dot</sym>
</trkpt>
<trkpt lat="47.692735" lon="15.862562">
<ele>522.0</ele>
<desc>Speed 0.1 km/h Distance 152 km</desc>
<time>2012-09-18T18:04:14.37</time>
<name>7696</name>
<sym>Dot</sym>
</trkpt>
<trkpt lat="47.692735" lon="15.862562">
<ele>522.0</ele>
<desc>Speed 0.2 km/h Distance 152 km</desc>
<time>2012-09-18T18:04:15.36</time>
<name>7697</name>
<sym>Dot</sym>
</trkpt>
<trkpt lat="47.692735" lon="15.862562">
<ele>522.0</ele>
<desc>Speed 0.1 km/h Distance 152 km</desc>
<time>2012-09-18T18:04:16.37</time>
<name>7698</name>
<sym>Dot</sym>
</trkpt>
<trkpt lat="47.692735" lon="15.862562">
<ele>522.0</ele>
<desc>Speed 0.3 km/h Distance 152 km</desc>
<time>2012-09-18T18:04:17.36</time>
<name>7699</name>
<sym>Dot</sym>
</trkpt>
<trkpt lat="47.692735" lon="15.862562">
<ele>522.0</ele>
<desc>Speed 0.3 km/h Distance 152 km</desc>
<time>2012-09-18T18:04:18.36</time>
<name>7700</name>
<sym>Dot</sym>
</trkpt>
<trkpt lat="47.692735" lon="15.862562">
<ele>522.0</ele>
<desc>Speed 0.3 km/h Distance 152 km</desc>
<time>2012-09-18T18:04:19.35</time>
<name>7701</name>
<sym>Dot</sym>
</trkpt>
<trkpt lat="47.692735" lon="15.862563">
<ele>522.0</ele>
<desc>Speed 0.3 km/h Distance 152 km</desc>
<time>2012-09-18T18:04:20.35</time>
<name>7702</name>
<sym>Dot</sym>
</trkpt>
<trkpt lat="47.692735" lon="15.862563">
<ele>522.0</ele>
<desc>Speed 0.1 km/h Distance 152 km</desc>
<time>2012-09-18T18:04:21.34</time>
<name>7703</name>
<sym>Dot</sym>
</trkpt>
<trkpt lat="47.692735" lon="15.862563">
<ele>522.0</ele>
<desc>Speed 0.4 km/h Distance 152 km</desc>
<time>2012-09-18T18:04:22.34</time>
<name>7704</name>
<sym>Dot</sym>
</trkpt>
<trkpt lat="47.692737" lon="15.862563">
<ele>522.0</ele>
<desc>Speed 0.2 km/h Distance 152 km</desc>
<time>2012-09-18T18:04:23.33</time>
<name>7705</name>
<sym>Dot</sym>
</trkpt>
<trkpt lat="47.692737" lon="15.862563">
<ele>522.0</ele>
<desc>Speed 0.2 km/h Distance 152 km</desc>
<time>2012-09-18T18:04:24.33</time>
<name>7706</name>
<sym>Dot</sym>
</trkpt>
<trkpt lat="47.692737" lon="15.862563">
<ele>522.0</ele>
<desc>Speed 0.4 km/h Distance 152 km</desc>
<time>2012-09-18T18:04:25.32</time>
<name>7707</name>
<sym>Dot</sym>
</trkpt>
<trkpt lat="47.692737" lon="15.862563">
<ele>522.0</ele>
<desc>Speed 0.3 km/h Distance 152 km</desc>
<time>2012-09-18T18:04:26.32</time>
<name>7708</name>
<sym>Dot</sym>
</trkpt>
<trkpt lat="47.692737" lon="15.862565">
<ele>522.0</ele>
<desc>Speed 0.2 km/h Distance 152 km</desc>
<time>2012-09-18T18:04:27.32</time>
<name>7709</name>
<sym>Dot</sym>
</trkpt>
<trkpt lat="47.692737" lon="15.862565">
<ele>522.0</ele>
<desc>Speed 0.1 km/h Distance 152 km</desc>
<time>2012-09-18T18:04:28.31</time>
<name>7710</name>
<sym>Dot</sym>
</trkpt>
<trkpt lat="47.692737" lon="15.862565">
<ele>522.0</ele>
<desc>Speed 0.2 km/h Distance 152 km</desc>
<time>2012-09-18T18:04:29.30</time>
<name>7711</name>
<sym>Dot</sym>
</trkpt>
<trkpt lat="47.692737" lon="15.862565">
<ele>522.0</ele>
<desc>Speed 0.2 km/h Distance 152 km</desc>
<time>2012-09-18T18:04:30.31</time>
<name>7712</name>
<sym>Dot</sym>
</trkpt>
<trkpt lat="47.692737" lon="15.862565">
<ele>522.0</ele>
<desc>Speed 0.3 km/h Distance 152 km</desc>
<time>2012-09-18T18:04:31.30</time>
<name>7713</name>
<sym>Dot</sym>
</trkpt>
<trkpt lat="47.692737" lon="15.862565">
<ele>522.0</ele>
<desc>Speed 0.3 km/h Distance 152 km</desc>
<time>2012-09-18T18:04:32.30</time>
<name>7714</name>
<sym>Dot</sym>
</trkpt>
<trkpt lat="47.692737" lon="15.862565">
<ele>522.0</ele>
<desc>Speed 0.1 km/h Distance 152 km</desc>
<time>2012-09-18T18:04:33.29</time>
<name>7715</name>
<sym>Dot</sym>
</trkpt>
<trkpt lat="47.692735" lon="15.862565">
<ele>522.0</ele>
<desc>Speed 0.2 km/h Distance 152 km</desc>
<time>2012-09-18T18:04:34.29</time>
<name>7716</name>
<sym>Dot</sym>
</trkpt>
<trkpt lat="47.692735" lon="15.862565">
<ele>522.0</ele>
<desc>Speed 0.1 km/h Distance 152 km</desc>
<time>2012-09-18T18:04:35.28</time>
<name>7717</name>
<sym>Dot</sym>
</trkpt>
<trkpt lat="47.692735" lon="15.862565">
<ele>522.0</ele>
<desc>Speed 0.2 km/h Distance 152 km</desc>
<time>2012-09-18T18:04:36.28</time>
<name>7718</name>
<sym>Dot</sym>
</trkpt>
<trkpt lat="47.692735" lon="15.862565">
<ele>522.0</ele>
<desc>Speed 0.2 km/h Distance 152 km</desc>
<time>2012-09-18T18:04:37.28</time>
<name>7719</name>
<sym>Dot</sym>
</trkpt>
<trkpt lat="47.692735" lon="15.862565">
<ele>522.0</ele>
<desc>Speed 0.2 km/h Distance 152 km</desc>
<time>2012-09-18T18:04:38.27</time>
<name>7720</name>
<sym>Dot</sym>
</trkpt>
<trkpt lat="47.692735" lon="15.862565">
<ele>522.0</ele>
<desc>Speed 0.3 km/h Distance 152 km</desc>
<time>2012-09-18T18:04:39.27</time>
<name>7721</name>
<sym>Dot</sym>
</trkpt>
<trkpt lat="47.692735" lon="15.862565">
<ele>522.0</ele>
<desc>Speed 0.2 km/h Distance 152 km</desc>
<time>2012-09-18T18:04:40.26</time>
<name>7722</name>
<sym>Dot</sym>
</trkpt>
<trkpt lat="47.692735" lon="15.862565">
<ele>522.0</ele>
<desc>Speed 0.1 km/h Distance 152 km</desc>
<time>2012-09-18T18:04:41.26</time>
<name>7723</name>
<sym>Dot</sym>
</trkpt>
<trkpt lat="47.692737" lon="15.862565">
<ele>522.0</ele>
<desc>Speed 0.2 km/h Distance 152 km</desc>
<time>2012-09-18T18:04:42.25</time>
<name>7724</name>
<sym>Dot</sym>
</trkpt>
<trkpt lat="47.692737" lon="15.862565">
<ele>522.0</ele>
<desc>Speed 0.2 km/h Distance 152 km</desc>
<time>2012-09-18T18:04:43.25</time>
<name>7725</name>
<sym>Dot</sym>
</trkpt>
<trkpt lat="47.692737" lon="15.862565">
<ele>522.0</ele>
<desc>Speed 0.2 km/h Distance 152 km</desc>
<time>2012-09-18T18:04:44.24</time>
<name>7726</name>
<sym>Dot</sym>
</trkpt>
<trkpt lat="47.692737" lon="15.862565">
<ele>522.0</ele>
<desc>Speed 0.2 km/h Distance 152 km</desc>
<time>2012-09-18T18:04:45.24</time>
<name>7727</name>
<sym>Dot</sym>
</trkpt>
<trkpt lat="47.692737" lon="15.862565">
<ele>522.0</ele>
<desc>Speed 0.1 km/h Distance 152 km</desc>
<time>2012-09-18T18:04:46.23</time>
<name>7728</name>
<sym>Dot</sym>
</trkpt>
<trkpt lat="47.692737" lon="15.862565">
<ele>522.0</ele>
<desc>Speed 0.4 km/h Distance 152 km</desc>
<time>2012-09-18T18:04:47.22</time>
<name>7729</name>
<sym>Dot</sym>
</trkpt>
<trkpt lat="47.692737" lon="15.862565">
<ele>522.0</ele>
<desc>Speed 0.3 km/h Distance 152 km</desc>
<time>2012-09-18T18:04:48.22</time>
<name>7730</name>
<sym>Dot</sym>
</trkpt>
<trkpt lat="47.692737" lon="15.862565">
<ele>522.0</ele>
<desc>Speed 0.1 km/h Distance 152 km</desc>
<time>2012-09-18T18:04:49.22</time>
<name>7731</name>
<sym>Dot</sym>
</trkpt>
<trkpt lat="47.692737" lon="15.862565">
<ele>522.0</ele>
<desc>Speed 0.3 km/h Distance 152 km</desc>
<time>2012-09-18T18:04:50.21</time>
<name>7732</name>
<sym>Dot</sym>
</trkpt>
<trkpt lat="47.692737" lon="15.862565">
<ele>522.0</ele>
<desc>Speed 0.3 km/h Distance 152 km</desc>
<time>2012-09-18T18:04:51.21</time>
<name>7733</name>
<sym>Dot</sym>
</trkpt>
<trkpt lat="47.692737" lon="15.862565">
<ele>522.0</ele>
<desc>Speed 0.1 km/h Distance 152 km</desc>
<time>2012-09-18T18:04:52.21</time>
<name>7734</name>
<sym>Dot</sym>
</trkpt>
<trkpt lat="47.692737" lon="15.862565">
<ele>522.0</ele>
<desc>Speed 0.3 km/h Distance 152 km</desc>
<time>2012-09-18T18:04:53.21</time>
<name>7735</name>
<sym>Dot</sym>
</trkpt>
<trkpt lat="47.692737" lon="15.862565">
<ele>522.0</ele>
<desc>Speed 0.2 km/h Distance 152 km</desc>
<time>2012-09-18T18:04:54.21</time>
<name>7736</name>
<sym>Dot</sym>
</trkpt>
<trkpt lat="47.692737" lon="15.862565">
<ele>522.0</ele>
<desc>Speed 0.1 km/h Distance 152 km</desc>
<time>2012-09-18T18:04:55.20</time>
<name>7737</name>
<sym>Dot</sym>
</trkpt>
<trkpt lat="47.692737" lon="15.862565">
<ele>522.0</ele>
<desc>Speed 0.3 km/h Distance 152 km</desc>
<time>2012-09-18T18:04:56.19</time>
<name>7738</name>
<sym>Dot</sym>
</trkpt>
<trkpt lat="47.692737" lon="15.862565">
<ele>522.0</ele>
<desc>Speed 0.3 km/h Distance 152 km</desc>
<time>2012-09-18T18:04:57.18</time>
<name>7739</name>
<sym>Dot</sym>
</trkpt>
<trkpt lat="47.692737" lon="15.862567">
<ele>522.0</ele>
<desc>Speed 0.3 km/h Distance 152 km</desc>
<time>2012-09-18T18:04:58.19</time>
<name>7740</name>
<sym>Dot</sym>
</trkpt>
<trkpt lat="47.692737" lon="15.862567">
<ele>522.0</ele>
<desc>Speed 0.1 km/h Distance 152 km</desc>
<time>2012-09-18T18:04:59.27</time>
<name>7741</name>
<sym>Dot</sym>
</trkpt>
<trkpt lat="47.692737" lon="15.862567">
<ele>522.0</ele>
<desc>Speed 0.3 km/h Distance 152 km</desc>
<time>2012-09-18T18:05:00.18</time>
<name>7742</name>
<sym>Dot</sym>
</trkpt>
<trkpt lat="47.692722" lon="15.862578">
<ele>521.5</ele>
<desc>Speed 0.1 km/h Distance 152 km</desc>
<time>2012-09-18T18:06:17.17</time>
<name>7743</name>
<sym>Dot</sym>
</trkpt>
<trkpt lat="47.692723" lon="15.862578">
<ele>521.5</ele>
<desc>Speed 0.2 km/h Distance 152 km</desc>
<time>2012-09-18T18:06:18.16</time>
<name>7744</name>
<sym>Dot</sym>
</trkpt>
<trkpt lat="47.692723" lon="15.862578">
<ele>521.5</ele>
<desc>Speed 0.3 km/h Distance 152 km</desc>
<time>2012-09-18T18:06:19.18</time>
<name>7745</name>
<sym>Dot</sym>
</trkpt>
<trkpt lat="47.692722" lon="15.862578">
<ele>521.5</ele>
<desc>Speed 0.1 km/h Distance 152 km</desc>
<time>2012-09-18T18:06:20.14</time>
<name>7746</name>
<sym>Dot</sym>
</trkpt>
<trkpt lat="47.692722" lon="15.862578">
<ele>521.5</ele>
<desc>Speed 0.2 km/h Distance 152 km</desc>
<time>2012-09-18T18:06:21.20</time>
<name>7747</name>
<sym>Dot</sym>
</trkpt>
<trkpt lat="47.692722" lon="15.862578">
<ele>521.5</ele>
<desc>Speed 0.2 km/h Distance 152 km</desc>
<time>2012-09-18T18:06:22.14</time>
<name>7748</name>
<sym>Dot</sym>
</trkpt>
<trkpt lat="47.692722" lon="15.862578">
<ele>521.5</ele>
<desc>Speed 0.2 km/h Distance 152 km</desc>
<time>2012-09-18T18:06:23.21</time>
<name>7749</name>
<sym>Dot</sym>
</trkpt>
<trkpt lat="47.692722" lon="15.862578">
<ele>521.5</ele>
<desc>Speed 0.4 km/h Distance 152 km</desc>
<time>2012-09-18T18:06:24.18</time>
<name>7750</name>
<sym>Dot</sym>
</trkpt>
<trkpt lat="47.692722" lon="15.862578">
<ele>522.0</ele>
<desc>Speed 0.2 km/h Distance 152 km</desc>
<time>2012-09-18T18:06:25.11</time>
<name>7751</name>
<sym>Dot</sym>
</trkpt>
<trkpt lat="47.692722" lon="15.862578">
<ele>522.0</ele>
<desc>Speed 0.3 km/h Distance 152 km</desc>
<time>2012-09-18T18:06:26.11</time>
<name>7752</name>
<sym>Dot</sym>
</trkpt>
<trkpt lat="47.692722" lon="15.862578">
<ele>522.0</ele>
<desc>Speed 0.2 km/h Distance 152 km</desc>
<time>2012-09-18T18:06:27.12</time>
<name>7753</name>
<sym>Dot</sym>
</trkpt>
<trkpt lat="47.692722" lon="15.862578">
<ele>522.0</ele>
<desc>Speed 0.3 km/h Distance 152 km</desc>
<time>2012-09-18T18:06:28.17</time>
<name>7754</name>
<sym>Dot</sym>
</trkpt>
<trkpt lat="47.692722" lon="15.862578">
<ele>522.0</ele>
<desc>Speed 0.2 km/h Distance 152 km</desc>
<time>2012-09-18T18:06:29.16</time>
<name>7755</name>
<sym>Dot</sym>
</trkpt>
<trkpt lat="47.692722" lon="15.862578">
<ele>522.0</ele>
<desc>Speed 0.2 km/h Distance 152 km</desc>
<time>2012-09-18T18:06:30.09</time>
<name>7756</name>
<sym>Dot</sym>
</trkpt>
<trkpt lat="47.692722" lon="15.862578">
<ele>522.0</ele>
<desc>Speed 0.2 km/h Distance 152 km</desc>
<time>2012-09-18T18:06:31.13</time>
<name>7757</name>
<sym>Dot</sym>
</trkpt>
<trkpt lat="47.692722" lon="15.862578">
<ele>522.0</ele>
<desc>Speed 0.2 km/h Distance 152 km</desc>
<time>2012-09-18T18:06:32.07</time>
<name>7758</name>
<sym>Dot</sym>
</trkpt>
<trkpt lat="47.692722" lon="15.862578">
<ele>522.0</ele>
<desc>Speed 0.2 km/h Distance 152 km</desc>
<time>2012-09-18T18:06:33.07</time>
<name>7759</name>
<sym>Dot</sym>
</trkpt>
<trkpt lat="47.692722" lon="15.862578">
<ele>521.5</ele>
<desc>Speed 0.2 km/h Distance 152 km</desc>
<time>2012-09-18T18:06:34.11</time>
<name>7760</name>
<sym>Dot</sym>
</trkpt>
<trkpt lat="47.692722" lon="15.862578">
<ele>521.5</ele>
<desc>Speed 0.3 km/h Distance 152 km</desc>
<time>2012-09-18T18:06:35.06</time>
<name>7761</name>
<sym>Dot</sym>
</trkpt>
<trkpt lat="47.692722" lon="15.862578">
<ele>521.5</ele>
<desc>Speed 0.2 km/h Distance 152 km</desc>
<time>2012-09-18T18:06:36.08</time>
<name>7762</name>
<sym>Dot</sym>
</trkpt>
<trkpt lat="47.692722" lon="15.862578">
<ele>521.5</ele>
<desc>Speed 0.2 km/h Distance 152 km</desc>
<time>2012-09-18T18:06:37.27</time>
<name>7763</name>
<sym>Dot</sym>
</trkpt>
<trkpt lat="47.692722" lon="15.862578">
<ele>521.5</ele>
<desc>Speed 0.4 km/h Distance 152 km</desc>
<time>2012-09-18T18:06:38.04</time>
<name>7764</name>
<sym>Dot</sym>
</trkpt>
<trkpt lat="47.692722" lon="15.862578">
<ele>521.5</ele>
<desc>Speed 0.2 km/h Distance 152 km</desc>
<time>2012-09-18T18:06:39.04</time>
<name>7765</name>
<sym>Dot</sym>
</trkpt>
<trkpt lat="47.692720" lon="15.862578">
<ele>521.5</ele>
<desc>Speed 0.2 km/h Distance 152 km</desc>
<time>2012-09-18T18:06:40.04</time>
<name>7766</name>
<sym>Dot</sym>
</trkpt>
<trkpt lat="47.692720" lon="15.862578">
<ele>521.5</ele>
<desc>Speed 0.4 km/h Distance 152 km</desc>
<time>2012-09-18T18:06:41.03</time>
<name>7767</name>
<sym>Dot</sym>
</trkpt>
<trkpt lat="47.692720" lon="15.862578">
<ele>521.5</ele>
<desc>Speed 0.1 km/h Distance 152 km</desc>
<time>2012-09-18T18:06:42.05</time>
<name>7768</name>
<sym>Dot</sym>
</trkpt>
<trkpt lat="47.692720" lon="15.862578">
<ele>521.5</ele>
<desc>Speed 0.3 km/h Distance 152 km</desc>
<time>2012-09-18T18:06:43.01</time>
<name>7769</name>
<sym>Dot</sym>
</trkpt>
<trkpt lat="47.692720" lon="15.862578">
<ele>521.5</ele>
<desc>Speed 0.2 km/h Distance 152 km</desc>
<time>2012-09-18T18:06:44.01</time>
<name>7770</name>
<sym>Dot</sym>
</trkpt>
<trkpt lat="47.692720" lon="15.862578">
<ele>521.5</ele>
<desc>Speed 0.1 km/h Distance 152 km</desc>
<time>2012-09-18T18:06:45.01</time>
<name>7771</name>
<sym>Dot</sym>
</trkpt>
<trkpt lat="47.692720" lon="15.862578">
<ele>521.5</ele>
<desc>Speed 0.2 km/h Distance 152 km</desc>
<time>2012-09-18T18:06:46.00</time>
<name>7772</name>
<sym>Dot</sym>
</trkpt>
<trkpt lat="47.692720" lon="15.862578">
<ele>521.5</ele>
<desc>Speed 0.2 km/h Distance 152 km</desc>
<time>2012-09-18T18:06:46.99</time>
<name>7773</name>
<sym>Dot</sym>
</trkpt>
<trkpt lat="47.692720" lon="15.862578">
<ele>521.5</ele>
<desc>Speed 0.2 km/h Distance 152 km</desc>
<time>2012-09-18T18:06:47.99</time>
<name>7774</name>
<sym>Dot</sym>
</trkpt>
<trkpt lat="47.692720" lon="15.862578">
<ele>521.5</ele>
<desc>Speed 0.3 km/h Distance 152 km</desc>
<time>2012-09-18T18:06:48.99</time>
<name>7775</name>
<sym>Dot</sym>
</trkpt>
<trkpt lat="47.692720" lon="15.862578">
<ele>521.5</ele>
<desc>Speed 0.1 km/h Distance 152 km</desc>
<time>2012-09-18T18:06:49.98</time>
<name>7776</name>
<sym>Dot</sym>
</trkpt>
<trkpt lat="47.692720" lon="15.862578">
<ele>521.5</ele>
<desc>Speed 0.4 km/h Distance 152 km</desc>
<time>2012-09-18T18:06:50.99</time>
<name>7777</name>
<sym>Dot</sym>
</trkpt>
<trkpt lat="47.692720" lon="15.862578">
<ele>521.5</ele>
<desc>Speed 0.2 km/h Distance 152 km</desc>
<time>2012-09-18T18:06:52.05</time>
<name>7778</name>
<sym>Dot</sym>
</trkpt>
<trkpt lat="47.692720" lon="15.862578">
<ele>521.5</ele>
<desc>Speed 0.1 km/h Distance 152 km</desc>
<time>2012-09-18T18:06:53.02</time>
<name>7779</name>
<sym>Dot</sym>
</trkpt>
<trkpt lat="47.692720" lon="15.862578">
<ele>521.5</ele>
<desc>Speed 0.1 km/h Distance 152 km</desc>
<time>2012-09-18T18:06:53.97</time>
<name>7780</name>
<sym>Dot</sym>
</trkpt>
<trkpt lat="47.692720" lon="15.862578">
<ele>521.5</ele>
<desc>Speed 0.2 km/h Distance 152 km</desc>
<time>2012-09-18T18:06:54.96</time>
<name>7781</name>
<sym>Dot</sym>
</trkpt>
<trkpt lat="47.692720" lon="15.862578">
<ele>521.5</ele>
<desc>Speed 0.3 km/h Distance 152 km</desc>
<time>2012-09-18T18:06:55.96</time>
<name>7782</name>
<sym>Dot</sym>
</trkpt>
<trkpt lat="47.692720" lon="15.862578">
<ele>521.5</ele>
<desc>Speed 0.2 km/h Distance 152 km</desc>
<time>2012-09-18T18:06:56.95</time>
<name>7783</name>
<sym>Dot</sym>
</trkpt>
<trkpt lat="47.692720" lon="15.862578">
<ele>521.5</ele>
<desc>Speed 0.1 km/h Distance 152 km</desc>
<time>2012-09-18T18:06:58.04</time>
<name>7784</name>
<sym>Dot</sym>
</trkpt>
<trkpt lat="47.692720" lon="15.862578">
<ele>521.5</ele>
<desc>Speed 0.3 km/h Distance 152 km</desc>
<time>2012-09-18T18:06:58.94</time>
<name>7785</name>
<sym>Dot</sym>
</trkpt>
<trkpt lat="47.692720" lon="15.862578">
<ele>521.5</ele>
<desc>Speed 0.2 km/h Distance 152 km</desc>
<time>2012-09-18T18:06:59.93</time>
<name>7786</name>
<sym>Dot</sym>
</trkpt>
<trkpt lat="47.692720" lon="15.862578">
<ele>521.5</ele>
<desc>Speed 0.2 km/h Distance 152 km</desc>
<time>2012-09-18T18:07:00.93</time>
<name>7787</name>
<sym>Dot</sym>
</trkpt>
<trkpt lat="47.692720" lon="15.862578">
<ele>521.5</ele>
<desc>Speed 0.2 km/h Distance 152 km</desc>
<time>2012-09-18T18:07:02.03</time>
<name>7788</name>
<sym>Dot</sym>
</trkpt>
<trkpt lat="47.692720" lon="15.862578">
<ele>521.5</ele>
<desc>Speed 0.2 km/h Distance 152 km</desc>
<time>2012-09-18T18:07:02.93</time>
<name>7789</name>
<sym>Dot</sym>
</trkpt>
<trkpt lat="47.692720" lon="15.862577">
<ele>521.5</ele>
<desc>Speed 0.3 km/h Distance 152 km</desc>
<time>2012-09-18T18:07:03.95</time>
<name>7790</name>
<sym>Dot</sym>
</trkpt>
<trkpt lat="47.692720" lon="15.862577">
<ele>521.5</ele>
<desc>Speed 0.2 km/h Distance 152 km</desc>
<time>2012-09-18T18:07:04.98</time>
<name>7791</name>
<sym>Dot</sym>
</trkpt>
<trkpt lat="47.692720" lon="15.862577">
<ele>521.5</ele>
<desc>Speed 0.3 km/h Distance 152 km</desc>
<time>2012-09-18T18:07:05.91</time>
<name>7792</name>
<sym>Dot</sym>
</trkpt>
<trkpt lat="47.692720" lon="15.862577">
<ele>521.5</ele>
<desc>Speed 0.3 km/h Distance 152 km</desc>
<time>2012-09-18T18:07:06.91</time>
<name>7793</name>
<sym>Dot</sym>
</trkpt>
<trkpt lat="47.692720" lon="15.862577">
<ele>521.5</ele>
<desc>Speed 0.2 km/h Distance 152 km</desc>
<time>2012-09-18T18:07:07.90</time>
<name>7794</name>
<sym>Dot</sym>
</trkpt>
<trkpt lat="47.692720" lon="15.862577">
<ele>521.5</ele>
<desc>Speed 0.2 km/h Distance 152 km</desc>
<time>2012-09-18T18:07:08.89</time>
<name>7795</name>
<sym>Dot</sym>
</trkpt>
<trkpt lat="47.692720" lon="15.862577">
<ele>521.5</ele>
<desc>Speed 0.2 km/h Distance 152 km</desc>
<time>2012-09-18T18:07:09.90</time>
<name>7796</name>
<sym>Dot</sym>
</trkpt>
<trkpt lat="47.692720" lon="15.862577">
<ele>521.5</ele>
<desc>Speed 0.2 km/h Distance 152 km</desc>
<time>2012-09-18T18:07:10.87</time>
<name>7797</name>
<sym>Dot</sym>
</trkpt>
<trkpt lat="47.692718" lon="15.862577">
<ele>521.5</ele>
<desc>Speed 0.2 km/h Distance 152 km</desc>
<time>2012-09-18T18:07:11.86</time>
<name>7798</name>
<sym>Dot</sym>
</trkpt>
<trkpt lat="47.692718" lon="15.862577">
<ele>521.5</ele>
<desc>Speed 0.3 km/h Distance 152 km</desc>
<time>2012-09-18T18:07:12.86</time>
<name>7799</name>
<sym>Dot</sym>
</trkpt>
<trkpt lat="47.692718" lon="15.862577">
<ele>521.5</ele>
<desc>Speed 0.1 km/h Distance 152 km</desc>
<time>2012-09-18T18:07:13.86</time>
<name>7800</name>
<sym>Dot</sym>
</trkpt>
<trkpt lat="47.692718" lon="15.862577">
<ele>521.5</ele>
<desc>Speed 0.2 km/h Distance 152 km</desc>
<time>2012-09-18T18:07:14.86</time>
<name>7801</name>
<sym>Dot</sym>
</trkpt>
<trkpt lat="47.692718" lon="15.862577">
<ele>521.5</ele>
<desc>Speed 0.3 km/h Distance 152 km</desc>
<time>2012-09-18T18:07:15.86</time>
<name>7802</name>
<sym>Dot</sym>
</trkpt>
<trkpt lat="47.692718" lon="15.862577">
<ele>521.5</ele>
<desc>Speed 0.2 km/h Distance 152 km</desc>
<time>2012-09-18T18:07:16.86</time>
<name>7803</name>
<sym>Dot</sym>
</trkpt>
<trkpt lat="47.692718" lon="15.862577">
<ele>521.5</ele>
<desc>Speed 0.1 km/h Distance 152 km</desc>
<time>2012-09-18T18:07:17.86</time>
<name>7804</name>
<sym>Dot</sym>
</trkpt>
<trkpt lat="47.692718" lon="15.862575">
<ele>521.5</ele>
<desc>Speed 0.2 km/h Distance 152 km</desc>
<time>2012-09-18T18:07:18.86</time>
<name>7805</name>
<sym>Dot</sym>
</trkpt>
<trkpt lat="47.692718" lon="15.862575">
<ele>521.5</ele>
<desc>Speed 0.2 km/h Distance 152 km</desc>
<time>2012-09-18T18:07:19.85</time>
<name>7806</name>
<sym>Dot</sym>
</trkpt>
<trkpt lat="47.692718" lon="15.862575">
<ele>521.5</ele>
<desc>Speed 0.3 km/h Distance 152 km</desc>
<time>2012-09-18T18:07:20.85</time>
<name>7807</name>
<sym>Dot</sym>
</trkpt>
<trkpt lat="47.692718" lon="15.862575">
<ele>521.5</ele>
<desc>Speed 0.0 km/h Distance 152 km</desc>
<time>2012-09-18T18:07:21.84</time>
<name>7808</name>
<sym>Dot</sym>
</trkpt>
<trkpt lat="47.692718" lon="15.862575">
<ele>521.5</ele>
<desc>Speed 0.2 km/h Distance 152 km</desc>
<time>2012-09-18T18:07:22.84</time>
<name>7809</name>
<sym>Dot</sym>
</trkpt>
<trkpt lat="47.692718" lon="15.862575">
<ele>521.5</ele>
<desc>Speed 0.2 km/h Distance 152 km</desc>
<time>2012-09-18T18:07:23.83</time>
<name>7810</name>
<sym>Dot</sym>
</trkpt>
<trkpt lat="47.692718" lon="15.862575">
<ele>521.5</ele>
<desc>Speed 0.2 km/h Distance 152 km</desc>
<time>2012-09-18T18:07:24.83</time>
<name>7811</name>
<sym>Dot</sym>
</trkpt>
<trkpt lat="47.692718" lon="15.862575">
<ele>521.5</ele>
<desc>Speed 0.2 km/h Distance 152 km</desc>
<time>2012-09-18T18:07:35.83</time>
<name>7812</name>
<sym>Dot</sym>
</trkpt>
<trkpt lat="47.692718" lon="15.862575">
<ele>521.5</ele>
<desc>Speed 0.2 km/h Distance 152 km</desc>
<time>2012-09-18T18:07:36.82</time>
<name>7813</name>
<sym>Dot</sym>
</trkpt>
<trkpt lat="47.692718" lon="15.862575">
<ele>521.5</ele>
<desc>Speed 0.1 km/h Distance 152 km</desc>
<time>2012-09-18T18:07:37.81</time>
<name>7814</name>
<sym>Dot</sym>
</trkpt>
<trkpt lat="47.692718" lon="15.862575">
<ele>521.5</ele>
<desc>Speed 0.3 km/h Distance 152 km</desc>
<time>2012-09-18T18:07:38.83</time>
<name>7815</name>
<sym>Dot</sym>
</trkpt>
<trkpt lat="47.692718" lon="15.862575">
<ele>521.5</ele>
<desc>Speed 0.3 km/h Distance 152 km</desc>
<time>2012-09-18T18:07:39.81</time>
<name>7816</name>
<sym>Dot</sym>
</trkpt>
<trkpt lat="47.692718" lon="15.862575">
<ele>521.5</ele>
<desc>Speed 0.3 km/h Distance 152 km</desc>
<time>2012-09-18T18:07:40.80</time>
<name>7817</name>
<sym>Dot</sym>
</trkpt>
<trkpt lat="47.692718" lon="15.862575">
<ele>521.5</ele>
<desc>Speed 0.3 km/h Distance 152 km</desc>
<time>2012-09-18T18:07:41.80</time>
<name>7818</name>
<sym>Dot</sym>
</trkpt>
<trkpt lat="47.692718" lon="15.862575">
<ele>521.5</ele>
<desc>Speed 0.2 km/h Distance 152 km</desc>
<time>2012-09-18T18:07:42.80</time>
<name>7819</name>
<sym>Dot</sym>
</trkpt>
<trkpt lat="47.692718" lon="15.862575">
<ele>521.5</ele>
<desc>Speed 0.2 km/h Distance 152 km</desc>
<time>2012-09-18T18:07:43.80</time>
<name>7820</name>
<sym>Dot</sym>
</trkpt>
<trkpt lat="47.692718" lon="15.862575">
<ele>521.5</ele>
<desc>Speed 0.2 km/h Distance 152 km</desc>
<time>2012-09-18T18:07:44.79</time>
<name>7821</name>
<sym>Dot</sym>
</trkpt>
<trkpt lat="47.692718" lon="15.862575">
<ele>521.5</ele>
<desc>Speed 0.3 km/h Distance 152 km</desc>
<time>2012-09-18T18:07:45.78</time>
<name>7822</name>
<sym>Dot</sym>
</trkpt>
<trkpt lat="47.692718" lon="15.862575">
<ele>521.5</ele>
<desc>Speed 0.2 km/h Distance 152 km</desc>
<time>2012-09-18T18:07:46.77</time>
<name>7823</name>
<sym>Dot</sym>
</trkpt>
<trkpt lat="47.692718" lon="15.862575">
<ele>521.5</ele>
<desc>Speed 0.2 km/h Distance 152 km</desc>
<time>2012-09-18T18:07:47.77</time>
<name>7824</name>
<sym>Dot</sym>
</trkpt>
<trkpt lat="47.692718" lon="15.862575">
<ele>521.5</ele>
<desc>Speed 0.2 km/h Distance 152 km</desc>
<time>2012-09-18T18:07:48.76</time>
<name>7825</name>
<sym>Dot</sym>
</trkpt>
<trkpt lat="47.692718" lon="15.862575">
<ele>521.5</ele>
<desc>Speed 0.2 km/h Distance 152 km</desc>
<time>2012-09-18T18:07:49.83</time>
<name>7826</name>
<sym>Dot</sym>
</trkpt>
<trkpt lat="47.692718" lon="15.862575">
<ele>521.5</ele>
<desc>Speed 0.3 km/h Distance 152 km</desc>
<time>2012-09-18T18:07:50.75</time>
<name>7827</name>
<sym>Dot</sym>
</trkpt>
<trkpt lat="47.692718" lon="15.862575">
<ele>521.5</ele>
<desc>Speed 0.3 km/h Distance 152 km</desc>
<time>2012-09-18T18:07:51.75</time>
<name>7828</name>
<sym>Dot</sym>
</trkpt>
<trkpt lat="47.692717" lon="15.862567">
<ele>520.5</ele>
<desc>Speed 0.3 km/h Distance 152 km</desc>
<time>2012-09-18T18:09:10.83</time>
<name>7829</name>
<sym>Dot</sym>
</trkpt>
<trkpt lat="47.692717" lon="15.862567">
<ele>520.5</ele>
<desc>Speed 0.2 km/h Distance 152 km</desc>
<time>2012-09-18T18:09:11.75</time>
<name>7830</name>
<sym>Dot</sym>
</trkpt>
<trkpt lat="47.692717" lon="15.862567">
<ele>520.5</ele>
<desc>Speed 0.1 km/h Distance 152 km</desc>
<time>2012-09-18T18:09:12.74</time>
<name>7831</name>
<sym>Dot</sym>
</trkpt>
<trkpt lat="47.692717" lon="15.862567">
<ele>520.5</ele>
<desc>Speed 0.2 km/h Distance 152 km</desc>
<time>2012-09-18T18:09:13.74</time>
<name>7832</name>
<sym>Dot</sym>
</trkpt>
<trkpt lat="47.692717" lon="15.862567">
<ele>520.5</ele>
<desc>Speed 0.1 km/h Distance 152 km</desc>
<time>2012-09-18T18:09:14.73</time>
<name>7833</name>
<sym>Dot</sym>
</trkpt>
<trkpt lat="47.692717" lon="15.862567">
<ele>520.5</ele>
<desc>Speed 0.0 km/h Distance 152 km</desc>
<time>2012-09-18T18:09:15.73</time>
<name>7834</name>
<sym>Dot</sym>
</trkpt>
<trkpt lat="47.692717" lon="15.862567">
<ele>520.5</ele>
<desc>Speed 0.1 km/h Distance 152 km</desc>
<time>2012-09-18T18:09:16.71</time>
<name>7835</name>
<sym>Dot</sym>
</trkpt>
<trkpt lat="47.692717" lon="15.862567">
<ele>520.5</ele>
<desc>Speed 0.0 km/h Distance 152 km</desc>
<time>2012-09-18T18:09:17.71</time>
<name>7836</name>
<sym>Dot</sym>
</trkpt>
<trkpt lat="47.692717" lon="15.862567">
<ele>520.5</ele>
<desc>Speed 0.0 km/h Distance 152 km</desc>
<time>2012-09-18T18:09:18.69</time>
<name>7837</name>
<sym>Dot</sym>
</trkpt>
<trkpt lat="47.692717" lon="15.862567">
<ele>520.5</ele>
<desc>Speed 0.6 km/h Distance 152 km</desc>
<time>2012-09-18T18:09:19.77</time>
<name>7838</name>
<sym>Dot</sym>
</trkpt>
<trkpt lat="47.692717" lon="15.862567">
<ele>520.5</ele>
<desc>Speed 0.2 km/h Distance 152 km</desc>
<time>2012-09-18T18:09:20.69</time>
<name>7839</name>
<sym>Dot</sym>
</trkpt>
<trkpt lat="47.692717" lon="15.862567">
<ele>520.5</ele>
<desc>Speed 0.1 km/h Distance 152 km</desc>
<time>2012-09-18T18:09:21.68</time>
<name>7840</name>
<sym>Dot</sym>
</trkpt>
<trkpt lat="47.692717" lon="15.862567">
<ele>520.5</ele>
<desc>Speed 0.1 km/h Distance 152 km</desc>
<time>2012-09-18T18:09:22.68</time>
<name>7841</name>
<sym>Dot</sym>
</trkpt>
<trkpt lat="47.692717" lon="15.862567">
<ele>520.5</ele>
<desc>Speed 0.1 km/h Distance 152 km</desc>
<time>2012-09-18T18:09:23.67</time>
<name>7842</name>
<sym>Dot</sym>
</trkpt>
<trkpt lat="47.692717" lon="15.862567">
<ele>520.5</ele>
<desc>Speed 0.1 km/h Distance 152 km</desc>
<time>2012-09-18T18:09:24.66</time>
<name>7843</name>
<sym>Dot</sym>
</trkpt>
<trkpt lat="47.692717" lon="15.862567">
<ele>520.5</ele>
<desc>Speed 0.0 km/h Distance 152 km</desc>
<time>2012-09-18T18:09:25.66</time>
<name>7844</name>
<sym>Dot</sym>
</trkpt>
<trkpt lat="47.692717" lon="15.862567">
<ele>520.5</ele>
<desc>Speed 0.3 km/h Distance 152 km</desc>
<time>2012-09-18T18:09:26.66</time>
<name>7845</name>
<sym>Dot</sym>
</trkpt>
<trkpt lat="47.692717" lon="15.862565">
<ele>520.5</ele>
<desc>Speed 0.6 km/h Distance 152 km</desc>
<time>2012-09-18T18:09:27.65</time>
<name>7846</name>
<sym>Dot</sym>
</trkpt>
<trkpt lat="47.692717" lon="15.862565">
<ele>520.5</ele>
<desc>Speed 0.0 km/h Distance 152 km</desc>
<time>2012-09-18T18:09:28.69</time>
<name>7847</name>
<sym>Dot</sym>
</trkpt>
<trkpt lat="47.692717" lon="15.862565">
<ele>520.5</ele>
<desc>Speed 0.1 km/h Distance 152 km</desc>
<time>2012-09-18T18:09:29.63</time>
<name>7848</name>
<sym>Dot</sym>
</trkpt>
<trkpt lat="47.692717" lon="15.862565">
<ele>520.5</ele>
<desc>Speed 0.0 km/h Distance 152 km</desc>
<time>2012-09-18T18:09:30.62</time>
<name>7849</name>
<sym>Dot</sym>
</trkpt>
<trkpt lat="47.692717" lon="15.862565">
<ele>520.5</ele>
<desc>Speed 0.2 km/h Distance 152 km</desc>
<time>2012-09-18T18:09:31.62</time>
<name>7850</name>
<sym>Dot</sym>
</trkpt>
<trkpt lat="47.692717" lon="15.862565">
<ele>520.5</ele>
<desc>Speed 0.2 km/h Distance 152 km</desc>
<time>2012-09-18T18:09:32.62</time>
<name>7851</name>
<sym>Dot</sym>
</trkpt>
<trkpt lat="47.692717" lon="15.862565">
<ele>520.5</ele>
<desc>Speed 0.3 km/h Distance 152 km</desc>
<time>2012-09-18T18:09:33.62</time>
<name>7852</name>
<sym>Dot</sym>
</trkpt>
<trkpt lat="47.692715" lon="15.862565">
<ele>520.5</ele>
<desc>Speed 0.4 km/h Distance 152 km</desc>
<time>2012-09-18T18:09:34.61</time>
<name>7853</name>
<sym>Dot</sym>
</trkpt>
<trkpt lat="47.692715" lon="15.862565">
<ele>520.5</ele>
<desc>Speed 0.5 km/h Distance 152 km</desc>
<time>2012-09-18T18:09:35.61</time>
<name>7854</name>
<sym>Dot</sym>
</trkpt>
<trkpt lat="47.692715" lon="15.862565">
<ele>520.5</ele>
<desc>Speed 0.3 km/h Distance 152 km</desc>
<time>2012-09-18T18:09:36.63</time>
<name>7855</name>
<sym>Dot</sym>
</trkpt>
<trkpt lat="47.692715" lon="15.862565">
<ele>520.5</ele>
<desc>Speed 0.5 km/h Distance 152 km</desc>
<time>2012-09-18T18:09:37.60</time>
<name>7856</name>
<sym>Dot</sym>
</trkpt>
<trkpt lat="47.692715" lon="15.862565">
<ele>520.5</ele>
<desc>Speed 0.5 km/h Distance 152 km</desc>
<time>2012-09-18T18:09:38.59</time>
<name>7857</name>
<sym>Dot</sym>
</trkpt>
<trkpt lat="47.692715" lon="15.862565">
<ele>520.5</ele>
<desc>Speed 0.5 km/h Distance 152 km</desc>
<time>2012-09-18T18:09:39.59</time>
<name>7858</name>
<sym>Dot</sym>
</trkpt>
<trkpt lat="47.692715" lon="15.862565">
<ele>520.5</ele>
<desc>Speed 0.4 km/h Distance 152 km</desc>
<time>2012-09-18T18:09:40.58</time>
<name>7859</name>
<sym>Dot</sym>
</trkpt>
<trkpt lat="47.692715" lon="15.862565">
<ele>520.5</ele>
<desc>Speed 0.4 km/h Distance 152 km</desc>
<time>2012-09-18T18:09:41.58</time>
<name>7860</name>
<sym>Dot</sym>
</trkpt>
<trkpt lat="47.692717" lon="15.862567">
<ele>520.0</ele>
<desc>Speed 0.8 km/h Distance 152 km</desc>
<time>2012-09-18T18:09:42.57</time>
<name>7861</name>
<sym>Dot</sym>
</trkpt>
<trkpt lat="47.692718" lon="15.862570">
<ele>520.0</ele>
<desc>Speed 1.7 km/h Distance 152 km</desc>
<time>2012-09-18T18:09:43.57</time>
<name>7862</name>
<sym>Dot</sym>
</trkpt>
<trkpt lat="47.692722" lon="15.862577">
<ele>520.0</ele>
<desc>Speed 2.4 km/h Distance 152 km</desc>
<time>2012-09-18T18:09:44.56</time>
<name>7863</name>
<sym>Dot</sym>
</trkpt>
<trkpt lat="47.692728" lon="15.862587">
<ele>520.0</ele>
<desc>Speed 3.1 km/h Distance 152 km</desc>
<time>2012-09-18T18:09:45.62</time>
<name>7864</name>
<sym>Dot</sym>
</trkpt>
<trkpt lat="47.692740" lon="15.862605">
<ele>519.5</ele>
<desc>Speed 6.7 km/h Distance 152 km</desc>
<time>2012-09-18T18:09:46.56</time>
<name>7865</name>
<sym>Dot</sym>
</trkpt>
<trkpt lat="47.692752" lon="15.862637">
<ele>519.5</ele>
<desc>Speed 9.1 km/h Distance 152 km</desc>
<time>2012-09-18T18:09:47.55</time>
<name>7866</name>
<sym>Dot</sym>
</trkpt>
<trkpt lat="47.692768" lon="15.862780">
<ele>521.0</ele>
<desc>Speed 21.9 km/h Distance 152 km</desc>
<time>2012-09-18T18:09:49.54</time>
<name>7867</name>
<sym>Dot</sym>
</trkpt>
<trkpt lat="47.692778" lon="15.862872">
<ele>521.0</ele>
<desc>Speed 24.8 km/h Distance 152 km</desc>
<time>2012-09-18T18:09:50.53</time>
<name>7868</name>
<sym>Dot</sym>
</trkpt>
<trkpt lat="47.692788" lon="15.862950">
<ele>520.5</ele>
<desc>Speed 21.6 km/h Distance 152 km</desc>
<time>2012-09-18T18:09:51.53</time>
<name>7869</name>
<sym>Dot</sym>
</trkpt>
<trkpt lat="47.692798" lon="15.863017">
<ele>520.5</ele>
<desc>Speed 18.3 km/h Distance 152 km</desc>
<time>2012-09-18T18:09:52.61</time>
<name>7870</name>
<sym>Dot</sym>
</trkpt>
<trkpt lat="47.692807" lon="15.863073">
<ele>520.5</ele>
<desc>Speed 15.6 km/h Distance 152 km</desc>
<time>2012-09-18T18:09:53.52</time>
<name>7871</name>
<sym>Dot</sym>
</trkpt>
<trkpt lat="47.692820" lon="15.863167">
<ele>520.5</ele>
<desc>Speed 11.8 km/h Distance 152 km</desc>
<time>2012-09-18T18:09:55.52</time>
<name>7872</name>
<sym>Dot</sym>
</trkpt>
<trkpt lat="47.692823" lon="15.863207">
<ele>521.0</ele>
<desc>Speed 10.8 km/h Distance 152 km</desc>
<time>2012-09-18T18:09:56.52</time>
<name>7873</name>
<sym>Dot</sym>
</trkpt>
<trkpt lat="47.692828" lon="15.863238">
<ele>521.0</ele>
<desc>Speed 8.7 km/h Distance 152 km</desc>
<time>2012-09-18T18:09:57.51</time>
<name>7874</name>
<sym>Dot</sym>
</trkpt>
<trkpt lat="47.692828" lon="15.863247">
<ele>521.5</ele>
<desc>Speed 2.5 km/h Distance 152 km</desc>
<time>2012-09-18T18:09:58.52</time>
<name>7875</name>
<sym>Dot</sym>
</trkpt>
<trkpt lat="47.692828" lon="15.863245">
<ele>521.5</ele>
<desc>Speed 0.4 km/h Distance 152 km</desc>
<time>2012-09-18T18:10:00.60</time>
<name>7876</name>
<sym>Dot</sym>
</trkpt>
<trkpt lat="47.692825" lon="15.863248">
<ele>521.5</ele>
<desc>Speed 1.2 km/h Distance 152 km</desc>
<time>2012-09-18T18:10:02.51</time>
<name>7877</name>
<sym>Dot</sym>
</trkpt>
<trkpt lat="47.692827" lon="15.863428">
<ele>521.0</ele>
<desc>Speed 20.7 km/h Distance 152 km</desc>
<time>2012-09-18T18:10:06.49</time>
<name>7878</name>
<sym>Dot</sym>
</trkpt>
<trkpt lat="47.692827" lon="15.863507">
<ele>521.5</ele>
<desc>Speed 21.2 km/h Distance 152 km</desc>
<time>2012-09-18T18:10:07.47</time>
<name>7879</name>
<sym>Dot</sym>
</trkpt>
<trkpt lat="47.692823" lon="15.863587">
<ele>522.0</ele>
<desc>Speed 22.2 km/h Distance 152 km</desc>
<time>2012-09-18T18:10:08.52</time>
<name>7880</name>
<sym>Dot</sym>
</trkpt>
<trkpt lat="47.692822" lon="15.863683">
<ele>522.0</ele>
<desc>Speed 25.9 km/h Distance 152 km</desc>
<time>2012-09-18T18:10:09.47</time>
<name>7881</name>
<sym>Dot</sym>
</trkpt>
<trkpt lat="47.692815" lon="15.863797">
<ele>522.0</ele>
<desc>Speed 30.6 km/h Distance 152 km</desc>
<time>2012-09-18T18:10:10.46</time>
<name>7882</name>
<sym>Dot</sym>
</trkpt>
<trkpt lat="47.692795" lon="15.864087">
<ele>522.5</ele>
<desc>Speed 38.2 km/h Distance 152 km</desc>
<time>2012-09-18T18:10:12.46</time>
<name>7883</name>
<sym>Dot</sym>
</trkpt>
<trkpt lat="47.692787" lon="15.864227">
<ele>522.5</ele>
<desc>Speed 37.9 km/h Distance 152 km</desc>
<time>2012-09-18T18:10:13.46</time>
<name>7884</name>
<sym>Dot</sym>
</trkpt>
<trkpt lat="47.692780" lon="15.864372">
<ele>522.5</ele>
<desc>Speed 38.4 km/h Distance 152 km</desc>
<time>2012-09-18T18:10:14.45</time>
<name>7885</name>
<sym>Dot</sym>
</trkpt>
<trkpt lat="47.692775" lon="15.864517">
<ele>522.5</ele>
<desc>Speed 38.9 km/h Distance 152 km</desc>
<time>2012-09-18T18:10:15.45</time>
<name>7886</name>
<sym>Dot</sym>
</trkpt>
<trkpt lat="47.692772" lon="15.864662">
<ele>522.5</ele>
<desc>Speed 38.8 km/h Distance 152 km</desc>
<time>2012-09-18T18:10:16.44</time>
<name>7887</name>
<sym>Dot</sym>
</trkpt>
<trkpt lat="47.692770" lon="15.864805">
<ele>522.5</ele>
<desc>Speed 38.7 km/h Distance 152 km</desc>
<time>2012-09-18T18:10:17.53</time>
<name>7888</name>
<sym>Dot</sym>
</trkpt>
<trkpt lat="47.692768" lon="15.864945">
<ele>522.5</ele>
<desc>Speed 37.9 km/h Distance 152 km</desc>
<time>2012-09-18T18:10:18.44</time>
<name>7889</name>
<sym>Dot</sym>
</trkpt>
<trkpt lat="47.692770" lon="15.865083">
<ele>522.0</ele>
<desc>Speed 37.5 km/h Distance 153 km</desc>
<time>2012-09-18T18:10:19.43</time>
<name>7890</name>
<sym>Dot</sym>
</trkpt>
<trkpt lat="47.692772" lon="15.865228">
<ele>522.5</ele>
<desc>Speed 39.5 km/h Distance 153 km</desc>
<time>2012-09-18T18:10:20.43</time>
<name>7891</name>
<sym>Dot</sym>
</trkpt>
<trkpt lat="47.692777" lon="15.865383">
<ele>522.5</ele>
<desc>Speed 41.8 km/h Distance 153 km</desc>
<time>2012-09-18T18:10:21.42</time>
<name>7892</name>
<sym>Dot</sym>
</trkpt>
<trkpt lat="47.692782" lon="15.865550">
<ele>522.5</ele>
<desc>Speed 44.7 km/h Distance 153 km</desc>
<time>2012-09-18T18:10:22.42</time>
<name>7893</name>
<sym>Dot</sym>
</trkpt>
<trkpt lat="47.692793" lon="15.865730">
<ele>522.5</ele>
<desc>Speed 48.5 km/h Distance 153 km</desc>
<time>2012-09-18T18:10:23.41</time>
<name>7894</name>
<sym>Dot</sym>
</trkpt>
<trkpt lat="47.692805" lon="15.865907">
<ele>522.5</ele>
<desc>Speed 47.6 km/h Distance 153 km</desc>
<time>2012-09-18T18:10:24.40</time>
<name>7895</name>
<sym>Dot</sym>
</trkpt>
<trkpt lat="47.692818" lon="15.866073">
<ele>522.5</ele>
<desc>Speed 45.5 km/h Distance 153 km</desc>
<time>2012-09-18T18:10:25.39</time>
<name>7896</name>
<sym>Dot</sym>
</trkpt>
<trkpt lat="47.692835" lon="15.866233">
<ele>522.5</ele>
<desc>Speed 43.4 km/h Distance 153 km</desc>
<time>2012-09-18T18:10:26.48</time>
<name>7897</name>
<sym>Dot</sym>
</trkpt>
<trkpt lat="47.692852" lon="15.866390">
<ele>522.5</ele>
<desc>Speed 42.4 km/h Distance 153 km</desc>
<time>2012-09-18T18:10:27.39</time>
<name>7898</name>
<sym>Dot</sym>
</trkpt>
<trkpt lat="47.692872" lon="15.866550">
<ele>522.5</ele>
<desc>Speed 44.0 km/h Distance 153 km</desc>
<time>2012-09-18T18:10:28.39</time>
<name>7899</name>
<sym>Dot</sym>
</trkpt>
<trkpt lat="47.692900" lon="15.866717">
<ele>522.5</ele>
<desc>Speed 46.2 km/h Distance 153 km</desc>
<time>2012-09-18T18:10:29.37</time>
<name>7900</name>
<sym>Dot</sym>
</trkpt>
<trkpt lat="47.692932" lon="15.866897">
<ele>522.5</ele>
<desc>Speed 50.0 km/h Distance 153 km</desc>
<time>2012-09-18T18:10:30.39</time>
<name>7901</name>
<sym>Dot</sym>
</trkpt>
<trkpt lat="47.692965" lon="15.867077">
<ele>522.0</ele>
<desc>Speed 49.9 km/h Distance 153 km</desc>
<time>2012-09-18T18:10:31.38</time>
<name>7902</name>
<sym>Dot</sym>
</trkpt>
<trkpt lat="47.692997" lon="15.867250">
<ele>522.0</ele>
<desc>Speed 48.5 km/h Distance 153 km</desc>
<time>2012-09-18T18:10:32.38</time>
<name>7903</name>
<sym>Dot</sym>
</trkpt>
<trkpt lat="47.693028" lon="15.867432">
<ele>521.5</ele>
<desc>Speed 50.5 km/h Distance 153 km</desc>
<time>2012-09-18T18:10:33.37</time>
<name>7904</name>
<sym>Dot</sym>
</trkpt>
<trkpt lat="47.693057" lon="15.867640">
<ele>522.5</ele>
<desc>Speed 57.6 km/h Distance 153 km</desc>
<time>2012-09-18T18:10:34.36</time>
<name>7905</name>
<sym>Dot</sym>
</trkpt>
<trkpt lat="47.693078" lon="15.867843">
<ele>522.0</ele>
<desc>Speed 55.3 km/h Distance 153 km</desc>
<time>2012-09-18T18:10:35.43</time>
<name>7906</name>
<sym>Dot</sym>
</trkpt>
<trkpt lat="47.693093" lon="15.868042">
<ele>522.0</ele>
<desc>Speed 53.9 km/h Distance 153 km</desc>
<time>2012-09-18T18:10:36.35</time>
<name>7907</name>
<sym>Dot</sym>
</trkpt>
<trkpt lat="47.693103" lon="15.868243">
<ele>521.5</ele>
<desc>Speed 54.5 km/h Distance 153 km</desc>
<time>2012-09-18T18:10:37.35</time>
<name>7908</name>
<sym>Dot</sym>
</trkpt>
<trkpt lat="47.693108" lon="15.868447">
<ele>521.5</ele>
<desc>Speed 54.7 km/h Distance 153 km</desc>
<time>2012-09-18T18:10:38.34</time>
<name>7909</name>
<sym>Dot</sym>
</trkpt>
<trkpt lat="47.693113" lon="15.868652">
<ele>521.0</ele>
<desc>Speed 55.0 km/h Distance 153 km</desc>
<time>2012-09-18T18:10:39.33</time>
<name>7910</name>
<sym>Dot</sym>
</trkpt>
<trkpt lat="47.693117" lon="15.868857">
<ele>521.0</ele>
<desc>Speed 55.4 km/h Distance 153 km</desc>
<time>2012-09-18T18:10:40.33</time>
<name>7911</name>
<sym>Dot</sym>
</trkpt>
<trkpt lat="47.693120" lon="15.869062">
<ele>521.0</ele>
<desc>Speed 55.4 km/h Distance 153 km</desc>
<time>2012-09-18T18:10:41.32</time>
<name>7912</name>
<sym>Dot</sym>
</trkpt>
<trkpt lat="47.693120" lon="15.869258">
<ele>521.0</ele>
<desc>Speed 53.5 km/h Distance 153 km</desc>
<time>2012-09-18T18:10:42.32</time>
<name>7913</name>
<sym>Dot</sym>
</trkpt>
<trkpt lat="47.693118" lon="15.869447">
<ele>521.0</ele>
<desc>Speed 50.8 km/h Distance 153 km</desc>
<time>2012-09-18T18:10:43.37</time>
<name>7914</name>
<sym>Dot</sym>
</trkpt>
<trkpt lat="47.693112" lon="15.869632">
<ele>520.5</ele>
<desc>Speed 50.0 km/h Distance 153 km</desc>
<time>2012-09-18T18:10:44.31</time>
<name>7915</name>
<sym>Dot</sym>
</trkpt>
<trkpt lat="47.693103" lon="15.869815">
<ele>520.5</ele>
<desc>Speed 49.6 km/h Distance 153 km</desc>
<time>2012-09-18T18:10:45.31</time>
<name>7916</name>
<sym>Dot</sym>
</trkpt>
<trkpt lat="47.693085" lon="15.869992">
<ele>520.5</ele>
<desc>Speed 47.8 km/h Distance 153 km</desc>
<time>2012-09-18T18:10:46.30</time>
<name>7917</name>
<sym>Dot</sym>
</trkpt>
<trkpt lat="47.693063" lon="15.870163">
<ele>519.5</ele>
<desc>Speed 47.8 km/h Distance 153 km</desc>
<time>2012-09-18T18:10:47.30</time>
<name>7918</name>
<sym>Dot</sym>
</trkpt>
<trkpt lat="47.693032" lon="15.870320">
<ele>520.0</ele>
<desc>Speed 44.0 km/h Distance 153 km</desc>
<time>2012-09-18T18:10:48.30</time>
<name>7919</name>
<sym>Dot</sym>
</trkpt>
<trkpt lat="47.693005" lon="15.870455">
<ele>519.5</ele>
<desc>Speed 37.8 km/h Distance 153 km</desc>
<time>2012-09-18T18:10:49.30</time>
<name>7920</name>
<sym>Dot</sym>
</trkpt>
<trkpt lat="47.692963" lon="15.870583">
<ele>517.5</ele>
<desc>Speed 37.9 km/h Distance 153 km</desc>
<time>2012-09-18T18:10:50.29</time>
<name>7921</name>
<sym>Dot</sym>
</trkpt>
<trkpt lat="47.692917" lon="15.870710">
<ele>517.0</ele>
<desc>Speed 38.9 km/h Distance 153 km</desc>
<time>2012-09-18T18:10:51.28</time>
<name>7922</name>
<sym>Dot</sym>
</trkpt>
<trkpt lat="47.692860" lon="15.870838">
<ele>517.0</ele>
<desc>Speed 41.1 km/h Distance 153 km</desc>
<time>2012-09-18T18:10:52.35</time>
<name>7923</name>
<sym>Dot</sym>
</trkpt>
<trkpt lat="47.692802" lon="15.870965">
<ele>517.0</ele>
<desc>Speed 41.5 km/h Distance 153 km</desc>
<time>2012-09-18T18:10:53.27</time>
<name>7924</name>
<sym>Dot</sym>
</trkpt>
<trkpt lat="47.692738" lon="15.871093">
<ele>517.0</ele>
<desc>Speed 42.0 km/h Distance 153 km</desc>
<time>2012-09-18T18:10:54.27</time>
<name>7925</name>
<sym>Dot</sym>
</trkpt>
<trkpt lat="47.692677" lon="15.871218">
<ele>516.5</ele>
<desc>Speed 41.1 km/h Distance 153 km</desc>
<time>2012-09-18T18:10:55.26</time>
<name>7926</name>
<sym>Dot</sym>
</trkpt>
<trkpt lat="47.692613" lon="15.871337">
<ele>516.5</ele>
<desc>Speed 39.8 km/h Distance 153 km</desc>
<time>2012-09-18T18:10:56.27</time>
<name>7927</name>
<sym>Dot</sym>
</trkpt>
<trkpt lat="47.692553" lon="15.871445">
<ele>517.0</ele>
<desc>Speed 38.2 km/h Distance 153 km</desc>
<time>2012-09-18T18:10:57.26</time>
<name>7928</name>
<sym>Dot</sym>
</trkpt>
<trkpt lat="47.692493" lon="15.871555">
<ele>517.0</ele>
<desc>Speed 37.9 km/h Distance 153 km</desc>
<time>2012-09-18T18:10:58.26</time>
<name>7929</name>
<sym>Dot</sym>
</trkpt>
<trkpt lat="47.692435" lon="15.871662">
<ele>517.5</ele>
<desc>Speed 37.5 km/h Distance 153 km</desc>
<time>2012-09-18T18:10:59.24</time>
<name>7930</name>
<sym>Dot</sym>
</trkpt>
<trkpt lat="47.692373" lon="15.871770">
<ele>518.0</ele>
<desc>Speed 37.7 km/h Distance 153 km</desc>
<time>2012-09-18T18:11:00.31</time>
<name>7931</name>
<sym>Dot</sym>
</trkpt>
<trkpt lat="47.692313" lon="15.871878">
<ele>518.0</ele>
<desc>Speed 37.9 km/h Distance 153 km</desc>
<time>2012-09-18T18:11:01.22</time>
<name>7932</name>
<sym>Dot</sym>
</trkpt>
<trkpt lat="47.692253" lon="15.871982">
<ele>518.0</ele>
<desc>Speed 36.6 km/h Distance 153 km</desc>
<time>2012-09-18T18:11:02.22</time>
<name>7933</name>
<sym>Dot</sym>
</trkpt>
<trkpt lat="47.692197" lon="15.872080">
<ele>518.0</ele>
<desc>Speed 35.2 km/h Distance 153 km</desc>
<time>2012-09-18T18:11:03.21</time>
<name>7934</name>
<sym>Dot</sym>
</trkpt>
<trkpt lat="47.692137" lon="15.872187">
<ele>518.0</ele>
<desc>Speed 37.0 km/h Distance 153 km</desc>
<time>2012-09-18T18:11:04.20</time>
<name>7935</name>
<sym>Dot</sym>
</trkpt>
<trkpt lat="47.692073" lon="15.872302">
<ele>518.5</ele>
<desc>Speed 40.1 km/h Distance 153 km</desc>
<time>2012-09-18T18:11:05.20</time>
<name>7936</name>
<sym>Dot</sym>
</trkpt>
<trkpt lat="47.692008" lon="15.872423">
<ele>518.5</ele>
<desc>Speed 41.9 km/h Distance 153 km</desc>
<time>2012-09-18T18:11:06.19</time>
<name>7937</name>
<sym>Dot</sym>
</trkpt>
<trkpt lat="47.691942" lon="15.872548">
<ele>518.5</ele>
<desc>Speed 42.7 km/h Distance 153 km</desc>
<time>2012-09-18T18:11:07.19</time>
<name>7938</name>
<sym>Dot</sym>
</trkpt>
<trkpt lat="47.691882" lon="15.872668">
<ele>519.0</ele>
<desc>Speed 41.1 km/h Distance 153 km</desc>
<time>2012-09-18T18:11:08.26</time>
<name>7939</name>
<sym>Dot</sym>
</trkpt>
<trkpt lat="47.691818" lon="15.872778">
<ele>519.0</ele>
<desc>Speed 39.5 km/h Distance 153 km</desc>
<time>2012-09-18T18:11:09.17</time>
<name>7940</name>
<sym>Dot</sym>
</trkpt>
<trkpt lat="47.691755" lon="15.872883">
<ele>519.0</ele>
<desc>Speed 38.2 km/h Distance 153 km</desc>
<time>2012-09-18T18:11:10.17</time>
<name>7941</name>
<sym>Dot</sym>
</trkpt>
<trkpt lat="47.691692" lon="15.872978">
<ele>519.0</ele>
<desc>Speed 36.1 km/h Distance 153 km</desc>
<time>2012-09-18T18:11:11.16</time>
<name>7942</name>
<sym>Dot</sym>
</trkpt>
<trkpt lat="47.691635" lon="15.873060">
<ele>519.0</ele>
<desc>Speed 31.4 km/h Distance 153 km</desc>
<time>2012-09-18T18:11:12.17</time>
<name>7943</name>
<sym>Dot</sym>
</trkpt>
<trkpt lat="47.691585" lon="15.873113">
<ele>517.0</ele>
<desc>Speed 24.6 km/h Distance 153 km</desc>
<time>2012-09-18T18:11:13.16</time>
<name>7944</name>
<sym>Dot</sym>
</trkpt>
<trkpt lat="47.691542" lon="15.873168">
<ele>517.0</ele>
<desc>Speed 23.0 km/h Distance 153 km</desc>
<time>2012-09-18T18:11:14.15</time>
<name>7945</name>
<sym>Dot</sym>
</trkpt>
<trkpt lat="47.691498" lon="15.873220">
<ele>517.0</ele>
<desc>Speed 22.2 km/h Distance 153 km</desc>
<time>2012-09-18T18:11:15.15</time>
<name>7946</name>
<sym>Dot</sym>
</trkpt>
<trkpt lat="47.691447" lon="15.873280">
<ele>517.0</ele>
<desc>Speed 26.0 km/h Distance 153 km</desc>
<time>2012-09-18T18:11:16.13</time>
<name>7947</name>
<sym>Dot</sym>
</trkpt>
<trkpt lat="47.691383" lon="15.873352">
<ele>517.0</ele>
<desc>Speed 31.9 km/h Distance 153 km</desc>
<time>2012-09-18T18:11:17.22</time>
<name>7948</name>
<sym>Dot</sym>
</trkpt>
<trkpt lat="47.691325" lon="15.873433">
<ele>517.0</ele>
<desc>Speed 32.0 km/h Distance 153 km</desc>
<time>2012-09-18T18:11:18.12</time>
<name>7949</name>
<sym>Dot</sym>
</trkpt>
<trkpt lat="47.691265" lon="15.873518">
<ele>517.0</ele>
<desc>Speed 33.6 km/h Distance 153 km</desc>
<time>2012-09-18T18:11:19.12</time>
<name>7950</name>
<sym>Dot</sym>
</trkpt>
<trkpt lat="47.691205" lon="15.873615">
<ele>517.0</ele>
<desc>Speed 35.3 km/h Distance 153 km</desc>
<time>2012-09-18T18:11:20.12</time>
<name>7951</name>
<sym>Dot</sym>
</trkpt>
<trkpt lat="47.691140" lon="15.873725">
<ele>516.0</ele>
<desc>Speed 39.5 km/h Distance 153 km</desc>
<time>2012-09-18T18:11:21.12</time>
<name>7952</name>
<sym>Dot</sym>
</trkpt>
<trkpt lat="47.691078" lon="15.873868">
<ele>516.0</ele>
<desc>Speed 45.9 km/h Distance 153 km</desc>
<time>2012-09-18T18:11:22.11</time>
<name>7953</name>
<sym>Dot</sym>
</trkpt>
<trkpt lat="47.691020" lon="15.874025">
<ele>516.5</ele>
<desc>Speed 48.7 km/h Distance 153 km</desc>
<time>2012-09-18T18:11:23.10</time>
<name>7954</name>
<sym>Dot</sym>
</trkpt>
<trkpt lat="47.690965" lon="15.874185">
<ele>516.5</ele>
<desc>Speed 48.3 km/h Distance 153 km</desc>
<time>2012-09-18T18:11:24.10</time>
<name>7955</name>
<sym>Dot</sym>
</trkpt>
<trkpt lat="47.690915" lon="15.874345">
<ele>516.0</ele>
<desc>Speed 47.2 km/h Distance 153 km</desc>
<time>2012-09-18T18:11:25.19</time>
<name>7956</name>
<sym>Dot</sym>
</trkpt>
<trkpt lat="47.690863" lon="15.874505">
<ele>516.0</ele>
<desc>Speed 47.3 km/h Distance 153 km</desc>
<time>2012-09-18T18:11:26.08</time>
<name>7957</name>
<sym>Dot</sym>
</trkpt>
<trkpt lat="47.690812" lon="15.874665">
<ele>516.0</ele>
<desc>Speed 47.6 km/h Distance 153 km</desc>
<time>2012-09-18T18:11:27.06</time>
<name>7958</name>
<sym>Dot</sym>
</trkpt>
<trkpt lat="47.690762" lon="15.874828">
<ele>515.5</ele>
<desc>Speed 48.0 km/h Distance 153 km</desc>
<time>2012-09-18T18:11:28.06</time>
<name>7959</name>
<sym>Dot</sym>
</trkpt>
<trkpt lat="47.690708" lon="15.874995">
<ele>515.5</ele>
<desc>Speed 49.4 km/h Distance 153 km</desc>
<time>2012-09-18T18:11:29.05</time>
<name>7960</name>
<sym>Dot</sym>
</trkpt>
<trkpt lat="47.690657" lon="15.875158">
<ele>515.5</ele>
<desc>Speed 48.5 km/h Distance 153 km</desc>
<time>2012-09-18T18:11:30.05</time>
<name>7961</name>
<sym>Dot</sym>
</trkpt>
<trkpt lat="47.690607" lon="15.875323">
<ele>515.5</ele>
<desc>Speed 48.3 km/h Distance 153 km</desc>
<time>2012-09-18T18:11:31.04</time>
<name>7962</name>
<sym>Dot</sym>
</trkpt>
<trkpt lat="47.690557" lon="15.875487">
<ele>515.5</ele>
<desc>Speed 48.5 km/h Distance 153 km</desc>
<time>2012-09-18T18:11:32.04</time>
<name>7963</name>
<sym>Dot</sym>
</trkpt>
<trkpt lat="47.690508" lon="15.875652">
<ele>515.5</ele>
<desc>Speed 48.8 km/h Distance 153 km</desc>
<time>2012-09-18T18:11:33.13</time>
<name>7964</name>
<sym>Dot</sym>
</trkpt>
<trkpt lat="47.690457" lon="15.875823">
<ele>515.0</ele>
<desc>Speed 50.8 km/h Distance 153 km</desc>
<time>2012-09-18T18:11:34.03</time>
<name>7965</name>
<sym>Dot</sym>
</trkpt>
<trkpt lat="47.690400" lon="15.876007">
<ele>515.0</ele>
<desc>Speed 54.4 km/h Distance 153 km</desc>
<time>2012-09-18T18:11:35.02</time>
<name>7966</name>
<sym>Dot</sym>
</trkpt>
<trkpt lat="47.690342" lon="15.876195">
<ele>514.5</ele>
<desc>Speed 55.8 km/h Distance 153 km</desc>
<time>2012-09-18T18:11:36.02</time>
<name>7967</name>
<sym>Dot</sym>
</trkpt>
<trkpt lat="47.690288" lon="15.876380">
<ele>514.5</ele>
<desc>Speed 54.2 km/h Distance 153 km</desc>
<time>2012-09-18T18:11:37.01</time>
<name>7968</name>
<sym>Dot</sym>
</trkpt>
<trkpt lat="47.690237" lon="15.876555">
<ele>514.0</ele>
<desc>Speed 51.8 km/h Distance 153 km</desc>
<time>2012-09-18T18:11:38.01</time>
<name>7969</name>
<sym>Dot</sym>
</trkpt>
<trkpt lat="47.690185" lon="15.876723">
<ele>514.0</ele>
<desc>Speed 49.7 km/h Distance 153 km</desc>
<time>2012-09-18T18:11:39.00</time>
<name>7970</name>
<sym>Dot</sym>
</trkpt>
<trkpt lat="47.690137" lon="15.876892">
<ele>514.0</ele>
<desc>Speed 49.2 km/h Distance 154 km</desc>
<time>2012-09-18T18:11:40.00</time>
<name>7971</name>
<sym>Dot</sym>
</trkpt>
<trkpt lat="47.690082" lon="15.877065">
<ele>514.0</ele>
<desc>Speed 51.4 km/h Distance 154 km</desc>
<time>2012-09-18T18:11:40.99</time>
<name>7972</name>
<sym>Dot</sym>
</trkpt>
<trkpt lat="47.690025" lon="15.877247">
<ele>514.0</ele>
<desc>Speed 54.1 km/h Distance 154 km</desc>
<time>2012-09-18T18:11:42.08</time>
<name>7973</name>
<sym>Dot</sym>
</trkpt>
<trkpt lat="47.689972" lon="15.877425">
<ele>513.5</ele>
<desc>Speed 52.4 km/h Distance 154 km</desc>
<time>2012-09-18T18:11:42.97</time>
<name>7974</name>
<sym>Dot</sym>
</trkpt>
<trkpt lat="47.689923" lon="15.877597">
<ele>513.5</ele>
<desc>Speed 50.3 km/h Distance 154 km</desc>
<time>2012-09-18T18:11:43.98</time>
<name>7975</name>
<sym>Dot</sym>
</trkpt>
<trkpt lat="47.689877" lon="15.877767">
<ele>513.0</ele>
<desc>Speed 49.6 km/h Distance 154 km</desc>
<time>2012-09-18T18:11:44.98</time>
<name>7976</name>
<sym>Dot</sym>
</trkpt>
<trkpt lat="47.689828" lon="15.877937">
<ele>513.0</ele>
<desc>Speed 49.7 km/h Distance 154 km</desc>
<time>2012-09-18T18:11:45.97</time>
<name>7977</name>
<sym>Dot</sym>
</trkpt>
<trkpt lat="47.689780" lon="15.878102">
<ele>512.5</ele>
<desc>Speed 49.2 km/h Distance 154 km</desc>
<time>2012-09-18T18:11:46.97</time>
<name>7978</name>
<sym>Dot</sym>
</trkpt>
<trkpt lat="47.689732" lon="15.878268">
<ele>512.5</ele>
<desc>Speed 48.7 km/h Distance 154 km</desc>
<time>2012-09-18T18:11:47.97</time>
<name>7979</name>
<sym>Dot</sym>
</trkpt>
<trkpt lat="47.689683" lon="15.878435">
<ele>512.5</ele>
<desc>Speed 49.3 km/h Distance 154 km</desc>
<time>2012-09-18T18:11:48.96</time>
<name>7980</name>
<sym>Dot</sym>
</trkpt>
<trkpt lat="47.689630" lon="15.878612">
<ele>512.5</ele>
<desc>Speed 52.5 km/h Distance 154 km</desc>
<time>2012-09-18T18:11:49.95</time>
<name>7981</name>
<sym>Dot</sym>
</trkpt>
<trkpt lat="47.689568" lon="15.878785">
<ele>512.5</ele>
<desc>Speed 53.3 km/h Distance 154 km</desc>
<time>2012-09-18T18:11:51.01</time>
<name>7982</name>
<sym>Dot</sym>
</trkpt>
<trkpt lat="47.689502" lon="15.878942">
<ele>512.5</ele>
<desc>Speed 50.5 km/h Distance 154 km</desc>
<time>2012-09-18T18:11:51.94</time>
<name>7983</name>
<sym>Dot</sym>
</trkpt>
<trkpt lat="47.689428" lon="15.879085">
<ele>512.0</ele>
<desc>Speed 49.2 km/h Distance 154 km</desc>
<time>2012-09-18T18:11:52.94</time>
<name>7984</name>
<sym>Dot</sym>
</trkpt>
<trkpt lat="47.689340" lon="15.879223">
<ele>512.0</ele>
<desc>Speed 51.8 km/h Distance 154 km</desc>
<time>2012-09-18T18:11:53.94</time>
<name>7985</name>
<sym>Dot</sym>
</trkpt>
<trkpt lat="47.689240" lon="15.879358">
<ele>512.0</ele>
<desc>Speed 54.5 km/h Distance 154 km</desc>
<time>2012-09-18T18:11:54.93</time>
<name>7986</name>
<sym>Dot</sym>
</trkpt>
<trkpt lat="47.689130" lon="15.879490">
<ele>511.5</ele>
<desc>Speed 57.1 km/h Distance 154 km</desc>
<time>2012-09-18T18:11:55.93</time>
<name>7987</name>
<sym>Dot</sym>
</trkpt>
<trkpt lat="47.689002" lon="15.879618">
<ele>512.0</ele>
<desc>Speed 62.0 km/h Distance 154 km</desc>
<time>2012-09-18T18:11:56.92</time>
<name>7988</name>
<sym>Dot</sym>
</trkpt>
<trkpt lat="47.688873" lon="15.879738">
<ele>512.0</ele>
<desc>Speed 61.6 km/h Distance 154 km</desc>
<time>2012-09-18T18:11:57.95</time>
<name>7989</name>
<sym>Dot</sym>
</trkpt>
<trkpt lat="47.688747" lon="15.879852">
<ele>512.0</ele>
<desc>Speed 59.3 km/h Distance 154 km</desc>
<time>2012-09-18T18:11:58.91</time>
<name>7990</name>
<sym>Dot</sym>
</trkpt>
<trkpt lat="47.688625" lon="15.879955">
<ele>512.0</ele>
<desc>Speed 56.0 km/h Distance 154 km</desc>
<time>2012-09-18T18:11:59.91</time>
<name>7991</name>
<sym>Dot</sym>
</trkpt>
<trkpt lat="47.688507" lon="15.880055">
<ele>512.0</ele>
<desc>Speed 54.8 km/h Distance 154 km</desc>
<time>2012-09-18T18:12:00.90</time>
<name>7992</name>
<sym>Dot</sym>
</trkpt>
<trkpt lat="47.688385" lon="15.880160">
<ele>512.0</ele>
<desc>Speed 56.3 km/h Distance 154 km</desc>
<time>2012-09-18T18:12:01.90</time>
<name>7993</name>
<sym>Dot</sym>
</trkpt>
<trkpt lat="47.688260" lon="15.880273">
<ele>512.0</ele>
<desc>Speed 58.3 km/h Distance 154 km</desc>
<time>2012-09-18T18:12:02.89</time>
<name>7994</name>
<sym>Dot</sym>
</trkpt>
<trkpt lat="47.688133" lon="15.880388">
<ele>512.0</ele>
<desc>Speed 60.0 km/h Distance 154 km</desc>
<time>2012-09-18T18:12:03.89</time>
<name>7995</name>
<sym>Dot</sym>
</trkpt>
<trkpt lat="47.688007" lon="15.880508">
<ele>512.0</ele>
<desc>Speed 60.4 km/h Distance 154 km</desc>
<time>2012-09-18T18:12:04.88</time>
<name>7996</name>
<sym>Dot</sym>
</trkpt>
<trkpt lat="47.687890" lon="15.880632">
<ele>512.0</ele>
<desc>Speed 57.5 km/h Distance 154 km</desc>
<time>2012-09-18T18:12:05.88</time>
<name>7997</name>
<sym>Dot</sym>
</trkpt>
<trkpt lat="47.687783" lon="15.880763">
<ele>512.0</ele>
<desc>Speed 56.0 km/h Distance 154 km</desc>
<time>2012-09-18T18:12:07.02</time>
<name>7998</name>
<sym>Dot</sym>
</trkpt>
<trkpt lat="47.687682" lon="15.880907">
<ele>512.0</ele>
<desc>Speed 56.7 km/h Distance 154 km</desc>
<time>2012-09-18T18:12:07.86</time>
<name>7999</name>
<sym>Dot</sym>
</trkpt>
<trkpt lat="47.687580" lon="15.881063">
<ele>511.5</ele>
<desc>Speed 58.6 km/h Distance 154 km</desc>
<time>2012-09-18T18:12:08.86</time>
<name>8000</name>
<sym>Dot</sym>
</trkpt>
<trkpt lat="47.687482" lon="15.881237">
<ele>510.5</ele>
<desc>Speed 62.0 km/h Distance 154 km</desc>
<time>2012-09-18T18:12:09.86</time>
<name>8001</name>
<sym>Dot</sym>
</trkpt>
<trkpt lat="47.687393" lon="15.881422">
<ele>510.0</ele>
<desc>Speed 61.4 km/h Distance 154 km</desc>
<time>2012-09-18T18:12:10.85</time>
<name>8002</name>
<sym>Dot</sym>
</trkpt>
<trkpt lat="47.687310" lon="15.881617">
<ele>510.0</ele>
<desc>Speed 62.6 km/h Distance 154 km</desc>
<time>2012-09-18T18:12:11.86</time>
<name>8003</name>
<sym>Dot</sym>
</trkpt>
<trkpt lat="47.687238" lon="15.881818">
<ele>509.5</ele>
<desc>Speed 61.6 km/h Distance 154 km</desc>
<time>2012-09-18T18:12:12.84</time>
<name>8004</name>
<sym>Dot</sym>
</trkpt>
<trkpt lat="47.687178" lon="15.882025">
<ele>509.0</ele>
<desc>Speed 61.1 km/h Distance 154 km</desc>
<time>2012-09-18T18:12:13.85</time>
<name>8005</name>
<sym>Dot</sym>
</trkpt>
<trkpt lat="47.687128" lon="15.882235">
<ele>509.0</ele>
<desc>Speed 60.0 km/h Distance 154 km</desc>
<time>2012-09-18T18:12:14.83</time>
<name>8006</name>
<sym>Dot</sym>
</trkpt>
<trkpt lat="47.687088" lon="15.882445">
<ele>508.5</ele>
<desc>Speed 58.9 km/h Distance 154 km</desc>
<time>2012-09-18T18:12:15.91</time>
<name>8007</name>
<sym>Dot</sym>
</trkpt>
<trkpt lat="47.687053" lon="15.882658">
<ele>508.5</ele>
<desc>Speed 59.2 km/h Distance 154 km</desc>
<time>2012-09-18T18:12:16.82</time>
<name>8008</name>
<sym>Dot</sym>
</trkpt>
<trkpt lat="47.687022" lon="15.882872">
<ele>508.5</ele>
<desc>Speed 59.1 km/h Distance 154 km</desc>
<time>2012-09-18T18:12:17.82</time>
<name>8009</name>
<sym>Dot</sym>
</trkpt>
<trkpt lat="47.686988" lon="15.883098">
<ele>509.0</ele>
<desc>Speed 62.6 km/h Distance 154 km</desc>
<time>2012-09-18T18:12:18.82</time>
<name>8010</name>
<sym>Dot</sym>
</trkpt>
<trkpt lat="47.686953" lon="15.883333">
<ele>508.5</ele>
<desc>Speed 65.2 km/h Distance 154 km</desc>
<time>2012-09-18T18:12:19.82</time>
<name>8011</name>
<sym>Dot</sym>
</trkpt>
<trkpt lat="47.686920" lon="15.883568">
<ele>508.5</ele>
<desc>Speed 65.1 km/h Distance 154 km</desc>
<time>2012-09-18T18:12:20.82</time>
<name>8012</name>
<sym>Dot</sym>
</trkpt>
<trkpt lat="47.686887" lon="15.883808">
<ele>508.5</ele>
<desc>Speed 65.7 km/h Distance 154 km</desc>
<time>2012-09-18T18:12:21.82</time>
<name>8013</name>
<sym>Dot</sym>
</trkpt>
<trkpt lat="47.686852" lon="15.884047">
<ele>508.5</ele>
<desc>Speed 66.2 km/h Distance 154 km</desc>
<time>2012-09-18T18:12:22.81</time>
<name>8014</name>
<sym>Dot</sym>
</trkpt>
<trkpt lat="47.686815" lon="15.884298">
<ele>507.5</ele>
<desc>Speed 69.1 km/h Distance 154 km</desc>
<time>2012-09-18T18:12:23.81</time>
<name>8015</name>
<sym>Dot</sym>
</trkpt>
<trkpt lat="47.686502" lon="15.886547">
<ele>504.0</ele>
<desc>Speed 117 km/h Distance 154 km</desc>
<time>2012-09-18T18:12:30.47</time>
<name>8016</name>
<sym>Dot</sym>
</trkpt>
<trkpt lat="47.686362" lon="15.887340">
<ele>502.5</ele>
<desc>Speed 111 km/h Distance 154 km</desc>
<time>2012-09-18T18:12:32.46</time>
<name>8017</name>
<sym>Dot</sym>
</trkpt>
<trkpt lat="47.686290" lon="15.887738">
<ele>503.0</ele>
<desc>Speed 113 km/h Distance 154 km</desc>
<time>2012-09-18T18:12:33.46</time>
<name>8018</name>
<sym>Dot</sym>
</trkpt>
<trkpt lat="47.686210" lon="15.888128">
<ele>502.0</ele>
<desc>Speed 110 km/h Distance 154 km</desc>
<time>2012-09-18T18:12:34.56</time>
<name>8019</name>
<sym>Dot</sym>
</trkpt>
<trkpt lat="47.686125" lon="15.888520">
<ele>502.0</ele>
<desc>Speed 111 km/h Distance 155 km</desc>
<time>2012-09-18T18:12:35.44</time>
<name>8020</name>
<sym>Dot</sym>
</trkpt>
<trkpt lat="47.686035" lon="15.888915">
<ele>502.5</ele>
<desc>Speed 112 km/h Distance 155 km</desc>
<time>2012-09-18T18:12:36.44</time>
<name>8021</name>
<sym>Dot</sym>
</trkpt>
<trkpt lat="47.685940" lon="15.889300">
<ele>503.0</ele>
<desc>Speed 111 km/h Distance 155 km</desc>
<time>2012-09-18T18:12:37.43</time>
<name>8022</name>
<sym>Dot</sym>
</trkpt>
<trkpt lat="47.685840" lon="15.889682">
<ele>503.5</ele>
<desc>Speed 112 km/h Distance 155 km</desc>
<time>2012-09-18T18:12:38.43</time>
<name>8023</name>
<sym>Dot</sym>
</trkpt>
<trkpt lat="47.685732" lon="15.890062">
<ele>503.5</ele>
<desc>Speed 111 km/h Distance 155 km</desc>
<time>2012-09-18T18:12:39.43</time>
<name>8024</name>
<sym>Dot</sym>
</trkpt>
<trkpt lat="47.685623" lon="15.890433">
<ele>503.5</ele>
<desc>Speed 110 km/h Distance 155 km</desc>
<time>2012-09-18T18:12:40.42</time>
<name>8025</name>
<sym>Dot</sym>
</trkpt>
<trkpt lat="47.685517" lon="15.890798">
<ele>504.0</ele>
<desc>Speed 108 km/h Distance 155 km</desc>
<time>2012-09-18T18:12:41.42</time>
<name>8026</name>
<sym>Dot</sym>
</trkpt>
<trkpt lat="47.685413" lon="15.891162">
<ele>504.0</ele>
<desc>Speed 107 km/h Distance 155 km</desc>
<time>2012-09-18T18:12:42.50</time>
<name>8027</name>
<sym>Dot</sym>
</trkpt>
<trkpt lat="47.685315" lon="15.891528">
<ele>505.0</ele>
<desc>Speed 107 km/h Distance 155 km</desc>
<time>2012-09-18T18:12:43.40</time>
<name>8028</name>
<sym>Dot</sym>
</trkpt>
<trkpt lat="47.685218" lon="15.891902">
<ele>505.0</ele>
<desc>Speed 108 km/h Distance 155 km</desc>
<time>2012-09-18T18:12:44.40</time>
<name>8029</name>
<sym>Dot</sym>
</trkpt>
<trkpt lat="47.685123" lon="15.892277">
<ele>505.0</ele>
<desc>Speed 109 km/h Distance 155 km</desc>
<time>2012-09-18T18:12:45.40</time>
<name>8030</name>
<sym>Dot</sym>
</trkpt>
<trkpt lat="47.685028" lon="15.892658">
<ele>505.0</ele>
<desc>Speed 110 km/h Distance 155 km</desc>
<time>2012-09-18T18:12:46.39</time>
<name>8031</name>
<sym>Dot</sym>
</trkpt>
<trkpt lat="47.684933" lon="15.893045">
<ele>505.0</ele>
<desc>Speed 111 km/h Distance 155 km</desc>
<time>2012-09-18T18:12:47.39</time>
<name>8032</name>
<sym>Dot</sym>
</trkpt>
<trkpt lat="47.684838" lon="15.893440">
<ele>505.0</ele>
<desc>Speed 113 km/h Distance 155 km</desc>
<time>2012-09-18T18:12:48.39</time>
<name>8033</name>
<sym>Dot</sym>
</trkpt>
<trkpt lat="47.684743" lon="15.893837">
<ele>505.0</ele>
<desc>Speed 114 km/h Distance 155 km</desc>
<time>2012-09-18T18:12:49.38</time>
<name>8034</name>
<sym>Dot</sym>
</trkpt>
<trkpt lat="47.684648" lon="15.894232">
<ele>505.0</ele>
<desc>Speed 113 km/h Distance 155 km</desc>
<time>2012-09-18T18:12:50.47</time>
<name>8035</name>
<sym>Dot</sym>
</trkpt>
<trkpt lat="47.684552" lon="15.894620">
<ele>505.0</ele>
<desc>Speed 111 km/h Distance 155 km</desc>
<time>2012-09-18T18:12:51.36</time>
<name>8036</name>
<sym>Dot</sym>
</trkpt>
<trkpt lat="47.684453" lon="15.894997">
<ele>505.0</ele>
<desc>Speed 108 km/h Distance 155 km</desc>
<time>2012-09-18T18:12:52.36</time>
<name>8037</name>
<sym>Dot</sym>
</trkpt>
<trkpt lat="47.684350" lon="15.895362">
<ele>505.5</ele>
<desc>Speed 107 km/h Distance 155 km</desc>
<time>2012-09-18T18:12:53.36</time>
<name>8038</name>
<sym>Dot</sym>
</trkpt>
<trkpt lat="47.684240" lon="15.895722">
<ele>505.5</ele>
<desc>Speed 106 km/h Distance 155 km</desc>
<time>2012-09-18T18:12:54.36</time>
<name>8039</name>
<sym>Dot</sym>
</trkpt>
<trkpt lat="47.684122" lon="15.896075">
<ele>505.5</ele>
<desc>Speed 106 km/h Distance 155 km</desc>
<time>2012-09-18T18:12:55.35</time>
<name>8040</name>
<sym>Dot</sym>
</trkpt>
<trkpt lat="47.683995" lon="15.896422">
<ele>505.5</ele>
<desc>Speed 106 km/h Distance 155 km</desc>
<time>2012-09-18T18:12:56.35</time>
<name>8041</name>
<sym>Dot</sym>
</trkpt>
<trkpt lat="47.683860" lon="15.896758">
<ele>505.5</ele>
<desc>Speed 105 km/h Distance 155 km</desc>
<time>2012-09-18T18:12:57.35</time>
<name>8042</name>
<sym>Dot</sym>
</trkpt>
<trkpt lat="47.683713" lon="15.897087">
<ele>505.5</ele>
<desc>Speed 106 km/h Distance 155 km</desc>
<time>2012-09-18T18:12:58.34</time>
<name>8043</name>
<sym>Dot</sym>
</trkpt>
<trkpt lat="47.683552" lon="15.897405">
<ele>505.0</ele>
<desc>Speed 107 km/h Distance 155 km</desc>
<time>2012-09-18T18:12:59.37</time>
<name>8044</name>
<sym>Dot</sym>
</trkpt>
<trkpt lat="47.683378" lon="15.897712">
<ele>505.0</ele>
<desc>Speed 108 km/h Distance 155 km</desc>
<time>2012-09-18T18:13:00.33</time>
<name>8045</name>
<sym>Dot</sym>
</trkpt>
<trkpt lat="47.683190" lon="15.898005">
<ele>505.0</ele>
<desc>Speed 109 km/h Distance 155 km</desc>
<time>2012-09-18T18:13:01.32</time>
<name>8046</name>
<sym>Dot</sym>
</trkpt>
<trkpt lat="47.682993" lon="15.898290">
<ele>505.0</ele>
<desc>Speed 109 km/h Distance 155 km</desc>
<time>2012-09-18T18:13:02.32</time>
<name>8047</name>
<sym>Dot</sym>
</trkpt>
<trkpt lat="47.682792" lon="15.898568">
<ele>505.0</ele>
<desc>Speed 110 km/h Distance 155 km</desc>
<time>2012-09-18T18:13:03.32</time>
<name>8048</name>
<sym>Dot</sym>
</trkpt>
<trkpt lat="47.682585" lon="15.898842">
<ele>505.0</ele>
<desc>Speed 111 km/h Distance 155 km</desc>
<time>2012-09-18T18:13:04.32</time>
<name>8049</name>
<sym>Dot</sym>
</trkpt>
<trkpt lat="47.682373" lon="15.899107">
<ele>505.0</ele>
<desc>Speed 111 km/h Distance 155 km</desc>
<time>2012-09-18T18:13:05.32</time>
<name>8050</name>
<sym>Dot</sym>
</trkpt>
<trkpt lat="47.682168" lon="15.899362">
<ele>504.5</ele>
<desc>Speed 107 km/h Distance 155 km</desc>
<time>2012-09-18T18:13:06.31</time>
<name>8051</name>
<sym>Dot</sym>
</trkpt>
<trkpt lat="47.681977" lon="15.899610">
<ele>504.5</ele>
<desc>Speed 102 km/h Distance 155 km</desc>
<time>2012-09-18T18:13:07.39</time>
<name>8052</name>
<sym>Dot</sym>
</trkpt>
<trkpt lat="47.681795" lon="15.899858">
<ele>504.5</ele>
<desc>Speed 98.8 km/h Distance 156 km</desc>
<time>2012-09-18T18:13:08.32</time>
<name>8053</name>
<sym>Dot</sym>
</trkpt>
<trkpt lat="47.681623" lon="15.900108">
<ele>503.5</ele>
<desc>Speed 96.5 km/h Distance 156 km</desc>
<time>2012-09-18T18:13:09.31</time>
<name>8054</name>
<sym>Dot</sym>
</trkpt>
<trkpt lat="47.681472" lon="15.900365">
<ele>503.5</ele>
<desc>Speed 92.3 km/h Distance 156 km</desc>
<time>2012-09-18T18:13:10.31</time>
<name>8055</name>
<sym>Dot</sym>
</trkpt>
<trkpt lat="47.681348" lon="15.900645">
<ele>503.0</ele>
<desc>Speed 90.5 km/h Distance 156 km</desc>
<time>2012-09-18T18:13:11.31</time>
<name>8056</name>
<sym>Dot</sym>
</trkpt>
<trkpt lat="47.681238" lon="15.900940">
<ele>502.0</ele>
<desc>Speed 91.4 km/h Distance 156 km</desc>
<time>2012-09-18T18:13:12.30</time>
<name>8057</name>
<sym>Dot</sym>
</trkpt>
<trkpt lat="47.681145" lon="15.901255">
<ele>501.5</ele>
<desc>Speed 92.9 km/h Distance 156 km</desc>
<time>2012-09-18T18:13:13.30</time>
<name>8058</name>
<sym>Dot</sym>
</trkpt>
<trkpt lat="47.681062" lon="15.901588">
<ele>501.0</ele>
<desc>Speed 95.9 km/h Distance 156 km</desc>
<time>2012-09-18T18:13:14.37</time>
<name>8059</name>
<sym>Dot</sym>
</trkpt>
<trkpt lat="47.680993" lon="15.901933">
<ele>501.0</ele>
<desc>Speed 97.5 km/h Distance 156 km</desc>
<time>2012-09-18T18:13:15.28</time>
<name>8060</name>
<sym>Dot</sym>
</trkpt>
<trkpt lat="47.680948" lon="15.902288">
<ele>500.5</ele>
<desc>Speed 97.7 km/h Distance 156 km</desc>
<time>2012-09-18T18:13:16.29</time>
<name>8061</name>
<sym>Dot</sym>
</trkpt>
<trkpt lat="47.680927" lon="15.902643">
<ele>500.5</ele>
<desc>Speed 96.3 km/h Distance 156 km</desc>
<time>2012-09-18T18:13:17.28</time>
<name>8062</name>
<sym>Dot</sym>
</trkpt>
<trkpt lat="47.680927" lon="15.902997">
<ele>500.5</ele>
<desc>Speed 95.5 km/h Distance 156 km</desc>
<time>2012-09-18T18:13:18.28</time>
<name>8063</name>
<sym>Dot</sym>
</trkpt>
<trkpt lat="47.680950" lon="15.903350">
<ele>500.5</ele>
<desc>Speed 96.0 km/h Distance 156 km</desc>
<time>2012-09-18T18:13:19.27</time>
<name>8064</name>
<sym>Dot</sym>
</trkpt>
<trkpt lat="47.680993" lon="15.903705">
<ele>500.0</ele>
<desc>Speed 97.5 km/h Distance 156 km</desc>
<time>2012-09-18T18:13:20.26</time>
<name>8065</name>
<sym>Dot</sym>
</trkpt>
<trkpt lat="47.681053" lon="15.904060">
<ele>500.0</ele>
<desc>Speed 99.2 km/h Distance 156 km</desc>
<time>2012-09-18T18:13:21.25</time>
<name>8066</name>
<sym>Dot</sym>
</trkpt>
<trkpt lat="47.681125" lon="15.904420">
<ele>499.5</ele>
<desc>Speed 101 km/h Distance 156 km</desc>
<time>2012-09-18T18:13:22.38</time>
<name>8067</name>
<sym>Dot</sym>
</trkpt>
<trkpt lat="47.681203" lon="15.904782">
<ele>499.5</ele>
<desc>Speed 103 km/h Distance 156 km</desc>
<time>2012-09-18T18:13:23.25</time>
<name>8068</name>
<sym>Dot</sym>
</trkpt>
<trkpt lat="47.681280" lon="15.905143">
<ele>499.0</ele>
<desc>Speed 102 km/h Distance 156 km</desc>
<time>2012-09-18T18:13:24.25</time>
<name>8069</name>
<sym>Dot</sym>
</trkpt>
<trkpt lat="47.681352" lon="15.905503">
<ele>499.0</ele>
<desc>Speed 101 km/h Distance 156 km</desc>
<time>2012-09-18T18:13:25.25</time>
<name>8070</name>
<sym>Dot</sym>
</trkpt>
<trkpt lat="47.681410" lon="15.905857">
<ele>499.0</ele>
<desc>Speed 98.4 km/h Distance 156 km</desc>
<time>2012-09-18T18:13:26.25</time>
<name>8071</name>
<sym>Dot</sym>
</trkpt>
<trkpt lat="47.681450" lon="15.906210">
<ele>498.5</ele>
<desc>Speed 96.5 km/h Distance 156 km</desc>
<time>2012-09-18T18:13:27.24</time>
<name>8072</name>
<sym>Dot</sym>
</trkpt>
<trkpt lat="47.681470" lon="15.906560">
<ele>498.5</ele>
<desc>Speed 95.0 km/h Distance 156 km</desc>
<time>2012-09-18T18:13:28.23</time>
<name>8073</name>
<sym>Dot</sym>
</trkpt>
<trkpt lat="47.681462" lon="15.906912">
<ele>498.0</ele>
<desc>Speed 95.3 km/h Distance 156 km</desc>
<time>2012-09-18T18:13:29.23</time>
<name>8074</name>
<sym>Dot</sym>
</trkpt>
<trkpt lat="47.681433" lon="15.907263">
<ele>497.0</ele>
<desc>Speed 95.6 km/h Distance 156 km</desc>
<time>2012-09-18T18:13:30.22</time>
<name>8075</name>
<sym>Dot</sym>
</trkpt>
<trkpt lat="47.681382" lon="15.907602">
<ele>497.5</ele>
<desc>Speed 93.7 km/h Distance 156 km</desc>
<time>2012-09-18T18:13:31.29</time>
<name>8076</name>
<sym>Dot</sym>
</trkpt>
<trkpt lat="47.681305" lon="15.907938">
<ele>498.5</ele>
<desc>Speed 95.7 km/h Distance 156 km</desc>
<time>2012-09-18T18:13:32.21</time>
<name>8077</name>
<sym>Dot</sym>
</trkpt>
<trkpt lat="47.681223" lon="15.908280">
<ele>499.0</ele>
<desc>Speed 98.3 km/h Distance 156 km</desc>
<time>2012-09-18T18:13:33.21</time>
<name>8078</name>
<sym>Dot</sym>
</trkpt>
<trkpt lat="47.681125" lon="15.908633">
<ele>499.0</ele>
<desc>Speed 104 km/h Distance 156 km</desc>
<time>2012-09-18T18:13:34.20</time>
<name>8079</name>
<sym>Dot</sym>
</trkpt>
<trkpt lat="47.681018" lon="15.908998">
<ele>498.5</ele>
<desc>Speed 107 km/h Distance 156 km</desc>
<time>2012-09-18T18:13:35.20</time>
<name>8080</name>
<sym>Dot</sym>
</trkpt>
<trkpt lat="47.680915" lon="15.909367">
<ele>498.5</ele>
<desc>Speed 108 km/h Distance 156 km</desc>
<time>2012-09-18T18:13:36.19</time>
<name>8081</name>
<sym>Dot</sym>
</trkpt>
<trkpt lat="47.680817" lon="15.909738">
<ele>498.5</ele>
<desc>Speed 108 km/h Distance 156 km</desc>
<time>2012-09-18T18:13:37.18</time>
<name>8082</name>
<sym>Dot</sym>
</trkpt>
<trkpt lat="47.680728" lon="15.910112">
<ele>498.5</ele>
<desc>Speed 107 km/h Distance 156 km</desc>
<time>2012-09-18T18:13:38.17</time>
<name>8083</name>
<sym>Dot</sym>
</trkpt>
<trkpt lat="47.680647" lon="15.910482">
<ele>498.0</ele>
<desc>Speed 105 km/h Distance 156 km</desc>
<time>2012-09-18T18:13:39.24</time>
<name>8084</name>
<sym>Dot</sym>
</trkpt>
<trkpt lat="47.680573" lon="15.910848">
<ele>498.0</ele>
<desc>Speed 103 km/h Distance 156 km</desc>
<time>2012-09-18T18:13:40.16</time>
<name>8085</name>
<sym>Dot</sym>
</trkpt>
<trkpt lat="47.680512" lon="15.911212">
<ele>497.5</ele>
<desc>Speed 102 km/h Distance 156 km</desc>
<time>2012-09-18T18:13:41.15</time>
<name>8086</name>
<sym>Dot</sym>
</trkpt>
<trkpt lat="47.680457" lon="15.911575">
<ele>497.5</ele>
<desc>Speed 101 km/h Distance 156 km</desc>
<time>2012-09-18T18:13:42.14</time>
<name>8087</name>
<sym>Dot</sym>
</trkpt>
<trkpt lat="47.680405" lon="15.911938">
<ele>497.5</ele>
<desc>Speed 101 km/h Distance 156 km</desc>
<time>2012-09-18T18:13:43.14</time>
<name>8088</name>
<sym>Dot</sym>
</trkpt>
<trkpt lat="47.680357" lon="15.912307">
<ele>497.5</ele>
<desc>Speed 102 km/h Distance 157 km</desc>
<time>2012-09-18T18:13:44.14</time>
<name>8089</name>
<sym>Dot</sym>
</trkpt>
<trkpt lat="47.680315" lon="15.912682">
<ele>497.5</ele>
<desc>Speed 103 km/h Distance 157 km</desc>
<time>2012-09-18T18:13:45.13</time>
<name>8090</name>
<sym>Dot</sym>
</trkpt>
<trkpt lat="47.680283" lon="15.913062">
<ele>497.5</ele>
<desc>Speed 104 km/h Distance 157 km</desc>
<time>2012-09-18T18:13:46.13</time>
<name>8091</name>
<sym>Dot</sym>
</trkpt>
<trkpt lat="47.680262" lon="15.913450">
<ele>497.5</ele>
<desc>Speed 105 km/h Distance 157 km</desc>
<time>2012-09-18T18:13:47.23</time>
<name>8092</name>
<sym>Dot</sym>
</trkpt>
<trkpt lat="47.680247" lon="15.913835">
<ele>497.5</ele>
<desc>Speed 105 km/h Distance 157 km</desc>
<time>2012-09-18T18:13:48.11</time>
<name>8093</name>
<sym>Dot</sym>
</trkpt>
<trkpt lat="47.680238" lon="15.914205">
<ele>497.5</ele>
<desc>Speed 100 km/h Distance 157 km</desc>
<time>2012-09-18T18:13:49.11</time>
<name>8094</name>
<sym>Dot</sym>
</trkpt>
<trkpt lat="47.680237" lon="15.914565">
<ele>497.5</ele>
<desc>Speed 97.8 km/h Distance 157 km</desc>
<time>2012-09-18T18:13:50.11</time>
<name>8095</name>
<sym>Dot</sym>
</trkpt>
<trkpt lat="47.680248" lon="15.914918">
<ele>497.5</ele>
<desc>Speed 95.6 km/h Distance 157 km</desc>
<time>2012-09-18T18:13:51.11</time>
<name>8096</name>
<sym>Dot</sym>
</trkpt>
<trkpt lat="47.680287" lon="15.915252">
<ele>498.0</ele>
<desc>Speed 91.6 km/h Distance 157 km</desc>
<time>2012-09-18T18:13:52.10</time>
<name>8097</name>
<sym>Dot</sym>
</trkpt>
<trkpt lat="47.680332" lon="15.915582">
<ele>498.0</ele>
<desc>Speed 91.4 km/h Distance 157 km</desc>
<time>2012-09-18T18:13:53.10</time>
<name>8098</name>
<sym>Dot</sym>
</trkpt>
<trkpt lat="47.680398" lon="15.915908">
<ele>498.0</ele>
<desc>Speed 92.1 km/h Distance 157 km</desc>
<time>2012-09-18T18:13:54.09</time>
<name>8099</name>
<sym>Dot</sym>
</trkpt>
<trkpt lat="47.680480" lon="15.916228">
<ele>498.5</ele>
<desc>Speed 92.6 km/h Distance 157 km</desc>
<time>2012-09-18T18:13:55.08</time>
<name>8100</name>
<sym>Dot</sym>
</trkpt>
<trkpt lat="47.680580" lon="15.916538">
<ele>498.0</ele>
<desc>Speed 93.3 km/h Distance 157 km</desc>
<time>2012-09-18T18:13:56.18</time>
<name>8101</name>
<sym>Dot</sym>
</trkpt>
<trkpt lat="47.680698" lon="15.916835">
<ele>498.5</ele>
<desc>Speed 93.1 km/h Distance 157 km</desc>
<time>2012-09-18T18:13:57.08</time>
<name>8102</name>
<sym>Dot</sym>
</trkpt>
<trkpt lat="47.680830" lon="15.917122">
<ele>498.5</ele>
<desc>Speed 94.2 km/h Distance 157 km</desc>
<time>2012-09-18T18:13:58.08</time>
<name>8103</name>
<sym>Dot</sym>
</trkpt>
<trkpt lat="47.680967" lon="15.917395">
<ele>498.0</ele>
<desc>Speed 92.1 km/h Distance 157 km</desc>
<time>2012-09-18T18:13:59.07</time>
<name>8104</name>
<sym>Dot</sym>
</trkpt>
<trkpt lat="47.681095" lon="15.917655">
<ele>498.0</ele>
<desc>Speed 87.2 km/h Distance 157 km</desc>
<time>2012-09-18T18:14:00.07</time>
<name>8105</name>
<sym>Dot</sym>
</trkpt>
<trkpt lat="47.681215" lon="15.917907">
<ele>498.0</ele>
<desc>Speed 83.3 km/h Distance 157 km</desc>
<time>2012-09-18T18:14:01.06</time>
<name>8106</name>
<sym>Dot</sym>
</trkpt>
<trkpt lat="47.681327" lon="15.918153">
<ele>497.5</ele>
<desc>Speed 80.6 km/h Distance 157 km</desc>
<time>2012-09-18T18:14:02.06</time>
<name>8107</name>
<sym>Dot</sym>
</trkpt>
<trkpt lat="47.681433" lon="15.918408">
<ele>497.0</ele>
<desc>Speed 81.3 km/h Distance 157 km</desc>
<time>2012-09-18T18:14:03.05</time>
<name>8108</name>
<sym>Dot</sym>
</trkpt>
<trkpt lat="47.681528" lon="15.918670">
<ele>497.0</ele>
<desc>Speed 80.3 km/h Distance 157 km</desc>
<time>2012-09-18T18:14:04.05</time>
<name>8109</name>
<sym>Dot</sym>
</trkpt>
<trkpt lat="47.681608" lon="15.918928">
<ele>496.5</ele>
<desc>Speed 76.6 km/h Distance 157 km</desc>
<time>2012-09-18T18:14:05.16</time>
<name>8110</name>
<sym>Dot</sym>
</trkpt>
<trkpt lat="47.681665" lon="15.919173">
<ele>497.0</ele>
<desc>Speed 69.9 km/h Distance 157 km</desc>
<time>2012-09-18T18:14:06.04</time>
<name>8111</name>
<sym>Dot</sym>
</trkpt>
<trkpt lat="47.681707" lon="15.919427">
<ele>497.0</ele>
<desc>Speed 70.6 km/h Distance 157 km</desc>
<time>2012-09-18T18:14:07.03</time>
<name>8112</name>
<sym>Dot</sym>
</trkpt>
<trkpt lat="47.681733" lon="15.919690">
<ele>496.5</ele>
<desc>Speed 71.5 km/h Distance 157 km</desc>
<time>2012-09-18T18:14:08.03</time>
<name>8113</name>
<sym>Dot</sym>
</trkpt>
<trkpt lat="47.681747" lon="15.919957">
<ele>496.5</ele>
<desc>Speed 72.4 km/h Distance 157 km</desc>
<time>2012-09-18T18:14:09.02</time>
<name>8114</name>
<sym>Dot</sym>
</trkpt>
<trkpt lat="47.681748" lon="15.920218">
<ele>496.0</ele>
<desc>Speed 70.6 km/h Distance 157 km</desc>
<time>2012-09-18T18:14:10.02</time>
<name>8115</name>
<sym>Dot</sym>
</trkpt>
<trkpt lat="47.681727" lon="15.920488">
<ele>495.5</ele>
<desc>Speed 73.1 km/h Distance 157 km</desc>
<time>2012-09-18T18:14:11.01</time>
<name>8116</name>
<sym>Dot</sym>
</trkpt>
<trkpt lat="47.681698" lon="15.920757">
<ele>495.0</ele>
<desc>Speed 73.3 km/h Distance 157 km</desc>
<time>2012-09-18T18:14:12.01</time>
<name>8117</name>
<sym>Dot</sym>
</trkpt>
<trkpt lat="47.681648" lon="15.921025">
<ele>494.0</ele>
<desc>Speed 74.9 km/h Distance 157 km</desc>
<time>2012-09-18T18:14:13.00</time>
<name>8118</name>
<sym>Dot</sym>
</trkpt>
<trkpt lat="47.681575" lon="15.921282">
<ele>495.0</ele>
<desc>Speed 75.2 km/h Distance 157 km</desc>
<time>2012-09-18T18:14:14.11</time>
<name>8119</name>
<sym>Dot</sym>
</trkpt>
<trkpt lat="47.681495" lon="15.921542">
<ele>494.5</ele>
<desc>Speed 77.0 km/h Distance 157 km</desc>
<time>2012-09-18T18:14:14.99</time>
<name>8120</name>
<sym>Dot</sym>
</trkpt>
<trkpt lat="47.681397" lon="15.921785">
<ele>495.5</ele>
<desc>Speed 76.3 km/h Distance 157 km</desc>
<time>2012-09-18T18:14:15.99</time>
<name>8121</name>
<sym>Dot</sym>
</trkpt>
<trkpt lat="47.681285" lon="15.922030">
<ele>495.5</ele>
<desc>Speed 79.7 km/h Distance 157 km</desc>
<time>2012-09-18T18:14:16.99</time>
<name>8122</name>
<sym>Dot</sym>
</trkpt>
<trkpt lat="47.681167" lon="15.922257">
<ele>494.0</ele>
<desc>Speed 77.9 km/h Distance 157 km</desc>
<time>2012-09-18T18:14:17.99</time>
<name>8123</name>
<sym>Dot</sym>
</trkpt>
<trkpt lat="47.681030" lon="15.922477">
<ele>495.5</ele>
<desc>Speed 80.8 km/h Distance 157 km</desc>
<time>2012-09-18T18:14:18.97</time>
<name>8124</name>
<sym>Dot</sym>
</trkpt>
<trkpt lat="47.680893" lon="15.922687">
<ele>495.0</ele>
<desc>Speed 79.0 km/h Distance 157 km</desc>
<time>2012-09-18T18:14:19.97</time>
<name>8125</name>
<sym>Dot</sym>
</trkpt>
<trkpt lat="47.680752" lon="15.922888">
<ele>494.5</ele>
<desc>Speed 79.2 km/h Distance 157 km</desc>
<time>2012-09-18T18:14:20.96</time>
<name>8126</name>
<sym>Dot</sym>
</trkpt>
<trkpt lat="47.680605" lon="15.923083">
<ele>494.5</ele>
<desc>Speed 79.1 km/h Distance 157 km</desc>
<time>2012-09-18T18:14:21.95</time>
<name>8127</name>
<sym>Dot</sym>
</trkpt>
<trkpt lat="47.680453" lon="15.923265">
<ele>494.0</ele>
<desc>Speed 78.7 km/h Distance 157 km</desc>
<time>2012-09-18T18:14:23.04</time>
<name>8128</name>
<sym>Dot</sym>
</trkpt>
<trkpt lat="47.680298" lon="15.923438">
<ele>494.0</ele>
<desc>Speed 78.4 km/h Distance 157 km</desc>
<time>2012-09-18T18:14:23.95</time>
<name>8129</name>
<sym>Dot</sym>
</trkpt>
<trkpt lat="47.680138" lon="15.923602">
<ele>493.5</ele>
<desc>Speed 77.8 km/h Distance 157 km</desc>
<time>2012-09-18T18:14:24.94</time>
<name>8130</name>
<sym>Dot</sym>
</trkpt>
<trkpt lat="47.679978" lon="15.923750">
<ele>493.5</ele>
<desc>Speed 75.9 km/h Distance 157 km</desc>
<time>2012-09-18T18:14:25.94</time>
<name>8131</name>
<sym>Dot</sym>
</trkpt>
<trkpt lat="47.679817" lon="15.923895">
<ele>493.0</ele>
<desc>Speed 76.1 km/h Distance 158 km</desc>
<time>2012-09-18T18:14:26.94</time>
<name>8132</name>
<sym>Dot</sym>
</trkpt>
<trkpt lat="47.679657" lon="15.924030">
<ele>493.0</ele>
<desc>Speed 73.5 km/h Distance 158 km</desc>
<time>2012-09-18T18:14:27.94</time>
<name>8133</name>
<sym>Dot</sym>
</trkpt>
<trkpt lat="47.679507" lon="15.924158">
<ele>492.5</ele>
<desc>Speed 69.9 km/h Distance 158 km</desc>
<time>2012-09-18T18:14:28.93</time>
<name>8134</name>
<sym>Dot</sym>
</trkpt>
<trkpt lat="47.679363" lon="15.924277">
<ele>493.0</ele>
<desc>Speed 66.6 km/h Distance 158 km</desc>
<time>2012-09-18T18:14:29.93</time>
<name>8135</name>
<sym>Dot</sym>
</trkpt>
<trkpt lat="47.679225" lon="15.924382">
<ele>493.0</ele>
<desc>Speed 62.9 km/h Distance 158 km</desc>
<time>2012-09-18T18:14:31.00</time>
<name>8136</name>
<sym>Dot</sym>
</trkpt>
<trkpt lat="47.679090" lon="15.924475">
<ele>493.0</ele>
<desc>Speed 60.3 km/h Distance 158 km</desc>
<time>2012-09-18T18:14:31.92</time>
<name>8137</name>
<sym>Dot</sym>
</trkpt>
<trkpt lat="47.678953" lon="15.924555">
<ele>492.5</ele>
<desc>Speed 59.2 km/h Distance 158 km</desc>
<time>2012-09-18T18:14:32.91</time>
<name>8138</name>
<sym>Dot</sym>
</trkpt>
<trkpt lat="47.678815" lon="15.924627">
<ele>492.5</ele>
<desc>Speed 59.1 km/h Distance 158 km</desc>
<time>2012-09-18T18:14:33.91</time>
<name>8139</name>
<sym>Dot</sym>
</trkpt>
<trkpt lat="47.678675" lon="15.924685">
<ele>492.0</ele>
<desc>Speed 59.1 km/h Distance 158 km</desc>
<time>2012-09-18T18:14:34.91</time>
<name>8140</name>
<sym>Dot</sym>
</trkpt>
<trkpt lat="47.678530" lon="15.924738">
<ele>492.0</ele>
<desc>Speed 60.0 km/h Distance 158 km</desc>
<time>2012-09-18T18:14:35.90</time>
<name>8141</name>
<sym>Dot</sym>
</trkpt>
<trkpt lat="47.678387" lon="15.924788">
<ele>492.0</ele>
<desc>Speed 59.5 km/h Distance 158 km</desc>
<time>2012-09-18T18:14:36.89</time>
<name>8142</name>
<sym>Dot</sym>
</trkpt>
<trkpt lat="47.678243" lon="15.924835">
<ele>492.0</ele>
<desc>Speed 59.5 km/h Distance 158 km</desc>
<time>2012-09-18T18:14:37.89</time>
<name>8143</name>
<sym>Dot</sym>
</trkpt>
<trkpt lat="47.678098" lon="15.924882">
<ele>491.5</ele>
<desc>Speed 59.9 km/h Distance 158 km</desc>
<time>2012-09-18T18:14:38.88</time>
<name>8144</name>
<sym>Dot</sym>
</trkpt>
<trkpt lat="47.677957" lon="15.924928">
<ele>491.5</ele>
<desc>Speed 59.0 km/h Distance 158 km</desc>
<time>2012-09-18T18:14:39.97</time>
<name>8145</name>
<sym>Dot</sym>
</trkpt>
<trkpt lat="47.677815" lon="15.924975">
<ele>491.5</ele>
<desc>Speed 58.4 km/h Distance 158 km</desc>
<time>2012-09-18T18:14:40.88</time>
<name>8146</name>
<sym>Dot</sym>
</trkpt>
<trkpt lat="47.677675" lon="15.925020">
<ele>491.5</ele>
<desc>Speed 57.3 km/h Distance 158 km</desc>
<time>2012-09-18T18:14:41.87</time>
<name>8147</name>
<sym>Dot</sym>
</trkpt>
<trkpt lat="47.677540" lon="15.925063">
<ele>491.5</ele>
<desc>Speed 56.2 km/h Distance 158 km</desc>
<time>2012-09-18T18:14:42.87</time>
<name>8148</name>
<sym>Dot</sym>
</trkpt>
<trkpt lat="47.677405" lon="15.925107">
<ele>491.5</ele>
<desc>Speed 55.2 km/h Distance 158 km</desc>
<time>2012-09-18T18:14:43.86</time>
<name>8149</name>
<sym>Dot</sym>
</trkpt>
<trkpt lat="47.677273" lon="15.925147">
<ele>491.5</ele>
<desc>Speed 54.1 km/h Distance 158 km</desc>
<time>2012-09-18T18:14:44.86</time>
<name>8150</name>
<sym>Dot</sym>
</trkpt>
<trkpt lat="47.677143" lon="15.925188">
<ele>491.0</ele>
<desc>Speed 53.6 km/h Distance 158 km</desc>
<time>2012-09-18T18:14:45.85</time>
<name>8151</name>
<sym>Dot</sym>
</trkpt>
<trkpt lat="47.677013" lon="15.925228">
<ele>491.0</ele>
<desc>Speed 53.2 km/h Distance 158 km</desc>
<time>2012-09-18T18:14:46.85</time>
<name>8152</name>
<sym>Dot</sym>
</trkpt>
<trkpt lat="47.676885" lon="15.925270">
<ele>491.0</ele>
<desc>Speed 53.0 km/h Distance 158 km</desc>
<time>2012-09-18T18:14:47.88</time>
<name>8153</name>
<sym>Dot</sym>
</trkpt>
<trkpt lat="47.676760" lon="15.925322">
<ele>491.5</ele>
<desc>Speed 52.1 km/h Distance 158 km</desc>
<time>2012-09-18T18:14:48.83</time>
<name>8154</name>
<sym>Dot</sym>
</trkpt>
<trkpt lat="47.676637" lon="15.925385">
<ele>491.5</ele>
<desc>Speed 52.0 km/h Distance 158 km</desc>
<time>2012-09-18T18:14:49.83</time>
<name>8155</name>
<sym>Dot</sym>
</trkpt>
<trkpt lat="47.676515" lon="15.925455">
<ele>491.5</ele>
<desc>Speed 52.1 km/h Distance 158 km</desc>
<time>2012-09-18T18:14:50.82</time>
<name>8156</name>
<sym>Dot</sym>
</trkpt>
<trkpt lat="47.676397" lon="15.925535">
<ele>492.0</ele>
<desc>Speed 52.2 km/h Distance 158 km</desc>
<time>2012-09-18T18:14:51.82</time>
<name>8157</name>
<sym>Dot</sym>
</trkpt>
<trkpt lat="47.676280" lon="15.925625">
<ele>492.0</ele>
<desc>Speed 52.8 km/h Distance 158 km</desc>
<time>2012-09-18T18:14:52.82</time>
<name>8158</name>
<sym>Dot</sym>
</trkpt>
<trkpt lat="47.676167" lon="15.925725">
<ele>492.0</ele>
<desc>Speed 53.5 km/h Distance 158 km</desc>
<time>2012-09-18T18:14:53.81</time>
<name>8159</name>
<sym>Dot</sym>
</trkpt>
<trkpt lat="47.676053" lon="15.925835">
<ele>492.0</ele>
<desc>Speed 54.1 km/h Distance 158 km</desc>
<time>2012-09-18T18:14:54.81</time>
<name>8160</name>
<sym>Dot</sym>
</trkpt>
<trkpt lat="47.675942" lon="15.925953">
<ele>492.5</ele>
<desc>Speed 55.2 km/h Distance 158 km</desc>
<time>2012-09-18T18:14:55.85</time>
<name>8161</name>
<sym>Dot</sym>
</trkpt>
<trkpt lat="47.675830" lon="15.926078">
<ele>492.5</ele>
<desc>Speed 56.6 km/h Distance 158 km</desc>
<time>2012-09-18T18:14:56.79</time>
<name>8162</name>
<sym>Dot</sym>
</trkpt>
<trkpt lat="47.675717" lon="15.926205">
<ele>492.5</ele>
<desc>Speed 56.7 km/h Distance 158 km</desc>
<time>2012-09-18T18:14:57.78</time>
<name>8163</name>
<sym>Dot</sym>
</trkpt>
<trkpt lat="47.675605" lon="15.926332">
<ele>492.0</ele>
<desc>Speed 56.6 km/h Distance 158 km</desc>
<time>2012-09-18T18:14:58.83</time>
<name>8164</name>
<sym>Dot</sym>
</trkpt>
<trkpt lat="47.675497" lon="15.926465">
<ele>492.0</ele>
<desc>Speed 56.8 km/h Distance 158 km</desc>
<time>2012-09-18T18:14:59.77</time>
<name>8165</name>
<sym>Dot</sym>
</trkpt>
<trkpt lat="47.675395" lon="15.926610">
<ele>492.0</ele>
<desc>Speed 56.2 km/h Distance 158 km</desc>
<time>2012-09-18T18:15:00.77</time>
<name>8166</name>
<sym>Dot</sym>
</trkpt>
<trkpt lat="47.675302" lon="15.926763">
<ele>492.0</ele>
<desc>Speed 56.2 km/h Distance 158 km</desc>
<time>2012-09-18T18:15:01.76</time>
<name>8167</name>
<sym>Dot</sym>
</trkpt>
<trkpt lat="47.675210" lon="15.926925">
<ele>492.0</ele>
<desc>Speed 56.7 km/h Distance 158 km</desc>
<time>2012-09-18T18:15:02.76</time>
<name>8168</name>
<sym>Dot</sym>
</trkpt>
<trkpt lat="47.675125" lon="15.927095">
<ele>492.0</ele>
<desc>Speed 56.8 km/h Distance 158 km</desc>
<time>2012-09-18T18:15:03.75</time>
<name>8169</name>
<sym>Dot</sym>
</trkpt>
<trkpt lat="47.675045" lon="15.927278">
<ele>492.0</ele>
<desc>Speed 58.8 km/h Distance 158 km</desc>
<time>2012-09-18T18:15:04.82</time>
<name>8170</name>
<sym>Dot</sym>
</trkpt>
<trkpt lat="47.674970" lon="15.927480">
<ele>492.5</ele>
<desc>Speed 62.6 km/h Distance 158 km</desc>
<time>2012-09-18T18:15:05.74</time>
<name>8171</name>
<sym>Dot</sym>
</trkpt>
<trkpt lat="47.674905" lon="15.927687">
<ele>493.0</ele>
<desc>Speed 61.2 km/h Distance 158 km</desc>
<time>2012-09-18T18:15:06.75</time>
<name>8172</name>
<sym>Dot</sym>
</trkpt>
<trkpt lat="47.674858" lon="15.927883">
<ele>494.0</ele>
<desc>Speed 56.3 km/h Distance 158 km</desc>
<time>2012-09-18T18:15:07.73</time>
<name>8173</name>
<sym>Dot</sym>
</trkpt>
<trkpt lat="47.674817" lon="15.928075">
<ele>494.5</ele>
<desc>Speed 54.2 km/h Distance 158 km</desc>
<time>2012-09-18T18:15:08.73</time>
<name>8174</name>
<sym>Dot</sym>
</trkpt>
<trkpt lat="47.674777" lon="15.928263">
<ele>495.0</ele>
<desc>Speed 53.7 km/h Distance 158 km</desc>
<time>2012-09-18T18:15:09.72</time>
<name>8175</name>
<sym>Dot</sym>
</trkpt>
<trkpt lat="47.674738" lon="15.928452">
<ele>495.5</ele>
<desc>Speed 53.1 km/h Distance 158 km</desc>
<time>2012-09-18T18:15:10.71</time>
<name>8176</name>
<sym>Dot</sym>
</trkpt>
<trkpt lat="47.674702" lon="15.928635">
<ele>496.0</ele>
<desc>Speed 51.7 km/h Distance 158 km</desc>
<time>2012-09-18T18:15:11.71</time>
<name>8177</name>
<sym>Dot</sym>
</trkpt>
<trkpt lat="47.674650" lon="15.928813">
<ele>496.0</ele>
<desc>Speed 52.8 km/h Distance 158 km</desc>
<time>2012-09-18T18:15:12.71</time>
<name>8178</name>
<sym>Dot</sym>
</trkpt>
<trkpt lat="47.674580" lon="15.929145">
<ele>497.0</ele>
<desc>Speed 49.1 km/h Distance 158 km</desc>
<time>2012-09-18T18:15:14.70</time>
<name>8179</name>
<sym>Dot</sym>
</trkpt>
<trkpt lat="47.674537" lon="15.929307">
<ele>497.0</ele>
<desc>Speed 47.1 km/h Distance 158 km</desc>
<time>2012-09-18T18:15:15.69</time>
<name>8180</name>
<sym>Dot</sym>
</trkpt>
<trkpt lat="47.674490" lon="15.929465">
<ele>497.0</ele>
<desc>Speed 46.7 km/h Distance 158 km</desc>
<time>2012-09-18T18:15:16.70</time>
<name>8181</name>
<sym>Dot</sym>
</trkpt>
<trkpt lat="47.674440" lon="15.929617">
<ele>497.0</ele>
<desc>Speed 46.2 km/h Distance 158 km</desc>
<time>2012-09-18T18:15:17.69</time>
<name>8182</name>
<sym>Dot</sym>
</trkpt>
<trkpt lat="47.674380" lon="15.929762">
<ele>497.0</ele>
<desc>Speed 46.2 km/h Distance 158 km</desc>
<time>2012-09-18T18:15:18.69</time>
<name>8183</name>
<sym>Dot</sym>
</trkpt>
<trkpt lat="47.674317" lon="15.929900">
<ele>497.0</ele>
<desc>Speed 45.3 km/h Distance 158 km</desc>
<time>2012-09-18T18:15:19.68</time>
<name>8184</name>
<sym>Dot</sym>
</trkpt>
<trkpt lat="47.674248" lon="15.930035">
<ele>496.0</ele>
<desc>Speed 45.9 km/h Distance 158 km</desc>
<time>2012-09-18T18:15:20.68</time>
<name>8185</name>
<sym>Dot</sym>
</trkpt>
<trkpt lat="47.674173" lon="15.930175">
<ele>495.5</ele>
<desc>Speed 48.5 km/h Distance 158 km</desc>
<time>2012-09-18T18:15:21.76</time>
<name>8186</name>
<sym>Dot</sym>
</trkpt>
<trkpt lat="47.674100" lon="15.930313">
<ele>495.0</ele>
<desc>Speed 47.6 km/h Distance 158 km</desc>
<time>2012-09-18T18:15:22.67</time>
<name>8187</name>
<sym>Dot</sym>
</trkpt>
<trkpt lat="47.674030" lon="15.930445">
<ele>494.5</ele>
<desc>Speed 46.0 km/h Distance 158 km</desc>
<time>2012-09-18T18:15:23.66</time>
<name>8188</name>
<sym>Dot</sym>
</trkpt>
<trkpt lat="47.673960" lon="15.930573">
<ele>494.0</ele>
<desc>Speed 44.4 km/h Distance 158 km</desc>
<time>2012-09-18T18:15:24.66</time>
<name>8189</name>
<sym>Dot</sym>
</trkpt>
<trkpt lat="47.673903" lon="15.930697">
<ele>493.5</ele>
<desc>Speed 40.1 km/h Distance 158 km</desc>
<time>2012-09-18T18:15:25.66</time>
<name>8190</name>
<sym>Dot</sym>
</trkpt>
<trkpt lat="47.673863" lon="15.930807">
<ele>495.0</ele>
<desc>Speed 34.3 km/h Distance 158 km</desc>
<time>2012-09-18T18:15:26.66</time>
<name>8191</name>
<sym>Dot</sym>
</trkpt>
<trkpt lat="47.673820" lon="15.930898">
<ele>495.0</ele>
<desc>Speed 30.5 km/h Distance 158 km</desc>
<time>2012-09-18T18:15:27.66</time>
<name>8192</name>
<sym>Dot</sym>
</trkpt>
<trkpt lat="47.673773" lon="15.930972">
<ele>495.0</ele>
<desc>Speed 27.5 km/h Distance 158 km</desc>
<time>2012-09-18T18:15:28.65</time>
<name>8193</name>
<sym>Dot</sym>
</trkpt>
<trkpt lat="47.673713" lon="15.931018">
<ele>496.5</ele>
<desc>Speed 27.5 km/h Distance 158 km</desc>
<time>2012-09-18T18:15:29.68</time>
<name>8194</name>
<sym>Dot</sym>
</trkpt>
<trkpt lat="47.673645" lon="15.931033">
<ele>497.0</ele>
<desc>Speed 27.5 km/h Distance 158 km</desc>
<time>2012-09-18T18:15:30.64</time>
<name>8195</name>
<sym>Dot</sym>
</trkpt>
<trkpt lat="47.673565" lon="15.931013">
<ele>497.5</ele>
<desc>Speed 32.8 km/h Distance 158 km</desc>
<time>2012-09-18T18:15:31.64</time>
<name>8196</name>
<sym>Dot</sym>
</trkpt>
<trkpt lat="47.673475" lon="15.930972">
<ele>497.5</ele>
<desc>Speed 38.3 km/h Distance 158 km</desc>
<time>2012-09-18T18:15:32.63</time>
<name>8197</name>
<sym>Dot</sym>
</trkpt>
<trkpt lat="47.673387" lon="15.930932">
<ele>497.5</ele>
<desc>Speed 37.5 km/h Distance 158 km</desc>
<time>2012-09-18T18:15:33.63</time>
<name>8198</name>
<sym>Dot</sym>
</trkpt>
<trkpt lat="47.673303" lon="15.930892">
<ele>497.5</ele>
<desc>Speed 35.0 km/h Distance 158 km</desc>
<time>2012-09-18T18:15:34.63</time>
<name>8199</name>
<sym>Dot</sym>
</trkpt>
<trkpt lat="47.673218" lon="15.930858">
<ele>498.0</ele>
<desc>Speed 35.7 km/h Distance 158 km</desc>
<time>2012-09-18T18:15:35.62</time>
<name>8200</name>
<sym>Dot</sym>
</trkpt>
<trkpt lat="47.673130" lon="15.930833">
<ele>499.0</ele>
<desc>Speed 37.1 km/h Distance 159 km</desc>
<time>2012-09-18T18:15:36.62</time>
<name>8201</name>
<sym>Dot</sym>
</trkpt>
<trkpt lat="47.673035" lon="15.930822">
<ele>499.5</ele>
<desc>Speed 38.4 km/h Distance 159 km</desc>
<time>2012-09-18T18:15:37.70</time>
<name>8202</name>
<sym>Dot</sym>
</trkpt>
<trkpt lat="47.672933" lon="15.930830">
<ele>500.0</ele>
<desc>Speed 41.6 km/h Distance 159 km</desc>
<time>2012-09-18T18:15:38.60</time>
<name>8203</name>
<sym>Dot</sym>
</trkpt>
<trkpt lat="47.672820" lon="15.930862">
<ele>500.5</ele>
<desc>Speed 46.9 km/h Distance 159 km</desc>
<time>2012-09-18T18:15:39.60</time>
<name>8204</name>
<sym>Dot</sym>
</trkpt>
<trkpt lat="47.672705" lon="15.930902">
<ele>501.0</ele>
<desc>Speed 48.3 km/h Distance 159 km</desc>
<time>2012-09-18T18:15:40.60</time>
<name>8205</name>
<sym>Dot</sym>
</trkpt>
<trkpt lat="47.672593" lon="15.930953">
<ele>501.0</ele>
<desc>Speed 46.6 km/h Distance 159 km</desc>
<time>2012-09-18T18:15:41.59</time>
<name>8206</name>
<sym>Dot</sym>
</trkpt>
<trkpt lat="47.672490" lon="15.931007">
<ele>501.0</ele>
<desc>Speed 44.3 km/h Distance 159 km</desc>
<time>2012-09-18T18:15:42.59</time>
<name>8207</name>
<sym>Dot</sym>
</trkpt>
<trkpt lat="47.672395" lon="15.931057">
<ele>500.5</ele>
<desc>Speed 40.8 km/h Distance 159 km</desc>
<time>2012-09-18T18:15:43.58</time>
<name>8208</name>
<sym>Dot</sym>
</trkpt>
<trkpt lat="47.672305" lon="15.931100">
<ele>500.5</ele>
<desc>Speed 37.9 km/h Distance 159 km</desc>
<time>2012-09-18T18:15:44.57</time>
<name>8209</name>
<sym>Dot</sym>
</trkpt>
<trkpt lat="47.672217" lon="15.931137">
<ele>500.5</ele>
<desc>Speed 36.9 km/h Distance 159 km</desc>
<time>2012-09-18T18:15:45.56</time>
<name>8210</name>
<sym>Dot</sym>
</trkpt>
<trkpt lat="47.672130" lon="15.931167">
<ele>501.0</ele>
<desc>Speed 36.0 km/h Distance 159 km</desc>
<time>2012-09-18T18:15:46.63</time>
<name>8211</name>
<sym>Dot</sym>
</trkpt>
<trkpt lat="47.672043" lon="15.931192">
<ele>501.0</ele>
<desc>Speed 35.2 km/h Distance 159 km</desc>
<time>2012-09-18T18:15:47.55</time>
<name>8212</name>
<sym>Dot</sym>
</trkpt>
<trkpt lat="47.671963" lon="15.931215">
<ele>501.0</ele>
<desc>Speed 32.7 km/h Distance 159 km</desc>
<time>2012-09-18T18:15:48.55</time>
<name>8213</name>
<sym>Dot</sym>
</trkpt>
<trkpt lat="47.671888" lon="15.931237">
<ele>501.5</ele>
<desc>Speed 30.2 km/h Distance 159 km</desc>
<time>2012-09-18T18:15:49.54</time>
<name>8214</name>
<sym>Dot</sym>
</trkpt>
<trkpt lat="47.671817" lon="15.931255">
<ele>502.0</ele>
<desc>Speed 29.0 km/h Distance 159 km</desc>
<time>2012-09-18T18:15:50.54</time>
<name>8215</name>
<sym>Dot</sym>
</trkpt>
<trkpt lat="47.671747" lon="15.931272">
<ele>502.0</ele>
<desc>Speed 28.2 km/h Distance 159 km</desc>
<time>2012-09-18T18:15:51.53</time>
<name>8216</name>
<sym>Dot</sym>
</trkpt>
<trkpt lat="47.671692" lon="15.931282">
<ele>502.5</ele>
<desc>Speed 22.1 km/h Distance 159 km</desc>
<time>2012-09-18T18:15:52.52</time>
<name>8217</name>
<sym>Dot</sym>
</trkpt>
<trkpt lat="47.671652" lon="15.931290">
<ele>502.5</ele>
<desc>Speed 15.9 km/h Distance 159 km</desc>
<time>2012-09-18T18:15:53.51</time>
<name>8218</name>
<sym>Dot</sym>
</trkpt>
<trkpt lat="47.671620" lon="15.931295">
<ele>503.0</ele>
<desc>Speed 12.6 km/h Distance 159 km</desc>
<time>2012-09-18T18:15:54.51</time>
<name>8219</name>
<sym>Dot</sym>
</trkpt>
<trkpt lat="47.671583" lon="15.931298">
<ele>503.0</ele>
<desc>Speed 14.4 km/h Distance 159 km</desc>
<time>2012-09-18T18:15:55.65</time>
<name>8220</name>
<sym>Dot</sym>
</trkpt>
<trkpt lat="47.671468" lon="15.931288">
<ele>503.0</ele>
<desc>Speed 24.0 km/h Distance 159 km</desc>
<time>2012-09-18T18:15:57.49</time>
<name>8221</name>
<sym>Dot</sym>
</trkpt>
<trkpt lat="47.671415" lon="15.931295">
<ele>503.0</ele>
<desc>Speed 21.1 km/h Distance 159 km</desc>
<time>2012-09-18T18:15:58.48</time>
<name>8222</name>
<sym>Dot</sym>
</trkpt>
<trkpt lat="47.671377" lon="15.931332">
<ele>503.0</ele>
<desc>Speed 18.1 km/h Distance 159 km</desc>
<time>2012-09-18T18:15:59.48</time>
<name>8223</name>
<sym>Dot</sym>
</trkpt>
<trkpt lat="47.671360" lon="15.931390">
<ele>503.0</ele>
<desc>Speed 16.8 km/h Distance 159 km</desc>
<time>2012-09-18T18:16:00.47</time>
<name>8224</name>
<sym>Dot</sym>
</trkpt>
<trkpt lat="47.671355" lon="15.931457">
<ele>503.0</ele>
<desc>Speed 18.2 km/h Distance 159 km</desc>
<time>2012-09-18T18:16:01.47</time>
<name>8225</name>
<sym>Dot</sym>
</trkpt>
<trkpt lat="47.671375" lon="15.931528">
<ele>502.5</ele>
<desc>Speed 21.0 km/h Distance 159 km</desc>
<time>2012-09-18T18:16:02.49</time>
<name>8226</name>
<sym>Dot</sym>
</trkpt>
<trkpt lat="47.671402" lon="15.931608">
<ele>502.5</ele>
<desc>Speed 23.9 km/h Distance 159 km</desc>
<time>2012-09-18T18:16:03.46</time>
<name>8227</name>
<sym>Dot</sym>
</trkpt>
<trkpt lat="47.671430" lon="15.931700">
<ele>502.5</ele>
<desc>Speed 27.0 km/h Distance 159 km</desc>
<time>2012-09-18T18:16:04.45</time>
<name>8228</name>
<sym>Dot</sym>
</trkpt>
<trkpt lat="47.671452" lon="15.931803">
<ele>503.0</ele>
<desc>Speed 29.2 km/h Distance 159 km</desc>
<time>2012-09-18T18:16:05.45</time>
<name>8229</name>
<sym>Dot</sym>
</trkpt>
<trkpt lat="47.671467" lon="15.931918">
<ele>503.0</ele>
<desc>Speed 31.8 km/h Distance 159 km</desc>
<time>2012-09-18T18:16:06.45</time>
<name>8230</name>
<sym>Dot</sym>
</trkpt>
<trkpt lat="47.671478" lon="15.932033">
<ele>503.0</ele>
<desc>Speed 31.1 km/h Distance 159 km</desc>
<time>2012-09-18T18:16:07.44</time>
<name>8231</name>
<sym>Dot</sym>
</trkpt>
<trkpt lat="47.671488" lon="15.932143">
<ele>502.5</ele>
<desc>Speed 30.1 km/h Distance 159 km</desc>
<time>2012-09-18T18:16:08.43</time>
<name>8232</name>
<sym>Dot</sym>
</trkpt>
<trkpt lat="47.671505" lon="15.932253">
<ele>502.5</ele>
<desc>Speed 30.6 km/h Distance 159 km</desc>
<time>2012-09-18T18:16:09.43</time>
<name>8233</name>
<sym>Dot</sym>
</trkpt>
<trkpt lat="47.671537" lon="15.932355">
<ele>502.0</ele>
<desc>Speed 30.2 km/h Distance 159 km</desc>
<time>2012-09-18T18:16:10.46</time>
<name>8234</name>
<sym>Dot</sym>
</trkpt>
<trkpt lat="47.671583" lon="15.932442">
<ele>502.0</ele>
<desc>Speed 29.8 km/h Distance 159 km</desc>
<time>2012-09-18T18:16:11.41</time>
<name>8235</name>
<sym>Dot</sym>
</trkpt>
<trkpt lat="47.671645" lon="15.932512">
<ele>501.5</ele>
<desc>Speed 31.2 km/h Distance 159 km</desc>
<time>2012-09-18T18:16:12.40</time>
<name>8236</name>
<sym>Dot</sym>
</trkpt>
<trkpt lat="47.671713" lon="15.932573">
<ele>501.0</ele>
<desc>Speed 32.1 km/h Distance 159 km</desc>
<time>2012-09-18T18:16:13.40</time>
<name>8237</name>
<sym>Dot</sym>
</trkpt>
<trkpt lat="47.671788" lon="15.932632">
<ele>501.0</ele>
<desc>Speed 34.1 km/h Distance 159 km</desc>
<time>2012-09-18T18:16:14.39</time>
<name>8238</name>
<sym>Dot</sym>
</trkpt>
<trkpt lat="47.671870" lon="15.932700">
<ele>500.5</ele>
<desc>Speed 37.9 km/h Distance 159 km</desc>
<time>2012-09-18T18:16:15.38</time>
<name>8239</name>
<sym>Dot</sym>
</trkpt>
<trkpt lat="47.671957" lon="15.932773">
<ele>500.5</ele>
<desc>Speed 39.6 km/h Distance 159 km</desc>
<time>2012-09-18T18:16:16.38</time>
<name>8240</name>
<sym>Dot</sym>
</trkpt>
<trkpt lat="47.672040" lon="15.932845">
<ele>500.0</ele>
<desc>Speed 38.8 km/h Distance 159 km</desc>
<time>2012-09-18T18:16:17.37</time>
<name>8241</name>
<sym>Dot</sym>
</trkpt>
<trkpt lat="47.672118" lon="15.932920">
<ele>500.0</ele>
<desc>Speed 37.4 km/h Distance 159 km</desc>
<time>2012-09-18T18:16:18.44</time>
<name>8242</name>
<sym>Dot</sym>
</trkpt>
<trkpt lat="47.672195" lon="15.932992">
<ele>500.0</ele>
<desc>Speed 36.5 km/h Distance 159 km</desc>
<time>2012-09-18T18:16:19.36</time>
<name>8243</name>
<sym>Dot</sym>
</trkpt>
<trkpt lat="47.672282" lon="15.933083">
<ele>498.0</ele>
<desc>Speed 43.0 km/h Distance 159 km</desc>
<time>2012-09-18T18:16:20.35</time>
<name>8244</name>
<sym>Dot</sym>
</trkpt>
<trkpt lat="47.672370" lon="15.933160">
<ele>497.0</ele>
<desc>Speed 41.2 km/h Distance 159 km</desc>
<time>2012-09-18T18:16:21.34</time>
<name>8245</name>
<sym>Dot</sym>
</trkpt>
<trkpt lat="47.672457" lon="15.933228">
<ele>497.5</ele>
<desc>Speed 39.9 km/h Distance 159 km</desc>
<time>2012-09-18T18:16:22.34</time>
<name>8246</name>
<sym>Dot</sym>
</trkpt>
<trkpt lat="47.672633" lon="15.933383">
<ele>496.5</ele>
<desc>Speed 39.7 km/h Distance 159 km</desc>
<time>2012-09-18T18:16:24.33</time>
<name>8247</name>
<sym>Dot</sym>
</trkpt>
<trkpt lat="47.672708" lon="15.933442">
<ele>497.0</ele>
<desc>Speed 36.8 km/h Distance 159 km</desc>
<time>2012-09-18T18:16:25.33</time>
<name>8248</name>
<sym>Dot</sym>
</trkpt>
<trkpt lat="47.672790" lon="15.933507">
<ele>497.0</ele>
<desc>Speed 37.5 km/h Distance 159 km</desc>
<time>2012-09-18T18:16:26.38</time>
<name>8249</name>
<sym>Dot</sym>
</trkpt>
<trkpt lat="47.672877" lon="15.933568">
<ele>497.5</ele>
<desc>Speed 39.9 km/h Distance 159 km</desc>
<time>2012-09-18T18:16:27.31</time>
<name>8250</name>
<sym>Dot</sym>
</trkpt>
<trkpt lat="47.672968" lon="15.933633">
<ele>497.5</ele>
<desc>Speed 41.4 km/h Distance 159 km</desc>
<time>2012-09-18T18:16:28.31</time>
<name>8251</name>
<sym>Dot</sym>
</trkpt>
<trkpt lat="47.673057" lon="15.933697">
<ele>498.0</ele>
<desc>Speed 41.3 km/h Distance 159 km</desc>
<time>2012-09-18T18:16:29.31</time>
<name>8252</name>
<sym>Dot</sym>
</trkpt>
<trkpt lat="47.673142" lon="15.933763">
<ele>497.5</ele>
<desc>Speed 41.1 km/h Distance 159 km</desc>
<time>2012-09-18T18:16:30.30</time>
<name>8253</name>
<sym>Dot</sym>
</trkpt>
<trkpt lat="47.673227" lon="15.933830">
<ele>497.5</ele>
<desc>Speed 40.7 km/h Distance 159 km</desc>
<time>2012-09-18T18:16:31.30</time>
<name>8254</name>
<sym>Dot</sym>
</trkpt>
<trkpt lat="47.673313" lon="15.933902">
<ele>497.5</ele>
<desc>Speed 40.1 km/h Distance 159 km</desc>
<time>2012-09-18T18:16:32.29</time>
<name>8255</name>
<sym>Dot</sym>
</trkpt>
<trkpt lat="47.673400" lon="15.933972">
<ele>497.5</ele>
<desc>Speed 39.8 km/h Distance 159 km</desc>
<time>2012-09-18T18:16:33.28</time>
<name>8256</name>
<sym>Dot</sym>
</trkpt>
<trkpt lat="47.673483" lon="15.934040">
<ele>497.0</ele>
<desc>Speed 38.3 km/h Distance 159 km</desc>
<time>2012-09-18T18:16:34.28</time>
<name>8257</name>
<sym>Dot</sym>
</trkpt>
<trkpt lat="47.673565" lon="15.934112">
<ele>497.0</ele>
<desc>Speed 38.6 km/h Distance 159 km</desc>
<time>2012-09-18T18:16:35.35</time>
<name>8258</name>
<sym>Dot</sym>
</trkpt>
<trkpt lat="47.673648" lon="15.934192">
<ele>496.5</ele>
<desc>Speed 40.1 km/h Distance 159 km</desc>
<time>2012-09-18T18:16:36.27</time>
<name>8259</name>
<sym>Dot</sym>
</trkpt>
<trkpt lat="47.673738" lon="15.934282">
<ele>496.0</ele>
<desc>Speed 43.3 km/h Distance 159 km</desc>
<time>2012-09-18T18:16:37.27</time>
<name>8260</name>
<sym>Dot</sym>
</trkpt>
<trkpt lat="47.673842" lon="15.934380">
<ele>496.0</ele>
<desc>Speed 49.5 km/h Distance 159 km</desc>
<time>2012-09-18T18:16:38.26</time>
<name>8261</name>
<sym>Dot</sym>
</trkpt>
<trkpt lat="47.673953" lon="15.934475">
<ele>495.5</ele>
<desc>Speed 50.9 km/h Distance 159 km</desc>
<time>2012-09-18T18:16:39.25</time>
<name>8262</name>
<sym>Dot</sym>
</trkpt>
<trkpt lat="47.674060" lon="15.934568">
<ele>495.5</ele>
<desc>Speed 49.4 km/h Distance 159 km</desc>
<time>2012-09-18T18:16:40.25</time>
<name>8263</name>
<sym>Dot</sym>
</trkpt>
<trkpt lat="47.674165" lon="15.934657">
<ele>495.5</ele>
<desc>Speed 47.4 km/h Distance 159 km</desc>
<time>2012-09-18T18:16:41.25</time>
<name>8264</name>
<sym>Dot</sym>
</trkpt>
<trkpt lat="47.674265" lon="15.934740">
<ele>495.5</ele>
<desc>Speed 45.1 km/h Distance 159 km</desc>
<time>2012-09-18T18:16:42.24</time>
<name>8265</name>
<sym>Dot</sym>
</trkpt>
<trkpt lat="47.674412" lon="15.934865">
<ele>495.5</ele>
<desc>Speed 32.0 km/h Distance 159 km</desc>
<time>2012-09-18T18:16:44.32</time>
<name>8266</name>
<sym>Dot</sym>
</trkpt>
<trkpt lat="47.674477" lon="15.934913">
<ele>496.0</ele>
<desc>Speed 29.2 km/h Distance 159 km</desc>
<time>2012-09-18T18:16:45.23</time>
<name>8267</name>
<sym>Dot</sym>
</trkpt>
<trkpt lat="47.674542" lon="15.934957">
<ele>495.5</ele>
<desc>Speed 28.6 km/h Distance 159 km</desc>
<time>2012-09-18T18:16:46.23</time>
<name>8268</name>
<sym>Dot</sym>
</trkpt>
<trkpt lat="47.674615" lon="15.935005">
<ele>495.5</ele>
<desc>Speed 31.9 km/h Distance 159 km</desc>
<time>2012-09-18T18:16:47.23</time>
<name>8269</name>
<sym>Dot</sym>
</trkpt>
<trkpt lat="47.674680" lon="15.935077">
<ele>498.0</ele>
<desc>Speed 32.5 km/h Distance 159 km</desc>
<time>2012-09-18T18:16:48.22</time>
<name>8270</name>
<sym>Dot</sym>
</trkpt>
<trkpt lat="47.674743" lon="15.935147">
<ele>497.5</ele>
<desc>Speed 31.9 km/h Distance 159 km</desc>
<time>2012-09-18T18:16:49.21</time>
<name>8271</name>
<sym>Dot</sym>
</trkpt>
<trkpt lat="47.674810" lon="15.935218">
<ele>497.5</ele>
<desc>Speed 32.5 km/h Distance 159 km</desc>
<time>2012-09-18T18:16:50.20</time>
<name>8272</name>
<sym>Dot</sym>
</trkpt>
<trkpt lat="47.674873" lon="15.935290">
<ele>497.0</ele>
<desc>Speed 31.8 km/h Distance 159 km</desc>
<time>2012-09-18T18:16:51.20</time>
<name>8273</name>
<sym>Dot</sym>
</trkpt>
<trkpt lat="47.674932" lon="15.935357">
<ele>497.0</ele>
<desc>Speed 29.7 km/h Distance 159 km</desc>
<time>2012-09-18T18:16:52.29</time>
<name>8274</name>
<sym>Dot</sym>
</trkpt>
<trkpt lat="47.674983" lon="15.935415">
<ele>497.0</ele>
<desc>Speed 26.0 km/h Distance 159 km</desc>
<time>2012-09-18T18:16:53.19</time>
<name>8275</name>
<sym>Dot</sym>
</trkpt>
<trkpt lat="47.675027" lon="15.935472">
<ele>497.0</ele>
<desc>Speed 23.7 km/h Distance 159 km</desc>
<time>2012-09-18T18:16:54.18</time>
<name>8276</name>
<sym>Dot</sym>
</trkpt>
<trkpt lat="47.675055" lon="15.935535">
<ele>498.0</ele>
<desc>Speed 20.7 km/h Distance 159 km</desc>
<time>2012-09-18T18:16:55.19</time>
<name>8277</name>
<sym>Dot</sym>
</trkpt>
<trkpt lat="47.675075" lon="15.935608">
<ele>499.0</ele>
<desc>Speed 21.5 km/h Distance 159 km</desc>
<time>2012-09-18T18:16:56.17</time>
<name>8278</name>
<sym>Dot</sym>
</trkpt>
<trkpt lat="47.675087" lon="15.935688">
<ele>499.5</ele>
<desc>Speed 22.7 km/h Distance 159 km</desc>
<time>2012-09-18T18:16:57.17</time>
<name>8279</name>
<sym>Dot</sym>
</trkpt>
<trkpt lat="47.675092" lon="15.935775">
<ele>500.0</ele>
<desc>Speed 23.9 km/h Distance 159 km</desc>
<time>2012-09-18T18:16:58.16</time>
<name>8280</name>
<sym>Dot</sym>
</trkpt>
<trkpt lat="47.675090" lon="15.935858">
<ele>499.5</ele>
<desc>Speed 22.6 km/h Distance 159 km</desc>
<time>2012-09-18T18:16:59.16</time>
<name>8281</name>
<sym>Dot</sym>
</trkpt>
<trkpt lat="47.675092" lon="15.935937">
<ele>499.5</ele>
<desc>Speed 21.3 km/h Distance 159 km</desc>
<time>2012-09-18T18:17:00.23</time>
<name>8282</name>
<sym>Dot</sym>
</trkpt>
<trkpt lat="47.675122" lon="15.936027">
<ele>498.5</ele>
<desc>Speed 14.9 km/h Distance 159 km</desc>
<time>2012-09-18T18:17:02.14</time>
<name>8283</name>
<sym>Dot</sym>
</trkpt>
<trkpt lat="47.675150" lon="15.936043">
<ele>498.5</ele>
<desc>Speed 12.0 km/h Distance 159 km</desc>
<time>2012-09-18T18:17:03.14</time>
<name>8284</name>
<sym>Dot</sym>
</trkpt>
<trkpt lat="47.675195" lon="15.936062">
<ele>498.0</ele>
<desc>Speed 18.9 km/h Distance 159 km</desc>
<time>2012-09-18T18:17:04.13</time>
<name>8285</name>
<sym>Dot</sym>
</trkpt>
<trkpt lat="47.675248" lon="15.936082">
<ele>498.5</ele>
<desc>Speed 22.1 km/h Distance 159 km</desc>
<time>2012-09-18T18:17:05.13</time>
<name>8286</name>
<sym>Dot</sym>
</trkpt>
<trkpt lat="47.675297" lon="15.936107">
<ele>497.5</ele>
<desc>Speed 20.6 km/h Distance 159 km</desc>
<time>2012-09-18T18:17:06.12</time>
<name>8287</name>
<sym>Dot</sym>
</trkpt>
<trkpt lat="47.675343" lon="15.936143">
<ele>496.5</ele>
<desc>Speed 21.0 km/h Distance 159 km</desc>
<time>2012-09-18T18:17:07.11</time>
<name>8288</name>
<sym>Dot</sym>
</trkpt>
<trkpt lat="47.675395" lon="15.936207">
<ele>497.0</ele>
<desc>Speed 27.0 km/h Distance 159 km</desc>
<time>2012-09-18T18:17:08.12</time>
<name>8289</name>
<sym>Dot</sym>
</trkpt>
<trkpt lat="47.675448" lon="15.936275">
<ele>496.5</ele>
<desc>Speed 28.0 km/h Distance 159 km</desc>
<time>2012-09-18T18:17:09.10</time>
<name>8290</name>
<sym>Dot</sym>
</trkpt>
<trkpt lat="47.675502" lon="15.936340">
<ele>496.5</ele>
<desc>Speed 27.2 km/h Distance 159 km</desc>
<time>2012-09-18T18:17:10.10</time>
<name>8291</name>
<sym>Dot</sym>
</trkpt>
<trkpt lat="47.675555" lon="15.936392">
<ele>497.0</ele>
<desc>Speed 25.9 km/h Distance 159 km</desc>
<time>2012-09-18T18:17:11.10</time>
<name>8292</name>
<sym>Dot</sym>
</trkpt>
<trkpt lat="47.675612" lon="15.936433">
<ele>496.5</ele>
<desc>Speed 25.3 km/h Distance 159 km</desc>
<time>2012-09-18T18:17:12.09</time>
<name>8293</name>
<sym>Dot</sym>
</trkpt>
<trkpt lat="47.675668" lon="15.936467">
<ele>495.5</ele>
<desc>Speed 24.6 km/h Distance 159 km</desc>
<time>2012-09-18T18:17:13.08</time>
<name>8294</name>
<sym>Dot</sym>
</trkpt>
<trkpt lat="47.675727" lon="15.936498">
<ele>495.0</ele>
<desc>Speed 25.1 km/h Distance 159 km</desc>
<time>2012-09-18T18:17:14.08</time>
<name>8295</name>
<sym>Dot</sym>
</trkpt>
<trkpt lat="47.675783" lon="15.936537">
<ele>494.0</ele>
<desc>Speed 25.1 km/h Distance 159 km</desc>
<time>2012-09-18T18:17:15.07</time>
<name>8296</name>
<sym>Dot</sym>
</trkpt>
<trkpt lat="47.675838" lon="15.936573">
<ele>493.5</ele>
<desc>Speed 24.7 km/h Distance 159 km</desc>
<time>2012-09-18T18:17:16.13</time>
<name>8297</name>
<sym>Dot</sym>
</trkpt>
<trkpt lat="47.675895" lon="15.936615">
<ele>493.5</ele>
<desc>Speed 25.5 km/h Distance 159 km</desc>
<time>2012-09-18T18:17:17.06</time>
<name>8298</name>
<sym>Dot</sym>
</trkpt>
<trkpt lat="47.675950" lon="15.936655">
<ele>493.0</ele>
<desc>Speed 24.3 km/h Distance 159 km</desc>
<time>2012-09-18T18:17:18.05</time>
<name>8299</name>
<sym>Dot</sym>
</trkpt>
<trkpt lat="47.676002" lon="15.936698">
<ele>492.5</ele>
<desc>Speed 24.6 km/h Distance 159 km</desc>
<time>2012-09-18T18:17:19.04</time>
<name>8300</name>
<sym>Dot</sym>
</trkpt>
<trkpt lat="47.676052" lon="15.936753">
<ele>492.5</ele>
<desc>Speed 24.6 km/h Distance 159 km</desc>
<time>2012-09-18T18:17:20.04</time>
<name>8301</name>
<sym>Dot</sym>
</trkpt>
<trkpt lat="47.676085" lon="15.936820">
<ele>492.0</ele>
<desc>Speed 22.9 km/h Distance 159 km</desc>
<time>2012-09-18T18:17:21.04</time>
<name>8302</name>
<sym>Dot</sym>
</trkpt>
<trkpt lat="47.676103" lon="15.936898">
<ele>492.0</ele>
<desc>Speed 22.5 km/h Distance 159 km</desc>
<time>2012-09-18T18:17:22.03</time>
<name>8303</name>
<sym>Dot</sym>
</trkpt>
<trkpt lat="47.676107" lon="15.936990">
<ele>492.0</ele>
<desc>Speed 24.9 km/h Distance 159 km</desc>
<time>2012-09-18T18:17:23.02</time>
<name>8304</name>
<sym>Dot</sym>
</trkpt>
<trkpt lat="47.676095" lon="15.937095">
<ele>491.0</ele>
<desc>Speed 29.0 km/h Distance 159 km</desc>
<time>2012-09-18T18:17:24.13</time>
<name>8305</name>
<sym>Dot</sym>
</trkpt>
<trkpt lat="47.676087" lon="15.937203">
<ele>491.0</ele>
<desc>Speed 29.2 km/h Distance 159 km</desc>
<time>2012-09-18T18:17:25.00</time>
<name>8306</name>
<sym>Dot</sym>
</trkpt>
<trkpt lat="47.676077" lon="15.937305">
<ele>491.0</ele>
<desc>Speed 27.8 km/h Distance 159 km</desc>
<time>2012-09-18T18:17:26.00</time>
<name>8307</name>
<sym>Dot</sym>
</trkpt>
<trkpt lat="47.676063" lon="15.937405">
<ele>491.0</ele>
<desc>Speed 27.4 km/h Distance 159 km</desc>
<time>2012-09-18T18:17:27.00</time>
<name>8308</name>
<sym>Dot</sym>
</trkpt>
<trkpt lat="47.676050" lon="15.937505">
<ele>491.0</ele>
<desc>Speed 27.5 km/h Distance 159 km</desc>
<time>2012-09-18T18:17:27.99</time>
<name>8309</name>
<sym>Dot</sym>
</trkpt>
<trkpt lat="47.676033" lon="15.937610">
<ele>491.0</ele>
<desc>Speed 29.0 km/h Distance 159 km</desc>
<time>2012-09-18T18:17:29.00</time>
<name>8310</name>
<sym>Dot</sym>
</trkpt>
<trkpt lat="47.676013" lon="15.937718">
<ele>490.5</ele>
<desc>Speed 30.7 km/h Distance 159 km</desc>
<time>2012-09-18T18:17:29.98</time>
<name>8311</name>
<sym>Dot</sym>
</trkpt>
<trkpt lat="47.675988" lon="15.937818">
<ele>491.0</ele>
<desc>Speed 28.9 km/h Distance 159 km</desc>
<time>2012-09-18T18:17:30.98</time>
<name>8312</name>
<sym>Dot</sym>
</trkpt>
<trkpt lat="47.675955" lon="15.937905">
<ele>491.0</ele>
<desc>Speed 27.4 km/h Distance 159 km</desc>
<time>2012-09-18T18:17:32.07</time>
<name>8313</name>
<sym>Dot</sym>
</trkpt>
<trkpt lat="47.675940" lon="15.937995">
<ele>489.5</ele>
<desc>Speed 25.5 km/h Distance 159 km</desc>
<time>2012-09-18T18:17:32.97</time>
<name>8314</name>
<sym>Dot</sym>
</trkpt>
<trkpt lat="47.675915" lon="15.938087">
<ele>489.0</ele>
<desc>Speed 27.0 km/h Distance 160 km</desc>
<time>2012-09-18T18:17:33.95</time>
<name>8315</name>
<sym>Dot</sym>
</trkpt>
<trkpt lat="47.675887" lon="15.938185">
<ele>489.0</ele>
<desc>Speed 29.0 km/h Distance 160 km</desc>
<time>2012-09-18T18:17:34.95</time>
<name>8316</name>
<sym>Dot</sym>
</trkpt>
<trkpt lat="47.675848" lon="15.938280">
<ele>489.0</ele>
<desc>Speed 29.4 km/h Distance 160 km</desc>
<time>2012-09-18T18:17:35.96</time>
<name>8317</name>
<sym>Dot</sym>
</trkpt>
<trkpt lat="47.675808" lon="15.938378">
<ele>489.5</ele>
<desc>Speed 31.1 km/h Distance 160 km</desc>
<time>2012-09-18T18:17:36.94</time>
<name>8318</name>
<sym>Dot</sym>
</trkpt>
<trkpt lat="47.675765" lon="15.938485">
<ele>489.5</ele>
<desc>Speed 33.8 km/h Distance 160 km</desc>
<time>2012-09-18T18:17:37.94</time>
<name>8319</name>
<sym>Dot</sym>
</trkpt>
<trkpt lat="47.675717" lon="15.938608">
<ele>489.0</ele>
<desc>Speed 38.2 km/h Distance 160 km</desc>
<time>2012-09-18T18:17:39.00</time>
<name>8320</name>
<sym>Dot</sym>
</trkpt>
<trkpt lat="47.675668" lon="15.938740">
<ele>489.0</ele>
<desc>Speed 40.7 km/h Distance 160 km</desc>
<time>2012-09-18T18:17:39.92</time>
<name>8321</name>
<sym>Dot</sym>
</trkpt>
<trkpt lat="47.675615" lon="15.938867">
<ele>489.0</ele>
<desc>Speed 39.9 km/h Distance 160 km</desc>
<time>2012-09-18T18:17:40.93</time>
<name>8322</name>
<sym>Dot</sym>
</trkpt>
<trkpt lat="47.675572" lon="15.938990">
<ele>489.0</ele>
<desc>Speed 37.7 km/h Distance 160 km</desc>
<time>2012-09-18T18:17:41.93</time>
<name>8323</name>
<sym>Dot</sym>
</trkpt>
<trkpt lat="47.675528" lon="15.939107">
<ele>489.5</ele>
<desc>Speed 36.2 km/h Distance 160 km</desc>
<time>2012-09-18T18:17:42.92</time>
<name>8324</name>
<sym>Dot</sym>
</trkpt>
<trkpt lat="47.675477" lon="15.939222">
<ele>489.5</ele>
<desc>Speed 37.4 km/h Distance 160 km</desc>
<time>2012-09-18T18:17:43.91</time>
<name>8325</name>
<sym>Dot</sym>
</trkpt>
<trkpt lat="47.675428" lon="15.939340">
<ele>489.5</ele>
<desc>Speed 37.7 km/h Distance 160 km</desc>
<time>2012-09-18T18:17:44.91</time>
<name>8326</name>
<sym>Dot</sym>
</trkpt>
<trkpt lat="47.675380" lon="15.939460">
<ele>489.5</ele>
<desc>Speed 37.7 km/h Distance 160 km</desc>
<time>2012-09-18T18:17:45.91</time>
<name>8327</name>
<sym>Dot</sym>
</trkpt>
<trkpt lat="47.675333" lon="15.939590">
<ele>489.5</ele>
<desc>Speed 39.8 km/h Distance 160 km</desc>
<time>2012-09-18T18:17:46.97</time>
<name>8328</name>
<sym>Dot</sym>
</trkpt>
<trkpt lat="47.675283" lon="15.939723">
<ele>489.0</ele>
<desc>Speed 41.4 km/h Distance 160 km</desc>
<time>2012-09-18T18:17:47.91</time>
<name>8329</name>
<sym>Dot</sym>
</trkpt>
<trkpt lat="47.675232" lon="15.939853">
<ele>489.0</ele>
<desc>Speed 40.6 km/h Distance 160 km</desc>
<time>2012-09-18T18:17:48.89</time>
<name>8330</name>
<sym>Dot</sym>
</trkpt>
<trkpt lat="47.675183" lon="15.939983">
<ele>489.5</ele>
<desc>Speed 40.6 km/h Distance 160 km</desc>
<time>2012-09-18T18:17:49.89</time>
<name>8331</name>
<sym>Dot</sym>
</trkpt>
<trkpt lat="47.675133" lon="15.940117">
<ele>489.5</ele>
<desc>Speed 41.3 km/h Distance 160 km</desc>
<time>2012-09-18T18:17:50.88</time>
<name>8332</name>
<sym>Dot</sym>
</trkpt>
<trkpt lat="47.675083" lon="15.940248">
<ele>489.5</ele>
<desc>Speed 41.3 km/h Distance 160 km</desc>
<time>2012-09-18T18:17:51.88</time>
<name>8333</name>
<sym>Dot</sym>
</trkpt>
<trkpt lat="47.675035" lon="15.940378">
<ele>489.5</ele>
<desc>Speed 40.6 km/h Distance 160 km</desc>
<time>2012-09-18T18:17:52.87</time>
<name>8334</name>
<sym>Dot</sym>
</trkpt>
<trkpt lat="47.674988" lon="15.940510">
<ele>489.5</ele>
<desc>Speed 40.2 km/h Distance 160 km</desc>
<time>2012-09-18T18:17:53.87</time>
<name>8335</name>
<sym>Dot</sym>
</trkpt>
<trkpt lat="47.674942" lon="15.940640">
<ele>489.5</ele>
<desc>Speed 40.2 km/h Distance 160 km</desc>
<time>2012-09-18T18:17:54.85</time>
<name>8336</name>
<sym>Dot</sym>
</trkpt>
<trkpt lat="47.674892" lon="15.940768">
<ele>489.5</ele>
<desc>Speed 40.3 km/h Distance 160 km</desc>
<time>2012-09-18T18:17:55.94</time>
<name>8337</name>
<sym>Dot</sym>
</trkpt>
<trkpt lat="47.674845" lon="15.940900">
<ele>489.0</ele>
<desc>Speed 40.4 km/h Distance 160 km</desc>
<time>2012-09-18T18:17:56.85</time>
<name>8338</name>
<sym>Dot</sym>
</trkpt>
<trkpt lat="47.674793" lon="15.941033">
<ele>489.5</ele>
<desc>Speed 41.6 km/h Distance 160 km</desc>
<time>2012-09-18T18:17:57.83</time>
<name>8339</name>
<sym>Dot</sym>
</trkpt>
<trkpt lat="47.674740" lon="15.941177">
<ele>489.0</ele>
<desc>Speed 44.6 km/h Distance 160 km</desc>
<time>2012-09-18T18:17:58.83</time>
<name>8340</name>
<sym>Dot</sym>
</trkpt>
<trkpt lat="47.674687" lon="15.941322">
<ele>489.0</ele>
<desc>Speed 45.0 km/h Distance 160 km</desc>
<time>2012-09-18T18:17:59.83</time>
<name>8341</name>
<sym>Dot</sym>
</trkpt>
<trkpt lat="47.674637" lon="15.941463">
<ele>489.0</ele>
<desc>Speed 43.2 km/h Distance 160 km</desc>
<time>2012-09-18T18:18:00.82</time>
<name>8342</name>
<sym>Dot</sym>
</trkpt>
<trkpt lat="47.674587" lon="15.941598">
<ele>489.0</ele>
<desc>Speed 41.8 km/h Distance 160 km</desc>
<time>2012-09-18T18:18:01.82</time>
<name>8343</name>
<sym>Dot</sym>
</trkpt>
<trkpt lat="47.674538" lon="15.941732">
<ele>488.5</ele>
<desc>Speed 41.0 km/h Distance 160 km</desc>
<time>2012-09-18T18:18:02.81</time>
<name>8344</name>
<sym>Dot</sym>
</trkpt>
<trkpt lat="47.674490" lon="15.941863">
<ele>488.5</ele>
<desc>Speed 40.4 km/h Distance 160 km</desc>
<time>2012-09-18T18:18:03.89</time>
<name>8345</name>
<sym>Dot</sym>
</trkpt>
<trkpt lat="47.674443" lon="15.941995">
<ele>488.5</ele>
<desc>Speed 40.0 km/h Distance 160 km</desc>
<time>2012-09-18T18:18:04.80</time>
<name>8346</name>
<sym>Dot</sym>
</trkpt>
<trkpt lat="47.674395" lon="15.942122">
<ele>488.0</ele>
<desc>Speed 39.5 km/h Distance 160 km</desc>
<time>2012-09-18T18:18:05.80</time>
<name>8347</name>
<sym>Dot</sym>
</trkpt>
<trkpt lat="47.674347" lon="15.942247">
<ele>488.0</ele>
<desc>Speed 39.2 km/h Distance 160 km</desc>
<time>2012-09-18T18:18:06.80</time>
<name>8348</name>
<sym>Dot</sym>
</trkpt>
<trkpt lat="47.674293" lon="15.942370">
<ele>488.0</ele>
<desc>Speed 39.7 km/h Distance 160 km</desc>
<time>2012-09-18T18:18:07.79</time>
<name>8349</name>
<sym>Dot</sym>
</trkpt>
<trkpt lat="47.674238" lon="15.942497">
<ele>488.0</ele>
<desc>Speed 41.0 km/h Distance 160 km</desc>
<time>2012-09-18T18:18:08.78</time>
<name>8350</name>
<sym>Dot</sym>
</trkpt>
<trkpt lat="47.674183" lon="15.942627">
<ele>487.5</ele>
<desc>Speed 41.6 km/h Distance 160 km</desc>
<time>2012-09-18T18:18:09.79</time>
<name>8351</name>
<sym>Dot</sym>
</trkpt>
<trkpt lat="47.674133" lon="15.942757">
<ele>487.5</ele>
<desc>Speed 40.1 km/h Distance 160 km</desc>
<time>2012-09-18T18:18:10.77</time>
<name>8352</name>
<sym>Dot</sym>
</trkpt>
<trkpt lat="47.674092" lon="15.942882">
<ele>487.0</ele>
<desc>Speed 37.7 km/h Distance 160 km</desc>
<time>2012-09-18T18:18:11.84</time>
<name>8353</name>
<sym>Dot</sym>
</trkpt>
<trkpt lat="47.674053" lon="15.943002">
<ele>487.0</ele>
<desc>Speed 35.7 km/h Distance 160 km</desc>
<time>2012-09-18T18:18:12.76</time>
<name>8354</name>
<sym>Dot</sym>
</trkpt>
<trkpt lat="47.674020" lon="15.943115">
<ele>486.5</ele>
<desc>Speed 33.8 km/h Distance 160 km</desc>
<time>2012-09-18T18:18:13.75</time>
<name>8355</name>
<sym>Dot</sym>
</trkpt>
<trkpt lat="47.673987" lon="15.943227">
<ele>486.0</ele>
<desc>Speed 32.8 km/h Distance 160 km</desc>
<time>2012-09-18T18:18:14.76</time>
<name>8356</name>
<sym>Dot</sym>
</trkpt>
<trkpt lat="47.673942" lon="15.943342">
<ele>486.0</ele>
<desc>Speed 35.9 km/h Distance 160 km</desc>
<time>2012-09-18T18:18:15.75</time>
<name>8357</name>
<sym>Dot</sym>
</trkpt>
<trkpt lat="47.673830" lon="15.943632">
<ele>486.5</ele>
<desc>Speed 43.6 km/h Distance 160 km</desc>
<time>2012-09-18T18:18:17.74</time>
<name>8358</name>
<sym>Dot</sym>
</trkpt>
<trkpt lat="47.673788" lon="15.943772">
<ele>486.5</ele>
<desc>Speed 41.5 km/h Distance 160 km</desc>
<time>2012-09-18T18:18:18.75</time>
<name>8359</name>
<sym>Dot</sym>
</trkpt>
<trkpt lat="47.673750" lon="15.943892">
<ele>486.5</ele>
<desc>Speed 36.5 km/h Distance 160 km</desc>
<time>2012-09-18T18:18:19.77</time>
<name>8360</name>
<sym>Dot</sym>
</trkpt>
<trkpt lat="47.673715" lon="15.943997">
<ele>486.0</ele>
<desc>Speed 31.8 km/h Distance 160 km</desc>
<time>2012-09-18T18:18:20.72</time>
<name>8361</name>
<sym>Dot</sym>
</trkpt>
<trkpt lat="47.673675" lon="15.944093">
<ele>486.5</ele>
<desc>Speed 30.8 km/h Distance 160 km</desc>
<time>2012-09-18T18:18:21.72</time>
<name>8362</name>
<sym>Dot</sym>
</trkpt>
<trkpt lat="47.673635" lon="15.944207">
<ele>486.0</ele>
<desc>Speed 34.6 km/h Distance 160 km</desc>
<time>2012-09-18T18:18:22.71</time>
<name>8363</name>
<sym>Dot</sym>
</trkpt>
<trkpt lat="47.673527" lon="15.944513">
<ele>485.5</ele>
<desc>Speed 47.4 km/h Distance 160 km</desc>
<time>2012-09-18T18:18:24.72</time>
<name>8364</name>
<sym>Dot</sym>
</trkpt>
<trkpt lat="47.673478" lon="15.944670">
<ele>485.5</ele>
<desc>Speed 46.7 km/h Distance 160 km</desc>
<time>2012-09-18T18:18:25.71</time>
<name>8365</name>
<sym>Dot</sym>
</trkpt>
<trkpt lat="47.673430" lon="15.944815">
<ele>485.0</ele>
<desc>Speed 44.0 km/h Distance 160 km</desc>
<time>2012-09-18T18:18:26.71</time>
<name>8366</name>
<sym>Dot</sym>
</trkpt>
<trkpt lat="47.673312" lon="15.945093">
<ele>484.5</ele>
<desc>Speed 26.3 km/h Distance 160 km</desc>
<time>2012-09-18T18:18:31.43</time>
<name>8367</name>
<sym>Dot</sym>
</trkpt>
<trkpt lat="47.673267" lon="15.945163">
<ele>484.5</ele>
<desc>Speed 26.1 km/h Distance 160 km</desc>
<time>2012-09-18T18:18:32.43</time>
<name>8368</name>
<sym>Dot</sym>
</trkpt>
<trkpt lat="47.673232" lon="15.945238">
<ele>484.5</ele>
<desc>Speed 24.7 km/h Distance 160 km</desc>
<time>2012-09-18T18:18:33.43</time>
<name>8369</name>
<sym>Dot</sym>
</trkpt>
<trkpt lat="47.673212" lon="15.945322">
<ele>484.5</ele>
<desc>Speed 24.0 km/h Distance 160 km</desc>
<time>2012-09-18T18:18:34.43</time>
<name>8370</name>
<sym>Dot</sym>
</trkpt>
<trkpt lat="47.673205" lon="15.945428">
<ele>483.5</ele>
<desc>Speed 28.7 km/h Distance 160 km</desc>
<time>2012-09-18T18:18:35.42</time>
<name>8371</name>
<sym>Dot</sym>
</trkpt>
<trkpt lat="47.673197" lon="15.945545">
<ele>483.5</ele>
<desc>Speed 31.2 km/h Distance 160 km</desc>
<time>2012-09-18T18:18:36.42</time>
<name>8372</name>
<sym>Dot</sym>
</trkpt>
<trkpt lat="47.673153" lon="15.945828">
<ele>484.0</ele>
<desc>Speed 39.2 km/h Distance 160 km</desc>
<time>2012-09-18T18:18:38.41</time>
<name>8373</name>
<sym>Dot</sym>
</trkpt>
<trkpt lat="47.673120" lon="15.945980">
<ele>484.0</ele>
<desc>Speed 43.1 km/h Distance 160 km</desc>
<time>2012-09-18T18:18:39.50</time>
<name>8374</name>
<sym>Dot</sym>
</trkpt>
<trkpt lat="47.673083" lon="15.946155">
<ele>484.0</ele>
<desc>Speed 48.7 km/h Distance 160 km</desc>
<time>2012-09-18T18:18:40.40</time>
<name>8375</name>
<sym>Dot</sym>
</trkpt>
<trkpt lat="47.673050" lon="15.946332">
<ele>484.0</ele>
<desc>Speed 49.9 km/h Distance 160 km</desc>
<time>2012-09-18T18:18:41.40</time>
<name>8376</name>
<sym>Dot</sym>
</trkpt>
<trkpt lat="47.673017" lon="15.946502">
<ele>483.5</ele>
<desc>Speed 47.4 km/h Distance 160 km</desc>
<time>2012-09-18T18:18:42.39</time>
<name>8377</name>
<sym>Dot</sym>
</trkpt>
<trkpt lat="47.672983" lon="15.946668">
<ele>483.5</ele>
<desc>Speed 47.3 km/h Distance 160 km</desc>
<time>2012-09-18T18:18:43.38</time>
<name>8378</name>
<sym>Dot</sym>
</trkpt>
<trkpt lat="47.672953" lon="15.946837">
<ele>483.5</ele>
<desc>Speed 47.0 km/h Distance 160 km</desc>
<time>2012-09-18T18:18:44.38</time>
<name>8379</name>
<sym>Dot</sym>
</trkpt>
<trkpt lat="47.672925" lon="15.947003">
<ele>483.5</ele>
<desc>Speed 46.7 km/h Distance 160 km</desc>
<time>2012-09-18T18:18:45.37</time>
<name>8380</name>
<sym>Dot</sym>
</trkpt>
<trkpt lat="47.672897" lon="15.947172">
<ele>483.0</ele>
<desc>Speed 46.6 km/h Distance 160 km</desc>
<time>2012-09-18T18:18:46.37</time>
<name>8381</name>
<sym>Dot</sym>
</trkpt>
<trkpt lat="47.672872" lon="15.947342">
<ele>483.0</ele>
<desc>Speed 47.1 km/h Distance 160 km</desc>
<time>2012-09-18T18:18:47.35</time>
<name>8382</name>
<sym>Dot</sym>
</trkpt>
<trkpt lat="47.672845" lon="15.947515">
<ele>483.0</ele>
<desc>Speed 48.0 km/h Distance 160 km</desc>
<time>2012-09-18T18:18:48.43</time>
<name>8383</name>
<sym>Dot</sym>
</trkpt>
<trkpt lat="47.672820" lon="15.947692">
<ele>483.0</ele>
<desc>Speed 49.1 km/h Distance 160 km</desc>
<time>2012-09-18T18:18:49.35</time>
<name>8384</name>
<sym>Dot</sym>
</trkpt>
<trkpt lat="47.672792" lon="15.947877">
<ele>483.0</ele>
<desc>Speed 51.0 km/h Distance 160 km</desc>
<time>2012-09-18T18:18:50.35</time>
<name>8385</name>
<sym>Dot</sym>
</trkpt>
<trkpt lat="47.672767" lon="15.948063">
<ele>483.0</ele>
<desc>Speed 51.2 km/h Distance 160 km</desc>
<time>2012-09-18T18:18:51.35</time>
<name>8386</name>
<sym>Dot</sym>
</trkpt>
<trkpt lat="47.672747" lon="15.948248">
<ele>483.0</ele>
<desc>Speed 50.7 km/h Distance 160 km</desc>
<time>2012-09-18T18:18:52.34</time>
<name>8387</name>
<sym>Dot</sym>
</trkpt>
<trkpt lat="47.672728" lon="15.948433">
<ele>483.0</ele>
<desc>Speed 50.6 km/h Distance 160 km</desc>
<time>2012-09-18T18:18:53.33</time>
<name>8388</name>
<sym>Dot</sym>
</trkpt>
<trkpt lat="47.672712" lon="15.948622">
<ele>482.5</ele>
<desc>Speed 51.3 km/h Distance 160 km</desc>
<time>2012-09-18T18:18:54.33</time>
<name>8389</name>
<sym>Dot</sym>
</trkpt>
<trkpt lat="47.672695" lon="15.948828">
<ele>482.5</ele>
<desc>Speed 55.9 km/h Distance 160 km</desc>
<time>2012-09-18T18:18:55.32</time>
<name>8390</name>
<sym>Dot</sym>
</trkpt>
<trkpt lat="47.672678" lon="15.949038">
<ele>482.5</ele>
<desc>Speed 57.2 km/h Distance 160 km</desc>
<time>2012-09-18T18:18:56.41</time>
<name>8391</name>
<sym>Dot</sym>
</trkpt>
<trkpt lat="47.672663" lon="15.949243">
<ele>482.5</ele>
<desc>Speed 55.9 km/h Distance 160 km</desc>
<time>2012-09-18T18:18:57.30</time>
<name>8392</name>
<sym>Dot</sym>
</trkpt>
<trkpt lat="47.672647" lon="15.949447">
<ele>482.5</ele>
<desc>Speed 55.5 km/h Distance 160 km</desc>
<time>2012-09-18T18:18:58.31</time>
<name>8393</name>
<sym>Dot</sym>
</trkpt>
<trkpt lat="47.672630" lon="15.949653">
<ele>482.5</ele>
<desc>Speed 56.2 km/h Distance 160 km</desc>
<time>2012-09-18T18:18:59.31</time>
<name>8394</name>
<sym>Dot</sym>
</trkpt>
<trkpt lat="47.672617" lon="15.949862">
<ele>482.5</ele>
<desc>Speed 56.3 km/h Distance 160 km</desc>
<time>2012-09-18T18:19:00.31</time>
<name>8395</name>
<sym>Dot</sym>
</trkpt>
<trkpt lat="47.672603" lon="15.950068">
<ele>483.0</ele>
<desc>Speed 55.7 km/h Distance 160 km</desc>
<time>2012-09-18T18:19:01.30</time>
<name>8396</name>
<sym>Dot</sym>
</trkpt>
<trkpt lat="47.672593" lon="15.950267">
<ele>483.5</ele>
<desc>Speed 54.2 km/h Distance 161 km</desc>
<time>2012-09-18T18:19:02.30</time>
<name>8397</name>
<sym>Dot</sym>
</trkpt>
<trkpt lat="47.672582" lon="15.950460">
<ele>484.0</ele>
<desc>Speed 51.8 km/h Distance 161 km</desc>
<time>2012-09-18T18:19:03.29</time>
<name>8398</name>
<sym>Dot</sym>
</trkpt>
<trkpt lat="47.672567" lon="15.950652">
<ele>484.5</ele>
<desc>Speed 51.7 km/h Distance 161 km</desc>
<time>2012-09-18T18:19:04.29</time>
<name>8399</name>
<sym>Dot</sym>
</trkpt>
<trkpt lat="47.672552" lon="15.950845">
<ele>484.5</ele>
<desc>Speed 52.6 km/h Distance 161 km</desc>
<time>2012-09-18T18:19:05.31</time>
<name>8400</name>
<sym>Dot</sym>
</trkpt>
<trkpt lat="47.672543" lon="15.951052">
<ele>484.5</ele>
<desc>Speed 56.3 km/h Distance 161 km</desc>
<time>2012-09-18T18:19:06.28</time>
<name>8401</name>
<sym>Dot</sym>
</trkpt>
<trkpt lat="47.672528" lon="15.951285">
<ele>483.0</ele>
<desc>Speed 63.5 km/h Distance 161 km</desc>
<time>2012-09-18T18:19:07.29</time>
<name>8402</name>
<sym>Dot</sym>
</trkpt>
<trkpt lat="47.672523" lon="15.951520">
<ele>483.5</ele>
<desc>Speed 63.4 km/h Distance 161 km</desc>
<time>2012-09-18T18:19:08.28</time>
<name>8403</name>
<sym>Dot</sym>
</trkpt>
<trkpt lat="47.672520" lon="15.951740">
<ele>483.0</ele>
<desc>Speed 59.3 km/h Distance 161 km</desc>
<time>2012-09-18T18:19:09.27</time>
<name>8404</name>
<sym>Dot</sym>
</trkpt>
<trkpt lat="47.672515" lon="15.951948">
<ele>483.5</ele>
<desc>Speed 56.1 km/h Distance 161 km</desc>
<time>2012-09-18T18:19:10.26</time>
<name>8405</name>
<sym>Dot</sym>
</trkpt>
<trkpt lat="47.672507" lon="15.952147">
<ele>484.0</ele>
<desc>Speed 53.7 km/h Distance 161 km</desc>
<time>2012-09-18T18:19:11.25</time>
<name>8406</name>
<sym>Dot</sym>
</trkpt>
<trkpt lat="47.672493" lon="15.952333">
<ele>484.5</ele>
<desc>Speed 50.3 km/h Distance 161 km</desc>
<time>2012-09-18T18:19:12.25</time>
<name>8407</name>
<sym>Dot</sym>
</trkpt>
<trkpt lat="47.672453" lon="15.952620">
<ele>487.0</ele>
<desc>Speed 36.1 km/h Distance 161 km</desc>
<time>2012-09-18T18:19:14.32</time>
<name>8408</name>
<sym>Dot</sym>
</trkpt>
<trkpt lat="47.672432" lon="15.952733">
<ele>487.5</ele>
<desc>Speed 31.9 km/h Distance 161 km</desc>
<time>2012-09-18T18:19:15.23</time>
<name>8409</name>
<sym>Dot</sym>
</trkpt>
<trkpt lat="47.672413" lon="15.952828">
<ele>487.5</ele>
<desc>Speed 26.9 km/h Distance 161 km</desc>
<time>2012-09-18T18:19:16.23</time>
<name>8410</name>
<sym>Dot</sym>
</trkpt>
<trkpt lat="47.672383" lon="15.952942">
<ele>489.0</ele>
<desc>Speed 13.2 km/h Distance 161 km</desc>
<time>2012-09-18T18:19:19.43</time>
<name>8411</name>
<sym>Dot</sym>
</trkpt>
<trkpt lat="47.672382" lon="15.953125">
<ele>488.5</ele>
<desc>Speed 26.4 km/h Distance 161 km</desc>
<time>2012-09-18T18:19:21.43</time>
<name>8412</name>
<sym>Dot</sym>
</trkpt>
<trkpt lat="47.672423" lon="15.953403">
<ele>489.0</ele>
<desc>Speed 39.6 km/h Distance 161 km</desc>
<time>2012-09-18T18:19:23.42</time>
<name>8413</name>
<sym>Dot</sym>
</trkpt>
<trkpt lat="47.672462" lon="15.953560">
<ele>488.5</ele>
<desc>Speed 45.1 km/h Distance 161 km</desc>
<time>2012-09-18T18:19:24.42</time>
<name>8414</name>
<sym>Dot</sym>
</trkpt>
<trkpt lat="47.672512" lon="15.953735">
<ele>488.5</ele>
<desc>Speed 50.6 km/h Distance 161 km</desc>
<time>2012-09-18T18:19:25.42</time>
<name>8415</name>
<sym>Dot</sym>
</trkpt>
<trkpt lat="47.672558" lon="15.953903">
<ele>488.0</ele>
<desc>Speed 49.4 km/h Distance 161 km</desc>
<time>2012-09-18T18:19:26.41</time>
<name>8416</name>
<sym>Dot</sym>
</trkpt>
<trkpt lat="47.672598" lon="15.954070">
<ele>487.5</ele>
<desc>Speed 47.4 km/h Distance 161 km</desc>
<time>2012-09-18T18:19:27.41</time>
<name>8417</name>
<sym>Dot</sym>
</trkpt>
<trkpt lat="47.672635" lon="15.954232">
<ele>487.0</ele>
<desc>Speed 46.0 km/h Distance 161 km</desc>
<time>2012-09-18T18:19:28.40</time>
<name>8418</name>
<sym>Dot</sym>
</trkpt>
<trkpt lat="47.672670" lon="15.954392">
<ele>487.0</ele>
<desc>Speed 45.4 km/h Distance 161 km</desc>
<time>2012-09-18T18:19:29.40</time>
<name>8419</name>
<sym>Dot</sym>
</trkpt>
<trkpt lat="47.672702" lon="15.954558">
<ele>486.5</ele>
<desc>Speed 46.8 km/h Distance 161 km</desc>
<time>2012-09-18T18:19:30.42</time>
<name>8420</name>
<sym>Dot</sym>
</trkpt>
<trkpt lat="47.672735" lon="15.954738">
<ele>486.0</ele>
<desc>Speed 50.3 km/h Distance 161 km</desc>
<time>2012-09-18T18:19:31.38</time>
<name>8421</name>
<sym>Dot</sym>
</trkpt>
<trkpt lat="47.672768" lon="15.954930">
<ele>486.0</ele>
<desc>Speed 53.2 km/h Distance 161 km</desc>
<time>2012-09-18T18:19:32.37</time>
<name>8422</name>
<sym>Dot</sym>
</trkpt>
<trkpt lat="47.672800" lon="15.955117">
<ele>485.5</ele>
<desc>Speed 51.9 km/h Distance 161 km</desc>
<time>2012-09-18T18:19:33.37</time>
<name>8423</name>
<sym>Dot</sym>
</trkpt>
<trkpt lat="47.672827" lon="15.955302">
<ele>485.5</ele>
<desc>Speed 51.1 km/h Distance 161 km</desc>
<time>2012-09-18T18:19:34.36</time>
<name>8424</name>
<sym>Dot</sym>
</trkpt>
<trkpt lat="47.672852" lon="15.955490">
<ele>485.5</ele>
<desc>Speed 51.7 km/h Distance 161 km</desc>
<time>2012-09-18T18:19:35.36</time>
<name>8425</name>
<sym>Dot</sym>
</trkpt>
<trkpt lat="47.672872" lon="15.955682">
<ele>485.0</ele>
<desc>Speed 52.3 km/h Distance 161 km</desc>
<time>2012-09-18T18:19:36.35</time>
<name>8426</name>
<sym>Dot</sym>
</trkpt>
<trkpt lat="47.672887" lon="15.955875">
<ele>485.0</ele>
<desc>Speed 52.7 km/h Distance 161 km</desc>
<time>2012-09-18T18:19:37.35</time>
<name>8427</name>
<sym>Dot</sym>
</trkpt>
<trkpt lat="47.672898" lon="15.956065">
<ele>484.5</ele>
<desc>Speed 51.4 km/h Distance 161 km</desc>
<time>2012-09-18T18:19:38.44</time>
<name>8428</name>
<sym>Dot</sym>
</trkpt>
<trkpt lat="47.672910" lon="15.956248">
<ele>484.0</ele>
<desc>Speed 49.5 km/h Distance 161 km</desc>
<time>2012-09-18T18:19:39.33</time>
<name>8429</name>
<sym>Dot</sym>
</trkpt>
<trkpt lat="47.672920" lon="15.956425">
<ele>484.0</ele>
<desc>Speed 47.9 km/h Distance 161 km</desc>
<time>2012-09-18T18:19:40.33</time>
<name>8430</name>
<sym>Dot</sym>
</trkpt>
<trkpt lat="47.672930" lon="15.956603">
<ele>484.0</ele>
<desc>Speed 48.1 km/h Distance 161 km</desc>
<time>2012-09-18T18:19:41.33</time>
<name>8431</name>
<sym>Dot</sym>
</trkpt>
<trkpt lat="47.672942" lon="15.956783">
<ele>483.5</ele>
<desc>Speed 48.7 km/h Distance 161 km</desc>
<time>2012-09-18T18:19:42.32</time>
<name>8432</name>
<sym>Dot</sym>
</trkpt>
<trkpt lat="47.672950" lon="15.956965">
<ele>483.5</ele>
<desc>Speed 48.8 km/h Distance 161 km</desc>
<time>2012-09-18T18:19:43.32</time>
<name>8433</name>
<sym>Dot</sym>
</trkpt>
<trkpt lat="47.672953" lon="15.957145">
<ele>483.5</ele>
<desc>Speed 48.7 km/h Distance 161 km</desc>
<time>2012-09-18T18:19:44.31</time>
<name>8434</name>
<sym>Dot</sym>
</trkpt>
<trkpt lat="47.672957" lon="15.957323">
<ele>483.5</ele>
<desc>Speed 48.1 km/h Distance 161 km</desc>
<time>2012-09-18T18:19:45.31</time>
<name>8435</name>
<sym>Dot</sym>
</trkpt>
<trkpt lat="47.672957" lon="15.957503">
<ele>483.0</ele>
<desc>Speed 48.5 km/h Distance 161 km</desc>
<time>2012-09-18T18:19:46.29</time>
<name>8436</name>
<sym>Dot</sym>
</trkpt>
<trkpt lat="47.672955" lon="15.957693">
<ele>483.0</ele>
<desc>Speed 50.9 km/h Distance 161 km</desc>
<time>2012-09-18T18:19:47.36</time>
<name>8437</name>
<sym>Dot</sym>
</trkpt>
<trkpt lat="47.672947" lon="15.957895">
<ele>483.5</ele>
<desc>Speed 54.4 km/h Distance 161 km</desc>
<time>2012-09-18T18:19:48.29</time>
<name>8438</name>
<sym>Dot</sym>
</trkpt>
<trkpt lat="47.672933" lon="15.958100">
<ele>483.5</ele>
<desc>Speed 55.2 km/h Distance 161 km</desc>
<time>2012-09-18T18:19:49.29</time>
<name>8439</name>
<sym>Dot</sym>
</trkpt>
<trkpt lat="47.672918" lon="15.958298">
<ele>483.5</ele>
<desc>Speed 53.9 km/h Distance 161 km</desc>
<time>2012-09-18T18:19:50.29</time>
<name>8440</name>
<sym>Dot</sym>
</trkpt>
<trkpt lat="47.672905" lon="15.958493">
<ele>483.5</ele>
<desc>Speed 52.4 km/h Distance 161 km</desc>
<time>2012-09-18T18:19:51.29</time>
<name>8441</name>
<sym>Dot</sym>
</trkpt>
<trkpt lat="47.672888" lon="15.958685">
<ele>483.0</ele>
<desc>Speed 52.1 km/h Distance 161 km</desc>
<time>2012-09-18T18:19:52.28</time>
<name>8442</name>
<sym>Dot</sym>
</trkpt>
<trkpt lat="47.672873" lon="15.958878">
<ele>483.0</ele>
<desc>Speed 52.6 km/h Distance 161 km</desc>
<time>2012-09-18T18:19:53.28</time>
<name>8443</name>
<sym>Dot</sym>
</trkpt>
<trkpt lat="47.672858" lon="15.959075">
<ele>483.0</ele>
<desc>Speed 53.4 km/h Distance 161 km</desc>
<time>2012-09-18T18:19:54.27</time>
<name>8444</name>
<sym>Dot</sym>
</trkpt>
<trkpt lat="47.672843" lon="15.959272">
<ele>483.0</ele>
<desc>Speed 53.2 km/h Distance 161 km</desc>
<time>2012-09-18T18:19:55.33</time>
<name>8445</name>
<sym>Dot</sym>
</trkpt>
<trkpt lat="47.672828" lon="15.959472">
<ele>483.0</ele>
<desc>Speed 54.2 km/h Distance 161 km</desc>
<time>2012-09-18T18:19:56.26</time>
<name>8446</name>
<sym>Dot</sym>
</trkpt>
<trkpt lat="47.672813" lon="15.959673">
<ele>482.5</ele>
<desc>Speed 54.8 km/h Distance 161 km</desc>
<time>2012-09-18T18:19:57.26</time>
<name>8447</name>
<sym>Dot</sym>
</trkpt>
<trkpt lat="47.672803" lon="15.959877">
<ele>482.5</ele>
<desc>Speed 55.0 km/h Distance 161 km</desc>
<time>2012-09-18T18:19:58.26</time>
<name>8448</name>
<sym>Dot</sym>
</trkpt>
<trkpt lat="47.672797" lon="15.960087">
<ele>482.5</ele>
<desc>Speed 57.1 km/h Distance 161 km</desc>
<time>2012-09-18T18:19:59.26</time>
<name>8449</name>
<sym>Dot</sym>
</trkpt>
<trkpt lat="47.672795" lon="15.960567">
<ele>480.5</ele>
<desc>Speed 64.7 km/h Distance 161 km</desc>
<time>2012-09-18T18:20:01.26</time>
<name>8450</name>
<sym>Dot</sym>
</trkpt>
<trkpt lat="47.672797" lon="15.960815">
<ele>480.5</ele>
<desc>Speed 67.0 km/h Distance 161 km</desc>
<time>2012-09-18T18:20:02.25</time>
<name>8451</name>
<sym>Dot</sym>
</trkpt>
<trkpt lat="47.672803" lon="15.961073">
<ele>480.0</ele>
<desc>Speed 70.0 km/h Distance 161 km</desc>
<time>2012-09-18T18:20:03.30</time>
<name>8452</name>
<sym>Dot</sym>
</trkpt>
<trkpt lat="47.672810" lon="15.961330">
<ele>480.0</ele>
<desc>Speed 68.9 km/h Distance 161 km</desc>
<time>2012-09-18T18:20:04.23</time>
<name>8453</name>
<sym>Dot</sym>
</trkpt>
<trkpt lat="47.672822" lon="15.961572">
<ele>480.0</ele>
<desc>Speed 65.5 km/h Distance 161 km</desc>
<time>2012-09-18T18:20:05.23</time>
<name>8454</name>
<sym>Dot</sym>
</trkpt>
<trkpt lat="47.672838" lon="15.961813">
<ele>480.0</ele>
<desc>Speed 64.9 km/h Distance 161 km</desc>
<time>2012-09-18T18:20:06.22</time>
<name>8455</name>
<sym>Dot</sym>
</trkpt>
<trkpt lat="47.672858" lon="15.962055">
<ele>480.0</ele>
<desc>Speed 65.6 km/h Distance 161 km</desc>
<time>2012-09-18T18:20:07.21</time>
<name>8456</name>
<sym>Dot</sym>
</trkpt>
<trkpt lat="47.672883" lon="15.962297">
<ele>480.0</ele>
<desc>Speed 65.9 km/h Distance 161 km</desc>
<time>2012-09-18T18:20:08.21</time>
<name>8457</name>
<sym>Dot</sym>
</trkpt>
<trkpt lat="47.672910" lon="15.962537">
<ele>480.0</ele>
<desc>Speed 65.9 km/h Distance 161 km</desc>
<time>2012-09-18T18:20:09.20</time>
<name>8458</name>
<sym>Dot</sym>
</trkpt>
<trkpt lat="47.672940" lon="15.962777">
<ele>480.5</ele>
<desc>Speed 66.0 km/h Distance 161 km</desc>
<time>2012-09-18T18:20:10.20</time>
<name>8459</name>
<sym>Dot</sym>
</trkpt>
<trkpt lat="47.672975" lon="15.963017">
<ele>480.5</ele>
<desc>Speed 66.0 km/h Distance 161 km</desc>
<time>2012-09-18T18:20:11.19</time>
<name>8460</name>
<sym>Dot</sym>
</trkpt>
<trkpt lat="47.673012" lon="15.963255">
<ele>480.5</ele>
<desc>Speed 66.2 km/h Distance 161 km</desc>
<time>2012-09-18T18:20:12.25</time>
<name>8461</name>
<sym>Dot</sym>
</trkpt>
<trkpt lat="47.673053" lon="15.963492">
<ele>481.0</ele>
<desc>Speed 66.1 km/h Distance 162 km</desc>
<time>2012-09-18T18:20:13.18</time>
<name>8462</name>
<sym>Dot</sym>
</trkpt>
<trkpt lat="47.673098" lon="15.963727">
<ele>481.0</ele>
<desc>Speed 66.1 km/h Distance 162 km</desc>
<time>2012-09-18T18:20:14.18</time>
<name>8463</name>
<sym>Dot</sym>
</trkpt>
<trkpt lat="47.673148" lon="15.963962">
<ele>481.0</ele>
<desc>Speed 66.1 km/h Distance 162 km</desc>
<time>2012-09-18T18:20:15.18</time>
<name>8464</name>
<sym>Dot</sym>
</trkpt>
<trkpt lat="47.673200" lon="15.964195">
<ele>481.0</ele>
<desc>Speed 66.1 km/h Distance 162 km</desc>
<time>2012-09-18T18:20:16.17</time>
<name>8465</name>
<sym>Dot</sym>
</trkpt>
<trkpt lat="47.673253" lon="15.964427">
<ele>481.0</ele>
<desc>Speed 66.1 km/h Distance 162 km</desc>
<time>2012-09-18T18:20:17.16</time>
<name>8466</name>
<sym>Dot</sym>
</trkpt>
<trkpt lat="47.673308" lon="15.964658">
<ele>481.0</ele>
<desc>Speed 66.2 km/h Distance 162 km</desc>
<time>2012-09-18T18:20:18.15</time>
<name>8467</name>
<sym>Dot</sym>
</trkpt>
<trkpt lat="47.673365" lon="15.964888">
<ele>480.5</ele>
<desc>Speed 66.0 km/h Distance 162 km</desc>
<time>2012-09-18T18:20:19.15</time>
<name>8468</name>
<sym>Dot</sym>
</trkpt>
<trkpt lat="47.673420" lon="15.965118">
<ele>480.5</ele>
<desc>Speed 65.7 km/h Distance 162 km</desc>
<time>2012-09-18T18:20:20.15</time>
<name>8469</name>
<sym>Dot</sym>
</trkpt>
<trkpt lat="47.673473" lon="15.965348">
<ele>480.0</ele>
<desc>Speed 65.5 km/h Distance 162 km</desc>
<time>2012-09-18T18:20:21.24</time>
<name>8470</name>
<sym>Dot</sym>
</trkpt>
<trkpt lat="47.673523" lon="15.965580">
<ele>480.0</ele>
<desc>Speed 65.7 km/h Distance 162 km</desc>
<time>2012-09-18T18:20:22.13</time>
<name>8471</name>
<sym>Dot</sym>
</trkpt>
<trkpt lat="47.673570" lon="15.965815">
<ele>479.0</ele>
<desc>Speed 65.8 km/h Distance 162 km</desc>
<time>2012-09-18T18:20:23.12</time>
<name>8472</name>
<sym>Dot</sym>
</trkpt>
<trkpt lat="47.673613" lon="15.966050">
<ele>478.5</ele>
<desc>Speed 65.7 km/h Distance 162 km</desc>
<time>2012-09-18T18:20:24.12</time>
<name>8473</name>
<sym>Dot</sym>
</trkpt>
<trkpt lat="47.673655" lon="15.966285">
<ele>478.0</ele>
<desc>Speed 65.7 km/h Distance 162 km</desc>
<time>2012-09-18T18:20:25.11</time>
<name>8474</name>
<sym>Dot</sym>
</trkpt>
<trkpt lat="47.673693" lon="15.966523">
<ele>477.5</ele>
<desc>Speed 65.8 km/h Distance 162 km</desc>
<time>2012-09-18T18:20:26.11</time>
<name>8475</name>
<sym>Dot</sym>
</trkpt>
<trkpt lat="47.673728" lon="15.966763">
<ele>477.0</ele>
<desc>Speed 66.4 km/h Distance 162 km</desc>
<time>2012-09-18T18:20:27.10</time>
<name>8476</name>
<sym>Dot</sym>
</trkpt>
<trkpt lat="47.673760" lon="15.967005">
<ele>476.5</ele>
<desc>Speed 66.5 km/h Distance 162 km</desc>
<time>2012-09-18T18:20:28.15</time>
<name>8477</name>
<sym>Dot</sym>
</trkpt>
<trkpt lat="47.673790" lon="15.967248">
<ele>476.0</ele>
<desc>Speed 67.0 km/h Distance 162 km</desc>
<time>2012-09-18T18:20:29.10</time>
<name>8478</name>
<sym>Dot</sym>
</trkpt>
<trkpt lat="47.673815" lon="15.967497">
<ele>475.5</ele>
<desc>Speed 67.5 km/h Distance 162 km</desc>
<time>2012-09-18T18:20:30.09</time>
<name>8479</name>
<sym>Dot</sym>
</trkpt>
<trkpt lat="47.673837" lon="15.967745">
<ele>475.5</ele>
<desc>Speed 67.8 km/h Distance 162 km</desc>
<time>2012-09-18T18:20:31.08</time>
<name>8480</name>
<sym>Dot</sym>
</trkpt>
<trkpt lat="47.673855" lon="15.967998">
<ele>475.5</ele>
<desc>Speed 68.4 km/h Distance 162 km</desc>
<time>2012-09-18T18:20:32.08</time>
<name>8481</name>
<sym>Dot</sym>
</trkpt>
<trkpt lat="47.673867" lon="15.968250">
<ele>475.5</ele>
<desc>Speed 68.3 km/h Distance 162 km</desc>
<time>2012-09-18T18:20:33.07</time>
<name>8482</name>
<sym>Dot</sym>
</trkpt>
<trkpt lat="47.673875" lon="15.968503">
<ele>475.5</ele>
<desc>Speed 68.4 km/h Distance 162 km</desc>
<time>2012-09-18T18:20:34.08</time>
<name>8483</name>
<sym>Dot</sym>
</trkpt>
<trkpt lat="47.673878" lon="15.968753">
<ele>475.5</ele>
<desc>Speed 67.8 km/h Distance 162 km</desc>
<time>2012-09-18T18:20:35.06</time>
<name>8484</name>
<sym>Dot</sym>
</trkpt>
<trkpt lat="47.673877" lon="15.969002">
<ele>475.5</ele>
<desc>Speed 67.4 km/h Distance 162 km</desc>
<time>2012-09-18T18:20:36.13</time>
<name>8485</name>
<sym>Dot</sym>
</trkpt>
<trkpt lat="47.673873" lon="15.969250">
<ele>475.5</ele>
<desc>Speed 67.0 km/h Distance 162 km</desc>
<time>2012-09-18T18:20:37.05</time>
<name>8486</name>
<sym>Dot</sym>
</trkpt>
<trkpt lat="47.673863" lon="15.969495">
<ele>475.5</ele>
<desc>Speed 66.6 km/h Distance 162 km</desc>
<time>2012-09-18T18:20:38.05</time>
<name>8487</name>
<sym>Dot</sym>
</trkpt>
<trkpt lat="47.673848" lon="15.969738">
<ele>475.5</ele>
<desc>Speed 66.2 km/h Distance 162 km</desc>
<time>2012-09-18T18:20:39.05</time>
<name>8488</name>
<sym>Dot</sym>
</trkpt>
<trkpt lat="47.673833" lon="15.969980">
<ele>476.0</ele>
<desc>Speed 65.8 km/h Distance 162 km</desc>
<time>2012-09-18T18:20:40.05</time>
<name>8489</name>
<sym>Dot</sym>
</trkpt>
<trkpt lat="47.673815" lon="15.970220">
<ele>476.0</ele>
<desc>Speed 65.2 km/h Distance 162 km</desc>
<time>2012-09-18T18:20:41.03</time>
<name>8490</name>
<sym>Dot</sym>
</trkpt>
<trkpt lat="47.673795" lon="15.970458">
<ele>476.0</ele>
<desc>Speed 64.8 km/h Distance 162 km</desc>
<time>2012-09-18T18:20:42.03</time>
<name>8491</name>
<sym>Dot</sym>
</trkpt>
<trkpt lat="47.673775" lon="15.970697">
<ele>476.5</ele>
<desc>Speed 64.4 km/h Distance 162 km</desc>
<time>2012-09-18T18:20:43.01</time>
<name>8492</name>
<sym>Dot</sym>
</trkpt>
<trkpt lat="47.673757" lon="15.970930">
<ele>476.5</ele>
<desc>Speed 63.8 km/h Distance 162 km</desc>
<time>2012-09-18T18:20:44.00</time>
<name>8493</name>
<sym>Dot</sym>
</trkpt>
<trkpt lat="47.673740" lon="15.971165">
<ele>477.0</ele>
<desc>Speed 63.5 km/h Distance 162 km</desc>
<time>2012-09-18T18:20:45.07</time>
<name>8494</name>
<sym>Dot</sym>
</trkpt>
<trkpt lat="47.673723" lon="15.971403">
<ele>477.0</ele>
<desc>Speed 64.9 km/h Distance 162 km</desc>
<time>2012-09-18T18:20:45.99</time>
<name>8495</name>
<sym>Dot</sym>
</trkpt>
<trkpt lat="47.673707" lon="15.971655">
<ele>477.5</ele>
<desc>Speed 68.0 km/h Distance 162 km</desc>
<time>2012-09-18T18:20:46.98</time>
<name>8496</name>
<sym>Dot</sym>
</trkpt>
<trkpt lat="47.673698" lon="15.971922">
<ele>477.0</ele>
<desc>Speed 71.9 km/h Distance 162 km</desc>
<time>2012-09-18T18:20:47.99</time>
<name>8497</name>
<sym>Dot</sym>
</trkpt>
<trkpt lat="47.673695" lon="15.972187">
<ele>477.0</ele>
<desc>Speed 71.7 km/h Distance 162 km</desc>
<time>2012-09-18T18:20:48.97</time>
<name>8498</name>
<sym>Dot</sym>
</trkpt>
<trkpt lat="47.673697" lon="15.972447">
<ele>477.0</ele>
<desc>Speed 70.6 km/h Distance 162 km</desc>
<time>2012-09-18T18:20:49.97</time>
<name>8499</name>
<sym>Dot</sym>
</trkpt>
<trkpt lat="47.673702" lon="15.972705">
<ele>477.0</ele>
<desc>Speed 70.1 km/h Distance 162 km</desc>
<time>2012-09-18T18:20:50.96</time>
<name>8500</name>
<sym>Dot</sym>
</trkpt>
<trkpt lat="47.673710" lon="15.972962">
<ele>477.0</ele>
<desc>Speed 69.5 km/h Distance 162 km</desc>
<time>2012-09-18T18:20:51.95</time>
<name>8501</name>
<sym>Dot</sym>
</trkpt>
<trkpt lat="47.673723" lon="15.973218">
<ele>477.0</ele>
<desc>Speed 69.5 km/h Distance 162 km</desc>
<time>2012-09-18T18:20:53.04</time>
<name>8502</name>
<sym>Dot</sym>
</trkpt>
<trkpt lat="47.673742" lon="15.973473">
<ele>477.0</ele>
<desc>Speed 69.1 km/h Distance 162 km</desc>
<time>2012-09-18T18:20:53.95</time>
<name>8503</name>
<sym>Dot</sym>
</trkpt>
<trkpt lat="47.673763" lon="15.973725">
<ele>477.0</ele>
<desc>Speed 68.8 km/h Distance 162 km</desc>
<time>2012-09-18T18:20:54.94</time>
<name>8504</name>
<sym>Dot</sym>
</trkpt>
<trkpt lat="47.673793" lon="15.973973">
<ele>476.5</ele>
<desc>Speed 68.5 km/h Distance 162 km</desc>
<time>2012-09-18T18:20:55.94</time>
<name>8505</name>
<sym>Dot</sym>
</trkpt>
<trkpt lat="47.673827" lon="15.974223">
<ele>477.0</ele>
<desc>Speed 68.9 km/h Distance 162 km</desc>
<time>2012-09-18T18:20:56.94</time>
<name>8506</name>
<sym>Dot</sym>
</trkpt>
<trkpt lat="47.673863" lon="15.974477">
<ele>477.0</ele>
<desc>Speed 70.0 km/h Distance 162 km</desc>
<time>2012-09-18T18:20:57.93</time>
<name>8507</name>
<sym>Dot</sym>
</trkpt>
<trkpt lat="47.673907" lon="15.974737">
<ele>477.0</ele>
<desc>Speed 72.3 km/h Distance 162 km</desc>
<time>2012-09-18T18:20:58.92</time>
<name>8508</name>
<sym>Dot</sym>
</trkpt>
<trkpt lat="47.673957" lon="15.975007">
<ele>477.0</ele>
<desc>Speed 76.1 km/h Distance 162 km</desc>
<time>2012-09-18T18:20:59.92</time>
<name>8509</name>
<sym>Dot</sym>
</trkpt>
<trkpt lat="47.674013" lon="15.975272">
<ele>477.5</ele>
<desc>Speed 74.8 km/h Distance 162 km</desc>
<time>2012-09-18T18:21:00.99</time>
<name>8510</name>
<sym>Dot</sym>
</trkpt>
<trkpt lat="47.674073" lon="15.975523">
<ele>477.5</ele>
<desc>Speed 72.4 km/h Distance 162 km</desc>
<time>2012-09-18T18:21:01.90</time>
<name>8511</name>
<sym>Dot</sym>
</trkpt>
<trkpt lat="47.674135" lon="15.975775">
<ele>477.5</ele>
<desc>Speed 72.4 km/h Distance 162 km</desc>
<time>2012-09-18T18:21:02.89</time>
<name>8512</name>
<sym>Dot</sym>
</trkpt>
<trkpt lat="47.674198" lon="15.976027">
<ele>477.5</ele>
<desc>Speed 72.7 km/h Distance 162 km</desc>
<time>2012-09-18T18:21:03.89</time>
<name>8513</name>
<sym>Dot</sym>
</trkpt>
<trkpt lat="47.674327" lon="15.976538">
<ele>478.5</ele>
<desc>Speed 73.8 km/h Distance 163 km</desc>
<time>2012-09-18T18:21:05.89</time>
<name>8514</name>
<sym>Dot</sym>
</trkpt>
<trkpt lat="47.674452" lon="15.977057">
<ele>479.5</ele>
<desc>Speed 74.6 km/h Distance 163 km</desc>
<time>2012-09-18T18:21:07.90</time>
<name>8515</name>
<sym>Dot</sym>
</trkpt>
<trkpt lat="47.674578" lon="15.977577">
<ele>480.5</ele>
<desc>Speed 74.7 km/h Distance 163 km</desc>
<time>2012-09-18T18:21:09.88</time>
<name>8516</name>
<sym>Dot</sym>
</trkpt>
<trkpt lat="47.674642" lon="15.977833">
<ele>481.0</ele>
<desc>Speed 73.7 km/h Distance 163 km</desc>
<time>2012-09-18T18:21:10.87</time>
<name>8517</name>
<sym>Dot</sym>
</trkpt>
<trkpt lat="47.674703" lon="15.978082">
<ele>482.0</ele>
<desc>Speed 71.6 km/h Distance 163 km</desc>
<time>2012-09-18T18:21:11.87</time>
<name>8518</name>
<sym>Dot</sym>
</trkpt>
<trkpt lat="47.674765" lon="15.978325">
<ele>482.5</ele>
<desc>Speed 70.1 km/h Distance 163 km</desc>
<time>2012-09-18T18:21:12.87</time>
<name>8519</name>
<sym>Dot</sym>
</trkpt>
<trkpt lat="47.674825" lon="15.978567">
<ele>483.0</ele>
<desc>Speed 69.5 km/h Distance 163 km</desc>
<time>2012-09-18T18:21:13.87</time>
<name>8520</name>
<sym>Dot</sym>
</trkpt>
<trkpt lat="47.674887" lon="15.978808">
<ele>483.5</ele>
<desc>Speed 69.7 km/h Distance 163 km</desc>
<time>2012-09-18T18:21:14.86</time>
<name>8521</name>
<sym>Dot</sym>
</trkpt>
<trkpt lat="47.674948" lon="15.979050">
<ele>484.0</ele>
<desc>Speed 70.1 km/h Distance 163 km</desc>
<time>2012-09-18T18:21:15.85</time>
<name>8522</name>
<sym>Dot</sym>
</trkpt>
<trkpt lat="47.675008" lon="15.979297">
<ele>484.5</ele>
<desc>Speed 70.8 km/h Distance 163 km</desc>
<time>2012-09-18T18:21:16.91</time>
<name>8523</name>
<sym>Dot</sym>
</trkpt>
<trkpt lat="47.675068" lon="15.979547">
<ele>484.5</ele>
<desc>Speed 71.4 km/h Distance 163 km</desc>
<time>2012-09-18T18:21:17.85</time>
<name>8524</name>
<sym>Dot</sym>
</trkpt>
<trkpt lat="47.675128" lon="15.979798">
<ele>484.5</ele>
<desc>Speed 72.1 km/h Distance 163 km</desc>
<time>2012-09-18T18:21:18.84</time>
<name>8525</name>
<sym>Dot</sym>
</trkpt>
<trkpt lat="47.675190" lon="15.980053">
<ele>484.5</ele>
<desc>Speed 73.0 km/h Distance 163 km</desc>
<time>2012-09-18T18:21:19.84</time>
<name>8526</name>
<sym>Dot</sym>
</trkpt>
<trkpt lat="47.675252" lon="15.980310">
<ele>484.5</ele>
<desc>Speed 73.9 km/h Distance 163 km</desc>
<time>2012-09-18T18:21:20.83</time>
<name>8527</name>
<sym>Dot</sym>
</trkpt>
<trkpt lat="47.675315" lon="15.980570">
<ele>484.5</ele>
<desc>Speed 74.5 km/h Distance 163 km</desc>
<time>2012-09-18T18:21:21.82</time>
<name>8528</name>
<sym>Dot</sym>
</trkpt>
<trkpt lat="47.675380" lon="15.980832">
<ele>484.0</ele>
<desc>Speed 75.5 km/h Distance 163 km</desc>
<time>2012-09-18T18:21:22.81</time>
<name>8529</name>
<sym>Dot</sym>
</trkpt>
<trkpt lat="47.675448" lon="15.981097">
<ele>483.5</ele>
<desc>Speed 76.6 km/h Distance 163 km</desc>
<time>2012-09-18T18:21:23.82</time>
<name>8530</name>
<sym>Dot</sym>
</trkpt>
<trkpt lat="47.675513" lon="15.981355">
<ele>483.5</ele>
<desc>Speed 74.4 km/h Distance 163 km</desc>
<time>2012-09-18T18:21:24.86</time>
<name>8531</name>
<sym>Dot</sym>
</trkpt>
<trkpt lat="47.675577" lon="15.981603">
<ele>483.0</ele>
<desc>Speed 72.1 km/h Distance 163 km</desc>
<time>2012-09-18T18:21:25.81</time>
<name>8532</name>
<sym>Dot</sym>
</trkpt>
<trkpt lat="47.675640" lon="15.981855">
<ele>482.5</ele>
<desc>Speed 72.5 km/h Distance 163 km</desc>
<time>2012-09-18T18:21:26.80</time>
<name>8533</name>
<sym>Dot</sym>
</trkpt>
<trkpt lat="47.675707" lon="15.982113">
<ele>482.0</ele>
<desc>Speed 74.3 km/h Distance 163 km</desc>
<time>2012-09-18T18:21:27.80</time>
<name>8534</name>
<sym>Dot</sym>
</trkpt>
<trkpt lat="47.675773" lon="15.982380">
<ele>481.5</ele>
<desc>Speed 76.9 km/h Distance 163 km</desc>
<time>2012-09-18T18:21:28.79</time>
<name>8535</name>
<sym>Dot</sym>
</trkpt>
<trkpt lat="47.675843" lon="15.982653">
<ele>481.0</ele>
<desc>Speed 78.9 km/h Distance 163 km</desc>
<time>2012-09-18T18:21:29.79</time>
<name>8536</name>
<sym>Dot</sym>
</trkpt>
<trkpt lat="47.675915" lon="15.982943">
<ele>480.5</ele>
<desc>Speed 83.3 km/h Distance 163 km</desc>
<time>2012-09-18T18:21:30.78</time>
<name>8537</name>
<sym>Dot</sym>
</trkpt>
<trkpt lat="47.675993" lon="15.983253">
<ele>479.5</ele>
<desc>Speed 89.5 km/h Distance 163 km</desc>
<time>2012-09-18T18:21:31.78</time>
<name>8538</name>
<sym>Dot</sym>
</trkpt>
<trkpt lat="47.676162" lon="15.983943">
<ele>480.0</ele>
<desc>Speed 101 km/h Distance 163 km</desc>
<time>2012-09-18T18:21:33.77</time>
<name>8539</name>
<sym>Dot</sym>
</trkpt>
<trkpt lat="47.676258" lon="15.984293">
<ele>479.5</ele>
<desc>Speed 102 km/h Distance 163 km</desc>
<time>2012-09-18T18:21:34.76</time>
<name>8540</name>
<sym>Dot</sym>
</trkpt>
<trkpt lat="47.676363" lon="15.984645">
<ele>479.0</ele>
<desc>Speed 104 km/h Distance 163 km</desc>
<time>2012-09-18T18:21:35.76</time>
<name>8541</name>
<sym>Dot</sym>
</trkpt>
<trkpt lat="47.676478" lon="15.984998">
<ele>478.0</ele>
<desc>Speed 106 km/h Distance 163 km</desc>
<time>2012-09-18T18:21:36.76</time>
<name>8542</name>
<sym>Dot</sym>
</trkpt>
<trkpt lat="47.676602" lon="15.985358">
<ele>477.5</ele>
<desc>Speed 109 km/h Distance 163 km</desc>
<time>2012-09-18T18:21:37.75</time>
<name>8543</name>
<sym>Dot</sym>
</trkpt>
<trkpt lat="47.676737" lon="15.985728">
<ele>477.0</ele>
<desc>Speed 114 km/h Distance 163 km</desc>
<time>2012-09-18T18:21:38.74</time>
<name>8544</name>
<sym>Dot</sym>
</trkpt>
<trkpt lat="47.676882" lon="15.986108">
<ele>476.5</ele>
<desc>Speed 118 km/h Distance 163 km</desc>
<time>2012-09-18T18:21:39.74</time>
<name>8545</name>
<sym>Dot</sym>
</trkpt>
<trkpt lat="47.677032" lon="15.986492">
<ele>476.0</ele>
<desc>Speed 120 km/h Distance 163 km</desc>
<time>2012-09-18T18:21:40.78</time>
<name>8546</name>
<sym>Dot</sym>
</trkpt>
<trkpt lat="47.677178" lon="15.986862">
<ele>475.5</ele>
<desc>Speed 116 km/h Distance 163 km</desc>
<time>2012-09-18T18:21:41.73</time>
<name>8547</name>
<sym>Dot</sym>
</trkpt>
<trkpt lat="47.677318" lon="15.987210">
<ele>475.0</ele>
<desc>Speed 110 km/h Distance 163 km</desc>
<time>2012-09-18T18:21:42.72</time>
<name>8548</name>
<sym>Dot</sym>
</trkpt>
<trkpt lat="47.677453" lon="15.987552">
<ele>475.0</ele>
<desc>Speed 107 km/h Distance 163 km</desc>
<time>2012-09-18T18:21:43.72</time>
<name>8549</name>
<sym>Dot</sym>
</trkpt>
<trkpt lat="47.677587" lon="15.987892">
<ele>474.5</ele>
<desc>Speed 106 km/h Distance 163 km</desc>
<time>2012-09-18T18:21:44.71</time>
<name>8550</name>
<sym>Dot</sym>
</trkpt>
<trkpt lat="47.677710" lon="15.988227">
<ele>474.5</ele>
<desc>Speed 103 km/h Distance 163 km</desc>
<time>2012-09-18T18:21:45.70</time>
<name>8551</name>
<sym>Dot</sym>
</trkpt>
<trkpt lat="47.677823" lon="15.988550">
<ele>474.0</ele>
<desc>Speed 98.5 km/h Distance 163 km</desc>
<time>2012-09-18T18:21:46.70</time>
<name>8552</name>
<sym>Dot</sym>
</trkpt>
<trkpt lat="47.677927" lon="15.988865">
<ele>474.0</ele>
<desc>Speed 94.6 km/h Distance 164 km</desc>
<time>2012-09-18T18:21:47.68</time>
<name>8553</name>
<sym>Dot</sym>
</trkpt>
<trkpt lat="47.678025" lon="15.989180">
<ele>473.5</ele>
<desc>Speed 93.2 km/h Distance 164 km</desc>
<time>2012-09-18T18:21:48.70</time>
<name>8554</name>
<sym>Dot</sym>
</trkpt>
<trkpt lat="47.678117" lon="15.989492">
<ele>473.5</ele>
<desc>Speed 92.1 km/h Distance 164 km</desc>
<time>2012-09-18T18:21:49.79</time>
<name>8555</name>
<sym>Dot</sym>
</trkpt>
<trkpt lat="47.678202" lon="15.989797">
<ele>473.5</ele>
<desc>Speed 89.0 km/h Distance 164 km</desc>
<time>2012-09-18T18:21:50.68</time>
<name>8556</name>
<sym>Dot</sym>
</trkpt>
<trkpt lat="47.678287" lon="15.990093">
<ele>473.5</ele>
<desc>Speed 87.2 km/h Distance 164 km</desc>
<time>2012-09-18T18:21:51.67</time>
<name>8557</name>
<sym>Dot</sym>
</trkpt>
<trkpt lat="47.678372" lon="15.990393">
<ele>473.5</ele>
<desc>Speed 87.6 km/h Distance 164 km</desc>
<time>2012-09-18T18:21:52.67</time>
<name>8558</name>
<sym>Dot</sym>
</trkpt>
<trkpt lat="47.678455" lon="15.990683">
<ele>473.5</ele>
<desc>Speed 85.0 km/h Distance 164 km</desc>
<time>2012-09-18T18:21:53.66</time>
<name>8559</name>
<sym>Dot</sym>
</trkpt>
<trkpt lat="47.678535" lon="15.990970">
<ele>473.5</ele>
<desc>Speed 84.0 km/h Distance 164 km</desc>
<time>2012-09-18T18:21:54.66</time>
<name>8560</name>
<sym>Dot</sym>
</trkpt>
<trkpt lat="47.678617" lon="15.991257">
<ele>473.5</ele>
<desc>Speed 83.9 km/h Distance 164 km</desc>
<time>2012-09-18T18:21:55.65</time>
<name>8561</name>
<sym>Dot</sym>
</trkpt>
<trkpt lat="47.678700" lon="15.991542">
<ele>473.5</ele>
<desc>Speed 83.9 km/h Distance 164 km</desc>
<time>2012-09-18T18:21:56.64</time>
<name>8562</name>
<sym>Dot</sym>
</trkpt>
<trkpt lat="47.678780" lon="15.991827">
<ele>473.5</ele>
<desc>Speed 83.5 km/h Distance 164 km</desc>
<time>2012-09-18T18:21:57.72</time>
<name>8563</name>
<sym>Dot</sym>
</trkpt>
<trkpt lat="47.678862" lon="15.992110">
<ele>473.5</ele>
<desc>Speed 83.2 km/h Distance 164 km</desc>
<time>2012-09-18T18:21:58.64</time>
<name>8564</name>
<sym>Dot</sym>
</trkpt>
<trkpt lat="47.678945" lon="15.992388">
<ele>473.5</ele>
<desc>Speed 82.5 km/h Distance 164 km</desc>
<time>2012-09-18T18:21:59.64</time>
<name>8565</name>
<sym>Dot</sym>
</trkpt>
<trkpt lat="47.679032" lon="15.992660">
<ele>473.5</ele>
<desc>Speed 81.1 km/h Distance 164 km</desc>
<time>2012-09-18T18:22:00.63</time>
<name>8566</name>
<sym>Dot</sym>
</trkpt>
<trkpt lat="47.679120" lon="15.992927">
<ele>473.5</ele>
<desc>Speed 80.1 km/h Distance 164 km</desc>
<time>2012-09-18T18:22:01.63</time>
<name>8567</name>
<sym>Dot</sym>
</trkpt>
<trkpt lat="47.679207" lon="15.993190">
<ele>473.5</ele>
<desc>Speed 79.2 km/h Distance 164 km</desc>
<time>2012-09-18T18:22:02.63</time>
<name>8568</name>
<sym>Dot</sym>
</trkpt>
<trkpt lat="47.679293" lon="15.993450">
<ele>473.5</ele>
<desc>Speed 78.1 km/h Distance 164 km</desc>
<time>2012-09-18T18:22:03.62</time>
<name>8569</name>
<sym>Dot</sym>
</trkpt>
<trkpt lat="47.679378" lon="15.993707">
<ele>473.5</ele>
<desc>Speed 77.1 km/h Distance 164 km</desc>
<time>2012-09-18T18:22:04.61</time>
<name>8570</name>
<sym>Dot</sym>
</trkpt>
<trkpt lat="47.679462" lon="15.993962">
<ele>473.0</ele>
<desc>Speed 76.9 km/h Distance 164 km</desc>
<time>2012-09-18T18:22:05.61</time>
<name>8571</name>
<sym>Dot</sym>
</trkpt>
<trkpt lat="47.679550" lon="15.994220">
<ele>473.0</ele>
<desc>Speed 77.9 km/h Distance 164 km</desc>
<time>2012-09-18T18:22:06.71</time>
<name>8572</name>
<sym>Dot</sym>
</trkpt>
<trkpt lat="47.679642" lon="15.994485">
<ele>473.0</ele>
<desc>Speed 80.6 km/h Distance 164 km</desc>
<time>2012-09-18T18:22:07.60</time>
<name>8573</name>
<sym>Dot</sym>
</trkpt>
<trkpt lat="47.679742" lon="15.994757">
<ele>472.5</ele>
<desc>Speed 83.2 km/h Distance 164 km</desc>
<time>2012-09-18T18:22:08.60</time>
<name>8574</name>
<sym>Dot</sym>
</trkpt>
<trkpt lat="47.679843" lon="15.995023">
<ele>472.5</ele>
<desc>Speed 82.8 km/h Distance 164 km</desc>
<time>2012-09-18T18:22:09.59</time>
<name>8575</name>
<sym>Dot</sym>
</trkpt>
<trkpt lat="47.679952" lon="15.995295">
<ele>472.0</ele>
<desc>Speed 84.8 km/h Distance 164 km</desc>
<time>2012-09-18T18:22:10.59</time>
<name>8576</name>
<sym>Dot</sym>
</trkpt>
<trkpt lat="47.680063" lon="15.995575">
<ele>472.0</ele>
<desc>Speed 87.5 km/h Distance 164 km</desc>
<time>2012-09-18T18:22:11.59</time>
<name>8577</name>
<sym>Dot</sym>
</trkpt>
<trkpt lat="47.680182" lon="15.995865">
<ele>471.5</ele>
<desc>Speed 91.4 km/h Distance 164 km</desc>
<time>2012-09-18T18:22:12.59</time>
<name>8578</name>
<sym>Dot</sym>
</trkpt>
<trkpt lat="47.680305" lon="15.996160">
<ele>471.0</ele>
<desc>Speed 93.2 km/h Distance 164 km</desc>
<time>2012-09-18T18:22:13.58</time>
<name>8579</name>
<sym>Dot</sym>
</trkpt>
<trkpt lat="47.680428" lon="15.996448">
<ele>470.5</ele>
<desc>Speed 91.9 km/h Distance 164 km</desc>
<time>2012-09-18T18:22:14.58</time>
<name>8580</name>
<sym>Dot</sym>
</trkpt>
<trkpt lat="47.680553" lon="15.996732">
<ele>470.0</ele>
<desc>Speed 91.0 km/h Distance 164 km</desc>
<time>2012-09-18T18:22:15.71</time>
<name>8581</name>
<sym>Dot</sym>
</trkpt>
<trkpt lat="47.680680" lon="15.997013">
<ele>469.0</ele>
<desc>Speed 90.9 km/h Distance 164 km</desc>
<time>2012-09-18T18:22:16.56</time>
<name>8582</name>
<sym>Dot</sym>
</trkpt>
<trkpt lat="47.680808" lon="15.997292">
<ele>468.5</ele>
<desc>Speed 90.4 km/h Distance 164 km</desc>
<time>2012-09-18T18:22:17.56</time>
<name>8583</name>
<sym>Dot</sym>
</trkpt>
<trkpt lat="47.680935" lon="15.997568">
<ele>468.0</ele>
<desc>Speed 90.2 km/h Distance 164 km</desc>
<time>2012-09-18T18:22:18.56</time>
<name>8584</name>
<sym>Dot</sym>
</trkpt>
<trkpt lat="47.681063" lon="15.997845">
<ele>467.5</ele>
<desc>Speed 90.1 km/h Distance 164 km</desc>
<time>2012-09-18T18:22:19.56</time>
<name>8585</name>
<sym>Dot</sym>
</trkpt>
<trkpt lat="47.681190" lon="15.998122">
<ele>466.5</ele>
<desc>Speed 90.1 km/h Distance 164 km</desc>
<time>2012-09-18T18:22:20.56</time>
<name>8586</name>
<sym>Dot</sym>
</trkpt>
<trkpt lat="47.681315" lon="15.998398">
<ele>466.0</ele>
<desc>Speed 89.9 km/h Distance 164 km</desc>
<time>2012-09-18T18:22:21.55</time>
<name>8587</name>
<sym>Dot</sym>
</trkpt>
<trkpt lat="47.681438" lon="15.998678">
<ele>465.5</ele>
<desc>Speed 90.5 km/h Distance 164 km</desc>
<time>2012-09-18T18:22:22.55</time>
<name>8588</name>
<sym>Dot</sym>
</trkpt>
<trkpt lat="47.681565" lon="15.998967">
<ele>465.0</ele>
<desc>Speed 92.7 km/h Distance 164 km</desc>
<time>2012-09-18T18:22:23.54</time>
<name>8589</name>
<sym>Dot</sym>
</trkpt>
<trkpt lat="47.681695" lon="15.999260">
<ele>464.5</ele>
<desc>Speed 94.6 km/h Distance 164 km</desc>
<time>2012-09-18T18:22:24.62</time>
<name>8590</name>
<sym>Dot</sym>
</trkpt>
<trkpt lat="47.681827" lon="15.999560">
<ele>464.5</ele>
<desc>Speed 96.5 km/h Distance 164 km</desc>
<time>2012-09-18T18:22:25.54</time>
<name>8591</name>
<sym>Dot</sym>
</trkpt>
<trkpt lat="47.681958" lon="15.999862">
<ele>464.0</ele>
<desc>Speed 96.9 km/h Distance 164 km</desc>
<time>2012-09-18T18:22:26.54</time>
<name>8592</name>
<sym>Dot</sym>
</trkpt>
<trkpt lat="47.682087" lon="16.000160">
<ele>464.0</ele>
<desc>Speed 95.0 km/h Distance 164 km</desc>
<time>2012-09-18T18:22:27.54</time>
<name>8593</name>
<sym>Dot</sym>
</trkpt>
<trkpt lat="47.682208" lon="16.000445">
<ele>464.0</ele>
<desc>Speed 90.9 km/h Distance 165 km</desc>
<time>2012-09-18T18:22:28.54</time>
<name>8594</name>
<sym>Dot</sym>
</trkpt>
<trkpt lat="47.682320" lon="16.000717">
<ele>464.0</ele>
<desc>Speed 86.0 km/h Distance 165 km</desc>
<time>2012-09-18T18:22:29.53</time>
<name>8595</name>
<sym>Dot</sym>
</trkpt>
<trkpt lat="47.682432" lon="16.000990">
<ele>464.0</ele>
<desc>Speed 86.4 km/h Distance 165 km</desc>
<time>2012-09-18T18:22:30.53</time>
<name>8596</name>
<sym>Dot</sym>
</trkpt>
<trkpt lat="47.682542" lon="16.001265">
<ele>464.0</ele>
<desc>Speed 86.3 km/h Distance 165 km</desc>
<time>2012-09-18T18:22:31.51</time>
<name>8597</name>
<sym>Dot</sym>
</trkpt>
<trkpt lat="47.682647" lon="16.001530">
<ele>464.0</ele>
<desc>Speed 82.6 km/h Distance 165 km</desc>
<time>2012-09-18T18:22:32.58</time>
<name>8598</name>
<sym>Dot</sym>
</trkpt>
<trkpt lat="47.682745" lon="16.001777">
<ele>464.0</ele>
<desc>Speed 77.4 km/h Distance 165 km</desc>
<time>2012-09-18T18:22:33.51</time>
<name>8599</name>
<sym>Dot</sym>
</trkpt>
<trkpt lat="47.682837" lon="16.002013">
<ele>464.0</ele>
<desc>Speed 73.7 km/h Distance 165 km</desc>
<time>2012-09-18T18:22:34.51</time>
<name>8600</name>
<sym>Dot</sym>
</trkpt>
<trkpt lat="47.682927" lon="16.002247">
<ele>464.5</ele>
<desc>Speed 72.2 km/h Distance 165 km</desc>
<time>2012-09-18T18:22:35.51</time>
<name>8601</name>
<sym>Dot</sym>
</trkpt>
<trkpt lat="47.683015" lon="16.002477">
<ele>465.0</ele>
<desc>Speed 71.6 km/h Distance 165 km</desc>
<time>2012-09-18T18:22:36.51</time>
<name>8602</name>
<sym>Dot</sym>
</trkpt>
<trkpt lat="47.683102" lon="16.002705">
<ele>465.0</ele>
<desc>Speed 70.5 km/h Distance 165 km</desc>
<time>2012-09-18T18:22:37.50</time>
<name>8603</name>
<sym>Dot</sym>
</trkpt>
<trkpt lat="47.683190" lon="16.002932">
<ele>465.5</ele>
<desc>Speed 70.5 km/h Distance 165 km</desc>
<time>2012-09-18T18:22:38.50</time>
<name>8604</name>
<sym>Dot</sym>
</trkpt>
<trkpt lat="47.683277" lon="16.003162">
<ele>466.0</ele>
<desc>Speed 71.0 km/h Distance 165 km</desc>
<time>2012-09-18T18:22:39.49</time>
<name>8605</name>
<sym>Dot</sym>
</trkpt>
<trkpt lat="47.683362" lon="16.003392">
<ele>466.0</ele>
<desc>Speed 70.6 km/h Distance 165 km</desc>
<time>2012-09-18T18:22:40.49</time>
<name>8606</name>
<sym>Dot</sym>
</trkpt>
<trkpt lat="47.683447" lon="16.003615">
<ele>466.5</ele>
<desc>Speed 69.4 km/h Distance 165 km</desc>
<time>2012-09-18T18:22:41.59</time>
<name>8607</name>
<sym>Dot</sym>
</trkpt>
<trkpt lat="47.683528" lon="16.003837">
<ele>467.0</ele>
<desc>Speed 68.1 km/h Distance 165 km</desc>
<time>2012-09-18T18:22:42.47</time>
<name>8608</name>
<sym>Dot</sym>
</trkpt>
<trkpt lat="47.683612" lon="16.004053">
<ele>467.0</ele>
<desc>Speed 67.3 km/h Distance 165 km</desc>
<time>2012-09-18T18:22:43.45</time>
<name>8609</name>
<sym>Dot</sym>
</trkpt>
<trkpt lat="47.683697" lon="16.004267">
<ele>467.5</ele>
<desc>Speed 66.9 km/h Distance 165 km</desc>
<time>2012-09-18T18:22:44.45</time>
<name>8610</name>
<sym>Dot</sym>
</trkpt>
<trkpt lat="47.683782" lon="16.004475">
<ele>468.0</ele>
<desc>Speed 66.1 km/h Distance 165 km</desc>
<time>2012-09-18T18:22:45.44</time>
<name>8611</name>
<sym>Dot</sym>
</trkpt>
<trkpt lat="47.683872" lon="16.004683">
<ele>468.0</ele>
<desc>Speed 66.7 km/h Distance 165 km</desc>
<time>2012-09-18T18:22:46.44</time>
<name>8612</name>
<sym>Dot</sym>
</trkpt>
<trkpt lat="47.683967" lon="16.004888">
<ele>468.0</ele>
<desc>Speed 67.0 km/h Distance 165 km</desc>
<time>2012-09-18T18:22:47.43</time>
<name>8613</name>
<sym>Dot</sym>
</trkpt>
<trkpt lat="47.684062" lon="16.005090">
<ele>468.0</ele>
<desc>Speed 66.7 km/h Distance 165 km</desc>
<time>2012-09-18T18:22:48.43</time>
<name>8614</name>
<sym>Dot</sym>
</trkpt>
<trkpt lat="47.684162" lon="16.005288">
<ele>468.0</ele>
<desc>Speed 67.0 km/h Distance 165 km</desc>
<time>2012-09-18T18:22:49.42</time>
<name>8615</name>
<sym>Dot</sym>
</trkpt>
<trkpt lat="47.684263" lon="16.005482">
<ele>468.0</ele>
<desc>Speed 66.4 km/h Distance 165 km</desc>
<time>2012-09-18T18:22:50.42</time>
<name>8616</name>
<sym>Dot</sym>
</trkpt>
<trkpt lat="47.684368" lon="16.005670">
<ele>468.0</ele>
<desc>Speed 66.1 km/h Distance 165 km</desc>
<time>2012-09-18T18:22:51.41</time>
<name>8617</name>
<sym>Dot</sym>
</trkpt>
<trkpt lat="47.684477" lon="16.005858">
<ele>468.0</ele>
<desc>Speed 66.7 km/h Distance 165 km</desc>
<time>2012-09-18T18:22:52.41</time>
<name>8618</name>
<sym>Dot</sym>
</trkpt>
<trkpt lat="47.684590" lon="16.006047">
<ele>468.0</ele>
<desc>Speed 68.2 km/h Distance 165 km</desc>
<time>2012-09-18T18:22:53.47</time>
<name>8619</name>
<sym>Dot</sym>
</trkpt>
<trkpt lat="47.684712" lon="16.006243">
<ele>467.5</ele>
<desc>Speed 71.4 km/h Distance 165 km</desc>
<time>2012-09-18T18:22:54.40</time>
<name>8620</name>
<sym>Dot</sym>
</trkpt>
<trkpt lat="47.684835" lon="16.006437">
<ele>467.5</ele>
<desc>Speed 71.9 km/h Distance 165 km</desc>
<time>2012-09-18T18:22:55.39</time>
<name>8621</name>
<sym>Dot</sym>
</trkpt>
<trkpt lat="47.684958" lon="16.006625">
<ele>467.5</ele>
<desc>Speed 70.3 km/h Distance 165 km</desc>
<time>2012-09-18T18:22:56.39</time>
<name>8622</name>
<sym>Dot</sym>
</trkpt>
<trkpt lat="47.685078" lon="16.006808">
<ele>467.0</ele>
<desc>Speed 68.6 km/h Distance 165 km</desc>
<time>2012-09-18T18:22:57.38</time>
<name>8623</name>
<sym>Dot</sym>
</trkpt>
<trkpt lat="47.685195" lon="16.006990">
<ele>466.5</ele>
<desc>Speed 67.3 km/h Distance 165 km</desc>
<time>2012-09-18T18:22:58.38</time>
<name>8624</name>
<sym>Dot</sym>
</trkpt>
<trkpt lat="47.685308" lon="16.007173">
<ele>466.0</ele>
<desc>Speed 67.0 km/h Distance 165 km</desc>
<time>2012-09-18T18:22:59.37</time>
<name>8625</name>
<sym>Dot</sym>
</trkpt>
<trkpt lat="47.685423" lon="16.007357">
<ele>466.0</ele>
<desc>Speed 67.3 km/h Distance 165 km</desc>
<time>2012-09-18T18:23:00.37</time>
<name>8626</name>
<sym>Dot</sym>
</trkpt>
<trkpt lat="47.685535" lon="16.007543">
<ele>465.5</ele>
<desc>Speed 67.1 km/h Distance 165 km</desc>
<time>2012-09-18T18:23:01.36</time>
<name>8627</name>
<sym>Dot</sym>
</trkpt>
<trkpt lat="47.685648" lon="16.007735">
<ele>465.0</ele>
<desc>Speed 68.8 km/h Distance 165 km</desc>
<time>2012-09-18T18:23:02.36</time>
<name>8628</name>
<sym>Dot</sym>
</trkpt>
<trkpt lat="47.685765" lon="16.007947">
<ele>464.5</ele>
<desc>Speed 73.7 km/h Distance 165 km</desc>
<time>2012-09-18T18:23:03.35</time>
<name>8629</name>
<sym>Dot</sym>
</trkpt>
<trkpt lat="47.685880" lon="16.008162">
<ele>464.0</ele>
<desc>Speed 73.3 km/h Distance 165 km</desc>
<time>2012-09-18T18:23:04.35</time>
<name>8630</name>
<sym>Dot</sym>
</trkpt>
<trkpt lat="47.685987" lon="16.008367">
<ele>463.5</ele>
<desc>Speed 69.7 km/h Distance 165 km</desc>
<time>2012-09-18T18:23:05.34</time>
<name>8631</name>
<sym>Dot</sym>
</trkpt>
<trkpt lat="47.686085" lon="16.008562">
<ele>463.5</ele>
<desc>Speed 65.8 km/h Distance 165 km</desc>
<time>2012-09-18T18:23:06.39</time>
<name>8632</name>
<sym>Dot</sym>
</trkpt>
<trkpt lat="47.686180" lon="16.008750">
<ele>463.0</ele>
<desc>Speed 63.2 km/h Distance 165 km</desc>
<time>2012-09-18T18:23:07.33</time>
<name>8633</name>
<sym>Dot</sym>
</trkpt>
<trkpt lat="47.686275" lon="16.008940">
<ele>462.5</ele>
<desc>Speed 63.8 km/h Distance 165 km</desc>
<time>2012-09-18T18:23:08.33</time>
<name>8634</name>
<sym>Dot</sym>
</trkpt>
<trkpt lat="47.686372" lon="16.009130">
<ele>462.0</ele>
<desc>Speed 63.6 km/h Distance 165 km</desc>
<time>2012-09-18T18:23:09.32</time>
<name>8635</name>
<sym>Dot</sym>
</trkpt>
<trkpt lat="47.686463" lon="16.009308">
<ele>461.5</ele>
<desc>Speed 60.7 km/h Distance 165 km</desc>
<time>2012-09-18T18:23:10.32</time>
<name>8636</name>
<sym>Dot</sym>
</trkpt>
<trkpt lat="47.686552" lon="16.009480">
<ele>461.0</ele>
<desc>Speed 58.0 km/h Distance 165 km</desc>
<time>2012-09-18T18:23:11.31</time>
<name>8637</name>
<sym>Dot</sym>
</trkpt>
<trkpt lat="47.686638" lon="16.009640">
<ele>461.0</ele>
<desc>Speed 55.5 km/h Distance 165 km</desc>
<time>2012-09-18T18:23:12.31</time>
<name>8638</name>
<sym>Dot</sym>
</trkpt>
<trkpt lat="47.686723" lon="16.009790">
<ele>460.5</ele>
<desc>Speed 52.7 km/h Distance 165 km</desc>
<time>2012-09-18T18:23:13.30</time>
<name>8639</name>
<sym>Dot</sym>
</trkpt>
<trkpt lat="47.686807" lon="16.009930">
<ele>460.5</ele>
<desc>Speed 49.9 km/h Distance 165 km</desc>
<time>2012-09-18T18:23:14.30</time>
<name>8640</name>
<sym>Dot</sym>
</trkpt>
<trkpt lat="47.686888" lon="16.010058">
<ele>460.0</ele>
<desc>Speed 47.3 km/h Distance 165 km</desc>
<time>2012-09-18T18:23:15.30</time>
<name>8641</name>
<sym>Dot</sym>
</trkpt>
<trkpt lat="47.686965" lon="16.010172">
<ele>459.5</ele>
<desc>Speed 43.4 km/h Distance 165 km</desc>
<time>2012-09-18T18:23:16.29</time>
<name>8642</name>
<sym>Dot</sym>
</trkpt>
<trkpt lat="47.687032" lon="16.010265">
<ele>459.5</ele>
<desc>Speed 36.4 km/h Distance 165 km</desc>
<time>2012-09-18T18:23:17.29</time>
<name>8643</name>
<sym>Dot</sym>
</trkpt>
<trkpt lat="47.687090" lon="16.010343">
<ele>459.5</ele>
<desc>Speed 31.4 km/h Distance 165 km</desc>
<time>2012-09-18T18:23:18.29</time>
<name>8644</name>
<sym>Dot</sym>
</trkpt>
<trkpt lat="47.687142" lon="16.010410">
<ele>459.0</ele>
<desc>Speed 27.7 km/h Distance 165 km</desc>
<time>2012-09-18T18:23:19.33</time>
<name>8645</name>
<sym>Dot</sym>
</trkpt>
<trkpt lat="47.687188" lon="16.010468">
<ele>459.0</ele>
<desc>Speed 24.4 km/h Distance 165 km</desc>
<time>2012-09-18T18:23:20.27</time>
<name>8646</name>
<sym>Dot</sym>
</trkpt>
<trkpt lat="47.687233" lon="16.010525">
<ele>459.0</ele>
<desc>Speed 23.1 km/h Distance 165 km</desc>
<time>2012-09-18T18:23:21.26</time>
<name>8647</name>
<sym>Dot</sym>
</trkpt>
<trkpt lat="47.687280" lon="16.010587">
<ele>458.5</ele>
<desc>Speed 25.0 km/h Distance 165 km</desc>
<time>2012-09-18T18:23:22.27</time>
<name>8648</name>
<sym>Dot</sym>
</trkpt>
<trkpt lat="47.687335" lon="16.010655">
<ele>458.5</ele>
<desc>Speed 28.4 km/h Distance 165 km</desc>
<time>2012-09-18T18:23:23.26</time>
<name>8649</name>
<sym>Dot</sym>
</trkpt>
<trkpt lat="47.687398" lon="16.010730">
<ele>458.0</ele>
<desc>Speed 32.5 km/h Distance 165 km</desc>
<time>2012-09-18T18:23:24.25</time>
<name>8650</name>
<sym>Dot</sym>
</trkpt>
<trkpt lat="47.687472" lon="16.010808">
<ele>458.0</ele>
<desc>Speed 36.0 km/h Distance 165 km</desc>
<time>2012-09-18T18:23:25.25</time>
<name>8651</name>
<sym>Dot</sym>
</trkpt>
<trkpt lat="47.687548" lon="16.010883">
<ele>457.5</ele>
<desc>Speed 36.4 km/h Distance 166 km</desc>
<time>2012-09-18T18:23:26.24</time>
<name>8652</name>
<sym>Dot</sym>
</trkpt>
<trkpt lat="47.687637" lon="16.010960">
<ele>457.5</ele>
<desc>Speed 41.0 km/h Distance 166 km</desc>
<time>2012-09-18T18:23:27.24</time>
<name>8653</name>
<sym>Dot</sym>
</trkpt>
<trkpt lat="47.687985" lon="16.011243">
<ele>458.0</ele>
<desc>Speed 54.2 km/h Distance 166 km</desc>
<time>2012-09-18T18:23:31.42</time>
<name>8654</name>
<sym>Dot</sym>
</trkpt>
<trkpt lat="47.688110" lon="16.011330">
<ele>458.0</ele>
<desc>Speed 54.2 km/h Distance 166 km</desc>
<time>2012-09-18T18:23:32.38</time>
<name>8655</name>
<sym>Dot</sym>
</trkpt>
<trkpt lat="47.688235" lon="16.011412">
<ele>458.0</ele>
<desc>Speed 54.9 km/h Distance 166 km</desc>
<time>2012-09-18T18:23:33.38</time>
<name>8656</name>
<sym>Dot</sym>
</trkpt>
<trkpt lat="47.688363" lon="16.011490">
<ele>458.0</ele>
<desc>Speed 54.9 km/h Distance 166 km</desc>
<time>2012-09-18T18:23:34.37</time>
<name>8657</name>
<sym>Dot</sym>
</trkpt>
<trkpt lat="47.688492" lon="16.011567">
<ele>457.5</ele>
<desc>Speed 55.4 km/h Distance 166 km</desc>
<time>2012-09-18T18:23:35.37</time>
<name>8658</name>
<sym>Dot</sym>
</trkpt>
<trkpt lat="47.688623" lon="16.011640">
<ele>457.5</ele>
<desc>Speed 55.8 km/h Distance 166 km</desc>
<time>2012-09-18T18:23:36.36</time>
<name>8659</name>
<sym>Dot</sym>
</trkpt>
<trkpt lat="47.688757" lon="16.011715">
<ele>457.0</ele>
<desc>Speed 56.6 km/h Distance 166 km</desc>
<time>2012-09-18T18:23:37.37</time>
<name>8660</name>
<sym>Dot</sym>
</trkpt>
<trkpt lat="47.688888" lon="16.011792">
<ele>457.0</ele>
<desc>Speed 56.6 km/h Distance 166 km</desc>
<time>2012-09-18T18:23:38.35</time>
<name>8661</name>
<sym>Dot</sym>
</trkpt>
<trkpt lat="47.689022" lon="16.011868">
<ele>457.0</ele>
<desc>Speed 57.1 km/h Distance 166 km</desc>
<time>2012-09-18T18:23:39.35</time>
<name>8662</name>
<sym>Dot</sym>
</trkpt>
<trkpt lat="47.689155" lon="16.011943">
<ele>456.5</ele>
<desc>Speed 56.6 km/h Distance 166 km</desc>
<time>2012-09-18T18:23:40.34</time>
<name>8663</name>
<sym>Dot</sym>
</trkpt>
<trkpt lat="47.689283" lon="16.012018">
<ele>456.5</ele>
<desc>Speed 55.0 km/h Distance 166 km</desc>
<time>2012-09-18T18:23:41.36</time>
<name>8664</name>
<sym>Dot</sym>
</trkpt>
<trkpt lat="47.689408" lon="16.012093">
<ele>456.5</ele>
<desc>Speed 53.9 km/h Distance 166 km</desc>
<time>2012-09-18T18:23:42.33</time>
<name>8665</name>
<sym>Dot</sym>
</trkpt>
<trkpt lat="47.689533" lon="16.012167">
<ele>456.5</ele>
<desc>Speed 53.2 km/h Distance 166 km</desc>
<time>2012-09-18T18:23:43.33</time>
<name>8666</name>
<sym>Dot</sym>
</trkpt>
<trkpt lat="47.689655" lon="16.012242">
<ele>456.5</ele>
<desc>Speed 52.7 km/h Distance 166 km</desc>
<time>2012-09-18T18:23:44.32</time>
<name>8667</name>
<sym>Dot</sym>
</trkpt>
<trkpt lat="47.689778" lon="16.012318">
<ele>456.5</ele>
<desc>Speed 52.9 km/h Distance 166 km</desc>
<time>2012-09-18T18:23:45.32</time>
<name>8668</name>
<sym>Dot</sym>
</trkpt>
<trkpt lat="47.689905" lon="16.012402">
<ele>456.5</ele>
<desc>Speed 55.1 km/h Distance 166 km</desc>
<time>2012-09-18T18:23:46.31</time>
<name>8669</name>
<sym>Dot</sym>
</trkpt>
<trkpt lat="47.690043" lon="16.012500">
<ele>456.5</ele>
<desc>Speed 61.5 km/h Distance 166 km</desc>
<time>2012-09-18T18:23:47.31</time>
<name>8670</name>
<sym>Dot</sym>
</trkpt>
<trkpt lat="47.690185" lon="16.012607">
<ele>456.5</ele>
<desc>Speed 63.3 km/h Distance 166 km</desc>
<time>2012-09-18T18:23:48.30</time>
<name>8671</name>
<sym>Dot</sym>
</trkpt>
<trkpt lat="47.690320" lon="16.012713">
<ele>456.0</ele>
<desc>Speed 61.3 km/h Distance 166 km</desc>
<time>2012-09-18T18:23:49.30</time>
<name>8672</name>
<sym>Dot</sym>
</trkpt>
<trkpt lat="47.690450" lon="16.012822">
<ele>456.0</ele>
<desc>Speed 59.2 km/h Distance 166 km</desc>
<time>2012-09-18T18:23:50.29</time>
<name>8673</name>
<sym>Dot</sym>
</trkpt>
<trkpt lat="47.690572" lon="16.012930">
<ele>456.0</ele>
<desc>Speed 57.2 km/h Distance 166 km</desc>
<time>2012-09-18T18:23:51.29</time>
<name>8674</name>
<sym>Dot</sym>
</trkpt>
<trkpt lat="47.690693" lon="16.013045">
<ele>456.0</ele>
<desc>Speed 57.2 km/h Distance 166 km</desc>
<time>2012-09-18T18:23:52.29</time>
<name>8675</name>
<sym>Dot</sym>
</trkpt>
<trkpt lat="47.690813" lon="16.013160">
<ele>455.5</ele>
<desc>Speed 57.2 km/h Distance 166 km</desc>
<time>2012-09-18T18:23:53.28</time>
<name>8676</name>
<sym>Dot</sym>
</trkpt>
<trkpt lat="47.690935" lon="16.013273">
<ele>455.5</ele>
<desc>Speed 57.0 km/h Distance 166 km</desc>
<time>2012-09-18T18:23:54.32</time>
<name>8677</name>
<sym>Dot</sym>
</trkpt>
<trkpt lat="47.691055" lon="16.013387">
<ele>455.0</ele>
<desc>Speed 56.8 km/h Distance 166 km</desc>
<time>2012-09-18T18:23:55.27</time>
<name>8678</name>
<sym>Dot</sym>
</trkpt>
<trkpt lat="47.691177" lon="16.013503">
<ele>455.0</ele>
<desc>Speed 57.9 km/h Distance 166 km</desc>
<time>2012-09-18T18:23:56.26</time>
<name>8679</name>
<sym>Dot</sym>
</trkpt>
<trkpt lat="47.691298" lon="16.013622">
<ele>455.0</ele>
<desc>Speed 58.4 km/h Distance 166 km</desc>
<time>2012-09-18T18:23:57.26</time>
<name>8680</name>
<sym>Dot</sym>
</trkpt>
<trkpt lat="47.691423" lon="16.013740">
<ele>454.5</ele>
<desc>Speed 58.8 km/h Distance 166 km</desc>
<time>2012-09-18T18:23:58.25</time>
<name>8681</name>
<sym>Dot</sym>
</trkpt>
<trkpt lat="47.691547" lon="16.013858">
<ele>454.5</ele>
<desc>Speed 58.9 km/h Distance 166 km</desc>
<time>2012-09-18T18:23:59.25</time>
<name>8682</name>
<sym>Dot</sym>
</trkpt>
<trkpt lat="47.691672" lon="16.013978">
<ele>454.0</ele>
<desc>Speed 59.5 km/h Distance 166 km</desc>
<time>2012-09-18T18:24:00.24</time>
<name>8683</name>
<sym>Dot</sym>
</trkpt>
<trkpt lat="47.691798" lon="16.014097">
<ele>454.0</ele>
<desc>Speed 60.0 km/h Distance 166 km</desc>
<time>2012-09-18T18:24:01.24</time>
<name>8684</name>
<sym>Dot</sym>
</trkpt>
<trkpt lat="47.691935" lon="16.014225">
<ele>454.0</ele>
<desc>Speed 64.6 km/h Distance 166 km</desc>
<time>2012-09-18T18:24:02.23</time>
<name>8685</name>
<sym>Dot</sym>
</trkpt>
<trkpt lat="47.692083" lon="16.014362">
<ele>453.5</ele>
<desc>Speed 69.6 km/h Distance 166 km</desc>
<time>2012-09-18T18:24:03.23</time>
<name>8686</name>
<sym>Dot</sym>
</trkpt>
<trkpt lat="47.692228" lon="16.014502">
<ele>453.0</ele>
<desc>Speed 69.2 km/h Distance 166 km</desc>
<time>2012-09-18T18:24:04.22</time>
<name>8687</name>
<sym>Dot</sym>
</trkpt>
<trkpt lat="47.692367" lon="16.014635">
<ele>453.0</ele>
<desc>Speed 66.1 km/h Distance 166 km</desc>
<time>2012-09-18T18:24:05.22</time>
<name>8688</name>
<sym>Dot</sym>
</trkpt>
<trkpt lat="47.692498" lon="16.014762">
<ele>452.5</ele>
<desc>Speed 62.6 km/h Distance 166 km</desc>
<time>2012-09-18T18:24:06.26</time>
<name>8689</name>
<sym>Dot</sym>
</trkpt>
<trkpt lat="47.692625" lon="16.014882">
<ele>452.5</ele>
<desc>Speed 60.3 km/h Distance 166 km</desc>
<time>2012-09-18T18:24:07.22</time>
<name>8690</name>
<sym>Dot</sym>
</trkpt>
<trkpt lat="47.692748" lon="16.015003">
<ele>452.5</ele>
<desc>Speed 58.9 km/h Distance 166 km</desc>
<time>2012-09-18T18:24:08.21</time>
<name>8691</name>
<sym>Dot</sym>
</trkpt>
<trkpt lat="47.692868" lon="16.015125">
<ele>452.0</ele>
<desc>Speed 58.0 km/h Distance 166 km</desc>
<time>2012-09-18T18:24:09.21</time>
<name>8692</name>
<sym>Dot</sym>
</trkpt>
<trkpt lat="47.692985" lon="16.015245">
<ele>451.5</ele>
<desc>Speed 57.1 km/h Distance 166 km</desc>
<time>2012-09-18T18:24:10.20</time>
<name>8693</name>
<sym>Dot</sym>
</trkpt>
<trkpt lat="47.693100" lon="16.015372">
<ele>451.5</ele>
<desc>Speed 57.2 km/h Distance 166 km</desc>
<time>2012-09-18T18:24:11.20</time>
<name>8694</name>
<sym>Dot</sym>
</trkpt>
<trkpt lat="47.693212" lon="16.015502">
<ele>451.5</ele>
<desc>Speed 57.3 km/h Distance 166 km</desc>
<time>2012-09-18T18:24:12.19</time>
<name>8695</name>
<sym>Dot</sym>
</trkpt>
<trkpt lat="47.693325" lon="16.015638">
<ele>451.0</ele>
<desc>Speed 58.1 km/h Distance 166 km</desc>
<time>2012-09-18T18:24:13.19</time>
<name>8696</name>
<sym>Dot</sym>
</trkpt>
<trkpt lat="47.693433" lon="16.015782">
<ele>451.0</ele>
<desc>Speed 58.3 km/h Distance 166 km</desc>
<time>2012-09-18T18:24:14.18</time>
<name>8697</name>
<sym>Dot</sym>
</trkpt>
<trkpt lat="47.693537" lon="16.015937">
<ele>451.0</ele>
<desc>Speed 58.8 km/h Distance 166 km</desc>
<time>2012-09-18T18:24:15.18</time>
<name>8698</name>
<sym>Dot</sym>
</trkpt>
<trkpt lat="47.693642" lon="16.016105">
<ele>450.5</ele>
<desc>Speed 61.1 km/h Distance 166 km</desc>
<time>2012-09-18T18:24:16.17</time>
<name>8699</name>
<sym>Dot</sym>
</trkpt>
<trkpt lat="47.693742" lon="16.016280">
<ele>450.5</ele>
<desc>Speed 61.6 km/h Distance 166 km</desc>
<time>2012-09-18T18:24:17.17</time>
<name>8700</name>
<sym>Dot</sym>
</trkpt>
<trkpt lat="47.693835" lon="16.016453">
<ele>450.5</ele>
<desc>Speed 59.9 km/h Distance 166 km</desc>
<time>2012-09-18T18:24:18.16</time>
<name>8701</name>
<sym>Dot</sym>
</trkpt>
<trkpt lat="47.693927" lon="16.016633">
<ele>450.5</ele>
<desc>Speed 59.9 km/h Distance 166 km</desc>
<time>2012-09-18T18:24:19.20</time>
<name>8702</name>
<sym>Dot</sym>
</trkpt>
<trkpt lat="47.694020" lon="16.016822">
<ele>450.5</ele>
<desc>Speed 62.4 km/h Distance 166 km</desc>
<time>2012-09-18T18:24:20.14</time>
<name>8703</name>
<sym>Dot</sym>
</trkpt>
<trkpt lat="47.694112" lon="16.017022">
<ele>450.5</ele>
<desc>Speed 65.2 km/h Distance 166 km</desc>
<time>2012-09-18T18:24:21.14</time>
<name>8704</name>
<sym>Dot</sym>
</trkpt>
<trkpt lat="47.694198" lon="16.017217">
<ele>450.5</ele>
<desc>Speed 63.1 km/h Distance 166 km</desc>
<time>2012-09-18T18:24:22.13</time>
<name>8705</name>
<sym>Dot</sym>
</trkpt>
<trkpt lat="47.694280" lon="16.017412">
<ele>450.5</ele>
<desc>Speed 62.0 km/h Distance 166 km</desc>
<time>2012-09-18T18:24:23.14</time>
<name>8706</name>
<sym>Dot</sym>
</trkpt>
<trkpt lat="47.694363" lon="16.017612">
<ele>450.5</ele>
<desc>Speed 63.3 km/h Distance 166 km</desc>
<time>2012-09-18T18:24:24.13</time>
<name>8707</name>
<sym>Dot</sym>
</trkpt>
<trkpt lat="47.694447" lon="16.017812">
<ele>450.0</ele>
<desc>Speed 63.5 km/h Distance 166 km</desc>
<time>2012-09-18T18:24:25.12</time>
<name>8708</name>
<sym>Dot</sym>
</trkpt>
<trkpt lat="47.694528" lon="16.018015">
<ele>450.0</ele>
<desc>Speed 63.4 km/h Distance 166 km</desc>
<time>2012-09-18T18:24:26.11</time>
<name>8709</name>
<sym>Dot</sym>
</trkpt>
<trkpt lat="47.694610" lon="16.018217">
<ele>450.0</ele>
<desc>Speed 63.7 km/h Distance 166 km</desc>
<time>2012-09-18T18:24:27.11</time>
<name>8710</name>
<sym>Dot</sym>
</trkpt>
<trkpt lat="47.694693" lon="16.018418">
<ele>449.5</ele>
<desc>Speed 63.7 km/h Distance 167 km</desc>
<time>2012-09-18T18:24:28.10</time>
<name>8711</name>
<sym>Dot</sym>
</trkpt>
<trkpt lat="47.694773" lon="16.018613">
<ele>449.5</ele>
<desc>Speed 61.4 km/h Distance 167 km</desc>
<time>2012-09-18T18:24:29.10</time>
<name>8712</name>
<sym>Dot</sym>
</trkpt>
<trkpt lat="47.694848" lon="16.018798">
<ele>449.0</ele>
<desc>Speed 58.4 km/h Distance 167 km</desc>
<time>2012-09-18T18:24:30.10</time>
<name>8713</name>
<sym>Dot</sym>
</trkpt>
<trkpt lat="47.694927" lon="16.018975">
<ele>449.0</ele>
<desc>Speed 56.6 km/h Distance 167 km</desc>
<time>2012-09-18T18:24:31.19</time>
<name>8714</name>
<sym>Dot</sym>
</trkpt>
<trkpt lat="47.695002" lon="16.019142">
<ele>449.0</ele>
<desc>Speed 54.4 km/h Distance 167 km</desc>
<time>2012-09-18T18:24:32.09</time>
<name>8715</name>
<sym>Dot</sym>
</trkpt>
<trkpt lat="47.695087" lon="16.019307">
<ele>449.0</ele>
<desc>Speed 55.8 km/h Distance 167 km</desc>
<time>2012-09-18T18:24:33.10</time>
<name>8716</name>
<sym>Dot</sym>
</trkpt>
<trkpt lat="47.695180" lon="16.019477">
<ele>449.0</ele>
<desc>Speed 59.0 km/h Distance 167 km</desc>
<time>2012-09-18T18:24:34.08</time>
<name>8717</name>
<sym>Dot</sym>
</trkpt>
<trkpt lat="47.695278" lon="16.019630">
<ele>449.0</ele>
<desc>Speed 56.9 km/h Distance 167 km</desc>
<time>2012-09-18T18:24:35.08</time>
<name>8718</name>
<sym>Dot</sym>
</trkpt>
<trkpt lat="47.695377" lon="16.019770">
<ele>448.5</ele>
<desc>Speed 54.8 km/h Distance 167 km</desc>
<time>2012-09-18T18:24:36.08</time>
<name>8719</name>
<sym>Dot</sym>
</trkpt>
<trkpt lat="47.695475" lon="16.019903">
<ele>448.5</ele>
<desc>Speed 53.2 km/h Distance 167 km</desc>
<time>2012-09-18T18:24:37.07</time>
<name>8720</name>
<sym>Dot</sym>
</trkpt>
<trkpt lat="47.695573" lon="16.020035">
<ele>449.0</ele>
<desc>Speed 52.4 km/h Distance 167 km</desc>
<time>2012-09-18T18:24:38.07</time>
<name>8721</name>
<sym>Dot</sym>
</trkpt>
<trkpt lat="47.695673" lon="16.020165">
<ele>449.0</ele>
<desc>Speed 52.5 km/h Distance 167 km</desc>
<time>2012-09-18T18:24:39.06</time>
<name>8722</name>
<sym>Dot</sym>
</trkpt>
<trkpt lat="47.695772" lon="16.020292">
<ele>448.5</ele>
<desc>Speed 52.3 km/h Distance 167 km</desc>
<time>2012-09-18T18:24:40.05</time>
<name>8723</name>
<sym>Dot</sym>
</trkpt>
<trkpt lat="47.695870" lon="16.020417">
<ele>448.5</ele>
<desc>Speed 50.9 km/h Distance 167 km</desc>
<time>2012-09-18T18:24:41.05</time>
<name>8724</name>
<sym>Dot</sym>
</trkpt>
<trkpt lat="47.695967" lon="16.020540">
<ele>448.0</ele>
<desc>Speed 51.0 km/h Distance 167 km</desc>
<time>2012-09-18T18:24:42.10</time>
<name>8725</name>
<sym>Dot</sym>
</trkpt>
<trkpt lat="47.696068" lon="16.020667">
<ele>448.0</ele>
<desc>Speed 51.9 km/h Distance 167 km</desc>
<time>2012-09-18T18:24:43.04</time>
<name>8726</name>
<sym>Dot</sym>
</trkpt>
<trkpt lat="47.696170" lon="16.020795">
<ele>447.5</ele>
<desc>Speed 53.1 km/h Distance 167 km</desc>
<time>2012-09-18T18:24:44.03</time>
<name>8727</name>
<sym>Dot</sym>
</trkpt>
<trkpt lat="47.696278" lon="16.020930">
<ele>447.5</ele>
<desc>Speed 55.8 km/h Distance 167 km</desc>
<time>2012-09-18T18:24:45.03</time>
<name>8728</name>
<sym>Dot</sym>
</trkpt>
<trkpt lat="47.696388" lon="16.021070">
<ele>447.5</ele>
<desc>Speed 57.9 km/h Distance 167 km</desc>
<time>2012-09-18T18:24:46.02</time>
<name>8729</name>
<sym>Dot</sym>
</trkpt>
<trkpt lat="47.696493" lon="16.021205">
<ele>447.0</ele>
<desc>Speed 55.1 km/h Distance 167 km</desc>
<time>2012-09-18T18:24:47.02</time>
<name>8730</name>
<sym>Dot</sym>
</trkpt>
<trkpt lat="47.696593" lon="16.021335">
<ele>447.0</ele>
<desc>Speed 52.7 km/h Distance 167 km</desc>
<time>2012-09-18T18:24:48.01</time>
<name>8731</name>
<sym>Dot</sym>
</trkpt>
<trkpt lat="47.696690" lon="16.021460">
<ele>447.0</ele>
<desc>Speed 50.9 km/h Distance 167 km</desc>
<time>2012-09-18T18:24:49.01</time>
<name>8732</name>
<sym>Dot</sym>
</trkpt>
<trkpt lat="47.696782" lon="16.021577">
<ele>447.0</ele>
<desc>Speed 48.6 km/h Distance 167 km</desc>
<time>2012-09-18T18:24:50.00</time>
<name>8733</name>
<sym>Dot</sym>
</trkpt>
<trkpt lat="47.696870" lon="16.021688">
<ele>447.0</ele>
<desc>Speed 46.0 km/h Distance 167 km</desc>
<time>2012-09-18T18:24:51.00</time>
<name>8734</name>
<sym>Dot</sym>
</trkpt>
<trkpt lat="47.696953" lon="16.021793">
<ele>447.0</ele>
<desc>Speed 43.4 km/h Distance 167 km</desc>
<time>2012-09-18T18:24:52.00</time>
<name>8735</name>
<sym>Dot</sym>
</trkpt>
<trkpt lat="47.697032" lon="16.021892">
<ele>447.0</ele>
<desc>Speed 41.2 km/h Distance 167 km</desc>
<time>2012-09-18T18:24:53.05</time>
<name>8736</name>
<sym>Dot</sym>
</trkpt>
<trkpt lat="47.697105" lon="16.021988">
<ele>446.5</ele>
<desc>Speed 39.0 km/h Distance 167 km</desc>
<time>2012-09-18T18:24:53.99</time>
<name>8737</name>
<sym>Dot</sym>
</trkpt>
<trkpt lat="47.697168" lon="16.022080">
<ele>446.5</ele>
<desc>Speed 35.7 km/h Distance 167 km</desc>
<time>2012-09-18T18:24:54.99</time>
<name>8738</name>
<sym>Dot</sym>
</trkpt>
<trkpt lat="47.697225" lon="16.022165">
<ele>446.5</ele>
<desc>Speed 32.5 km/h Distance 167 km</desc>
<time>2012-09-18T18:24:55.98</time>
<name>8739</name>
<sym>Dot</sym>
</trkpt>
<trkpt lat="47.697322" lon="16.022310">
<ele>446.5</ele>
<desc>Speed 0.3 km/h Distance 167 km</desc>
<time>2012-09-18T18:25:01.37</time>
<name>8740</name>
<sym>Dot</sym>
</trkpt>
<trkpt lat="47.697322" lon="16.022308">
<ele>446.5</ele>
<desc>Speed 0.3 km/h Distance 167 km</desc>
<time>2012-09-18T18:25:02.38</time>
<name>8741</name>
<sym>Dot</sym>
</trkpt>
<trkpt lat="47.697320" lon="16.022308">
<ele>446.5</ele>
<desc>Speed 0.1 km/h Distance 167 km</desc>
<time>2012-09-18T18:25:03.36</time>
<name>8742</name>
<sym>Dot</sym>
</trkpt>
<trkpt lat="47.697320" lon="16.022308">
<ele>446.5</ele>
<desc>Speed 0.1 km/h Distance 167 km</desc>
<time>2012-09-18T18:25:04.37</time>
<name>8743</name>
<sym>Dot</sym>
</trkpt>
<trkpt lat="47.697320" lon="16.022307">
<ele>446.5</ele>
<desc>Speed 0.2 km/h Distance 167 km</desc>
<time>2012-09-18T18:25:05.35</time>
<name>8744</name>
<sym>Dot</sym>
</trkpt>
<trkpt lat="47.697320" lon="16.022307">
<ele>446.5</ele>
<desc>Speed 0.2 km/h Distance 167 km</desc>
<time>2012-09-18T18:25:06.35</time>
<name>8745</name>
<sym>Dot</sym>
</trkpt>
<trkpt lat="47.697320" lon="16.022305">
<ele>446.5</ele>
<desc>Speed 0.3 km/h Distance 167 km</desc>
<time>2012-09-18T18:25:07.35</time>
<name>8746</name>
<sym>Dot</sym>
</trkpt>
<trkpt lat="47.697320" lon="16.022305">
<ele>446.5</ele>
<desc>Speed 0.3 km/h Distance 167 km</desc>
<time>2012-09-18T18:25:08.33</time>
<name>8747</name>
<sym>Dot</sym>
</trkpt>
<trkpt lat="47.697318" lon="16.022305">
<ele>446.5</ele>
<desc>Speed 0.2 km/h Distance 167 km</desc>
<time>2012-09-18T18:25:09.33</time>
<name>8748</name>
<sym>Dot</sym>
</trkpt>
<trkpt lat="47.697318" lon="16.022303">
<ele>446.5</ele>
<desc>Speed 0.3 km/h Distance 167 km</desc>
<time>2012-09-18T18:25:10.33</time>
<name>8749</name>
<sym>Dot</sym>
</trkpt>
<trkpt lat="47.697318" lon="16.022303">
<ele>446.5</ele>
<desc>Speed 0.3 km/h Distance 167 km</desc>
<time>2012-09-18T18:25:11.33</time>
<name>8750</name>
<sym>Dot</sym>
</trkpt>
<trkpt lat="47.697318" lon="16.022303">
<ele>447.0</ele>
<desc>Speed 0.2 km/h Distance 167 km</desc>
<time>2012-09-18T18:25:12.33</time>
<name>8751</name>
<sym>Dot</sym>
</trkpt>
<trkpt lat="47.697318" lon="16.022303">
<ele>447.0</ele>
<desc>Speed 0.3 km/h Distance 167 km</desc>
<time>2012-09-18T18:25:13.32</time>
<name>8752</name>
<sym>Dot</sym>
</trkpt>
<trkpt lat="47.697318" lon="16.022303">
<ele>447.0</ele>
<desc>Speed 0.3 km/h Distance 167 km</desc>
<time>2012-09-18T18:25:14.40</time>
<name>8753</name>
<sym>Dot</sym>
</trkpt>
<trkpt lat="47.697318" lon="16.022303">
<ele>447.0</ele>
<desc>Speed 0.2 km/h Distance 167 km</desc>
<time>2012-09-18T18:25:15.30</time>
<name>8754</name>
<sym>Dot</sym>
</trkpt>
<trkpt lat="47.697318" lon="16.022303">
<ele>447.0</ele>
<desc>Speed 0.2 km/h Distance 167 km</desc>
<time>2012-09-18T18:25:16.38</time>
<name>8755</name>
<sym>Dot</sym>
</trkpt>
<trkpt lat="47.697318" lon="16.022303">
<ele>447.0</ele>
<desc>Speed 0.2 km/h Distance 167 km</desc>
<time>2012-09-18T18:25:17.30</time>
<name>8756</name>
<sym>Dot</sym>
</trkpt>
<trkpt lat="47.697318" lon="16.022302">
<ele>447.0</ele>
<desc>Speed 0.2 km/h Distance 167 km</desc>
<time>2012-09-18T18:25:18.30</time>
<name>8757</name>
<sym>Dot</sym>
</trkpt>
<trkpt lat="47.697318" lon="16.022302">
<ele>447.0</ele>
<desc>Speed 0.1 km/h Distance 167 km</desc>
<time>2012-09-18T18:25:19.29</time>
<name>8758</name>
<sym>Dot</sym>
</trkpt>
<trkpt lat="47.697318" lon="16.022302">
<ele>447.0</ele>
<desc>Speed 0.2 km/h Distance 167 km</desc>
<time>2012-09-18T18:25:20.29</time>
<name>8759</name>
<sym>Dot</sym>
</trkpt>
<trkpt lat="47.697318" lon="16.022302">
<ele>446.5</ele>
<desc>Speed 0.3 km/h Distance 167 km</desc>
<time>2012-09-18T18:25:21.27</time>
<name>8760</name>
<sym>Dot</sym>
</trkpt>
<trkpt lat="47.697318" lon="16.022302">
<ele>446.5</ele>
<desc>Speed 0.2 km/h Distance 167 km</desc>
<time>2012-09-18T18:25:22.28</time>
<name>8761</name>
<sym>Dot</sym>
</trkpt>
<trkpt lat="47.697318" lon="16.022302">
<ele>446.5</ele>
<desc>Speed 0.2 km/h Distance 167 km</desc>
<time>2012-09-18T18:25:23.28</time>
<name>8762</name>
<sym>Dot</sym>
</trkpt>
<trkpt lat="47.697325" lon="16.022310">
<ele>446.5</ele>
<desc>Speed 3.0 km/h Distance 167 km</desc>
<time>2012-09-18T18:25:24.27</time>
<name>8763</name>
<sym>Dot</sym>
</trkpt>
<trkpt lat="47.697375" lon="16.022375">
<ele>446.5</ele>
<desc>Speed 15.8 km/h Distance 167 km</desc>
<time>2012-09-18T18:25:26.27</time>
<name>8764</name>
<sym>Dot</sym>
</trkpt>
<trkpt lat="47.697413" lon="16.022423">
<ele>446.5</ele>
<desc>Speed 20.0 km/h Distance 167 km</desc>
<time>2012-09-18T18:25:27.26</time>
<name>8765</name>
<sym>Dot</sym>
</trkpt>
<trkpt lat="47.697457" lon="16.022478">
<ele>446.0</ele>
<desc>Speed 22.5 km/h Distance 167 km</desc>
<time>2012-09-18T18:25:28.26</time>
<name>8766</name>
<sym>Dot</sym>
</trkpt>
<trkpt lat="47.697505" lon="16.022542">
<ele>446.0</ele>
<desc>Speed 25.5 km/h Distance 167 km</desc>
<time>2012-09-18T18:25:29.26</time>
<name>8767</name>
<sym>Dot</sym>
</trkpt>
<trkpt lat="47.697567" lon="16.022617">
<ele>446.0</ele>
<desc>Speed 31.8 km/h Distance 167 km</desc>
<time>2012-09-18T18:25:30.26</time>
<name>8768</name>
<sym>Dot</sym>
</trkpt>
<trkpt lat="47.697640" lon="16.022708">
<ele>445.5</ele>
<desc>Speed 37.3 km/h Distance 167 km</desc>
<time>2012-09-18T18:25:31.25</time>
<name>8769</name>
<sym>Dot</sym>
</trkpt>
<trkpt lat="47.697710" lon="16.022805">
<ele>445.5</ele>
<desc>Speed 37.9 km/h Distance 167 km</desc>
<time>2012-09-18T18:25:32.25</time>
<name>8770</name>
<sym>Dot</sym>
</trkpt>
<trkpt lat="47.697777" lon="16.022910">
<ele>445.5</ele>
<desc>Speed 38.3 km/h Distance 167 km</desc>
<time>2012-09-18T18:25:33.27</time>
<name>8771</name>
<sym>Dot</sym>
</trkpt>
<trkpt lat="47.697842" lon="16.023018">
<ele>445.0</ele>
<desc>Speed 39.2 km/h Distance 167 km</desc>
<time>2012-09-18T18:25:34.23</time>
<name>8772</name>
<sym>Dot</sym>
</trkpt>
<trkpt lat="47.697905" lon="16.023133">
<ele>445.0</ele>
<desc>Speed 39.7 km/h Distance 167 km</desc>
<time>2012-09-18T18:25:35.22</time>
<name>8773</name>
<sym>Dot</sym>
</trkpt>
<trkpt lat="47.697960" lon="16.023248">
<ele>445.0</ele>
<desc>Speed 38.1 km/h Distance 167 km</desc>
<time>2012-09-18T18:25:36.22</time>
<name>8774</name>
<sym>Dot</sym>
</trkpt>
<trkpt lat="47.698015" lon="16.023368">
<ele>445.0</ele>
<desc>Speed 39.3 km/h Distance 167 km</desc>
<time>2012-09-18T18:25:37.21</time>
<name>8775</name>
<sym>Dot</sym>
</trkpt>
<trkpt lat="47.698070" lon="16.023507">
<ele>445.0</ele>
<desc>Speed 43.3 km/h Distance 167 km</desc>
<time>2012-09-18T18:25:38.20</time>
<name>8776</name>
<sym>Dot</sym>
</trkpt>
<trkpt lat="47.698123" lon="16.023660">
<ele>445.0</ele>
<desc>Speed 46.7 km/h Distance 167 km</desc>
<time>2012-09-18T18:25:39.20</time>
<name>8777</name>
<sym>Dot</sym>
</trkpt>
<trkpt lat="47.698173" lon="16.023817">
<ele>445.0</ele>
<desc>Speed 47.1 km/h Distance 167 km</desc>
<time>2012-09-18T18:25:40.19</time>
<name>8778</name>
<sym>Dot</sym>
</trkpt>
<trkpt lat="47.698222" lon="16.023988">
<ele>445.0</ele>
<desc>Speed 50.3 km/h Distance 167 km</desc>
<time>2012-09-18T18:25:41.18</time>
<name>8779</name>
<sym>Dot</sym>
</trkpt>
<trkpt lat="47.698267" lon="16.024167">
<ele>445.0</ele>
<desc>Speed 51.8 km/h Distance 167 km</desc>
<time>2012-09-18T18:25:42.27</time>
<name>8780</name>
<sym>Dot</sym>
</trkpt>
<trkpt lat="47.698310" lon="16.024338">
<ele>445.0</ele>
<desc>Speed 50.1 km/h Distance 167 km</desc>
<time>2012-09-18T18:25:43.18</time>
<name>8781</name>
<sym>Dot</sym>
</trkpt>
<trkpt lat="47.698352" lon="16.024505">
<ele>445.0</ele>
<desc>Speed 48.3 km/h Distance 167 km</desc>
<time>2012-09-18T18:25:44.17</time>
<name>8782</name>
<sym>Dot</sym>
</trkpt>
<trkpt lat="47.698392" lon="16.024667">
<ele>445.0</ele>
<desc>Speed 46.7 km/h Distance 167 km</desc>
<time>2012-09-18T18:25:45.18</time>
<name>8783</name>
<sym>Dot</sym>
</trkpt>
<trkpt lat="47.698432" lon="16.024827">
<ele>445.0</ele>
<desc>Speed 46.4 km/h Distance 167 km</desc>
<time>2012-09-18T18:25:46.16</time>
<name>8784</name>
<sym>Dot</sym>
</trkpt>
<trkpt lat="47.698470" lon="16.024988">
<ele>445.0</ele>
<desc>Speed 46.3 km/h Distance 167 km</desc>
<time>2012-09-18T18:25:47.16</time>
<name>8785</name>
<sym>Dot</sym>
</trkpt>
<trkpt lat="47.698510" lon="16.025147">
<ele>445.0</ele>
<desc>Speed 45.8 km/h Distance 167 km</desc>
<time>2012-09-18T18:25:48.15</time>
<name>8786</name>
<sym>Dot</sym>
</trkpt>
<trkpt lat="47.698553" lon="16.025307">
<ele>445.0</ele>
<desc>Speed 46.5 km/h Distance 167 km</desc>
<time>2012-09-18T18:25:49.15</time>
<name>8787</name>
<sym>Dot</sym>
</trkpt>
<trkpt lat="47.698605" lon="16.025465">
<ele>445.0</ele>
<desc>Speed 47.3 km/h Distance 167 km</desc>
<time>2012-09-18T18:25:50.14</time>
<name>8788</name>
<sym>Dot</sym>
</trkpt>
<trkpt lat="47.698658" lon="16.025617">
<ele>445.0</ele>
<desc>Speed 46.6 km/h Distance 167 km</desc>
<time>2012-09-18T18:25:51.20</time>
<name>8789</name>
<sym>Dot</sym>
</trkpt>
<trkpt lat="47.698720" lon="16.025767">
<ele>445.0</ele>
<desc>Speed 47.3 km/h Distance 167 km</desc>
<time>2012-09-18T18:25:52.13</time>
<name>8790</name>
<sym>Dot</sym>
</trkpt>
<trkpt lat="47.698788" lon="16.025920">
<ele>445.0</ele>
<desc>Speed 49.6 km/h Distance 167 km</desc>
<time>2012-09-18T18:25:53.13</time>
<name>8791</name>
<sym>Dot</sym>
</trkpt>
<trkpt lat="47.698868" lon="16.026082">
<ele>445.0</ele>
<desc>Speed 54.5 km/h Distance 167 km</desc>
<time>2012-09-18T18:25:54.13</time>
<name>8792</name>
<sym>Dot</sym>
</trkpt>
<trkpt lat="47.698962" lon="16.026243">
<ele>445.5</ele>
<desc>Speed 57.1 km/h Distance 167 km</desc>
<time>2012-09-18T18:25:55.12</time>
<name>8793</name>
<sym>Dot</sym>
</trkpt>
<trkpt lat="47.699055" lon="16.026390">
<ele>445.5</ele>
<desc>Speed 54.8 km/h Distance 167 km</desc>
<time>2012-09-18T18:25:56.12</time>
<name>8794</name>
<sym>Dot</sym>
</trkpt>
<trkpt lat="47.699152" lon="16.026525">
<ele>445.5</ele>
<desc>Speed 52.8 km/h Distance 167 km</desc>
<time>2012-09-18T18:25:57.10</time>
<name>8795</name>
<sym>Dot</sym>
</trkpt>
<trkpt lat="47.699248" lon="16.026648">
<ele>446.0</ele>
<desc>Speed 51.3 km/h Distance 167 km</desc>
<time>2012-09-18T18:25:58.11</time>
<name>8796</name>
<sym>Dot</sym>
</trkpt>
<trkpt lat="47.699343" lon="16.026765">
<ele>446.0</ele>
<desc>Speed 49.0 km/h Distance 167 km</desc>
<time>2012-09-18T18:25:59.09</time>
<name>8797</name>
<sym>Dot</sym>
</trkpt>
<trkpt lat="47.699437" lon="16.026885">
<ele>445.5</ele>
<desc>Speed 49.2 km/h Distance 167 km</desc>
<time>2012-09-18T18:26:00.21</time>
<name>8798</name>
<sym>Dot</sym>
</trkpt>
<trkpt lat="47.699530" lon="16.027002">
<ele>445.5</ele>
<desc>Speed 49.0 km/h Distance 167 km</desc>
<time>2012-09-18T18:26:01.08</time>
<name>8799</name>
<sym>Dot</sym>
</trkpt>
<trkpt lat="47.699622" lon="16.027125">
<ele>445.0</ele>
<desc>Speed 49.1 km/h Distance 167 km</desc>
<time>2012-09-18T18:26:02.07</time>
<name>8800</name>
<sym>Dot</sym>
</trkpt>
<trkpt lat="47.699708" lon="16.027252">
<ele>445.0</ele>
<desc>Speed 48.8 km/h Distance 167 km</desc>
<time>2012-09-18T18:26:03.07</time>
<name>8801</name>
<sym>Dot</sym>
</trkpt>
<trkpt lat="47.699795" lon="16.027387">
<ele>445.0</ele>
<desc>Speed 50.0 km/h Distance 167 km</desc>
<time>2012-09-18T18:26:04.07</time>
<name>8802</name>
<sym>Dot</sym>
</trkpt>
<trkpt lat="47.699995" lon="16.027713">
<ele>445.0</ele>
<desc>Speed 58.1 km/h Distance 167 km</desc>
<time>2012-09-18T18:26:06.08</time>
<name>8803</name>
<sym>Dot</sym>
</trkpt>
<trkpt lat="47.700085" lon="16.027872">
<ele>445.0</ele>
<desc>Speed 55.7 km/h Distance 167 km</desc>
<time>2012-09-18T18:26:07.07</time>
<name>8804</name>
<sym>Dot</sym>
</trkpt>
<trkpt lat="47.700170" lon="16.028022">
<ele>445.0</ele>
<desc>Speed 53.1 km/h Distance 167 km</desc>
<time>2012-09-18T18:26:08.05</time>
<name>8805</name>
<sym>Dot</sym>
</trkpt>
<trkpt lat="47.700252" lon="16.028163">
<ele>445.5</ele>
<desc>Speed 50.5 km/h Distance 167 km</desc>
<time>2012-09-18T18:26:09.14</time>
<name>8806</name>
<sym>Dot</sym>
</trkpt>
<trkpt lat="47.700332" lon="16.028303">
<ele>445.5</ele>
<desc>Speed 49.4 km/h Distance 167 km</desc>
<time>2012-09-18T18:26:10.05</time>
<name>8807</name>
<sym>Dot</sym>
</trkpt>
<trkpt lat="47.700407" lon="16.028435">
<ele>445.5</ele>
<desc>Speed 46.6 km/h Distance 168 km</desc>
<time>2012-09-18T18:26:11.05</time>
<name>8808</name>
<sym>Dot</sym>
</trkpt>
<trkpt lat="47.700478" lon="16.028563">
<ele>446.0</ele>
<desc>Speed 45.1 km/h Distance 168 km</desc>
<time>2012-09-18T18:26:12.05</time>
<name>8809</name>
<sym>Dot</sym>
</trkpt>
<trkpt lat="47.700548" lon="16.028682">
<ele>446.0</ele>
<desc>Speed 42.7 km/h Distance 168 km</desc>
<time>2012-09-18T18:26:13.04</time>
<name>8810</name>
<sym>Dot</sym>
</trkpt>
<trkpt lat="47.700615" lon="16.028795">
<ele>445.5</ele>
<desc>Speed 40.7 km/h Distance 168 km</desc>
<time>2012-09-18T18:26:14.04</time>
<name>8811</name>
<sym>Dot</sym>
</trkpt>
<trkpt lat="47.700678" lon="16.028900">
<ele>445.5</ele>
<desc>Speed 37.9 km/h Distance 168 km</desc>
<time>2012-09-18T18:26:15.04</time>
<name>8812</name>
<sym>Dot</sym>
</trkpt>
<trkpt lat="47.700738" lon="16.029000">
<ele>446.0</ele>
<desc>Speed 36.5 km/h Distance 168 km</desc>
<time>2012-09-18T18:26:16.03</time>
<name>8813</name>
<sym>Dot</sym>
</trkpt>
<trkpt lat="47.700790" lon="16.029095">
<ele>446.0</ele>
<desc>Speed 33.0 km/h Distance 168 km</desc>
<time>2012-09-18T18:26:17.01</time>
<name>8814</name>
<sym>Dot</sym>
</trkpt>
<trkpt lat="47.700837" lon="16.029190">
<ele>445.5</ele>
<desc>Speed 31.1 km/h Distance 168 km</desc>
<time>2012-09-18T18:26:18.14</time>
<name>8815</name>
<sym>Dot</sym>
</trkpt>
<trkpt lat="47.700880" lon="16.029285">
<ele>445.0</ele>
<desc>Speed 31.4 km/h Distance 168 km</desc>
<time>2012-09-18T18:26:19.00</time>
<name>8816</name>
<sym>Dot</sym>
</trkpt>
<trkpt lat="47.700925" lon="16.029385">
<ele>444.5</ele>
<desc>Speed 31.9 km/h Distance 168 km</desc>
<time>2012-09-18T18:26:20.00</time>
<name>8817</name>
<sym>Dot</sym>
</trkpt>
<trkpt lat="47.700978" lon="16.029485">
<ele>444.5</ele>
<desc>Speed 35.0 km/h Distance 168 km</desc>
<time>2012-09-18T18:26:21.00</time>
<name>8818</name>
<sym>Dot</sym>
</trkpt>
<trkpt lat="47.701035" lon="16.029597">
<ele>444.0</ele>
<desc>Speed 37.2 km/h Distance 168 km</desc>
<time>2012-09-18T18:26:21.99</time>
<name>8819</name>
<sym>Dot</sym>
</trkpt>
<trkpt lat="47.701095" lon="16.029712">
<ele>444.0</ele>
<desc>Speed 39.1 km/h Distance 168 km</desc>
<time>2012-09-18T18:26:22.98</time>
<name>8820</name>
<sym>Dot</sym>
</trkpt>
<trkpt lat="47.701162" lon="16.029847">
<ele>444.0</ele>
<desc>Speed 45.1 km/h Distance 168 km</desc>
<time>2012-09-18T18:26:23.98</time>
<name>8821</name>
<sym>Dot</sym>
</trkpt>
<trkpt lat="47.701305" lon="16.030173">
<ele>445.0</ele>
<desc>Speed 51.7 km/h Distance 168 km</desc>
<time>2012-09-18T18:26:25.98</time>
<name>8822</name>
<sym>Dot</sym>
</trkpt>
<trkpt lat="47.701372" lon="16.030325">
<ele>445.0</ele>
<desc>Speed 48.6 km/h Distance 168 km</desc>
<time>2012-09-18T18:26:27.04</time>
<name>8823</name>
<sym>Dot</sym>
</trkpt>
<trkpt lat="47.701435" lon="16.030477">
<ele>445.0</ele>
<desc>Speed 47.6 km/h Distance 168 km</desc>
<time>2012-09-18T18:26:27.97</time>
<name>8824</name>
<sym>Dot</sym>
</trkpt>
<trkpt lat="47.701500" lon="16.030628">
<ele>444.5</ele>
<desc>Speed 48.2 km/h Distance 168 km</desc>
<time>2012-09-18T18:26:28.97</time>
<name>8825</name>
<sym>Dot</sym>
</trkpt>
<trkpt lat="47.701573" lon="16.030795">
<ele>443.5</ele>
<desc>Speed 53.7 km/h Distance 168 km</desc>
<time>2012-09-18T18:26:29.97</time>
<name>8826</name>
<sym>Dot</sym>
</trkpt>
<trkpt lat="47.701755" lon="16.031153">
<ele>443.0</ele>
<desc>Speed 57.5 km/h Distance 168 km</desc>
<time>2012-09-18T18:26:31.97</time>
<name>8827</name>
<sym>Dot</sym>
</trkpt>
<trkpt lat="47.701830" lon="16.031305">
<ele>443.0</ele>
<desc>Speed 50.8 km/h Distance 168 km</desc>
<time>2012-09-18T18:26:32.97</time>
<name>8828</name>
<sym>Dot</sym>
</trkpt>
<trkpt lat="47.701908" lon="16.031452">
<ele>443.0</ele>
<desc>Speed 50.8 km/h Distance 168 km</desc>
<time>2012-09-18T18:26:33.97</time>
<name>8829</name>
<sym>Dot</sym>
</trkpt>
<trkpt lat="47.701987" lon="16.031600">
<ele>442.5</ele>
<desc>Speed 50.6 km/h Distance 168 km</desc>
<time>2012-09-18T18:26:34.95</time>
<name>8830</name>
<sym>Dot</sym>
</trkpt>
<trkpt lat="47.702068" lon="16.031745">
<ele>443.0</ele>
<desc>Speed 51.4 km/h Distance 168 km</desc>
<time>2012-09-18T18:26:36.02</time>
<name>8831</name>
<sym>Dot</sym>
</trkpt>
<trkpt lat="47.702153" lon="16.031892">
<ele>443.0</ele>
<desc>Speed 51.8 km/h Distance 168 km</desc>
<time>2012-09-18T18:26:36.95</time>
<name>8832</name>
<sym>Dot</sym>
</trkpt>
<trkpt lat="47.702235" lon="16.032038">
<ele>443.0</ele>
<desc>Speed 51.7 km/h Distance 168 km</desc>
<time>2012-09-18T18:26:37.94</time>
<name>8833</name>
<sym>Dot</sym>
</trkpt>
<trkpt lat="47.702317" lon="16.032188">
<ele>443.5</ele>
<desc>Speed 51.8 km/h Distance 168 km</desc>
<time>2012-09-18T18:26:38.94</time>
<name>8834</name>
<sym>Dot</sym>
</trkpt>
<trkpt lat="47.702397" lon="16.032338">
<ele>443.5</ele>
<desc>Speed 51.9 km/h Distance 168 km</desc>
<time>2012-09-18T18:26:39.93</time>
<name>8835</name>
<sym>Dot</sym>
</trkpt>
<trkpt lat="47.702475" lon="16.032487">
<ele>443.5</ele>
<desc>Speed 51.1 km/h Distance 168 km</desc>
<time>2012-09-18T18:26:40.92</time>
<name>8836</name>
<sym>Dot</sym>
</trkpt>
<trkpt lat="47.702545" lon="16.032637">
<ele>444.0</ele>
<desc>Speed 49.4 km/h Distance 168 km</desc>
<time>2012-09-18T18:26:41.92</time>
<name>8837</name>
<sym>Dot</sym>
</trkpt>
<trkpt lat="47.702600" lon="16.032793">
<ele>444.0</ele>
<desc>Speed 48.1 km/h Distance 168 km</desc>
<time>2012-09-18T18:26:42.91</time>
<name>8838</name>
<sym>Dot</sym>
</trkpt>
<trkpt lat="47.702653" lon="16.032965">
<ele>444.0</ele>
<desc>Speed 51.7 km/h Distance 168 km</desc>
<time>2012-09-18T18:26:43.91</time>
<name>8839</name>
<sym>Dot</sym>
</trkpt>
<trkpt lat="47.702708" lon="16.033152">
<ele>444.0</ele>
<desc>Speed 55.1 km/h Distance 168 km</desc>
<time>2012-09-18T18:26:44.96</time>
<name>8840</name>
<sym>Dot</sym>
</trkpt>
<trkpt lat="47.702763" lon="16.033337">
<ele>444.0</ele>
<desc>Speed 55.0 km/h Distance 168 km</desc>
<time>2012-09-18T18:26:45.89</time>
<name>8841</name>
<sym>Dot</sym>
</trkpt>
<trkpt lat="47.702818" lon="16.033517">
<ele>443.5</ele>
<desc>Speed 53.7 km/h Distance 168 km</desc>
<time>2012-09-18T18:26:46.88</time>
<name>8842</name>
<sym>Dot</sym>
</trkpt>
<trkpt lat="47.702878" lon="16.033688">
<ele>443.5</ele>
<desc>Speed 52.4 km/h Distance 168 km</desc>
<time>2012-09-18T18:26:47.89</time>
<name>8843</name>
<sym>Dot</sym>
</trkpt>
<trkpt lat="47.702938" lon="16.033857">
<ele>443.0</ele>
<desc>Speed 52.0 km/h Distance 168 km</desc>
<time>2012-09-18T18:26:48.87</time>
<name>8844</name>
<sym>Dot</sym>
</trkpt>
<trkpt lat="47.703002" lon="16.034022">
<ele>443.0</ele>
<desc>Speed 51.8 km/h Distance 168 km</desc>
<time>2012-09-18T18:26:49.87</time>
<name>8845</name>
<sym>Dot</sym>
</trkpt>
<trkpt lat="47.703075" lon="16.034180">
<ele>443.0</ele>
<desc>Speed 51.8 km/h Distance 168 km</desc>
<time>2012-09-18T18:26:50.88</time>
<name>8846</name>
<sym>Dot</sym>
</trkpt>
<trkpt lat="47.703150" lon="16.034325">
<ele>442.5</ele>
<desc>Speed 49.8 km/h Distance 168 km</desc>
<time>2012-09-18T18:26:51.87</time>
<name>8847</name>
<sym>Dot</sym>
</trkpt>
<trkpt lat="47.703228" lon="16.034462">
<ele>442.5</ele>
<desc>Speed 48.8 km/h Distance 168 km</desc>
<time>2012-09-18T18:26:52.86</time>
<name>8848</name>
<sym>Dot</sym>
</trkpt>
<trkpt lat="47.703308" lon="16.034593">
<ele>443.0</ele>
<desc>Speed 47.3 km/h Distance 168 km</desc>
<time>2012-09-18T18:26:53.92</time>
<name>8849</name>
<sym>Dot</sym>
</trkpt>
<trkpt lat="47.703387" lon="16.034710">
<ele>443.0</ele>
<desc>Speed 44.5 km/h Distance 168 km</desc>
<time>2012-09-18T18:26:54.84</time>
<name>8850</name>
<sym>Dot</sym>
</trkpt>
<trkpt lat="47.703457" lon="16.034803">
<ele>444.5</ele>
<desc>Speed 37.8 km/h Distance 168 km</desc>
<time>2012-09-18T18:26:55.84</time>
<name>8851</name>
<sym>Dot</sym>
</trkpt>
<trkpt lat="47.703522" lon="16.034890">
<ele>445.0</ele>
<desc>Speed 35.6 km/h Distance 168 km</desc>
<time>2012-09-18T18:26:56.84</time>
<name>8852</name>
<sym>Dot</sym>
</trkpt>
<trkpt lat="47.703580" lon="16.034962">
<ele>445.5</ele>
<desc>Speed 30.7 km/h Distance 168 km</desc>
<time>2012-09-18T18:26:57.83</time>
<name>8853</name>
<sym>Dot</sym>
</trkpt>
<trkpt lat="47.703632" lon="16.035017">
<ele>446.0</ele>
<desc>Speed 25.3 km/h Distance 168 km</desc>
<time>2012-09-18T18:26:58.82</time>
<name>8854</name>
<sym>Dot</sym>
</trkpt>
<trkpt lat="47.703682" lon="16.035080">
<ele>445.5</ele>
<desc>Speed 26.4 km/h Distance 168 km</desc>
<time>2012-09-18T18:26:59.82</time>
<name>8855</name>
<sym>Dot</sym>
</trkpt>
<trkpt lat="47.703727" lon="16.035133">
<ele>445.0</ele>
<desc>Speed 23.0 km/h Distance 168 km</desc>
<time>2012-09-18T18:27:00.81</time>
<name>8856</name>
<sym>Dot</sym>
</trkpt>
<trkpt lat="47.703762" lon="16.035170">
<ele>444.5</ele>
<desc>Speed 17.4 km/h Distance 168 km</desc>
<time>2012-09-18T18:27:01.80</time>
<name>8857</name>
<sym>Dot</sym>
</trkpt>
<trkpt lat="47.703795" lon="16.035205">
<ele>444.5</ele>
<desc>Speed 17.2 km/h Distance 168 km</desc>
<time>2012-09-18T18:27:02.89</time>
<name>8858</name>
<sym>Dot</sym>
</trkpt>
<trkpt lat="47.703828" lon="16.035243">
<ele>444.5</ele>
<desc>Speed 17.7 km/h Distance 168 km</desc>
<time>2012-09-18T18:27:03.80</time>
<name>8859</name>
<sym>Dot</sym>
</trkpt>
<trkpt lat="47.703868" lon="16.035297">
<ele>444.0</ele>
<desc>Speed 22.1 km/h Distance 168 km</desc>
<time>2012-09-18T18:27:04.80</time>
<name>8860</name>
<sym>Dot</sym>
</trkpt>
<trkpt lat="47.703923" lon="16.035362">
<ele>444.0</ele>
<desc>Speed 28.0 km/h Distance 168 km</desc>
<time>2012-09-18T18:27:05.79</time>
<name>8861</name>
<sym>Dot</sym>
</trkpt>
<trkpt lat="47.703978" lon="16.035427">
<ele>443.5</ele>
<desc>Speed 28.0 km/h Distance 168 km</desc>
<time>2012-09-18T18:27:06.79</time>
<name>8862</name>
<sym>Dot</sym>
</trkpt>
<trkpt lat="47.704038" lon="16.035493">
<ele>443.5</ele>
<desc>Speed 30.2 km/h Distance 168 km</desc>
<time>2012-09-18T18:27:07.77</time>
<name>8863</name>
<sym>Dot</sym>
</trkpt>
<trkpt lat="47.704108" lon="16.035570">
<ele>443.5</ele>
<desc>Speed 34.8 km/h Distance 168 km</desc>
<time>2012-09-18T18:27:08.76</time>
<name>8864</name>
<sym>Dot</sym>
</trkpt>
<trkpt lat="47.704193" lon="16.035660">
<ele>443.5</ele>
<desc>Speed 41.6 km/h Distance 168 km</desc>
<time>2012-09-18T18:27:09.77</time>
<name>8865</name>
<sym>Dot</sym>
</trkpt>
<trkpt lat="47.704282" lon="16.035758">
<ele>443.0</ele>
<desc>Speed 44.0 km/h Distance 168 km</desc>
<time>2012-09-18T18:27:10.76</time>
<name>8866</name>
<sym>Dot</sym>
</trkpt>
<trkpt lat="47.704367" lon="16.035852">
<ele>443.0</ele>
<desc>Speed 41.9 km/h Distance 168 km</desc>
<time>2012-09-18T18:27:11.81</time>
<name>8867</name>
<sym>Dot</sym>
</trkpt>
<trkpt lat="47.704452" lon="16.035947">
<ele>442.5</ele>
<desc>Speed 42.4 km/h Distance 168 km</desc>
<time>2012-09-18T18:27:12.75</time>
<name>8868</name>
<sym>Dot</sym>
</trkpt>
<trkpt lat="47.704533" lon="16.036038">
<ele>442.0</ele>
<desc>Speed 41.3 km/h Distance 168 km</desc>
<time>2012-09-18T18:27:13.74</time>
<name>8869</name>
<sym>Dot</sym>
</trkpt>
<trkpt lat="47.704613" lon="16.036128">
<ele>442.0</ele>
<desc>Speed 39.9 km/h Distance 168 km</desc>
<time>2012-09-18T18:27:14.74</time>
<name>8870</name>
<sym>Dot</sym>
</trkpt>
<trkpt lat="47.704700" lon="16.036223">
<ele>441.5</ele>
<desc>Speed 42.8 km/h Distance 168 km</desc>
<time>2012-09-18T18:27:15.73</time>
<name>8871</name>
<sym>Dot</sym>
</trkpt>
<trkpt lat="47.705030" lon="16.036612">
<ele>441.0</ele>
<desc>Speed 57.1 km/h Distance 168 km</desc>
<time>2012-09-18T18:27:19.37</time>
<name>8872</name>
<sym>Dot</sym>
</trkpt>
<trkpt lat="47.705147" lon="16.036747">
<ele>440.5</ele>
<desc>Speed 58.9 km/h Distance 168 km</desc>
<time>2012-09-18T18:27:20.37</time>
<name>8873</name>
<sym>Dot</sym>
</trkpt>
<trkpt lat="47.705258" lon="16.036880">
<ele>440.5</ele>
<desc>Speed 57.4 km/h Distance 168 km</desc>
<time>2012-09-18T18:27:21.43</time>
<name>8874</name>
<sym>Dot</sym>
</trkpt>
<trkpt lat="47.705365" lon="16.037007">
<ele>440.5</ele>
<desc>Speed 54.5 km/h Distance 168 km</desc>
<time>2012-09-18T18:27:22.35</time>
<name>8875</name>
<sym>Dot</sym>
</trkpt>
<trkpt lat="47.705462" lon="16.037123">
<ele>441.0</ele>
<desc>Speed 49.9 km/h Distance 168 km</desc>
<time>2012-09-18T18:27:23.34</time>
<name>8876</name>
<sym>Dot</sym>
</trkpt>
<trkpt lat="47.705562" lon="16.037250">
<ele>440.0</ele>
<desc>Speed 50.9 km/h Distance 168 km</desc>
<time>2012-09-18T18:27:24.34</time>
<name>8877</name>
<sym>Dot</sym>
</trkpt>
<trkpt lat="47.705657" lon="16.037380">
<ele>439.5</ele>
<desc>Speed 49.7 km/h Distance 168 km</desc>
<time>2012-09-18T18:27:25.34</time>
<name>8878</name>
<sym>Dot</sym>
</trkpt>
<trkpt lat="47.705752" lon="16.037512">
<ele>439.0</ele>
<desc>Speed 51.5 km/h Distance 168 km</desc>
<time>2012-09-18T18:27:26.33</time>
<name>8879</name>
<sym>Dot</sym>
</trkpt>
<trkpt lat="47.705847" lon="16.037648">
<ele>438.5</ele>
<desc>Speed 52.2 km/h Distance 168 km</desc>
<time>2012-09-18T18:27:27.34</time>
<name>8880</name>
<sym>Dot</sym>
</trkpt>
<trkpt lat="47.705943" lon="16.037782">
<ele>438.5</ele>
<desc>Speed 52.4 km/h Distance 168 km</desc>
<time>2012-09-18T18:27:28.33</time>
<name>8881</name>
<sym>Dot</sym>
</trkpt>
<trkpt lat="47.706033" lon="16.037913">
<ele>438.5</ele>
<desc>Speed 50.0 km/h Distance 168 km</desc>
<time>2012-09-18T18:27:29.32</time>
<name>8882</name>
<sym>Dot</sym>
</trkpt>
<trkpt lat="47.706115" lon="16.038045">
<ele>438.0</ele>
<desc>Speed 48.1 km/h Distance 168 km</desc>
<time>2012-09-18T18:27:30.37</time>
<name>8883</name>
<sym>Dot</sym>
</trkpt>
<trkpt lat="47.706193" lon="16.038177">
<ele>438.0</ele>
<desc>Speed 46.5 km/h Distance 168 km</desc>
<time>2012-09-18T18:27:31.31</time>
<name>8884</name>
<sym>Dot</sym>
</trkpt>
<trkpt lat="47.706268" lon="16.038305">
<ele>438.0</ele>
<desc>Speed 45.5 km/h Distance 168 km</desc>
<time>2012-09-18T18:27:32.30</time>
<name>8885</name>
<sym>Dot</sym>
</trkpt>
<trkpt lat="47.706340" lon="16.038430">
<ele>437.5</ele>
<desc>Speed 43.8 km/h Distance 169 km</desc>
<time>2012-09-18T18:27:33.30</time>
<name>8886</name>
<sym>Dot</sym>
</trkpt>
<trkpt lat="47.706410" lon="16.038555">
<ele>437.5</ele>
<desc>Speed 43.7 km/h Distance 169 km</desc>
<time>2012-09-18T18:27:34.29</time>
<name>8887</name>
<sym>Dot</sym>
</trkpt>
<trkpt lat="47.706482" lon="16.038678">
<ele>437.5</ele>
<desc>Speed 44.0 km/h Distance 169 km</desc>
<time>2012-09-18T18:27:35.29</time>
<name>8888</name>
<sym>Dot</sym>
</trkpt>
<trkpt lat="47.706558" lon="16.038810">
<ele>437.5</ele>
<desc>Speed 46.5 km/h Distance 169 km</desc>
<time>2012-09-18T18:27:36.29</time>
<name>8889</name>
<sym>Dot</sym>
</trkpt>
<trkpt lat="47.706642" lon="16.038953">
<ele>437.5</ele>
<desc>Speed 51.0 km/h Distance 169 km</desc>
<time>2012-09-18T18:27:37.29</time>
<name>8890</name>
<sym>Dot</sym>
</trkpt>
<trkpt lat="47.706727" lon="16.039093">
<ele>438.0</ele>
<desc>Speed 50.6 km/h Distance 169 km</desc>
<time>2012-09-18T18:27:38.28</time>
<name>8891</name>
<sym>Dot</sym>
</trkpt>
<trkpt lat="47.706810" lon="16.039232">
<ele>437.5</ele>
<desc>Speed 49.9 km/h Distance 169 km</desc>
<time>2012-09-18T18:27:39.33</time>
<name>8892</name>
<sym>Dot</sym>
</trkpt>
<trkpt lat="47.706897" lon="16.039375">
<ele>438.0</ele>
<desc>Speed 51.6 km/h Distance 169 km</desc>
<time>2012-09-18T18:27:40.26</time>
<name>8893</name>
<sym>Dot</sym>
</trkpt>
<trkpt lat="47.706993" lon="16.039517">
<ele>438.0</ele>
<desc>Speed 53.6 km/h Distance 169 km</desc>
<time>2012-09-18T18:27:41.26</time>
<name>8894</name>
<sym>Dot</sym>
</trkpt>
<trkpt lat="47.707082" lon="16.039658">
<ele>438.0</ele>
<desc>Speed 51.7 km/h Distance 169 km</desc>
<time>2012-09-18T18:27:42.26</time>
<name>8895</name>
<sym>Dot</sym>
</trkpt>
<trkpt lat="47.707163" lon="16.039795">
<ele>438.0</ele>
<desc>Speed 49.4 km/h Distance 169 km</desc>
<time>2012-09-18T18:27:43.27</time>
<name>8896</name>
<sym>Dot</sym>
</trkpt>
<trkpt lat="47.707243" lon="16.039925">
<ele>438.0</ele>
<desc>Speed 47.4 km/h Distance 169 km</desc>
<time>2012-09-18T18:27:44.26</time>
<name>8897</name>
<sym>Dot</sym>
</trkpt>
<trkpt lat="47.707322" lon="16.040048">
<ele>438.0</ele>
<desc>Speed 45.4 km/h Distance 169 km</desc>
<time>2012-09-18T18:27:45.25</time>
<name>8898</name>
<sym>Dot</sym>
</trkpt>
<trkpt lat="47.707397" lon="16.040165">
<ele>437.5</ele>
<desc>Speed 43.3 km/h Distance 169 km</desc>
<time>2012-09-18T18:27:46.24</time>
<name>8899</name>
<sym>Dot</sym>
</trkpt>
<trkpt lat="47.707470" lon="16.040273">
<ele>437.5</ele>
<desc>Speed 41.7 km/h Distance 169 km</desc>
<time>2012-09-18T18:27:47.24</time>
<name>8900</name>
<sym>Dot</sym>
</trkpt>
<trkpt lat="47.707540" lon="16.040375">
<ele>438.0</ele>
<desc>Speed 39.7 km/h Distance 169 km</desc>
<time>2012-09-18T18:27:48.29</time>
<name>8901</name>
<sym>Dot</sym>
</trkpt>
<trkpt lat="47.707610" lon="16.040472">
<ele>438.0</ele>
<desc>Speed 37.9 km/h Distance 169 km</desc>
<time>2012-09-18T18:27:49.22</time>
<name>8902</name>
<sym>Dot</sym>
</trkpt>
<trkpt lat="47.707675" lon="16.040560">
<ele>438.0</ele>
<desc>Speed 35.6 km/h Distance 169 km</desc>
<time>2012-09-18T18:27:50.22</time>
<name>8903</name>
<sym>Dot</sym>
</trkpt>
<trkpt lat="47.707735" lon="16.040642">
<ele>438.0</ele>
<desc>Speed 32.6 km/h Distance 169 km</desc>
<time>2012-09-18T18:27:51.22</time>
<name>8904</name>
<sym>Dot</sym>
</trkpt>
<trkpt lat="47.707792" lon="16.040707">
<ele>437.0</ele>
<desc>Speed 29.0 km/h Distance 169 km</desc>
<time>2012-09-18T18:27:52.22</time>
<name>8905</name>
<sym>Dot</sym>
</trkpt>
<trkpt lat="47.707847" lon="16.040770">
<ele>436.5</ele>
<desc>Speed 27.5 km/h Distance 169 km</desc>
<time>2012-09-18T18:27:53.22</time>
<name>8906</name>
<sym>Dot</sym>
</trkpt>
<trkpt lat="47.707897" lon="16.040832">
<ele>435.5</ele>
<desc>Speed 25.5 km/h Distance 169 km</desc>
<time>2012-09-18T18:27:54.21</time>
<name>8907</name>
<sym>Dot</sym>
</trkpt>
<trkpt lat="47.707945" lon="16.040892">
<ele>435.5</ele>
<desc>Speed 25.3 km/h Distance 169 km</desc>
<time>2012-09-18T18:27:55.20</time>
<name>8908</name>
<sym>Dot</sym>
</trkpt>
<trkpt lat="47.707998" lon="16.040957">
<ele>436.0</ele>
<desc>Speed 26.1 km/h Distance 169 km</desc>
<time>2012-09-18T18:27:56.19</time>
<name>8909</name>
<sym>Dot</sym>
</trkpt>
<trkpt lat="47.708047" lon="16.041018">
<ele>436.5</ele>
<desc>Speed 24.5 km/h Distance 169 km</desc>
<time>2012-09-18T18:27:57.25</time>
<name>8910</name>
<sym>Dot</sym>
</trkpt>
<trkpt lat="47.708092" lon="16.041075">
<ele>436.0</ele>
<desc>Speed 23.2 km/h Distance 169 km</desc>
<time>2012-09-18T18:27:58.18</time>
<name>8911</name>
<sym>Dot</sym>
</trkpt>
<trkpt lat="47.708133" lon="16.041128">
<ele>436.0</ele>
<desc>Speed 22.0 km/h Distance 169 km</desc>
<time>2012-09-18T18:27:59.17</time>
<name>8912</name>
<sym>Dot</sym>
</trkpt>
<trkpt lat="47.708175" lon="16.041182">
<ele>436.0</ele>
<desc>Speed 21.8 km/h Distance 169 km</desc>
<time>2012-09-18T18:28:00.16</time>
<name>8913</name>
<sym>Dot</sym>
</trkpt>
<trkpt lat="47.708215" lon="16.041235">
<ele>436.5</ele>
<desc>Speed 21.5 km/h Distance 169 km</desc>
<time>2012-09-18T18:28:01.16</time>
<name>8914</name>
<sym>Dot</sym>
</trkpt>
<trkpt lat="47.708253" lon="16.041285">
<ele>436.5</ele>
<desc>Speed 20.0 km/h Distance 169 km</desc>
<time>2012-09-18T18:28:02.16</time>
<name>8915</name>
<sym>Dot</sym>
</trkpt>
<trkpt lat="47.708285" lon="16.041327">
<ele>436.0</ele>
<desc>Speed 17.0 km/h Distance 169 km</desc>
<time>2012-09-18T18:28:03.16</time>
<name>8916</name>
<sym>Dot</sym>
</trkpt>
<trkpt lat="47.708313" lon="16.041363">
<ele>436.0</ele>
<desc>Speed 14.9 km/h Distance 169 km</desc>
<time>2012-09-18T18:28:04.15</time>
<name>8917</name>
<sym>Dot</sym>
</trkpt>
<trkpt lat="47.708340" lon="16.041398">
<ele>435.5</ele>
<desc>Speed 13.8 km/h Distance 169 km</desc>
<time>2012-09-18T18:28:05.14</time>
<name>8918</name>
<sym>Dot</sym>
</trkpt>
<trkpt lat="47.708365" lon="16.041430">
<ele>436.0</ele>
<desc>Speed 12.7 km/h Distance 169 km</desc>
<time>2012-09-18T18:28:06.17</time>
<name>8919</name>
<sym>Dot</sym>
</trkpt>
<trkpt lat="47.708387" lon="16.041462">
<ele>436.0</ele>
<desc>Speed 11.9 km/h Distance 169 km</desc>
<time>2012-09-18T18:28:07.14</time>
<name>8920</name>
<sym>Dot</sym>
</trkpt>
<trkpt lat="47.708420" lon="16.041503">
<ele>436.0</ele>
<desc>Speed 17.0 km/h Distance 169 km</desc>
<time>2012-09-18T18:28:08.13</time>
<name>8921</name>
<sym>Dot</sym>
</trkpt>
<trkpt lat="47.708465" lon="16.041562">
<ele>436.5</ele>
<desc>Speed 23.7 km/h Distance 169 km</desc>
<time>2012-09-18T18:28:09.13</time>
<name>8922</name>
<sym>Dot</sym>
</trkpt>
<trkpt lat="47.708513" lon="16.041632">
<ele>436.5</ele>
<desc>Speed 26.3 km/h Distance 169 km</desc>
<time>2012-09-18T18:28:10.13</time>
<name>8923</name>
<sym>Dot</sym>
</trkpt>
<trkpt lat="47.708568" lon="16.041710">
<ele>436.5</ele>
<desc>Speed 30.3 km/h Distance 169 km</desc>
<time>2012-09-18T18:28:11.13</time>
<name>8924</name>
<sym>Dot</sym>
</trkpt>
<trkpt lat="47.708633" lon="16.041803">
<ele>437.0</ele>
<desc>Speed 35.9 km/h Distance 169 km</desc>
<time>2012-09-18T18:28:12.12</time>
<name>8925</name>
<sym>Dot</sym>
</trkpt>
<trkpt lat="47.708703" lon="16.041905">
<ele>437.0</ele>
<desc>Speed 38.6 km/h Distance 169 km</desc>
<time>2012-09-18T18:28:13.12</time>
<name>8926</name>
<sym>Dot</sym>
</trkpt>
<trkpt lat="47.708770" lon="16.042007">
<ele>437.5</ele>
<desc>Speed 37.1 km/h Distance 169 km</desc>
<time>2012-09-18T18:28:14.11</time>
<name>8927</name>
<sym>Dot</sym>
</trkpt>
<trkpt lat="47.708843" lon="16.042117">
<ele>437.5</ele>
<desc>Speed 41.3 km/h Distance 169 km</desc>
<time>2012-09-18T18:28:15.17</time>
<name>8928</name>
<sym>Dot</sym>
</trkpt>
<trkpt lat="47.709092" lon="16.042600">
<ele>440.0</ele>
<desc>Speed 53.6 km/h Distance 169 km</desc>
<time>2012-09-18T18:28:18.37</time>
<name>8929</name>
<sym>Dot</sym>
</trkpt>
<trkpt lat="47.709160" lon="16.042758">
<ele>440.0</ele>
<desc>Speed 50.7 km/h Distance 169 km</desc>
<time>2012-09-18T18:28:19.35</time>
<name>8930</name>
<sym>Dot</sym>
</trkpt>
<trkpt lat="47.709223" lon="16.042912">
<ele>440.0</ele>
<desc>Speed 48.3 km/h Distance 169 km</desc>
<time>2012-09-18T18:28:20.35</time>
<name>8931</name>
<sym>Dot</sym>
</trkpt>
<trkpt lat="47.709283" lon="16.043067">
<ele>440.0</ele>
<desc>Speed 48.3 km/h Distance 169 km</desc>
<time>2012-09-18T18:28:21.35</time>
<name>8932</name>
<sym>Dot</sym>
</trkpt>
<trkpt lat="47.709338" lon="16.043223">
<ele>440.0</ele>
<desc>Speed 47.9 km/h Distance 169 km</desc>
<time>2012-09-18T18:28:22.34</time>
<name>8933</name>
<sym>Dot</sym>
</trkpt>
<trkpt lat="47.709390" lon="16.043380">
<ele>440.0</ele>
<desc>Speed 46.9 km/h Distance 169 km</desc>
<time>2012-09-18T18:28:23.34</time>
<name>8934</name>
<sym>Dot</sym>
</trkpt>
<trkpt lat="47.709437" lon="16.043535">
<ele>440.0</ele>
<desc>Speed 45.8 km/h Distance 169 km</desc>
<time>2012-09-18T18:28:24.35</time>
<name>8935</name>
<sym>Dot</sym>
</trkpt>
<trkpt lat="47.709482" lon="16.043688">
<ele>440.0</ele>
<desc>Speed 44.8 km/h Distance 169 km</desc>
<time>2012-09-18T18:28:25.33</time>
<name>8936</name>
<sym>Dot</sym>
</trkpt>
<trkpt lat="47.709523" lon="16.043845">
<ele>440.5</ele>
<desc>Speed 46.0 km/h Distance 169 km</desc>
<time>2012-09-18T18:28:26.33</time>
<name>8937</name>
<sym>Dot</sym>
</trkpt>
<trkpt lat="47.709567" lon="16.044015">
<ele>440.5</ele>
<desc>Speed 49.3 km/h Distance 169 km</desc>
<time>2012-09-18T18:28:27.32</time>
<name>8938</name>
<sym>Dot</sym>
</trkpt>
<trkpt lat="47.709612" lon="16.044203">
<ele>441.0</ele>
<desc>Speed 53.8 km/h Distance 169 km</desc>
<time>2012-09-18T18:28:28.32</time>
<name>8939</name>
<sym>Dot</sym>
</trkpt>
<trkpt lat="47.709688" lon="16.044643">
<ele>441.0</ele>
<desc>Speed 59.5 km/h Distance 169 km</desc>
<time>2012-09-18T18:28:30.32</time>
<name>8940</name>
<sym>Dot</sym>
</trkpt>
<trkpt lat="47.709718" lon="16.044852">
<ele>441.0</ele>
<desc>Speed 57.7 km/h Distance 169 km</desc>
<time>2012-09-18T18:28:31.32</time>
<name>8941</name>
<sym>Dot</sym>
</trkpt>
<trkpt lat="47.709747" lon="16.045053">
<ele>441.0</ele>
<desc>Speed 55.7 km/h Distance 169 km</desc>
<time>2012-09-18T18:28:32.31</time>
<name>8942</name>
<sym>Dot</sym>
</trkpt>
<trkpt lat="47.709772" lon="16.045248">
<ele>441.5</ele>
<desc>Speed 53.7 km/h Distance 169 km</desc>
<time>2012-09-18T18:28:33.37</time>
<name>8943</name>
<sym>Dot</sym>
</trkpt>
<trkpt lat="47.709798" lon="16.045443">
<ele>441.5</ele>
<desc>Speed 53.5 km/h Distance 169 km</desc>
<time>2012-09-18T18:28:34.29</time>
<name>8944</name>
<sym>Dot</sym>
</trkpt>
<trkpt lat="47.709827" lon="16.045638">
<ele>441.5</ele>
<desc>Speed 54.3 km/h Distance 169 km</desc>
<time>2012-09-18T18:28:35.28</time>
<name>8945</name>
<sym>Dot</sym>
</trkpt>
<trkpt lat="47.709855" lon="16.045838">
<ele>441.5</ele>
<desc>Speed 55.3 km/h Distance 169 km</desc>
<time>2012-09-18T18:28:36.28</time>
<name>8946</name>
<sym>Dot</sym>
</trkpt>
<trkpt lat="47.709888" lon="16.046045">
<ele>441.5</ele>
<desc>Speed 57.3 km/h Distance 169 km</desc>
<time>2012-09-18T18:28:37.27</time>
<name>8947</name>
<sym>Dot</sym>
</trkpt>
<trkpt lat="47.709927" lon="16.046258">
<ele>441.5</ele>
<desc>Speed 59.8 km/h Distance 169 km</desc>
<time>2012-09-18T18:28:38.27</time>
<name>8948</name>
<sym>Dot</sym>
</trkpt>
<trkpt lat="47.709975" lon="16.046480">
<ele>441.5</ele>
<desc>Speed 63.1 km/h Distance 169 km</desc>
<time>2012-09-18T18:28:39.26</time>
<name>8949</name>
<sym>Dot</sym>
</trkpt>
<trkpt lat="47.710027" lon="16.046693">
<ele>441.5</ele>
<desc>Speed 61.6 km/h Distance 169 km</desc>
<time>2012-09-18T18:28:40.26</time>
<name>8950</name>
<sym>Dot</sym>
</trkpt>
<trkpt lat="47.710083" lon="16.046893">
<ele>441.0</ele>
<desc>Speed 58.6 km/h Distance 169 km</desc>
<time>2012-09-18T18:28:41.25</time>
<name>8951</name>
<sym>Dot</sym>
</trkpt>
<trkpt lat="47.710143" lon="16.047080">
<ele>440.5</ele>
<desc>Speed 55.8 km/h Distance 169 km</desc>
<time>2012-09-18T18:28:42.32</time>
<name>8952</name>
<sym>Dot</sym>
</trkpt>
<trkpt lat="47.710203" lon="16.047255">
<ele>440.5</ele>
<desc>Speed 53.3 km/h Distance 169 km</desc>
<time>2012-09-18T18:28:43.24</time>
<name>8953</name>
<sym>Dot</sym>
</trkpt>
<trkpt lat="47.710267" lon="16.047420">
<ele>440.5</ele>
<desc>Speed 51.3 km/h Distance 169 km</desc>
<time>2012-09-18T18:28:44.25</time>
<name>8954</name>
<sym>Dot</sym>
</trkpt>
<trkpt lat="47.710335" lon="16.047583">
<ele>440.0</ele>
<desc>Speed 51.8 km/h Distance 169 km</desc>
<time>2012-09-18T18:28:45.24</time>
<name>8955</name>
<sym>Dot</sym>
</trkpt>
<trkpt lat="47.710407" lon="16.047752">
<ele>440.0</ele>
<desc>Speed 54.0 km/h Distance 169 km</desc>
<time>2012-09-18T18:28:46.23</time>
<name>8956</name>
<sym>Dot</sym>
</trkpt>
<trkpt lat="47.710482" lon="16.047935">
<ele>440.0</ele>
<desc>Speed 58.1 km/h Distance 169 km</desc>
<time>2012-09-18T18:28:47.23</time>
<name>8957</name>
<sym>Dot</sym>
</trkpt>
<trkpt lat="47.710565" lon="16.048137">
<ele>440.0</ele>
<desc>Speed 64.4 km/h Distance 169 km</desc>
<time>2012-09-18T18:28:48.22</time>
<name>8958</name>
<sym>Dot</sym>
</trkpt>
<trkpt lat="47.710760" lon="16.048600">
<ele>440.0</ele>
<desc>Speed 74.7 km/h Distance 169 km</desc>
<time>2012-09-18T18:28:50.22</time>
<name>8959</name>
<sym>Dot</sym>
</trkpt>
<trkpt lat="47.710852" lon="16.048822">
<ele>440.0</ele>
<desc>Speed 70.7 km/h Distance 169 km</desc>
<time>2012-09-18T18:28:51.26</time>
<name>8960</name>
<sym>Dot</sym>
</trkpt>
<trkpt lat="47.710940" lon="16.049030">
<ele>440.0</ele>
<desc>Speed 66.9 km/h Distance 169 km</desc>
<time>2012-09-18T18:28:52.21</time>
<name>8961</name>
<sym>Dot</sym>
</trkpt>
<trkpt lat="47.711025" lon="16.049227">
<ele>440.0</ele>
<desc>Speed 63.4 km/h Distance 169 km</desc>
<time>2012-09-18T18:28:53.20</time>
<name>8962</name>
<sym>Dot</sym>
</trkpt>
<trkpt lat="47.711107" lon="16.049415">
<ele>440.0</ele>
<desc>Speed 60.5 km/h Distance 170 km</desc>
<time>2012-09-18T18:28:54.20</time>
<name>8963</name>
<sym>Dot</sym>
</trkpt>
<trkpt lat="47.711188" lon="16.049593">
<ele>440.5</ele>
<desc>Speed 58.0 km/h Distance 170 km</desc>
<time>2012-09-18T18:28:55.19</time>
<name>8964</name>
<sym>Dot</sym>
</trkpt>
<trkpt lat="47.711267" lon="16.049762">
<ele>440.0</ele>
<desc>Speed 55.5 km/h Distance 170 km</desc>
<time>2012-09-18T18:28:56.19</time>
<name>8965</name>
<sym>Dot</sym>
</trkpt>
<trkpt lat="47.711342" lon="16.049922">
<ele>440.5</ele>
<desc>Speed 52.8 km/h Distance 170 km</desc>
<time>2012-09-18T18:28:57.18</time>
<name>8966</name>
<sym>Dot</sym>
</trkpt>
<trkpt lat="47.711415" lon="16.050075">
<ele>440.5</ele>
<desc>Speed 50.6 km/h Distance 170 km</desc>
<time>2012-09-18T18:28:58.17</time>
<name>8967</name>
<sym>Dot</sym>
</trkpt>
<trkpt lat="47.711488" lon="16.050230">
<ele>440.5</ele>
<desc>Speed 51.1 km/h Distance 170 km</desc>
<time>2012-09-18T18:28:59.19</time>
<name>8968</name>
<sym>Dot</sym>
</trkpt>
<trkpt lat="47.711568" lon="16.050387">
<ele>440.5</ele>
<desc>Speed 53.3 km/h Distance 170 km</desc>
<time>2012-09-18T18:29:00.16</time>
<name>8969</name>
<sym>Dot</sym>
</trkpt>
<trkpt lat="47.711653" lon="16.050550">
<ele>441.0</ele>
<desc>Speed 55.5 km/h Distance 170 km</desc>
<time>2012-09-18T18:29:01.16</time>
<name>8970</name>
<sym>Dot</sym>
</trkpt>
<trkpt lat="47.711742" lon="16.050722">
<ele>441.0</ele>
<desc>Speed 58.4 km/h Distance 170 km</desc>
<time>2012-09-18T18:29:02.15</time>
<name>8971</name>
<sym>Dot</sym>
</trkpt>
<trkpt lat="47.711957" lon="16.051127">
<ele>439.5</ele>
<desc>Speed 71.6 km/h Distance 170 km</desc>
<time>2012-09-18T18:29:04.14</time>
<name>8972</name>
<sym>Dot</sym>
</trkpt>
<trkpt lat="47.712062" lon="16.051330">
<ele>440.0</ele>
<desc>Speed 69.1 km/h Distance 170 km</desc>
<time>2012-09-18T18:29:05.14</time>
<name>8973</name>
<sym>Dot</sym>
</trkpt>
<trkpt lat="47.712167" lon="16.051538">
<ele>441.0</ele>
<desc>Speed 70.3 km/h Distance 170 km</desc>
<time>2012-09-18T18:29:06.13</time>
<name>8974</name>
<sym>Dot</sym>
</trkpt>
<trkpt lat="47.712275" lon="16.051752">
<ele>441.5</ele>
<desc>Speed 72.3 km/h Distance 170 km</desc>
<time>2012-09-18T18:29:07.21</time>
<name>8975</name>
<sym>Dot</sym>
</trkpt>
<trkpt lat="47.712378" lon="16.051953">
<ele>442.0</ele>
<desc>Speed 68.1 km/h Distance 170 km</desc>
<time>2012-09-18T18:29:08.12</time>
<name>8976</name>
<sym>Dot</sym>
</trkpt>
<trkpt lat="47.712475" lon="16.052142">
<ele>442.5</ele>
<desc>Speed 64.0 km/h Distance 170 km</desc>
<time>2012-09-18T18:29:09.12</time>
<name>8977</name>
<sym>Dot</sym>
</trkpt>
<trkpt lat="47.712572" lon="16.052330">
<ele>443.0</ele>
<desc>Speed 63.5 km/h Distance 170 km</desc>
<time>2012-09-18T18:29:10.12</time>
<name>8978</name>
<sym>Dot</sym>
</trkpt>
<trkpt lat="47.712670" lon="16.052520">
<ele>443.5</ele>
<desc>Speed 64.4 km/h Distance 170 km</desc>
<time>2012-09-18T18:29:11.11</time>
<name>8979</name>
<sym>Dot</sym>
</trkpt>
<trkpt lat="47.712770" lon="16.052710">
<ele>444.0</ele>
<desc>Speed 65.4 km/h Distance 170 km</desc>
<time>2012-09-18T18:29:12.10</time>
<name>8980</name>
<sym>Dot</sym>
</trkpt>
<trkpt lat="47.712873" lon="16.052903">
<ele>444.5</ele>
<desc>Speed 66.2 km/h Distance 170 km</desc>
<time>2012-09-18T18:29:13.10</time>
<name>8981</name>
<sym>Dot</sym>
</trkpt>
<trkpt lat="47.712975" lon="16.053100">
<ele>445.0</ele>
<desc>Speed 66.8 km/h Distance 170 km</desc>
<time>2012-09-18T18:29:14.09</time>
<name>8982</name>
<sym>Dot</sym>
</trkpt>
<trkpt lat="47.713075" lon="16.053300">
<ele>445.5</ele>
<desc>Speed 67.5 km/h Distance 170 km</desc>
<time>2012-09-18T18:29:15.09</time>
<name>8983</name>
<sym>Dot</sym>
</trkpt>
<trkpt lat="47.713180" lon="16.053510">
<ele>446.0</ele>
<desc>Speed 70.9 km/h Distance 170 km</desc>
<time>2012-09-18T18:29:16.08</time>
<name>8984</name>
<sym>Dot</sym>
</trkpt>
<trkpt lat="47.713293" lon="16.053737">
<ele>446.0</ele>
<desc>Speed 76.0 km/h Distance 170 km</desc>
<time>2012-09-18T18:29:17.08</time>
<name>8985</name>
<sym>Dot</sym>
</trkpt>
<trkpt lat="47.713408" lon="16.053973">
<ele>446.5</ele>
<desc>Speed 78.6 km/h Distance 170 km</desc>
<time>2012-09-18T18:29:18.13</time>
<name>8986</name>
<sym>Dot</sym>
</trkpt>
<trkpt lat="47.713520" lon="16.054208">
<ele>446.5</ele>
<desc>Speed 77.7 km/h Distance 170 km</desc>
<time>2012-09-18T18:29:19.08</time>
<name>8987</name>
<sym>Dot</sym>
</trkpt>
<trkpt lat="47.713630" lon="16.054450">
<ele>447.0</ele>
<desc>Speed 78.5 km/h Distance 170 km</desc>
<time>2012-09-18T18:29:20.05</time>
<name>8988</name>
<sym>Dot</sym>
</trkpt>
<trkpt lat="47.713740" lon="16.054703">
<ele>447.0</ele>
<desc>Speed 81.3 km/h Distance 170 km</desc>
<time>2012-09-18T18:29:21.05</time>
<name>8989</name>
<sym>Dot</sym>
</trkpt>
<trkpt lat="47.713847" lon="16.054958">
<ele>447.0</ele>
<desc>Speed 81.4 km/h Distance 170 km</desc>
<time>2012-09-18T18:29:22.04</time>
<name>8990</name>
<sym>Dot</sym>
</trkpt>
<trkpt lat="47.713952" lon="16.055213">
<ele>446.5</ele>
<desc>Speed 80.4 km/h Distance 170 km</desc>
<time>2012-09-18T18:29:23.04</time>
<name>8991</name>
<sym>Dot</sym>
</trkpt>
<trkpt lat="47.714055" lon="16.055467">
<ele>446.5</ele>
<desc>Speed 80.2 km/h Distance 170 km</desc>
<time>2012-09-18T18:29:24.03</time>
<name>8992</name>
<sym>Dot</sym>
</trkpt>
<trkpt lat="47.714157" lon="16.055722">
<ele>446.0</ele>
<desc>Speed 80.2 km/h Distance 170 km</desc>
<time>2012-09-18T18:29:25.03</time>
<name>8993</name>
<sym>Dot</sym>
</trkpt>
<trkpt lat="47.714255" lon="16.055980">
<ele>445.5</ele>
<desc>Speed 79.9 km/h Distance 170 km</desc>
<time>2012-09-18T18:29:26.02</time>
<name>8994</name>
<sym>Dot</sym>
</trkpt>
<trkpt lat="47.714350" lon="16.056242">
<ele>445.0</ele>
<desc>Speed 80.1 km/h Distance 170 km</desc>
<time>2012-09-18T18:29:27.03</time>
<name>8995</name>
<sym>Dot</sym>
</trkpt>
<trkpt lat="47.714447" lon="16.056525">
<ele>444.5</ele>
<desc>Speed 86.2 km/h Distance 170 km</desc>
<time>2012-09-18T18:29:28.02</time>
<name>8996</name>
<sym>Dot</sym>
</trkpt>
<trkpt lat="47.714548" lon="16.056833">
<ele>444.0</ele>
<desc>Speed 92.8 km/h Distance 170 km</desc>
<time>2012-09-18T18:29:29.04</time>
<name>8997</name>
<sym>Dot</sym>
</trkpt>
<trkpt lat="47.714652" lon="16.057148">
<ele>443.5</ele>
<desc>Speed 94.5 km/h Distance 170 km</desc>
<time>2012-09-18T18:29:30.00</time>
<name>8998</name>
<sym>Dot</sym>
</trkpt>
<trkpt lat="47.714750" lon="16.057457">
<ele>442.5</ele>
<desc>Speed 92.0 km/h Distance 170 km</desc>
<time>2012-09-18T18:29:30.99</time>
<name>8999</name>
<sym>Dot</sym>
</trkpt>
<trkpt lat="47.714845" lon="16.057755">
<ele>441.5</ele>
<desc>Speed 89.3 km/h Distance 170 km</desc>
<time>2012-09-18T18:29:31.99</time>
<name>9000</name>
<sym>Dot</sym>
</trkpt>
<trkpt lat="47.714940" lon="16.058055">
<ele>441.0</ele>
<desc>Speed 89.4 km/h Distance 170 km</desc>
<time>2012-09-18T18:29:32.98</time>
<name>9001</name>
<sym>Dot</sym>
</trkpt>
<trkpt lat="47.715037" lon="16.058355">
<ele>440.0</ele>
<desc>Speed 89.7 km/h Distance 170 km</desc>
<time>2012-09-18T18:29:33.98</time>
<name>9002</name>
<sym>Dot</sym>
</trkpt>
<trkpt lat="47.715135" lon="16.058655">
<ele>439.5</ele>
<desc>Speed 89.9 km/h Distance 170 km</desc>
<time>2012-09-18T18:29:34.97</time>
<name>9003</name>
<sym>Dot</sym>
</trkpt>
<trkpt lat="47.715233" lon="16.058955">
<ele>438.5</ele>
<desc>Speed 89.8 km/h Distance 170 km</desc>
<time>2012-09-18T18:29:35.97</time>
<name>9004</name>
<sym>Dot</sym>
</trkpt>
<trkpt lat="47.715332" lon="16.059253">
<ele>437.5</ele>
<desc>Speed 89.5 km/h Distance 170 km</desc>
<time>2012-09-18T18:29:36.96</time>
<name>9005</name>
<sym>Dot</sym>
</trkpt>
<trkpt lat="47.715430" lon="16.059550">
<ele>437.0</ele>
<desc>Speed 89.0 km/h Distance 170 km</desc>
<time>2012-09-18T18:29:37.96</time>
<name>9006</name>
<sym>Dot</sym>
</trkpt>
<trkpt lat="47.715530" lon="16.059842">
<ele>436.5</ele>
<desc>Speed 88.2 km/h Distance 170 km</desc>
<time>2012-09-18T18:29:38.95</time>
<name>9007</name>
<sym>Dot</sym>
</trkpt>
<trkpt lat="47.715635" lon="16.060127">
<ele>436.0</ele>
<desc>Speed 87.6 km/h Distance 170 km</desc>
<time>2012-09-18T18:29:40.00</time>
<name>9008</name>
<sym>Dot</sym>
</trkpt>
<trkpt lat="47.715743" lon="16.060405">
<ele>435.5</ele>
<desc>Speed 86.5 km/h Distance 170 km</desc>
<time>2012-09-18T18:29:40.94</time>
<name>9009</name>
<sym>Dot</sym>
</trkpt>
<trkpt lat="47.715960" lon="16.060927">
<ele>434.0</ele>
<desc>Speed 80.7 km/h Distance 171 km</desc>
<time>2012-09-18T18:29:42.94</time>
<name>9010</name>
<sym>Dot</sym>
</trkpt>
<trkpt lat="47.716067" lon="16.061175">
<ele>433.5</ele>
<desc>Speed 78.7 km/h Distance 171 km</desc>
<time>2012-09-18T18:29:43.94</time>
<name>9011</name>
<sym>Dot</sym>
</trkpt>
<trkpt lat="47.716175" lon="16.061420">
<ele>433.0</ele>
<desc>Speed 78.9 km/h Distance 171 km</desc>
<time>2012-09-18T18:29:44.93</time>
<name>9012</name>
<sym>Dot</sym>
</trkpt>
<trkpt lat="47.716283" lon="16.061662">
<ele>432.5</ele>
<desc>Speed 78.4 km/h Distance 171 km</desc>
<time>2012-09-18T18:29:45.93</time>
<name>9013</name>
<sym>Dot</sym>
</trkpt>
<trkpt lat="47.716393" lon="16.061890">
<ele>432.0</ele>
<desc>Speed 75.6 km/h Distance 171 km</desc>
<time>2012-09-18T18:29:46.92</time>
<name>9014</name>
<sym>Dot</sym>
</trkpt>
<trkpt lat="47.716500" lon="16.062108">
<ele>431.5</ele>
<desc>Speed 72.4 km/h Distance 171 km</desc>
<time>2012-09-18T18:29:47.92</time>
<name>9015</name>
<sym>Dot</sym>
</trkpt>
<trkpt lat="47.716603" lon="16.062315">
<ele>431.0</ele>
<desc>Speed 69.6 km/h Distance 171 km</desc>
<time>2012-09-18T18:29:48.91</time>
<name>9016</name>
<sym>Dot</sym>
</trkpt>
<trkpt lat="47.716703" lon="16.062512">
<ele>430.5</ele>
<desc>Speed 66.8 km/h Distance 171 km</desc>
<time>2012-09-18T18:29:49.91</time>
<name>9017</name>
<sym>Dot</sym>
</trkpt>
<trkpt lat="47.716802" lon="16.062700">
<ele>430.5</ele>
<desc>Speed 64.0 km/h Distance 171 km</desc>
<time>2012-09-18T18:29:50.96</time>
<name>9018</name>
<sym>Dot</sym>
</trkpt>
<trkpt lat="47.716980" lon="16.063038">
<ele>430.0</ele>
<desc>Speed 55.5 km/h Distance 171 km</desc>
<time>2012-09-18T18:29:52.90</time>
<name>9019</name>
<sym>Dot</sym>
</trkpt>
<trkpt lat="47.717058" lon="16.063183">
<ele>430.0</ele>
<desc>Speed 49.9 km/h Distance 171 km</desc>
<time>2012-09-18T18:29:53.90</time>
<name>9020</name>
<sym>Dot</sym>
</trkpt>
<trkpt lat="47.717183" lon="16.063412">
<ele>430.0</ele>
<desc>Speed 36.6 km/h Distance 171 km</desc>
<time>2012-09-18T18:29:55.90</time>
<name>9021</name>
<sym>Dot</sym>
</trkpt>
<trkpt lat="47.717265" lon="16.063563">
<ele>430.0</ele>
<desc>Speed 23.6 km/h Distance 171 km</desc>
<time>2012-09-18T18:29:57.90</time>
<name>9022</name>
<sym>Dot</sym>
</trkpt>
<trkpt lat="47.717295" lon="16.063617">
<ele>429.5</ele>
<desc>Speed 19.2 km/h Distance 171 km</desc>
<time>2012-09-18T18:29:58.90</time>
<name>9023</name>
<sym>Dot</sym>
</trkpt>
<trkpt lat="47.717322" lon="16.063662">
<ele>429.5</ele>
<desc>Speed 16.3 km/h Distance 171 km</desc>
<time>2012-09-18T18:29:59.89</time>
<name>9024</name>
<sym>Dot</sym>
</trkpt>
<trkpt lat="47.717347" lon="16.063708">
<ele>429.5</ele>
<desc>Speed 16.2 km/h Distance 171 km</desc>
<time>2012-09-18T18:30:00.88</time>
<name>9025</name>
<sym>Dot</sym>
</trkpt>
<trkpt lat="47.717372" lon="16.063750">
<ele>429.5</ele>
<desc>Speed 15.2 km/h Distance 171 km</desc>
<time>2012-09-18T18:30:01.88</time>
<name>9026</name>
<sym>Dot</sym>
</trkpt>
<trkpt lat="47.717390" lon="16.063780">
<ele>429.5</ele>
<desc>Speed 11.0 km/h Distance 171 km</desc>
<time>2012-09-18T18:30:02.96</time>
<name>9027</name>
<sym>Dot</sym>
</trkpt>
<trkpt lat="47.717403" lon="16.063798">
<ele>429.5</ele>
<desc>Speed 6.8 km/h Distance 171 km</desc>
<time>2012-09-18T18:30:03.87</time>
<name>9028</name>
<sym>Dot</sym>
</trkpt>
<trkpt lat="47.717420" lon="16.063823">
<ele>429.5</ele>
<desc>Speed 9.2 km/h Distance 171 km</desc>
<time>2012-09-18T18:30:04.87</time>
<name>9029</name>
<sym>Dot</sym>
</trkpt>
<trkpt lat="47.717483" lon="16.063927">
<ele>429.0</ele>
<desc>Speed 20.7 km/h Distance 171 km</desc>
<time>2012-09-18T18:30:06.88</time>
<name>9030</name>
<sym>Dot</sym>
</trkpt>
<trkpt lat="47.717520" lon="16.063985">
<ele>429.0</ele>
<desc>Speed 21.7 km/h Distance 171 km</desc>
<time>2012-09-18T18:30:07.86</time>
<name>9031</name>
<sym>Dot</sym>
</trkpt>
<trkpt lat="47.717567" lon="16.064060">
<ele>429.0</ele>
<desc>Speed 26.9 km/h Distance 171 km</desc>
<time>2012-09-18T18:30:08.85</time>
<name>9032</name>
<sym>Dot</sym>
</trkpt>
<trkpt lat="47.717697" lon="16.064245">
<ele>428.0</ele>
<desc>Speed 36.5 km/h Distance 171 km</desc>
<time>2012-09-18T18:30:10.85</time>
<name>9033</name>
<sym>Dot</sym>
</trkpt>
<trkpt lat="47.717762" lon="16.064337">
<ele>428.0</ele>
<desc>Speed 35.3 km/h Distance 171 km</desc>
<time>2012-09-18T18:30:11.84</time>
<name>9034</name>
<sym>Dot</sym>
</trkpt>
<trkpt lat="47.717830" lon="16.064428">
<ele>427.5</ele>
<desc>Speed 36.5 km/h Distance 171 km</desc>
<time>2012-09-18T18:30:12.83</time>
<name>9035</name>
<sym>Dot</sym>
</trkpt>
<trkpt lat="47.717902" lon="16.064525">
<ele>427.5</ele>
<desc>Speed 38.6 km/h Distance 171 km</desc>
<time>2012-09-18T18:30:13.88</time>
<name>9036</name>
<sym>Dot</sym>
</trkpt>
<trkpt lat="47.717975" lon="16.064623">
<ele>427.5</ele>
<desc>Speed 39.5 km/h Distance 171 km</desc>
<time>2012-09-18T18:30:14.82</time>
<name>9037</name>
<sym>Dot</sym>
</trkpt>
<trkpt lat="47.718048" lon="16.064718">
<ele>427.0</ele>
<desc>Speed 38.3 km/h Distance 171 km</desc>
<time>2012-09-18T18:30:15.82</time>
<name>9038</name>
<sym>Dot</sym>
</trkpt>
<trkpt lat="47.718123" lon="16.064812">
<ele>427.0</ele>
<desc>Speed 39.2 km/h Distance 171 km</desc>
<time>2012-09-18T18:30:16.82</time>
<name>9039</name>
<sym>Dot</sym>
</trkpt>
<trkpt lat="47.718200" lon="16.064908">
<ele>427.0</ele>
<desc>Speed 39.7 km/h Distance 171 km</desc>
<time>2012-09-18T18:30:17.81</time>
<name>9040</name>
<sym>Dot</sym>
</trkpt>
<trkpt lat="47.718273" lon="16.065000">
<ele>427.0</ele>
<desc>Speed 38.4 km/h Distance 171 km</desc>
<time>2012-09-18T18:30:18.81</time>
<name>9041</name>
<sym>Dot</sym>
</trkpt>
<trkpt lat="47.718345" lon="16.065088">
<ele>427.0</ele>
<desc>Speed 36.9 km/h Distance 171 km</desc>
<time>2012-09-18T18:30:19.82</time>
<name>9042</name>
<sym>Dot</sym>
</trkpt>
<trkpt lat="47.718413" lon="16.065172">
<ele>426.5</ele>
<desc>Speed 35.4 km/h Distance 171 km</desc>
<time>2012-09-18T18:30:20.81</time>
<name>9043</name>
<sym>Dot</sym>
</trkpt>
<trkpt lat="47.718478" lon="16.065253">
<ele>426.5</ele>
<desc>Speed 34.1 km/h Distance 171 km</desc>
<time>2012-09-18T18:30:21.80</time>
<name>9044</name>
<sym>Dot</sym>
</trkpt>
<trkpt lat="47.718543" lon="16.065330">
<ele>426.5</ele>
<desc>Speed 32.9 km/h Distance 171 km</desc>
<time>2012-09-18T18:30:22.79</time>
<name>9045</name>
<sym>Dot</sym>
</trkpt>
<trkpt lat="47.718605" lon="16.065403">
<ele>426.0</ele>
<desc>Speed 31.7 km/h Distance 171 km</desc>
<time>2012-09-18T18:30:23.84</time>
<name>9046</name>
<sym>Dot</sym>
</trkpt>
<trkpt lat="47.718665" lon="16.065473">
<ele>426.0</ele>
<desc>Speed 30.4 km/h Distance 171 km</desc>
<time>2012-09-18T18:30:24.78</time>
<name>9047</name>
<sym>Dot</sym>
</trkpt>
<trkpt lat="47.718722" lon="16.065540">
<ele>426.0</ele>
<desc>Speed 29.0 km/h Distance 171 km</desc>
<time>2012-09-18T18:30:25.77</time>
<name>9048</name>
<sym>Dot</sym>
</trkpt>
<trkpt lat="47.718772" lon="16.065597">
<ele>425.5</ele>
<desc>Speed 25.6 km/h Distance 171 km</desc>
<time>2012-09-18T18:30:26.78</time>
<name>9049</name>
<sym>Dot</sym>
</trkpt>
<trkpt lat="47.718817" lon="16.065647">
<ele>425.5</ele>
<desc>Speed 22.4 km/h Distance 171 km</desc>
<time>2012-09-18T18:30:27.77</time>
<name>9050</name>
<sym>Dot</sym>
</trkpt>
<trkpt lat="47.718858" lon="16.065693">
<ele>425.0</ele>
<desc>Speed 20.8 km/h Distance 171 km</desc>
<time>2012-09-18T18:30:28.77</time>
<name>9051</name>
<sym>Dot</sym>
</trkpt>
<trkpt lat="47.718897" lon="16.065738">
<ele>425.0</ele>
<desc>Speed 19.8 km/h Distance 171 km</desc>
<time>2012-09-18T18:30:29.77</time>
<name>9052</name>
<sym>Dot</sym>
</trkpt>
<trkpt lat="47.718935" lon="16.065780">
<ele>425.0</ele>
<desc>Speed 19.2 km/h Distance 171 km</desc>
<time>2012-09-18T18:30:30.77</time>
<name>9053</name>
<sym>Dot</sym>
</trkpt>
<trkpt lat="47.718973" lon="16.065822">
<ele>425.0</ele>
<desc>Speed 19.2 km/h Distance 171 km</desc>
<time>2012-09-18T18:30:31.76</time>
<name>9054</name>
<sym>Dot</sym>
</trkpt>
<trkpt lat="47.719018" lon="16.065870">
<ele>425.0</ele>
<desc>Speed 22.0 km/h Distance 171 km</desc>
<time>2012-09-18T18:30:32.75</time>
<name>9055</name>
<sym>Dot</sym>
</trkpt>
<trkpt lat="47.719075" lon="16.065928">
<ele>424.5</ele>
<desc>Speed 27.8 km/h Distance 171 km</desc>
<time>2012-09-18T18:30:33.80</time>
<name>9056</name>
<sym>Dot</sym>
</trkpt>
<trkpt lat="47.719143" lon="16.066003">
<ele>424.5</ele>
<desc>Speed 33.9 km/h Distance 171 km</desc>
<time>2012-09-18T18:30:34.74</time>
<name>9057</name>
<sym>Dot</sym>
</trkpt>
<trkpt lat="47.719225" lon="16.066087">
<ele>424.5</ele>
<desc>Speed 39.3 km/h Distance 171 km</desc>
<time>2012-09-18T18:30:35.74</time>
<name>9058</name>
<sym>Dot</sym>
</trkpt>
<trkpt lat="47.719322" lon="16.066180">
<ele>424.5</ele>
<desc>Speed 46.1 km/h Distance 171 km</desc>
<time>2012-09-18T18:30:36.73</time>
<name>9059</name>
<sym>Dot</sym>
</trkpt>
<trkpt lat="47.719550" lon="16.066385">
<ele>424.0</ele>
<desc>Speed 52.6 km/h Distance 171 km</desc>
<time>2012-09-18T18:30:38.73</time>
<name>9060</name>
<sym>Dot</sym>
</trkpt>
<trkpt lat="47.719660" lon="16.066487">
<ele>424.0</ele>
<desc>Speed 51.5 km/h Distance 171 km</desc>
<time>2012-09-18T18:30:39.73</time>
<name>9061</name>
<sym>Dot</sym>
</trkpt>
<trkpt lat="47.719772" lon="16.066590">
<ele>424.0</ele>
<desc>Speed 52.6 km/h Distance 171 km</desc>
<time>2012-09-18T18:30:40.72</time>
<name>9062</name>
<sym>Dot</sym>
</trkpt>
<trkpt lat="47.719887" lon="16.066695">
<ele>423.5</ele>
<desc>Speed 53.9 km/h Distance 171 km</desc>
<time>2012-09-18T18:30:41.71</time>
<name>9063</name>
<sym>Dot</sym>
</trkpt>
<trkpt lat="47.720013" lon="16.066813">
<ele>423.0</ele>
<desc>Speed 59.8 km/h Distance 171 km</desc>
<time>2012-09-18T18:30:42.71</time>
<name>9064</name>
<sym>Dot</sym>
</trkpt>
<trkpt lat="47.720142" lon="16.066938">
<ele>422.5</ele>
<desc>Speed 61.5 km/h Distance 171 km</desc>
<time>2012-09-18T18:30:43.76</time>
<name>9065</name>
<sym>Dot</sym>
</trkpt>
<trkpt lat="47.720267" lon="16.067057">
<ele>422.5</ele>
<desc>Speed 58.8 km/h Distance 171 km</desc>
<time>2012-09-18T18:30:44.70</time>
<name>9066</name>
<sym>Dot</sym>
</trkpt>
<trkpt lat="47.720385" lon="16.067168">
<ele>422.5</ele>
<desc>Speed 56.1 km/h Distance 171 km</desc>
<time>2012-09-18T18:30:45.70</time>
<name>9067</name>
<sym>Dot</sym>
</trkpt>
<trkpt lat="47.720502" lon="16.067280">
<ele>422.0</ele>
<desc>Speed 55.7 km/h Distance 171 km</desc>
<time>2012-09-18T18:30:46.70</time>
<name>9068</name>
<sym>Dot</sym>
</trkpt>
<trkpt lat="47.720625" lon="16.067395">
<ele>422.0</ele>
<desc>Speed 57.6 km/h Distance 171 km</desc>
<time>2012-09-18T18:30:47.68</time>
<name>9069</name>
<sym>Dot</sym>
</trkpt>
<trkpt lat="47.720750" lon="16.067515">
<ele>422.0</ele>
<desc>Speed 59.5 km/h Distance 171 km</desc>
<time>2012-09-18T18:30:48.68</time>
<name>9070</name>
<sym>Dot</sym>
</trkpt>
<trkpt lat="47.720877" lon="16.067637">
<ele>422.0</ele>
<desc>Speed 59.9 km/h Distance 171 km</desc>
<time>2012-09-18T18:30:49.68</time>
<name>9071</name>
<sym>Dot</sym>
</trkpt>
<trkpt lat="47.721005" lon="16.067765">
<ele>422.0</ele>
<desc>Speed 61.4 km/h Distance 171 km</desc>
<time>2012-09-18T18:30:50.68</time>
<name>9072</name>
<sym>Dot</sym>
</trkpt>
<trkpt lat="47.721138" lon="16.067900">
<ele>422.0</ele>
<desc>Speed 64.9 km/h Distance 171 km</desc>
<time>2012-09-18T18:30:51.67</time>
<name>9073</name>
<sym>Dot</sym>
</trkpt>
<trkpt lat="47.721277" lon="16.068042">
<ele>421.5</ele>
<desc>Speed 66.7 km/h Distance 171 km</desc>
<time>2012-09-18T18:30:52.66</time>
<name>9074</name>
<sym>Dot</sym>
</trkpt>
<trkpt lat="47.721410" lon="16.068177">
<ele>421.5</ele>
<desc>Speed 64.4 km/h Distance 171 km</desc>
<time>2012-09-18T18:30:53.71</time>
<name>9075</name>
<sym>Dot</sym>
</trkpt>
<trkpt lat="47.721538" lon="16.068305">
<ele>421.5</ele>
<desc>Speed 61.8 km/h Distance 171 km</desc>
<time>2012-09-18T18:30:54.64</time>
<name>9076</name>
<sym>Dot</sym>
</trkpt>
<trkpt lat="47.721665" lon="16.068428">
<ele>421.0</ele>
<desc>Speed 60.7 km/h Distance 171 km</desc>
<time>2012-09-18T18:30:55.64</time>
<name>9077</name>
<sym>Dot</sym>
</trkpt>
<trkpt lat="47.721792" lon="16.068550">
<ele>421.0</ele>
<desc>Speed 60.3 km/h Distance 171 km</desc>
<time>2012-09-18T18:30:56.63</time>
<name>9078</name>
<sym>Dot</sym>
</trkpt>
<trkpt lat="47.721920" lon="16.068670">
<ele>420.5</ele>
<desc>Speed 60.3 km/h Distance 171 km</desc>
<time>2012-09-18T18:30:57.63</time>
<name>9079</name>
<sym>Dot</sym>
</trkpt>
<trkpt lat="47.722048" lon="16.068788">
<ele>420.5</ele>
<desc>Speed 60.5 km/h Distance 171 km</desc>
<time>2012-09-18T18:30:58.62</time>
<name>9080</name>
<sym>Dot</sym>
</trkpt>
<trkpt lat="47.722178" lon="16.068907">
<ele>420.5</ele>
<desc>Speed 60.7 km/h Distance 171 km</desc>
<time>2012-09-18T18:30:59.62</time>
<name>9081</name>
<sym>Dot</sym>
</trkpt>
<trkpt lat="47.722310" lon="16.069028">
<ele>420.0</ele>
<desc>Speed 61.7 km/h Distance 171 km</desc>
<time>2012-09-18T18:31:00.61</time>
<name>9082</name>
<sym>Dot</sym>
</trkpt>
<trkpt lat="47.722443" lon="16.069152">
<ele>420.0</ele>
<desc>Speed 62.7 km/h Distance 171 km</desc>
<time>2012-09-18T18:31:01.61</time>
<name>9083</name>
<sym>Dot</sym>
</trkpt>
<trkpt lat="47.722585" lon="16.069278">
<ele>420.0</ele>
<desc>Speed 65.8 km/h Distance 172 km</desc>
<time>2012-09-18T18:31:02.60</time>
<name>9084</name>
<sym>Dot</sym>
</trkpt>
<trkpt lat="47.722735" lon="16.069415">
<ele>420.0</ele>
<desc>Speed 70.7 km/h Distance 172 km</desc>
<time>2012-09-18T18:31:03.67</time>
<name>9085</name>
<sym>Dot</sym>
</trkpt>
<trkpt lat="47.722882" lon="16.069548">
<ele>419.5</ele>
<desc>Speed 68.7 km/h Distance 172 km</desc>
<time>2012-09-18T18:31:04.60</time>
<name>9086</name>
<sym>Dot</sym>
</trkpt>
<trkpt lat="47.723022" lon="16.069677">
<ele>419.5</ele>
<desc>Speed 66.0 km/h Distance 172 km</desc>
<time>2012-09-18T18:31:05.60</time>
<name>9087</name>
<sym>Dot</sym>
</trkpt>
<trkpt lat="47.723163" lon="16.069808">
<ele>419.0</ele>
<desc>Speed 66.3 km/h Distance 172 km</desc>
<time>2012-09-18T18:31:06.60</time>
<name>9088</name>
<sym>Dot</sym>
</trkpt>
<trkpt lat="47.723305" lon="16.069943">
<ele>419.0</ele>
<desc>Speed 67.6 km/h Distance 172 km</desc>
<time>2012-09-18T18:31:07.59</time>
<name>9089</name>
<sym>Dot</sym>
</trkpt>
<trkpt lat="47.723450" lon="16.070083">
<ele>419.0</ele>
<desc>Speed 69.1 km/h Distance 172 km</desc>
<time>2012-09-18T18:31:08.57</time>
<name>9090</name>
<sym>Dot</sym>
</trkpt>
<trkpt lat="47.723598" lon="16.070227">
<ele>418.5</ele>
<desc>Speed 70.6 km/h Distance 172 km</desc>
<time>2012-09-18T18:31:09.57</time>
<name>9091</name>
<sym>Dot</sym>
</trkpt>
<trkpt lat="47.723748" lon="16.070373">
<ele>418.5</ele>
<desc>Speed 71.8 km/h Distance 172 km</desc>
<time>2012-09-18T18:31:10.58</time>
<name>9092</name>
<sym>Dot</sym>
</trkpt>
<trkpt lat="47.723898" lon="16.070518">
<ele>418.5</ele>
<desc>Speed 71.6 km/h Distance 172 km</desc>
<time>2012-09-18T18:31:11.57</time>
<name>9093</name>
<sym>Dot</sym>
</trkpt>
<trkpt lat="47.724043" lon="16.070657">
<ele>418.5</ele>
<desc>Speed 68.5 km/h Distance 172 km</desc>
<time>2012-09-18T18:31:12.56</time>
<name>9094</name>
<sym>Dot</sym>
</trkpt>
<trkpt lat="47.724185" lon="16.070792">
<ele>418.5</ele>
<desc>Speed 67.6 km/h Distance 172 km</desc>
<time>2012-09-18T18:31:13.62</time>
<name>9095</name>
<sym>Dot</sym>
</trkpt>
<trkpt lat="47.724328" lon="16.070928">
<ele>418.5</ele>
<desc>Speed 67.8 km/h Distance 172 km</desc>
<time>2012-09-18T18:31:14.55</time>
<name>9096</name>
<sym>Dot</sym>
</trkpt>
<trkpt lat="47.724472" lon="16.071063">
<ele>418.5</ele>
<desc>Speed 68.0 km/h Distance 172 km</desc>
<time>2012-09-18T18:31:15.54</time>
<name>9097</name>
<sym>Dot</sym>
</trkpt>
<trkpt lat="47.724613" lon="16.071197">
<ele>418.5</ele>
<desc>Speed 67.0 km/h Distance 172 km</desc>
<time>2012-09-18T18:31:16.54</time>
<name>9098</name>
<sym>Dot</sym>
</trkpt>
<trkpt lat="47.724750" lon="16.071327">
<ele>418.5</ele>
<desc>Speed 64.9 km/h Distance 172 km</desc>
<time>2012-09-18T18:31:17.54</time>
<name>9099</name>
<sym>Dot</sym>
</trkpt>
<trkpt lat="47.724885" lon="16.071458">
<ele>419.0</ele>
<desc>Speed 64.8 km/h Distance 172 km</desc>
<time>2012-09-18T18:31:18.53</time>
<name>9100</name>
<sym>Dot</sym>
</trkpt>
<trkpt lat="47.725015" lon="16.071598">
<ele>418.5</ele>
<desc>Speed 64.4 km/h Distance 172 km</desc>
<time>2012-09-18T18:31:19.53</time>
<name>9101</name>
<sym>Dot</sym>
</trkpt>
<trkpt lat="47.725138" lon="16.071745">
<ele>418.5</ele>
<desc>Speed 63.4 km/h Distance 172 km</desc>
<time>2012-09-18T18:31:20.53</time>
<name>9102</name>
<sym>Dot</sym>
</trkpt>
<trkpt lat="47.725255" lon="16.071900">
<ele>419.0</ele>
<desc>Speed 62.1 km/h Distance 172 km</desc>
<time>2012-09-18T18:31:21.53</time>
<name>9103</name>
<sym>Dot</sym>
</trkpt>
<trkpt lat="47.725360" lon="16.072060">
<ele>419.0</ele>
<desc>Speed 60.0 km/h Distance 172 km</desc>
<time>2012-09-18T18:31:22.51</time>
<name>9104</name>
<sym>Dot</sym>
</trkpt>
<trkpt lat="47.725455" lon="16.072220">
<ele>419.0</ele>
<desc>Speed 57.6 km/h Distance 172 km</desc>
<time>2012-09-18T18:31:23.58</time>
<name>9105</name>
<sym>Dot</sym>
</trkpt>
<trkpt lat="47.725540" lon="16.072383">
<ele>419.0</ele>
<desc>Speed 55.7 km/h Distance 172 km</desc>
<time>2012-09-18T18:31:24.51</time>
<name>9106</name>
<sym>Dot</sym>
</trkpt>
<trkpt lat="47.725617" lon="16.072547">
<ele>419.0</ele>
<desc>Speed 53.7 km/h Distance 172 km</desc>
<time>2012-09-18T18:31:25.51</time>
<name>9107</name>
<sym>Dot</sym>
</trkpt>
<trkpt lat="47.725683" lon="16.072712">
<ele>418.5</ele>
<desc>Speed 51.8 km/h Distance 172 km</desc>
<time>2012-09-18T18:31:26.50</time>
<name>9108</name>
<sym>Dot</sym>
</trkpt>
<trkpt lat="47.725743" lon="16.072875">
<ele>418.5</ele>
<desc>Speed 50.2 km/h Distance 172 km</desc>
<time>2012-09-18T18:31:27.50</time>
<name>9109</name>
<sym>Dot</sym>
</trkpt>
<trkpt lat="47.725795" lon="16.073040">
<ele>418.5</ele>
<desc>Speed 49.2 km/h Distance 172 km</desc>
<time>2012-09-18T18:31:28.49</time>
<name>9110</name>
<sym>Dot</sym>
</trkpt>
<trkpt lat="47.725843" lon="16.073208">
<ele>419.0</ele>
<desc>Speed 49.1 km/h Distance 172 km</desc>
<time>2012-09-18T18:31:29.49</time>
<name>9111</name>
<sym>Dot</sym>
</trkpt>
<trkpt lat="47.725885" lon="16.073380">
<ele>419.0</ele>
<desc>Speed 49.7 km/h Distance 172 km</desc>
<time>2012-09-18T18:31:30.48</time>
<name>9112</name>
<sym>Dot</sym>
</trkpt>
<trkpt lat="47.725923" lon="16.073557">
<ele>419.0</ele>
<desc>Speed 49.9 km/h Distance 172 km</desc>
<time>2012-09-18T18:31:31.47</time>
<name>9113</name>
<sym>Dot</sym>
</trkpt>
<trkpt lat="47.725952" lon="16.073732">
<ele>419.0</ele>
<desc>Speed 48.5 km/h Distance 172 km</desc>
<time>2012-09-18T18:31:32.46</time>
<name>9114</name>
<sym>Dot</sym>
</trkpt>
<trkpt lat="47.725968" lon="16.073898">
<ele>419.0</ele>
<desc>Speed 45.5 km/h Distance 172 km</desc>
<time>2012-09-18T18:31:33.53</time>
<name>9115</name>
<sym>Dot</sym>
</trkpt>
<trkpt lat="47.725975" lon="16.074058">
<ele>418.5</ele>
<desc>Speed 43.1 km/h Distance 172 km</desc>
<time>2012-09-18T18:31:34.45</time>
<name>9116</name>
<sym>Dot</sym>
</trkpt>
<trkpt lat="47.725978" lon="16.074225">
<ele>418.5</ele>
<desc>Speed 45.2 km/h Distance 172 km</desc>
<time>2012-09-18T18:31:35.46</time>
<name>9117</name>
<sym>Dot</sym>
</trkpt>
<trkpt lat="47.725990" lon="16.074655">
<ele>417.5</ele>
<desc>Speed 55.0 km/h Distance 172 km</desc>
<time>2012-09-18T18:31:37.46</time>
<name>9118</name>
<sym>Dot</sym>
</trkpt>
<trkpt lat="47.725982" lon="16.074878">
<ele>417.0</ele>
<desc>Speed 60.4 km/h Distance 172 km</desc>
<time>2012-09-18T18:31:38.45</time>
<name>9119</name>
<sym>Dot</sym>
</trkpt>
<trkpt lat="47.725950" lon="16.075372">
<ele>417.5</ele>
<desc>Speed 65.0 km/h Distance 172 km</desc>
<time>2012-09-18T18:31:40.44</time>
<name>9120</name>
<sym>Dot</sym>
</trkpt>
<trkpt lat="47.725937" lon="16.075610">
<ele>417.5</ele>
<desc>Speed 64.9 km/h Distance 172 km</desc>
<time>2012-09-18T18:31:41.44</time>
<name>9121</name>
<sym>Dot</sym>
</trkpt>
<trkpt lat="47.725925" lon="16.075853">
<ele>418.0</ele>
<desc>Speed 66.8 km/h Distance 172 km</desc>
<time>2012-09-18T18:31:42.43</time>
<name>9122</name>
<sym>Dot</sym>
</trkpt>
<trkpt lat="47.725913" lon="16.076112">
<ele>418.0</ele>
<desc>Speed 70.3 km/h Distance 172 km</desc>
<time>2012-09-18T18:31:43.48</time>
<name>9123</name>
<sym>Dot</sym>
</trkpt>
<trkpt lat="47.725898" lon="16.076382">
<ele>417.5</ele>
<desc>Speed 73.9 km/h Distance 172 km</desc>
<time>2012-09-18T18:31:44.43</time>
<name>9124</name>
<sym>Dot</sym>
</trkpt>
<trkpt lat="47.725885" lon="16.076643">
<ele>418.0</ele>
<desc>Speed 71.5 km/h Distance 172 km</desc>
<time>2012-09-18T18:31:45.41</time>
<name>9125</name>
<sym>Dot</sym>
</trkpt>
<trkpt lat="47.725872" lon="16.076893">
<ele>417.5</ele>
<desc>Speed 67.8 km/h Distance 172 km</desc>
<time>2012-09-18T18:31:46.41</time>
<name>9126</name>
<sym>Dot</sym>
</trkpt>
<trkpt lat="47.725858" lon="16.077145">
<ele>417.5</ele>
<desc>Speed 68.1 km/h Distance 172 km</desc>
<time>2012-09-18T18:31:47.40</time>
<name>9127</name>
<sym>Dot</sym>
</trkpt>
<trkpt lat="47.725845" lon="16.077393">
<ele>417.5</ele>
<desc>Speed 67.1 km/h Distance 172 km</desc>
<time>2012-09-18T18:31:48.40</time>
<name>9128</name>
<sym>Dot</sym>
</trkpt>
<trkpt lat="47.725833" lon="16.077628">
<ele>417.5</ele>
<desc>Speed 64.3 km/h Distance 172 km</desc>
<time>2012-09-18T18:31:49.40</time>
<name>9129</name>
<sym>Dot</sym>
</trkpt>
<trkpt lat="47.725822" lon="16.077857">
<ele>417.0</ele>
<desc>Speed 61.9 km/h Distance 172 km</desc>
<time>2012-09-18T18:31:50.39</time>
<name>9130</name>
<sym>Dot</sym>
</trkpt>
<trkpt lat="47.725808" lon="16.078082">
<ele>416.5</ele>
<desc>Speed 61.3 km/h Distance 172 km</desc>
<time>2012-09-18T18:31:51.38</time>
<name>9131</name>
<sym>Dot</sym>
</trkpt>
<trkpt lat="47.725798" lon="16.078307">
<ele>416.5</ele>
<desc>Speed 61.3 km/h Distance 172 km</desc>
<time>2012-09-18T18:31:52.37</time>
<name>9132</name>
<sym>Dot</sym>
</trkpt>
<trkpt lat="47.725788" lon="16.078525">
<ele>416.0</ele>
<desc>Speed 59.7 km/h Distance 172 km</desc>
<time>2012-09-18T18:31:53.46</time>
<name>9133</name>
<sym>Dot</sym>
</trkpt>
<trkpt lat="47.725777" lon="16.078740">
<ele>416.0</ele>
<desc>Speed 58.0 km/h Distance 172 km</desc>
<time>2012-09-18T18:31:54.37</time>
<name>9134</name>
<sym>Dot</sym>
</trkpt>
<trkpt lat="47.725768" lon="16.078950">
<ele>416.0</ele>
<desc>Speed 57.0 km/h Distance 172 km</desc>
<time>2012-09-18T18:31:55.36</time>
<name>9135</name>
<sym>Dot</sym>
</trkpt>
<trkpt lat="47.725758" lon="16.079163">
<ele>416.0</ele>
<desc>Speed 57.6 km/h Distance 172 km</desc>
<time>2012-09-18T18:31:56.36</time>
<name>9136</name>
<sym>Dot</sym>
</trkpt>
<trkpt lat="47.725750" lon="16.079375">
<ele>416.0</ele>
<desc>Speed 56.9 km/h Distance 172 km</desc>
<time>2012-09-18T18:31:57.35</time>
<name>9137</name>
<sym>Dot</sym>
</trkpt>
<trkpt lat="47.725742" lon="16.079577">
<ele>415.5</ele>
<desc>Speed 54.8 km/h Distance 172 km</desc>
<time>2012-09-18T18:31:58.35</time>
<name>9138</name>
<sym>Dot</sym>
</trkpt>
<trkpt lat="47.725737" lon="16.079772">
<ele>415.5</ele>
<desc>Speed 52.6 km/h Distance 172 km</desc>
<time>2012-09-18T18:31:59.34</time>
<name>9139</name>
<sym>Dot</sym>
</trkpt>
<trkpt lat="47.725730" lon="16.079955">
<ele>416.0</ele>
<desc>Speed 49.7 km/h Distance 172 km</desc>
<time>2012-09-18T18:32:00.34</time>
<name>9140</name>
<sym>Dot</sym>
</trkpt>
<trkpt lat="47.725722" lon="16.080118">
<ele>416.0</ele>
<desc>Speed 44.3 km/h Distance 173 km</desc>
<time>2012-09-18T18:32:01.33</time>
<name>9141</name>
<sym>Dot</sym>
</trkpt>
<trkpt lat="47.725702" lon="16.080348">
<ele>415.0</ele>
<desc>Speed 30.8 km/h Distance 173 km</desc>
<time>2012-09-18T18:32:03.39</time>
<name>9142</name>
<sym>Dot</sym>
</trkpt>
<trkpt lat="47.725708" lon="16.080490">
<ele>413.5</ele>
<desc>Speed 17.9 km/h Distance 173 km</desc>
<time>2012-09-18T18:32:05.31</time>
<name>9143</name>
<sym>Dot</sym>
</trkpt>
<trkpt lat="47.725730" lon="16.080553">
<ele>410.5</ele>
<desc>Speed 9.3 km/h Distance 173 km</desc>
<time>2012-09-18T18:32:07.31</time>
<name>9144</name>
<sym>Dot</sym>
</trkpt>
<trkpt lat="47.725728" lon="16.080563">
<ele>410.5</ele>
<desc>Speed 2.3 km/h Distance 173 km</desc>
<time>2012-09-18T18:32:08.30</time>
<name>9145</name>
<sym>Dot</sym>
</trkpt>
<trkpt lat="47.725728" lon="16.080563">
<ele>410.5</ele>
<desc>Speed 0.3 km/h Distance 173 km</desc>
<time>2012-09-18T18:32:09.30</time>
<name>9146</name>
<sym>Dot</sym>
</trkpt>
<trkpt lat="47.725728" lon="16.080563">
<ele>410.5</ele>
<desc>Speed 0.3 km/h Distance 173 km</desc>
<time>2012-09-18T18:32:10.30</time>
<name>9147</name>
<sym>Dot</sym>
</trkpt>
<trkpt lat="47.725728" lon="16.080590">
<ele>409.0</ele>
<desc>Speed 7.1 km/h Distance 173 km</desc>
<time>2012-09-18T18:32:11.28</time>
<name>9148</name>
<sym>Dot</sym>
</trkpt>
<trkpt lat="47.725745" lon="16.080827">
<ele>409.0</ele>
<desc>Speed 22.1 km/h Distance 173 km</desc>
<time>2012-09-18T18:32:15.34</time>
<name>9149</name>
<sym>Dot</sym>
</trkpt>
<trkpt lat="47.725770" lon="16.080910">
<ele>408.5</ele>
<desc>Speed 24.5 km/h Distance 173 km</desc>
<time>2012-09-18T18:32:16.34</time>
<name>9150</name>
<sym>Dot</sym>
</trkpt>
<trkpt lat="47.725810" lon="16.080995">
<ele>409.0</ele>
<desc>Speed 28.1 km/h Distance 173 km</desc>
<time>2012-09-18T18:32:17.33</time>
<name>9151</name>
<sym>Dot</sym>
</trkpt>
<trkpt lat="47.725875" lon="16.081065">
<ele>409.0</ele>
<desc>Speed 32.5 km/h Distance 173 km</desc>
<time>2012-09-18T18:32:18.33</time>
<name>9152</name>
<sym>Dot</sym>
</trkpt>
<trkpt lat="47.725953" lon="16.081118">
<ele>410.0</ele>
<desc>Speed 34.4 km/h Distance 173 km</desc>
<time>2012-09-18T18:32:19.33</time>
<name>9153</name>
<sym>Dot</sym>
</trkpt>
<trkpt lat="47.726173" lon="16.081197">
<ele>410.5</ele>
<desc>Speed 44.8 km/h Distance 173 km</desc>
<time>2012-09-18T18:32:21.32</time>
<name>9154</name>
<sym>Dot</sym>
</trkpt>
<trkpt lat="47.726298" lon="16.081242">
<ele>410.5</ele>
<desc>Speed 51.5 km/h Distance 173 km</desc>
<time>2012-09-18T18:32:22.32</time>
<name>9155</name>
<sym>Dot</sym>
</trkpt>
<trkpt lat="47.726423" lon="16.081288">
<ele>410.5</ele>
<desc>Speed 51.4 km/h Distance 173 km</desc>
<time>2012-09-18T18:32:23.36</time>
<name>9156</name>
<sym>Dot</sym>
</trkpt>
<trkpt lat="47.726535" lon="16.081325">
<ele>411.5</ele>
<desc>Speed 45.8 km/h Distance 173 km</desc>
<time>2012-09-18T18:32:24.29</time>
<name>9157</name>
<sym>Dot</sym>
</trkpt>
<trkpt lat="47.726635" lon="16.081360">
<ele>413.0</ele>
<desc>Speed 40.8 km/h Distance 173 km</desc>
<time>2012-09-18T18:32:25.30</time>
<name>9158</name>
<sym>Dot</sym>
</trkpt>
<trkpt lat="47.726733" lon="16.081397">
<ele>414.0</ele>
<desc>Speed 41.0 km/h Distance 173 km</desc>
<time>2012-09-18T18:32:26.30</time>
<name>9159</name>
<sym>Dot</sym>
</trkpt>
<trkpt lat="47.726828" lon="16.081435">
<ele>413.5</ele>
<desc>Speed 39.1 km/h Distance 173 km</desc>
<time>2012-09-18T18:32:27.29</time>
<name>9160</name>
<sym>Dot</sym>
</trkpt>
<trkpt lat="47.726917" lon="16.081473">
<ele>413.0</ele>
<desc>Speed 36.9 km/h Distance 173 km</desc>
<time>2012-09-18T18:32:28.28</time>
<name>9161</name>
<sym>Dot</sym>
</trkpt>
<trkpt lat="47.726987" lon="16.081512">
<ele>412.5</ele>
<desc>Speed 30.1 km/h Distance 173 km</desc>
<time>2012-09-18T18:32:29.28</time>
<name>9162</name>
<sym>Dot</sym>
</trkpt>
<trkpt lat="47.727040" lon="16.081550">
<ele>412.5</ele>
<desc>Speed 23.7 km/h Distance 173 km</desc>
<time>2012-09-18T18:32:30.27</time>
<name>9163</name>
<sym>Dot</sym>
</trkpt>
<trkpt lat="47.727077" lon="16.081583">
<ele>413.0</ele>
<desc>Speed 18.5 km/h Distance 173 km</desc>
<time>2012-09-18T18:32:31.26</time>
<name>9164</name>
<sym>Dot</sym>
</trkpt>
<trkpt lat="47.727108" lon="16.081615">
<ele>413.0</ele>
<desc>Speed 15.6 km/h Distance 173 km</desc>
<time>2012-09-18T18:32:32.26</time>
<name>9165</name>
<sym>Dot</sym>
</trkpt>
<trkpt lat="47.727137" lon="16.081647">
<ele>413.5</ele>
<desc>Speed 14.5 km/h Distance 173 km</desc>
<time>2012-09-18T18:32:33.35</time>
<name>9166</name>
<sym>Dot</sym>
</trkpt>
<trkpt lat="47.727163" lon="16.081677">
<ele>413.5</ele>
<desc>Speed 13.2 km/h Distance 173 km</desc>
<time>2012-09-18T18:32:34.25</time>
<name>9167</name>
<sym>Dot</sym>
</trkpt>
<trkpt lat="47.727175" lon="16.081692">
<ele>414.0</ele>
<desc>Speed 7.0 km/h Distance 173 km</desc>
<time>2012-09-18T18:32:35.24</time>
<name>9168</name>
<sym>Dot</sym>
</trkpt>
<trkpt lat="47.727177" lon="16.081692">
<ele>414.5</ele>
<desc>Speed 0.9 km/h Distance 173 km</desc>
<time>2012-09-18T18:32:36.24</time>
<name>9169</name>
<sym>Dot</sym>
</trkpt>
<trkpt lat="47.727175" lon="16.081692">
<ele>414.5</ele>
<desc>Speed 0.5 km/h Distance 173 km</desc>
<time>2012-09-18T18:32:37.23</time>
<name>9170</name>
<sym>Dot</sym>
</trkpt>
<trkpt lat="47.727177" lon="16.081693">
<ele>415.0</ele>
<desc>Speed 0.9 km/h Distance 173 km</desc>
<time>2012-09-18T18:32:38.23</time>
<name>9171</name>
<sym>Dot</sym>
</trkpt>
<trkpt lat="47.727183" lon="16.081710">
<ele>415.0</ele>
<desc>Speed 5.0 km/h Distance 173 km</desc>
<time>2012-09-18T18:32:39.23</time>
<name>9172</name>
<sym>Dot</sym>
</trkpt>
<trkpt lat="47.727195" lon="16.081728">
<ele>415.0</ele>
<desc>Speed 6.7 km/h Distance 173 km</desc>
<time>2012-09-18T18:32:40.23</time>
<name>9173</name>
<sym>Dot</sym>
</trkpt>
<trkpt lat="47.727203" lon="16.081740">
<ele>414.5</ele>
<desc>Speed 4.6 km/h Distance 173 km</desc>
<time>2012-09-18T18:32:41.22</time>
<name>9174</name>
<sym>Dot</sym>
</trkpt>
<trkpt lat="47.727210" lon="16.081748">
<ele>414.5</ele>
<desc>Speed 3.0 km/h Distance 173 km</desc>
<time>2012-09-18T18:32:42.20</time>
<name>9175</name>
<sym>Dot</sym>
</trkpt>
<trkpt lat="47.727225" lon="16.081765">
<ele>415.0</ele>
<desc>Speed 7.3 km/h Distance 173 km</desc>
<time>2012-09-18T18:32:43.28</time>
<name>9176</name>
<sym>Dot</sym>
</trkpt>
<trkpt lat="47.727300" lon="16.081812">
<ele>415.0</ele>
<desc>Speed 17.6 km/h Distance 173 km</desc>
<time>2012-09-18T18:32:45.21</time>
<name>9177</name>
<sym>Dot</sym>
</trkpt>
<trkpt lat="47.727343" lon="16.081825">
<ele>414.5</ele>
<desc>Speed 16.6 km/h Distance 173 km</desc>
<time>2012-09-18T18:32:46.19</time>
<name>9178</name>
<sym>Dot</sym>
</trkpt>
<trkpt lat="47.727388" lon="16.081830">
<ele>414.5</ele>
<desc>Speed 17.7 km/h Distance 173 km</desc>
<time>2012-09-18T18:32:47.19</time>
<name>9179</name>
<sym>Dot</sym>
</trkpt>
<trkpt lat="47.727442" lon="16.081828">
<ele>413.5</ele>
<desc>Speed 20.9 km/h Distance 173 km</desc>
<time>2012-09-18T18:32:48.19</time>
<name>9180</name>
<sym>Dot</sym>
</trkpt>
<trkpt lat="47.727507" lon="16.081832">
<ele>413.0</ele>
<desc>Speed 26.0 km/h Distance 173 km</desc>
<time>2012-09-18T18:32:49.19</time>
<name>9181</name>
<sym>Dot</sym>
</trkpt>
<trkpt lat="47.727575" lon="16.081853">
<ele>415.0</ele>
<desc>Speed 28.1 km/h Distance 173 km</desc>
<time>2012-09-18T18:32:50.19</time>
<name>9182</name>
<sym>Dot</sym>
</trkpt>
<trkpt lat="47.727652" lon="16.081888">
<ele>415.5</ele>
<desc>Speed 32.0 km/h Distance 173 km</desc>
<time>2012-09-18T18:32:51.18</time>
<name>9183</name>
<sym>Dot</sym>
</trkpt>
<trkpt lat="47.727730" lon="16.081928">
<ele>415.5</ele>
<desc>Speed 32.9 km/h Distance 173 km</desc>
<time>2012-09-18T18:32:52.17</time>
<name>9184</name>
<sym>Dot</sym>
</trkpt>
<trkpt lat="47.727807" lon="16.081968">
<ele>415.5</ele>
<desc>Speed 32.3 km/h Distance 173 km</desc>
<time>2012-09-18T18:32:53.22</time>
<name>9185</name>
<sym>Dot</sym>
</trkpt>
<trkpt lat="47.727888" lon="16.082008">
<ele>415.5</ele>
<desc>Speed 34.4 km/h Distance 173 km</desc>
<time>2012-09-18T18:32:54.16</time>
<name>9186</name>
<sym>Dot</sym>
</trkpt>
<trkpt lat="47.727980" lon="16.082055">
<ele>415.5</ele>
<desc>Speed 38.4 km/h Distance 173 km</desc>
<time>2012-09-18T18:32:55.17</time>
<name>9187</name>
<sym>Dot</sym>
</trkpt>
<trkpt lat="47.728075" lon="16.082102">
<ele>416.0</ele>
<desc>Speed 40.1 km/h Distance 173 km</desc>
<time>2012-09-18T18:32:56.15</time>
<name>9188</name>
<sym>Dot</sym>
</trkpt>
<trkpt lat="47.728173" lon="16.082148">
<ele>416.0</ele>
<desc>Speed 40.9 km/h Distance 173 km</desc>
<time>2012-09-18T18:32:57.15</time>
<name>9189</name>
<sym>Dot</sym>
</trkpt>
<trkpt lat="47.728268" lon="16.082193">
<ele>416.0</ele>
<desc>Speed 39.7 km/h Distance 173 km</desc>
<time>2012-09-18T18:32:58.14</time>
<name>9190</name>
<sym>Dot</sym>
</trkpt>
<trkpt lat="47.728367" lon="16.082242">
<ele>416.0</ele>
<desc>Speed 41.0 km/h Distance 173 km</desc>
<time>2012-09-18T18:32:59.14</time>
<name>9191</name>
<sym>Dot</sym>
</trkpt>
<trkpt lat="47.728477" lon="16.082295">
<ele>416.0</ele>
<desc>Speed 45.8 km/h Distance 173 km</desc>
<time>2012-09-18T18:33:00.13</time>
<name>9192</name>
<sym>Dot</sym>
</trkpt>
<trkpt lat="47.728598" lon="16.082353">
<ele>416.0</ele>
<desc>Speed 50.4 km/h Distance 173 km</desc>
<time>2012-09-18T18:33:01.14</time>
<name>9193</name>
<sym>Dot</sym>
</trkpt>
<trkpt lat="47.728722" lon="16.082412">
<ele>416.0</ele>
<desc>Speed 51.2 km/h Distance 173 km</desc>
<time>2012-09-18T18:33:02.13</time>
<name>9194</name>
<sym>Dot</sym>
</trkpt>
<trkpt lat="47.728838" lon="16.082467">
<ele>416.5</ele>
<desc>Speed 48.6 km/h Distance 173 km</desc>
<time>2012-09-18T18:33:03.19</time>
<name>9195</name>
<sym>Dot</sym>
</trkpt>
<trkpt lat="47.728950" lon="16.082522">
<ele>416.5</ele>
<desc>Speed 46.8 km/h Distance 173 km</desc>
<time>2012-09-18T18:33:04.12</time>
<name>9196</name>
<sym>Dot</sym>
</trkpt>
<trkpt lat="47.729062" lon="16.082578">
<ele>416.5</ele>
<desc>Speed 46.9 km/h Distance 173 km</desc>
<time>2012-09-18T18:33:05.12</time>
<name>9197</name>
<sym>Dot</sym>
</trkpt>
<trkpt lat="47.729173" lon="16.082633">
<ele>416.5</ele>
<desc>Speed 47.0 km/h Distance 173 km</desc>
<time>2012-09-18T18:33:06.12</time>
<name>9198</name>
<sym>Dot</sym>
</trkpt>
<trkpt lat="47.729293" lon="16.082690">
<ele>416.5</ele>
<desc>Speed 50.0 km/h Distance 173 km</desc>
<time>2012-09-18T18:33:07.12</time>
<name>9199</name>
<sym>Dot</sym>
</trkpt>
<trkpt lat="47.729423" lon="16.082752">
<ele>416.5</ele>
<desc>Speed 54.1 km/h Distance 173 km</desc>
<time>2012-09-18T18:33:08.11</time>
<name>9200</name>
<sym>Dot</sym>
</trkpt>
<trkpt lat="47.729555" lon="16.082808">
<ele>417.0</ele>
<desc>Speed 54.6 km/h Distance 173 km</desc>
<time>2012-09-18T18:33:09.10</time>
<name>9201</name>
<sym>Dot</sym>
</trkpt>
<trkpt lat="47.729687" lon="16.082863">
<ele>417.0</ele>
<desc>Speed 54.8 km/h Distance 173 km</desc>
<time>2012-09-18T18:33:10.10</time>
<name>9202</name>
<sym>Dot</sym>
</trkpt>
<trkpt lat="47.729815" lon="16.082917">
<ele>417.5</ele>
<desc>Speed 53.0 km/h Distance 173 km</desc>
<time>2012-09-18T18:33:11.09</time>
<name>9203</name>
<sym>Dot</sym>
</trkpt>
<trkpt lat="47.729945" lon="16.082968">
<ele>417.5</ele>
<desc>Speed 53.9 km/h Distance 173 km</desc>
<time>2012-09-18T18:33:12.09</time>
<name>9204</name>
<sym>Dot</sym>
</trkpt>
<trkpt lat="47.730075" lon="16.083017">
<ele>417.5</ele>
<desc>Speed 53.4 km/h Distance 173 km</desc>
<time>2012-09-18T18:33:13.15</time>
<name>9205</name>
<sym>Dot</sym>
</trkpt>
<trkpt lat="47.730210" lon="16.083070">
<ele>417.0</ele>
<desc>Speed 55.4 km/h Distance 173 km</desc>
<time>2012-09-18T18:33:14.08</time>
<name>9206</name>
<sym>Dot</sym>
</trkpt>
<trkpt lat="47.730527" lon="16.083208">
<ele>418.5</ele>
<desc>Speed 69.3 km/h Distance 173 km</desc>
<time>2012-09-18T18:33:16.08</time>
<name>9207</name>
<sym>Dot</sym>
</trkpt>
<trkpt lat="47.730678" lon="16.083303">
<ele>417.5</ele>
<desc>Speed 66.1 km/h Distance 173 km</desc>
<time>2012-09-18T18:33:17.07</time>
<name>9208</name>
<sym>Dot</sym>
</trkpt>
<trkpt lat="47.730825" lon="16.083403">
<ele>416.5</ele>
<desc>Speed 64.3 km/h Distance 173 km</desc>
<time>2012-09-18T18:33:18.08</time>
<name>9209</name>
<sym>Dot</sym>
</trkpt>
<trkpt lat="47.730967" lon="16.083503">
<ele>415.5</ele>
<desc>Speed 62.7 km/h Distance 173 km</desc>
<time>2012-09-18T18:33:19.06</time>
<name>9210</name>
<sym>Dot</sym>
</trkpt>
<trkpt lat="47.731108" lon="16.083603">
<ele>415.0</ele>
<desc>Speed 62.8 km/h Distance 173 km</desc>
<time>2012-09-18T18:33:20.06</time>
<name>9211</name>
<sym>Dot</sym>
</trkpt>
<trkpt lat="47.731390" lon="16.083797">
<ele>415.0</ele>
<desc>Speed 62.8 km/h Distance 173 km</desc>
<time>2012-09-18T18:33:23.36</time>
<name>9212</name>
<sym>Dot</sym>
</trkpt>
<trkpt lat="47.731538" lon="16.083862">
<ele>417.0</ele>
<desc>Speed 58.5 km/h Distance 173 km</desc>
<time>2012-09-18T18:33:24.33</time>
<name>9213</name>
<sym>Dot</sym>
</trkpt>
<trkpt lat="47.731677" lon="16.083950">
<ele>419.0</ele>
<desc>Speed 56.0 km/h Distance 173 km</desc>
<time>2012-09-18T18:33:25.32</time>
<name>9214</name>
<sym>Dot</sym>
</trkpt>
<trkpt lat="47.731815" lon="16.084028">
<ele>420.5</ele>
<desc>Speed 53.6 km/h Distance 173 km</desc>
<time>2012-09-18T18:33:26.31</time>
<name>9215</name>
<sym>Dot</sym>
</trkpt>
<trkpt lat="47.731947" lon="16.084113">
<ele>422.5</ele>
<desc>Speed 51.9 km/h Distance 173 km</desc>
<time>2012-09-18T18:33:27.30</time>
<name>9216</name>
<sym>Dot</sym>
</trkpt>
<trkpt lat="47.732078" lon="16.084192">
<ele>424.0</ele>
<desc>Speed 51.4 km/h Distance 173 km</desc>
<time>2012-09-18T18:33:28.31</time>
<name>9217</name>
<sym>Dot</sym>
</trkpt>
<trkpt lat="47.732217" lon="16.084242">
<ele>425.0</ele>
<desc>Speed 51.0 km/h Distance 173 km</desc>
<time>2012-09-18T18:33:29.30</time>
<name>9218</name>
<sym>Dot</sym>
</trkpt>
<trkpt lat="47.732352" lon="16.084318">
<ele>425.5</ele>
<desc>Speed 51.9 km/h Distance 173 km</desc>
<time>2012-09-18T18:33:30.30</time>
<name>9219</name>
<sym>Dot</sym>
</trkpt>
<trkpt lat="47.732482" lon="16.084385">
<ele>426.0</ele>
<desc>Speed 51.5 km/h Distance 173 km</desc>
<time>2012-09-18T18:33:31.29</time>
<name>9220</name>
<sym>Dot</sym>
</trkpt>
<trkpt lat="47.732607" lon="16.084448">
<ele>426.0</ele>
<desc>Speed 49.8 km/h Distance 173 km</desc>
<time>2012-09-18T18:33:32.28</time>
<name>9221</name>
<sym>Dot</sym>
</trkpt>
<trkpt lat="47.732723" lon="16.084512">
<ele>426.5</ele>
<desc>Speed 47.7 km/h Distance 173 km</desc>
<time>2012-09-18T18:33:33.37</time>
<name>9222</name>
<sym>Dot</sym>
</trkpt>
<trkpt lat="47.732840" lon="16.084573">
<ele>426.0</ele>
<desc>Speed 47.7 km/h Distance 173 km</desc>
<time>2012-09-18T18:33:34.27</time>
<name>9223</name>
<sym>Dot</sym>
</trkpt>
<trkpt lat="47.732958" lon="16.084642">
<ele>425.0</ele>
<desc>Speed 49.0 km/h Distance 173 km</desc>
<time>2012-09-18T18:33:35.27</time>
<name>9224</name>
<sym>Dot</sym>
</trkpt>
<trkpt lat="47.733082" lon="16.084712">
<ele>424.0</ele>
<desc>Speed 50.3 km/h Distance 173 km</desc>
<time>2012-09-18T18:33:36.27</time>
<name>9225</name>
<sym>Dot</sym>
</trkpt>
<trkpt lat="47.733352" lon="16.084863">
<ele>422.5</ele>
<desc>Speed 56.1 km/h Distance 173 km</desc>
<time>2012-09-18T18:33:38.27</time>
<name>9226</name>
<sym>Dot</sym>
</trkpt>
<trkpt lat="47.733480" lon="16.084935">
<ele>422.0</ele>
<desc>Speed 53.3 km/h Distance 173 km</desc>
<time>2012-09-18T18:33:39.26</time>
<name>9227</name>
<sym>Dot</sym>
</trkpt>
<trkpt lat="47.733602" lon="16.085005">
<ele>421.5</ele>
<desc>Speed 51.1 km/h Distance 173 km</desc>
<time>2012-09-18T18:33:40.26</time>
<name>9228</name>
<sym>Dot</sym>
</trkpt>
<trkpt lat="47.733860" lon="16.085147">
<ele>418.5</ele>
<desc>Speed 29.8 km/h Distance 174 km</desc>
<time>2012-09-18T18:33:43.33</time>
<name>9229</name>
<sym>Dot</sym>
</trkpt>
<trkpt lat="47.733930" lon="16.085188">
<ele>418.0</ele>
<desc>Speed 28.8 km/h Distance 174 km</desc>
<time>2012-09-18T18:33:44.32</time>
<name>9230</name>
<sym>Dot</sym>
</trkpt>
<trkpt lat="47.734013" lon="16.085233">
<ele>417.5</ele>
<desc>Speed 33.3 km/h Distance 174 km</desc>
<time>2012-09-18T18:33:45.32</time>
<name>9231</name>
<sym>Dot</sym>
</trkpt>
<trkpt lat="47.734222" lon="16.085335">
<ele>417.0</ele>
<desc>Speed 39.6 km/h Distance 174 km</desc>
<time>2012-09-18T18:33:47.31</time>
<name>9232</name>
<sym>Dot</sym>
</trkpt>
<trkpt lat="47.734325" lon="16.085382">
<ele>417.0</ele>
<desc>Speed 42.0 km/h Distance 174 km</desc>
<time>2012-09-18T18:33:48.31</time>
<name>9233</name>
<sym>Dot</sym>
</trkpt>
<trkpt lat="47.734557" lon="16.085478">
<ele>417.0</ele>
<desc>Speed 46.4 km/h Distance 174 km</desc>
<time>2012-09-18T18:33:50.34</time>
<name>9234</name>
<sym>Dot</sym>
</trkpt>
<trkpt lat="47.734668" lon="16.085523">
<ele>416.5</ele>
<desc>Speed 45.4 km/h Distance 174 km</desc>
<time>2012-09-18T18:33:51.30</time>
<name>9235</name>
<sym>Dot</sym>
</trkpt>
<trkpt lat="47.734787" lon="16.085573">
<ele>416.0</ele>
<desc>Speed 46.6 km/h Distance 174 km</desc>
<time>2012-09-18T18:33:52.30</time>
<name>9236</name>
<sym>Dot</sym>
</trkpt>
<trkpt lat="47.734902" lon="16.085622">
<ele>416.0</ele>
<desc>Speed 46.4 km/h Distance 174 km</desc>
<time>2012-09-18T18:33:53.30</time>
<name>9237</name>
<sym>Dot</sym>
</trkpt>
<trkpt lat="47.735015" lon="16.085672">
<ele>416.0</ele>
<desc>Speed 45.8 km/h Distance 174 km</desc>
<time>2012-09-18T18:33:54.30</time>
<name>9238</name>
<sym>Dot</sym>
</trkpt>
<trkpt lat="47.735133" lon="16.085723">
<ele>416.0</ele>
<desc>Speed 48.8 km/h Distance 174 km</desc>
<time>2012-09-18T18:33:55.29</time>
<name>9239</name>
<sym>Dot</sym>
</trkpt>
<trkpt lat="47.735262" lon="16.085782">
<ele>415.5</ele>
<desc>Speed 52.6 km/h Distance 174 km</desc>
<time>2012-09-18T18:33:56.28</time>
<name>9240</name>
<sym>Dot</sym>
</trkpt>
<trkpt lat="47.735395" lon="16.085838">
<ele>415.5</ele>
<desc>Speed 55.1 km/h Distance 174 km</desc>
<time>2012-09-18T18:33:57.28</time>
<name>9241</name>
<sym>Dot</sym>
</trkpt>
<trkpt lat="47.735535" lon="16.085893">
<ele>415.5</ele>
<desc>Speed 57.2 km/h Distance 174 km</desc>
<time>2012-09-18T18:33:58.27</time>
<name>9242</name>
<sym>Dot</sym>
</trkpt>
<trkpt lat="47.735685" lon="16.085950">
<ele>415.0</ele>
<desc>Speed 60.9 km/h Distance 174 km</desc>
<time>2012-09-18T18:33:59.26</time>
<name>9243</name>
<sym>Dot</sym>
</trkpt>
<trkpt lat="47.735827" lon="16.086005">
<ele>415.0</ele>
<desc>Speed 57.8 km/h Distance 174 km</desc>
<time>2012-09-18T18:34:00.32</time>
<name>9244</name>
<sym>Dot</sym>
</trkpt>
<trkpt lat="47.735965" lon="16.086063">
<ele>415.0</ele>
<desc>Speed 57.2 km/h Distance 174 km</desc>
<time>2012-09-18T18:34:01.25</time>
<name>9245</name>
<sym>Dot</sym>
</trkpt>
<trkpt lat="47.736108" lon="16.086123">
<ele>414.5</ele>
<desc>Speed 59.5 km/h Distance 174 km</desc>
<time>2012-09-18T18:34:02.24</time>
<name>9246</name>
<sym>Dot</sym>
</trkpt>
<trkpt lat="47.736262" lon="16.086177">
<ele>414.5</ele>
<desc>Speed 62.5 km/h Distance 174 km</desc>
<time>2012-09-18T18:34:03.24</time>
<name>9247</name>
<sym>Dot</sym>
</trkpt>
<trkpt lat="47.736412" lon="16.086223">
<ele>414.5</ele>
<desc>Speed 60.7 km/h Distance 174 km</desc>
<time>2012-09-18T18:34:04.23</time>
<name>9248</name>
<sym>Dot</sym>
</trkpt>
<trkpt lat="47.736558" lon="16.086265">
<ele>414.0</ele>
<desc>Speed 58.6 km/h Distance 174 km</desc>
<time>2012-09-18T18:34:05.23</time>
<name>9249</name>
<sym>Dot</sym>
</trkpt>
<trkpt lat="47.736698" lon="16.086302">
<ele>414.0</ele>
<desc>Speed 56.8 km/h Distance 174 km</desc>
<time>2012-09-18T18:34:06.23</time>
<name>9250</name>
<sym>Dot</sym>
</trkpt>
<trkpt lat="47.736838" lon="16.086338">
<ele>413.5</ele>
<desc>Speed 56.3 km/h Distance 174 km</desc>
<time>2012-09-18T18:34:07.23</time>
<name>9251</name>
<sym>Dot</sym>
</trkpt>
<trkpt lat="47.736978" lon="16.086377">
<ele>413.5</ele>
<desc>Speed 56.8 km/h Distance 174 km</desc>
<time>2012-09-18T18:34:08.22</time>
<name>9252</name>
<sym>Dot</sym>
</trkpt>
<trkpt lat="47.737120" lon="16.086417">
<ele>413.5</ele>
<desc>Speed 57.3 km/h Distance 174 km</desc>
<time>2012-09-18T18:34:09.22</time>
<name>9253</name>
<sym>Dot</sym>
</trkpt>
<trkpt lat="47.737265" lon="16.086460">
<ele>413.5</ele>
<desc>Speed 59.0 km/h Distance 174 km</desc>
<time>2012-09-18T18:34:10.28</time>
<name>9254</name>
<sym>Dot</sym>
</trkpt>
<trkpt lat="47.737408" lon="16.086512">
<ele>413.0</ele>
<desc>Speed 58.6 km/h Distance 174 km</desc>
<time>2012-09-18T18:34:11.21</time>
<name>9255</name>
<sym>Dot</sym>
</trkpt>
<trkpt lat="47.737547" lon="16.086568">
<ele>413.0</ele>
<desc>Speed 57.6 km/h Distance 174 km</desc>
<time>2012-09-18T18:34:12.20</time>
<name>9256</name>
<sym>Dot</sym>
</trkpt>
<trkpt lat="47.737687" lon="16.086632">
<ele>413.0</ele>
<desc>Speed 58.5 km/h Distance 174 km</desc>
<time>2012-09-18T18:34:13.20</time>
<name>9257</name>
<sym>Dot</sym>
</trkpt>
<trkpt lat="47.737825" lon="16.086698">
<ele>413.0</ele>
<desc>Speed 57.9 km/h Distance 174 km</desc>
<time>2012-09-18T18:34:14.19</time>
<name>9258</name>
<sym>Dot</sym>
</trkpt>
<trkpt lat="47.737963" lon="16.086770">
<ele>413.0</ele>
<desc>Speed 58.7 km/h Distance 174 km</desc>
<time>2012-09-18T18:34:15.19</time>
<name>9259</name>
<sym>Dot</sym>
</trkpt>
<trkpt lat="47.738098" lon="16.086848">
<ele>413.0</ele>
<desc>Speed 58.4 km/h Distance 174 km</desc>
<time>2012-09-18T18:34:16.18</time>
<name>9260</name>
<sym>Dot</sym>
</trkpt>
<trkpt lat="47.738232" lon="16.086930">
<ele>413.0</ele>
<desc>Speed 57.2 km/h Distance 174 km</desc>
<time>2012-09-18T18:34:17.18</time>
<name>9261</name>
<sym>Dot</sym>
</trkpt>
<trkpt lat="47.738362" lon="16.087013">
<ele>413.0</ele>
<desc>Speed 56.4 km/h Distance 174 km</desc>
<time>2012-09-18T18:34:18.17</time>
<name>9262</name>
<sym>Dot</sym>
</trkpt>
<trkpt lat="47.738492" lon="16.087100">
<ele>413.0</ele>
<desc>Speed 56.7 km/h Distance 174 km</desc>
<time>2012-09-18T18:34:19.17</time>
<name>9263</name>
<sym>Dot</sym>
</trkpt>
<trkpt lat="47.738622" lon="16.087190">
<ele>413.0</ele>
<desc>Speed 57.5 km/h Distance 174 km</desc>
<time>2012-09-18T18:34:20.23</time>
<name>9264</name>
<sym>Dot</sym>
</trkpt>
<trkpt lat="47.738760" lon="16.087285">
<ele>413.0</ele>
<desc>Speed 60.7 km/h Distance 174 km</desc>
<time>2012-09-18T18:34:21.16</time>
<name>9265</name>
<sym>Dot</sym>
</trkpt>
<trkpt lat="47.738897" lon="16.087383">
<ele>412.5</ele>
<desc>Speed 60.4 km/h Distance 174 km</desc>
<time>2012-09-18T18:34:22.15</time>
<name>9266</name>
<sym>Dot</sym>
</trkpt>
<trkpt lat="47.739028" lon="16.087477">
<ele>412.5</ele>
<desc>Speed 58.1 km/h Distance 174 km</desc>
<time>2012-09-18T18:34:23.15</time>
<name>9267</name>
<sym>Dot</sym>
</trkpt>
<trkpt lat="47.739153" lon="16.087563">
<ele>412.5</ele>
<desc>Speed 55.0 km/h Distance 174 km</desc>
<time>2012-09-18T18:34:24.15</time>
<name>9268</name>
<sym>Dot</sym>
</trkpt>
<trkpt lat="47.739275" lon="16.087648">
<ele>412.5</ele>
<desc>Speed 53.4 km/h Distance 174 km</desc>
<time>2012-09-18T18:34:25.15</time>
<name>9269</name>
<sym>Dot</sym>
</trkpt>
<trkpt lat="47.739402" lon="16.087735">
<ele>412.5</ele>
<desc>Speed 55.4 km/h Distance 174 km</desc>
<time>2012-09-18T18:34:26.15</time>
<name>9270</name>
<sym>Dot</sym>
</trkpt>
<trkpt lat="47.739533" lon="16.087815">
<ele>412.5</ele>
<desc>Speed 57.3 km/h Distance 174 km</desc>
<time>2012-09-18T18:34:27.15</time>
<name>9271</name>
<sym>Dot</sym>
</trkpt>
<trkpt lat="47.739672" lon="16.087903">
<ele>412.5</ele>
<desc>Speed 60.0 km/h Distance 174 km</desc>
<time>2012-09-18T18:34:28.14</time>
<name>9272</name>
<sym>Dot</sym>
</trkpt>
<trkpt lat="47.739817" lon="16.088008">
<ele>412.0</ele>
<desc>Speed 64.3 km/h Distance 174 km</desc>
<time>2012-09-18T18:34:29.14</time>
<name>9273</name>
<sym>Dot</sym>
</trkpt>
<trkpt lat="47.739950" lon="16.088115">
<ele>412.0</ele>
<desc>Speed 60.3 km/h Distance 174 km</desc>
<time>2012-09-18T18:34:30.20</time>
<name>9274</name>
<sym>Dot</sym>
</trkpt>
<trkpt lat="47.740073" lon="16.088218">
<ele>411.5</ele>
<desc>Speed 56.6 km/h Distance 174 km</desc>
<time>2012-09-18T18:34:31.13</time>
<name>9275</name>
<sym>Dot</sym>
</trkpt>
<trkpt lat="47.740195" lon="16.088310">
<ele>411.5</ele>
<desc>Speed 54.6 km/h Distance 174 km</desc>
<time>2012-09-18T18:34:32.12</time>
<name>9276</name>
<sym>Dot</sym>
</trkpt>
<trkpt lat="47.740322" lon="16.088395">
<ele>411.5</ele>
<desc>Speed 55.1 km/h Distance 174 km</desc>
<time>2012-09-18T18:34:33.12</time>
<name>9277</name>
<sym>Dot</sym>
</trkpt>
<trkpt lat="47.740443" lon="16.088475">
<ele>411.0</ele>
<desc>Speed 53.0 km/h Distance 174 km</desc>
<time>2012-09-18T18:34:34.11</time>
<name>9278</name>
<sym>Dot</sym>
</trkpt>
<trkpt lat="47.740557" lon="16.088553">
<ele>411.0</ele>
<desc>Speed 50.0 km/h Distance 174 km</desc>
<time>2012-09-18T18:34:35.11</time>
<name>9279</name>
<sym>Dot</sym>
</trkpt>
<trkpt lat="47.740663" lon="16.088628">
<ele>411.0</ele>
<desc>Speed 47.0 km/h Distance 174 km</desc>
<time>2012-09-18T18:34:36.10</time>
<name>9280</name>
<sym>Dot</sym>
</trkpt>
<trkpt lat="47.740763" lon="16.088698">
<ele>410.5</ele>
<desc>Speed 44.2 km/h Distance 174 km</desc>
<time>2012-09-18T18:34:37.10</time>
<name>9281</name>
<sym>Dot</sym>
</trkpt>
<trkpt lat="47.740853" lon="16.088765">
<ele>410.5</ele>
<desc>Speed 40.0 km/h Distance 174 km</desc>
<time>2012-09-18T18:34:38.09</time>
<name>9282</name>
<sym>Dot</sym>
</trkpt>
<trkpt lat="47.740932" lon="16.088828">
<ele>410.0</ele>
<desc>Speed 35.4 km/h Distance 174 km</desc>
<time>2012-09-18T18:34:39.08</time>
<name>9283</name>
<sym>Dot</sym>
</trkpt>
<trkpt lat="47.741007" lon="16.088887">
<ele>410.0</ele>
<desc>Speed 33.4 km/h Distance 174 km</desc>
<time>2012-09-18T18:34:40.14</time>
<name>9284</name>
<sym>Dot</sym>
</trkpt>
<trkpt lat="47.741083" lon="16.088928">
<ele>410.0</ele>
<desc>Speed 32.6 km/h Distance 174 km</desc>
<time>2012-09-18T18:34:41.07</time>
<name>9285</name>
<sym>Dot</sym>
</trkpt>
<trkpt lat="47.741168" lon="16.088952">
<ele>410.5</ele>
<desc>Speed 34.8 km/h Distance 174 km</desc>
<time>2012-09-18T18:34:42.06</time>
<name>9286</name>
<sym>Dot</sym>
</trkpt>
<trkpt lat="47.741267" lon="16.088975">
<ele>410.0</ele>
<desc>Speed 39.8 km/h Distance 174 km</desc>
<time>2012-09-18T18:34:43.05</time>
<name>9287</name>
<sym>Dot</sym>
</trkpt>
<trkpt lat="47.742240" lon="16.089420">
<ele>408.0</ele>
<desc>Speed 101 km/h Distance 175 km</desc>
<time>2012-09-18T18:34:48.34</time>
<name>9288</name>
<sym>Dot</sym>
</trkpt>
<trkpt lat="47.742790" lon="16.089550">
<ele>406.5</ele>
<desc>Speed 113 km/h Distance 175 km</desc>
<time>2012-09-18T18:34:50.38</time>
<name>9289</name>
<sym>Dot</sym>
</trkpt>
<trkpt lat="47.743408" lon="16.089638">
<ele>406.5</ele>
<desc>Speed 125 km/h Distance 175 km</desc>
<time>2012-09-18T18:34:52.31</time>
<name>9290</name>
<sym>Dot</sym>
</trkpt>
<trkpt lat="47.743725" lon="16.089672">
<ele>406.5</ele>
<desc>Speed 127 km/h Distance 175 km</desc>
<time>2012-09-18T18:34:53.31</time>
<name>9291</name>
<sym>Dot</sym>
</trkpt>
<trkpt lat="47.744048" lon="16.089705">
<ele>406.5</ele>
<desc>Speed 129 km/h Distance 175 km</desc>
<time>2012-09-18T18:34:54.30</time>
<name>9292</name>
<sym>Dot</sym>
</trkpt>
<trkpt lat="47.744373" lon="16.089737">
<ele>406.5</ele>
<desc>Speed 130 km/h Distance 175 km</desc>
<time>2012-09-18T18:34:55.30</time>
<name>9293</name>
<sym>Dot</sym>
</trkpt>
<trkpt lat="47.744700" lon="16.089770">
<ele>406.5</ele>
<desc>Speed 131 km/h Distance 175 km</desc>
<time>2012-09-18T18:34:56.29</time>
<name>9294</name>
<sym>Dot</sym>
</trkpt>
<trkpt lat="47.745025" lon="16.089802">
<ele>406.5</ele>
<desc>Speed 129 km/h Distance 175 km</desc>
<time>2012-09-18T18:34:57.29</time>
<name>9295</name>
<sym>Dot</sym>
</trkpt>
<trkpt lat="47.745335" lon="16.089828">
<ele>406.5</ele>
<desc>Speed 124 km/h Distance 175 km</desc>
<time>2012-09-18T18:34:58.28</time>
<name>9296</name>
<sym>Dot</sym>
</trkpt>
<trkpt lat="47.745640" lon="16.089853">
<ele>406.5</ele>
<desc>Speed 121 km/h Distance 175 km</desc>
<time>2012-09-18T18:34:59.28</time>
<name>9297</name>
<sym>Dot</sym>
</trkpt>
<trkpt lat="47.745940" lon="16.089877">
<ele>406.0</ele>
<desc>Speed 120 km/h Distance 175 km</desc>
<time>2012-09-18T18:35:00.33</time>
<name>9298</name>
<sym>Dot</sym>
</trkpt>
<trkpt lat="47.746235" lon="16.089898">
<ele>406.0</ele>
<desc>Speed 117 km/h Distance 175 km</desc>
<time>2012-09-18T18:35:01.27</time>
<name>9299</name>
<sym>Dot</sym>
</trkpt>
<trkpt lat="47.746518" lon="16.089923">
<ele>406.0</ele>
<desc>Speed 113 km/h Distance 175 km</desc>
<time>2012-09-18T18:35:02.27</time>
<name>9300</name>
<sym>Dot</sym>
</trkpt>
<trkpt lat="47.746787" lon="16.089950">
<ele>406.0</ele>
<desc>Speed 108 km/h Distance 175 km</desc>
<time>2012-09-18T18:35:03.27</time>
<name>9301</name>
<sym>Dot</sym>
</trkpt>
<trkpt lat="47.747042" lon="16.089983">
<ele>406.0</ele>
<desc>Speed 102 km/h Distance 175 km</desc>
<time>2012-09-18T18:35:04.27</time>
<name>9302</name>
<sym>Dot</sym>
</trkpt>
<trkpt lat="47.747283" lon="16.090030">
<ele>406.5</ele>
<desc>Speed 97.3 km/h Distance 175 km</desc>
<time>2012-09-18T18:35:05.26</time>
<name>9303</name>
<sym>Dot</sym>
</trkpt>
<trkpt lat="47.747518" lon="16.090092">
<ele>406.0</ele>
<desc>Speed 95.5 km/h Distance 175 km</desc>
<time>2012-09-18T18:35:06.26</time>
<name>9304</name>
<sym>Dot</sym>
</trkpt>
<trkpt lat="47.747753" lon="16.090170">
<ele>406.5</ele>
<desc>Speed 95.9 km/h Distance 175 km</desc>
<time>2012-09-18T18:35:07.26</time>
<name>9305</name>
<sym>Dot</sym>
</trkpt>
<trkpt lat="47.747990" lon="16.090265">
<ele>406.5</ele>
<desc>Speed 97.5 km/h Distance 175 km</desc>
<time>2012-09-18T18:35:08.25</time>
<name>9306</name>
<sym>Dot</sym>
</trkpt>
<trkpt lat="47.748225" lon="16.090375">
<ele>406.5</ele>
<desc>Speed 98.4 km/h Distance 175 km</desc>
<time>2012-09-18T18:35:09.28</time>
<name>9307</name>
<sym>Dot</sym>
</trkpt>
<trkpt lat="47.748447" lon="16.090498">
<ele>406.5</ele>
<desc>Speed 95.0 km/h Distance 175 km</desc>
<time>2012-09-18T18:35:10.24</time>
<name>9308</name>
<sym>Dot</sym>
</trkpt>
<trkpt lat="47.748655" lon="16.090622">
<ele>406.5</ele>
<desc>Speed 89.8 km/h Distance 175 km</desc>
<time>2012-09-18T18:35:11.23</time>
<name>9309</name>
<sym>Dot</sym>
</trkpt>
<trkpt lat="47.748852" lon="16.090738">
<ele>407.0</ele>
<desc>Speed 84.8 km/h Distance 175 km</desc>
<time>2012-09-18T18:35:12.23</time>
<name>9310</name>
<sym>Dot</sym>
</trkpt>
<trkpt lat="47.749037" lon="16.090845">
<ele>407.5</ele>
<desc>Speed 79.1 km/h Distance 175 km</desc>
<time>2012-09-18T18:35:13.22</time>
<name>9311</name>
<sym>Dot</sym>
</trkpt>
<trkpt lat="47.749210" lon="16.090942">
<ele>408.0</ele>
<desc>Speed 73.9 km/h Distance 175 km</desc>
<time>2012-09-18T18:35:14.22</time>
<name>9312</name>
<sym>Dot</sym>
</trkpt>
<trkpt lat="47.749375" lon="16.091028">
<ele>408.0</ele>
<desc>Speed 69.9 km/h Distance 175 km</desc>
<time>2012-09-18T18:35:15.21</time>
<name>9313</name>
<sym>Dot</sym>
</trkpt>
<trkpt lat="47.749533" lon="16.091107">
<ele>407.5</ele>
<desc>Speed 66.9 km/h Distance 175 km</desc>
<time>2012-09-18T18:35:16.21</time>
<name>9314</name>
<sym>Dot</sym>
</trkpt>
<trkpt lat="47.749695" lon="16.091172">
<ele>407.5</ele>
<desc>Speed 66.8 km/h Distance 175 km</desc>
<time>2012-09-18T18:35:17.20</time>
<name>9315</name>
<sym>Dot</sym>
</trkpt>
<trkpt lat="47.749860" lon="16.091222">
<ele>407.0</ele>
<desc>Speed 67.0 km/h Distance 175 km</desc>
<time>2012-09-18T18:35:18.20</time>
<name>9316</name>
<sym>Dot</sym>
</trkpt>
<trkpt lat="47.750023" lon="16.091263">
<ele>406.5</ele>
<desc>Speed 66.5 km/h Distance 175 km</desc>
<time>2012-09-18T18:35:19.27</time>
<name>9317</name>
<sym>Dot</sym>
</trkpt>
<trkpt lat="47.750182" lon="16.091293">
<ele>406.0</ele>
<desc>Speed 63.4 km/h Distance 175 km</desc>
<time>2012-09-18T18:35:20.20</time>
<name>9318</name>
<sym>Dot</sym>
</trkpt>
<trkpt lat="47.750338" lon="16.091313">
<ele>406.0</ele>
<desc>Speed 62.8 km/h Distance 175 km</desc>
<time>2012-09-18T18:35:21.19</time>
<name>9319</name>
<sym>Dot</sym>
</trkpt>
<trkpt lat="47.750497" lon="16.091325">
<ele>405.5</ele>
<desc>Speed 63.4 km/h Distance 175 km</desc>
<time>2012-09-18T18:35:22.19</time>
<name>9320</name>
<sym>Dot</sym>
</trkpt>
<trkpt lat="47.750655" lon="16.091328">
<ele>405.5</ele>
<desc>Speed 63.2 km/h Distance 175 km</desc>
<time>2012-09-18T18:35:23.19</time>
<name>9321</name>
<sym>Dot</sym>
</trkpt>
<trkpt lat="47.750807" lon="16.091327">
<ele>405.5</ele>
<desc>Speed 61.0 km/h Distance 175 km</desc>
<time>2012-09-18T18:35:24.19</time>
<name>9322</name>
<sym>Dot</sym>
</trkpt>
<trkpt lat="47.750953" lon="16.091327">
<ele>405.0</ele>
<desc>Speed 58.3 km/h Distance 176 km</desc>
<time>2012-09-18T18:35:25.18</time>
<name>9323</name>
<sym>Dot</sym>
</trkpt>
<trkpt lat="47.751100" lon="16.091333">
<ele>405.0</ele>
<desc>Speed 58.6 km/h Distance 176 km</desc>
<time>2012-09-18T18:35:26.18</time>
<name>9324</name>
<sym>Dot</sym>
</trkpt>
<trkpt lat="47.751252" lon="16.091343">
<ele>405.0</ele>
<desc>Speed 60.2 km/h Distance 176 km</desc>
<time>2012-09-18T18:35:27.17</time>
<name>9325</name>
<sym>Dot</sym>
</trkpt>
<trkpt lat="47.751395" lon="16.091348">
<ele>405.0</ele>
<desc>Speed 57.6 km/h Distance 176 km</desc>
<time>2012-09-18T18:35:28.16</time>
<name>9326</name>
<sym>Dot</sym>
</trkpt>
<trkpt lat="47.751530" lon="16.091347">
<ele>404.5</ele>
<desc>Speed 54.1 km/h Distance 176 km</desc>
<time>2012-09-18T18:35:29.23</time>
<name>9327</name>
<sym>Dot</sym>
</trkpt>
<trkpt lat="47.751655" lon="16.091343">
<ele>404.5</ele>
<desc>Speed 49.7 km/h Distance 176 km</desc>
<time>2012-09-18T18:35:30.16</time>
<name>9328</name>
<sym>Dot</sym>
</trkpt>
<trkpt lat="47.751763" lon="16.091342">
<ele>405.0</ele>
<desc>Speed 43.1 km/h Distance 176 km</desc>
<time>2012-09-18T18:35:31.15</time>
<name>9329</name>
<sym>Dot</sym>
</trkpt>
<trkpt lat="47.751963" lon="16.091293">
<ele>404.0</ele>
<desc>Speed 22.8 km/h Distance 176 km</desc>
<time>2012-09-18T18:35:34.32</time>
<name>9330</name>
<sym>Dot</sym>
</trkpt>
<trkpt lat="47.751987" lon="16.091220">
<ele>403.5</ele>
<desc>Speed 22.2 km/h Distance 176 km</desc>
<time>2012-09-18T18:35:35.31</time>
<name>9331</name>
<sym>Dot</sym>
</trkpt>
<trkpt lat="47.752015" lon="16.091128">
<ele>402.0</ele>
<desc>Speed 27.3 km/h Distance 176 km</desc>
<time>2012-09-18T18:35:36.31</time>
<name>9332</name>
<sym>Dot</sym>
</trkpt>
<trkpt lat="47.752080" lon="16.090682">
<ele>402.0</ele>
<desc>Speed 42.3 km/h Distance 176 km</desc>
<time>2012-09-18T18:35:39.38</time>
<name>9333</name>
<sym>Dot</sym>
</trkpt>
<trkpt lat="47.752102" lon="16.090548">
<ele>402.0</ele>
<desc>Speed 37.4 km/h Distance 176 km</desc>
<time>2012-09-18T18:35:40.32</time>
<name>9334</name>
<sym>Dot</sym>
</trkpt>
<trkpt lat="47.752122" lon="16.090430">
<ele>402.0</ele>
<desc>Speed 33.4 km/h Distance 176 km</desc>
<time>2012-09-18T18:35:41.31</time>
<name>9335</name>
<sym>Dot</sym>
</trkpt>
<trkpt lat="47.752153" lon="16.090308">
<ele>402.0</ele>
<desc>Speed 0.5 km/h Distance 176 km</desc>
<time>2012-09-18T18:35:46.32</time>
<name>9336</name>
<sym>Dot</sym>
</trkpt>
<trkpt lat="47.752153" lon="16.090308">
<ele>402.0</ele>
<desc>Speed 0.3 km/h Distance 176 km</desc>
<time>2012-09-18T18:35:47.31</time>
<name>9337</name>
<sym>Dot</sym>
</trkpt>
<trkpt lat="47.752155" lon="16.090310">
<ele>402.0</ele>
<desc>Speed 0.0 km/h Distance 176 km</desc>
<time>2012-09-18T18:35:48.31</time>
<name>9338</name>
<sym>Dot</sym>
</trkpt>
<trkpt lat="47.752155" lon="16.090310">
<ele>402.0</ele>
<desc>Speed 0.0 km/h Distance 176 km</desc>
<time>2012-09-18T18:35:49.37</time>
<name>9339</name>
<sym>Dot</sym>
</trkpt>
<trkpt lat="47.752153" lon="16.090312">
<ele>402.0</ele>
<desc>Speed 0.3 km/h Distance 176 km</desc>
<time>2012-09-18T18:35:50.30</time>
<name>9340</name>
<sym>Dot</sym>
</trkpt>
<trkpt lat="47.752155" lon="16.090312">
<ele>402.0</ele>
<desc>Speed 0.4 km/h Distance 176 km</desc>
<time>2012-09-18T18:35:51.29</time>
<name>9341</name>
<sym>Dot</sym>
</trkpt>
<trkpt lat="47.752155" lon="16.090312">
<ele>402.0</ele>
<desc>Speed 0.2 km/h Distance 176 km</desc>
<time>2012-09-18T18:35:52.29</time>
<name>9342</name>
<sym>Dot</sym>
</trkpt>
<trkpt lat="47.752155" lon="16.090313">
<ele>402.0</ele>
<desc>Speed 0.0 km/h Distance 176 km</desc>
<time>2012-09-18T18:35:53.29</time>
<name>9343</name>
<sym>Dot</sym>
</trkpt>
<trkpt lat="47.752155" lon="16.090313">
<ele>402.0</ele>
<desc>Speed 0.2 km/h Distance 176 km</desc>
<time>2012-09-18T18:35:54.29</time>
<name>9344</name>
<sym>Dot</sym>
</trkpt>
<trkpt lat="47.752155" lon="16.090313">
<ele>402.0</ele>
<desc>Speed 0.1 km/h Distance 176 km</desc>
<time>2012-09-18T18:35:55.28</time>
<name>9345</name>
<sym>Dot</sym>
</trkpt>
<trkpt lat="47.752155" lon="16.090313">
<ele>402.0</ele>
<desc>Speed 0.3 km/h Distance 176 km</desc>
<time>2012-09-18T18:35:56.29</time>
<name>9346</name>
<sym>Dot</sym>
</trkpt>
<trkpt lat="47.752155" lon="16.090313">
<ele>402.0</ele>
<desc>Speed 0.5 km/h Distance 176 km</desc>
<time>2012-09-18T18:35:57.28</time>
<name>9347</name>
<sym>Dot</sym>
</trkpt>
<trkpt lat="47.752155" lon="16.090313">
<ele>402.0</ele>
<desc>Speed 0.3 km/h Distance 176 km</desc>
<time>2012-09-18T18:35:58.25</time>
<name>9348</name>
<sym>Dot</sym>
</trkpt>
<trkpt lat="47.752155" lon="16.090313">
<ele>402.0</ele>
<desc>Speed 0.2 km/h Distance 176 km</desc>
<time>2012-09-18T18:35:59.33</time>
<name>9349</name>
<sym>Dot</sym>
</trkpt>
<trkpt lat="47.752155" lon="16.090313">
<ele>402.0</ele>
<desc>Speed 0.1 km/h Distance 176 km</desc>
<time>2012-09-18T18:36:00.26</time>
<name>9350</name>
<sym>Dot</sym>
</trkpt>
<trkpt lat="47.752155" lon="16.090313">
<ele>402.0</ele>
<desc>Speed 0.2 km/h Distance 176 km</desc>
<time>2012-09-18T18:36:01.25</time>
<name>9351</name>
<sym>Dot</sym>
</trkpt>
<trkpt lat="47.752155" lon="16.090313">
<ele>402.0</ele>
<desc>Speed 0.2 km/h Distance 176 km</desc>
<time>2012-09-18T18:36:02.25</time>
<name>9352</name>
<sym>Dot</sym>
</trkpt>
<trkpt lat="47.752155" lon="16.090313">
<ele>402.0</ele>
<desc>Speed 0.0 km/h Distance 176 km</desc>
<time>2012-09-18T18:36:03.24</time>
<name>9353</name>
<sym>Dot</sym>
</trkpt>
<trkpt lat="47.752155" lon="16.090313">
<ele>402.0</ele>
<desc>Speed 0.2 km/h Distance 176 km</desc>
<time>2012-09-18T18:36:04.25</time>
<name>9354</name>
<sym>Dot</sym>
</trkpt>
<trkpt lat="47.752155" lon="16.090313">
<ele>402.0</ele>
<desc>Speed 0.2 km/h Distance 176 km</desc>
<time>2012-09-18T18:36:05.24</time>
<name>9355</name>
<sym>Dot</sym>
</trkpt>
<trkpt lat="47.752155" lon="16.090313">
<ele>402.0</ele>
<desc>Speed 0.3 km/h Distance 176 km</desc>
<time>2012-09-18T18:36:06.23</time>
<name>9356</name>
<sym>Dot</sym>
</trkpt>
<trkpt lat="47.752155" lon="16.090313">
<ele>402.0</ele>
<desc>Speed 0.2 km/h Distance 176 km</desc>
<time>2012-09-18T18:36:07.23</time>
<name>9357</name>
<sym>Dot</sym>
</trkpt>
<trkpt lat="47.752155" lon="16.090313">
<ele>402.0</ele>
<desc>Speed 0.1 km/h Distance 176 km</desc>
<time>2012-09-18T18:36:08.24</time>
<name>9358</name>
<sym>Dot</sym>
</trkpt>
<trkpt lat="47.752155" lon="16.090313">
<ele>402.0</ele>
<desc>Speed 0.0 km/h Distance 176 km</desc>
<time>2012-09-18T18:36:09.22</time>
<name>9359</name>
<sym>Dot</sym>
</trkpt>
<trkpt lat="47.752155" lon="16.090313">
<ele>402.0</ele>
<desc>Speed 0.0 km/h Distance 176 km</desc>
<time>2012-09-18T18:36:10.21</time>
<name>9360</name>
<sym>Dot</sym>
</trkpt>
<trkpt lat="47.752155" lon="16.090313">
<ele>402.0</ele>
<desc>Speed 0.1 km/h Distance 176 km</desc>
<time>2012-09-18T18:36:11.20</time>
<name>9361</name>
<sym>Dot</sym>
</trkpt>
<trkpt lat="47.752155" lon="16.090313">
<ele>402.0</ele>
<desc>Speed 0.1 km/h Distance 176 km</desc>
<time>2012-09-18T18:36:12.19</time>
<name>9362</name>
<sym>Dot</sym>
</trkpt>
<trkpt lat="47.752155" lon="16.090313">
<ele>402.0</ele>
<desc>Speed 0.1 km/h Distance 176 km</desc>
<time>2012-09-18T18:36:13.19</time>
<name>9363</name>
<sym>Dot</sym>
</trkpt>
<trkpt lat="47.752155" lon="16.090313">
<ele>402.0</ele>
<desc>Speed 0.4 km/h Distance 176 km</desc>
<time>2012-09-18T18:36:14.18</time>
<name>9364</name>
<sym>Dot</sym>
</trkpt>
<trkpt lat="47.752155" lon="16.090313">
<ele>402.0</ele>
<desc>Speed 0.2 km/h Distance 176 km</desc>
<time>2012-09-18T18:36:15.18</time>
<name>9365</name>
<sym>Dot</sym>
</trkpt>
<trkpt lat="47.752155" lon="16.090313">
<ele>402.0</ele>
<desc>Speed 0.1 km/h Distance 176 km</desc>
<time>2012-09-18T18:36:16.17</time>
<name>9366</name>
<sym>Dot</sym>
</trkpt>
<trkpt lat="47.752155" lon="16.090313">
<ele>402.0</ele>
<desc>Speed 0.1 km/h Distance 176 km</desc>
<time>2012-09-18T18:36:17.16</time>
<name>9367</name>
<sym>Dot</sym>
</trkpt>
<trkpt lat="47.752155" lon="16.090313">
<ele>402.0</ele>
<desc>Speed 0.2 km/h Distance 176 km</desc>
<time>2012-09-18T18:36:18.24</time>
<name>9368</name>
<sym>Dot</sym>
</trkpt>
<trkpt lat="47.752157" lon="16.090313">
<ele>402.0</ele>
<desc>Speed 0.6 km/h Distance 176 km</desc>
<time>2012-09-18T18:36:19.15</time>
<name>9369</name>
<sym>Dot</sym>
</trkpt>
<trkpt lat="47.752160" lon="16.090305">
<ele>401.5</ele>
<desc>Speed 3.1 km/h Distance 176 km</desc>
<time>2012-09-18T18:36:20.15</time>
<name>9370</name>
<sym>Dot</sym>
</trkpt>
<trkpt lat="47.752173" lon="16.090285">
<ele>401.5</ele>
<desc>Speed 8.1 km/h Distance 176 km</desc>
<time>2012-09-18T18:36:21.15</time>
<name>9371</name>
<sym>Dot</sym>
</trkpt>
<trkpt lat="47.752190" lon="16.090275">
<ele>401.5</ele>
<desc>Speed 8.1 km/h Distance 176 km</desc>
<time>2012-09-18T18:36:22.15</time>
<name>9372</name>
<sym>Dot</sym>
</trkpt>
<trkpt lat="47.752212" lon="16.090277">
<ele>401.5</ele>
<desc>Speed 8.1 km/h Distance 176 km</desc>
<time>2012-09-18T18:36:23.13</time>
<name>9373</name>
<sym>Dot</sym>
</trkpt>
<trkpt lat="47.752240" lon="16.090288">
<ele>401.5</ele>
<desc>Speed 11.5 km/h Distance 176 km</desc>
<time>2012-09-18T18:36:24.12</time>
<name>9374</name>
<sym>Dot</sym>
</trkpt>
<trkpt lat="47.752360" lon="16.090335">
<ele>401.5</ele>
<desc>Speed 21.7 km/h Distance 176 km</desc>
<time>2012-09-18T18:36:26.11</time>
<name>9375</name>
<sym>Dot</sym>
</trkpt>
<trkpt lat="47.752400" lon="16.090355">
<ele>402.0</ele>
<desc>Speed 3.1 km/h Distance 176 km</desc>
<time>2012-09-18T18:36:29.33</time>
<name>9376</name>
<sym>Dot</sym>
</trkpt>
<trkpt lat="47.752405" lon="16.090365">
<ele>402.0</ele>
<desc>Speed 3.2 km/h Distance 176 km</desc>
<time>2012-09-18T18:36:30.31</time>
<name>9377</name>
<sym>Dot</sym>
</trkpt>
<trkpt lat="47.752405" lon="16.090365">
<ele>402.0</ele>
<desc>Speed 0.6 km/h Distance 176 km</desc>
<time>2012-09-18T18:36:31.31</time>
<name>9378</name>
<sym>Dot</sym>
</trkpt>
<trkpt lat="47.752405" lon="16.090362">
<ele>402.0</ele>
<desc>Speed 0.1 km/h Distance 176 km</desc>
<time>2012-09-18T18:36:32.30</time>
<name>9379</name>
<sym>Dot</sym>
</trkpt>
<trkpt lat="47.752405" lon="16.090362">
<ele>402.5</ele>
<desc>Speed 0.2 km/h Distance 176 km</desc>
<time>2012-09-18T18:36:33.29</time>
<name>9380</name>
<sym>Dot</sym>
</trkpt>
<trkpt lat="47.752405" lon="16.090362">
<ele>402.5</ele>
<desc>Speed 0.6 km/h Distance 176 km</desc>
<time>2012-09-18T18:36:34.29</time>
<name>9381</name>
<sym>Dot</sym>
</trkpt>
<trkpt lat="47.752407" lon="16.090373">
<ele>402.5</ele>
<desc>Speed 2.8 km/h Distance 176 km</desc>
<time>2012-09-18T18:36:35.29</time>
<name>9382</name>
<sym>Dot</sym>
</trkpt>
<trkpt lat="47.752412" lon="16.090378">
<ele>402.5</ele>
<desc>Speed 1.4 km/h Distance 176 km</desc>
<time>2012-09-18T18:36:36.29</time>
<name>9383</name>
<sym>Dot</sym>
</trkpt>
<trkpt lat="47.752415" lon="16.090385">
<ele>402.5</ele>
<desc>Speed 1.0 km/h Distance 176 km</desc>
<time>2012-09-18T18:36:37.28</time>
<name>9384</name>
<sym>Dot</sym>
</trkpt>
<trkpt lat="47.752418" lon="16.090398">
<ele>402.5</ele>
<desc>Speed 3.5 km/h Distance 176 km</desc>
<time>2012-09-18T18:36:38.37</time>
<name>9385</name>
<sym>Dot</sym>
</trkpt>
<trkpt lat="47.752423" lon="16.090405">
<ele>402.5</ele>
<desc>Speed 2.6 km/h Distance 176 km</desc>
<time>2012-09-18T18:36:39.28</time>
<name>9386</name>
<sym>Dot</sym>
</trkpt>
<trkpt lat="47.752423" lon="16.090407">
<ele>402.5</ele>
<desc>Speed 1.2 km/h Distance 176 km</desc>
<time>2012-09-18T18:36:40.27</time>
<name>9387</name>
<sym>Dot</sym>
</trkpt>
<trkpt lat="47.752425" lon="16.090412">
<ele>402.5</ele>
<desc>Speed 0.5 km/h Distance 176 km</desc>
<time>2012-09-18T18:36:41.26</time>
<name>9388</name>
<sym>Dot</sym>
</trkpt>
<trkpt lat="47.752427" lon="16.090412">
<ele>403.0</ele>
<desc>Speed 0.4 km/h Distance 176 km</desc>
<time>2012-09-18T18:36:42.26</time>
<name>9389</name>
<sym>Dot</sym>
</trkpt>
<trkpt lat="47.752427" lon="16.090408">
<ele>403.0</ele>
<desc>Speed 0.3 km/h Distance 176 km</desc>
<time>2012-09-18T18:36:43.26</time>
<name>9390</name>
<sym>Dot</sym>
</trkpt>
<trkpt lat="47.752425" lon="16.090403">
<ele>403.5</ele>
<desc>Speed 0.3 km/h Distance 176 km</desc>
<time>2012-09-18T18:36:44.26</time>
<name>9391</name>
<sym>Dot</sym>
</trkpt>
<trkpt lat="47.752422" lon="16.090397">
<ele>404.0</ele>
<desc>Speed 0.7 km/h Distance 176 km</desc>
<time>2012-09-18T18:36:45.24</time>
<name>9392</name>
<sym>Dot</sym>
</trkpt>
<trkpt lat="47.752423" lon="16.090395">
<ele>404.0</ele>
<desc>Speed 0.4 km/h Distance 176 km</desc>
<time>2012-09-18T18:36:46.23</time>
<name>9393</name>
<sym>Dot</sym>
</trkpt>
<trkpt lat="47.752420" lon="16.090390">
<ele>404.5</ele>
<desc>Speed 0.6 km/h Distance 176 km</desc>
<time>2012-09-18T18:36:47.23</time>
<name>9394</name>
<sym>Dot</sym>
</trkpt>
<trkpt lat="47.752423" lon="16.090390">
<ele>405.0</ele>
<desc>Speed 1.1 km/h Distance 176 km</desc>
<time>2012-09-18T18:36:48.34</time>
<name>9395</name>
<sym>Dot</sym>
</trkpt>
<trkpt lat="47.752423" lon="16.090385">
<ele>405.0</ele>
<desc>Speed 1.9 km/h Distance 176 km</desc>
<time>2012-09-18T18:36:49.23</time>
<name>9396</name>
<sym>Dot</sym>
</trkpt>
<trkpt lat="47.752428" lon="16.090383">
<ele>405.0</ele>
<desc>Speed 0.0 km/h Distance 176 km</desc>
<time>2012-09-18T18:36:50.22</time>
<name>9397</name>
<sym>Dot</sym>
</trkpt>
<trkpt lat="47.752425" lon="16.090368">
<ele>405.5</ele>
<desc>Speed 0.1 km/h Distance 176 km</desc>
<time>2012-09-18T18:36:51.22</time>
<name>9398</name>
<sym>Dot</sym>
</trkpt>
<trkpt lat="47.752427" lon="16.090367">
<ele>405.5</ele>
<desc>Speed 0.0 km/h Distance 176 km</desc>
<time>2012-09-18T18:36:52.21</time>
<name>9399</name>
<sym>Dot</sym>
</trkpt>
<trkpt lat="47.752428" lon="16.090368">
<ele>405.5</ele>
<desc>Speed 0.0 km/h Distance 176 km</desc>
<time>2012-09-18T18:36:53.19</time>
<name>9400</name>
<sym>Dot</sym>
</trkpt>
<trkpt lat="47.752433" lon="16.090368">
<ele>405.5</ele>
<desc>Speed 0.7 km/h Distance 176 km</desc>
<time>2012-09-18T18:36:54.20</time>
<name>9401</name>
<sym>Dot</sym>
</trkpt>
<trkpt lat="47.752432" lon="16.090357">
<ele>406.0</ele>
<desc>Speed 0.4 km/h Distance 176 km</desc>
<time>2012-09-18T18:36:55.19</time>
<name>9402</name>
<sym>Dot</sym>
</trkpt>
<trkpt lat="47.752432" lon="16.090357">
<ele>406.0</ele>
<desc>Speed 0.1 km/h Distance 176 km</desc>
<time>2012-09-18T18:36:56.17</time>
<name>9403</name>
<sym>Dot</sym>
</trkpt>
<trkpt lat="47.752432" lon="16.090355">
<ele>406.0</ele>
<desc>Speed 0.1 km/h Distance 176 km</desc>
<time>2012-09-18T18:36:57.17</time>
<name>9404</name>
<sym>Dot</sym>
</trkpt>
<trkpt lat="47.752433" lon="16.090355">
<ele>406.0</ele>
<desc>Speed 0.4 km/h Distance 176 km</desc>
<time>2012-09-18T18:36:58.22</time>
<name>9405</name>
<sym>Dot</sym>
</trkpt>
<trkpt lat="47.752435" lon="16.090358">
<ele>406.0</ele>
<desc>Speed 1.4 km/h Distance 176 km</desc>
<time>2012-09-18T18:36:59.17</time>
<name>9406</name>
<sym>Dot</sym>
</trkpt>
<trkpt lat="47.752437" lon="16.090357">
<ele>406.0</ele>
<desc>Speed 0.3 km/h Distance 176 km</desc>
<time>2012-09-18T18:37:00.18</time>
<name>9407</name>
<sym>Dot</sym>
</trkpt>
<trkpt lat="47.752440" lon="16.090360">
<ele>405.5</ele>
<desc>Speed 2.3 km/h Distance 176 km</desc>
<time>2012-09-18T18:37:01.17</time>
<name>9408</name>
<sym>Dot</sym>
</trkpt>
<trkpt lat="47.752442" lon="16.090360">
<ele>405.5</ele>
<desc>Speed 0.5 km/h Distance 176 km</desc>
<time>2012-09-18T18:37:02.17</time>
<name>9409</name>
<sym>Dot</sym>
</trkpt>
<trkpt lat="47.752442" lon="16.090357">
<ele>405.5</ele>
<desc>Speed 0.4 km/h Distance 176 km</desc>
<time>2012-09-18T18:37:03.16</time>
<name>9410</name>
<sym>Dot</sym>
</trkpt>
<trkpt lat="47.752442" lon="16.090355">
<ele>405.5</ele>
<desc>Speed 0.4 km/h Distance 176 km</desc>
<time>2012-09-18T18:37:04.15</time>
<name>9411</name>
<sym>Dot</sym>
</trkpt>
<trkpt lat="47.752440" lon="16.090348">
<ele>405.5</ele>
<desc>Speed 0.1 km/h Distance 176 km</desc>
<time>2012-09-18T18:37:05.14</time>
<name>9412</name>
<sym>Dot</sym>
</trkpt>
<trkpt lat="47.752440" lon="16.090342">
<ele>405.5</ele>
<desc>Speed 1.4 km/h Distance 176 km</desc>
<time>2012-09-18T18:37:06.15</time>
<name>9413</name>
<sym>Dot</sym>
</trkpt>
<trkpt lat="47.752447" lon="16.090347">
<ele>404.5</ele>
<desc>Speed 5.3 km/h Distance 176 km</desc>
<time>2012-09-18T18:37:07.15</time>
<name>9414</name>
<sym>Dot</sym>
</trkpt>
<trkpt lat="47.752445" lon="16.090342">
<ele>404.0</ele>
<desc>Speed 0.6 km/h Distance 176 km</desc>
<time>2012-09-18T18:37:08.20</time>
<name>9415</name>
<sym>Dot</sym>
</trkpt>
<trkpt lat="47.752437" lon="16.090323">
<ele>404.5</ele>
<desc>Speed 4.0 km/h Distance 176 km</desc>
<time>2012-09-18T18:37:09.14</time>
<name>9416</name>
<sym>Dot</sym>
</trkpt>
<trkpt lat="47.752442" lon="16.090333">
<ele>403.5</ele>
<desc>Speed 4.6 km/h Distance 176 km</desc>
<time>2012-09-18T18:37:10.13</time>
<name>9417</name>
<sym>Dot</sym>
</trkpt>
<trkpt lat="47.752437" lon="16.090325">
<ele>404.5</ele>
<desc>Speed 2.0 km/h Distance 176 km</desc>
<time>2012-09-18T18:37:11.13</time>
<name>9418</name>
<sym>Dot</sym>
</trkpt>
<trkpt lat="47.752437" lon="16.090322">
<ele>404.5</ele>
<desc>Speed 0.1 km/h Distance 176 km</desc>
<time>2012-09-18T18:37:12.12</time>
<name>9419</name>
<sym>Dot</sym>
</trkpt>
<trkpt lat="47.752433" lon="16.090318">
<ele>404.5</ele>
<desc>Speed 0.4 km/h Distance 176 km</desc>
<time>2012-09-18T18:37:13.12</time>
<name>9420</name>
<sym>Dot</sym>
</trkpt>
<trkpt lat="47.752433" lon="16.090325">
<ele>404.5</ele>
<desc>Speed 0.5 km/h Distance 176 km</desc>
<time>2012-09-18T18:37:14.12</time>
<name>9421</name>
<sym>Dot</sym>
</trkpt>
<trkpt lat="47.752435" lon="16.090332">
<ele>404.5</ele>
<desc>Speed 0.2 km/h Distance 176 km</desc>
<time>2012-09-18T18:37:15.10</time>
<name>9422</name>
<sym>Dot</sym>
</trkpt>
<trkpt lat="47.752438" lon="16.090337">
<ele>404.5</ele>
<desc>Speed 0.4 km/h Distance 176 km</desc>
<time>2012-09-18T18:37:16.10</time>
<name>9423</name>
<sym>Dot</sym>
</trkpt>
<trkpt lat="47.752437" lon="16.090335">
<ele>404.5</ele>
<desc>Speed 0.3 km/h Distance 176 km</desc>
<time>2012-09-18T18:37:17.13</time>
<name>9424</name>
<sym>Dot</sym>
</trkpt>
<trkpt lat="47.752437" lon="16.090337">
<ele>404.5</ele>
<desc>Speed 0.3 km/h Distance 176 km</desc>
<time>2012-09-18T18:37:18.10</time>
<name>9425</name>
<sym>Dot</sym>
</trkpt>
<trkpt lat="47.752460" lon="16.090285">
<ele>405.0</ele>
<desc>Speed 4.2 km/h Distance 176 km</desc>
<time>2012-09-18T18:37:21.32</time>
<name>9426</name>
<sym>Dot</sym>
</trkpt>
<trkpt lat="47.752452" lon="16.090297">
<ele>405.0</ele>
<desc>Speed 4.2 km/h Distance 176 km</desc>
<time>2012-09-18T18:37:22.31</time>
<name>9427</name>
<sym>Dot</sym>
</trkpt>
<trkpt lat="47.752455" lon="16.090297">
<ele>405.5</ele>
<desc>Speed 1.8 km/h Distance 176 km</desc>
<time>2012-09-18T18:37:23.35</time>
<name>9428</name>
<sym>Crossing</sym>
</trkpt>
</trkseg>
</trk>
</gpx>
